<?xml version="1.0" encoding="UTF-8" standalone="no" ?>
<gpx xmlns="http://www.topografix.com/GPX/1/1" xmlns:xsi="http://www.w3.org/2001/XMLSchema-instance" xsi:schemaLocation="http://www.topografix.com/GPX/1/1 http://www.topografix.com/GPX/1/1/gpx.xsd" version="1.1" creator="VisuGPX - https://www.visugpx.com">
  <metadata>
    <name>Corbie Vaux Hamelet </name>
  </metadata>
  <trk>
    <name><![CDATA[Corbie Vaux Hamelet _1]]></name>
    <trkseg>
      <trkpt lat="49.90503" lon="2.51072">
        <ele>32.1</ele>
        <time>2020-09-30T11:53:16Z</time>
      </trkpt>
      <trkpt lat="49.90503" lon="2.51072">
        <ele>32.1</ele>
        <time>2020-09-30T11:53:18Z</time>
      </trkpt>
      <trkpt lat="49.90503" lon="2.51072">
        <ele>32.1</ele>
        <time>2020-09-30T11:53:19Z</time>
      </trkpt>
      <trkpt lat="49.90503" lon="2.51072">
        <ele>32.1</ele>
        <time>2020-09-30T11:53:20Z</time>
      </trkpt>
      <trkpt lat="49.90503" lon="2.51072">
        <ele>32.1</ele>
        <time>2020-09-30T11:53:21Z</time>
      </trkpt>
      <trkpt lat="49.90503" lon="2.51072">
        <ele>32.1</ele>
        <time>2020-09-30T11:53:23Z</time>
      </trkpt>
      <trkpt lat="49.90503" lon="2.51072">
        <ele>32.1</ele>
        <time>2020-09-30T11:53:24Z</time>
      </trkpt>
      <trkpt lat="49.90503" lon="2.51072">
        <ele>32.1</ele>
        <time>2020-09-30T11:53:25Z</time>
      </trkpt>
      <trkpt lat="49.90503" lon="2.51072">
        <ele>32.1</ele>
        <time>2020-09-30T11:53:27Z</time>
      </trkpt>
      <trkpt lat="49.90504" lon="2.51071">
        <ele>32.1</ele>
        <time>2020-09-30T11:53:28Z</time>
      </trkpt>
      <trkpt lat="49.90504" lon="2.51071">
        <ele>32.1</ele>
        <time>2020-09-30T11:53:29Z</time>
      </trkpt>
      <trkpt lat="49.90504" lon="2.51071">
        <ele>32.1</ele>
        <time>2020-09-30T11:53:31Z</time>
      </trkpt>
      <trkpt lat="49.90505" lon="2.51071">
        <ele>32.1</ele>
        <time>2020-09-30T11:53:33Z</time>
      </trkpt>
      <trkpt lat="49.90506" lon="2.51071">
        <ele>32.1</ele>
        <time>2020-09-30T11:53:34Z</time>
      </trkpt>
      <trkpt lat="49.90504" lon="2.51072">
        <ele>32.1</ele>
        <time>2020-09-30T11:53:38Z</time>
      </trkpt>
      <trkpt lat="49.90504" lon="2.51072">
        <ele>32.1</ele>
        <time>2020-09-30T11:53:39Z</time>
      </trkpt>
      <trkpt lat="49.90505" lon="2.51072">
        <ele>32.1</ele>
        <time>2020-09-30T11:53:40Z</time>
      </trkpt>
      <trkpt lat="49.90505" lon="2.51072">
        <ele>32.1</ele>
        <time>2020-09-30T11:53:42Z</time>
      </trkpt>
      <trkpt lat="49.90505" lon="2.51071">
        <ele>32.1</ele>
        <time>2020-09-30T11:53:44Z</time>
      </trkpt>
      <trkpt lat="49.90504" lon="2.51071">
        <ele>32.1</ele>
        <time>2020-09-30T11:53:45Z</time>
      </trkpt>
      <trkpt lat="49.90504" lon="2.51071">
        <ele>32.1</ele>
        <time>2020-09-30T11:53:46Z</time>
      </trkpt>
      <trkpt lat="49.90503" lon="2.51071">
        <ele>32.1</ele>
        <time>2020-09-30T11:53:48Z</time>
      </trkpt>
      <trkpt lat="49.90503" lon="2.51071">
        <ele>32.1</ele>
        <time>2020-09-30T11:53:49Z</time>
      </trkpt>
      <trkpt lat="49.90504" lon="2.51069">
        <ele>32.1</ele>
        <time>2020-09-30T11:53:51Z</time>
      </trkpt>
      <trkpt lat="49.90503" lon="2.51069">
        <ele>32.1</ele>
        <time>2020-09-30T11:53:52Z</time>
      </trkpt>
      <trkpt lat="49.90503" lon="2.51068">
        <ele>32</ele>
        <time>2020-09-30T11:53:54Z</time>
      </trkpt>
      <trkpt lat="49.90504" lon="2.51068">
        <ele>32</ele>
        <time>2020-09-30T11:53:55Z</time>
      </trkpt>
      <trkpt lat="49.90504" lon="2.51068">
        <ele>32</ele>
        <time>2020-09-30T11:53:56Z</time>
      </trkpt>
      <trkpt lat="49.90503" lon="2.51068">
        <ele>32</ele>
        <time>2020-09-30T11:53:58Z</time>
      </trkpt>
      <trkpt lat="49.90503" lon="2.51068">
        <ele>32</ele>
        <time>2020-09-30T11:54:00Z</time>
      </trkpt>
      <trkpt lat="49.90502" lon="2.51068">
        <ele>32</ele>
        <time>2020-09-30T11:54:02Z</time>
      </trkpt>
      <trkpt lat="49.90502" lon="2.51068">
        <ele>32</ele>
        <time>2020-09-30T11:54:03Z</time>
      </trkpt>
      <trkpt lat="49.90502" lon="2.51068">
        <ele>32</ele>
        <time>2020-09-30T11:54:04Z</time>
      </trkpt>
      <trkpt lat="49.90502" lon="2.51068">
        <ele>32</ele>
        <time>2020-09-30T11:54:06Z</time>
      </trkpt>
      <trkpt lat="49.90501" lon="2.51068">
        <ele>32</ele>
        <time>2020-09-30T11:54:07Z</time>
      </trkpt>
      <trkpt lat="49.90501" lon="2.51068">
        <ele>32</ele>
        <time>2020-09-30T11:54:08Z</time>
      </trkpt>
      <trkpt lat="49.90501" lon="2.51068">
        <ele>32</ele>
        <time>2020-09-30T11:54:10Z</time>
      </trkpt>
      <trkpt lat="49.90501" lon="2.51068">
        <ele>32</ele>
        <time>2020-09-30T11:54:11Z</time>
      </trkpt>
      <trkpt lat="49.90501" lon="2.51068">
        <ele>32</ele>
        <time>2020-09-30T11:54:13Z</time>
      </trkpt>
      <trkpt lat="49.90501" lon="2.51068">
        <ele>32</ele>
        <time>2020-09-30T11:54:15Z</time>
      </trkpt>
      <trkpt lat="49.90501" lon="2.51068">
        <ele>32</ele>
        <time>2020-09-30T11:54:16Z</time>
      </trkpt>
      <trkpt lat="49.90501" lon="2.51068">
        <ele>32</ele>
        <time>2020-09-30T11:54:17Z</time>
      </trkpt>
      <trkpt lat="49.90501" lon="2.51068">
        <ele>32</ele>
        <time>2020-09-30T11:54:18Z</time>
      </trkpt>
      <trkpt lat="49.90501" lon="2.51068">
        <ele>32</ele>
        <time>2020-09-30T11:54:20Z</time>
      </trkpt>
      <trkpt lat="49.90501" lon="2.51068">
        <ele>32</ele>
        <time>2020-09-30T11:54:22Z</time>
      </trkpt>
      <trkpt lat="49.90501" lon="2.51068">
        <ele>32</ele>
        <time>2020-09-30T11:54:24Z</time>
      </trkpt>
      <trkpt lat="49.90501" lon="2.51068">
        <ele>32</ele>
        <time>2020-09-30T11:54:26Z</time>
      </trkpt>
      <trkpt lat="49.90501" lon="2.51068">
        <ele>32</ele>
        <time>2020-09-30T11:54:28Z</time>
      </trkpt>
      <trkpt lat="49.90501" lon="2.51068">
        <ele>32</ele>
        <time>2020-09-30T11:54:29Z</time>
      </trkpt>
      <trkpt lat="49.90501" lon="2.51068">
        <ele>32</ele>
        <time>2020-09-30T11:54:31Z</time>
      </trkpt>
      <trkpt lat="49.90501" lon="2.51068">
        <ele>32</ele>
        <time>2020-09-30T11:54:33Z</time>
      </trkpt>
      <trkpt lat="49.90501" lon="2.51068">
        <ele>32</ele>
        <time>2020-09-30T11:54:34Z</time>
      </trkpt>
      <trkpt lat="49.90501" lon="2.51068">
        <ele>32</ele>
        <time>2020-09-30T11:54:36Z</time>
      </trkpt>
      <trkpt lat="49.90501" lon="2.51068">
        <ele>32</ele>
        <time>2020-09-30T11:54:38Z</time>
      </trkpt>
      <trkpt lat="49.90501" lon="2.51068">
        <ele>32</ele>
        <time>2020-09-30T11:54:39Z</time>
      </trkpt>
      <trkpt lat="49.90501" lon="2.51068">
        <ele>32</ele>
        <time>2020-09-30T11:54:40Z</time>
      </trkpt>
      <trkpt lat="49.90501" lon="2.51068">
        <ele>32</ele>
        <time>2020-09-30T11:54:42Z</time>
      </trkpt>
      <trkpt lat="49.90501" lon="2.51068">
        <ele>32</ele>
        <time>2020-09-30T11:54:43Z</time>
      </trkpt>
      <trkpt lat="49.90501" lon="2.51068">
        <ele>32</ele>
        <time>2020-09-30T11:54:44Z</time>
      </trkpt>
      <trkpt lat="49.90501" lon="2.51068">
        <ele>32</ele>
        <time>2020-09-30T11:54:46Z</time>
      </trkpt>
      <trkpt lat="49.90501" lon="2.51068">
        <ele>32</ele>
        <time>2020-09-30T11:54:48Z</time>
      </trkpt>
      <trkpt lat="49.90501" lon="2.51068">
        <ele>32</ele>
        <time>2020-09-30T11:54:49Z</time>
      </trkpt>
      <trkpt lat="49.90501" lon="2.51068">
        <ele>32</ele>
        <time>2020-09-30T11:54:50Z</time>
      </trkpt>
      <trkpt lat="49.90501" lon="2.51068">
        <ele>32</ele>
        <time>2020-09-30T11:54:52Z</time>
      </trkpt>
      <trkpt lat="49.90501" lon="2.51068">
        <ele>32</ele>
        <time>2020-09-30T11:54:53Z</time>
      </trkpt>
      <trkpt lat="49.90501" lon="2.51068">
        <ele>32</ele>
        <time>2020-09-30T11:54:55Z</time>
      </trkpt>
      <trkpt lat="49.90501" lon="2.51068">
        <ele>32</ele>
        <time>2020-09-30T11:54:58Z</time>
      </trkpt>
      <trkpt lat="49.90501" lon="2.51068">
        <ele>32</ele>
        <time>2020-09-30T11:55:00Z</time>
      </trkpt>
      <trkpt lat="49.90501" lon="2.51068">
        <ele>32</ele>
        <time>2020-09-30T11:55:02Z</time>
      </trkpt>
      <trkpt lat="49.90501" lon="2.51068">
        <ele>32</ele>
        <time>2020-09-30T11:55:03Z</time>
      </trkpt>
      <trkpt lat="49.90501" lon="2.51068">
        <ele>32</ele>
        <time>2020-09-30T11:55:06Z</time>
      </trkpt>
      <trkpt lat="49.90501" lon="2.51068">
        <ele>32</ele>
        <time>2020-09-30T11:55:07Z</time>
      </trkpt>
      <trkpt lat="49.90501" lon="2.51068">
        <ele>32</ele>
        <time>2020-09-30T11:55:10Z</time>
      </trkpt>
      <trkpt lat="49.90501" lon="2.51068">
        <ele>32</ele>
        <time>2020-09-30T11:55:12Z</time>
      </trkpt>
      <trkpt lat="49.90501" lon="2.51068">
        <ele>32</ele>
        <time>2020-09-30T11:55:13Z</time>
      </trkpt>
      <trkpt lat="49.90501" lon="2.51068">
        <ele>32</ele>
        <time>2020-09-30T11:55:15Z</time>
      </trkpt>
      <trkpt lat="49.90501" lon="2.51068">
        <ele>32</ele>
        <time>2020-09-30T11:55:17Z</time>
      </trkpt>
      <trkpt lat="49.90501" lon="2.51068">
        <ele>32</ele>
        <time>2020-09-30T11:55:19Z</time>
      </trkpt>
      <trkpt lat="49.90501" lon="2.51068">
        <ele>32</ele>
        <time>2020-09-30T11:55:21Z</time>
      </trkpt>
      <trkpt lat="49.90501" lon="2.51068">
        <ele>32</ele>
        <time>2020-09-30T11:55:23Z</time>
      </trkpt>
      <trkpt lat="49.90501" lon="2.51068">
        <ele>32</ele>
        <time>2020-09-30T11:55:25Z</time>
      </trkpt>
      <trkpt lat="49.90501" lon="2.51068">
        <ele>32</ele>
        <time>2020-09-30T11:55:26Z</time>
      </trkpt>
      <trkpt lat="49.90501" lon="2.51068">
        <ele>32</ele>
        <time>2020-09-30T11:55:28Z</time>
      </trkpt>
      <trkpt lat="49.90501" lon="2.51068">
        <ele>32</ele>
        <time>2020-09-30T11:55:29Z</time>
      </trkpt>
      <trkpt lat="49.90501" lon="2.51068">
        <ele>32</ele>
        <time>2020-09-30T11:55:30Z</time>
      </trkpt>
      <trkpt lat="49.90501" lon="2.51068">
        <ele>32</ele>
        <time>2020-09-30T11:55:31Z</time>
      </trkpt>
      <trkpt lat="49.90501" lon="2.51068">
        <ele>32</ele>
        <time>2020-09-30T11:55:33Z</time>
      </trkpt>
      <trkpt lat="49.90501" lon="2.51068">
        <ele>32</ele>
        <time>2020-09-30T11:55:34Z</time>
      </trkpt>
      <trkpt lat="49.90501" lon="2.51068">
        <ele>32</ele>
        <time>2020-09-30T11:55:36Z</time>
      </trkpt>
      <trkpt lat="49.90501" lon="2.51068">
        <ele>32</ele>
        <time>2020-09-30T11:55:38Z</time>
      </trkpt>
      <trkpt lat="49.90501" lon="2.51068">
        <ele>32</ele>
        <time>2020-09-30T11:55:40Z</time>
      </trkpt>
      <trkpt lat="49.90501" lon="2.51068">
        <ele>32</ele>
        <time>2020-09-30T11:55:41Z</time>
      </trkpt>
      <trkpt lat="49.90501" lon="2.51068">
        <ele>32</ele>
        <time>2020-09-30T11:55:43Z</time>
      </trkpt>
      <trkpt lat="49.90501" lon="2.51068">
        <ele>32</ele>
        <time>2020-09-30T11:55:45Z</time>
      </trkpt>
      <trkpt lat="49.90501" lon="2.51068">
        <ele>32</ele>
        <time>2020-09-30T11:55:46Z</time>
      </trkpt>
      <trkpt lat="49.90501" lon="2.51068">
        <ele>32</ele>
        <time>2020-09-30T11:55:47Z</time>
      </trkpt>
      <trkpt lat="49.90501" lon="2.51068">
        <ele>32</ele>
        <time>2020-09-30T11:55:49Z</time>
      </trkpt>
      <trkpt lat="49.90501" lon="2.51068">
        <ele>32</ele>
        <time>2020-09-30T11:55:50Z</time>
      </trkpt>
      <trkpt lat="49.90501" lon="2.51068">
        <ele>32</ele>
        <time>2020-09-30T11:55:53Z</time>
      </trkpt>
      <trkpt lat="49.90501" lon="2.51068">
        <ele>32</ele>
        <time>2020-09-30T11:55:55Z</time>
      </trkpt>
      <trkpt lat="49.90501" lon="2.51068">
        <ele>32</ele>
        <time>2020-09-30T11:55:56Z</time>
      </trkpt>
      <trkpt lat="49.90501" lon="2.51068">
        <ele>32</ele>
        <time>2020-09-30T11:55:57Z</time>
      </trkpt>
      <trkpt lat="49.90501" lon="2.51068">
        <ele>32</ele>
        <time>2020-09-30T11:55:59Z</time>
      </trkpt>
      <trkpt lat="49.90501" lon="2.51068">
        <ele>32</ele>
        <time>2020-09-30T11:56:00Z</time>
      </trkpt>
      <trkpt lat="49.90501" lon="2.51068">
        <ele>32</ele>
        <time>2020-09-30T11:56:01Z</time>
      </trkpt>
      <trkpt lat="49.90501" lon="2.51068">
        <ele>32</ele>
        <time>2020-09-30T11:56:02Z</time>
      </trkpt>
      <trkpt lat="49.90501" lon="2.51068">
        <ele>32</ele>
        <time>2020-09-30T11:56:04Z</time>
      </trkpt>
      <trkpt lat="49.90501" lon="2.51068">
        <ele>32</ele>
        <time>2020-09-30T11:56:06Z</time>
      </trkpt>
      <trkpt lat="49.90501" lon="2.51068">
        <ele>32</ele>
        <time>2020-09-30T11:56:07Z</time>
      </trkpt>
      <trkpt lat="49.90501" lon="2.51068">
        <ele>32</ele>
        <time>2020-09-30T11:56:08Z</time>
      </trkpt>
      <trkpt lat="49.90501" lon="2.51068">
        <ele>32</ele>
        <time>2020-09-30T11:56:09Z</time>
      </trkpt>
      <trkpt lat="49.90501" lon="2.51068">
        <ele>32</ele>
        <time>2020-09-30T11:56:11Z</time>
      </trkpt>
      <trkpt lat="49.90501" lon="2.51068">
        <ele>32</ele>
        <time>2020-09-30T11:56:12Z</time>
      </trkpt>
      <trkpt lat="49.90501" lon="2.51068">
        <ele>32</ele>
        <time>2020-09-30T11:56:14Z</time>
      </trkpt>
      <trkpt lat="49.90501" lon="2.51068">
        <ele>32</ele>
        <time>2020-09-30T11:56:15Z</time>
      </trkpt>
      <trkpt lat="49.90501" lon="2.51068">
        <ele>32</ele>
        <time>2020-09-30T11:56:17Z</time>
      </trkpt>
      <trkpt lat="49.90501" lon="2.51068">
        <ele>32</ele>
        <time>2020-09-30T11:56:18Z</time>
      </trkpt>
      <trkpt lat="49.90501" lon="2.51068">
        <ele>32</ele>
        <time>2020-09-30T11:56:20Z</time>
      </trkpt>
      <trkpt lat="49.90501" lon="2.51068">
        <ele>32</ele>
        <time>2020-09-30T11:56:21Z</time>
      </trkpt>
      <trkpt lat="49.90501" lon="2.51068">
        <ele>32</ele>
        <time>2020-09-30T11:56:23Z</time>
      </trkpt>
      <trkpt lat="49.90501" lon="2.51068">
        <ele>32</ele>
        <time>2020-09-30T11:56:24Z</time>
      </trkpt>
      <trkpt lat="49.90501" lon="2.51068">
        <ele>32</ele>
        <time>2020-09-30T11:56:25Z</time>
      </trkpt>
      <trkpt lat="49.90501" lon="2.51068">
        <ele>32</ele>
        <time>2020-09-30T11:56:27Z</time>
      </trkpt>
      <trkpt lat="49.90501" lon="2.51068">
        <ele>32</ele>
        <time>2020-09-30T11:56:28Z</time>
      </trkpt>
      <trkpt lat="49.90501" lon="2.51068">
        <ele>32</ele>
        <time>2020-09-30T11:56:30Z</time>
      </trkpt>
      <trkpt lat="49.90501" lon="2.51068">
        <ele>32</ele>
        <time>2020-09-30T11:56:32Z</time>
      </trkpt>
      <trkpt lat="49.90501" lon="2.51068">
        <ele>32</ele>
        <time>2020-09-30T11:56:35Z</time>
      </trkpt>
      <trkpt lat="49.90501" lon="2.51068">
        <ele>32</ele>
        <time>2020-09-30T11:56:37Z</time>
      </trkpt>
      <trkpt lat="49.90501" lon="2.51068">
        <ele>32</ele>
        <time>2020-09-30T11:56:38Z</time>
      </trkpt>
      <trkpt lat="49.90501" lon="2.51068">
        <ele>32</ele>
        <time>2020-09-30T11:56:40Z</time>
      </trkpt>
      <trkpt lat="49.90501" lon="2.51068">
        <ele>32</ele>
        <time>2020-09-30T11:56:41Z</time>
      </trkpt>
      <trkpt lat="49.90501" lon="2.51068">
        <ele>32</ele>
        <time>2020-09-30T11:56:43Z</time>
      </trkpt>
      <trkpt lat="49.90501" lon="2.51068">
        <ele>32</ele>
        <time>2020-09-30T11:56:44Z</time>
      </trkpt>
      <trkpt lat="49.90501" lon="2.51068">
        <ele>32</ele>
        <time>2020-09-30T11:56:45Z</time>
      </trkpt>
      <trkpt lat="49.90501" lon="2.51068">
        <ele>32</ele>
        <time>2020-09-30T11:56:47Z</time>
      </trkpt>
      <trkpt lat="49.90501" lon="2.51068">
        <ele>32</ele>
        <time>2020-09-30T11:56:48Z</time>
      </trkpt>
      <trkpt lat="49.90501" lon="2.51068">
        <ele>32</ele>
        <time>2020-09-30T11:56:50Z</time>
      </trkpt>
      <trkpt lat="49.90501" lon="2.51068">
        <ele>32</ele>
        <time>2020-09-30T11:56:51Z</time>
      </trkpt>
      <trkpt lat="49.90501" lon="2.51068">
        <ele>32</ele>
        <time>2020-09-30T11:56:53Z</time>
      </trkpt>
      <trkpt lat="49.90501" lon="2.51068">
        <ele>32</ele>
        <time>2020-09-30T11:56:54Z</time>
      </trkpt>
      <trkpt lat="49.90501" lon="2.51068">
        <ele>32</ele>
        <time>2020-09-30T11:56:55Z</time>
      </trkpt>
      <trkpt lat="49.90501" lon="2.51068">
        <ele>32</ele>
        <time>2020-09-30T11:56:56Z</time>
      </trkpt>
      <trkpt lat="49.90501" lon="2.51068">
        <ele>32</ele>
        <time>2020-09-30T11:56:58Z</time>
      </trkpt>
      <trkpt lat="49.90501" lon="2.51068">
        <ele>32</ele>
        <time>2020-09-30T11:57:00Z</time>
      </trkpt>
      <trkpt lat="49.90501" lon="2.51068">
        <ele>32</ele>
        <time>2020-09-30T11:57:01Z</time>
      </trkpt>
      <trkpt lat="49.90501" lon="2.51068">
        <ele>32</ele>
        <time>2020-09-30T11:57:04Z</time>
      </trkpt>
      <trkpt lat="49.90501" lon="2.51068">
        <ele>32</ele>
        <time>2020-09-30T11:57:05Z</time>
      </trkpt>
      <trkpt lat="49.90501" lon="2.51068">
        <ele>32</ele>
        <time>2020-09-30T11:57:06Z</time>
      </trkpt>
      <trkpt lat="49.90501" lon="2.51068">
        <ele>32</ele>
        <time>2020-09-30T11:57:09Z</time>
      </trkpt>
      <trkpt lat="49.90501" lon="2.51068">
        <ele>32</ele>
        <time>2020-09-30T11:57:11Z</time>
      </trkpt>
      <trkpt lat="49.90501" lon="2.51068">
        <ele>32</ele>
        <time>2020-09-30T11:57:12Z</time>
      </trkpt>
      <trkpt lat="49.90501" lon="2.51068">
        <ele>32</ele>
        <time>2020-09-30T11:57:14Z</time>
      </trkpt>
      <trkpt lat="49.90501" lon="2.51068">
        <ele>32</ele>
        <time>2020-09-30T11:57:16Z</time>
      </trkpt>
      <trkpt lat="49.90501" lon="2.51068">
        <ele>32</ele>
        <time>2020-09-30T11:57:17Z</time>
      </trkpt>
      <trkpt lat="49.90501" lon="2.51068">
        <ele>32</ele>
        <time>2020-09-30T11:57:18Z</time>
      </trkpt>
      <trkpt lat="49.90501" lon="2.51069">
        <ele>32</ele>
        <time>2020-09-30T11:57:20Z</time>
      </trkpt>
      <trkpt lat="49.90502" lon="2.51069">
        <ele>32</ele>
        <time>2020-09-30T11:57:21Z</time>
      </trkpt>
      <trkpt lat="49.90503" lon="2.5107">
        <ele>32</ele>
        <time>2020-09-30T11:57:22Z</time>
      </trkpt>
      <trkpt lat="49.90503" lon="2.51071">
        <ele>32</ele>
        <time>2020-09-30T11:57:24Z</time>
      </trkpt>
      <trkpt lat="49.90503" lon="2.51072">
        <ele>32</ele>
        <time>2020-09-30T11:57:25Z</time>
      </trkpt>
      <trkpt lat="49.90503" lon="2.51072">
        <ele>32</ele>
        <time>2020-09-30T11:57:26Z</time>
      </trkpt>
      <trkpt lat="49.90504" lon="2.51073">
        <ele>32</ele>
        <time>2020-09-30T11:57:27Z</time>
      </trkpt>
      <trkpt lat="49.90505" lon="2.51074">
        <ele>32</ele>
        <time>2020-09-30T11:57:29Z</time>
      </trkpt>
      <trkpt lat="49.90506" lon="2.51075">
        <ele>32</ele>
        <time>2020-09-30T11:57:30Z</time>
      </trkpt>
      <trkpt lat="49.90507" lon="2.51076">
        <ele>32</ele>
        <time>2020-09-30T11:57:31Z</time>
      </trkpt>
      <trkpt lat="49.90508" lon="2.51079">
        <ele>32</ele>
        <time>2020-09-30T11:57:33Z</time>
      </trkpt>
      <trkpt lat="49.90508" lon="2.51081">
        <ele>32</ele>
        <time>2020-09-30T11:57:35Z</time>
      </trkpt>
      <trkpt lat="49.90511" lon="2.51085">
        <ele>31.9</ele>
        <time>2020-09-30T11:57:37Z</time>
      </trkpt>
      <trkpt lat="49.90512" lon="2.51087">
        <ele>31.9</ele>
        <time>2020-09-30T11:57:39Z</time>
      </trkpt>
      <trkpt lat="49.90513" lon="2.51091">
        <ele>31.9</ele>
        <time>2020-09-30T11:57:40Z</time>
      </trkpt>
      <trkpt lat="49.90513" lon="2.51095">
        <ele>31.9</ele>
        <time>2020-09-30T11:57:42Z</time>
      </trkpt>
      <trkpt lat="49.90514" lon="2.51099">
        <ele>31.9</ele>
        <time>2020-09-30T11:57:43Z</time>
      </trkpt>
      <trkpt lat="49.90515" lon="2.51101">
        <ele>31.8</ele>
        <time>2020-09-30T11:57:45Z</time>
      </trkpt>
      <trkpt lat="49.90515" lon="2.51104">
        <ele>31.8</ele>
        <time>2020-09-30T11:57:46Z</time>
      </trkpt>
      <trkpt lat="49.90515" lon="2.51106">
        <ele>31.8</ele>
        <time>2020-09-30T11:57:47Z</time>
      </trkpt>
      <trkpt lat="49.90515" lon="2.51108">
        <ele>31.8</ele>
        <time>2020-09-30T11:57:48Z</time>
      </trkpt>
      <trkpt lat="49.90515" lon="2.5111">
        <ele>31.8</ele>
        <time>2020-09-30T11:57:50Z</time>
      </trkpt>
      <trkpt lat="49.90516" lon="2.51113">
        <ele>31.8</ele>
        <time>2020-09-30T11:57:52Z</time>
      </trkpt>
      <trkpt lat="49.90518" lon="2.51114">
        <ele>31.8</ele>
        <time>2020-09-30T11:57:53Z</time>
      </trkpt>
      <trkpt lat="49.90518" lon="2.51116">
        <ele>31.8</ele>
        <time>2020-09-30T11:57:54Z</time>
      </trkpt>
      <trkpt lat="49.90518" lon="2.51118">
        <ele>31.8</ele>
        <time>2020-09-30T11:57:55Z</time>
      </trkpt>
      <trkpt lat="49.90518" lon="2.51121">
        <ele>31.7</ele>
        <time>2020-09-30T11:57:57Z</time>
      </trkpt>
      <trkpt lat="49.90517" lon="2.51122">
        <ele>31.7</ele>
        <time>2020-09-30T11:57:58Z</time>
      </trkpt>
      <trkpt lat="49.90517" lon="2.51125">
        <ele>31.7</ele>
        <time>2020-09-30T11:57:59Z</time>
      </trkpt>
      <trkpt lat="49.90517" lon="2.51127">
        <ele>31.7</ele>
        <time>2020-09-30T11:58:00Z</time>
      </trkpt>
      <trkpt lat="49.90517" lon="2.51129">
        <ele>31.7</ele>
        <time>2020-09-30T11:58:01Z</time>
      </trkpt>
      <trkpt lat="49.90517" lon="2.5113">
        <ele>31.7</ele>
        <time>2020-09-30T11:58:02Z</time>
      </trkpt>
      <trkpt lat="49.90517" lon="2.51132">
        <ele>31.7</ele>
        <time>2020-09-30T11:58:04Z</time>
      </trkpt>
      <trkpt lat="49.90517" lon="2.51134">
        <ele>31.7</ele>
        <time>2020-09-30T11:58:05Z</time>
      </trkpt>
      <trkpt lat="49.90517" lon="2.51136">
        <ele>31.7</ele>
        <time>2020-09-30T11:58:06Z</time>
      </trkpt>
      <trkpt lat="49.90517" lon="2.51139">
        <ele>31.7</ele>
        <time>2020-09-30T11:58:07Z</time>
      </trkpt>
      <trkpt lat="49.90517" lon="2.51141">
        <ele>31.7</ele>
        <time>2020-09-30T11:58:09Z</time>
      </trkpt>
      <trkpt lat="49.90517" lon="2.51143">
        <ele>31.7</ele>
        <time>2020-09-30T11:58:10Z</time>
      </trkpt>
      <trkpt lat="49.90517" lon="2.51145">
        <ele>31.7</ele>
        <time>2020-09-30T11:58:11Z</time>
      </trkpt>
      <trkpt lat="49.90516" lon="2.51147">
        <ele>31.7</ele>
        <time>2020-09-30T11:58:12Z</time>
      </trkpt>
      <trkpt lat="49.90517" lon="2.51148">
        <ele>31.6</ele>
        <time>2020-09-30T11:58:13Z</time>
      </trkpt>
      <trkpt lat="49.90517" lon="2.5115">
        <ele>31.6</ele>
        <time>2020-09-30T11:58:15Z</time>
      </trkpt>
      <trkpt lat="49.90517" lon="2.51152">
        <ele>31.6</ele>
        <time>2020-09-30T11:58:16Z</time>
      </trkpt>
      <trkpt lat="49.90516" lon="2.51153">
        <ele>31.6</ele>
        <time>2020-09-30T11:58:17Z</time>
      </trkpt>
      <trkpt lat="49.90516" lon="2.51155">
        <ele>31.6</ele>
        <time>2020-09-30T11:58:18Z</time>
      </trkpt>
      <trkpt lat="49.90517" lon="2.51157">
        <ele>31.6</ele>
        <time>2020-09-30T11:58:19Z</time>
      </trkpt>
      <trkpt lat="49.90517" lon="2.51158">
        <ele>31.6</ele>
        <time>2020-09-30T11:58:21Z</time>
      </trkpt>
      <trkpt lat="49.90516" lon="2.5116">
        <ele>31.6</ele>
        <time>2020-09-30T11:58:22Z</time>
      </trkpt>
      <trkpt lat="49.90516" lon="2.51163">
        <ele>31.6</ele>
        <time>2020-09-30T11:58:23Z</time>
      </trkpt>
      <trkpt lat="49.90516" lon="2.51165">
        <ele>31.6</ele>
        <time>2020-09-30T11:58:24Z</time>
      </trkpt>
      <trkpt lat="49.90517" lon="2.51167">
        <ele>31.6</ele>
        <time>2020-09-30T11:58:25Z</time>
      </trkpt>
      <trkpt lat="49.90516" lon="2.51169">
        <ele>31.6</ele>
        <time>2020-09-30T11:58:26Z</time>
      </trkpt>
      <trkpt lat="49.90516" lon="2.5117">
        <ele>31.6</ele>
        <time>2020-09-30T11:58:28Z</time>
      </trkpt>
      <trkpt lat="49.90515" lon="2.51173">
        <ele>31.6</ele>
        <time>2020-09-30T11:58:29Z</time>
      </trkpt>
      <trkpt lat="49.90514" lon="2.51175">
        <ele>31.6</ele>
        <time>2020-09-30T11:58:30Z</time>
      </trkpt>
      <trkpt lat="49.90514" lon="2.51177">
        <ele>31.6</ele>
        <time>2020-09-30T11:58:32Z</time>
      </trkpt>
      <trkpt lat="49.90513" lon="2.51178">
        <ele>31.6</ele>
        <time>2020-09-30T11:58:33Z</time>
      </trkpt>
      <trkpt lat="49.90513" lon="2.5118">
        <ele>31.5</ele>
        <time>2020-09-30T11:58:34Z</time>
      </trkpt>
      <trkpt lat="49.90513" lon="2.51181">
        <ele>31.5</ele>
        <time>2020-09-30T11:58:35Z</time>
      </trkpt>
      <trkpt lat="49.90513" lon="2.51183">
        <ele>31.5</ele>
        <time>2020-09-30T11:58:36Z</time>
      </trkpt>
      <trkpt lat="49.90513" lon="2.51184">
        <ele>31.5</ele>
        <time>2020-09-30T11:58:37Z</time>
      </trkpt>
      <trkpt lat="49.90513" lon="2.51187">
        <ele>31.5</ele>
        <time>2020-09-30T11:58:39Z</time>
      </trkpt>
      <trkpt lat="49.90513" lon="2.51189">
        <ele>31.5</ele>
        <time>2020-09-30T11:58:40Z</time>
      </trkpt>
      <trkpt lat="49.90514" lon="2.5119">
        <ele>31.5</ele>
        <time>2020-09-30T11:58:41Z</time>
      </trkpt>
      <trkpt lat="49.90514" lon="2.51192">
        <ele>31.5</ele>
        <time>2020-09-30T11:58:42Z</time>
      </trkpt>
      <trkpt lat="49.90515" lon="2.51194">
        <ele>31.5</ele>
        <time>2020-09-30T11:58:43Z</time>
      </trkpt>
      <trkpt lat="49.90515" lon="2.51196">
        <ele>31.5</ele>
        <time>2020-09-30T11:58:45Z</time>
      </trkpt>
      <trkpt lat="49.90515" lon="2.51199">
        <ele>31.5</ele>
        <time>2020-09-30T11:58:46Z</time>
      </trkpt>
      <trkpt lat="49.90516" lon="2.51203">
        <ele>31.4</ele>
        <time>2020-09-30T11:58:47Z</time>
      </trkpt>
      <trkpt lat="49.90517" lon="2.51205">
        <ele>31.4</ele>
        <time>2020-09-30T11:58:48Z</time>
      </trkpt>
      <trkpt lat="49.90517" lon="2.51208">
        <ele>31.4</ele>
        <time>2020-09-30T11:58:49Z</time>
      </trkpt>
      <trkpt lat="49.90517" lon="2.5121">
        <ele>31.4</ele>
        <time>2020-09-30T11:58:50Z</time>
      </trkpt>
      <trkpt lat="49.90517" lon="2.51211">
        <ele>31.4</ele>
        <time>2020-09-30T11:58:51Z</time>
      </trkpt>
      <trkpt lat="49.90517" lon="2.51216">
        <ele>31.4</ele>
        <time>2020-09-30T11:58:53Z</time>
      </trkpt>
      <trkpt lat="49.90518" lon="2.51218">
        <ele>31.4</ele>
        <time>2020-09-30T11:58:54Z</time>
      </trkpt>
      <trkpt lat="49.90518" lon="2.5122">
        <ele>31.4</ele>
        <time>2020-09-30T11:58:55Z</time>
      </trkpt>
      <trkpt lat="49.90518" lon="2.51223">
        <ele>31.4</ele>
        <time>2020-09-30T11:58:56Z</time>
      </trkpt>
      <trkpt lat="49.90518" lon="2.51225">
        <ele>31.4</ele>
        <time>2020-09-30T11:58:57Z</time>
      </trkpt>
      <trkpt lat="49.90518" lon="2.51228">
        <ele>31.4</ele>
        <time>2020-09-30T11:58:59Z</time>
      </trkpt>
      <trkpt lat="49.90518" lon="2.5123">
        <ele>31.4</ele>
        <time>2020-09-30T11:59:00Z</time>
      </trkpt>
      <trkpt lat="49.90519" lon="2.51233">
        <ele>31.4</ele>
        <time>2020-09-30T11:59:01Z</time>
      </trkpt>
      <trkpt lat="49.90519" lon="2.51237">
        <ele>31.4</ele>
        <time>2020-09-30T11:59:02Z</time>
      </trkpt>
      <trkpt lat="49.90519" lon="2.51238">
        <ele>31.4</ele>
        <time>2020-09-30T11:59:03Z</time>
      </trkpt>
      <trkpt lat="49.9052" lon="2.5124">
        <ele>31.4</ele>
        <time>2020-09-30T11:59:05Z</time>
      </trkpt>
      <trkpt lat="49.9052" lon="2.51243">
        <ele>31.4</ele>
        <time>2020-09-30T11:59:06Z</time>
      </trkpt>
      <trkpt lat="49.9052" lon="2.51244">
        <ele>31.4</ele>
        <time>2020-09-30T11:59:07Z</time>
      </trkpt>
      <trkpt lat="49.9052" lon="2.51246">
        <ele>31.4</ele>
        <time>2020-09-30T11:59:08Z</time>
      </trkpt>
      <trkpt lat="49.90521" lon="2.51248">
        <ele>31.4</ele>
        <time>2020-09-30T11:59:09Z</time>
      </trkpt>
      <trkpt lat="49.90521" lon="2.51251">
        <ele>31.4</ele>
        <time>2020-09-30T11:59:10Z</time>
      </trkpt>
      <trkpt lat="49.90521" lon="2.51252">
        <ele>31.4</ele>
        <time>2020-09-30T11:59:11Z</time>
      </trkpt>
      <trkpt lat="49.90521" lon="2.51254">
        <ele>31.4</ele>
        <time>2020-09-30T11:59:12Z</time>
      </trkpt>
      <trkpt lat="49.90521" lon="2.51256">
        <ele>31.4</ele>
        <time>2020-09-30T11:59:14Z</time>
      </trkpt>
      <trkpt lat="49.90522" lon="2.51258">
        <ele>31.4</ele>
        <time>2020-09-30T11:59:15Z</time>
      </trkpt>
      <trkpt lat="49.90522" lon="2.5126">
        <ele>31.4</ele>
        <time>2020-09-30T11:59:16Z</time>
      </trkpt>
      <trkpt lat="49.90522" lon="2.51262">
        <ele>31.5</ele>
        <time>2020-09-30T11:59:17Z</time>
      </trkpt>
      <trkpt lat="49.90523" lon="2.51265">
        <ele>31.5</ele>
        <time>2020-09-30T11:59:18Z</time>
      </trkpt>
      <trkpt lat="49.90523" lon="2.51267">
        <ele>31.5</ele>
        <time>2020-09-30T11:59:19Z</time>
      </trkpt>
      <trkpt lat="49.90523" lon="2.51269">
        <ele>31.5</ele>
        <time>2020-09-30T11:59:20Z</time>
      </trkpt>
      <trkpt lat="49.90523" lon="2.5127">
        <ele>31.5</ele>
        <time>2020-09-30T11:59:21Z</time>
      </trkpt>
      <trkpt lat="49.90524" lon="2.51272">
        <ele>31.5</ele>
        <time>2020-09-30T11:59:22Z</time>
      </trkpt>
      <trkpt lat="49.90523" lon="2.51275">
        <ele>31.5</ele>
        <time>2020-09-30T11:59:23Z</time>
      </trkpt>
      <trkpt lat="49.90524" lon="2.51277">
        <ele>31.5</ele>
        <time>2020-09-30T11:59:24Z</time>
      </trkpt>
      <trkpt lat="49.90524" lon="2.51278">
        <ele>31.5</ele>
        <time>2020-09-30T11:59:25Z</time>
      </trkpt>
      <trkpt lat="49.90524" lon="2.51281">
        <ele>31.5</ele>
        <time>2020-09-30T11:59:27Z</time>
      </trkpt>
      <trkpt lat="49.90524" lon="2.51283">
        <ele>31.5</ele>
        <time>2020-09-30T11:59:28Z</time>
      </trkpt>
      <trkpt lat="49.90524" lon="2.51284">
        <ele>31.5</ele>
        <time>2020-09-30T11:59:29Z</time>
      </trkpt>
      <trkpt lat="49.90525" lon="2.51287">
        <ele>31.5</ele>
        <time>2020-09-30T11:59:30Z</time>
      </trkpt>
      <trkpt lat="49.90525" lon="2.51289">
        <ele>31.5</ele>
        <time>2020-09-30T11:59:31Z</time>
      </trkpt>
      <trkpt lat="49.90525" lon="2.51291">
        <ele>31.5</ele>
        <time>2020-09-30T11:59:33Z</time>
      </trkpt>
      <trkpt lat="49.90526" lon="2.51293">
        <ele>31.5</ele>
        <time>2020-09-30T11:59:34Z</time>
      </trkpt>
      <trkpt lat="49.90526" lon="2.51294">
        <ele>31.5</ele>
        <time>2020-09-30T11:59:35Z</time>
      </trkpt>
      <trkpt lat="49.90526" lon="2.51296">
        <ele>31.5</ele>
        <time>2020-09-30T11:59:36Z</time>
      </trkpt>
      <trkpt lat="49.90526" lon="2.51298">
        <ele>31.5</ele>
        <time>2020-09-30T11:59:37Z</time>
      </trkpt>
      <trkpt lat="49.90526" lon="2.51302">
        <ele>31.5</ele>
        <time>2020-09-30T11:59:38Z</time>
      </trkpt>
      <trkpt lat="49.90526" lon="2.51304">
        <ele>31.5</ele>
        <time>2020-09-30T11:59:40Z</time>
      </trkpt>
      <trkpt lat="49.90526" lon="2.51306">
        <ele>31.5</ele>
        <time>2020-09-30T11:59:41Z</time>
      </trkpt>
      <trkpt lat="49.90526" lon="2.51307">
        <ele>31.5</ele>
        <time>2020-09-30T11:59:42Z</time>
      </trkpt>
      <trkpt lat="49.90527" lon="2.51309">
        <ele>31.5</ele>
        <time>2020-09-30T11:59:43Z</time>
      </trkpt>
      <trkpt lat="49.90527" lon="2.51312">
        <ele>31.6</ele>
        <time>2020-09-30T11:59:44Z</time>
      </trkpt>
      <trkpt lat="49.90527" lon="2.51314">
        <ele>31.6</ele>
        <time>2020-09-30T11:59:45Z</time>
      </trkpt>
      <trkpt lat="49.90526" lon="2.51315">
        <ele>31.6</ele>
        <time>2020-09-30T11:59:46Z</time>
      </trkpt>
      <trkpt lat="49.90526" lon="2.51318">
        <ele>31.6</ele>
        <time>2020-09-30T11:59:47Z</time>
      </trkpt>
      <trkpt lat="49.90526" lon="2.51319">
        <ele>31.6</ele>
        <time>2020-09-30T11:59:48Z</time>
      </trkpt>
      <trkpt lat="49.90525" lon="2.51321">
        <ele>31.6</ele>
        <time>2020-09-30T11:59:49Z</time>
      </trkpt>
      <trkpt lat="49.90525" lon="2.51323">
        <ele>31.6</ele>
        <time>2020-09-30T11:59:50Z</time>
      </trkpt>
      <trkpt lat="49.90525" lon="2.51325">
        <ele>31.6</ele>
        <time>2020-09-30T11:59:51Z</time>
      </trkpt>
      <trkpt lat="49.90524" lon="2.51328">
        <ele>31.6</ele>
        <time>2020-09-30T11:59:53Z</time>
      </trkpt>
      <trkpt lat="49.90524" lon="2.51331">
        <ele>31.5</ele>
        <time>2020-09-30T11:59:54Z</time>
      </trkpt>
      <trkpt lat="49.90524" lon="2.51333">
        <ele>31.5</ele>
        <time>2020-09-30T11:59:55Z</time>
      </trkpt>
      <trkpt lat="49.90524" lon="2.51334">
        <ele>31.5</ele>
        <time>2020-09-30T11:59:56Z</time>
      </trkpt>
      <trkpt lat="49.90524" lon="2.51338">
        <ele>31.5</ele>
        <time>2020-09-30T11:59:57Z</time>
      </trkpt>
      <trkpt lat="49.90524" lon="2.51339">
        <ele>31.5</ele>
        <time>2020-09-30T11:59:59Z</time>
      </trkpt>
      <trkpt lat="49.90524" lon="2.51341">
        <ele>31.5</ele>
        <time>2020-09-30T12:00:00Z</time>
      </trkpt>
      <trkpt lat="49.90524" lon="2.51342">
        <ele>31.5</ele>
        <time>2020-09-30T12:00:01Z</time>
      </trkpt>
      <trkpt lat="49.90524" lon="2.51344">
        <ele>31.5</ele>
        <time>2020-09-30T12:00:02Z</time>
      </trkpt>
      <trkpt lat="49.90524" lon="2.51346">
        <ele>31.5</ele>
        <time>2020-09-30T12:00:03Z</time>
      </trkpt>
      <trkpt lat="49.90524" lon="2.51348">
        <ele>31.5</ele>
        <time>2020-09-30T12:00:04Z</time>
      </trkpt>
      <trkpt lat="49.90524" lon="2.51351">
        <ele>31.5</ele>
        <time>2020-09-30T12:00:05Z</time>
      </trkpt>
      <trkpt lat="49.90525" lon="2.51353">
        <ele>31.5</ele>
        <time>2020-09-30T12:00:07Z</time>
      </trkpt>
      <trkpt lat="49.90525" lon="2.51354">
        <ele>31.5</ele>
        <time>2020-09-30T12:00:08Z</time>
      </trkpt>
      <trkpt lat="49.90525" lon="2.51356">
        <ele>31.5</ele>
        <time>2020-09-30T12:00:09Z</time>
      </trkpt>
      <trkpt lat="49.90525" lon="2.51358">
        <ele>31.5</ele>
        <time>2020-09-30T12:00:10Z</time>
      </trkpt>
      <trkpt lat="49.90525" lon="2.51362">
        <ele>31.5</ele>
        <time>2020-09-30T12:00:11Z</time>
      </trkpt>
      <trkpt lat="49.90525" lon="2.51363">
        <ele>31.5</ele>
        <time>2020-09-30T12:00:12Z</time>
      </trkpt>
      <trkpt lat="49.90525" lon="2.51365">
        <ele>31.6</ele>
        <time>2020-09-30T12:00:13Z</time>
      </trkpt>
      <trkpt lat="49.90526" lon="2.51368">
        <ele>31.6</ele>
        <time>2020-09-30T12:00:14Z</time>
      </trkpt>
      <trkpt lat="49.90526" lon="2.51369">
        <ele>31.6</ele>
        <time>2020-09-30T12:00:16Z</time>
      </trkpt>
      <trkpt lat="49.90526" lon="2.5137">
        <ele>31.6</ele>
        <time>2020-09-30T12:00:17Z</time>
      </trkpt>
      <trkpt lat="49.90526" lon="2.51372">
        <ele>31.6</ele>
        <time>2020-09-30T12:00:19Z</time>
      </trkpt>
      <trkpt lat="49.90526" lon="2.51373">
        <ele>31.6</ele>
        <time>2020-09-30T12:00:20Z</time>
      </trkpt>
      <trkpt lat="49.90526" lon="2.51374">
        <ele>31.6</ele>
        <time>2020-09-30T12:00:22Z</time>
      </trkpt>
      <trkpt lat="49.90526" lon="2.51375">
        <ele>31.6</ele>
        <time>2020-09-30T12:00:23Z</time>
      </trkpt>
      <trkpt lat="49.90526" lon="2.51376">
        <ele>31.6</ele>
        <time>2020-09-30T12:00:24Z</time>
      </trkpt>
      <trkpt lat="49.90527" lon="2.51378">
        <ele>31.6</ele>
        <time>2020-09-30T12:00:26Z</time>
      </trkpt>
      <trkpt lat="49.90528" lon="2.51379">
        <ele>31.6</ele>
        <time>2020-09-30T12:00:27Z</time>
      </trkpt>
      <trkpt lat="49.90529" lon="2.51381">
        <ele>31.6</ele>
        <time>2020-09-30T12:00:28Z</time>
      </trkpt>
      <trkpt lat="49.9053" lon="2.51382">
        <ele>31.6</ele>
        <time>2020-09-30T12:00:29Z</time>
      </trkpt>
      <trkpt lat="49.90531" lon="2.51383">
        <ele>31.6</ele>
        <time>2020-09-30T12:00:30Z</time>
      </trkpt>
      <trkpt lat="49.90533" lon="2.51385">
        <ele>31.6</ele>
        <time>2020-09-30T12:00:31Z</time>
      </trkpt>
      <trkpt lat="49.90535" lon="2.51388">
        <ele>31.6</ele>
        <time>2020-09-30T12:00:33Z</time>
      </trkpt>
      <trkpt lat="49.90535" lon="2.51389">
        <ele>31.6</ele>
        <time>2020-09-30T12:00:34Z</time>
      </trkpt>
      <trkpt lat="49.90537" lon="2.51391">
        <ele>31.6</ele>
        <time>2020-09-30T12:00:35Z</time>
      </trkpt>
      <trkpt lat="49.90538" lon="2.51391">
        <ele>31.6</ele>
        <time>2020-09-30T12:00:36Z</time>
      </trkpt>
      <trkpt lat="49.90538" lon="2.51392">
        <ele>31.6</ele>
        <time>2020-09-30T12:00:37Z</time>
      </trkpt>
      <trkpt lat="49.90539" lon="2.51394">
        <ele>31.6</ele>
        <time>2020-09-30T12:00:38Z</time>
      </trkpt>
      <trkpt lat="49.9054" lon="2.51395">
        <ele>31.6</ele>
        <time>2020-09-30T12:00:39Z</time>
      </trkpt>
      <trkpt lat="49.90541" lon="2.51397">
        <ele>31.6</ele>
        <time>2020-09-30T12:00:41Z</time>
      </trkpt>
      <trkpt lat="49.90542" lon="2.51399">
        <ele>31.6</ele>
        <time>2020-09-30T12:00:42Z</time>
      </trkpt>
      <trkpt lat="49.90542" lon="2.51401">
        <ele>31.6</ele>
        <time>2020-09-30T12:00:43Z</time>
      </trkpt>
      <trkpt lat="49.90543" lon="2.51403">
        <ele>31.6</ele>
        <time>2020-09-30T12:00:44Z</time>
      </trkpt>
      <trkpt lat="49.90544" lon="2.51405">
        <ele>31.6</ele>
        <time>2020-09-30T12:00:46Z</time>
      </trkpt>
      <trkpt lat="49.90544" lon="2.51406">
        <ele>31.6</ele>
        <time>2020-09-30T12:00:47Z</time>
      </trkpt>
      <trkpt lat="49.90545" lon="2.51408">
        <ele>31.5</ele>
        <time>2020-09-30T12:00:48Z</time>
      </trkpt>
      <trkpt lat="49.90545" lon="2.51412">
        <ele>31.5</ele>
        <time>2020-09-30T12:00:49Z</time>
      </trkpt>
      <trkpt lat="49.90545" lon="2.51414">
        <ele>31.5</ele>
        <time>2020-09-30T12:00:51Z</time>
      </trkpt>
      <trkpt lat="49.90544" lon="2.51416">
        <ele>31.5</ele>
        <time>2020-09-30T12:00:52Z</time>
      </trkpt>
      <trkpt lat="49.90544" lon="2.51417">
        <ele>31.5</ele>
        <time>2020-09-30T12:00:53Z</time>
      </trkpt>
      <trkpt lat="49.90544" lon="2.51419">
        <ele>31.5</ele>
        <time>2020-09-30T12:00:54Z</time>
      </trkpt>
      <trkpt lat="49.90544" lon="2.51422">
        <ele>31.5</ele>
        <time>2020-09-30T12:00:55Z</time>
      </trkpt>
      <trkpt lat="49.90544" lon="2.51423">
        <ele>31.5</ele>
        <time>2020-09-30T12:00:56Z</time>
      </trkpt>
      <trkpt lat="49.90544" lon="2.51425">
        <ele>31.5</ele>
        <time>2020-09-30T12:00:57Z</time>
      </trkpt>
      <trkpt lat="49.90543" lon="2.51427">
        <ele>31.5</ele>
        <time>2020-09-30T12:00:58Z</time>
      </trkpt>
      <trkpt lat="49.90543" lon="2.51429">
        <ele>31.5</ele>
        <time>2020-09-30T12:00:59Z</time>
      </trkpt>
      <trkpt lat="49.90543" lon="2.51432">
        <ele>31.5</ele>
        <time>2020-09-30T12:01:00Z</time>
      </trkpt>
      <trkpt lat="49.90543" lon="2.51434">
        <ele>31.5</ele>
        <time>2020-09-30T12:01:02Z</time>
      </trkpt>
      <trkpt lat="49.90542" lon="2.51435">
        <ele>31.5</ele>
        <time>2020-09-30T12:01:03Z</time>
      </trkpt>
      <trkpt lat="49.90541" lon="2.51437">
        <ele>31.5</ele>
        <time>2020-09-30T12:01:04Z</time>
      </trkpt>
      <trkpt lat="49.90541" lon="2.5144">
        <ele>31.5</ele>
        <time>2020-09-30T12:01:05Z</time>
      </trkpt>
      <trkpt lat="49.90541" lon="2.51442">
        <ele>31.5</ele>
        <time>2020-09-30T12:01:06Z</time>
      </trkpt>
      <trkpt lat="49.90541" lon="2.51444">
        <ele>31.5</ele>
        <time>2020-09-30T12:01:07Z</time>
      </trkpt>
      <trkpt lat="49.90541" lon="2.51446">
        <ele>31.5</ele>
        <time>2020-09-30T12:01:08Z</time>
      </trkpt>
      <trkpt lat="49.90541" lon="2.51449">
        <ele>31.5</ele>
        <time>2020-09-30T12:01:09Z</time>
      </trkpt>
      <trkpt lat="49.90541" lon="2.51451">
        <ele>31.5</ele>
        <time>2020-09-30T12:01:10Z</time>
      </trkpt>
      <trkpt lat="49.90541" lon="2.51453">
        <ele>31.5</ele>
        <time>2020-09-30T12:01:11Z</time>
      </trkpt>
      <trkpt lat="49.90542" lon="2.51455">
        <ele>31.5</ele>
        <time>2020-09-30T12:01:12Z</time>
      </trkpt>
      <trkpt lat="49.90542" lon="2.51458">
        <ele>31.5</ele>
        <time>2020-09-30T12:01:14Z</time>
      </trkpt>
      <trkpt lat="49.90542" lon="2.5146">
        <ele>31.5</ele>
        <time>2020-09-30T12:01:15Z</time>
      </trkpt>
      <trkpt lat="49.90542" lon="2.51463">
        <ele>31.5</ele>
        <time>2020-09-30T12:01:16Z</time>
      </trkpt>
      <trkpt lat="49.90542" lon="2.51464">
        <ele>31.5</ele>
        <time>2020-09-30T12:01:17Z</time>
      </trkpt>
      <trkpt lat="49.90542" lon="2.51466">
        <ele>31.5</ele>
        <time>2020-09-30T12:01:18Z</time>
      </trkpt>
      <trkpt lat="49.90542" lon="2.51469">
        <ele>31.5</ele>
        <time>2020-09-30T12:01:19Z</time>
      </trkpt>
      <trkpt lat="49.90543" lon="2.5147">
        <ele>31.5</ele>
        <time>2020-09-30T12:01:21Z</time>
      </trkpt>
      <trkpt lat="49.90543" lon="2.51472">
        <ele>31.5</ele>
        <time>2020-09-30T12:01:22Z</time>
      </trkpt>
      <trkpt lat="49.90543" lon="2.51474">
        <ele>31.5</ele>
        <time>2020-09-30T12:01:23Z</time>
      </trkpt>
      <trkpt lat="49.90543" lon="2.51477">
        <ele>31.5</ele>
        <time>2020-09-30T12:01:24Z</time>
      </trkpt>
      <trkpt lat="49.90543" lon="2.51479">
        <ele>31.5</ele>
        <time>2020-09-30T12:01:25Z</time>
      </trkpt>
      <trkpt lat="49.90543" lon="2.5148">
        <ele>31.5</ele>
        <time>2020-09-30T12:01:26Z</time>
      </trkpt>
      <trkpt lat="49.90543" lon="2.51482">
        <ele>31.5</ele>
        <time>2020-09-30T12:01:27Z</time>
      </trkpt>
      <trkpt lat="49.90543" lon="2.51486">
        <ele>31.6</ele>
        <time>2020-09-30T12:01:28Z</time>
      </trkpt>
      <trkpt lat="49.90544" lon="2.51488">
        <ele>31.6</ele>
        <time>2020-09-30T12:01:29Z</time>
      </trkpt>
      <trkpt lat="49.90544" lon="2.51489">
        <ele>31.6</ele>
        <time>2020-09-30T12:01:31Z</time>
      </trkpt>
      <trkpt lat="49.90544" lon="2.51491">
        <ele>31.6</ele>
        <time>2020-09-30T12:01:32Z</time>
      </trkpt>
      <trkpt lat="49.90545" lon="2.51493">
        <ele>31.6</ele>
        <time>2020-09-30T12:01:33Z</time>
      </trkpt>
      <trkpt lat="49.90545" lon="2.51495">
        <ele>31.6</ele>
        <time>2020-09-30T12:01:34Z</time>
      </trkpt>
      <trkpt lat="49.90546" lon="2.51497">
        <ele>31.6</ele>
        <time>2020-09-30T12:01:35Z</time>
      </trkpt>
      <trkpt lat="49.90546" lon="2.515">
        <ele>31.6</ele>
        <time>2020-09-30T12:01:36Z</time>
      </trkpt>
      <trkpt lat="49.90546" lon="2.51502">
        <ele>31.6</ele>
        <time>2020-09-30T12:01:37Z</time>
      </trkpt>
      <trkpt lat="49.90547" lon="2.51503">
        <ele>31.6</ele>
        <time>2020-09-30T12:01:38Z</time>
      </trkpt>
      <trkpt lat="49.90547" lon="2.51505">
        <ele>31.6</ele>
        <time>2020-09-30T12:01:39Z</time>
      </trkpt>
      <trkpt lat="49.90547" lon="2.51508">
        <ele>31.6</ele>
        <time>2020-09-30T12:01:41Z</time>
      </trkpt>
      <trkpt lat="49.90547" lon="2.5151">
        <ele>31.6</ele>
        <time>2020-09-30T12:01:42Z</time>
      </trkpt>
      <trkpt lat="49.90547" lon="2.51513">
        <ele>31.6</ele>
        <time>2020-09-30T12:01:43Z</time>
      </trkpt>
      <trkpt lat="49.90547" lon="2.51517">
        <ele>31.7</ele>
        <time>2020-09-30T12:01:44Z</time>
      </trkpt>
      <trkpt lat="49.90547" lon="2.51519">
        <ele>31.7</ele>
        <time>2020-09-30T12:01:46Z</time>
      </trkpt>
      <trkpt lat="49.90548" lon="2.5152">
        <ele>31.7</ele>
        <time>2020-09-30T12:01:47Z</time>
      </trkpt>
      <trkpt lat="49.90548" lon="2.51522">
        <ele>31.7</ele>
        <time>2020-09-30T12:01:48Z</time>
      </trkpt>
      <trkpt lat="49.90548" lon="2.51523">
        <ele>31.7</ele>
        <time>2020-09-30T12:01:49Z</time>
      </trkpt>
      <trkpt lat="49.90548" lon="2.51527">
        <ele>31.7</ele>
        <time>2020-09-30T12:01:50Z</time>
      </trkpt>
      <trkpt lat="49.90548" lon="2.51528">
        <ele>31.7</ele>
        <time>2020-09-30T12:01:51Z</time>
      </trkpt>
      <trkpt lat="49.90548" lon="2.51529">
        <ele>31.7</ele>
        <time>2020-09-30T12:01:52Z</time>
      </trkpt>
      <trkpt lat="49.90547" lon="2.51531">
        <ele>31.7</ele>
        <time>2020-09-30T12:01:54Z</time>
      </trkpt>
      <trkpt lat="49.90548" lon="2.51532">
        <ele>31.7</ele>
        <time>2020-09-30T12:01:56Z</time>
      </trkpt>
      <trkpt lat="49.90549" lon="2.51532">
        <ele>31.7</ele>
        <time>2020-09-30T12:01:57Z</time>
      </trkpt>
      <trkpt lat="49.9055" lon="2.51531">
        <ele>31.7</ele>
        <time>2020-09-30T12:02:00Z</time>
      </trkpt>
      <trkpt lat="49.9055" lon="2.51531">
        <ele>31.7</ele>
        <time>2020-09-30T12:02:01Z</time>
      </trkpt>
      <trkpt lat="49.9055" lon="2.5153">
        <ele>31.7</ele>
        <time>2020-09-30T12:02:02Z</time>
      </trkpt>
      <trkpt lat="49.90551" lon="2.5153">
        <ele>31.7</ele>
        <time>2020-09-30T12:02:03Z</time>
      </trkpt>
      <trkpt lat="49.90551" lon="2.51529">
        <ele>31.7</ele>
        <time>2020-09-30T12:02:05Z</time>
      </trkpt>
      <trkpt lat="49.90551" lon="2.51529">
        <ele>31.7</ele>
        <time>2020-09-30T12:02:06Z</time>
      </trkpt>
      <trkpt lat="49.90551" lon="2.51529">
        <ele>31.7</ele>
        <time>2020-09-30T12:02:08Z</time>
      </trkpt>
      <trkpt lat="49.90551" lon="2.51528">
        <ele>31.7</ele>
        <time>2020-09-30T12:02:09Z</time>
      </trkpt>
      <trkpt lat="49.90551" lon="2.51528">
        <ele>31.7</ele>
        <time>2020-09-30T12:02:11Z</time>
      </trkpt>
      <trkpt lat="49.90551" lon="2.51528">
        <ele>31.7</ele>
        <time>2020-09-30T12:02:12Z</time>
      </trkpt>
      <trkpt lat="49.90551" lon="2.51527">
        <ele>31.7</ele>
        <time>2020-09-30T12:02:13Z</time>
      </trkpt>
      <trkpt lat="49.90551" lon="2.51527">
        <ele>31.7</ele>
        <time>2020-09-30T12:02:15Z</time>
      </trkpt>
      <trkpt lat="49.90551" lon="2.51527">
        <ele>31.7</ele>
        <time>2020-09-30T12:02:16Z</time>
      </trkpt>
      <trkpt lat="49.90551" lon="2.51526">
        <ele>31.7</ele>
        <time>2020-09-30T12:02:18Z</time>
      </trkpt>
      <trkpt lat="49.90551" lon="2.51526">
        <ele>31.7</ele>
        <time>2020-09-30T12:02:19Z</time>
      </trkpt>
      <trkpt lat="49.90551" lon="2.51526">
        <ele>31.7</ele>
        <time>2020-09-30T12:02:20Z</time>
      </trkpt>
      <trkpt lat="49.90551" lon="2.51526">
        <ele>31.7</ele>
        <time>2020-09-30T12:02:22Z</time>
      </trkpt>
      <trkpt lat="49.90551" lon="2.51526">
        <ele>31.7</ele>
        <time>2020-09-30T12:02:24Z</time>
      </trkpt>
      <trkpt lat="49.90551" lon="2.51526">
        <ele>31.7</ele>
        <time>2020-09-30T12:02:25Z</time>
      </trkpt>
      <trkpt lat="49.90551" lon="2.51526">
        <ele>31.7</ele>
        <time>2020-09-30T12:02:28Z</time>
      </trkpt>
      <trkpt lat="49.90551" lon="2.51526">
        <ele>31.7</ele>
        <time>2020-09-30T12:02:29Z</time>
      </trkpt>
      <trkpt lat="49.90551" lon="2.51526">
        <ele>31.7</ele>
        <time>2020-09-30T12:02:30Z</time>
      </trkpt>
      <trkpt lat="49.90551" lon="2.51526">
        <ele>31.7</ele>
        <time>2020-09-30T12:02:31Z</time>
      </trkpt>
      <trkpt lat="49.90551" lon="2.51526">
        <ele>31.7</ele>
        <time>2020-09-30T12:02:33Z</time>
      </trkpt>
      <trkpt lat="49.90551" lon="2.51526">
        <ele>31.7</ele>
        <time>2020-09-30T12:02:35Z</time>
      </trkpt>
      <trkpt lat="49.90551" lon="2.51526">
        <ele>31.7</ele>
        <time>2020-09-30T12:02:37Z</time>
      </trkpt>
      <trkpt lat="49.90551" lon="2.51526">
        <ele>31.7</ele>
        <time>2020-09-30T12:02:39Z</time>
      </trkpt>
      <trkpt lat="49.90551" lon="2.51526">
        <ele>31.7</ele>
        <time>2020-09-30T12:02:41Z</time>
      </trkpt>
      <trkpt lat="49.90551" lon="2.51526">
        <ele>31.7</ele>
        <time>2020-09-30T12:02:43Z</time>
      </trkpt>
      <trkpt lat="49.90551" lon="2.51526">
        <ele>31.7</ele>
        <time>2020-09-30T12:02:45Z</time>
      </trkpt>
      <trkpt lat="49.90551" lon="2.51526">
        <ele>31.7</ele>
        <time>2020-09-30T12:02:47Z</time>
      </trkpt>
      <trkpt lat="49.90551" lon="2.51526">
        <ele>31.7</ele>
        <time>2020-09-30T12:02:49Z</time>
      </trkpt>
      <trkpt lat="49.90551" lon="2.51526">
        <ele>31.7</ele>
        <time>2020-09-30T12:02:51Z</time>
      </trkpt>
      <trkpt lat="49.90551" lon="2.51526">
        <ele>31.7</ele>
        <time>2020-09-30T12:02:52Z</time>
      </trkpt>
      <trkpt lat="49.90551" lon="2.51526">
        <ele>31.7</ele>
        <time>2020-09-30T12:02:53Z</time>
      </trkpt>
      <trkpt lat="49.90551" lon="2.51526">
        <ele>31.7</ele>
        <time>2020-09-30T12:02:56Z</time>
      </trkpt>
      <trkpt lat="49.90551" lon="2.51526">
        <ele>31.7</ele>
        <time>2020-09-30T12:02:57Z</time>
      </trkpt>
      <trkpt lat="49.90551" lon="2.51526">
        <ele>31.7</ele>
        <time>2020-09-30T12:02:59Z</time>
      </trkpt>
      <trkpt lat="49.90551" lon="2.51526">
        <ele>31.7</ele>
        <time>2020-09-30T12:03:01Z</time>
      </trkpt>
      <trkpt lat="49.90551" lon="2.51526">
        <ele>31.7</ele>
        <time>2020-09-30T12:03:02Z</time>
      </trkpt>
      <trkpt lat="49.90551" lon="2.51526">
        <ele>31.7</ele>
        <time>2020-09-30T12:03:03Z</time>
      </trkpt>
      <trkpt lat="49.90551" lon="2.51526">
        <ele>31.7</ele>
        <time>2020-09-30T12:03:06Z</time>
      </trkpt>
      <trkpt lat="49.90551" lon="2.51526">
        <ele>31.7</ele>
        <time>2020-09-30T12:03:08Z</time>
      </trkpt>
      <trkpt lat="49.90551" lon="2.51526">
        <ele>31.7</ele>
        <time>2020-09-30T12:03:09Z</time>
      </trkpt>
      <trkpt lat="49.90551" lon="2.51526">
        <ele>31.7</ele>
        <time>2020-09-30T12:03:11Z</time>
      </trkpt>
      <trkpt lat="49.90551" lon="2.51526">
        <ele>31.7</ele>
        <time>2020-09-30T12:03:12Z</time>
      </trkpt>
      <trkpt lat="49.90551" lon="2.51526">
        <ele>31.7</ele>
        <time>2020-09-30T12:03:14Z</time>
      </trkpt>
      <trkpt lat="49.90551" lon="2.51526">
        <ele>31.7</ele>
        <time>2020-09-30T12:03:15Z</time>
      </trkpt>
      <trkpt lat="49.90551" lon="2.51526">
        <ele>31.7</ele>
        <time>2020-09-30T12:03:16Z</time>
      </trkpt>
      <trkpt lat="49.90551" lon="2.51526">
        <ele>31.7</ele>
        <time>2020-09-30T12:03:19Z</time>
      </trkpt>
      <trkpt lat="49.90551" lon="2.51526">
        <ele>31.7</ele>
        <time>2020-09-30T12:03:20Z</time>
      </trkpt>
      <trkpt lat="49.90551" lon="2.51526">
        <ele>31.7</ele>
        <time>2020-09-30T12:03:21Z</time>
      </trkpt>
      <trkpt lat="49.90551" lon="2.51526">
        <ele>31.7</ele>
        <time>2020-09-30T12:03:22Z</time>
      </trkpt>
      <trkpt lat="49.90551" lon="2.51526">
        <ele>31.7</ele>
        <time>2020-09-30T12:03:23Z</time>
      </trkpt>
      <trkpt lat="49.90551" lon="2.51526">
        <ele>31.7</ele>
        <time>2020-09-30T12:03:25Z</time>
      </trkpt>
      <trkpt lat="49.90551" lon="2.51526">
        <ele>31.7</ele>
        <time>2020-09-30T12:03:26Z</time>
      </trkpt>
      <trkpt lat="49.90551" lon="2.51526">
        <ele>31.7</ele>
        <time>2020-09-30T12:03:28Z</time>
      </trkpt>
      <trkpt lat="49.90551" lon="2.51526">
        <ele>31.7</ele>
        <time>2020-09-30T12:03:29Z</time>
      </trkpt>
      <trkpt lat="49.90551" lon="2.51526">
        <ele>31.7</ele>
        <time>2020-09-30T12:03:31Z</time>
      </trkpt>
      <trkpt lat="49.90551" lon="2.51526">
        <ele>31.7</ele>
        <time>2020-09-30T12:03:33Z</time>
      </trkpt>
      <trkpt lat="49.90551" lon="2.51526">
        <ele>31.7</ele>
        <time>2020-09-30T12:03:34Z</time>
      </trkpt>
      <trkpt lat="49.90551" lon="2.51526">
        <ele>31.7</ele>
        <time>2020-09-30T12:03:36Z</time>
      </trkpt>
      <trkpt lat="49.90551" lon="2.51526">
        <ele>31.7</ele>
        <time>2020-09-30T12:03:37Z</time>
      </trkpt>
      <trkpt lat="49.90551" lon="2.51526">
        <ele>31.7</ele>
        <time>2020-09-30T12:03:39Z</time>
      </trkpt>
      <trkpt lat="49.90551" lon="2.51526">
        <ele>31.7</ele>
        <time>2020-09-30T12:03:40Z</time>
      </trkpt>
      <trkpt lat="49.90551" lon="2.51526">
        <ele>31.7</ele>
        <time>2020-09-30T12:03:41Z</time>
      </trkpt>
      <trkpt lat="49.90551" lon="2.51526">
        <ele>31.7</ele>
        <time>2020-09-30T12:03:43Z</time>
      </trkpt>
      <trkpt lat="49.9055" lon="2.51526">
        <ele>31.7</ele>
        <time>2020-09-30T12:03:44Z</time>
      </trkpt>
      <trkpt lat="49.90548" lon="2.51526">
        <ele>31.7</ele>
        <time>2020-09-30T12:03:46Z</time>
      </trkpt>
      <trkpt lat="49.90549" lon="2.51527">
        <ele>31.7</ele>
        <time>2020-09-30T12:03:47Z</time>
      </trkpt>
      <trkpt lat="49.90549" lon="2.51529">
        <ele>31.8</ele>
        <time>2020-09-30T12:03:48Z</time>
      </trkpt>
      <trkpt lat="49.90549" lon="2.51529">
        <ele>31.8</ele>
        <time>2020-09-30T12:03:50Z</time>
      </trkpt>
      <trkpt lat="49.9055" lon="2.51529">
        <ele>31.8</ele>
        <time>2020-09-30T12:03:51Z</time>
      </trkpt>
      <trkpt lat="49.9055" lon="2.5153">
        <ele>31.8</ele>
        <time>2020-09-30T12:03:52Z</time>
      </trkpt>
      <trkpt lat="49.90551" lon="2.51534">
        <ele>31.8</ele>
        <time>2020-09-30T12:03:53Z</time>
      </trkpt>
      <trkpt lat="49.90551" lon="2.51535">
        <ele>31.8</ele>
        <time>2020-09-30T12:03:54Z</time>
      </trkpt>
      <trkpt lat="49.90551" lon="2.51536">
        <ele>31.8</ele>
        <time>2020-09-30T12:03:55Z</time>
      </trkpt>
      <trkpt lat="49.90551" lon="2.51541">
        <ele>31.8</ele>
        <time>2020-09-30T12:03:56Z</time>
      </trkpt>
      <trkpt lat="49.90551" lon="2.51544">
        <ele>31.8</ele>
        <time>2020-09-30T12:03:58Z</time>
      </trkpt>
      <trkpt lat="49.90551" lon="2.51546">
        <ele>31.8</ele>
        <time>2020-09-30T12:03:59Z</time>
      </trkpt>
      <trkpt lat="49.90551" lon="2.51549">
        <ele>31.8</ele>
        <time>2020-09-30T12:04:00Z</time>
      </trkpt>
      <trkpt lat="49.90551" lon="2.51553">
        <ele>31.8</ele>
        <time>2020-09-30T12:04:01Z</time>
      </trkpt>
      <trkpt lat="49.90552" lon="2.51555">
        <ele>31.8</ele>
        <time>2020-09-30T12:04:02Z</time>
      </trkpt>
      <trkpt lat="49.90552" lon="2.51559">
        <ele>31.8</ele>
        <time>2020-09-30T12:04:03Z</time>
      </trkpt>
      <trkpt lat="49.90552" lon="2.51561">
        <ele>31.8</ele>
        <time>2020-09-30T12:04:04Z</time>
      </trkpt>
      <trkpt lat="49.90552" lon="2.51565">
        <ele>31.9</ele>
        <time>2020-09-30T12:04:06Z</time>
      </trkpt>
      <trkpt lat="49.90553" lon="2.51567">
        <ele>31.9</ele>
        <time>2020-09-30T12:04:07Z</time>
      </trkpt>
      <trkpt lat="49.90553" lon="2.51569">
        <ele>31.9</ele>
        <time>2020-09-30T12:04:08Z</time>
      </trkpt>
      <trkpt lat="49.90553" lon="2.51572">
        <ele>31.9</ele>
        <time>2020-09-30T12:04:09Z</time>
      </trkpt>
      <trkpt lat="49.90553" lon="2.51574">
        <ele>31.9</ele>
        <time>2020-09-30T12:04:10Z</time>
      </trkpt>
      <trkpt lat="49.90553" lon="2.51576">
        <ele>31.9</ele>
        <time>2020-09-30T12:04:11Z</time>
      </trkpt>
      <trkpt lat="49.90554" lon="2.5158">
        <ele>31.9</ele>
        <time>2020-09-30T12:04:12Z</time>
      </trkpt>
      <trkpt lat="49.90554" lon="2.51581">
        <ele>31.9</ele>
        <time>2020-09-30T12:04:13Z</time>
      </trkpt>
      <trkpt lat="49.90554" lon="2.51583">
        <ele>31.9</ele>
        <time>2020-09-30T12:04:15Z</time>
      </trkpt>
      <trkpt lat="49.90554" lon="2.51585">
        <ele>31.9</ele>
        <time>2020-09-30T12:04:16Z</time>
      </trkpt>
      <trkpt lat="49.90554" lon="2.51586">
        <ele>31.9</ele>
        <time>2020-09-30T12:04:17Z</time>
      </trkpt>
      <trkpt lat="49.90555" lon="2.51588">
        <ele>31.9</ele>
        <time>2020-09-30T12:04:18Z</time>
      </trkpt>
      <trkpt lat="49.90555" lon="2.51589">
        <ele>31.9</ele>
        <time>2020-09-30T12:04:19Z</time>
      </trkpt>
      <trkpt lat="49.90555" lon="2.51592">
        <ele>31.9</ele>
        <time>2020-09-30T12:04:20Z</time>
      </trkpt>
      <trkpt lat="49.90555" lon="2.51596">
        <ele>31.9</ele>
        <time>2020-09-30T12:04:21Z</time>
      </trkpt>
      <trkpt lat="49.90555" lon="2.51598">
        <ele>31.9</ele>
        <time>2020-09-30T12:04:23Z</time>
      </trkpt>
      <trkpt lat="49.90555" lon="2.51599">
        <ele>31.9</ele>
        <time>2020-09-30T12:04:24Z</time>
      </trkpt>
      <trkpt lat="49.90555" lon="2.51601">
        <ele>31.9</ele>
        <time>2020-09-30T12:04:25Z</time>
      </trkpt>
      <trkpt lat="49.90556" lon="2.51603">
        <ele>31.9</ele>
        <time>2020-09-30T12:04:26Z</time>
      </trkpt>
      <trkpt lat="49.90556" lon="2.51605">
        <ele>31.9</ele>
        <time>2020-09-30T12:04:27Z</time>
      </trkpt>
      <trkpt lat="49.90556" lon="2.51607">
        <ele>31.9</ele>
        <time>2020-09-30T12:04:28Z</time>
      </trkpt>
      <trkpt lat="49.90556" lon="2.51609">
        <ele>31.9</ele>
        <time>2020-09-30T12:04:29Z</time>
      </trkpt>
      <trkpt lat="49.90557" lon="2.51612">
        <ele>31.9</ele>
        <time>2020-09-30T12:04:30Z</time>
      </trkpt>
      <trkpt lat="49.90557" lon="2.51615">
        <ele>31.9</ele>
        <time>2020-09-30T12:04:31Z</time>
      </trkpt>
      <trkpt lat="49.90557" lon="2.51616">
        <ele>31.9</ele>
        <time>2020-09-30T12:04:33Z</time>
      </trkpt>
      <trkpt lat="49.90558" lon="2.51618">
        <ele>31.9</ele>
        <time>2020-09-30T12:04:34Z</time>
      </trkpt>
      <trkpt lat="49.90558" lon="2.5162">
        <ele>31.9</ele>
        <time>2020-09-30T12:04:35Z</time>
      </trkpt>
      <trkpt lat="49.90558" lon="2.51622">
        <ele>31.9</ele>
        <time>2020-09-30T12:04:36Z</time>
      </trkpt>
      <trkpt lat="49.90559" lon="2.51625">
        <ele>31.9</ele>
        <time>2020-09-30T12:04:37Z</time>
      </trkpt>
      <trkpt lat="49.90559" lon="2.51627">
        <ele>31.9</ele>
        <time>2020-09-30T12:04:38Z</time>
      </trkpt>
      <trkpt lat="49.90559" lon="2.5163">
        <ele>31.9</ele>
        <time>2020-09-30T12:04:39Z</time>
      </trkpt>
      <trkpt lat="49.90559" lon="2.51631">
        <ele>31.9</ele>
        <time>2020-09-30T12:04:40Z</time>
      </trkpt>
      <trkpt lat="49.9056" lon="2.51633">
        <ele>31.9</ele>
        <time>2020-09-30T12:04:41Z</time>
      </trkpt>
      <trkpt lat="49.9056" lon="2.51635">
        <ele>31.9</ele>
        <time>2020-09-30T12:04:42Z</time>
      </trkpt>
      <trkpt lat="49.9056" lon="2.51637">
        <ele>31.9</ele>
        <time>2020-09-30T12:04:44Z</time>
      </trkpt>
      <trkpt lat="49.9056" lon="2.51639">
        <ele>31.9</ele>
        <time>2020-09-30T12:04:45Z</time>
      </trkpt>
      <trkpt lat="49.9056" lon="2.51642">
        <ele>31.9</ele>
        <time>2020-09-30T12:04:46Z</time>
      </trkpt>
      <trkpt lat="49.90561" lon="2.51644">
        <ele>31.9</ele>
        <time>2020-09-30T12:04:47Z</time>
      </trkpt>
      <trkpt lat="49.90561" lon="2.51646">
        <ele>31.9</ele>
        <time>2020-09-30T12:04:48Z</time>
      </trkpt>
      <trkpt lat="49.90561" lon="2.51649">
        <ele>31.9</ele>
        <time>2020-09-30T12:04:49Z</time>
      </trkpt>
      <trkpt lat="49.90561" lon="2.51651">
        <ele>31.9</ele>
        <time>2020-09-30T12:04:50Z</time>
      </trkpt>
      <trkpt lat="49.90561" lon="2.51652">
        <ele>31.9</ele>
        <time>2020-09-30T12:04:51Z</time>
      </trkpt>
      <trkpt lat="49.90561" lon="2.51656">
        <ele>31.9</ele>
        <time>2020-09-30T12:04:53Z</time>
      </trkpt>
      <trkpt lat="49.90562" lon="2.51657">
        <ele>31.9</ele>
        <time>2020-09-30T12:04:54Z</time>
      </trkpt>
      <trkpt lat="49.90562" lon="2.51658">
        <ele>31.9</ele>
        <time>2020-09-30T12:04:55Z</time>
      </trkpt>
      <trkpt lat="49.90562" lon="2.5166">
        <ele>31.9</ele>
        <time>2020-09-30T12:04:56Z</time>
      </trkpt>
      <trkpt lat="49.90562" lon="2.51663">
        <ele>31.9</ele>
        <time>2020-09-30T12:04:57Z</time>
      </trkpt>
      <trkpt lat="49.90563" lon="2.51666">
        <ele>31.9</ele>
        <time>2020-09-30T12:04:58Z</time>
      </trkpt>
      <trkpt lat="49.90563" lon="2.51667">
        <ele>31.9</ele>
        <time>2020-09-30T12:04:59Z</time>
      </trkpt>
      <trkpt lat="49.90563" lon="2.51668">
        <ele>31.9</ele>
        <time>2020-09-30T12:05:00Z</time>
      </trkpt>
      <trkpt lat="49.90564" lon="2.5167">
        <ele>31.9</ele>
        <time>2020-09-30T12:05:01Z</time>
      </trkpt>
      <trkpt lat="49.90564" lon="2.51672">
        <ele>31.9</ele>
        <time>2020-09-30T12:05:02Z</time>
      </trkpt>
      <trkpt lat="49.90564" lon="2.51675">
        <ele>31.9</ele>
        <time>2020-09-30T12:05:03Z</time>
      </trkpt>
      <trkpt lat="49.90564" lon="2.51677">
        <ele>31.8</ele>
        <time>2020-09-30T12:05:04Z</time>
      </trkpt>
      <trkpt lat="49.90564" lon="2.51679">
        <ele>31.8</ele>
        <time>2020-09-30T12:05:05Z</time>
      </trkpt>
      <trkpt lat="49.90564" lon="2.5168">
        <ele>31.8</ele>
        <time>2020-09-30T12:05:06Z</time>
      </trkpt>
      <trkpt lat="49.90564" lon="2.51682">
        <ele>31.8</ele>
        <time>2020-09-30T12:05:07Z</time>
      </trkpt>
      <trkpt lat="49.90565" lon="2.51684">
        <ele>31.8</ele>
        <time>2020-09-30T12:05:08Z</time>
      </trkpt>
      <trkpt lat="49.90565" lon="2.51686">
        <ele>31.8</ele>
        <time>2020-09-30T12:05:10Z</time>
      </trkpt>
      <trkpt lat="49.90565" lon="2.51688">
        <ele>31.8</ele>
        <time>2020-09-30T12:05:11Z</time>
      </trkpt>
      <trkpt lat="49.90565" lon="2.51691">
        <ele>31.7</ele>
        <time>2020-09-30T12:05:12Z</time>
      </trkpt>
      <trkpt lat="49.90565" lon="2.51693">
        <ele>31.7</ele>
        <time>2020-09-30T12:05:13Z</time>
      </trkpt>
      <trkpt lat="49.90565" lon="2.51696">
        <ele>31.7</ele>
        <time>2020-09-30T12:05:15Z</time>
      </trkpt>
      <trkpt lat="49.90565" lon="2.51698">
        <ele>31.7</ele>
        <time>2020-09-30T12:05:16Z</time>
      </trkpt>
      <trkpt lat="49.90565" lon="2.517">
        <ele>31.7</ele>
        <time>2020-09-30T12:05:17Z</time>
      </trkpt>
      <trkpt lat="49.90565" lon="2.51702">
        <ele>31.7</ele>
        <time>2020-09-30T12:05:18Z</time>
      </trkpt>
      <trkpt lat="49.90565" lon="2.51705">
        <ele>31.7</ele>
        <time>2020-09-30T12:05:19Z</time>
      </trkpt>
      <trkpt lat="49.90565" lon="2.51707">
        <ele>31.7</ele>
        <time>2020-09-30T12:05:20Z</time>
      </trkpt>
      <trkpt lat="49.90565" lon="2.51708">
        <ele>31.6</ele>
        <time>2020-09-30T12:05:21Z</time>
      </trkpt>
      <trkpt lat="49.90565" lon="2.5171">
        <ele>31.6</ele>
        <time>2020-09-30T12:05:22Z</time>
      </trkpt>
      <trkpt lat="49.90566" lon="2.51714">
        <ele>31.6</ele>
        <time>2020-09-30T12:05:23Z</time>
      </trkpt>
      <trkpt lat="49.90566" lon="2.51715">
        <ele>31.6</ele>
        <time>2020-09-30T12:05:25Z</time>
      </trkpt>
      <trkpt lat="49.90566" lon="2.51716">
        <ele>31.6</ele>
        <time>2020-09-30T12:05:26Z</time>
      </trkpt>
      <trkpt lat="49.90566" lon="2.51719">
        <ele>31.6</ele>
        <time>2020-09-30T12:05:27Z</time>
      </trkpt>
      <trkpt lat="49.90566" lon="2.51721">
        <ele>31.6</ele>
        <time>2020-09-30T12:05:28Z</time>
      </trkpt>
      <trkpt lat="49.90567" lon="2.51724">
        <ele>31.6</ele>
        <time>2020-09-30T12:05:29Z</time>
      </trkpt>
      <trkpt lat="49.90567" lon="2.51725">
        <ele>31.6</ele>
        <time>2020-09-30T12:05:31Z</time>
      </trkpt>
      <trkpt lat="49.90567" lon="2.51727">
        <ele>31.6</ele>
        <time>2020-09-30T12:05:32Z</time>
      </trkpt>
      <trkpt lat="49.90567" lon="2.51729">
        <ele>31.6</ele>
        <time>2020-09-30T12:05:33Z</time>
      </trkpt>
      <trkpt lat="49.90568" lon="2.51731">
        <ele>31.6</ele>
        <time>2020-09-30T12:05:34Z</time>
      </trkpt>
      <trkpt lat="49.90568" lon="2.51734">
        <ele>31.6</ele>
        <time>2020-09-30T12:05:35Z</time>
      </trkpt>
      <trkpt lat="49.90568" lon="2.51736">
        <ele>31.6</ele>
        <time>2020-09-30T12:05:36Z</time>
      </trkpt>
      <trkpt lat="49.90568" lon="2.51737">
        <ele>31.6</ele>
        <time>2020-09-30T12:05:37Z</time>
      </trkpt>
      <trkpt lat="49.90568" lon="2.51739">
        <ele>31.6</ele>
        <time>2020-09-30T12:05:38Z</time>
      </trkpt>
      <trkpt lat="49.90569" lon="2.51741">
        <ele>31.6</ele>
        <time>2020-09-30T12:05:39Z</time>
      </trkpt>
      <trkpt lat="49.90569" lon="2.51745">
        <ele>31.5</ele>
        <time>2020-09-30T12:05:40Z</time>
      </trkpt>
      <trkpt lat="49.9057" lon="2.51747">
        <ele>31.5</ele>
        <time>2020-09-30T12:05:42Z</time>
      </trkpt>
      <trkpt lat="49.9057" lon="2.51748">
        <ele>31.5</ele>
        <time>2020-09-30T12:05:43Z</time>
      </trkpt>
      <trkpt lat="49.9057" lon="2.5175">
        <ele>31.5</ele>
        <time>2020-09-30T12:05:44Z</time>
      </trkpt>
      <trkpt lat="49.90571" lon="2.51751">
        <ele>31.5</ele>
        <time>2020-09-30T12:05:45Z</time>
      </trkpt>
      <trkpt lat="49.90571" lon="2.51753">
        <ele>31.5</ele>
        <time>2020-09-30T12:05:46Z</time>
      </trkpt>
      <trkpt lat="49.90571" lon="2.51755">
        <ele>31.5</ele>
        <time>2020-09-30T12:05:47Z</time>
      </trkpt>
      <trkpt lat="49.90571" lon="2.51756">
        <ele>31.5</ele>
        <time>2020-09-30T12:05:48Z</time>
      </trkpt>
      <trkpt lat="49.90572" lon="2.51759">
        <ele>31.5</ele>
        <time>2020-09-30T12:05:49Z</time>
      </trkpt>
      <trkpt lat="49.90572" lon="2.51761">
        <ele>31.5</ele>
        <time>2020-09-30T12:05:50Z</time>
      </trkpt>
      <trkpt lat="49.90572" lon="2.51763">
        <ele>31.5</ele>
        <time>2020-09-30T12:05:51Z</time>
      </trkpt>
      <trkpt lat="49.90573" lon="2.51765">
        <ele>31.5</ele>
        <time>2020-09-30T12:05:52Z</time>
      </trkpt>
      <trkpt lat="49.90573" lon="2.51767">
        <ele>31.5</ele>
        <time>2020-09-30T12:05:54Z</time>
      </trkpt>
      <trkpt lat="49.90573" lon="2.51769">
        <ele>31.5</ele>
        <time>2020-09-30T12:05:55Z</time>
      </trkpt>
      <trkpt lat="49.90574" lon="2.51771">
        <ele>31.5</ele>
        <time>2020-09-30T12:05:56Z</time>
      </trkpt>
      <trkpt lat="49.90574" lon="2.51773">
        <ele>31.4</ele>
        <time>2020-09-30T12:05:57Z</time>
      </trkpt>
      <trkpt lat="49.90574" lon="2.51777">
        <ele>31.4</ele>
        <time>2020-09-30T12:05:58Z</time>
      </trkpt>
      <trkpt lat="49.90575" lon="2.51778">
        <ele>31.4</ele>
        <time>2020-09-30T12:05:59Z</time>
      </trkpt>
      <trkpt lat="49.90575" lon="2.5178">
        <ele>31.4</ele>
        <time>2020-09-30T12:06:00Z</time>
      </trkpt>
      <trkpt lat="49.90575" lon="2.51782">
        <ele>31.4</ele>
        <time>2020-09-30T12:06:01Z</time>
      </trkpt>
      <trkpt lat="49.90575" lon="2.51784">
        <ele>31.4</ele>
        <time>2020-09-30T12:06:02Z</time>
      </trkpt>
      <trkpt lat="49.90575" lon="2.51787">
        <ele>31.4</ele>
        <time>2020-09-30T12:06:03Z</time>
      </trkpt>
      <trkpt lat="49.90575" lon="2.51789">
        <ele>31.4</ele>
        <time>2020-09-30T12:06:05Z</time>
      </trkpt>
      <trkpt lat="49.90576" lon="2.51791">
        <ele>31.4</ele>
        <time>2020-09-30T12:06:06Z</time>
      </trkpt>
      <trkpt lat="49.90576" lon="2.51793">
        <ele>31.4</ele>
        <time>2020-09-30T12:06:07Z</time>
      </trkpt>
      <trkpt lat="49.90576" lon="2.51794">
        <ele>31.4</ele>
        <time>2020-09-30T12:06:08Z</time>
      </trkpt>
      <trkpt lat="49.90576" lon="2.51796">
        <ele>31.4</ele>
        <time>2020-09-30T12:06:09Z</time>
      </trkpt>
      <trkpt lat="49.90576" lon="2.51798">
        <ele>31.4</ele>
        <time>2020-09-30T12:06:11Z</time>
      </trkpt>
      <trkpt lat="49.90577" lon="2.51801">
        <ele>31.3</ele>
        <time>2020-09-30T12:06:12Z</time>
      </trkpt>
      <trkpt lat="49.90578" lon="2.51805">
        <ele>31.3</ele>
        <time>2020-09-30T12:06:13Z</time>
      </trkpt>
      <trkpt lat="49.90578" lon="2.51806">
        <ele>31.3</ele>
        <time>2020-09-30T12:06:15Z</time>
      </trkpt>
      <trkpt lat="49.90578" lon="2.51808">
        <ele>31.3</ele>
        <time>2020-09-30T12:06:16Z</time>
      </trkpt>
      <trkpt lat="49.90578" lon="2.5181">
        <ele>31.3</ele>
        <time>2020-09-30T12:06:17Z</time>
      </trkpt>
      <trkpt lat="49.90578" lon="2.51812">
        <ele>31.3</ele>
        <time>2020-09-30T12:06:18Z</time>
      </trkpt>
      <trkpt lat="49.90578" lon="2.51815">
        <ele>31.3</ele>
        <time>2020-09-30T12:06:19Z</time>
      </trkpt>
      <trkpt lat="49.90578" lon="2.51818">
        <ele>31.3</ele>
        <time>2020-09-30T12:06:21Z</time>
      </trkpt>
      <trkpt lat="49.90578" lon="2.51821">
        <ele>31.3</ele>
        <time>2020-09-30T12:06:22Z</time>
      </trkpt>
      <trkpt lat="49.90578" lon="2.51822">
        <ele>31.3</ele>
        <time>2020-09-30T12:06:23Z</time>
      </trkpt>
      <trkpt lat="49.90578" lon="2.51824">
        <ele>31.3</ele>
        <time>2020-09-30T12:06:24Z</time>
      </trkpt>
      <trkpt lat="49.90578" lon="2.51827">
        <ele>31.3</ele>
        <time>2020-09-30T12:06:25Z</time>
      </trkpt>
      <trkpt lat="49.90579" lon="2.51829">
        <ele>31.3</ele>
        <time>2020-09-30T12:06:27Z</time>
      </trkpt>
      <trkpt lat="49.90579" lon="2.51831">
        <ele>31.3</ele>
        <time>2020-09-30T12:06:28Z</time>
      </trkpt>
      <trkpt lat="49.90579" lon="2.51833">
        <ele>31.3</ele>
        <time>2020-09-30T12:06:29Z</time>
      </trkpt>
      <trkpt lat="49.90579" lon="2.51837">
        <ele>31.3</ele>
        <time>2020-09-30T12:06:30Z</time>
      </trkpt>
      <trkpt lat="49.90579" lon="2.51839">
        <ele>31.3</ele>
        <time>2020-09-30T12:06:31Z</time>
      </trkpt>
      <trkpt lat="49.90579" lon="2.5184">
        <ele>31.3</ele>
        <time>2020-09-30T12:06:32Z</time>
      </trkpt>
      <trkpt lat="49.90579" lon="2.51842">
        <ele>31.3</ele>
        <time>2020-09-30T12:06:33Z</time>
      </trkpt>
      <trkpt lat="49.9058" lon="2.51844">
        <ele>31.3</ele>
        <time>2020-09-30T12:06:34Z</time>
      </trkpt>
      <trkpt lat="49.9058" lon="2.51846">
        <ele>31.3</ele>
        <time>2020-09-30T12:06:35Z</time>
      </trkpt>
      <trkpt lat="49.9058" lon="2.51849">
        <ele>31.3</ele>
        <time>2020-09-30T12:06:36Z</time>
      </trkpt>
      <trkpt lat="49.9058" lon="2.51851">
        <ele>31.3</ele>
        <time>2020-09-30T12:06:37Z</time>
      </trkpt>
      <trkpt lat="49.9058" lon="2.51853">
        <ele>31.3</ele>
        <time>2020-09-30T12:06:39Z</time>
      </trkpt>
      <trkpt lat="49.9058" lon="2.51855">
        <ele>31.3</ele>
        <time>2020-09-30T12:06:40Z</time>
      </trkpt>
      <trkpt lat="49.9058" lon="2.51858">
        <ele>31.3</ele>
        <time>2020-09-30T12:06:41Z</time>
      </trkpt>
      <trkpt lat="49.90581" lon="2.5186">
        <ele>31.3</ele>
        <time>2020-09-30T12:06:42Z</time>
      </trkpt>
      <trkpt lat="49.90581" lon="2.51862">
        <ele>31.3</ele>
        <time>2020-09-30T12:06:43Z</time>
      </trkpt>
      <trkpt lat="49.90581" lon="2.51864">
        <ele>31.3</ele>
        <time>2020-09-30T12:06:44Z</time>
      </trkpt>
      <trkpt lat="49.90581" lon="2.51867">
        <ele>31.3</ele>
        <time>2020-09-30T12:06:45Z</time>
      </trkpt>
      <trkpt lat="49.90581" lon="2.51868">
        <ele>31.3</ele>
        <time>2020-09-30T12:06:46Z</time>
      </trkpt>
      <trkpt lat="49.90581" lon="2.5187">
        <ele>31.3</ele>
        <time>2020-09-30T12:06:47Z</time>
      </trkpt>
      <trkpt lat="49.90581" lon="2.51872">
        <ele>31.3</ele>
        <time>2020-09-30T12:06:49Z</time>
      </trkpt>
      <trkpt lat="49.90582" lon="2.51875">
        <ele>31.3</ele>
        <time>2020-09-30T12:06:50Z</time>
      </trkpt>
      <trkpt lat="49.90582" lon="2.51876">
        <ele>31.3</ele>
        <time>2020-09-30T12:06:51Z</time>
      </trkpt>
      <trkpt lat="49.90582" lon="2.51879">
        <ele>31.3</ele>
        <time>2020-09-30T12:06:52Z</time>
      </trkpt>
      <trkpt lat="49.90582" lon="2.5188">
        <ele>31.2</ele>
        <time>2020-09-30T12:06:53Z</time>
      </trkpt>
      <trkpt lat="49.90582" lon="2.51882">
        <ele>31.2</ele>
        <time>2020-09-30T12:06:54Z</time>
      </trkpt>
      <trkpt lat="49.90583" lon="2.51886">
        <ele>31.2</ele>
        <time>2020-09-30T12:06:56Z</time>
      </trkpt>
      <trkpt lat="49.90583" lon="2.51887">
        <ele>31.2</ele>
        <time>2020-09-30T12:06:57Z</time>
      </trkpt>
      <trkpt lat="49.90583" lon="2.51888">
        <ele>31.2</ele>
        <time>2020-09-30T12:06:58Z</time>
      </trkpt>
      <trkpt lat="49.90584" lon="2.51892">
        <ele>31.3</ele>
        <time>2020-09-30T12:06:59Z</time>
      </trkpt>
      <trkpt lat="49.90584" lon="2.51894">
        <ele>31.3</ele>
        <time>2020-09-30T12:07:00Z</time>
      </trkpt>
      <trkpt lat="49.90584" lon="2.51896">
        <ele>31.3</ele>
        <time>2020-09-30T12:07:01Z</time>
      </trkpt>
      <trkpt lat="49.90584" lon="2.51898">
        <ele>31.3</ele>
        <time>2020-09-30T12:07:02Z</time>
      </trkpt>
      <trkpt lat="49.90584" lon="2.519">
        <ele>31.3</ele>
        <time>2020-09-30T12:07:03Z</time>
      </trkpt>
      <trkpt lat="49.90585" lon="2.51902">
        <ele>31.3</ele>
        <time>2020-09-30T12:07:04Z</time>
      </trkpt>
      <trkpt lat="49.90585" lon="2.51904">
        <ele>31.3</ele>
        <time>2020-09-30T12:07:05Z</time>
      </trkpt>
      <trkpt lat="49.90585" lon="2.51906">
        <ele>31.3</ele>
        <time>2020-09-30T12:07:06Z</time>
      </trkpt>
      <trkpt lat="49.90586" lon="2.51907">
        <ele>31.3</ele>
        <time>2020-09-30T12:07:07Z</time>
      </trkpt>
      <trkpt lat="49.90586" lon="2.51909">
        <ele>31.3</ele>
        <time>2020-09-30T12:07:09Z</time>
      </trkpt>
      <trkpt lat="49.90586" lon="2.5191">
        <ele>31.3</ele>
        <time>2020-09-30T12:07:10Z</time>
      </trkpt>
      <trkpt lat="49.90587" lon="2.51913">
        <ele>31.3</ele>
        <time>2020-09-30T12:07:11Z</time>
      </trkpt>
      <trkpt lat="49.90587" lon="2.51915">
        <ele>31.3</ele>
        <time>2020-09-30T12:07:12Z</time>
      </trkpt>
      <trkpt lat="49.90587" lon="2.51918">
        <ele>31.3</ele>
        <time>2020-09-30T12:07:13Z</time>
      </trkpt>
      <trkpt lat="49.90587" lon="2.51923">
        <ele>31.3</ele>
        <time>2020-09-30T12:07:15Z</time>
      </trkpt>
      <trkpt lat="49.90588" lon="2.51924">
        <ele>31.3</ele>
        <time>2020-09-30T12:07:16Z</time>
      </trkpt>
      <trkpt lat="49.90588" lon="2.51926">
        <ele>31.3</ele>
        <time>2020-09-30T12:07:17Z</time>
      </trkpt>
      <trkpt lat="49.90588" lon="2.51927">
        <ele>31.3</ele>
        <time>2020-09-30T12:07:18Z</time>
      </trkpt>
      <trkpt lat="49.90588" lon="2.51932">
        <ele>31.3</ele>
        <time>2020-09-30T12:07:20Z</time>
      </trkpt>
      <trkpt lat="49.90588" lon="2.51934">
        <ele>31.3</ele>
        <time>2020-09-30T12:07:21Z</time>
      </trkpt>
      <trkpt lat="49.90588" lon="2.51937">
        <ele>31.3</ele>
        <time>2020-09-30T12:07:22Z</time>
      </trkpt>
      <trkpt lat="49.90588" lon="2.51938">
        <ele>31.3</ele>
        <time>2020-09-30T12:07:23Z</time>
      </trkpt>
      <trkpt lat="49.90588" lon="2.5194">
        <ele>31.3</ele>
        <time>2020-09-30T12:07:24Z</time>
      </trkpt>
      <trkpt lat="49.90589" lon="2.51943">
        <ele>31.3</ele>
        <time>2020-09-30T12:07:26Z</time>
      </trkpt>
      <trkpt lat="49.90589" lon="2.51945">
        <ele>31.3</ele>
        <time>2020-09-30T12:07:27Z</time>
      </trkpt>
      <trkpt lat="49.90589" lon="2.51949">
        <ele>31.3</ele>
        <time>2020-09-30T12:07:28Z</time>
      </trkpt>
      <trkpt lat="49.90589" lon="2.5195">
        <ele>31.3</ele>
        <time>2020-09-30T12:07:29Z</time>
      </trkpt>
      <trkpt lat="49.90589" lon="2.51952">
        <ele>31.3</ele>
        <time>2020-09-30T12:07:30Z</time>
      </trkpt>
      <trkpt lat="49.90589" lon="2.51953">
        <ele>31.3</ele>
        <time>2020-09-30T12:07:32Z</time>
      </trkpt>
      <trkpt lat="49.9059" lon="2.51955">
        <ele>31.3</ele>
        <time>2020-09-30T12:07:33Z</time>
      </trkpt>
      <trkpt lat="49.9059" lon="2.51957">
        <ele>31.3</ele>
        <time>2020-09-30T12:07:34Z</time>
      </trkpt>
      <trkpt lat="49.9059" lon="2.5196">
        <ele>31.2</ele>
        <time>2020-09-30T12:07:35Z</time>
      </trkpt>
      <trkpt lat="49.90591" lon="2.51962">
        <ele>31.2</ele>
        <time>2020-09-30T12:07:36Z</time>
      </trkpt>
      <trkpt lat="49.90591" lon="2.51964">
        <ele>31.2</ele>
        <time>2020-09-30T12:07:37Z</time>
      </trkpt>
      <trkpt lat="49.90591" lon="2.51965">
        <ele>31.2</ele>
        <time>2020-09-30T12:07:38Z</time>
      </trkpt>
      <trkpt lat="49.90591" lon="2.51968">
        <ele>31.2</ele>
        <time>2020-09-30T12:07:40Z</time>
      </trkpt>
      <trkpt lat="49.90591" lon="2.51971">
        <ele>31.2</ele>
        <time>2020-09-30T12:07:41Z</time>
      </trkpt>
      <trkpt lat="49.90591" lon="2.51973">
        <ele>31.2</ele>
        <time>2020-09-30T12:07:42Z</time>
      </trkpt>
      <trkpt lat="49.90591" lon="2.51976">
        <ele>31.2</ele>
        <time>2020-09-30T12:07:43Z</time>
      </trkpt>
      <trkpt lat="49.90591" lon="2.51978">
        <ele>31.2</ele>
        <time>2020-09-30T12:07:44Z</time>
      </trkpt>
      <trkpt lat="49.90591" lon="2.5198">
        <ele>31.2</ele>
        <time>2020-09-30T12:07:45Z</time>
      </trkpt>
      <trkpt lat="49.90591" lon="2.51983">
        <ele>31.2</ele>
        <time>2020-09-30T12:07:46Z</time>
      </trkpt>
      <trkpt lat="49.90592" lon="2.51984">
        <ele>31.2</ele>
        <time>2020-09-30T12:07:47Z</time>
      </trkpt>
      <trkpt lat="49.90592" lon="2.51985">
        <ele>31.2</ele>
        <time>2020-09-30T12:07:48Z</time>
      </trkpt>
      <trkpt lat="49.90592" lon="2.51987">
        <ele>31.2</ele>
        <time>2020-09-30T12:07:50Z</time>
      </trkpt>
      <trkpt lat="49.90592" lon="2.5199">
        <ele>31.2</ele>
        <time>2020-09-30T12:07:51Z</time>
      </trkpt>
      <trkpt lat="49.90592" lon="2.51993">
        <ele>31.1</ele>
        <time>2020-09-30T12:07:52Z</time>
      </trkpt>
      <trkpt lat="49.90593" lon="2.51995">
        <ele>31.1</ele>
        <time>2020-09-30T12:07:53Z</time>
      </trkpt>
      <trkpt lat="49.90593" lon="2.51996">
        <ele>31.1</ele>
        <time>2020-09-30T12:07:54Z</time>
      </trkpt>
      <trkpt lat="49.90593" lon="2.52">
        <ele>31.1</ele>
        <time>2020-09-30T12:07:55Z</time>
      </trkpt>
      <trkpt lat="49.90593" lon="2.52001">
        <ele>31.1</ele>
        <time>2020-09-30T12:07:56Z</time>
      </trkpt>
      <trkpt lat="49.90594" lon="2.52002">
        <ele>31.1</ele>
        <time>2020-09-30T12:07:57Z</time>
      </trkpt>
      <trkpt lat="49.90594" lon="2.52005">
        <ele>31.1</ele>
        <time>2020-09-30T12:07:58Z</time>
      </trkpt>
      <trkpt lat="49.90595" lon="2.52007">
        <ele>31.1</ele>
        <time>2020-09-30T12:07:59Z</time>
      </trkpt>
      <trkpt lat="49.90595" lon="2.52008">
        <ele>31.1</ele>
        <time>2020-09-30T12:08:00Z</time>
      </trkpt>
      <trkpt lat="49.90595" lon="2.5201">
        <ele>31.1</ele>
        <time>2020-09-30T12:08:01Z</time>
      </trkpt>
      <trkpt lat="49.90596" lon="2.52013">
        <ele>31</ele>
        <time>2020-09-30T12:08:03Z</time>
      </trkpt>
      <trkpt lat="49.90596" lon="2.52016">
        <ele>31</ele>
        <time>2020-09-30T12:08:04Z</time>
      </trkpt>
      <trkpt lat="49.90597" lon="2.52019">
        <ele>31</ele>
        <time>2020-09-30T12:08:06Z</time>
      </trkpt>
      <trkpt lat="49.90597" lon="2.52021">
        <ele>31</ele>
        <time>2020-09-30T12:08:07Z</time>
      </trkpt>
      <trkpt lat="49.90597" lon="2.52022">
        <ele>31</ele>
        <time>2020-09-30T12:08:08Z</time>
      </trkpt>
      <trkpt lat="49.90597" lon="2.52024">
        <ele>31</ele>
        <time>2020-09-30T12:08:09Z</time>
      </trkpt>
      <trkpt lat="49.90598" lon="2.52027">
        <ele>31</ele>
        <time>2020-09-30T12:08:10Z</time>
      </trkpt>
      <trkpt lat="49.90598" lon="2.52029">
        <ele>31</ele>
        <time>2020-09-30T12:08:11Z</time>
      </trkpt>
      <trkpt lat="49.90599" lon="2.52032">
        <ele>31.1</ele>
        <time>2020-09-30T12:08:12Z</time>
      </trkpt>
      <trkpt lat="49.90599" lon="2.52033">
        <ele>31.1</ele>
        <time>2020-09-30T12:08:13Z</time>
      </trkpt>
      <trkpt lat="49.90599" lon="2.52035">
        <ele>31.1</ele>
        <time>2020-09-30T12:08:14Z</time>
      </trkpt>
      <trkpt lat="49.906" lon="2.5204">
        <ele>31.1</ele>
        <time>2020-09-30T12:08:15Z</time>
      </trkpt>
      <trkpt lat="49.906" lon="2.52041">
        <ele>31.1</ele>
        <time>2020-09-30T12:08:17Z</time>
      </trkpt>
      <trkpt lat="49.906" lon="2.52042">
        <ele>31.1</ele>
        <time>2020-09-30T12:08:18Z</time>
      </trkpt>
      <trkpt lat="49.90601" lon="2.52044">
        <ele>31.1</ele>
        <time>2020-09-30T12:08:19Z</time>
      </trkpt>
      <trkpt lat="49.90601" lon="2.52045">
        <ele>31.2</ele>
        <time>2020-09-30T12:08:20Z</time>
      </trkpt>
      <trkpt lat="49.90602" lon="2.52048">
        <ele>31.2</ele>
        <time>2020-09-30T12:08:21Z</time>
      </trkpt>
      <trkpt lat="49.90602" lon="2.5205">
        <ele>31.2</ele>
        <time>2020-09-30T12:08:22Z</time>
      </trkpt>
      <trkpt lat="49.90603" lon="2.52052">
        <ele>31.2</ele>
        <time>2020-09-30T12:08:23Z</time>
      </trkpt>
      <trkpt lat="49.90603" lon="2.52054">
        <ele>31.2</ele>
        <time>2020-09-30T12:08:24Z</time>
      </trkpt>
      <trkpt lat="49.90604" lon="2.52057">
        <ele>31.3</ele>
        <time>2020-09-30T12:08:25Z</time>
      </trkpt>
      <trkpt lat="49.90604" lon="2.52058">
        <ele>31.3</ele>
        <time>2020-09-30T12:08:26Z</time>
      </trkpt>
      <trkpt lat="49.90605" lon="2.5206">
        <ele>31.3</ele>
        <time>2020-09-30T12:08:27Z</time>
      </trkpt>
      <trkpt lat="49.90605" lon="2.52061">
        <ele>31.3</ele>
        <time>2020-09-30T12:08:29Z</time>
      </trkpt>
      <trkpt lat="49.90605" lon="2.52063">
        <ele>31.3</ele>
        <time>2020-09-30T12:08:30Z</time>
      </trkpt>
      <trkpt lat="49.90606" lon="2.52066">
        <ele>31.3</ele>
        <time>2020-09-30T12:08:31Z</time>
      </trkpt>
      <trkpt lat="49.90607" lon="2.52068">
        <ele>31.3</ele>
        <time>2020-09-30T12:08:32Z</time>
      </trkpt>
      <trkpt lat="49.90607" lon="2.52071">
        <ele>31.3</ele>
        <time>2020-09-30T12:08:34Z</time>
      </trkpt>
      <trkpt lat="49.90608" lon="2.52072">
        <ele>31.3</ele>
        <time>2020-09-30T12:08:35Z</time>
      </trkpt>
      <trkpt lat="49.90608" lon="2.52073">
        <ele>31.3</ele>
        <time>2020-09-30T12:08:36Z</time>
      </trkpt>
      <trkpt lat="49.90608" lon="2.52075">
        <ele>31.3</ele>
        <time>2020-09-30T12:08:37Z</time>
      </trkpt>
      <trkpt lat="49.90609" lon="2.52076">
        <ele>31.3</ele>
        <time>2020-09-30T12:08:38Z</time>
      </trkpt>
      <trkpt lat="49.90609" lon="2.52078">
        <ele>31.3</ele>
        <time>2020-09-30T12:08:39Z</time>
      </trkpt>
      <trkpt lat="49.90609" lon="2.52081">
        <ele>31.4</ele>
        <time>2020-09-30T12:08:40Z</time>
      </trkpt>
      <trkpt lat="49.90609" lon="2.52083">
        <ele>31.4</ele>
        <time>2020-09-30T12:08:42Z</time>
      </trkpt>
      <trkpt lat="49.90609" lon="2.52085">
        <ele>31.4</ele>
        <time>2020-09-30T12:08:43Z</time>
      </trkpt>
      <trkpt lat="49.90609" lon="2.52086">
        <ele>31.4</ele>
        <time>2020-09-30T12:08:44Z</time>
      </trkpt>
      <trkpt lat="49.90609" lon="2.52088">
        <ele>31.4</ele>
        <time>2020-09-30T12:08:45Z</time>
      </trkpt>
      <trkpt lat="49.90608" lon="2.5209">
        <ele>31.3</ele>
        <time>2020-09-30T12:08:46Z</time>
      </trkpt>
      <trkpt lat="49.90608" lon="2.52092">
        <ele>31.3</ele>
        <time>2020-09-30T12:08:47Z</time>
      </trkpt>
      <trkpt lat="49.90608" lon="2.52093">
        <ele>31.3</ele>
        <time>2020-09-30T12:08:48Z</time>
      </trkpt>
      <trkpt lat="49.90608" lon="2.52095">
        <ele>31.3</ele>
        <time>2020-09-30T12:08:49Z</time>
      </trkpt>
      <trkpt lat="49.90608" lon="2.52097">
        <ele>31.3</ele>
        <time>2020-09-30T12:08:51Z</time>
      </trkpt>
      <trkpt lat="49.90608" lon="2.52098">
        <ele>31.3</ele>
        <time>2020-09-30T12:08:52Z</time>
      </trkpt>
      <trkpt lat="49.90609" lon="2.52099">
        <ele>31.3</ele>
        <time>2020-09-30T12:08:53Z</time>
      </trkpt>
      <trkpt lat="49.90609" lon="2.521">
        <ele>31.2</ele>
        <time>2020-09-30T12:08:54Z</time>
      </trkpt>
      <trkpt lat="49.9061" lon="2.52101">
        <ele>31.2</ele>
        <time>2020-09-30T12:08:55Z</time>
      </trkpt>
      <trkpt lat="49.9061" lon="2.52102">
        <ele>31.2</ele>
        <time>2020-09-30T12:08:56Z</time>
      </trkpt>
      <trkpt lat="49.90612" lon="2.52103">
        <ele>31.2</ele>
        <time>2020-09-30T12:08:58Z</time>
      </trkpt>
      <trkpt lat="49.90613" lon="2.52104">
        <ele>31.2</ele>
        <time>2020-09-30T12:08:59Z</time>
      </trkpt>
      <trkpt lat="49.90614" lon="2.52104">
        <ele>31.2</ele>
        <time>2020-09-30T12:09:00Z</time>
      </trkpt>
      <trkpt lat="49.90616" lon="2.52106">
        <ele>31.1</ele>
        <time>2020-09-30T12:09:01Z</time>
      </trkpt>
      <trkpt lat="49.90616" lon="2.52105">
        <ele>31.1</ele>
        <time>2020-09-30T12:09:03Z</time>
      </trkpt>
      <trkpt lat="49.90617" lon="2.52106">
        <ele>31.1</ele>
        <time>2020-09-30T12:09:04Z</time>
      </trkpt>
      <trkpt lat="49.90618" lon="2.52107">
        <ele>31.1</ele>
        <time>2020-09-30T12:09:05Z</time>
      </trkpt>
      <trkpt lat="49.90619" lon="2.52109">
        <ele>31.1</ele>
        <time>2020-09-30T12:09:06Z</time>
      </trkpt>
      <trkpt lat="49.9062" lon="2.5211">
        <ele>31.1</ele>
        <time>2020-09-30T12:09:07Z</time>
      </trkpt>
      <trkpt lat="49.90621" lon="2.52112">
        <ele>31</ele>
        <time>2020-09-30T12:09:09Z</time>
      </trkpt>
      <trkpt lat="49.90622" lon="2.52113">
        <ele>31</ele>
        <time>2020-09-30T12:09:10Z</time>
      </trkpt>
      <trkpt lat="49.90622" lon="2.52115">
        <ele>31</ele>
        <time>2020-09-30T12:09:11Z</time>
      </trkpt>
      <trkpt lat="49.90623" lon="2.52116">
        <ele>31</ele>
        <time>2020-09-30T12:09:12Z</time>
      </trkpt>
      <trkpt lat="49.90624" lon="2.52117">
        <ele>31</ele>
        <time>2020-09-30T12:09:13Z</time>
      </trkpt>
      <trkpt lat="49.90624" lon="2.52119">
        <ele>31</ele>
        <time>2020-09-30T12:09:14Z</time>
      </trkpt>
      <trkpt lat="49.90626" lon="2.52122">
        <ele>31</ele>
        <time>2020-09-30T12:09:16Z</time>
      </trkpt>
      <trkpt lat="49.90626" lon="2.52124">
        <ele>31</ele>
        <time>2020-09-30T12:09:17Z</time>
      </trkpt>
      <trkpt lat="49.90627" lon="2.52125">
        <ele>31</ele>
        <time>2020-09-30T12:09:18Z</time>
      </trkpt>
      <trkpt lat="49.90627" lon="2.52127">
        <ele>31</ele>
        <time>2020-09-30T12:09:19Z</time>
      </trkpt>
      <trkpt lat="49.90629" lon="2.5213">
        <ele>31</ele>
        <time>2020-09-30T12:09:21Z</time>
      </trkpt>
      <trkpt lat="49.9063" lon="2.52133">
        <ele>30.9</ele>
        <time>2020-09-30T12:09:22Z</time>
      </trkpt>
      <trkpt lat="49.9063" lon="2.52135">
        <ele>30.9</ele>
        <time>2020-09-30T12:09:24Z</time>
      </trkpt>
      <trkpt lat="49.90631" lon="2.52136">
        <ele>30.9</ele>
        <time>2020-09-30T12:09:25Z</time>
      </trkpt>
      <trkpt lat="49.90632" lon="2.52139">
        <ele>30.9</ele>
        <time>2020-09-30T12:09:26Z</time>
      </trkpt>
      <trkpt lat="49.90633" lon="2.52141">
        <ele>30.9</ele>
        <time>2020-09-30T12:09:27Z</time>
      </trkpt>
      <trkpt lat="49.90633" lon="2.52143">
        <ele>30.9</ele>
        <time>2020-09-30T12:09:29Z</time>
      </trkpt>
      <trkpt lat="49.90634" lon="2.52144">
        <ele>30.9</ele>
        <time>2020-09-30T12:09:30Z</time>
      </trkpt>
      <trkpt lat="49.90635" lon="2.52147">
        <ele>30.9</ele>
        <time>2020-09-30T12:09:31Z</time>
      </trkpt>
      <trkpt lat="49.90635" lon="2.52149">
        <ele>30.9</ele>
        <time>2020-09-30T12:09:32Z</time>
      </trkpt>
      <trkpt lat="49.90635" lon="2.5215">
        <ele>30.9</ele>
        <time>2020-09-30T12:09:33Z</time>
      </trkpt>
      <trkpt lat="49.90636" lon="2.52152">
        <ele>30.9</ele>
        <time>2020-09-30T12:09:34Z</time>
      </trkpt>
      <trkpt lat="49.90636" lon="2.52154">
        <ele>30.9</ele>
        <time>2020-09-30T12:09:36Z</time>
      </trkpt>
      <trkpt lat="49.90638" lon="2.52158">
        <ele>30.9</ele>
        <time>2020-09-30T12:09:37Z</time>
      </trkpt>
      <trkpt lat="49.90638" lon="2.52159">
        <ele>30.9</ele>
        <time>2020-09-30T12:09:38Z</time>
      </trkpt>
      <trkpt lat="49.90638" lon="2.52161">
        <ele>30.9</ele>
        <time>2020-09-30T12:09:39Z</time>
      </trkpt>
      <trkpt lat="49.90639" lon="2.52164">
        <ele>30.9</ele>
        <time>2020-09-30T12:09:41Z</time>
      </trkpt>
      <trkpt lat="49.9064" lon="2.52165">
        <ele>30.9</ele>
        <time>2020-09-30T12:09:42Z</time>
      </trkpt>
      <trkpt lat="49.9064" lon="2.52166">
        <ele>30.9</ele>
        <time>2020-09-30T12:09:43Z</time>
      </trkpt>
      <trkpt lat="49.90641" lon="2.52168">
        <ele>30.9</ele>
        <time>2020-09-30T12:09:44Z</time>
      </trkpt>
      <trkpt lat="49.90641" lon="2.52169">
        <ele>30.9</ele>
        <time>2020-09-30T12:09:45Z</time>
      </trkpt>
      <trkpt lat="49.90642" lon="2.52171">
        <ele>30.9</ele>
        <time>2020-09-30T12:09:47Z</time>
      </trkpt>
      <trkpt lat="49.90642" lon="2.52172">
        <ele>30.9</ele>
        <time>2020-09-30T12:09:48Z</time>
      </trkpt>
      <trkpt lat="49.90643" lon="2.52174">
        <ele>30.9</ele>
        <time>2020-09-30T12:09:49Z</time>
      </trkpt>
      <trkpt lat="49.90644" lon="2.52176">
        <ele>30.9</ele>
        <time>2020-09-30T12:09:50Z</time>
      </trkpt>
      <trkpt lat="49.90646" lon="2.52179">
        <ele>30.9</ele>
        <time>2020-09-30T12:09:51Z</time>
      </trkpt>
      <trkpt lat="49.90647" lon="2.52181">
        <ele>30.9</ele>
        <time>2020-09-30T12:09:53Z</time>
      </trkpt>
      <trkpt lat="49.90648" lon="2.52182">
        <ele>30.9</ele>
        <time>2020-09-30T12:09:54Z</time>
      </trkpt>
      <trkpt lat="49.90648" lon="2.52183">
        <ele>30.9</ele>
        <time>2020-09-30T12:09:56Z</time>
      </trkpt>
      <trkpt lat="49.90649" lon="2.52185">
        <ele>30.9</ele>
        <time>2020-09-30T12:09:57Z</time>
      </trkpt>
      <trkpt lat="49.9065" lon="2.52186">
        <ele>30.9</ele>
        <time>2020-09-30T12:09:58Z</time>
      </trkpt>
      <trkpt lat="49.90651" lon="2.52187">
        <ele>30.9</ele>
        <time>2020-09-30T12:09:59Z</time>
      </trkpt>
      <trkpt lat="49.90652" lon="2.52189">
        <ele>30.9</ele>
        <time>2020-09-30T12:10:01Z</time>
      </trkpt>
      <trkpt lat="49.90653" lon="2.52191">
        <ele>30.9</ele>
        <time>2020-09-30T12:10:02Z</time>
      </trkpt>
      <trkpt lat="49.90653" lon="2.52193">
        <ele>30.9</ele>
        <time>2020-09-30T12:10:03Z</time>
      </trkpt>
      <trkpt lat="49.90654" lon="2.52194">
        <ele>30.9</ele>
        <time>2020-09-30T12:10:04Z</time>
      </trkpt>
      <trkpt lat="49.90655" lon="2.52195">
        <ele>30.9</ele>
        <time>2020-09-30T12:10:05Z</time>
      </trkpt>
      <trkpt lat="49.90655" lon="2.52197">
        <ele>30.9</ele>
        <time>2020-09-30T12:10:06Z</time>
      </trkpt>
      <trkpt lat="49.90656" lon="2.52198">
        <ele>30.9</ele>
        <time>2020-09-30T12:10:08Z</time>
      </trkpt>
      <trkpt lat="49.90656" lon="2.52199">
        <ele>30.9</ele>
        <time>2020-09-30T12:10:09Z</time>
      </trkpt>
      <trkpt lat="49.90657" lon="2.522">
        <ele>30.9</ele>
        <time>2020-09-30T12:10:10Z</time>
      </trkpt>
      <trkpt lat="49.90659" lon="2.52201">
        <ele>30.9</ele>
        <time>2020-09-30T12:10:11Z</time>
      </trkpt>
      <trkpt lat="49.90659" lon="2.52202">
        <ele>30.9</ele>
        <time>2020-09-30T12:10:12Z</time>
      </trkpt>
      <trkpt lat="49.9066" lon="2.52203">
        <ele>30.9</ele>
        <time>2020-09-30T12:10:13Z</time>
      </trkpt>
      <trkpt lat="49.90662" lon="2.52205">
        <ele>30.9</ele>
        <time>2020-09-30T12:10:14Z</time>
      </trkpt>
      <trkpt lat="49.90663" lon="2.52206">
        <ele>30.9</ele>
        <time>2020-09-30T12:10:16Z</time>
      </trkpt>
      <trkpt lat="49.90664" lon="2.52207">
        <ele>30.9</ele>
        <time>2020-09-30T12:10:17Z</time>
      </trkpt>
      <trkpt lat="49.90664" lon="2.52208">
        <ele>30.9</ele>
        <time>2020-09-30T12:10:18Z</time>
      </trkpt>
      <trkpt lat="49.90665" lon="2.52209">
        <ele>30.9</ele>
        <time>2020-09-30T12:10:19Z</time>
      </trkpt>
      <trkpt lat="49.90666" lon="2.52211">
        <ele>30.9</ele>
        <time>2020-09-30T12:10:20Z</time>
      </trkpt>
      <trkpt lat="49.90667" lon="2.52213">
        <ele>30.9</ele>
        <time>2020-09-30T12:10:21Z</time>
      </trkpt>
      <trkpt lat="49.90668" lon="2.52214">
        <ele>30.9</ele>
        <time>2020-09-30T12:10:22Z</time>
      </trkpt>
      <trkpt lat="49.90669" lon="2.52215">
        <ele>30.9</ele>
        <time>2020-09-30T12:10:24Z</time>
      </trkpt>
      <trkpt lat="49.9067" lon="2.52216">
        <ele>30.9</ele>
        <time>2020-09-30T12:10:25Z</time>
      </trkpt>
      <trkpt lat="49.90671" lon="2.52217">
        <ele>30.9</ele>
        <time>2020-09-30T12:10:26Z</time>
      </trkpt>
      <trkpt lat="49.90672" lon="2.52219">
        <ele>30.9</ele>
        <time>2020-09-30T12:10:27Z</time>
      </trkpt>
      <trkpt lat="49.90673" lon="2.52219">
        <ele>30.9</ele>
        <time>2020-09-30T12:10:28Z</time>
      </trkpt>
      <trkpt lat="49.90674" lon="2.5222">
        <ele>30.9</ele>
        <time>2020-09-30T12:10:29Z</time>
      </trkpt>
      <trkpt lat="49.90675" lon="2.52221">
        <ele>30.9</ele>
        <time>2020-09-30T12:10:30Z</time>
      </trkpt>
      <trkpt lat="49.90677" lon="2.52222">
        <ele>30.9</ele>
        <time>2020-09-30T12:10:32Z</time>
      </trkpt>
      <trkpt lat="49.90678" lon="2.52224">
        <ele>30.9</ele>
        <time>2020-09-30T12:10:33Z</time>
      </trkpt>
      <trkpt lat="49.90679" lon="2.52225">
        <ele>30.9</ele>
        <time>2020-09-30T12:10:34Z</time>
      </trkpt>
      <trkpt lat="49.9068" lon="2.52226">
        <ele>30.9</ele>
        <time>2020-09-30T12:10:35Z</time>
      </trkpt>
      <trkpt lat="49.90681" lon="2.52227">
        <ele>30.9</ele>
        <time>2020-09-30T12:10:36Z</time>
      </trkpt>
      <trkpt lat="49.90682" lon="2.52229">
        <ele>30.9</ele>
        <time>2020-09-30T12:10:37Z</time>
      </trkpt>
      <trkpt lat="49.90684" lon="2.52231">
        <ele>30.9</ele>
        <time>2020-09-30T12:10:38Z</time>
      </trkpt>
      <trkpt lat="49.90684" lon="2.52233">
        <ele>30.9</ele>
        <time>2020-09-30T12:10:40Z</time>
      </trkpt>
      <trkpt lat="49.90685" lon="2.52234">
        <ele>30.9</ele>
        <time>2020-09-30T12:10:41Z</time>
      </trkpt>
      <trkpt lat="49.90686" lon="2.52236">
        <ele>30.9</ele>
        <time>2020-09-30T12:10:42Z</time>
      </trkpt>
      <trkpt lat="49.90687" lon="2.52236">
        <ele>30.9</ele>
        <time>2020-09-30T12:10:43Z</time>
      </trkpt>
      <trkpt lat="49.90688" lon="2.52237">
        <ele>30.9</ele>
        <time>2020-09-30T12:10:44Z</time>
      </trkpt>
      <trkpt lat="49.9069" lon="2.52239">
        <ele>30.9</ele>
        <time>2020-09-30T12:10:45Z</time>
      </trkpt>
      <trkpt lat="49.90691" lon="2.5224">
        <ele>30.9</ele>
        <time>2020-09-30T12:10:46Z</time>
      </trkpt>
      <trkpt lat="49.90691" lon="2.52241">
        <ele>30.9</ele>
        <time>2020-09-30T12:10:48Z</time>
      </trkpt>
      <trkpt lat="49.90692" lon="2.52242">
        <ele>30.9</ele>
        <time>2020-09-30T12:10:49Z</time>
      </trkpt>
      <trkpt lat="49.90693" lon="2.52243">
        <ele>30.9</ele>
        <time>2020-09-30T12:10:50Z</time>
      </trkpt>
      <trkpt lat="49.90694" lon="2.52244">
        <ele>30.8</ele>
        <time>2020-09-30T12:10:51Z</time>
      </trkpt>
      <trkpt lat="49.90696" lon="2.52245">
        <ele>30.8</ele>
        <time>2020-09-30T12:10:52Z</time>
      </trkpt>
      <trkpt lat="49.90697" lon="2.52246">
        <ele>30.8</ele>
        <time>2020-09-30T12:10:53Z</time>
      </trkpt>
      <trkpt lat="49.90698" lon="2.52248">
        <ele>30.8</ele>
        <time>2020-09-30T12:10:54Z</time>
      </trkpt>
      <trkpt lat="49.90699" lon="2.52248">
        <ele>30.8</ele>
        <time>2020-09-30T12:10:55Z</time>
      </trkpt>
      <trkpt lat="49.907" lon="2.52249">
        <ele>30.8</ele>
        <time>2020-09-30T12:10:56Z</time>
      </trkpt>
      <trkpt lat="49.90701" lon="2.5225">
        <ele>30.8</ele>
        <time>2020-09-30T12:10:58Z</time>
      </trkpt>
      <trkpt lat="49.90702" lon="2.52251">
        <ele>30.8</ele>
        <time>2020-09-30T12:10:59Z</time>
      </trkpt>
      <trkpt lat="49.90703" lon="2.52252">
        <ele>30.8</ele>
        <time>2020-09-30T12:11:00Z</time>
      </trkpt>
      <trkpt lat="49.90704" lon="2.52253">
        <ele>30.8</ele>
        <time>2020-09-30T12:11:01Z</time>
      </trkpt>
      <trkpt lat="49.90705" lon="2.52254">
        <ele>30.8</ele>
        <time>2020-09-30T12:11:02Z</time>
      </trkpt>
      <trkpt lat="49.90707" lon="2.52256">
        <ele>30.8</ele>
        <time>2020-09-30T12:11:03Z</time>
      </trkpt>
      <trkpt lat="49.90708" lon="2.52256">
        <ele>30.8</ele>
        <time>2020-09-30T12:11:05Z</time>
      </trkpt>
      <trkpt lat="49.90709" lon="2.52257">
        <ele>30.8</ele>
        <time>2020-09-30T12:11:06Z</time>
      </trkpt>
      <trkpt lat="49.9071" lon="2.52259">
        <ele>30.8</ele>
        <time>2020-09-30T12:11:07Z</time>
      </trkpt>
      <trkpt lat="49.90711" lon="2.5226">
        <ele>30.8</ele>
        <time>2020-09-30T12:11:08Z</time>
      </trkpt>
      <trkpt lat="49.90712" lon="2.52261">
        <ele>30.9</ele>
        <time>2020-09-30T12:11:09Z</time>
      </trkpt>
      <trkpt lat="49.90713" lon="2.52262">
        <ele>30.9</ele>
        <time>2020-09-30T12:11:10Z</time>
      </trkpt>
      <trkpt lat="49.90715" lon="2.52264">
        <ele>30.9</ele>
        <time>2020-09-30T12:11:11Z</time>
      </trkpt>
      <trkpt lat="49.90716" lon="2.52264">
        <ele>30.9</ele>
        <time>2020-09-30T12:11:12Z</time>
      </trkpt>
      <trkpt lat="49.90717" lon="2.52265">
        <ele>30.9</ele>
        <time>2020-09-30T12:11:14Z</time>
      </trkpt>
      <trkpt lat="49.90718" lon="2.52266">
        <ele>30.9</ele>
        <time>2020-09-30T12:11:15Z</time>
      </trkpt>
      <trkpt lat="49.90719" lon="2.52267">
        <ele>30.9</ele>
        <time>2020-09-30T12:11:16Z</time>
      </trkpt>
      <trkpt lat="49.9072" lon="2.52268">
        <ele>30.9</ele>
        <time>2020-09-30T12:11:17Z</time>
      </trkpt>
      <trkpt lat="49.90721" lon="2.52269">
        <ele>30.9</ele>
        <time>2020-09-30T12:11:18Z</time>
      </trkpt>
      <trkpt lat="49.90722" lon="2.5227">
        <ele>30.9</ele>
        <time>2020-09-30T12:11:19Z</time>
      </trkpt>
      <trkpt lat="49.90724" lon="2.52271">
        <ele>30.9</ele>
        <time>2020-09-30T12:11:21Z</time>
      </trkpt>
      <trkpt lat="49.90724" lon="2.52272">
        <ele>30.9</ele>
        <time>2020-09-30T12:11:22Z</time>
      </trkpt>
      <trkpt lat="49.90725" lon="2.52273">
        <ele>30.9</ele>
        <time>2020-09-30T12:11:23Z</time>
      </trkpt>
      <trkpt lat="49.90726" lon="2.52273">
        <ele>30.9</ele>
        <time>2020-09-30T12:11:24Z</time>
      </trkpt>
      <trkpt lat="49.90727" lon="2.52274">
        <ele>30.9</ele>
        <time>2020-09-30T12:11:25Z</time>
      </trkpt>
      <trkpt lat="49.90728" lon="2.52275">
        <ele>30.9</ele>
        <time>2020-09-30T12:11:26Z</time>
      </trkpt>
      <trkpt lat="49.9073" lon="2.52276">
        <ele>30.9</ele>
        <time>2020-09-30T12:11:27Z</time>
      </trkpt>
      <trkpt lat="49.90731" lon="2.52277">
        <ele>30.9</ele>
        <time>2020-09-30T12:11:28Z</time>
      </trkpt>
      <trkpt lat="49.90734" lon="2.52278">
        <ele>30.9</ele>
        <time>2020-09-30T12:11:29Z</time>
      </trkpt>
      <trkpt lat="49.90735" lon="2.52279">
        <ele>30.9</ele>
        <time>2020-09-30T12:11:31Z</time>
      </trkpt>
      <trkpt lat="49.90736" lon="2.5228">
        <ele>30.9</ele>
        <time>2020-09-30T12:11:32Z</time>
      </trkpt>
      <trkpt lat="49.90737" lon="2.52281">
        <ele>30.9</ele>
        <time>2020-09-30T12:11:33Z</time>
      </trkpt>
      <trkpt lat="49.90738" lon="2.52281">
        <ele>30.9</ele>
        <time>2020-09-30T12:11:35Z</time>
      </trkpt>
      <trkpt lat="49.90739" lon="2.52282">
        <ele>30.9</ele>
        <time>2020-09-30T12:11:36Z</time>
      </trkpt>
      <trkpt lat="49.90741" lon="2.52283">
        <ele>30.9</ele>
        <time>2020-09-30T12:11:37Z</time>
      </trkpt>
      <trkpt lat="49.90743" lon="2.52284">
        <ele>30.9</ele>
        <time>2020-09-30T12:11:38Z</time>
      </trkpt>
      <trkpt lat="49.90744" lon="2.52285">
        <ele>30.9</ele>
        <time>2020-09-30T12:11:40Z</time>
      </trkpt>
      <trkpt lat="49.90745" lon="2.52285">
        <ele>30.9</ele>
        <time>2020-09-30T12:11:41Z</time>
      </trkpt>
      <trkpt lat="49.90747" lon="2.52287">
        <ele>30.9</ele>
        <time>2020-09-30T12:11:42Z</time>
      </trkpt>
      <trkpt lat="49.90747" lon="2.52287">
        <ele>30.9</ele>
        <time>2020-09-30T12:11:43Z</time>
      </trkpt>
      <trkpt lat="49.90748" lon="2.52287">
        <ele>30.9</ele>
        <time>2020-09-30T12:11:44Z</time>
      </trkpt>
      <trkpt lat="49.90749" lon="2.52288">
        <ele>30.9</ele>
        <time>2020-09-30T12:11:45Z</time>
      </trkpt>
      <trkpt lat="49.90751" lon="2.52289">
        <ele>30.9</ele>
        <time>2020-09-30T12:11:46Z</time>
      </trkpt>
      <trkpt lat="49.90752" lon="2.5229">
        <ele>30.9</ele>
        <time>2020-09-30T12:11:47Z</time>
      </trkpt>
      <trkpt lat="49.90753" lon="2.5229">
        <ele>30.9</ele>
        <time>2020-09-30T12:11:49Z</time>
      </trkpt>
      <trkpt lat="49.90754" lon="2.52291">
        <ele>30.9</ele>
        <time>2020-09-30T12:11:50Z</time>
      </trkpt>
      <trkpt lat="49.90755" lon="2.52292">
        <ele>30.9</ele>
        <time>2020-09-30T12:11:51Z</time>
      </trkpt>
      <trkpt lat="49.90757" lon="2.52293">
        <ele>30.9</ele>
        <time>2020-09-30T12:11:52Z</time>
      </trkpt>
      <trkpt lat="49.90758" lon="2.52294">
        <ele>30.9</ele>
        <time>2020-09-30T12:11:53Z</time>
      </trkpt>
      <trkpt lat="49.90759" lon="2.52295">
        <ele>30.9</ele>
        <time>2020-09-30T12:11:54Z</time>
      </trkpt>
      <trkpt lat="49.9076" lon="2.52296">
        <ele>30.9</ele>
        <time>2020-09-30T12:11:56Z</time>
      </trkpt>
      <trkpt lat="49.90761" lon="2.52297">
        <ele>30.9</ele>
        <time>2020-09-30T12:11:57Z</time>
      </trkpt>
      <trkpt lat="49.90762" lon="2.52298">
        <ele>30.9</ele>
        <time>2020-09-30T12:11:58Z</time>
      </trkpt>
      <trkpt lat="49.90764" lon="2.523">
        <ele>30.9</ele>
        <time>2020-09-30T12:11:59Z</time>
      </trkpt>
      <trkpt lat="49.90765" lon="2.52301">
        <ele>30.9</ele>
        <time>2020-09-30T12:12:00Z</time>
      </trkpt>
      <trkpt lat="49.90765" lon="2.52302">
        <ele>30.9</ele>
        <time>2020-09-30T12:12:01Z</time>
      </trkpt>
      <trkpt lat="49.90767" lon="2.52303">
        <ele>30.9</ele>
        <time>2020-09-30T12:12:02Z</time>
      </trkpt>
      <trkpt lat="49.90768" lon="2.52304">
        <ele>30.9</ele>
        <time>2020-09-30T12:12:04Z</time>
      </trkpt>
      <trkpt lat="49.90769" lon="2.52305">
        <ele>30.9</ele>
        <time>2020-09-30T12:12:05Z</time>
      </trkpt>
      <trkpt lat="49.9077" lon="2.52306">
        <ele>30.9</ele>
        <time>2020-09-30T12:12:06Z</time>
      </trkpt>
      <trkpt lat="49.90772" lon="2.52307">
        <ele>30.8</ele>
        <time>2020-09-30T12:12:07Z</time>
      </trkpt>
      <trkpt lat="49.90773" lon="2.52308">
        <ele>30.8</ele>
        <time>2020-09-30T12:12:08Z</time>
      </trkpt>
      <trkpt lat="49.90773" lon="2.5231">
        <ele>30.8</ele>
        <time>2020-09-30T12:12:09Z</time>
      </trkpt>
      <trkpt lat="49.90774" lon="2.52311">
        <ele>30.8</ele>
        <time>2020-09-30T12:12:10Z</time>
      </trkpt>
      <trkpt lat="49.90776" lon="2.52313">
        <ele>30.8</ele>
        <time>2020-09-30T12:12:12Z</time>
      </trkpt>
      <trkpt lat="49.90777" lon="2.52314">
        <ele>30.8</ele>
        <time>2020-09-30T12:12:13Z</time>
      </trkpt>
      <trkpt lat="49.90777" lon="2.52314">
        <ele>30.8</ele>
        <time>2020-09-30T12:12:14Z</time>
      </trkpt>
      <trkpt lat="49.90779" lon="2.52316">
        <ele>30.8</ele>
        <time>2020-09-30T12:12:15Z</time>
      </trkpt>
      <trkpt lat="49.9078" lon="2.52317">
        <ele>30.8</ele>
        <time>2020-09-30T12:12:16Z</time>
      </trkpt>
      <trkpt lat="49.90781" lon="2.52318">
        <ele>30.8</ele>
        <time>2020-09-30T12:12:17Z</time>
      </trkpt>
      <trkpt lat="49.90782" lon="2.52319">
        <ele>30.8</ele>
        <time>2020-09-30T12:12:18Z</time>
      </trkpt>
      <trkpt lat="49.90784" lon="2.5232">
        <ele>30.8</ele>
        <time>2020-09-30T12:12:19Z</time>
      </trkpt>
      <trkpt lat="49.90785" lon="2.52321">
        <ele>30.8</ele>
        <time>2020-09-30T12:12:21Z</time>
      </trkpt>
      <trkpt lat="49.90786" lon="2.52322">
        <ele>30.8</ele>
        <time>2020-09-30T12:12:22Z</time>
      </trkpt>
      <trkpt lat="49.90787" lon="2.52322">
        <ele>30.8</ele>
        <time>2020-09-30T12:12:23Z</time>
      </trkpt>
      <trkpt lat="49.90788" lon="2.52323">
        <ele>30.8</ele>
        <time>2020-09-30T12:12:24Z</time>
      </trkpt>
      <trkpt lat="49.90789" lon="2.52324">
        <ele>30.8</ele>
        <time>2020-09-30T12:12:25Z</time>
      </trkpt>
      <trkpt lat="49.9079" lon="2.52325">
        <ele>30.8</ele>
        <time>2020-09-30T12:12:26Z</time>
      </trkpt>
      <trkpt lat="49.90792" lon="2.52326">
        <ele>30.8</ele>
        <time>2020-09-30T12:12:27Z</time>
      </trkpt>
      <trkpt lat="49.90793" lon="2.52327">
        <ele>30.8</ele>
        <time>2020-09-30T12:12:29Z</time>
      </trkpt>
      <trkpt lat="49.90794" lon="2.52327">
        <ele>30.8</ele>
        <time>2020-09-30T12:12:30Z</time>
      </trkpt>
      <trkpt lat="49.90796" lon="2.52328">
        <ele>30.8</ele>
        <time>2020-09-30T12:12:31Z</time>
      </trkpt>
      <trkpt lat="49.90798" lon="2.52329">
        <ele>30.8</ele>
        <time>2020-09-30T12:12:32Z</time>
      </trkpt>
      <trkpt lat="49.90798" lon="2.5233">
        <ele>30.8</ele>
        <time>2020-09-30T12:12:34Z</time>
      </trkpt>
      <trkpt lat="49.908" lon="2.52331">
        <ele>30.8</ele>
        <time>2020-09-30T12:12:35Z</time>
      </trkpt>
      <trkpt lat="49.90802" lon="2.52332">
        <ele>30.8</ele>
        <time>2020-09-30T12:12:36Z</time>
      </trkpt>
      <trkpt lat="49.90804" lon="2.52334">
        <ele>30.8</ele>
        <time>2020-09-30T12:12:37Z</time>
      </trkpt>
      <trkpt lat="49.90805" lon="2.52335">
        <ele>30.8</ele>
        <time>2020-09-30T12:12:39Z</time>
      </trkpt>
      <trkpt lat="49.90806" lon="2.52336">
        <ele>30.8</ele>
        <time>2020-09-30T12:12:40Z</time>
      </trkpt>
      <trkpt lat="49.90807" lon="2.52337">
        <ele>30.8</ele>
        <time>2020-09-30T12:12:41Z</time>
      </trkpt>
      <trkpt lat="49.90808" lon="2.52338">
        <ele>30.8</ele>
        <time>2020-09-30T12:12:42Z</time>
      </trkpt>
      <trkpt lat="49.90808" lon="2.52338">
        <ele>30.8</ele>
        <time>2020-09-30T12:12:43Z</time>
      </trkpt>
      <trkpt lat="49.90809" lon="2.5234">
        <ele>30.8</ele>
        <time>2020-09-30T12:12:44Z</time>
      </trkpt>
      <trkpt lat="49.9081" lon="2.52342">
        <ele>30.7</ele>
        <time>2020-09-30T12:12:45Z</time>
      </trkpt>
      <trkpt lat="49.9081" lon="2.52343">
        <ele>30.7</ele>
        <time>2020-09-30T12:12:47Z</time>
      </trkpt>
      <trkpt lat="49.90811" lon="2.52345">
        <ele>30.7</ele>
        <time>2020-09-30T12:12:48Z</time>
      </trkpt>
      <trkpt lat="49.90811" lon="2.52347">
        <ele>30.7</ele>
        <time>2020-09-30T12:12:49Z</time>
      </trkpt>
      <trkpt lat="49.90811" lon="2.52349">
        <ele>30.6</ele>
        <time>2020-09-30T12:12:50Z</time>
      </trkpt>
      <trkpt lat="49.90811" lon="2.52351">
        <ele>30.6</ele>
        <time>2020-09-30T12:12:51Z</time>
      </trkpt>
      <trkpt lat="49.90811" lon="2.52354">
        <ele>30.6</ele>
        <time>2020-09-30T12:12:52Z</time>
      </trkpt>
      <trkpt lat="49.9081" lon="2.52356">
        <ele>30.5</ele>
        <time>2020-09-30T12:12:54Z</time>
      </trkpt>
      <trkpt lat="49.9081" lon="2.52357">
        <ele>30.5</ele>
        <time>2020-09-30T12:12:55Z</time>
      </trkpt>
      <trkpt lat="49.90809" lon="2.52358">
        <ele>30.5</ele>
        <time>2020-09-30T12:12:56Z</time>
      </trkpt>
      <trkpt lat="49.90809" lon="2.5236">
        <ele>30.5</ele>
        <time>2020-09-30T12:12:57Z</time>
      </trkpt>
      <trkpt lat="49.90808" lon="2.52361">
        <ele>30.4</ele>
        <time>2020-09-30T12:12:58Z</time>
      </trkpt>
      <trkpt lat="49.90807" lon="2.52363">
        <ele>30.4</ele>
        <time>2020-09-30T12:12:59Z</time>
      </trkpt>
      <trkpt lat="49.90807" lon="2.52364">
        <ele>30.4</ele>
        <time>2020-09-30T12:13:01Z</time>
      </trkpt>
      <trkpt lat="49.90806" lon="2.52366">
        <ele>30.4</ele>
        <time>2020-09-30T12:13:02Z</time>
      </trkpt>
      <trkpt lat="49.90805" lon="2.52368">
        <ele>30.3</ele>
        <time>2020-09-30T12:13:03Z</time>
      </trkpt>
      <trkpt lat="49.90805" lon="2.52369">
        <ele>30.3</ele>
        <time>2020-09-30T12:13:04Z</time>
      </trkpt>
      <trkpt lat="49.90805" lon="2.52371">
        <ele>30.3</ele>
        <time>2020-09-30T12:13:05Z</time>
      </trkpt>
      <trkpt lat="49.90804" lon="2.52372">
        <ele>30.3</ele>
        <time>2020-09-30T12:13:06Z</time>
      </trkpt>
      <trkpt lat="49.90804" lon="2.52374">
        <ele>30.2</ele>
        <time>2020-09-30T12:13:08Z</time>
      </trkpt>
      <trkpt lat="49.90803" lon="2.52375">
        <ele>30.2</ele>
        <time>2020-09-30T12:13:09Z</time>
      </trkpt>
      <trkpt lat="49.90803" lon="2.52376">
        <ele>30.2</ele>
        <time>2020-09-30T12:13:10Z</time>
      </trkpt>
      <trkpt lat="49.90802" lon="2.52378">
        <ele>30.2</ele>
        <time>2020-09-30T12:13:11Z</time>
      </trkpt>
      <trkpt lat="49.90801" lon="2.5238">
        <ele>30.2</ele>
        <time>2020-09-30T12:13:12Z</time>
      </trkpt>
      <trkpt lat="49.90801" lon="2.52381">
        <ele>30.2</ele>
        <time>2020-09-30T12:13:13Z</time>
      </trkpt>
      <trkpt lat="49.90801" lon="2.52382">
        <ele>30.2</ele>
        <time>2020-09-30T12:13:14Z</time>
      </trkpt>
      <trkpt lat="49.908" lon="2.52384">
        <ele>30.1</ele>
        <time>2020-09-30T12:13:16Z</time>
      </trkpt>
      <trkpt lat="49.908" lon="2.52384">
        <ele>30.1</ele>
        <time>2020-09-30T12:13:17Z</time>
      </trkpt>
      <trkpt lat="49.90799" lon="2.52386">
        <ele>30.1</ele>
        <time>2020-09-30T12:13:18Z</time>
      </trkpt>
      <trkpt lat="49.90799" lon="2.52386">
        <ele>30.1</ele>
        <time>2020-09-30T12:13:19Z</time>
      </trkpt>
      <trkpt lat="49.90798" lon="2.52387">
        <ele>30.1</ele>
        <time>2020-09-30T12:13:20Z</time>
      </trkpt>
      <trkpt lat="49.90798" lon="2.52388">
        <ele>30.1</ele>
        <time>2020-09-30T12:13:21Z</time>
      </trkpt>
      <trkpt lat="49.90797" lon="2.5239">
        <ele>30.1</ele>
        <time>2020-09-30T12:13:22Z</time>
      </trkpt>
      <trkpt lat="49.90796" lon="2.52391">
        <ele>30.1</ele>
        <time>2020-09-30T12:13:24Z</time>
      </trkpt>
      <trkpt lat="49.90796" lon="2.52392">
        <ele>30.1</ele>
        <time>2020-09-30T12:13:25Z</time>
      </trkpt>
      <trkpt lat="49.90796" lon="2.52393">
        <ele>30.1</ele>
        <time>2020-09-30T12:13:26Z</time>
      </trkpt>
      <trkpt lat="49.90795" lon="2.52394">
        <ele>30.1</ele>
        <time>2020-09-30T12:13:27Z</time>
      </trkpt>
      <trkpt lat="49.90795" lon="2.52395">
        <ele>30.1</ele>
        <time>2020-09-30T12:13:28Z</time>
      </trkpt>
      <trkpt lat="49.90795" lon="2.52396">
        <ele>30.1</ele>
        <time>2020-09-30T12:13:29Z</time>
      </trkpt>
      <trkpt lat="49.90794" lon="2.52399">
        <ele>30.1</ele>
        <time>2020-09-30T12:13:31Z</time>
      </trkpt>
      <trkpt lat="49.90794" lon="2.52401">
        <ele>30.1</ele>
        <time>2020-09-30T12:13:33Z</time>
      </trkpt>
      <trkpt lat="49.90793" lon="2.52402">
        <ele>30</ele>
        <time>2020-09-30T12:13:34Z</time>
      </trkpt>
      <trkpt lat="49.90793" lon="2.52404">
        <ele>30</ele>
        <time>2020-09-30T12:13:35Z</time>
      </trkpt>
      <trkpt lat="49.90793" lon="2.52405">
        <ele>30</ele>
        <time>2020-09-30T12:13:36Z</time>
      </trkpt>
      <trkpt lat="49.90792" lon="2.52408">
        <ele>30</ele>
        <time>2020-09-30T12:13:37Z</time>
      </trkpt>
      <trkpt lat="49.90792" lon="2.52409">
        <ele>30</ele>
        <time>2020-09-30T12:13:38Z</time>
      </trkpt>
      <trkpt lat="49.90792" lon="2.5241">
        <ele>30</ele>
        <time>2020-09-30T12:13:39Z</time>
      </trkpt>
      <trkpt lat="49.90791" lon="2.52412">
        <ele>30</ele>
        <time>2020-09-30T12:13:41Z</time>
      </trkpt>
      <trkpt lat="49.90791" lon="2.52413">
        <ele>30</ele>
        <time>2020-09-30T12:13:42Z</time>
      </trkpt>
      <trkpt lat="49.9079" lon="2.52416">
        <ele>30</ele>
        <time>2020-09-30T12:13:43Z</time>
      </trkpt>
      <trkpt lat="49.9079" lon="2.52418">
        <ele>30</ele>
        <time>2020-09-30T12:13:44Z</time>
      </trkpt>
      <trkpt lat="49.90789" lon="2.5242">
        <ele>30</ele>
        <time>2020-09-30T12:13:45Z</time>
      </trkpt>
      <trkpt lat="49.90789" lon="2.52421">
        <ele>30</ele>
        <time>2020-09-30T12:13:46Z</time>
      </trkpt>
      <trkpt lat="49.90788" lon="2.52423">
        <ele>30</ele>
        <time>2020-09-30T12:13:47Z</time>
      </trkpt>
      <trkpt lat="49.90788" lon="2.52423">
        <ele>30</ele>
        <time>2020-09-30T12:13:48Z</time>
      </trkpt>
      <trkpt lat="49.90788" lon="2.52423">
        <ele>30</ele>
        <time>2020-09-30T12:13:50Z</time>
      </trkpt>
      <trkpt lat="49.90788" lon="2.52424">
        <ele>29.9</ele>
        <time>2020-09-30T12:13:51Z</time>
      </trkpt>
      <trkpt lat="49.90787" lon="2.52425">
        <ele>29.9</ele>
        <time>2020-09-30T12:13:52Z</time>
      </trkpt>
      <trkpt lat="49.90787" lon="2.52427">
        <ele>29.9</ele>
        <time>2020-09-30T12:13:53Z</time>
      </trkpt>
      <trkpt lat="49.90787" lon="2.52428">
        <ele>29.9</ele>
        <time>2020-09-30T12:13:54Z</time>
      </trkpt>
      <trkpt lat="49.90787" lon="2.52429">
        <ele>29.9</ele>
        <time>2020-09-30T12:13:55Z</time>
      </trkpt>
      <trkpt lat="49.90786" lon="2.5243">
        <ele>29.9</ele>
        <time>2020-09-30T12:13:56Z</time>
      </trkpt>
      <trkpt lat="49.90786" lon="2.52431">
        <ele>29.9</ele>
        <time>2020-09-30T12:13:57Z</time>
      </trkpt>
      <trkpt lat="49.90785" lon="2.52433">
        <ele>29.9</ele>
        <time>2020-09-30T12:13:59Z</time>
      </trkpt>
      <trkpt lat="49.90785" lon="2.52434">
        <ele>29.9</ele>
        <time>2020-09-30T12:14:00Z</time>
      </trkpt>
      <trkpt lat="49.90785" lon="2.52435">
        <ele>29.9</ele>
        <time>2020-09-30T12:14:01Z</time>
      </trkpt>
      <trkpt lat="49.90785" lon="2.52436">
        <ele>29.9</ele>
        <time>2020-09-30T12:14:02Z</time>
      </trkpt>
      <trkpt lat="49.90784" lon="2.52437">
        <ele>29.9</ele>
        <time>2020-09-30T12:14:03Z</time>
      </trkpt>
      <trkpt lat="49.90784" lon="2.52438">
        <ele>29.9</ele>
        <time>2020-09-30T12:14:04Z</time>
      </trkpt>
      <trkpt lat="49.90783" lon="2.52439">
        <ele>29.9</ele>
        <time>2020-09-30T12:14:05Z</time>
      </trkpt>
      <trkpt lat="49.90783" lon="2.52441">
        <ele>29.9</ele>
        <time>2020-09-30T12:14:06Z</time>
      </trkpt>
      <trkpt lat="49.90783" lon="2.52442">
        <ele>29.9</ele>
        <time>2020-09-30T12:14:07Z</time>
      </trkpt>
      <trkpt lat="49.90782" lon="2.52444">
        <ele>29.9</ele>
        <time>2020-09-30T12:14:09Z</time>
      </trkpt>
      <trkpt lat="49.90782" lon="2.52446">
        <ele>29.9</ele>
        <time>2020-09-30T12:14:10Z</time>
      </trkpt>
      <trkpt lat="49.90781" lon="2.52447">
        <ele>29.9</ele>
        <time>2020-09-30T12:14:11Z</time>
      </trkpt>
      <trkpt lat="49.9078" lon="2.52451">
        <ele>29.8</ele>
        <time>2020-09-30T12:14:12Z</time>
      </trkpt>
      <trkpt lat="49.90779" lon="2.52453">
        <ele>29.8</ele>
        <time>2020-09-30T12:14:14Z</time>
      </trkpt>
      <trkpt lat="49.90778" lon="2.52455">
        <ele>29.8</ele>
        <time>2020-09-30T12:14:15Z</time>
      </trkpt>
      <trkpt lat="49.90778" lon="2.52457">
        <ele>29.8</ele>
        <time>2020-09-30T12:14:16Z</time>
      </trkpt>
      <trkpt lat="49.90777" lon="2.5246">
        <ele>29.8</ele>
        <time>2020-09-30T12:14:17Z</time>
      </trkpt>
      <trkpt lat="49.90775" lon="2.52464">
        <ele>29.8</ele>
        <time>2020-09-30T12:14:18Z</time>
      </trkpt>
      <trkpt lat="49.90775" lon="2.52465">
        <ele>29.8</ele>
        <time>2020-09-30T12:14:19Z</time>
      </trkpt>
      <trkpt lat="49.90774" lon="2.52467">
        <ele>29.8</ele>
        <time>2020-09-30T12:14:20Z</time>
      </trkpt>
      <trkpt lat="49.90773" lon="2.52469">
        <ele>29.8</ele>
        <time>2020-09-30T12:14:21Z</time>
      </trkpt>
      <trkpt lat="49.90772" lon="2.52472">
        <ele>29.8</ele>
        <time>2020-09-30T12:14:23Z</time>
      </trkpt>
      <trkpt lat="49.90772" lon="2.52474">
        <ele>29.8</ele>
        <time>2020-09-30T12:14:24Z</time>
      </trkpt>
      <trkpt lat="49.90771" lon="2.52476">
        <ele>29.7</ele>
        <time>2020-09-30T12:14:25Z</time>
      </trkpt>
      <trkpt lat="49.9077" lon="2.52478">
        <ele>29.7</ele>
        <time>2020-09-30T12:14:26Z</time>
      </trkpt>
      <trkpt lat="49.90769" lon="2.52482">
        <ele>29.7</ele>
        <time>2020-09-30T12:14:27Z</time>
      </trkpt>
      <trkpt lat="49.90768" lon="2.52483">
        <ele>29.7</ele>
        <time>2020-09-30T12:14:28Z</time>
      </trkpt>
      <trkpt lat="49.90767" lon="2.52485">
        <ele>29.7</ele>
        <time>2020-09-30T12:14:29Z</time>
      </trkpt>
      <trkpt lat="49.90767" lon="2.52487">
        <ele>29.7</ele>
        <time>2020-09-30T12:14:30Z</time>
      </trkpt>
      <trkpt lat="49.90766" lon="2.52489">
        <ele>29.7</ele>
        <time>2020-09-30T12:14:32Z</time>
      </trkpt>
      <trkpt lat="49.90765" lon="2.52491">
        <ele>29.7</ele>
        <time>2020-09-30T12:14:33Z</time>
      </trkpt>
      <trkpt lat="49.90765" lon="2.52493">
        <ele>29.7</ele>
        <time>2020-09-30T12:14:34Z</time>
      </trkpt>
      <trkpt lat="49.90764" lon="2.52495">
        <ele>29.7</ele>
        <time>2020-09-30T12:14:35Z</time>
      </trkpt>
      <trkpt lat="49.90763" lon="2.52499">
        <ele>29.7</ele>
        <time>2020-09-30T12:14:36Z</time>
      </trkpt>
      <trkpt lat="49.90762" lon="2.525">
        <ele>29.7</ele>
        <time>2020-09-30T12:14:37Z</time>
      </trkpt>
      <trkpt lat="49.90762" lon="2.52501">
        <ele>29.7</ele>
        <time>2020-09-30T12:14:39Z</time>
      </trkpt>
      <trkpt lat="49.90762" lon="2.52503">
        <ele>29.7</ele>
        <time>2020-09-30T12:14:40Z</time>
      </trkpt>
      <trkpt lat="49.90761" lon="2.52505">
        <ele>29.7</ele>
        <time>2020-09-30T12:14:41Z</time>
      </trkpt>
      <trkpt lat="49.90761" lon="2.52508">
        <ele>29.7</ele>
        <time>2020-09-30T12:14:42Z</time>
      </trkpt>
      <trkpt lat="49.90761" lon="2.52509">
        <ele>29.7</ele>
        <time>2020-09-30T12:14:44Z</time>
      </trkpt>
      <trkpt lat="49.9076" lon="2.5251">
        <ele>29.7</ele>
        <time>2020-09-30T12:14:45Z</time>
      </trkpt>
      <trkpt lat="49.90759" lon="2.52513">
        <ele>29.7</ele>
        <time>2020-09-30T12:14:46Z</time>
      </trkpt>
      <trkpt lat="49.90759" lon="2.52514">
        <ele>29.7</ele>
        <time>2020-09-30T12:14:47Z</time>
      </trkpt>
      <trkpt lat="49.90758" lon="2.52515">
        <ele>29.7</ele>
        <time>2020-09-30T12:14:48Z</time>
      </trkpt>
      <trkpt lat="49.90757" lon="2.52518">
        <ele>29.8</ele>
        <time>2020-09-30T12:14:50Z</time>
      </trkpt>
      <trkpt lat="49.90756" lon="2.52519">
        <ele>29.8</ele>
        <time>2020-09-30T12:14:51Z</time>
      </trkpt>
      <trkpt lat="49.90756" lon="2.5252">
        <ele>29.8</ele>
        <time>2020-09-30T12:14:52Z</time>
      </trkpt>
      <trkpt lat="49.90755" lon="2.52522">
        <ele>29.8</ele>
        <time>2020-09-30T12:14:53Z</time>
      </trkpt>
      <trkpt lat="49.90754" lon="2.52524">
        <ele>29.8</ele>
        <time>2020-09-30T12:14:54Z</time>
      </trkpt>
      <trkpt lat="49.90753" lon="2.52526">
        <ele>29.8</ele>
        <time>2020-09-30T12:14:55Z</time>
      </trkpt>
      <trkpt lat="49.90752" lon="2.52528">
        <ele>29.8</ele>
        <time>2020-09-30T12:14:56Z</time>
      </trkpt>
      <trkpt lat="49.90752" lon="2.52529">
        <ele>29.8</ele>
        <time>2020-09-30T12:14:57Z</time>
      </trkpt>
      <trkpt lat="49.90751" lon="2.52532">
        <ele>29.9</ele>
        <time>2020-09-30T12:14:58Z</time>
      </trkpt>
      <trkpt lat="49.9075" lon="2.52533">
        <ele>29.9</ele>
        <time>2020-09-30T12:15:00Z</time>
      </trkpt>
      <trkpt lat="49.9075" lon="2.52535">
        <ele>29.9</ele>
        <time>2020-09-30T12:15:01Z</time>
      </trkpt>
      <trkpt lat="49.90749" lon="2.52538">
        <ele>29.9</ele>
        <time>2020-09-30T12:15:02Z</time>
      </trkpt>
      <trkpt lat="49.90749" lon="2.52539">
        <ele>29.9</ele>
        <time>2020-09-30T12:15:03Z</time>
      </trkpt>
      <trkpt lat="49.90748" lon="2.5254">
        <ele>30</ele>
        <time>2020-09-30T12:15:04Z</time>
      </trkpt>
      <trkpt lat="49.90747" lon="2.52544">
        <ele>30</ele>
        <time>2020-09-30T12:15:05Z</time>
      </trkpt>
      <trkpt lat="49.90747" lon="2.52546">
        <ele>30</ele>
        <time>2020-09-30T12:15:07Z</time>
      </trkpt>
      <trkpt lat="49.90746" lon="2.52548">
        <ele>30</ele>
        <time>2020-09-30T12:15:08Z</time>
      </trkpt>
      <trkpt lat="49.90745" lon="2.5255">
        <ele>30.1</ele>
        <time>2020-09-30T12:15:09Z</time>
      </trkpt>
      <trkpt lat="49.90745" lon="2.52552">
        <ele>30.1</ele>
        <time>2020-09-30T12:15:11Z</time>
      </trkpt>
      <trkpt lat="49.90745" lon="2.52554">
        <ele>30.1</ele>
        <time>2020-09-30T12:15:12Z</time>
      </trkpt>
      <trkpt lat="49.90745" lon="2.52555">
        <ele>30.1</ele>
        <time>2020-09-30T12:15:13Z</time>
      </trkpt>
      <trkpt lat="49.90744" lon="2.52557">
        <ele>30.2</ele>
        <time>2020-09-30T12:15:14Z</time>
      </trkpt>
      <trkpt lat="49.90744" lon="2.52559">
        <ele>30.2</ele>
        <time>2020-09-30T12:15:15Z</time>
      </trkpt>
      <trkpt lat="49.90743" lon="2.5256">
        <ele>30.2</ele>
        <time>2020-09-30T12:15:16Z</time>
      </trkpt>
      <trkpt lat="49.90743" lon="2.52562">
        <ele>30.2</ele>
        <time>2020-09-30T12:15:17Z</time>
      </trkpt>
      <trkpt lat="49.90742" lon="2.52564">
        <ele>30.2</ele>
        <time>2020-09-30T12:15:19Z</time>
      </trkpt>
      <trkpt lat="49.90742" lon="2.52565">
        <ele>30.3</ele>
        <time>2020-09-30T12:15:20Z</time>
      </trkpt>
      <trkpt lat="49.90742" lon="2.52567">
        <ele>30.3</ele>
        <time>2020-09-30T12:15:21Z</time>
      </trkpt>
      <trkpt lat="49.90741" lon="2.52568">
        <ele>30.3</ele>
        <time>2020-09-30T12:15:22Z</time>
      </trkpt>
      <trkpt lat="49.90741" lon="2.52569">
        <ele>30.3</ele>
        <time>2020-09-30T12:15:23Z</time>
      </trkpt>
      <trkpt lat="49.90741" lon="2.52571">
        <ele>30.3</ele>
        <time>2020-09-30T12:15:24Z</time>
      </trkpt>
      <trkpt lat="49.9074" lon="2.52573">
        <ele>30.3</ele>
        <time>2020-09-30T12:15:25Z</time>
      </trkpt>
      <trkpt lat="49.90739" lon="2.52574">
        <ele>30.3</ele>
        <time>2020-09-30T12:15:27Z</time>
      </trkpt>
      <trkpt lat="49.90739" lon="2.52576">
        <ele>30.4</ele>
        <time>2020-09-30T12:15:28Z</time>
      </trkpt>
      <trkpt lat="49.90738" lon="2.52578">
        <ele>30.4</ele>
        <time>2020-09-30T12:15:29Z</time>
      </trkpt>
      <trkpt lat="49.90738" lon="2.52579">
        <ele>30.4</ele>
        <time>2020-09-30T12:15:30Z</time>
      </trkpt>
      <trkpt lat="49.90737" lon="2.52582">
        <ele>30.4</ele>
        <time>2020-09-30T12:15:31Z</time>
      </trkpt>
      <trkpt lat="49.90736" lon="2.52583">
        <ele>30.4</ele>
        <time>2020-09-30T12:15:33Z</time>
      </trkpt>
      <trkpt lat="49.90736" lon="2.52585">
        <ele>30.5</ele>
        <time>2020-09-30T12:15:34Z</time>
      </trkpt>
      <trkpt lat="49.90734" lon="2.52587">
        <ele>30.5</ele>
        <time>2020-09-30T12:15:35Z</time>
      </trkpt>
      <trkpt lat="49.90734" lon="2.52588">
        <ele>30.5</ele>
        <time>2020-09-30T12:15:37Z</time>
      </trkpt>
      <trkpt lat="49.90733" lon="2.52589">
        <ele>30.5</ele>
        <time>2020-09-30T12:15:38Z</time>
      </trkpt>
      <trkpt lat="49.90732" lon="2.5259">
        <ele>30.5</ele>
        <time>2020-09-30T12:15:39Z</time>
      </trkpt>
      <trkpt lat="49.90732" lon="2.52591">
        <ele>30.6</ele>
        <time>2020-09-30T12:15:40Z</time>
      </trkpt>
      <trkpt lat="49.90731" lon="2.52592">
        <ele>30.6</ele>
        <time>2020-09-30T12:15:42Z</time>
      </trkpt>
      <trkpt lat="49.9073" lon="2.52593">
        <ele>30.6</ele>
        <time>2020-09-30T12:15:43Z</time>
      </trkpt>
      <trkpt lat="49.90729" lon="2.52595">
        <ele>30.6</ele>
        <time>2020-09-30T12:15:45Z</time>
      </trkpt>
      <trkpt lat="49.90729" lon="2.52595">
        <ele>30.6</ele>
        <time>2020-09-30T12:15:47Z</time>
      </trkpt>
      <trkpt lat="49.90728" lon="2.52597">
        <ele>30.6</ele>
        <time>2020-09-30T12:15:48Z</time>
      </trkpt>
      <trkpt lat="49.90727" lon="2.52598">
        <ele>30.6</ele>
        <time>2020-09-30T12:15:49Z</time>
      </trkpt>
      <trkpt lat="49.90726" lon="2.52599">
        <ele>30.6</ele>
        <time>2020-09-30T12:15:51Z</time>
      </trkpt>
      <trkpt lat="49.90725" lon="2.526">
        <ele>30.6</ele>
        <time>2020-09-30T12:15:52Z</time>
      </trkpt>
      <trkpt lat="49.90724" lon="2.526">
        <ele>30.7</ele>
        <time>2020-09-30T12:15:53Z</time>
      </trkpt>
      <trkpt lat="49.90723" lon="2.52602">
        <ele>30.7</ele>
        <time>2020-09-30T12:15:54Z</time>
      </trkpt>
      <trkpt lat="49.90722" lon="2.52603">
        <ele>30.7</ele>
        <time>2020-09-30T12:15:55Z</time>
      </trkpt>
      <trkpt lat="49.90721" lon="2.52604">
        <ele>30.7</ele>
        <time>2020-09-30T12:15:56Z</time>
      </trkpt>
      <trkpt lat="49.90721" lon="2.52606">
        <ele>30.6</ele>
        <time>2020-09-30T12:15:58Z</time>
      </trkpt>
      <trkpt lat="49.9072" lon="2.52608">
        <ele>30.6</ele>
        <time>2020-09-30T12:15:59Z</time>
      </trkpt>
      <trkpt lat="49.9072" lon="2.5261">
        <ele>30.6</ele>
        <time>2020-09-30T12:16:00Z</time>
      </trkpt>
      <trkpt lat="49.90719" lon="2.52611">
        <ele>30.6</ele>
        <time>2020-09-30T12:16:01Z</time>
      </trkpt>
      <trkpt lat="49.90719" lon="2.52613">
        <ele>30.6</ele>
        <time>2020-09-30T12:16:03Z</time>
      </trkpt>
      <trkpt lat="49.90718" lon="2.52614">
        <ele>30.6</ele>
        <time>2020-09-30T12:16:04Z</time>
      </trkpt>
      <trkpt lat="49.90717" lon="2.52615">
        <ele>30.6</ele>
        <time>2020-09-30T12:16:05Z</time>
      </trkpt>
      <trkpt lat="49.90717" lon="2.52616">
        <ele>30.6</ele>
        <time>2020-09-30T12:16:06Z</time>
      </trkpt>
      <trkpt lat="49.90716" lon="2.52618">
        <ele>30.6</ele>
        <time>2020-09-30T12:16:08Z</time>
      </trkpt>
      <trkpt lat="49.90714" lon="2.52619">
        <ele>30.6</ele>
        <time>2020-09-30T12:16:09Z</time>
      </trkpt>
      <trkpt lat="49.90714" lon="2.52621">
        <ele>30.6</ele>
        <time>2020-09-30T12:16:10Z</time>
      </trkpt>
      <trkpt lat="49.90711" lon="2.52624">
        <ele>30.5</ele>
        <time>2020-09-30T12:16:11Z</time>
      </trkpt>
      <trkpt lat="49.90709" lon="2.52625">
        <ele>30.5</ele>
        <time>2020-09-30T12:16:13Z</time>
      </trkpt>
      <trkpt lat="49.90707" lon="2.52626">
        <ele>30.5</ele>
        <time>2020-09-30T12:16:14Z</time>
      </trkpt>
      <trkpt lat="49.90706" lon="2.52627">
        <ele>30.5</ele>
        <time>2020-09-30T12:16:15Z</time>
      </trkpt>
      <trkpt lat="49.90705" lon="2.52629">
        <ele>30.5</ele>
        <time>2020-09-30T12:16:16Z</time>
      </trkpt>
      <trkpt lat="49.90704" lon="2.5263">
        <ele>30.5</ele>
        <time>2020-09-30T12:16:18Z</time>
      </trkpt>
      <trkpt lat="49.907" lon="2.52632">
        <ele>30.5</ele>
        <time>2020-09-30T12:16:19Z</time>
      </trkpt>
      <trkpt lat="49.90699" lon="2.52633">
        <ele>30.5</ele>
        <time>2020-09-30T12:16:20Z</time>
      </trkpt>
      <trkpt lat="49.90698" lon="2.52634">
        <ele>30.5</ele>
        <time>2020-09-30T12:16:21Z</time>
      </trkpt>
      <trkpt lat="49.90697" lon="2.52636">
        <ele>30.5</ele>
        <time>2020-09-30T12:16:23Z</time>
      </trkpt>
      <trkpt lat="49.90696" lon="2.52638">
        <ele>30.5</ele>
        <time>2020-09-30T12:16:24Z</time>
      </trkpt>
      <trkpt lat="49.90695" lon="2.52639">
        <ele>30.5</ele>
        <time>2020-09-30T12:16:25Z</time>
      </trkpt>
      <trkpt lat="49.90694" lon="2.52641">
        <ele>30.5</ele>
        <time>2020-09-30T12:16:26Z</time>
      </trkpt>
      <trkpt lat="49.90693" lon="2.52643">
        <ele>30.5</ele>
        <time>2020-09-30T12:16:27Z</time>
      </trkpt>
      <trkpt lat="49.90692" lon="2.52645">
        <ele>30.6</ele>
        <time>2020-09-30T12:16:28Z</time>
      </trkpt>
      <trkpt lat="49.90691" lon="2.52647">
        <ele>30.6</ele>
        <time>2020-09-30T12:16:29Z</time>
      </trkpt>
      <trkpt lat="49.90689" lon="2.52648">
        <ele>30.6</ele>
        <time>2020-09-30T12:16:31Z</time>
      </trkpt>
      <trkpt lat="49.90688" lon="2.5265">
        <ele>30.6</ele>
        <time>2020-09-30T12:16:32Z</time>
      </trkpt>
      <trkpt lat="49.90687" lon="2.52652">
        <ele>30.6</ele>
        <time>2020-09-30T12:16:33Z</time>
      </trkpt>
      <trkpt lat="49.90686" lon="2.52653">
        <ele>30.6</ele>
        <time>2020-09-30T12:16:34Z</time>
      </trkpt>
      <trkpt lat="49.90685" lon="2.52655">
        <ele>30.7</ele>
        <time>2020-09-30T12:16:35Z</time>
      </trkpt>
      <trkpt lat="49.90684" lon="2.52657">
        <ele>30.7</ele>
        <time>2020-09-30T12:16:36Z</time>
      </trkpt>
      <trkpt lat="49.90683" lon="2.52659">
        <ele>30.9</ele>
        <time>2020-09-30T12:16:37Z</time>
      </trkpt>
      <trkpt lat="49.90682" lon="2.52662">
        <ele>31</ele>
        <time>2020-09-30T12:16:38Z</time>
      </trkpt>
      <trkpt lat="49.90682" lon="2.52664">
        <ele>31.1</ele>
        <time>2020-09-30T12:16:40Z</time>
      </trkpt>
      <trkpt lat="49.90681" lon="2.52666">
        <ele>31.1</ele>
        <time>2020-09-30T12:16:41Z</time>
      </trkpt>
      <trkpt lat="49.90681" lon="2.52668">
        <ele>31.2</ele>
        <time>2020-09-30T12:16:42Z</time>
      </trkpt>
      <trkpt lat="49.90681" lon="2.5267">
        <ele>31.3</ele>
        <time>2020-09-30T12:16:43Z</time>
      </trkpt>
      <trkpt lat="49.9068" lon="2.52673">
        <ele>31.4</ele>
        <time>2020-09-30T12:16:44Z</time>
      </trkpt>
      <trkpt lat="49.90679" lon="2.52675">
        <ele>31.5</ele>
        <time>2020-09-30T12:16:45Z</time>
      </trkpt>
      <trkpt lat="49.90679" lon="2.52676">
        <ele>31.5</ele>
        <time>2020-09-30T12:16:47Z</time>
      </trkpt>
      <trkpt lat="49.90678" lon="2.52677">
        <ele>31.6</ele>
        <time>2020-09-30T12:16:48Z</time>
      </trkpt>
      <trkpt lat="49.90677" lon="2.52679">
        <ele>31.6</ele>
        <time>2020-09-30T12:16:49Z</time>
      </trkpt>
      <trkpt lat="49.90677" lon="2.5268">
        <ele>31.7</ele>
        <time>2020-09-30T12:16:50Z</time>
      </trkpt>
      <trkpt lat="49.90676" lon="2.52682">
        <ele>31.7</ele>
        <time>2020-09-30T12:16:51Z</time>
      </trkpt>
      <trkpt lat="49.90675" lon="2.52683">
        <ele>31.8</ele>
        <time>2020-09-30T12:16:52Z</time>
      </trkpt>
      <trkpt lat="49.90674" lon="2.52684">
        <ele>31.8</ele>
        <time>2020-09-30T12:16:54Z</time>
      </trkpt>
      <trkpt lat="49.90673" lon="2.52685">
        <ele>31.9</ele>
        <time>2020-09-30T12:16:55Z</time>
      </trkpt>
      <trkpt lat="49.90673" lon="2.52686">
        <ele>31.9</ele>
        <time>2020-09-30T12:16:56Z</time>
      </trkpt>
      <trkpt lat="49.90672" lon="2.52687">
        <ele>31.9</ele>
        <time>2020-09-30T12:16:57Z</time>
      </trkpt>
      <trkpt lat="49.90671" lon="2.52687">
        <ele>32</ele>
        <time>2020-09-30T12:16:58Z</time>
      </trkpt>
      <trkpt lat="49.90669" lon="2.52686">
        <ele>32</ele>
        <time>2020-09-30T12:16:59Z</time>
      </trkpt>
      <trkpt lat="49.90668" lon="2.52686">
        <ele>32.1</ele>
        <time>2020-09-30T12:17:01Z</time>
      </trkpt>
      <trkpt lat="49.90667" lon="2.52683">
        <ele>32.2</ele>
        <time>2020-09-30T12:17:02Z</time>
      </trkpt>
      <trkpt lat="49.90667" lon="2.52683">
        <ele>32.2</ele>
        <time>2020-09-30T12:17:03Z</time>
      </trkpt>
      <trkpt lat="49.90666" lon="2.52683">
        <ele>32.2</ele>
        <time>2020-09-30T12:17:04Z</time>
      </trkpt>
      <trkpt lat="49.90665" lon="2.52684">
        <ele>32.3</ele>
        <time>2020-09-30T12:17:05Z</time>
      </trkpt>
      <trkpt lat="49.90664" lon="2.52685">
        <ele>32.3</ele>
        <time>2020-09-30T12:17:06Z</time>
      </trkpt>
      <trkpt lat="49.90663" lon="2.52686">
        <ele>32.3</ele>
        <time>2020-09-30T12:17:07Z</time>
      </trkpt>
      <trkpt lat="49.90663" lon="2.52689">
        <ele>32.4</ele>
        <time>2020-09-30T12:17:09Z</time>
      </trkpt>
      <trkpt lat="49.90662" lon="2.52691">
        <ele>32.5</ele>
        <time>2020-09-30T12:17:10Z</time>
      </trkpt>
      <trkpt lat="49.90661" lon="2.52692">
        <ele>32.5</ele>
        <time>2020-09-30T12:17:11Z</time>
      </trkpt>
      <trkpt lat="49.9066" lon="2.52694">
        <ele>32.5</ele>
        <time>2020-09-30T12:17:12Z</time>
      </trkpt>
      <trkpt lat="49.9066" lon="2.52695">
        <ele>32.5</ele>
        <time>2020-09-30T12:17:14Z</time>
      </trkpt>
      <trkpt lat="49.90659" lon="2.52696">
        <ele>32.5</ele>
        <time>2020-09-30T12:17:15Z</time>
      </trkpt>
      <trkpt lat="49.90657" lon="2.52698">
        <ele>32.5</ele>
        <time>2020-09-30T12:17:16Z</time>
      </trkpt>
      <trkpt lat="49.90656" lon="2.52699">
        <ele>32.5</ele>
        <time>2020-09-30T12:17:17Z</time>
      </trkpt>
      <trkpt lat="49.90655" lon="2.52701">
        <ele>32.5</ele>
        <time>2020-09-30T12:17:18Z</time>
      </trkpt>
      <trkpt lat="49.90654" lon="2.52701">
        <ele>32.5</ele>
        <time>2020-09-30T12:17:19Z</time>
      </trkpt>
      <trkpt lat="49.90652" lon="2.52703">
        <ele>32.5</ele>
        <time>2020-09-30T12:17:20Z</time>
      </trkpt>
      <trkpt lat="49.90651" lon="2.52704">
        <ele>32.5</ele>
        <time>2020-09-30T12:17:21Z</time>
      </trkpt>
      <trkpt lat="49.9065" lon="2.52705">
        <ele>32.6</ele>
        <time>2020-09-30T12:17:22Z</time>
      </trkpt>
      <trkpt lat="49.90648" lon="2.52706">
        <ele>32.6</ele>
        <time>2020-09-30T12:17:23Z</time>
      </trkpt>
      <trkpt lat="49.90647" lon="2.52709">
        <ele>32.6</ele>
        <time>2020-09-30T12:17:25Z</time>
      </trkpt>
      <trkpt lat="49.90646" lon="2.52709">
        <ele>32.6</ele>
        <time>2020-09-30T12:17:26Z</time>
      </trkpt>
      <trkpt lat="49.90645" lon="2.5271">
        <ele>32.6</ele>
        <time>2020-09-30T12:17:27Z</time>
      </trkpt>
      <trkpt lat="49.90644" lon="2.52712">
        <ele>32.6</ele>
        <time>2020-09-30T12:17:28Z</time>
      </trkpt>
      <trkpt lat="49.90643" lon="2.52712">
        <ele>32.6</ele>
        <time>2020-09-30T12:17:29Z</time>
      </trkpt>
      <trkpt lat="49.90642" lon="2.52713">
        <ele>32.6</ele>
        <time>2020-09-30T12:17:30Z</time>
      </trkpt>
      <trkpt lat="49.90641" lon="2.52715">
        <ele>32.7</ele>
        <time>2020-09-30T12:17:31Z</time>
      </trkpt>
      <trkpt lat="49.9064" lon="2.52716">
        <ele>32.7</ele>
        <time>2020-09-30T12:17:32Z</time>
      </trkpt>
      <trkpt lat="49.90638" lon="2.52717">
        <ele>32.7</ele>
        <time>2020-09-30T12:17:33Z</time>
      </trkpt>
      <trkpt lat="49.90637" lon="2.52717">
        <ele>32.7</ele>
        <time>2020-09-30T12:17:34Z</time>
      </trkpt>
      <trkpt lat="49.90636" lon="2.52718">
        <ele>32.7</ele>
        <time>2020-09-30T12:17:36Z</time>
      </trkpt>
      <trkpt lat="49.90635" lon="2.52719">
        <ele>32.7</ele>
        <time>2020-09-30T12:17:37Z</time>
      </trkpt>
      <trkpt lat="49.90634" lon="2.52721">
        <ele>32.7</ele>
        <time>2020-09-30T12:17:38Z</time>
      </trkpt>
      <trkpt lat="49.90632" lon="2.52722">
        <ele>32.8</ele>
        <time>2020-09-30T12:17:39Z</time>
      </trkpt>
      <trkpt lat="49.90631" lon="2.52723">
        <ele>32.8</ele>
        <time>2020-09-30T12:17:40Z</time>
      </trkpt>
      <trkpt lat="49.90629" lon="2.52724">
        <ele>32.8</ele>
        <time>2020-09-30T12:17:41Z</time>
      </trkpt>
      <trkpt lat="49.90628" lon="2.52724">
        <ele>32.8</ele>
        <time>2020-09-30T12:17:42Z</time>
      </trkpt>
      <trkpt lat="49.90627" lon="2.52726">
        <ele>32.8</ele>
        <time>2020-09-30T12:17:43Z</time>
      </trkpt>
      <trkpt lat="49.90625" lon="2.52726">
        <ele>32.8</ele>
        <time>2020-09-30T12:17:44Z</time>
      </trkpt>
      <trkpt lat="49.90624" lon="2.52728">
        <ele>32.8</ele>
        <time>2020-09-30T12:17:45Z</time>
      </trkpt>
      <trkpt lat="49.90623" lon="2.52729">
        <ele>32.8</ele>
        <time>2020-09-30T12:17:47Z</time>
      </trkpt>
      <trkpt lat="49.90622" lon="2.52729">
        <ele>32.9</ele>
        <time>2020-09-30T12:17:48Z</time>
      </trkpt>
      <trkpt lat="49.90621" lon="2.5273">
        <ele>32.9</ele>
        <time>2020-09-30T12:17:49Z</time>
      </trkpt>
      <trkpt lat="49.90619" lon="2.52731">
        <ele>33</ele>
        <time>2020-09-30T12:17:50Z</time>
      </trkpt>
      <trkpt lat="49.90618" lon="2.52732">
        <ele>33</ele>
        <time>2020-09-30T12:17:51Z</time>
      </trkpt>
      <trkpt lat="49.90617" lon="2.52733">
        <ele>33</ele>
        <time>2020-09-30T12:17:52Z</time>
      </trkpt>
      <trkpt lat="49.90616" lon="2.52733">
        <ele>33.1</ele>
        <time>2020-09-30T12:17:53Z</time>
      </trkpt>
      <trkpt lat="49.90614" lon="2.52734">
        <ele>33.1</ele>
        <time>2020-09-30T12:17:54Z</time>
      </trkpt>
      <trkpt lat="49.90613" lon="2.52735">
        <ele>33.2</ele>
        <time>2020-09-30T12:17:55Z</time>
      </trkpt>
      <trkpt lat="49.90612" lon="2.52736">
        <ele>33.2</ele>
        <time>2020-09-30T12:17:56Z</time>
      </trkpt>
      <trkpt lat="49.90611" lon="2.52737">
        <ele>33.3</ele>
        <time>2020-09-30T12:17:57Z</time>
      </trkpt>
      <trkpt lat="49.90609" lon="2.52738">
        <ele>33.3</ele>
        <time>2020-09-30T12:17:59Z</time>
      </trkpt>
      <trkpt lat="49.90608" lon="2.52739">
        <ele>33.3</ele>
        <time>2020-09-30T12:18:00Z</time>
      </trkpt>
      <trkpt lat="49.90607" lon="2.52739">
        <ele>33.4</ele>
        <time>2020-09-30T12:18:01Z</time>
      </trkpt>
      <trkpt lat="49.90605" lon="2.5274">
        <ele>33.4</ele>
        <time>2020-09-30T12:18:02Z</time>
      </trkpt>
      <trkpt lat="49.90603" lon="2.52741">
        <ele>33.4</ele>
        <time>2020-09-30T12:18:03Z</time>
      </trkpt>
      <trkpt lat="49.90602" lon="2.52741">
        <ele>33.5</ele>
        <time>2020-09-30T12:18:05Z</time>
      </trkpt>
      <trkpt lat="49.90601" lon="2.52742">
        <ele>33.5</ele>
        <time>2020-09-30T12:18:06Z</time>
      </trkpt>
      <trkpt lat="49.906" lon="2.52743">
        <ele>33.5</ele>
        <time>2020-09-30T12:18:07Z</time>
      </trkpt>
      <trkpt lat="49.90599" lon="2.52743">
        <ele>33.5</ele>
        <time>2020-09-30T12:18:08Z</time>
      </trkpt>
      <trkpt lat="49.90597" lon="2.52743">
        <ele>33.5</ele>
        <time>2020-09-30T12:18:09Z</time>
      </trkpt>
      <trkpt lat="49.90595" lon="2.52744">
        <ele>33.6</ele>
        <time>2020-09-30T12:18:10Z</time>
      </trkpt>
      <trkpt lat="49.90594" lon="2.52745">
        <ele>33.6</ele>
        <time>2020-09-30T12:18:11Z</time>
      </trkpt>
      <trkpt lat="49.90593" lon="2.52746">
        <ele>33.6</ele>
        <time>2020-09-30T12:18:12Z</time>
      </trkpt>
      <trkpt lat="49.90593" lon="2.52747">
        <ele>33.6</ele>
        <time>2020-09-30T12:18:13Z</time>
      </trkpt>
      <trkpt lat="49.90591" lon="2.52748">
        <ele>33.6</ele>
        <time>2020-09-30T12:18:14Z</time>
      </trkpt>
      <trkpt lat="49.9059" lon="2.52749">
        <ele>33.7</ele>
        <time>2020-09-30T12:18:15Z</time>
      </trkpt>
      <trkpt lat="49.90588" lon="2.52749">
        <ele>33.7</ele>
        <time>2020-09-30T12:18:16Z</time>
      </trkpt>
      <trkpt lat="49.90588" lon="2.5275">
        <ele>33.7</ele>
        <time>2020-09-30T12:18:18Z</time>
      </trkpt>
      <trkpt lat="49.90586" lon="2.5275">
        <ele>33.7</ele>
        <time>2020-09-30T12:18:19Z</time>
      </trkpt>
      <trkpt lat="49.90585" lon="2.52751">
        <ele>33.7</ele>
        <time>2020-09-30T12:18:20Z</time>
      </trkpt>
      <trkpt lat="49.90584" lon="2.52751">
        <ele>33.8</ele>
        <time>2020-09-30T12:18:21Z</time>
      </trkpt>
      <trkpt lat="49.90583" lon="2.52752">
        <ele>33.8</ele>
        <time>2020-09-30T12:18:22Z</time>
      </trkpt>
      <trkpt lat="49.90582" lon="2.52752">
        <ele>33.8</ele>
        <time>2020-09-30T12:18:23Z</time>
      </trkpt>
      <trkpt lat="49.90581" lon="2.52751">
        <ele>33.8</ele>
        <time>2020-09-30T12:18:24Z</time>
      </trkpt>
      <trkpt lat="49.9058" lon="2.52752">
        <ele>33.8</ele>
        <time>2020-09-30T12:18:25Z</time>
      </trkpt>
      <trkpt lat="49.90579" lon="2.52753">
        <ele>33.8</ele>
        <time>2020-09-30T12:18:26Z</time>
      </trkpt>
      <trkpt lat="49.90577" lon="2.52754">
        <ele>33.9</ele>
        <time>2020-09-30T12:18:28Z</time>
      </trkpt>
      <trkpt lat="49.90576" lon="2.52755">
        <ele>33.9</ele>
        <time>2020-09-30T12:18:29Z</time>
      </trkpt>
      <trkpt lat="49.90574" lon="2.52757">
        <ele>33.9</ele>
        <time>2020-09-30T12:18:30Z</time>
      </trkpt>
      <trkpt lat="49.90573" lon="2.52757">
        <ele>33.9</ele>
        <time>2020-09-30T12:18:31Z</time>
      </trkpt>
      <trkpt lat="49.90572" lon="2.52758">
        <ele>33.9</ele>
        <time>2020-09-30T12:18:32Z</time>
      </trkpt>
      <trkpt lat="49.9057" lon="2.52759">
        <ele>34</ele>
        <time>2020-09-30T12:18:33Z</time>
      </trkpt>
      <trkpt lat="49.90569" lon="2.5276">
        <ele>34</ele>
        <time>2020-09-30T12:18:34Z</time>
      </trkpt>
      <trkpt lat="49.90568" lon="2.52761">
        <ele>34</ele>
        <time>2020-09-30T12:18:35Z</time>
      </trkpt>
      <trkpt lat="49.90567" lon="2.52761">
        <ele>34</ele>
        <time>2020-09-30T12:18:36Z</time>
      </trkpt>
      <trkpt lat="49.90565" lon="2.52762">
        <ele>34</ele>
        <time>2020-09-30T12:18:37Z</time>
      </trkpt>
      <trkpt lat="49.90564" lon="2.52763">
        <ele>34</ele>
        <time>2020-09-30T12:18:38Z</time>
      </trkpt>
      <trkpt lat="49.90562" lon="2.52763">
        <ele>34</ele>
        <time>2020-09-30T12:18:39Z</time>
      </trkpt>
      <trkpt lat="49.9056" lon="2.52764">
        <ele>34.1</ele>
        <time>2020-09-30T12:18:40Z</time>
      </trkpt>
      <trkpt lat="49.90559" lon="2.52765">
        <ele>34.1</ele>
        <time>2020-09-30T12:18:42Z</time>
      </trkpt>
      <trkpt lat="49.90558" lon="2.52766">
        <ele>34.1</ele>
        <time>2020-09-30T12:18:43Z</time>
      </trkpt>
      <trkpt lat="49.90557" lon="2.52766">
        <ele>34.1</ele>
        <time>2020-09-30T12:18:44Z</time>
      </trkpt>
      <trkpt lat="49.90556" lon="2.52767">
        <ele>34.1</ele>
        <time>2020-09-30T12:18:45Z</time>
      </trkpt>
      <trkpt lat="49.90555" lon="2.52767">
        <ele>34.1</ele>
        <time>2020-09-30T12:18:46Z</time>
      </trkpt>
      <trkpt lat="49.90554" lon="2.52768">
        <ele>34.1</ele>
        <time>2020-09-30T12:18:48Z</time>
      </trkpt>
      <trkpt lat="49.90553" lon="2.52768">
        <ele>34.2</ele>
        <time>2020-09-30T12:18:49Z</time>
      </trkpt>
      <trkpt lat="49.90553" lon="2.52769">
        <ele>34.2</ele>
        <time>2020-09-30T12:18:50Z</time>
      </trkpt>
      <trkpt lat="49.90551" lon="2.5277">
        <ele>34.2</ele>
        <time>2020-09-30T12:18:51Z</time>
      </trkpt>
      <trkpt lat="49.9055" lon="2.52771">
        <ele>34.2</ele>
        <time>2020-09-30T12:18:52Z</time>
      </trkpt>
      <trkpt lat="49.90548" lon="2.52773">
        <ele>34.2</ele>
        <time>2020-09-30T12:18:54Z</time>
      </trkpt>
      <trkpt lat="49.90547" lon="2.52773">
        <ele>34.2</ele>
        <time>2020-09-30T12:18:55Z</time>
      </trkpt>
      <trkpt lat="49.90544" lon="2.52775">
        <ele>34.3</ele>
        <time>2020-09-30T12:18:56Z</time>
      </trkpt>
      <trkpt lat="49.90544" lon="2.52776">
        <ele>34.3</ele>
        <time>2020-09-30T12:18:57Z</time>
      </trkpt>
      <trkpt lat="49.90542" lon="2.52777">
        <ele>34.3</ele>
        <time>2020-09-30T12:18:58Z</time>
      </trkpt>
      <trkpt lat="49.90541" lon="2.52777">
        <ele>34.4</ele>
        <time>2020-09-30T12:19:00Z</time>
      </trkpt>
      <trkpt lat="49.90539" lon="2.52779">
        <ele>34.4</ele>
        <time>2020-09-30T12:19:01Z</time>
      </trkpt>
      <trkpt lat="49.90538" lon="2.52779">
        <ele>34.4</ele>
        <time>2020-09-30T12:19:02Z</time>
      </trkpt>
      <trkpt lat="49.90535" lon="2.5278">
        <ele>34.5</ele>
        <time>2020-09-30T12:19:03Z</time>
      </trkpt>
      <trkpt lat="49.90534" lon="2.5278">
        <ele>34.5</ele>
        <time>2020-09-30T12:19:04Z</time>
      </trkpt>
      <trkpt lat="49.90532" lon="2.52781">
        <ele>34.5</ele>
        <time>2020-09-30T12:19:05Z</time>
      </trkpt>
      <trkpt lat="49.90531" lon="2.52781">
        <ele>34.6</ele>
        <time>2020-09-30T12:19:06Z</time>
      </trkpt>
      <trkpt lat="49.90529" lon="2.52782">
        <ele>34.6</ele>
        <time>2020-09-30T12:19:07Z</time>
      </trkpt>
      <trkpt lat="49.90527" lon="2.52783">
        <ele>34.6</ele>
        <time>2020-09-30T12:19:09Z</time>
      </trkpt>
      <trkpt lat="49.90526" lon="2.52783">
        <ele>34.7</ele>
        <time>2020-09-30T12:19:10Z</time>
      </trkpt>
      <trkpt lat="49.90525" lon="2.52783">
        <ele>34.7</ele>
        <time>2020-09-30T12:19:11Z</time>
      </trkpt>
      <trkpt lat="49.90524" lon="2.52784">
        <ele>34.7</ele>
        <time>2020-09-30T12:19:12Z</time>
      </trkpt>
      <trkpt lat="49.90523" lon="2.52785">
        <ele>34.7</ele>
        <time>2020-09-30T12:19:13Z</time>
      </trkpt>
      <trkpt lat="49.90522" lon="2.52786">
        <ele>34.7</ele>
        <time>2020-09-30T12:19:15Z</time>
      </trkpt>
      <trkpt lat="49.90521" lon="2.52787">
        <ele>34.8</ele>
        <time>2020-09-30T12:19:16Z</time>
      </trkpt>
      <trkpt lat="49.90519" lon="2.52788">
        <ele>34.8</ele>
        <time>2020-09-30T12:19:17Z</time>
      </trkpt>
      <trkpt lat="49.90518" lon="2.52789">
        <ele>34.8</ele>
        <time>2020-09-30T12:19:18Z</time>
      </trkpt>
      <trkpt lat="49.90518" lon="2.52789">
        <ele>34.8</ele>
        <time>2020-09-30T12:19:19Z</time>
      </trkpt>
      <trkpt lat="49.90517" lon="2.5279">
        <ele>34.8</ele>
        <time>2020-09-30T12:19:20Z</time>
      </trkpt>
      <trkpt lat="49.90515" lon="2.52791">
        <ele>34.8</ele>
        <time>2020-09-30T12:19:21Z</time>
      </trkpt>
      <trkpt lat="49.90513" lon="2.52792">
        <ele>34.9</ele>
        <time>2020-09-30T12:19:22Z</time>
      </trkpt>
      <trkpt lat="49.90512" lon="2.52792">
        <ele>34.9</ele>
        <time>2020-09-30T12:19:24Z</time>
      </trkpt>
      <trkpt lat="49.90512" lon="2.52793">
        <ele>34.9</ele>
        <time>2020-09-30T12:19:25Z</time>
      </trkpt>
      <trkpt lat="49.9051" lon="2.52793">
        <ele>34.9</ele>
        <time>2020-09-30T12:19:26Z</time>
      </trkpt>
      <trkpt lat="49.90508" lon="2.52793">
        <ele>34.9</ele>
        <time>2020-09-30T12:19:27Z</time>
      </trkpt>
      <trkpt lat="49.90506" lon="2.52794">
        <ele>35</ele>
        <time>2020-09-30T12:19:28Z</time>
      </trkpt>
      <trkpt lat="49.90505" lon="2.52793">
        <ele>35</ele>
        <time>2020-09-30T12:19:30Z</time>
      </trkpt>
      <trkpt lat="49.90505" lon="2.52793">
        <ele>35</ele>
        <time>2020-09-30T12:19:31Z</time>
      </trkpt>
      <trkpt lat="49.90504" lon="2.52792">
        <ele>35</ele>
        <time>2020-09-30T12:19:32Z</time>
      </trkpt>
      <trkpt lat="49.90503" lon="2.52791">
        <ele>35</ele>
        <time>2020-09-30T12:19:33Z</time>
      </trkpt>
      <trkpt lat="49.90502" lon="2.5279">
        <ele>35</ele>
        <time>2020-09-30T12:19:34Z</time>
      </trkpt>
      <trkpt lat="49.90501" lon="2.52789">
        <ele>35</ele>
        <time>2020-09-30T12:19:36Z</time>
      </trkpt>
      <trkpt lat="49.90499" lon="2.52787">
        <ele>34.9</ele>
        <time>2020-09-30T12:19:37Z</time>
      </trkpt>
      <trkpt lat="49.90498" lon="2.52787">
        <ele>34.9</ele>
        <time>2020-09-30T12:19:38Z</time>
      </trkpt>
      <trkpt lat="49.90497" lon="2.52789">
        <ele>34.9</ele>
        <time>2020-09-30T12:19:40Z</time>
      </trkpt>
      <trkpt lat="49.90496" lon="2.5279">
        <ele>34.9</ele>
        <time>2020-09-30T12:19:41Z</time>
      </trkpt>
      <trkpt lat="49.90495" lon="2.52792">
        <ele>34.9</ele>
        <time>2020-09-30T12:19:42Z</time>
      </trkpt>
      <trkpt lat="49.90494" lon="2.52793">
        <ele>34.9</ele>
        <time>2020-09-30T12:19:43Z</time>
      </trkpt>
      <trkpt lat="49.90495" lon="2.52793">
        <ele>34.9</ele>
        <time>2020-09-30T12:19:45Z</time>
      </trkpt>
      <trkpt lat="49.90494" lon="2.52795">
        <ele>34.9</ele>
        <time>2020-09-30T12:19:46Z</time>
      </trkpt>
      <trkpt lat="49.90492" lon="2.52795">
        <ele>34.9</ele>
        <time>2020-09-30T12:19:47Z</time>
      </trkpt>
      <trkpt lat="49.90491" lon="2.52795">
        <ele>34.9</ele>
        <time>2020-09-30T12:19:49Z</time>
      </trkpt>
      <trkpt lat="49.90491" lon="2.52795">
        <ele>34.9</ele>
        <time>2020-09-30T12:19:50Z</time>
      </trkpt>
      <trkpt lat="49.90489" lon="2.52794">
        <ele>34.9</ele>
        <time>2020-09-30T12:19:52Z</time>
      </trkpt>
      <trkpt lat="49.90488" lon="2.52794">
        <ele>34.9</ele>
        <time>2020-09-30T12:19:53Z</time>
      </trkpt>
      <trkpt lat="49.90487" lon="2.52795">
        <ele>34.9</ele>
        <time>2020-09-30T12:19:55Z</time>
      </trkpt>
      <trkpt lat="49.90486" lon="2.52795">
        <ele>34.9</ele>
        <time>2020-09-30T12:19:56Z</time>
      </trkpt>
      <trkpt lat="49.90485" lon="2.52796">
        <ele>34.9</ele>
        <time>2020-09-30T12:19:57Z</time>
      </trkpt>
      <trkpt lat="49.90484" lon="2.52797">
        <ele>34.9</ele>
        <time>2020-09-30T12:19:58Z</time>
      </trkpt>
      <trkpt lat="49.90483" lon="2.52798">
        <ele>34.9</ele>
        <time>2020-09-30T12:19:59Z</time>
      </trkpt>
      <trkpt lat="49.90483" lon="2.528">
        <ele>34.9</ele>
        <time>2020-09-30T12:20:00Z</time>
      </trkpt>
      <trkpt lat="49.90482" lon="2.52801">
        <ele>34.9</ele>
        <time>2020-09-30T12:20:02Z</time>
      </trkpt>
      <trkpt lat="49.90481" lon="2.52802">
        <ele>34.9</ele>
        <time>2020-09-30T12:20:03Z</time>
      </trkpt>
      <trkpt lat="49.9048" lon="2.52803">
        <ele>34.9</ele>
        <time>2020-09-30T12:20:04Z</time>
      </trkpt>
      <trkpt lat="49.90478" lon="2.52804">
        <ele>34.9</ele>
        <time>2020-09-30T12:20:05Z</time>
      </trkpt>
      <trkpt lat="49.90477" lon="2.52804">
        <ele>34.9</ele>
        <time>2020-09-30T12:20:06Z</time>
      </trkpt>
      <trkpt lat="49.90475" lon="2.52805">
        <ele>34.9</ele>
        <time>2020-09-30T12:20:07Z</time>
      </trkpt>
      <trkpt lat="49.90474" lon="2.52806">
        <ele>34.9</ele>
        <time>2020-09-30T12:20:08Z</time>
      </trkpt>
      <trkpt lat="49.90473" lon="2.52805">
        <ele>34.9</ele>
        <time>2020-09-30T12:20:09Z</time>
      </trkpt>
      <trkpt lat="49.90472" lon="2.52806">
        <ele>34.9</ele>
        <time>2020-09-30T12:20:11Z</time>
      </trkpt>
      <trkpt lat="49.90471" lon="2.52807">
        <ele>35</ele>
        <time>2020-09-30T12:20:12Z</time>
      </trkpt>
      <trkpt lat="49.90469" lon="2.52808">
        <ele>35</ele>
        <time>2020-09-30T12:20:13Z</time>
      </trkpt>
      <trkpt lat="49.90468" lon="2.52809">
        <ele>35</ele>
        <time>2020-09-30T12:20:14Z</time>
      </trkpt>
      <trkpt lat="49.90465" lon="2.52809">
        <ele>35</ele>
        <time>2020-09-30T12:20:15Z</time>
      </trkpt>
      <trkpt lat="49.90464" lon="2.5281">
        <ele>35</ele>
        <time>2020-09-30T12:20:16Z</time>
      </trkpt>
      <trkpt lat="49.90463" lon="2.52811">
        <ele>35</ele>
        <time>2020-09-30T12:20:17Z</time>
      </trkpt>
      <trkpt lat="49.90462" lon="2.52812">
        <ele>35</ele>
        <time>2020-09-30T12:20:19Z</time>
      </trkpt>
      <trkpt lat="49.9046" lon="2.52813">
        <ele>35</ele>
        <time>2020-09-30T12:20:20Z</time>
      </trkpt>
      <trkpt lat="49.90458" lon="2.52813">
        <ele>35</ele>
        <time>2020-09-30T12:20:21Z</time>
      </trkpt>
      <trkpt lat="49.90457" lon="2.52814">
        <ele>35.1</ele>
        <time>2020-09-30T12:20:22Z</time>
      </trkpt>
      <trkpt lat="49.90456" lon="2.52815">
        <ele>35.1</ele>
        <time>2020-09-30T12:20:24Z</time>
      </trkpt>
      <trkpt lat="49.90454" lon="2.52815">
        <ele>35.1</ele>
        <time>2020-09-30T12:20:25Z</time>
      </trkpt>
      <trkpt lat="49.90453" lon="2.52816">
        <ele>35.1</ele>
        <time>2020-09-30T12:20:26Z</time>
      </trkpt>
      <trkpt lat="49.90452" lon="2.52816">
        <ele>35.1</ele>
        <time>2020-09-30T12:20:27Z</time>
      </trkpt>
      <trkpt lat="49.90451" lon="2.52818">
        <ele>35.2</ele>
        <time>2020-09-30T12:20:29Z</time>
      </trkpt>
      <trkpt lat="49.90449" lon="2.52819">
        <ele>35.2</ele>
        <time>2020-09-30T12:20:30Z</time>
      </trkpt>
      <trkpt lat="49.90448" lon="2.5282">
        <ele>35.2</ele>
        <time>2020-09-30T12:20:31Z</time>
      </trkpt>
      <trkpt lat="49.90446" lon="2.52821">
        <ele>35.2</ele>
        <time>2020-09-30T12:20:32Z</time>
      </trkpt>
      <trkpt lat="49.90446" lon="2.52822">
        <ele>35.3</ele>
        <time>2020-09-30T12:20:33Z</time>
      </trkpt>
      <trkpt lat="49.90445" lon="2.52823">
        <ele>35.3</ele>
        <time>2020-09-30T12:20:34Z</time>
      </trkpt>
      <trkpt lat="49.90443" lon="2.52824">
        <ele>35.3</ele>
        <time>2020-09-30T12:20:36Z</time>
      </trkpt>
      <trkpt lat="49.90442" lon="2.52825">
        <ele>35.3</ele>
        <time>2020-09-30T12:20:37Z</time>
      </trkpt>
      <trkpt lat="49.90442" lon="2.52826">
        <ele>35.3</ele>
        <time>2020-09-30T12:20:38Z</time>
      </trkpt>
      <trkpt lat="49.90441" lon="2.52827">
        <ele>35.4</ele>
        <time>2020-09-30T12:20:39Z</time>
      </trkpt>
      <trkpt lat="49.90441" lon="2.52827">
        <ele>35.4</ele>
        <time>2020-09-30T12:20:40Z</time>
      </trkpt>
      <trkpt lat="49.9044" lon="2.52828">
        <ele>35.4</ele>
        <time>2020-09-30T12:20:41Z</time>
      </trkpt>
      <trkpt lat="49.90439" lon="2.52829">
        <ele>35.4</ele>
        <time>2020-09-30T12:20:43Z</time>
      </trkpt>
      <trkpt lat="49.90438" lon="2.5283">
        <ele>35.4</ele>
        <time>2020-09-30T12:20:44Z</time>
      </trkpt>
      <trkpt lat="49.90437" lon="2.5283">
        <ele>35.5</ele>
        <time>2020-09-30T12:20:45Z</time>
      </trkpt>
      <trkpt lat="49.90436" lon="2.5283">
        <ele>35.5</ele>
        <time>2020-09-30T12:20:46Z</time>
      </trkpt>
      <trkpt lat="49.90435" lon="2.52831">
        <ele>35.5</ele>
        <time>2020-09-30T12:20:47Z</time>
      </trkpt>
      <trkpt lat="49.90434" lon="2.52832">
        <ele>35.5</ele>
        <time>2020-09-30T12:20:48Z</time>
      </trkpt>
      <trkpt lat="49.90433" lon="2.52833">
        <ele>35.5</ele>
        <time>2020-09-30T12:20:50Z</time>
      </trkpt>
      <trkpt lat="49.90433" lon="2.52834">
        <ele>35.5</ele>
        <time>2020-09-30T12:20:51Z</time>
      </trkpt>
      <trkpt lat="49.90432" lon="2.52835">
        <ele>35.6</ele>
        <time>2020-09-30T12:20:53Z</time>
      </trkpt>
      <trkpt lat="49.90431" lon="2.52836">
        <ele>35.6</ele>
        <time>2020-09-30T12:20:54Z</time>
      </trkpt>
      <trkpt lat="49.90431" lon="2.52836">
        <ele>35.6</ele>
        <time>2020-09-30T12:20:55Z</time>
      </trkpt>
      <trkpt lat="49.9043" lon="2.52838">
        <ele>35.6</ele>
        <time>2020-09-30T12:20:56Z</time>
      </trkpt>
      <trkpt lat="49.90429" lon="2.52839">
        <ele>35.6</ele>
        <time>2020-09-30T12:20:57Z</time>
      </trkpt>
      <trkpt lat="49.90428" lon="2.52841">
        <ele>35.6</ele>
        <time>2020-09-30T12:20:59Z</time>
      </trkpt>
      <trkpt lat="49.90427" lon="2.5284">
        <ele>35.6</ele>
        <time>2020-09-30T12:21:00Z</time>
      </trkpt>
      <trkpt lat="49.90426" lon="2.52842">
        <ele>35.7</ele>
        <time>2020-09-30T12:21:01Z</time>
      </trkpt>
      <trkpt lat="49.90425" lon="2.52843">
        <ele>35.7</ele>
        <time>2020-09-30T12:21:02Z</time>
      </trkpt>
      <trkpt lat="49.90421" lon="2.52842">
        <ele>35.7</ele>
        <time>2020-09-30T12:21:04Z</time>
      </trkpt>
      <trkpt lat="49.90418" lon="2.52844">
        <ele>35.7</ele>
        <time>2020-09-30T12:21:06Z</time>
      </trkpt>
      <trkpt lat="49.90417" lon="2.52844">
        <ele>35.7</ele>
        <time>2020-09-30T12:21:07Z</time>
      </trkpt>
      <trkpt lat="49.90413" lon="2.52847">
        <ele>35.8</ele>
        <time>2020-09-30T12:21:08Z</time>
      </trkpt>
      <trkpt lat="49.90411" lon="2.52849">
        <ele>35.8</ele>
        <time>2020-09-30T12:21:09Z</time>
      </trkpt>
      <trkpt lat="49.90408" lon="2.52851">
        <ele>35.8</ele>
        <time>2020-09-30T12:21:11Z</time>
      </trkpt>
      <trkpt lat="49.90406" lon="2.52852">
        <ele>35.8</ele>
        <time>2020-09-30T12:21:13Z</time>
      </trkpt>
      <trkpt lat="49.90405" lon="2.52853">
        <ele>35.8</ele>
        <time>2020-09-30T12:21:14Z</time>
      </trkpt>
      <trkpt lat="49.90404" lon="2.52854">
        <ele>35.9</ele>
        <time>2020-09-30T12:21:15Z</time>
      </trkpt>
      <trkpt lat="49.90402" lon="2.52855">
        <ele>35.9</ele>
        <time>2020-09-30T12:21:16Z</time>
      </trkpt>
      <trkpt lat="49.90401" lon="2.52856">
        <ele>35.9</ele>
        <time>2020-09-30T12:21:17Z</time>
      </trkpt>
      <trkpt lat="49.90398" lon="2.52859">
        <ele>35.9</ele>
        <time>2020-09-30T12:21:19Z</time>
      </trkpt>
      <trkpt lat="49.90397" lon="2.52859">
        <ele>35.9</ele>
        <time>2020-09-30T12:21:20Z</time>
      </trkpt>
      <trkpt lat="49.90396" lon="2.5286">
        <ele>35.9</ele>
        <time>2020-09-30T12:21:21Z</time>
      </trkpt>
      <trkpt lat="49.90395" lon="2.52861">
        <ele>35.9</ele>
        <time>2020-09-30T12:21:22Z</time>
      </trkpt>
      <trkpt lat="49.90393" lon="2.52863">
        <ele>36</ele>
        <time>2020-09-30T12:21:24Z</time>
      </trkpt>
      <trkpt lat="49.90391" lon="2.52864">
        <ele>36</ele>
        <time>2020-09-30T12:21:25Z</time>
      </trkpt>
      <trkpt lat="49.9039" lon="2.52865">
        <ele>36</ele>
        <time>2020-09-30T12:21:26Z</time>
      </trkpt>
      <trkpt lat="49.90388" lon="2.52867">
        <ele>36</ele>
        <time>2020-09-30T12:21:27Z</time>
      </trkpt>
      <trkpt lat="49.90386" lon="2.52868">
        <ele>36</ele>
        <time>2020-09-30T12:21:29Z</time>
      </trkpt>
      <trkpt lat="49.90385" lon="2.52869">
        <ele>36</ele>
        <time>2020-09-30T12:21:30Z</time>
      </trkpt>
      <trkpt lat="49.90384" lon="2.52869">
        <ele>36.1</ele>
        <time>2020-09-30T12:21:31Z</time>
      </trkpt>
      <trkpt lat="49.90383" lon="2.5287">
        <ele>36.1</ele>
        <time>2020-09-30T12:21:32Z</time>
      </trkpt>
      <trkpt lat="49.90382" lon="2.52872">
        <ele>36.1</ele>
        <time>2020-09-30T12:21:33Z</time>
      </trkpt>
      <trkpt lat="49.90381" lon="2.52873">
        <ele>36.1</ele>
        <time>2020-09-30T12:21:34Z</time>
      </trkpt>
      <trkpt lat="49.90379" lon="2.52874">
        <ele>36.1</ele>
        <time>2020-09-30T12:21:35Z</time>
      </trkpt>
      <trkpt lat="49.90378" lon="2.52874">
        <ele>36.1</ele>
        <time>2020-09-30T12:21:36Z</time>
      </trkpt>
      <trkpt lat="49.90377" lon="2.52875">
        <ele>36.1</ele>
        <time>2020-09-30T12:21:37Z</time>
      </trkpt>
      <trkpt lat="49.90375" lon="2.52876">
        <ele>36.2</ele>
        <time>2020-09-30T12:21:39Z</time>
      </trkpt>
      <trkpt lat="49.90374" lon="2.52877">
        <ele>36.2</ele>
        <time>2020-09-30T12:21:40Z</time>
      </trkpt>
      <trkpt lat="49.90372" lon="2.52877">
        <ele>36.2</ele>
        <time>2020-09-30T12:21:41Z</time>
      </trkpt>
      <trkpt lat="49.90371" lon="2.52877">
        <ele>36.2</ele>
        <time>2020-09-30T12:21:42Z</time>
      </trkpt>
      <trkpt lat="49.9037" lon="2.52877">
        <ele>36.3</ele>
        <time>2020-09-30T12:21:43Z</time>
      </trkpt>
      <trkpt lat="49.90368" lon="2.52879">
        <ele>36.3</ele>
        <time>2020-09-30T12:21:44Z</time>
      </trkpt>
      <trkpt lat="49.90367" lon="2.52879">
        <ele>36.3</ele>
        <time>2020-09-30T12:21:45Z</time>
      </trkpt>
      <trkpt lat="49.90366" lon="2.5288">
        <ele>36.3</ele>
        <time>2020-09-30T12:21:46Z</time>
      </trkpt>
      <trkpt lat="49.90365" lon="2.5288">
        <ele>36.3</ele>
        <time>2020-09-30T12:21:47Z</time>
      </trkpt>
      <trkpt lat="49.90364" lon="2.52881">
        <ele>36.4</ele>
        <time>2020-09-30T12:21:48Z</time>
      </trkpt>
      <trkpt lat="49.90363" lon="2.52882">
        <ele>36.4</ele>
        <time>2020-09-30T12:21:49Z</time>
      </trkpt>
      <trkpt lat="49.90361" lon="2.52883">
        <ele>36.4</ele>
        <time>2020-09-30T12:21:50Z</time>
      </trkpt>
      <trkpt lat="49.9036" lon="2.52883">
        <ele>36.4</ele>
        <time>2020-09-30T12:21:52Z</time>
      </trkpt>
      <trkpt lat="49.90359" lon="2.52884">
        <ele>36.5</ele>
        <time>2020-09-30T12:21:53Z</time>
      </trkpt>
      <trkpt lat="49.90358" lon="2.52885">
        <ele>36.5</ele>
        <time>2020-09-30T12:21:54Z</time>
      </trkpt>
      <trkpt lat="49.90356" lon="2.52886">
        <ele>36.6</ele>
        <time>2020-09-30T12:21:55Z</time>
      </trkpt>
      <trkpt lat="49.90355" lon="2.52887">
        <ele>36.6</ele>
        <time>2020-09-30T12:21:56Z</time>
      </trkpt>
      <trkpt lat="49.90354" lon="2.52887">
        <ele>36.6</ele>
        <time>2020-09-30T12:21:57Z</time>
      </trkpt>
      <trkpt lat="49.90353" lon="2.52888">
        <ele>36.6</ele>
        <time>2020-09-30T12:21:58Z</time>
      </trkpt>
      <trkpt lat="49.90352" lon="2.52889">
        <ele>36.7</ele>
        <time>2020-09-30T12:21:59Z</time>
      </trkpt>
      <trkpt lat="49.90351" lon="2.5289">
        <ele>36.7</ele>
        <time>2020-09-30T12:22:00Z</time>
      </trkpt>
      <trkpt lat="49.90349" lon="2.52891">
        <ele>36.7</ele>
        <time>2020-09-30T12:22:01Z</time>
      </trkpt>
      <trkpt lat="49.90348" lon="2.52893">
        <ele>36.7</ele>
        <time>2020-09-30T12:22:02Z</time>
      </trkpt>
      <trkpt lat="49.90346" lon="2.52892">
        <ele>36.8</ele>
        <time>2020-09-30T12:22:03Z</time>
      </trkpt>
      <trkpt lat="49.90346" lon="2.52892">
        <ele>36.8</ele>
        <time>2020-09-30T12:22:04Z</time>
      </trkpt>
      <trkpt lat="49.90345" lon="2.52893">
        <ele>36.8</ele>
        <time>2020-09-30T12:22:05Z</time>
      </trkpt>
      <trkpt lat="49.90344" lon="2.52894">
        <ele>36.8</ele>
        <time>2020-09-30T12:22:07Z</time>
      </trkpt>
      <trkpt lat="49.90343" lon="2.52895">
        <ele>36.8</ele>
        <time>2020-09-30T12:22:08Z</time>
      </trkpt>
      <trkpt lat="49.90341" lon="2.52896">
        <ele>36.9</ele>
        <time>2020-09-30T12:22:09Z</time>
      </trkpt>
      <trkpt lat="49.90339" lon="2.52898">
        <ele>36.9</ele>
        <time>2020-09-30T12:22:10Z</time>
      </trkpt>
      <trkpt lat="49.90338" lon="2.52898">
        <ele>36.9</ele>
        <time>2020-09-30T12:22:11Z</time>
      </trkpt>
      <trkpt lat="49.90337" lon="2.52899">
        <ele>36.9</ele>
        <time>2020-09-30T12:22:12Z</time>
      </trkpt>
      <trkpt lat="49.90336" lon="2.529">
        <ele>36.9</ele>
        <time>2020-09-30T12:22:13Z</time>
      </trkpt>
      <trkpt lat="49.90335" lon="2.529">
        <ele>37</ele>
        <time>2020-09-30T12:22:14Z</time>
      </trkpt>
      <trkpt lat="49.90334" lon="2.52901">
        <ele>37</ele>
        <time>2020-09-30T12:22:15Z</time>
      </trkpt>
      <trkpt lat="49.90333" lon="2.52902">
        <ele>37</ele>
        <time>2020-09-30T12:22:16Z</time>
      </trkpt>
      <trkpt lat="49.90331" lon="2.52903">
        <ele>37</ele>
        <time>2020-09-30T12:22:17Z</time>
      </trkpt>
      <trkpt lat="49.90328" lon="2.52904">
        <ele>37</ele>
        <time>2020-09-30T12:22:18Z</time>
      </trkpt>
      <trkpt lat="49.90327" lon="2.52904">
        <ele>37.1</ele>
        <time>2020-09-30T12:22:20Z</time>
      </trkpt>
      <trkpt lat="49.90326" lon="2.52904">
        <ele>37.1</ele>
        <time>2020-09-30T12:22:21Z</time>
      </trkpt>
      <trkpt lat="49.90325" lon="2.52904">
        <ele>37.1</ele>
        <time>2020-09-30T12:22:22Z</time>
      </trkpt>
      <trkpt lat="49.90324" lon="2.52905">
        <ele>37.1</ele>
        <time>2020-09-30T12:22:23Z</time>
      </trkpt>
      <trkpt lat="49.90323" lon="2.52905">
        <ele>37.1</ele>
        <time>2020-09-30T12:22:25Z</time>
      </trkpt>
      <trkpt lat="49.90321" lon="2.52906">
        <ele>37.1</ele>
        <time>2020-09-30T12:22:26Z</time>
      </trkpt>
      <trkpt lat="49.9032" lon="2.52906">
        <ele>37.2</ele>
        <time>2020-09-30T12:22:27Z</time>
      </trkpt>
      <trkpt lat="49.90318" lon="2.52907">
        <ele>37.2</ele>
        <time>2020-09-30T12:22:28Z</time>
      </trkpt>
      <trkpt lat="49.90318" lon="2.52908">
        <ele>37.2</ele>
        <time>2020-09-30T12:22:29Z</time>
      </trkpt>
      <trkpt lat="49.90316" lon="2.52909">
        <ele>37.2</ele>
        <time>2020-09-30T12:22:30Z</time>
      </trkpt>
      <trkpt lat="49.90315" lon="2.52909">
        <ele>37.2</ele>
        <time>2020-09-30T12:22:31Z</time>
      </trkpt>
      <trkpt lat="49.90314" lon="2.5291">
        <ele>37.2</ele>
        <time>2020-09-30T12:22:32Z</time>
      </trkpt>
      <trkpt lat="49.90311" lon="2.5291">
        <ele>37.3</ele>
        <time>2020-09-30T12:22:33Z</time>
      </trkpt>
      <trkpt lat="49.9031" lon="2.5291">
        <ele>37.3</ele>
        <time>2020-09-30T12:22:34Z</time>
      </trkpt>
      <trkpt lat="49.90309" lon="2.52911">
        <ele>37.3</ele>
        <time>2020-09-30T12:22:35Z</time>
      </trkpt>
      <trkpt lat="49.90308" lon="2.52912">
        <ele>37.3</ele>
        <time>2020-09-30T12:22:36Z</time>
      </trkpt>
      <trkpt lat="49.90307" lon="2.52912">
        <ele>37.3</ele>
        <time>2020-09-30T12:22:38Z</time>
      </trkpt>
      <trkpt lat="49.90306" lon="2.52912">
        <ele>37.3</ele>
        <time>2020-09-30T12:22:39Z</time>
      </trkpt>
      <trkpt lat="49.90304" lon="2.52913">
        <ele>37.3</ele>
        <time>2020-09-30T12:22:40Z</time>
      </trkpt>
      <trkpt lat="49.90303" lon="2.52914">
        <ele>37.4</ele>
        <time>2020-09-30T12:22:41Z</time>
      </trkpt>
      <trkpt lat="49.90302" lon="2.52915">
        <ele>37.4</ele>
        <time>2020-09-30T12:22:42Z</time>
      </trkpt>
      <trkpt lat="49.903" lon="2.52916">
        <ele>37.4</ele>
        <time>2020-09-30T12:22:43Z</time>
      </trkpt>
      <trkpt lat="49.90299" lon="2.52917">
        <ele>37.4</ele>
        <time>2020-09-30T12:22:44Z</time>
      </trkpt>
      <trkpt lat="49.90298" lon="2.52917">
        <ele>37.4</ele>
        <time>2020-09-30T12:22:45Z</time>
      </trkpt>
      <trkpt lat="49.90297" lon="2.52918">
        <ele>37.4</ele>
        <time>2020-09-30T12:22:46Z</time>
      </trkpt>
      <trkpt lat="49.90296" lon="2.52919">
        <ele>37.4</ele>
        <time>2020-09-30T12:22:47Z</time>
      </trkpt>
      <trkpt lat="49.90294" lon="2.52921">
        <ele>37.4</ele>
        <time>2020-09-30T12:22:48Z</time>
      </trkpt>
      <trkpt lat="49.90293" lon="2.52921">
        <ele>37.4</ele>
        <time>2020-09-30T12:22:49Z</time>
      </trkpt>
      <trkpt lat="49.90291" lon="2.52922">
        <ele>37.5</ele>
        <time>2020-09-30T12:22:50Z</time>
      </trkpt>
      <trkpt lat="49.9029" lon="2.52923">
        <ele>37.5</ele>
        <time>2020-09-30T12:22:51Z</time>
      </trkpt>
      <trkpt lat="49.90289" lon="2.52923">
        <ele>37.5</ele>
        <time>2020-09-30T12:22:52Z</time>
      </trkpt>
      <trkpt lat="49.90287" lon="2.52925">
        <ele>37.5</ele>
        <time>2020-09-30T12:22:54Z</time>
      </trkpt>
      <trkpt lat="49.90286" lon="2.52926">
        <ele>37.5</ele>
        <time>2020-09-30T12:22:55Z</time>
      </trkpt>
      <trkpt lat="49.90285" lon="2.52927">
        <ele>37.5</ele>
        <time>2020-09-30T12:22:56Z</time>
      </trkpt>
      <trkpt lat="49.90284" lon="2.52929">
        <ele>37.6</ele>
        <time>2020-09-30T12:22:57Z</time>
      </trkpt>
      <trkpt lat="49.90283" lon="2.52929">
        <ele>37.6</ele>
        <time>2020-09-30T12:22:59Z</time>
      </trkpt>
      <trkpt lat="49.90281" lon="2.52929">
        <ele>37.6</ele>
        <time>2020-09-30T12:23:00Z</time>
      </trkpt>
      <trkpt lat="49.9028" lon="2.5293">
        <ele>37.6</ele>
        <time>2020-09-30T12:23:01Z</time>
      </trkpt>
      <trkpt lat="49.90279" lon="2.52931">
        <ele>37.6</ele>
        <time>2020-09-30T12:23:02Z</time>
      </trkpt>
      <trkpt lat="49.90278" lon="2.52932">
        <ele>37.7</ele>
        <time>2020-09-30T12:23:03Z</time>
      </trkpt>
      <trkpt lat="49.90276" lon="2.52933">
        <ele>37.7</ele>
        <time>2020-09-30T12:23:04Z</time>
      </trkpt>
      <trkpt lat="49.90275" lon="2.52934">
        <ele>37.7</ele>
        <time>2020-09-30T12:23:05Z</time>
      </trkpt>
      <trkpt lat="49.90273" lon="2.52935">
        <ele>37.8</ele>
        <time>2020-09-30T12:23:06Z</time>
      </trkpt>
      <trkpt lat="49.90272" lon="2.52936">
        <ele>37.8</ele>
        <time>2020-09-30T12:23:07Z</time>
      </trkpt>
      <trkpt lat="49.90272" lon="2.52936">
        <ele>37.8</ele>
        <time>2020-09-30T12:23:08Z</time>
      </trkpt>
      <trkpt lat="49.9027" lon="2.52937">
        <ele>37.8</ele>
        <time>2020-09-30T12:23:10Z</time>
      </trkpt>
      <trkpt lat="49.90269" lon="2.52938">
        <ele>37.8</ele>
        <time>2020-09-30T12:23:11Z</time>
      </trkpt>
      <trkpt lat="49.90268" lon="2.52939">
        <ele>37.9</ele>
        <time>2020-09-30T12:23:12Z</time>
      </trkpt>
      <trkpt lat="49.90266" lon="2.52941">
        <ele>37.9</ele>
        <time>2020-09-30T12:23:13Z</time>
      </trkpt>
      <trkpt lat="49.90265" lon="2.52942">
        <ele>37.9</ele>
        <time>2020-09-30T12:23:14Z</time>
      </trkpt>
      <trkpt lat="49.90264" lon="2.52942">
        <ele>38</ele>
        <time>2020-09-30T12:23:15Z</time>
      </trkpt>
      <trkpt lat="49.90262" lon="2.52944">
        <ele>38</ele>
        <time>2020-09-30T12:23:17Z</time>
      </trkpt>
      <trkpt lat="49.90261" lon="2.52945">
        <ele>38</ele>
        <time>2020-09-30T12:23:18Z</time>
      </trkpt>
      <trkpt lat="49.90259" lon="2.52946">
        <ele>38.1</ele>
        <time>2020-09-30T12:23:19Z</time>
      </trkpt>
      <trkpt lat="49.90258" lon="2.52947">
        <ele>38.1</ele>
        <time>2020-09-30T12:23:21Z</time>
      </trkpt>
      <trkpt lat="49.90256" lon="2.52948">
        <ele>38.1</ele>
        <time>2020-09-30T12:23:22Z</time>
      </trkpt>
      <trkpt lat="49.90254" lon="2.52948">
        <ele>38.2</ele>
        <time>2020-09-30T12:23:24Z</time>
      </trkpt>
      <trkpt lat="49.90252" lon="2.52949">
        <ele>38.2</ele>
        <time>2020-09-30T12:23:25Z</time>
      </trkpt>
      <trkpt lat="49.90251" lon="2.5295">
        <ele>38.2</ele>
        <time>2020-09-30T12:23:26Z</time>
      </trkpt>
      <trkpt lat="49.9025" lon="2.5295">
        <ele>38.2</ele>
        <time>2020-09-30T12:23:27Z</time>
      </trkpt>
      <trkpt lat="49.90249" lon="2.52951">
        <ele>38.3</ele>
        <time>2020-09-30T12:23:28Z</time>
      </trkpt>
      <trkpt lat="49.90247" lon="2.52951">
        <ele>38.3</ele>
        <time>2020-09-30T12:23:30Z</time>
      </trkpt>
      <trkpt lat="49.90246" lon="2.52952">
        <ele>38.4</ele>
        <time>2020-09-30T12:23:31Z</time>
      </trkpt>
      <trkpt lat="49.90244" lon="2.52953">
        <ele>38.4</ele>
        <time>2020-09-30T12:23:32Z</time>
      </trkpt>
      <trkpt lat="49.90243" lon="2.52953">
        <ele>38.4</ele>
        <time>2020-09-30T12:23:33Z</time>
      </trkpt>
      <trkpt lat="49.90243" lon="2.52953">
        <ele>38.4</ele>
        <time>2020-09-30T12:23:34Z</time>
      </trkpt>
      <trkpt lat="49.9024" lon="2.52955">
        <ele>38.5</ele>
        <time>2020-09-30T12:23:36Z</time>
      </trkpt>
      <trkpt lat="49.90238" lon="2.52956">
        <ele>38.6</ele>
        <time>2020-09-30T12:23:38Z</time>
      </trkpt>
      <trkpt lat="49.90239" lon="2.52954">
        <ele>38.6</ele>
        <time>2020-09-30T12:23:39Z</time>
      </trkpt>
      <trkpt lat="49.90237" lon="2.52955">
        <ele>38.6</ele>
        <time>2020-09-30T12:23:40Z</time>
      </trkpt>
      <trkpt lat="49.90236" lon="2.52956">
        <ele>38.7</ele>
        <time>2020-09-30T12:23:41Z</time>
      </trkpt>
      <trkpt lat="49.90234" lon="2.52957">
        <ele>38.7</ele>
        <time>2020-09-30T12:23:43Z</time>
      </trkpt>
      <trkpt lat="49.90232" lon="2.5296">
        <ele>38.8</ele>
        <time>2020-09-30T12:23:44Z</time>
      </trkpt>
      <trkpt lat="49.90231" lon="2.52961">
        <ele>38.9</ele>
        <time>2020-09-30T12:23:45Z</time>
      </trkpt>
      <trkpt lat="49.9023" lon="2.52962">
        <ele>38.9</ele>
        <time>2020-09-30T12:23:46Z</time>
      </trkpt>
      <trkpt lat="49.90228" lon="2.52963">
        <ele>39</ele>
        <time>2020-09-30T12:23:47Z</time>
      </trkpt>
      <trkpt lat="49.90227" lon="2.52963">
        <ele>39</ele>
        <time>2020-09-30T12:23:49Z</time>
      </trkpt>
      <trkpt lat="49.90226" lon="2.52963">
        <ele>39</ele>
        <time>2020-09-30T12:23:50Z</time>
      </trkpt>
      <trkpt lat="49.90225" lon="2.52964">
        <ele>39.1</ele>
        <time>2020-09-30T12:23:51Z</time>
      </trkpt>
      <trkpt lat="49.90224" lon="2.52965">
        <ele>39.1</ele>
        <time>2020-09-30T12:23:52Z</time>
      </trkpt>
      <trkpt lat="49.90223" lon="2.52966">
        <ele>39.1</ele>
        <time>2020-09-30T12:23:53Z</time>
      </trkpt>
      <trkpt lat="49.90222" lon="2.52967">
        <ele>39.2</ele>
        <time>2020-09-30T12:23:54Z</time>
      </trkpt>
      <trkpt lat="49.90221" lon="2.52968">
        <ele>39.2</ele>
        <time>2020-09-30T12:23:55Z</time>
      </trkpt>
      <trkpt lat="49.9022" lon="2.52969">
        <ele>39.2</ele>
        <time>2020-09-30T12:23:56Z</time>
      </trkpt>
      <trkpt lat="49.90219" lon="2.5297">
        <ele>39.3</ele>
        <time>2020-09-30T12:23:57Z</time>
      </trkpt>
      <trkpt lat="49.90217" lon="2.52971">
        <ele>39.3</ele>
        <time>2020-09-30T12:23:58Z</time>
      </trkpt>
      <trkpt lat="49.90217" lon="2.52973">
        <ele>39.5</ele>
        <time>2020-09-30T12:23:59Z</time>
      </trkpt>
      <trkpt lat="49.90216" lon="2.52974">
        <ele>39.5</ele>
        <time>2020-09-30T12:24:00Z</time>
      </trkpt>
      <trkpt lat="49.90215" lon="2.52976">
        <ele>39.5</ele>
        <time>2020-09-30T12:24:02Z</time>
      </trkpt>
      <trkpt lat="49.90215" lon="2.52978">
        <ele>39.5</ele>
        <time>2020-09-30T12:24:03Z</time>
      </trkpt>
      <trkpt lat="49.90216" lon="2.5298">
        <ele>39.5</ele>
        <time>2020-09-30T12:24:04Z</time>
      </trkpt>
      <trkpt lat="49.90216" lon="2.52983">
        <ele>39.5</ele>
        <time>2020-09-30T12:24:05Z</time>
      </trkpt>
      <trkpt lat="49.90217" lon="2.52985">
        <ele>39.6</ele>
        <time>2020-09-30T12:24:06Z</time>
      </trkpt>
      <trkpt lat="49.90218" lon="2.52987">
        <ele>39.6</ele>
        <time>2020-09-30T12:24:07Z</time>
      </trkpt>
      <trkpt lat="49.90218" lon="2.52988">
        <ele>39.6</ele>
        <time>2020-09-30T12:24:08Z</time>
      </trkpt>
      <trkpt lat="49.90219" lon="2.52989">
        <ele>39.6</ele>
        <time>2020-09-30T12:24:09Z</time>
      </trkpt>
      <trkpt lat="49.9022" lon="2.52991">
        <ele>39.6</ele>
        <time>2020-09-30T12:24:11Z</time>
      </trkpt>
      <trkpt lat="49.9022" lon="2.52994">
        <ele>39.6</ele>
        <time>2020-09-30T12:24:13Z</time>
      </trkpt>
      <trkpt lat="49.9022" lon="2.52995">
        <ele>39.6</ele>
        <time>2020-09-30T12:24:14Z</time>
      </trkpt>
      <trkpt lat="49.9022" lon="2.52995">
        <ele>39.6</ele>
        <time>2020-09-30T12:24:17Z</time>
      </trkpt>
      <trkpt lat="49.9022" lon="2.52995">
        <ele>39.6</ele>
        <time>2020-09-30T12:24:18Z</time>
      </trkpt>
      <trkpt lat="49.9022" lon="2.52994">
        <ele>39.6</ele>
        <time>2020-09-30T12:24:19Z</time>
      </trkpt>
      <trkpt lat="49.9022" lon="2.52994">
        <ele>39.6</ele>
        <time>2020-09-30T12:24:21Z</time>
      </trkpt>
      <trkpt lat="49.90219" lon="2.52995">
        <ele>39.6</ele>
        <time>2020-09-30T12:24:23Z</time>
      </trkpt>
      <trkpt lat="49.90219" lon="2.52995">
        <ele>39.6</ele>
        <time>2020-09-30T12:24:24Z</time>
      </trkpt>
      <trkpt lat="49.90219" lon="2.52994">
        <ele>39.6</ele>
        <time>2020-09-30T12:24:26Z</time>
      </trkpt>
      <trkpt lat="49.90219" lon="2.52994">
        <ele>39.6</ele>
        <time>2020-09-30T12:24:27Z</time>
      </trkpt>
      <trkpt lat="49.90219" lon="2.52994">
        <ele>39.6</ele>
        <time>2020-09-30T12:24:29Z</time>
      </trkpt>
      <trkpt lat="49.90219" lon="2.52994">
        <ele>39.6</ele>
        <time>2020-09-30T12:24:30Z</time>
      </trkpt>
      <trkpt lat="49.90219" lon="2.52995">
        <ele>39.6</ele>
        <time>2020-09-30T12:24:33Z</time>
      </trkpt>
      <trkpt lat="49.90219" lon="2.52995">
        <ele>39.6</ele>
        <time>2020-09-30T12:24:34Z</time>
      </trkpt>
      <trkpt lat="49.90219" lon="2.52995">
        <ele>39.6</ele>
        <time>2020-09-30T12:24:35Z</time>
      </trkpt>
      <trkpt lat="49.90219" lon="2.52995">
        <ele>39.6</ele>
        <time>2020-09-30T12:24:36Z</time>
      </trkpt>
      <trkpt lat="49.90219" lon="2.52995">
        <ele>39.6</ele>
        <time>2020-09-30T12:24:38Z</time>
      </trkpt>
      <trkpt lat="49.90219" lon="2.52995">
        <ele>39.6</ele>
        <time>2020-09-30T12:24:39Z</time>
      </trkpt>
      <trkpt lat="49.90219" lon="2.52995">
        <ele>39.6</ele>
        <time>2020-09-30T12:24:40Z</time>
      </trkpt>
      <trkpt lat="49.90221" lon="2.52994">
        <ele>39.7</ele>
        <time>2020-09-30T12:24:42Z</time>
      </trkpt>
      <trkpt lat="49.90221" lon="2.52998">
        <ele>39.7</ele>
        <time>2020-09-30T12:24:45Z</time>
      </trkpt>
      <trkpt lat="49.90222" lon="2.53">
        <ele>39.7</ele>
        <time>2020-09-30T12:24:46Z</time>
      </trkpt>
      <trkpt lat="49.90222" lon="2.53001">
        <ele>39.7</ele>
        <time>2020-09-30T12:24:47Z</time>
      </trkpt>
      <trkpt lat="49.90223" lon="2.53002">
        <ele>39.7</ele>
        <time>2020-09-30T12:24:48Z</time>
      </trkpt>
      <trkpt lat="49.90223" lon="2.53004">
        <ele>39.7</ele>
        <time>2020-09-30T12:24:50Z</time>
      </trkpt>
      <trkpt lat="49.90223" lon="2.53005">
        <ele>39.7</ele>
        <time>2020-09-30T12:24:51Z</time>
      </trkpt>
      <trkpt lat="49.90224" lon="2.53007">
        <ele>39.7</ele>
        <time>2020-09-30T12:24:52Z</time>
      </trkpt>
      <trkpt lat="49.90225" lon="2.53008">
        <ele>39.8</ele>
        <time>2020-09-30T12:24:53Z</time>
      </trkpt>
      <trkpt lat="49.90226" lon="2.5301">
        <ele>39.8</ele>
        <time>2020-09-30T12:24:55Z</time>
      </trkpt>
      <trkpt lat="49.90226" lon="2.53012">
        <ele>39.8</ele>
        <time>2020-09-30T12:24:56Z</time>
      </trkpt>
      <trkpt lat="49.90227" lon="2.53013">
        <ele>39.8</ele>
        <time>2020-09-30T12:24:57Z</time>
      </trkpt>
      <trkpt lat="49.90228" lon="2.53015">
        <ele>39.8</ele>
        <time>2020-09-30T12:24:58Z</time>
      </trkpt>
      <trkpt lat="49.90229" lon="2.53017">
        <ele>39.8</ele>
        <time>2020-09-30T12:24:59Z</time>
      </trkpt>
      <trkpt lat="49.90229" lon="2.53018">
        <ele>39.9</ele>
        <time>2020-09-30T12:25:00Z</time>
      </trkpt>
      <trkpt lat="49.9023" lon="2.53019">
        <ele>39.9</ele>
        <time>2020-09-30T12:25:01Z</time>
      </trkpt>
      <trkpt lat="49.90231" lon="2.53021">
        <ele>39.9</ele>
        <time>2020-09-30T12:25:02Z</time>
      </trkpt>
      <trkpt lat="49.90231" lon="2.53024">
        <ele>39.9</ele>
        <time>2020-09-30T12:25:04Z</time>
      </trkpt>
      <trkpt lat="49.90233" lon="2.53026">
        <ele>40</ele>
        <time>2020-09-30T12:25:05Z</time>
      </trkpt>
      <trkpt lat="49.90233" lon="2.53028">
        <ele>40</ele>
        <time>2020-09-30T12:25:06Z</time>
      </trkpt>
      <trkpt lat="49.90234" lon="2.53029">
        <ele>40</ele>
        <time>2020-09-30T12:25:08Z</time>
      </trkpt>
      <trkpt lat="49.90234" lon="2.53031">
        <ele>40</ele>
        <time>2020-09-30T12:25:09Z</time>
      </trkpt>
      <trkpt lat="49.90235" lon="2.53032">
        <ele>40.1</ele>
        <time>2020-09-30T12:25:10Z</time>
      </trkpt>
      <trkpt lat="49.90236" lon="2.53035">
        <ele>40.1</ele>
        <time>2020-09-30T12:25:11Z</time>
      </trkpt>
      <trkpt lat="49.90237" lon="2.53037">
        <ele>40.1</ele>
        <time>2020-09-30T12:25:12Z</time>
      </trkpt>
      <trkpt lat="49.90237" lon="2.53038">
        <ele>40.2</ele>
        <time>2020-09-30T12:25:13Z</time>
      </trkpt>
      <trkpt lat="49.90238" lon="2.5304">
        <ele>40.2</ele>
        <time>2020-09-30T12:25:14Z</time>
      </trkpt>
      <trkpt lat="49.90239" lon="2.53041">
        <ele>40.2</ele>
        <time>2020-09-30T12:25:15Z</time>
      </trkpt>
      <trkpt lat="49.90239" lon="2.53043">
        <ele>40.2</ele>
        <time>2020-09-30T12:25:17Z</time>
      </trkpt>
      <trkpt lat="49.9024" lon="2.53045">
        <ele>40.3</ele>
        <time>2020-09-30T12:25:18Z</time>
      </trkpt>
      <trkpt lat="49.90241" lon="2.53047">
        <ele>40.3</ele>
        <time>2020-09-30T12:25:19Z</time>
      </trkpt>
      <trkpt lat="49.90242" lon="2.53049">
        <ele>40.3</ele>
        <time>2020-09-30T12:25:20Z</time>
      </trkpt>
      <trkpt lat="49.90242" lon="2.5305">
        <ele>40.3</ele>
        <time>2020-09-30T12:25:21Z</time>
      </trkpt>
      <trkpt lat="49.90243" lon="2.53052">
        <ele>40.4</ele>
        <time>2020-09-30T12:25:22Z</time>
      </trkpt>
      <trkpt lat="49.90243" lon="2.53054">
        <ele>40.4</ele>
        <time>2020-09-30T12:25:24Z</time>
      </trkpt>
      <trkpt lat="49.90244" lon="2.53056">
        <ele>40.4</ele>
        <time>2020-09-30T12:25:25Z</time>
      </trkpt>
      <trkpt lat="49.90244" lon="2.53058">
        <ele>40.4</ele>
        <time>2020-09-30T12:25:26Z</time>
      </trkpt>
      <trkpt lat="49.90245" lon="2.53061">
        <ele>40.4</ele>
        <time>2020-09-30T12:25:27Z</time>
      </trkpt>
      <trkpt lat="49.90245" lon="2.53063">
        <ele>40.4</ele>
        <time>2020-09-30T12:25:28Z</time>
      </trkpt>
      <trkpt lat="49.90246" lon="2.53064">
        <ele>40.4</ele>
        <time>2020-09-30T12:25:29Z</time>
      </trkpt>
      <trkpt lat="49.90246" lon="2.53067">
        <ele>40.5</ele>
        <time>2020-09-30T12:25:30Z</time>
      </trkpt>
      <trkpt lat="49.90246" lon="2.53069">
        <ele>40.5</ele>
        <time>2020-09-30T12:25:31Z</time>
      </trkpt>
      <trkpt lat="49.90247" lon="2.53072">
        <ele>40.5</ele>
        <time>2020-09-30T12:25:33Z</time>
      </trkpt>
      <trkpt lat="49.90247" lon="2.53074">
        <ele>40.5</ele>
        <time>2020-09-30T12:25:34Z</time>
      </trkpt>
      <trkpt lat="49.90247" lon="2.53075">
        <ele>40.5</ele>
        <time>2020-09-30T12:25:35Z</time>
      </trkpt>
      <trkpt lat="49.90247" lon="2.53077">
        <ele>40.5</ele>
        <time>2020-09-30T12:25:36Z</time>
      </trkpt>
      <trkpt lat="49.90247" lon="2.53079">
        <ele>40.5</ele>
        <time>2020-09-30T12:25:37Z</time>
      </trkpt>
      <trkpt lat="49.90248" lon="2.53082">
        <ele>40.5</ele>
        <time>2020-09-30T12:25:38Z</time>
      </trkpt>
      <trkpt lat="49.90248" lon="2.53084">
        <ele>40.5</ele>
        <time>2020-09-30T12:25:39Z</time>
      </trkpt>
      <trkpt lat="49.90248" lon="2.53087">
        <ele>40.6</ele>
        <time>2020-09-30T12:25:40Z</time>
      </trkpt>
      <trkpt lat="49.90249" lon="2.53088">
        <ele>40.6</ele>
        <time>2020-09-30T12:25:41Z</time>
      </trkpt>
      <trkpt lat="49.90249" lon="2.5309">
        <ele>40.6</ele>
        <time>2020-09-30T12:25:42Z</time>
      </trkpt>
      <trkpt lat="49.90249" lon="2.53091">
        <ele>40.6</ele>
        <time>2020-09-30T12:25:44Z</time>
      </trkpt>
      <trkpt lat="49.90249" lon="2.53094">
        <ele>40.6</ele>
        <time>2020-09-30T12:25:45Z</time>
      </trkpt>
      <trkpt lat="49.90249" lon="2.53097">
        <ele>40.6</ele>
        <time>2020-09-30T12:25:46Z</time>
      </trkpt>
      <trkpt lat="49.90249" lon="2.53098">
        <ele>40.6</ele>
        <time>2020-09-30T12:25:47Z</time>
      </trkpt>
      <trkpt lat="49.9025" lon="2.53099">
        <ele>40.6</ele>
        <time>2020-09-30T12:25:48Z</time>
      </trkpt>
      <trkpt lat="49.90251" lon="2.53102">
        <ele>40.6</ele>
        <time>2020-09-30T12:25:49Z</time>
      </trkpt>
      <trkpt lat="49.90251" lon="2.53104">
        <ele>40.7</ele>
        <time>2020-09-30T12:25:50Z</time>
      </trkpt>
      <trkpt lat="49.90251" lon="2.53107">
        <ele>40.7</ele>
        <time>2020-09-30T12:25:51Z</time>
      </trkpt>
      <trkpt lat="49.90251" lon="2.53109">
        <ele>40.7</ele>
        <time>2020-09-30T12:25:52Z</time>
      </trkpt>
      <trkpt lat="49.90251" lon="2.53111">
        <ele>40.7</ele>
        <time>2020-09-30T12:25:53Z</time>
      </trkpt>
      <trkpt lat="49.90251" lon="2.53113">
        <ele>40.7</ele>
        <time>2020-09-30T12:25:54Z</time>
      </trkpt>
      <trkpt lat="49.90252" lon="2.53114">
        <ele>40.8</ele>
        <time>2020-09-30T12:25:56Z</time>
      </trkpt>
      <trkpt lat="49.90252" lon="2.53116">
        <ele>40.8</ele>
        <time>2020-09-30T12:25:57Z</time>
      </trkpt>
      <trkpt lat="49.90253" lon="2.53118">
        <ele>40.8</ele>
        <time>2020-09-30T12:25:58Z</time>
      </trkpt>
      <trkpt lat="49.90253" lon="2.5312">
        <ele>40.8</ele>
        <time>2020-09-30T12:25:59Z</time>
      </trkpt>
      <trkpt lat="49.90253" lon="2.53121">
        <ele>40.8</ele>
        <time>2020-09-30T12:26:00Z</time>
      </trkpt>
      <trkpt lat="49.90253" lon="2.53123">
        <ele>40.8</ele>
        <time>2020-09-30T12:26:01Z</time>
      </trkpt>
      <trkpt lat="49.90253" lon="2.53124">
        <ele>40.9</ele>
        <time>2020-09-30T12:26:02Z</time>
      </trkpt>
      <trkpt lat="49.90254" lon="2.53127">
        <ele>40.9</ele>
        <time>2020-09-30T12:26:03Z</time>
      </trkpt>
      <trkpt lat="49.90254" lon="2.53128">
        <ele>40.9</ele>
        <time>2020-09-30T12:26:04Z</time>
      </trkpt>
      <trkpt lat="49.90254" lon="2.5313">
        <ele>40.9</ele>
        <time>2020-09-30T12:26:06Z</time>
      </trkpt>
      <trkpt lat="49.90254" lon="2.53132">
        <ele>40.9</ele>
        <time>2020-09-30T12:26:07Z</time>
      </trkpt>
      <trkpt lat="49.90255" lon="2.53134">
        <ele>40.9</ele>
        <time>2020-09-30T12:26:08Z</time>
      </trkpt>
      <trkpt lat="49.90255" lon="2.53138">
        <ele>41</ele>
        <time>2020-09-30T12:26:09Z</time>
      </trkpt>
      <trkpt lat="49.90254" lon="2.53139">
        <ele>41</ele>
        <time>2020-09-30T12:26:10Z</time>
      </trkpt>
      <trkpt lat="49.90254" lon="2.53141">
        <ele>41</ele>
        <time>2020-09-30T12:26:11Z</time>
      </trkpt>
      <trkpt lat="49.90254" lon="2.53142">
        <ele>41</ele>
        <time>2020-09-30T12:26:12Z</time>
      </trkpt>
      <trkpt lat="49.90254" lon="2.53144">
        <ele>41</ele>
        <time>2020-09-30T12:26:13Z</time>
      </trkpt>
      <trkpt lat="49.90255" lon="2.53147">
        <ele>41.1</ele>
        <time>2020-09-30T12:26:15Z</time>
      </trkpt>
      <trkpt lat="49.90255" lon="2.53149">
        <ele>41.1</ele>
        <time>2020-09-30T12:26:16Z</time>
      </trkpt>
      <trkpt lat="49.90256" lon="2.53151">
        <ele>41.2</ele>
        <time>2020-09-30T12:26:17Z</time>
      </trkpt>
      <trkpt lat="49.90256" lon="2.53152">
        <ele>41.2</ele>
        <time>2020-09-30T12:26:18Z</time>
      </trkpt>
      <trkpt lat="49.90256" lon="2.53156">
        <ele>41.2</ele>
        <time>2020-09-30T12:26:19Z</time>
      </trkpt>
      <trkpt lat="49.90256" lon="2.53157">
        <ele>41.3</ele>
        <time>2020-09-30T12:26:20Z</time>
      </trkpt>
      <trkpt lat="49.90256" lon="2.53158">
        <ele>41.3</ele>
        <time>2020-09-30T12:26:21Z</time>
      </trkpt>
      <trkpt lat="49.90257" lon="2.5316">
        <ele>41.3</ele>
        <time>2020-09-30T12:26:22Z</time>
      </trkpt>
      <trkpt lat="49.90257" lon="2.53162">
        <ele>41.4</ele>
        <time>2020-09-30T12:26:24Z</time>
      </trkpt>
      <trkpt lat="49.90257" lon="2.53164">
        <ele>41.4</ele>
        <time>2020-09-30T12:26:25Z</time>
      </trkpt>
      <trkpt lat="49.90257" lon="2.53166">
        <ele>41.5</ele>
        <time>2020-09-30T12:26:26Z</time>
      </trkpt>
      <trkpt lat="49.90257" lon="2.53168">
        <ele>41.5</ele>
        <time>2020-09-30T12:26:27Z</time>
      </trkpt>
      <trkpt lat="49.90257" lon="2.53171">
        <ele>41.6</ele>
        <time>2020-09-30T12:26:28Z</time>
      </trkpt>
      <trkpt lat="49.90258" lon="2.53174">
        <ele>41.6</ele>
        <time>2020-09-30T12:26:30Z</time>
      </trkpt>
      <trkpt lat="49.90259" lon="2.53176">
        <ele>41.7</ele>
        <time>2020-09-30T12:26:31Z</time>
      </trkpt>
      <trkpt lat="49.90259" lon="2.53178">
        <ele>41.7</ele>
        <time>2020-09-30T12:26:32Z</time>
      </trkpt>
      <trkpt lat="49.90259" lon="2.5318">
        <ele>41.7</ele>
        <time>2020-09-30T12:26:33Z</time>
      </trkpt>
      <trkpt lat="49.90259" lon="2.53182">
        <ele>41.8</ele>
        <time>2020-09-30T12:26:34Z</time>
      </trkpt>
      <trkpt lat="49.90258" lon="2.53186">
        <ele>41.8</ele>
        <time>2020-09-30T12:26:36Z</time>
      </trkpt>
      <trkpt lat="49.90258" lon="2.53188">
        <ele>41.9</ele>
        <time>2020-09-30T12:26:37Z</time>
      </trkpt>
      <trkpt lat="49.90258" lon="2.5319">
        <ele>41.9</ele>
        <time>2020-09-30T12:26:39Z</time>
      </trkpt>
      <trkpt lat="49.90257" lon="2.53192">
        <ele>41.9</ele>
        <time>2020-09-30T12:26:40Z</time>
      </trkpt>
      <trkpt lat="49.90258" lon="2.53196">
        <ele>41.9</ele>
        <time>2020-09-30T12:26:41Z</time>
      </trkpt>
      <trkpt lat="49.90258" lon="2.53198">
        <ele>42</ele>
        <time>2020-09-30T12:26:42Z</time>
      </trkpt>
      <trkpt lat="49.90258" lon="2.532">
        <ele>42</ele>
        <time>2020-09-30T12:26:43Z</time>
      </trkpt>
      <trkpt lat="49.90257" lon="2.53202">
        <ele>42</ele>
        <time>2020-09-30T12:26:44Z</time>
      </trkpt>
      <trkpt lat="49.90257" lon="2.53205">
        <ele>42</ele>
        <time>2020-09-30T12:26:46Z</time>
      </trkpt>
      <trkpt lat="49.90257" lon="2.53207">
        <ele>42</ele>
        <time>2020-09-30T12:26:47Z</time>
      </trkpt>
      <trkpt lat="49.90257" lon="2.53208">
        <ele>42</ele>
        <time>2020-09-30T12:26:48Z</time>
      </trkpt>
      <trkpt lat="49.90257" lon="2.5321">
        <ele>42</ele>
        <time>2020-09-30T12:26:49Z</time>
      </trkpt>
      <trkpt lat="49.90257" lon="2.53212">
        <ele>42.1</ele>
        <time>2020-09-30T12:26:50Z</time>
      </trkpt>
      <trkpt lat="49.90257" lon="2.53216">
        <ele>42.1</ele>
        <time>2020-09-30T12:26:51Z</time>
      </trkpt>
      <trkpt lat="49.90257" lon="2.53217">
        <ele>42.1</ele>
        <time>2020-09-30T12:26:52Z</time>
      </trkpt>
      <trkpt lat="49.90257" lon="2.53218">
        <ele>42.1</ele>
        <time>2020-09-30T12:26:53Z</time>
      </trkpt>
      <trkpt lat="49.90257" lon="2.53221">
        <ele>42.1</ele>
        <time>2020-09-30T12:26:54Z</time>
      </trkpt>
      <trkpt lat="49.90257" lon="2.53223">
        <ele>42.1</ele>
        <time>2020-09-30T12:26:55Z</time>
      </trkpt>
      <trkpt lat="49.90257" lon="2.53224">
        <ele>42.1</ele>
        <time>2020-09-30T12:26:56Z</time>
      </trkpt>
      <trkpt lat="49.90257" lon="2.53227">
        <ele>42.1</ele>
        <time>2020-09-30T12:26:57Z</time>
      </trkpt>
      <trkpt lat="49.90257" lon="2.53229">
        <ele>42.1</ele>
        <time>2020-09-30T12:26:58Z</time>
      </trkpt>
      <trkpt lat="49.90258" lon="2.53232">
        <ele>42.1</ele>
        <time>2020-09-30T12:27:00Z</time>
      </trkpt>
      <trkpt lat="49.90258" lon="2.53233">
        <ele>42.1</ele>
        <time>2020-09-30T12:27:01Z</time>
      </trkpt>
      <trkpt lat="49.90258" lon="2.53235">
        <ele>42.1</ele>
        <time>2020-09-30T12:27:02Z</time>
      </trkpt>
      <trkpt lat="49.90258" lon="2.53237">
        <ele>42.1</ele>
        <time>2020-09-30T12:27:03Z</time>
      </trkpt>
      <trkpt lat="49.90258" lon="2.53239">
        <ele>42.1</ele>
        <time>2020-09-30T12:27:04Z</time>
      </trkpt>
      <trkpt lat="49.90259" lon="2.53242">
        <ele>42.1</ele>
        <time>2020-09-30T12:27:05Z</time>
      </trkpt>
      <trkpt lat="49.90259" lon="2.53243">
        <ele>42.1</ele>
        <time>2020-09-30T12:27:06Z</time>
      </trkpt>
      <trkpt lat="49.90259" lon="2.53245">
        <ele>42.1</ele>
        <time>2020-09-30T12:27:07Z</time>
      </trkpt>
      <trkpt lat="49.90259" lon="2.53247">
        <ele>42.1</ele>
        <time>2020-09-30T12:27:08Z</time>
      </trkpt>
      <trkpt lat="49.90261" lon="2.53246">
        <ele>42.1</ele>
        <time>2020-09-30T12:27:09Z</time>
      </trkpt>
      <trkpt lat="49.90261" lon="2.53249">
        <ele>42.2</ele>
        <time>2020-09-30T12:27:11Z</time>
      </trkpt>
      <trkpt lat="49.90261" lon="2.53251">
        <ele>42.2</ele>
        <time>2020-09-30T12:27:12Z</time>
      </trkpt>
      <trkpt lat="49.90261" lon="2.53253">
        <ele>42.2</ele>
        <time>2020-09-30T12:27:13Z</time>
      </trkpt>
      <trkpt lat="49.90261" lon="2.53256">
        <ele>42.2</ele>
        <time>2020-09-30T12:27:14Z</time>
      </trkpt>
      <trkpt lat="49.90261" lon="2.53258">
        <ele>42.2</ele>
        <time>2020-09-30T12:27:15Z</time>
      </trkpt>
      <trkpt lat="49.90261" lon="2.53261">
        <ele>42.3</ele>
        <time>2020-09-30T12:27:16Z</time>
      </trkpt>
      <trkpt lat="49.90261" lon="2.53262">
        <ele>42.3</ele>
        <time>2020-09-30T12:27:18Z</time>
      </trkpt>
      <trkpt lat="49.90261" lon="2.53264">
        <ele>42.3</ele>
        <time>2020-09-30T12:27:19Z</time>
      </trkpt>
      <trkpt lat="49.90261" lon="2.53267">
        <ele>42.3</ele>
        <time>2020-09-30T12:27:20Z</time>
      </trkpt>
      <trkpt lat="49.90261" lon="2.53269">
        <ele>42.3</ele>
        <time>2020-09-30T12:27:21Z</time>
      </trkpt>
      <trkpt lat="49.90261" lon="2.53271">
        <ele>42.4</ele>
        <time>2020-09-30T12:27:23Z</time>
      </trkpt>
      <trkpt lat="49.90261" lon="2.53274">
        <ele>42.4</ele>
        <time>2020-09-30T12:27:24Z</time>
      </trkpt>
      <trkpt lat="49.90261" lon="2.53277">
        <ele>42.4</ele>
        <time>2020-09-30T12:27:25Z</time>
      </trkpt>
      <trkpt lat="49.90261" lon="2.53279">
        <ele>42.4</ele>
        <time>2020-09-30T12:27:26Z</time>
      </trkpt>
      <trkpt lat="49.90261" lon="2.5328">
        <ele>42.4</ele>
        <time>2020-09-30T12:27:27Z</time>
      </trkpt>
      <trkpt lat="49.90261" lon="2.53283">
        <ele>42.4</ele>
        <time>2020-09-30T12:27:28Z</time>
      </trkpt>
      <trkpt lat="49.90261" lon="2.53284">
        <ele>42.4</ele>
        <time>2020-09-30T12:27:29Z</time>
      </trkpt>
      <trkpt lat="49.90262" lon="2.53286">
        <ele>42.4</ele>
        <time>2020-09-30T12:27:30Z</time>
      </trkpt>
      <trkpt lat="49.90262" lon="2.53288">
        <ele>42.4</ele>
        <time>2020-09-30T12:27:31Z</time>
      </trkpt>
      <trkpt lat="49.90262" lon="2.53289">
        <ele>42.4</ele>
        <time>2020-09-30T12:27:32Z</time>
      </trkpt>
      <trkpt lat="49.90262" lon="2.53291">
        <ele>42.4</ele>
        <time>2020-09-30T12:27:33Z</time>
      </trkpt>
      <trkpt lat="49.90262" lon="2.53292">
        <ele>42.4</ele>
        <time>2020-09-30T12:27:35Z</time>
      </trkpt>
      <trkpt lat="49.90262" lon="2.53296">
        <ele>42.4</ele>
        <time>2020-09-30T12:27:36Z</time>
      </trkpt>
      <trkpt lat="49.90262" lon="2.53299">
        <ele>42.4</ele>
        <time>2020-09-30T12:27:37Z</time>
      </trkpt>
      <trkpt lat="49.90262" lon="2.533">
        <ele>42.4</ele>
        <time>2020-09-30T12:27:38Z</time>
      </trkpt>
      <trkpt lat="49.90263" lon="2.53302">
        <ele>42.4</ele>
        <time>2020-09-30T12:27:39Z</time>
      </trkpt>
      <trkpt lat="49.90263" lon="2.53306">
        <ele>42.4</ele>
        <time>2020-09-30T12:27:40Z</time>
      </trkpt>
      <trkpt lat="49.90263" lon="2.53308">
        <ele>42.4</ele>
        <time>2020-09-30T12:27:42Z</time>
      </trkpt>
      <trkpt lat="49.90263" lon="2.53309">
        <ele>42.4</ele>
        <time>2020-09-30T12:27:43Z</time>
      </trkpt>
      <trkpt lat="49.90263" lon="2.53311">
        <ele>42.4</ele>
        <time>2020-09-30T12:27:44Z</time>
      </trkpt>
      <trkpt lat="49.90263" lon="2.53312">
        <ele>42.4</ele>
        <time>2020-09-30T12:27:45Z</time>
      </trkpt>
      <trkpt lat="49.90263" lon="2.53315">
        <ele>42.4</ele>
        <time>2020-09-30T12:27:46Z</time>
      </trkpt>
      <trkpt lat="49.90263" lon="2.53317">
        <ele>42.4</ele>
        <time>2020-09-30T12:27:47Z</time>
      </trkpt>
      <trkpt lat="49.90263" lon="2.5332">
        <ele>42.3</ele>
        <time>2020-09-30T12:27:49Z</time>
      </trkpt>
      <trkpt lat="49.90263" lon="2.53323">
        <ele>42.3</ele>
        <time>2020-09-30T12:27:51Z</time>
      </trkpt>
      <trkpt lat="49.90263" lon="2.53325">
        <ele>42.3</ele>
        <time>2020-09-30T12:27:52Z</time>
      </trkpt>
      <trkpt lat="49.90264" lon="2.53327">
        <ele>42.3</ele>
        <time>2020-09-30T12:27:54Z</time>
      </trkpt>
      <trkpt lat="49.90264" lon="2.53331">
        <ele>42.3</ele>
        <time>2020-09-30T12:27:55Z</time>
      </trkpt>
      <trkpt lat="49.90264" lon="2.53333">
        <ele>42.3</ele>
        <time>2020-09-30T12:27:56Z</time>
      </trkpt>
      <trkpt lat="49.90264" lon="2.53334">
        <ele>42.3</ele>
        <time>2020-09-30T12:27:57Z</time>
      </trkpt>
      <trkpt lat="49.90265" lon="2.53336">
        <ele>42.3</ele>
        <time>2020-09-30T12:27:58Z</time>
      </trkpt>
      <trkpt lat="49.90265" lon="2.53338">
        <ele>42.3</ele>
        <time>2020-09-30T12:27:59Z</time>
      </trkpt>
      <trkpt lat="49.90265" lon="2.53342">
        <ele>42.3</ele>
        <time>2020-09-30T12:28:00Z</time>
      </trkpt>
      <trkpt lat="49.90265" lon="2.53343">
        <ele>42.3</ele>
        <time>2020-09-30T12:28:01Z</time>
      </trkpt>
      <trkpt lat="49.90265" lon="2.53344">
        <ele>42.3</ele>
        <time>2020-09-30T12:28:02Z</time>
      </trkpt>
      <trkpt lat="49.90264" lon="2.53348">
        <ele>42.3</ele>
        <time>2020-09-30T12:28:04Z</time>
      </trkpt>
      <trkpt lat="49.90264" lon="2.53349">
        <ele>42.3</ele>
        <time>2020-09-30T12:28:05Z</time>
      </trkpt>
      <trkpt lat="49.90264" lon="2.5335">
        <ele>42.3</ele>
        <time>2020-09-30T12:28:06Z</time>
      </trkpt>
      <trkpt lat="49.90264" lon="2.53352">
        <ele>42.3</ele>
        <time>2020-09-30T12:28:07Z</time>
      </trkpt>
      <trkpt lat="49.90264" lon="2.53354">
        <ele>42.3</ele>
        <time>2020-09-30T12:28:08Z</time>
      </trkpt>
      <trkpt lat="49.90264" lon="2.53356">
        <ele>42.3</ele>
        <time>2020-09-30T12:28:09Z</time>
      </trkpt>
      <trkpt lat="49.90264" lon="2.5336">
        <ele>42.3</ele>
        <time>2020-09-30T12:28:10Z</time>
      </trkpt>
      <trkpt lat="49.90264" lon="2.53361">
        <ele>42.3</ele>
        <time>2020-09-30T12:28:12Z</time>
      </trkpt>
      <trkpt lat="49.90265" lon="2.53363">
        <ele>42.3</ele>
        <time>2020-09-30T12:28:13Z</time>
      </trkpt>
      <trkpt lat="49.90265" lon="2.53364">
        <ele>42.3</ele>
        <time>2020-09-30T12:28:14Z</time>
      </trkpt>
      <trkpt lat="49.90265" lon="2.53366">
        <ele>42.3</ele>
        <time>2020-09-30T12:28:15Z</time>
      </trkpt>
      <trkpt lat="49.90265" lon="2.53367">
        <ele>42.3</ele>
        <time>2020-09-30T12:28:16Z</time>
      </trkpt>
      <trkpt lat="49.90265" lon="2.5337">
        <ele>42.3</ele>
        <time>2020-09-30T12:28:17Z</time>
      </trkpt>
      <trkpt lat="49.90265" lon="2.53372">
        <ele>42.3</ele>
        <time>2020-09-30T12:28:19Z</time>
      </trkpt>
      <trkpt lat="49.90265" lon="2.53374">
        <ele>42.3</ele>
        <time>2020-09-30T12:28:20Z</time>
      </trkpt>
      <trkpt lat="49.90266" lon="2.53375">
        <ele>42.3</ele>
        <time>2020-09-30T12:28:21Z</time>
      </trkpt>
      <trkpt lat="49.90266" lon="2.53378">
        <ele>42.3</ele>
        <time>2020-09-30T12:28:22Z</time>
      </trkpt>
      <trkpt lat="49.90266" lon="2.53381">
        <ele>42.3</ele>
        <time>2020-09-30T12:28:23Z</time>
      </trkpt>
      <trkpt lat="49.90267" lon="2.53382">
        <ele>42.3</ele>
        <time>2020-09-30T12:28:24Z</time>
      </trkpt>
      <trkpt lat="49.90267" lon="2.53384">
        <ele>42.3</ele>
        <time>2020-09-30T12:28:25Z</time>
      </trkpt>
      <trkpt lat="49.90267" lon="2.53386">
        <ele>42.4</ele>
        <time>2020-09-30T12:28:26Z</time>
      </trkpt>
      <trkpt lat="49.90267" lon="2.53388">
        <ele>42.4</ele>
        <time>2020-09-30T12:28:27Z</time>
      </trkpt>
      <trkpt lat="49.90267" lon="2.53391">
        <ele>42.4</ele>
        <time>2020-09-30T12:28:29Z</time>
      </trkpt>
      <trkpt lat="49.90267" lon="2.53393">
        <ele>42.4</ele>
        <time>2020-09-30T12:28:30Z</time>
      </trkpt>
      <trkpt lat="49.90268" lon="2.53395">
        <ele>42.4</ele>
        <time>2020-09-30T12:28:31Z</time>
      </trkpt>
      <trkpt lat="49.90268" lon="2.53398">
        <ele>42.5</ele>
        <time>2020-09-30T12:28:32Z</time>
      </trkpt>
      <trkpt lat="49.90268" lon="2.53399">
        <ele>42.5</ele>
        <time>2020-09-30T12:28:33Z</time>
      </trkpt>
      <trkpt lat="49.90268" lon="2.53401">
        <ele>42.5</ele>
        <time>2020-09-30T12:28:34Z</time>
      </trkpt>
      <trkpt lat="49.90268" lon="2.53403">
        <ele>42.5</ele>
        <time>2020-09-30T12:28:36Z</time>
      </trkpt>
      <trkpt lat="49.90268" lon="2.53405">
        <ele>42.5</ele>
        <time>2020-09-30T12:28:37Z</time>
      </trkpt>
      <trkpt lat="49.90268" lon="2.53407">
        <ele>42.5</ele>
        <time>2020-09-30T12:28:38Z</time>
      </trkpt>
      <trkpt lat="49.90268" lon="2.53409">
        <ele>42.5</ele>
        <time>2020-09-30T12:28:39Z</time>
      </trkpt>
      <trkpt lat="49.90268" lon="2.53413">
        <ele>42.6</ele>
        <time>2020-09-30T12:28:40Z</time>
      </trkpt>
      <trkpt lat="49.90268" lon="2.53415">
        <ele>42.6</ele>
        <time>2020-09-30T12:28:42Z</time>
      </trkpt>
      <trkpt lat="49.90268" lon="2.53417">
        <ele>42.6</ele>
        <time>2020-09-30T12:28:43Z</time>
      </trkpt>
      <trkpt lat="49.90269" lon="2.53419">
        <ele>42.6</ele>
        <time>2020-09-30T12:28:44Z</time>
      </trkpt>
      <trkpt lat="49.90269" lon="2.53422">
        <ele>42.6</ele>
        <time>2020-09-30T12:28:45Z</time>
      </trkpt>
      <trkpt lat="49.90269" lon="2.53424">
        <ele>42.6</ele>
        <time>2020-09-30T12:28:46Z</time>
      </trkpt>
      <trkpt lat="49.90269" lon="2.53425">
        <ele>42.6</ele>
        <time>2020-09-30T12:28:47Z</time>
      </trkpt>
      <trkpt lat="49.90269" lon="2.53428">
        <ele>42.6</ele>
        <time>2020-09-30T12:28:48Z</time>
      </trkpt>
      <trkpt lat="49.90269" lon="2.5343">
        <ele>42.7</ele>
        <time>2020-09-30T12:28:49Z</time>
      </trkpt>
      <trkpt lat="49.90269" lon="2.53431">
        <ele>42.7</ele>
        <time>2020-09-30T12:28:50Z</time>
      </trkpt>
      <trkpt lat="49.90269" lon="2.53435">
        <ele>42.7</ele>
        <time>2020-09-30T12:28:52Z</time>
      </trkpt>
      <trkpt lat="49.90269" lon="2.53436">
        <ele>42.7</ele>
        <time>2020-09-30T12:28:53Z</time>
      </trkpt>
      <trkpt lat="49.90269" lon="2.5344">
        <ele>42.7</ele>
        <time>2020-09-30T12:28:54Z</time>
      </trkpt>
      <trkpt lat="49.9027" lon="2.53441">
        <ele>42.7</ele>
        <time>2020-09-30T12:28:56Z</time>
      </trkpt>
      <trkpt lat="49.9027" lon="2.53443">
        <ele>42.7</ele>
        <time>2020-09-30T12:28:57Z</time>
      </trkpt>
      <trkpt lat="49.9027" lon="2.53445">
        <ele>42.7</ele>
        <time>2020-09-30T12:28:58Z</time>
      </trkpt>
      <trkpt lat="49.9027" lon="2.53447">
        <ele>42.7</ele>
        <time>2020-09-30T12:28:59Z</time>
      </trkpt>
      <trkpt lat="49.9027" lon="2.53448">
        <ele>42.7</ele>
        <time>2020-09-30T12:29:00Z</time>
      </trkpt>
      <trkpt lat="49.9027" lon="2.53451">
        <ele>42.7</ele>
        <time>2020-09-30T12:29:01Z</time>
      </trkpt>
      <trkpt lat="49.90271" lon="2.53453">
        <ele>42.7</ele>
        <time>2020-09-30T12:29:02Z</time>
      </trkpt>
      <trkpt lat="49.90271" lon="2.53455">
        <ele>42.7</ele>
        <time>2020-09-30T12:29:03Z</time>
      </trkpt>
      <trkpt lat="49.90271" lon="2.53457">
        <ele>42.7</ele>
        <time>2020-09-30T12:29:04Z</time>
      </trkpt>
      <trkpt lat="49.90271" lon="2.53459">
        <ele>42.7</ele>
        <time>2020-09-30T12:29:06Z</time>
      </trkpt>
      <trkpt lat="49.90271" lon="2.53462">
        <ele>42.8</ele>
        <time>2020-09-30T12:29:07Z</time>
      </trkpt>
      <trkpt lat="49.90271" lon="2.53463">
        <ele>42.8</ele>
        <time>2020-09-30T12:29:08Z</time>
      </trkpt>
      <trkpt lat="49.90271" lon="2.53465">
        <ele>42.8</ele>
        <time>2020-09-30T12:29:09Z</time>
      </trkpt>
      <trkpt lat="49.90271" lon="2.53467">
        <ele>42.8</ele>
        <time>2020-09-30T12:29:11Z</time>
      </trkpt>
      <trkpt lat="49.90272" lon="2.53469">
        <ele>42.8</ele>
        <time>2020-09-30T12:29:12Z</time>
      </trkpt>
      <trkpt lat="49.90272" lon="2.53472">
        <ele>42.8</ele>
        <time>2020-09-30T12:29:13Z</time>
      </trkpt>
      <trkpt lat="49.90272" lon="2.53474">
        <ele>42.8</ele>
        <time>2020-09-30T12:29:14Z</time>
      </trkpt>
      <trkpt lat="49.90272" lon="2.53475">
        <ele>42.8</ele>
        <time>2020-09-30T12:29:15Z</time>
      </trkpt>
      <trkpt lat="49.90272" lon="2.53478">
        <ele>42.8</ele>
        <time>2020-09-30T12:29:16Z</time>
      </trkpt>
      <trkpt lat="49.90272" lon="2.53482">
        <ele>42.8</ele>
        <time>2020-09-30T12:29:18Z</time>
      </trkpt>
      <trkpt lat="49.90273" lon="2.53487">
        <ele>42.8</ele>
        <time>2020-09-30T12:29:20Z</time>
      </trkpt>
      <trkpt lat="49.90273" lon="2.53488">
        <ele>42.8</ele>
        <time>2020-09-30T12:29:22Z</time>
      </trkpt>
      <trkpt lat="49.90273" lon="2.5349">
        <ele>42.8</ele>
        <time>2020-09-30T12:29:23Z</time>
      </trkpt>
      <trkpt lat="49.90274" lon="2.53491">
        <ele>42.8</ele>
        <time>2020-09-30T12:29:24Z</time>
      </trkpt>
      <trkpt lat="49.90274" lon="2.53493">
        <ele>42.8</ele>
        <time>2020-09-30T12:29:25Z</time>
      </trkpt>
      <trkpt lat="49.90274" lon="2.53494">
        <ele>42.8</ele>
        <time>2020-09-30T12:29:26Z</time>
      </trkpt>
      <trkpt lat="49.90275" lon="2.53496">
        <ele>42.8</ele>
        <time>2020-09-30T12:29:27Z</time>
      </trkpt>
      <trkpt lat="49.90275" lon="2.53498">
        <ele>42.8</ele>
        <time>2020-09-30T12:29:28Z</time>
      </trkpt>
      <trkpt lat="49.90275" lon="2.53501">
        <ele>42.8</ele>
        <time>2020-09-30T12:29:29Z</time>
      </trkpt>
      <trkpt lat="49.90276" lon="2.53504">
        <ele>42.9</ele>
        <time>2020-09-30T12:29:31Z</time>
      </trkpt>
      <trkpt lat="49.90276" lon="2.53505">
        <ele>42.9</ele>
        <time>2020-09-30T12:29:32Z</time>
      </trkpt>
      <trkpt lat="49.90276" lon="2.53507">
        <ele>42.9</ele>
        <time>2020-09-30T12:29:33Z</time>
      </trkpt>
      <trkpt lat="49.90276" lon="2.5351">
        <ele>42.9</ele>
        <time>2020-09-30T12:29:34Z</time>
      </trkpt>
      <trkpt lat="49.90276" lon="2.53511">
        <ele>42.9</ele>
        <time>2020-09-30T12:29:35Z</time>
      </trkpt>
      <trkpt lat="49.90276" lon="2.53513">
        <ele>42.9</ele>
        <time>2020-09-30T12:29:36Z</time>
      </trkpt>
      <trkpt lat="49.90277" lon="2.53516">
        <ele>42.9</ele>
        <time>2020-09-30T12:29:37Z</time>
      </trkpt>
      <trkpt lat="49.90277" lon="2.53518">
        <ele>42.9</ele>
        <time>2020-09-30T12:29:38Z</time>
      </trkpt>
      <trkpt lat="49.90277" lon="2.53519">
        <ele>43</ele>
        <time>2020-09-30T12:29:39Z</time>
      </trkpt>
      <trkpt lat="49.90277" lon="2.53521">
        <ele>43</ele>
        <time>2020-09-30T12:29:41Z</time>
      </trkpt>
      <trkpt lat="49.90277" lon="2.53523">
        <ele>43</ele>
        <time>2020-09-30T12:29:42Z</time>
      </trkpt>
      <trkpt lat="49.90277" lon="2.53524">
        <ele>43</ele>
        <time>2020-09-30T12:29:43Z</time>
      </trkpt>
      <trkpt lat="49.90277" lon="2.53526">
        <ele>43</ele>
        <time>2020-09-30T12:29:44Z</time>
      </trkpt>
      <trkpt lat="49.90278" lon="2.53527">
        <ele>43</ele>
        <time>2020-09-30T12:29:45Z</time>
      </trkpt>
      <trkpt lat="49.90278" lon="2.53529">
        <ele>43</ele>
        <time>2020-09-30T12:29:46Z</time>
      </trkpt>
      <trkpt lat="49.90278" lon="2.5353">
        <ele>43</ele>
        <time>2020-09-30T12:29:48Z</time>
      </trkpt>
      <trkpt lat="49.90278" lon="2.53532">
        <ele>43</ele>
        <time>2020-09-30T12:29:49Z</time>
      </trkpt>
      <trkpt lat="49.90279" lon="2.53533">
        <ele>43</ele>
        <time>2020-09-30T12:29:50Z</time>
      </trkpt>
      <trkpt lat="49.9028" lon="2.53536">
        <ele>43</ele>
        <time>2020-09-30T12:29:52Z</time>
      </trkpt>
      <trkpt lat="49.90281" lon="2.53537">
        <ele>43</ele>
        <time>2020-09-30T12:29:53Z</time>
      </trkpt>
      <trkpt lat="49.90281" lon="2.53538">
        <ele>43</ele>
        <time>2020-09-30T12:29:54Z</time>
      </trkpt>
      <trkpt lat="49.90281" lon="2.5354">
        <ele>43</ele>
        <time>2020-09-30T12:29:55Z</time>
      </trkpt>
      <trkpt lat="49.90282" lon="2.53542">
        <ele>43</ele>
        <time>2020-09-30T12:29:56Z</time>
      </trkpt>
      <trkpt lat="49.90282" lon="2.53544">
        <ele>43</ele>
        <time>2020-09-30T12:29:57Z</time>
      </trkpt>
      <trkpt lat="49.90282" lon="2.53546">
        <ele>43</ele>
        <time>2020-09-30T12:29:58Z</time>
      </trkpt>
      <trkpt lat="49.90282" lon="2.53548">
        <ele>43.1</ele>
        <time>2020-09-30T12:30:00Z</time>
      </trkpt>
      <trkpt lat="49.90283" lon="2.5355">
        <ele>43.1</ele>
        <time>2020-09-30T12:30:01Z</time>
      </trkpt>
      <trkpt lat="49.90283" lon="2.53553">
        <ele>43.1</ele>
        <time>2020-09-30T12:30:02Z</time>
      </trkpt>
      <trkpt lat="49.90283" lon="2.53555">
        <ele>43.1</ele>
        <time>2020-09-30T12:30:03Z</time>
      </trkpt>
      <trkpt lat="49.90283" lon="2.53558">
        <ele>43.1</ele>
        <time>2020-09-30T12:30:05Z</time>
      </trkpt>
      <trkpt lat="49.90283" lon="2.53559">
        <ele>43.1</ele>
        <time>2020-09-30T12:30:06Z</time>
      </trkpt>
      <trkpt lat="49.90283" lon="2.53561">
        <ele>43.1</ele>
        <time>2020-09-30T12:30:07Z</time>
      </trkpt>
      <trkpt lat="49.90283" lon="2.53563">
        <ele>43.1</ele>
        <time>2020-09-30T12:30:08Z</time>
      </trkpt>
      <trkpt lat="49.90283" lon="2.53567">
        <ele>43.1</ele>
        <time>2020-09-30T12:30:09Z</time>
      </trkpt>
      <trkpt lat="49.90283" lon="2.53568">
        <ele>43.1</ele>
        <time>2020-09-30T12:30:10Z</time>
      </trkpt>
      <trkpt lat="49.90283" lon="2.5357">
        <ele>43.1</ele>
        <time>2020-09-30T12:30:12Z</time>
      </trkpt>
      <trkpt lat="49.90283" lon="2.53571">
        <ele>43.1</ele>
        <time>2020-09-30T12:30:13Z</time>
      </trkpt>
      <trkpt lat="49.90283" lon="2.53573">
        <ele>43.1</ele>
        <time>2020-09-30T12:30:14Z</time>
      </trkpt>
      <trkpt lat="49.90283" lon="2.53574">
        <ele>43.1</ele>
        <time>2020-09-30T12:30:15Z</time>
      </trkpt>
      <trkpt lat="49.90282" lon="2.53577">
        <ele>43.1</ele>
        <time>2020-09-30T12:30:16Z</time>
      </trkpt>
      <trkpt lat="49.90282" lon="2.53579">
        <ele>43.1</ele>
        <time>2020-09-30T12:30:18Z</time>
      </trkpt>
      <trkpt lat="49.90283" lon="2.53581">
        <ele>43.1</ele>
        <time>2020-09-30T12:30:19Z</time>
      </trkpt>
      <trkpt lat="49.90283" lon="2.53582">
        <ele>43.1</ele>
        <time>2020-09-30T12:30:20Z</time>
      </trkpt>
      <trkpt lat="49.90283" lon="2.53584">
        <ele>43.1</ele>
        <time>2020-09-30T12:30:21Z</time>
      </trkpt>
      <trkpt lat="49.90283" lon="2.53586">
        <ele>43.1</ele>
        <time>2020-09-30T12:30:22Z</time>
      </trkpt>
      <trkpt lat="49.90283" lon="2.53588">
        <ele>43.1</ele>
        <time>2020-09-30T12:30:23Z</time>
      </trkpt>
      <trkpt lat="49.90284" lon="2.53589">
        <ele>43.1</ele>
        <time>2020-09-30T12:30:24Z</time>
      </trkpt>
      <trkpt lat="49.90284" lon="2.53591">
        <ele>43.1</ele>
        <time>2020-09-30T12:30:25Z</time>
      </trkpt>
      <trkpt lat="49.90284" lon="2.53592">
        <ele>43.1</ele>
        <time>2020-09-30T12:30:27Z</time>
      </trkpt>
      <trkpt lat="49.90284" lon="2.53595">
        <ele>43.1</ele>
        <time>2020-09-30T12:30:28Z</time>
      </trkpt>
      <trkpt lat="49.90284" lon="2.53596">
        <ele>43.1</ele>
        <time>2020-09-30T12:30:29Z</time>
      </trkpt>
      <trkpt lat="49.90285" lon="2.53598">
        <ele>43.1</ele>
        <time>2020-09-30T12:30:31Z</time>
      </trkpt>
      <trkpt lat="49.90285" lon="2.536">
        <ele>43.1</ele>
        <time>2020-09-30T12:30:32Z</time>
      </trkpt>
      <trkpt lat="49.90286" lon="2.53602">
        <ele>43.1</ele>
        <time>2020-09-30T12:30:33Z</time>
      </trkpt>
      <trkpt lat="49.90286" lon="2.53604">
        <ele>43.1</ele>
        <time>2020-09-30T12:30:34Z</time>
      </trkpt>
      <trkpt lat="49.90286" lon="2.53606">
        <ele>43.2</ele>
        <time>2020-09-30T12:30:35Z</time>
      </trkpt>
      <trkpt lat="49.90286" lon="2.53607">
        <ele>43.2</ele>
        <time>2020-09-30T12:30:37Z</time>
      </trkpt>
      <trkpt lat="49.90287" lon="2.53609">
        <ele>43.2</ele>
        <time>2020-09-30T12:30:38Z</time>
      </trkpt>
      <trkpt lat="49.90287" lon="2.5361">
        <ele>43.2</ele>
        <time>2020-09-30T12:30:39Z</time>
      </trkpt>
      <trkpt lat="49.90287" lon="2.53612">
        <ele>43.2</ele>
        <time>2020-09-30T12:30:40Z</time>
      </trkpt>
      <trkpt lat="49.90287" lon="2.53615">
        <ele>43.2</ele>
        <time>2020-09-30T12:30:42Z</time>
      </trkpt>
      <trkpt lat="49.90287" lon="2.53617">
        <ele>43.2</ele>
        <time>2020-09-30T12:30:43Z</time>
      </trkpt>
      <trkpt lat="49.90287" lon="2.5362">
        <ele>43.3</ele>
        <time>2020-09-30T12:30:44Z</time>
      </trkpt>
      <trkpt lat="49.90288" lon="2.53623">
        <ele>43.3</ele>
        <time>2020-09-30T12:30:45Z</time>
      </trkpt>
      <trkpt lat="49.90288" lon="2.53625">
        <ele>43.3</ele>
        <time>2020-09-30T12:30:47Z</time>
      </trkpt>
      <trkpt lat="49.90288" lon="2.53626">
        <ele>43.3</ele>
        <time>2020-09-30T12:30:48Z</time>
      </trkpt>
      <trkpt lat="49.90288" lon="2.53628">
        <ele>43.4</ele>
        <time>2020-09-30T12:30:49Z</time>
      </trkpt>
      <trkpt lat="49.90288" lon="2.53631">
        <ele>43.4</ele>
        <time>2020-09-30T12:30:50Z</time>
      </trkpt>
      <trkpt lat="49.90289" lon="2.53634">
        <ele>43.5</ele>
        <time>2020-09-30T12:30:52Z</time>
      </trkpt>
      <trkpt lat="49.90289" lon="2.53636">
        <ele>43.5</ele>
        <time>2020-09-30T12:30:53Z</time>
      </trkpt>
      <trkpt lat="49.90289" lon="2.53637">
        <ele>43.5</ele>
        <time>2020-09-30T12:30:54Z</time>
      </trkpt>
      <trkpt lat="49.90289" lon="2.53639">
        <ele>43.5</ele>
        <time>2020-09-30T12:30:55Z</time>
      </trkpt>
      <trkpt lat="49.90289" lon="2.53642">
        <ele>43.5</ele>
        <time>2020-09-30T12:30:56Z</time>
      </trkpt>
      <trkpt lat="49.90289" lon="2.53645">
        <ele>43.6</ele>
        <time>2020-09-30T12:30:57Z</time>
      </trkpt>
      <trkpt lat="49.9029" lon="2.53646">
        <ele>43.6</ele>
        <time>2020-09-30T12:30:58Z</time>
      </trkpt>
      <trkpt lat="49.9029" lon="2.53647">
        <ele>43.6</ele>
        <time>2020-09-30T12:30:59Z</time>
      </trkpt>
      <trkpt lat="49.9029" lon="2.53649">
        <ele>43.6</ele>
        <time>2020-09-30T12:31:01Z</time>
      </trkpt>
      <trkpt lat="49.9029" lon="2.53651">
        <ele>43.7</ele>
        <time>2020-09-30T12:31:02Z</time>
      </trkpt>
      <trkpt lat="49.9029" lon="2.53653">
        <ele>43.7</ele>
        <time>2020-09-30T12:31:03Z</time>
      </trkpt>
      <trkpt lat="49.9029" lon="2.53655">
        <ele>43.7</ele>
        <time>2020-09-30T12:31:04Z</time>
      </trkpt>
      <trkpt lat="49.90291" lon="2.53657">
        <ele>43.7</ele>
        <time>2020-09-30T12:31:05Z</time>
      </trkpt>
      <trkpt lat="49.90291" lon="2.53659">
        <ele>43.7</ele>
        <time>2020-09-30T12:31:07Z</time>
      </trkpt>
      <trkpt lat="49.90292" lon="2.53662">
        <ele>43.8</ele>
        <time>2020-09-30T12:31:08Z</time>
      </trkpt>
      <trkpt lat="49.90292" lon="2.53664">
        <ele>43.8</ele>
        <time>2020-09-30T12:31:09Z</time>
      </trkpt>
      <trkpt lat="49.90293" lon="2.53666">
        <ele>43.8</ele>
        <time>2020-09-30T12:31:10Z</time>
      </trkpt>
      <trkpt lat="49.90293" lon="2.53668">
        <ele>43.8</ele>
        <time>2020-09-30T12:31:11Z</time>
      </trkpt>
      <trkpt lat="49.90294" lon="2.5367">
        <ele>43.8</ele>
        <time>2020-09-30T12:31:13Z</time>
      </trkpt>
      <trkpt lat="49.90294" lon="2.53672">
        <ele>43.8</ele>
        <time>2020-09-30T12:31:14Z</time>
      </trkpt>
      <trkpt lat="49.90295" lon="2.53675">
        <ele>43.9</ele>
        <time>2020-09-30T12:31:15Z</time>
      </trkpt>
      <trkpt lat="49.90295" lon="2.53677">
        <ele>43.9</ele>
        <time>2020-09-30T12:31:16Z</time>
      </trkpt>
      <trkpt lat="49.90295" lon="2.53678">
        <ele>43.9</ele>
        <time>2020-09-30T12:31:17Z</time>
      </trkpt>
      <trkpt lat="49.90296" lon="2.5368">
        <ele>43.9</ele>
        <time>2020-09-30T12:31:18Z</time>
      </trkpt>
      <trkpt lat="49.90296" lon="2.53684">
        <ele>43.9</ele>
        <time>2020-09-30T12:31:20Z</time>
      </trkpt>
      <trkpt lat="49.90297" lon="2.53686">
        <ele>44</ele>
        <time>2020-09-30T12:31:21Z</time>
      </trkpt>
      <trkpt lat="49.90297" lon="2.5369">
        <ele>44</ele>
        <time>2020-09-30T12:31:23Z</time>
      </trkpt>
      <trkpt lat="49.90297" lon="2.53691">
        <ele>44</ele>
        <time>2020-09-30T12:31:24Z</time>
      </trkpt>
      <trkpt lat="49.90298" lon="2.53693">
        <ele>44</ele>
        <time>2020-09-30T12:31:25Z</time>
      </trkpt>
      <trkpt lat="49.90298" lon="2.53696">
        <ele>44</ele>
        <time>2020-09-30T12:31:26Z</time>
      </trkpt>
      <trkpt lat="49.90298" lon="2.53697">
        <ele>44</ele>
        <time>2020-09-30T12:31:27Z</time>
      </trkpt>
      <trkpt lat="49.90299" lon="2.537">
        <ele>44.1</ele>
        <time>2020-09-30T12:31:29Z</time>
      </trkpt>
      <trkpt lat="49.90299" lon="2.53701">
        <ele>44.1</ele>
        <time>2020-09-30T12:31:30Z</time>
      </trkpt>
      <trkpt lat="49.90299" lon="2.53703">
        <ele>44.1</ele>
        <time>2020-09-30T12:31:31Z</time>
      </trkpt>
      <trkpt lat="49.903" lon="2.53705">
        <ele>44.1</ele>
        <time>2020-09-30T12:31:32Z</time>
      </trkpt>
      <trkpt lat="49.903" lon="2.53707">
        <ele>44.1</ele>
        <time>2020-09-30T12:31:33Z</time>
      </trkpt>
      <trkpt lat="49.90301" lon="2.53709">
        <ele>44.1</ele>
        <time>2020-09-30T12:31:34Z</time>
      </trkpt>
      <trkpt lat="49.90301" lon="2.5371">
        <ele>44.1</ele>
        <time>2020-09-30T12:31:35Z</time>
      </trkpt>
      <trkpt lat="49.90301" lon="2.53712">
        <ele>44.2</ele>
        <time>2020-09-30T12:31:36Z</time>
      </trkpt>
      <trkpt lat="49.90302" lon="2.53715">
        <ele>44.2</ele>
        <time>2020-09-30T12:31:38Z</time>
      </trkpt>
      <trkpt lat="49.90302" lon="2.53717">
        <ele>44.2</ele>
        <time>2020-09-30T12:31:39Z</time>
      </trkpt>
      <trkpt lat="49.90302" lon="2.53718">
        <ele>44.2</ele>
        <time>2020-09-30T12:31:40Z</time>
      </trkpt>
      <trkpt lat="49.90303" lon="2.53723">
        <ele>44.2</ele>
        <time>2020-09-30T12:31:41Z</time>
      </trkpt>
      <trkpt lat="49.90304" lon="2.53724">
        <ele>44.3</ele>
        <time>2020-09-30T12:31:43Z</time>
      </trkpt>
      <trkpt lat="49.90304" lon="2.53726">
        <ele>44.3</ele>
        <time>2020-09-30T12:31:44Z</time>
      </trkpt>
      <trkpt lat="49.90304" lon="2.53728">
        <ele>44.3</ele>
        <time>2020-09-30T12:31:45Z</time>
      </trkpt>
      <trkpt lat="49.90304" lon="2.5373">
        <ele>44.3</ele>
        <time>2020-09-30T12:31:46Z</time>
      </trkpt>
      <trkpt lat="49.90305" lon="2.53732">
        <ele>44.3</ele>
        <time>2020-09-30T12:31:47Z</time>
      </trkpt>
      <trkpt lat="49.90305" lon="2.53733">
        <ele>44.3</ele>
        <time>2020-09-30T12:31:48Z</time>
      </trkpt>
      <trkpt lat="49.90305" lon="2.53735">
        <ele>44.3</ele>
        <time>2020-09-30T12:31:49Z</time>
      </trkpt>
      <trkpt lat="49.90305" lon="2.53737">
        <ele>44.3</ele>
        <time>2020-09-30T12:31:50Z</time>
      </trkpt>
      <trkpt lat="49.90305" lon="2.53741">
        <ele>44.4</ele>
        <time>2020-09-30T12:31:51Z</time>
      </trkpt>
      <trkpt lat="49.90305" lon="2.53742">
        <ele>44.4</ele>
        <time>2020-09-30T12:31:53Z</time>
      </trkpt>
      <trkpt lat="49.90306" lon="2.53744">
        <ele>44.4</ele>
        <time>2020-09-30T12:31:54Z</time>
      </trkpt>
      <trkpt lat="49.90306" lon="2.53746">
        <ele>44.4</ele>
        <time>2020-09-30T12:31:55Z</time>
      </trkpt>
      <trkpt lat="49.90306" lon="2.53748">
        <ele>44.4</ele>
        <time>2020-09-30T12:31:56Z</time>
      </trkpt>
      <trkpt lat="49.90306" lon="2.5375">
        <ele>44.4</ele>
        <time>2020-09-30T12:31:58Z</time>
      </trkpt>
      <trkpt lat="49.90306" lon="2.53752">
        <ele>44.4</ele>
        <time>2020-09-30T12:31:59Z</time>
      </trkpt>
      <trkpt lat="49.90306" lon="2.53754">
        <ele>44.4</ele>
        <time>2020-09-30T12:32:00Z</time>
      </trkpt>
      <trkpt lat="49.90306" lon="2.53755">
        <ele>44.4</ele>
        <time>2020-09-30T12:32:01Z</time>
      </trkpt>
      <trkpt lat="49.90307" lon="2.53759">
        <ele>44.4</ele>
        <time>2020-09-30T12:32:02Z</time>
      </trkpt>
      <trkpt lat="49.90307" lon="2.5376">
        <ele>44.4</ele>
        <time>2020-09-30T12:32:03Z</time>
      </trkpt>
      <trkpt lat="49.90307" lon="2.53761">
        <ele>44.4</ele>
        <time>2020-09-30T12:32:04Z</time>
      </trkpt>
      <trkpt lat="49.90307" lon="2.53764">
        <ele>44.4</ele>
        <time>2020-09-30T12:32:05Z</time>
      </trkpt>
      <trkpt lat="49.90307" lon="2.53765">
        <ele>44.5</ele>
        <time>2020-09-30T12:32:06Z</time>
      </trkpt>
      <trkpt lat="49.90307" lon="2.53767">
        <ele>44.5</ele>
        <time>2020-09-30T12:32:07Z</time>
      </trkpt>
      <trkpt lat="49.90308" lon="2.53769">
        <ele>44.5</ele>
        <time>2020-09-30T12:32:09Z</time>
      </trkpt>
      <trkpt lat="49.90308" lon="2.53771">
        <ele>44.5</ele>
        <time>2020-09-30T12:32:10Z</time>
      </trkpt>
      <trkpt lat="49.90309" lon="2.53773">
        <ele>44.5</ele>
        <time>2020-09-30T12:32:12Z</time>
      </trkpt>
      <trkpt lat="49.90309" lon="2.53776">
        <ele>44.5</ele>
        <time>2020-09-30T12:32:13Z</time>
      </trkpt>
      <trkpt lat="49.9031" lon="2.53778">
        <ele>44.5</ele>
        <time>2020-09-30T12:32:15Z</time>
      </trkpt>
      <trkpt lat="49.90311" lon="2.53779">
        <ele>44.5</ele>
        <time>2020-09-30T12:32:16Z</time>
      </trkpt>
      <trkpt lat="49.90312" lon="2.53781">
        <ele>44.5</ele>
        <time>2020-09-30T12:32:17Z</time>
      </trkpt>
      <trkpt lat="49.90312" lon="2.53783">
        <ele>44.5</ele>
        <time>2020-09-30T12:32:18Z</time>
      </trkpt>
      <trkpt lat="49.90313" lon="2.53784">
        <ele>44.5</ele>
        <time>2020-09-30T12:32:19Z</time>
      </trkpt>
      <trkpt lat="49.90313" lon="2.53786">
        <ele>44.5</ele>
        <time>2020-09-30T12:32:20Z</time>
      </trkpt>
      <trkpt lat="49.90314" lon="2.53789">
        <ele>44.5</ele>
        <time>2020-09-30T12:32:21Z</time>
      </trkpt>
      <trkpt lat="49.90315" lon="2.5379">
        <ele>44.5</ele>
        <time>2020-09-30T12:32:22Z</time>
      </trkpt>
      <trkpt lat="49.90315" lon="2.53792">
        <ele>44.5</ele>
        <time>2020-09-30T12:32:24Z</time>
      </trkpt>
      <trkpt lat="49.90315" lon="2.53794">
        <ele>44.5</ele>
        <time>2020-09-30T12:32:25Z</time>
      </trkpt>
      <trkpt lat="49.90316" lon="2.53795">
        <ele>44.5</ele>
        <time>2020-09-30T12:32:26Z</time>
      </trkpt>
      <trkpt lat="49.90317" lon="2.53798">
        <ele>44.4</ele>
        <time>2020-09-30T12:32:27Z</time>
      </trkpt>
      <trkpt lat="49.90317" lon="2.538">
        <ele>44.4</ele>
        <time>2020-09-30T12:32:28Z</time>
      </trkpt>
      <trkpt lat="49.90318" lon="2.53803">
        <ele>44.4</ele>
        <time>2020-09-30T12:32:29Z</time>
      </trkpt>
      <trkpt lat="49.90319" lon="2.53804">
        <ele>44.4</ele>
        <time>2020-09-30T12:32:30Z</time>
      </trkpt>
      <trkpt lat="49.90319" lon="2.53806">
        <ele>44.4</ele>
        <time>2020-09-30T12:32:31Z</time>
      </trkpt>
      <trkpt lat="49.90319" lon="2.53807">
        <ele>44.4</ele>
        <time>2020-09-30T12:32:33Z</time>
      </trkpt>
      <trkpt lat="49.9032" lon="2.53809">
        <ele>44.4</ele>
        <time>2020-09-30T12:32:34Z</time>
      </trkpt>
      <trkpt lat="49.9032" lon="2.5381">
        <ele>44.4</ele>
        <time>2020-09-30T12:32:35Z</time>
      </trkpt>
      <trkpt lat="49.9032" lon="2.53812">
        <ele>44.4</ele>
        <time>2020-09-30T12:32:36Z</time>
      </trkpt>
      <trkpt lat="49.90321" lon="2.53815">
        <ele>44.3</ele>
        <time>2020-09-30T12:32:37Z</time>
      </trkpt>
      <trkpt lat="49.90321" lon="2.53816">
        <ele>44.3</ele>
        <time>2020-09-30T12:32:38Z</time>
      </trkpt>
      <trkpt lat="49.90322" lon="2.53818">
        <ele>44.3</ele>
        <time>2020-09-30T12:32:39Z</time>
      </trkpt>
      <trkpt lat="49.90322" lon="2.5382">
        <ele>44.3</ele>
        <time>2020-09-30T12:32:40Z</time>
      </trkpt>
      <trkpt lat="49.90323" lon="2.53823">
        <ele>44.3</ele>
        <time>2020-09-30T12:32:42Z</time>
      </trkpt>
      <trkpt lat="49.90323" lon="2.53824">
        <ele>44.3</ele>
        <time>2020-09-30T12:32:43Z</time>
      </trkpt>
      <trkpt lat="49.90324" lon="2.53827">
        <ele>44.3</ele>
        <time>2020-09-30T12:32:44Z</time>
      </trkpt>
      <trkpt lat="49.90324" lon="2.53829">
        <ele>44.2</ele>
        <time>2020-09-30T12:32:45Z</time>
      </trkpt>
      <trkpt lat="49.90325" lon="2.5383">
        <ele>44.2</ele>
        <time>2020-09-30T12:32:46Z</time>
      </trkpt>
      <trkpt lat="49.90325" lon="2.53833">
        <ele>44.2</ele>
        <time>2020-09-30T12:32:47Z</time>
      </trkpt>
      <trkpt lat="49.90326" lon="2.53836">
        <ele>44.1</ele>
        <time>2020-09-30T12:32:48Z</time>
      </trkpt>
      <trkpt lat="49.90326" lon="2.53838">
        <ele>44.1</ele>
        <time>2020-09-30T12:32:50Z</time>
      </trkpt>
      <trkpt lat="49.90326" lon="2.53839">
        <ele>44.1</ele>
        <time>2020-09-30T12:32:51Z</time>
      </trkpt>
      <trkpt lat="49.90327" lon="2.53843">
        <ele>44.1</ele>
        <time>2020-09-30T12:32:52Z</time>
      </trkpt>
      <trkpt lat="49.90327" lon="2.53844">
        <ele>44.1</ele>
        <time>2020-09-30T12:32:53Z</time>
      </trkpt>
      <trkpt lat="49.90327" lon="2.53846">
        <ele>44</ele>
        <time>2020-09-30T12:32:54Z</time>
      </trkpt>
      <trkpt lat="49.90328" lon="2.53847">
        <ele>44</ele>
        <time>2020-09-30T12:32:56Z</time>
      </trkpt>
      <trkpt lat="49.90328" lon="2.5385">
        <ele>44</ele>
        <time>2020-09-30T12:32:57Z</time>
      </trkpt>
      <trkpt lat="49.90329" lon="2.53853">
        <ele>43.9</ele>
        <time>2020-09-30T12:32:58Z</time>
      </trkpt>
      <trkpt lat="49.90329" lon="2.53854">
        <ele>43.9</ele>
        <time>2020-09-30T12:32:59Z</time>
      </trkpt>
      <trkpt lat="49.9033" lon="2.53856">
        <ele>43.9</ele>
        <time>2020-09-30T12:33:00Z</time>
      </trkpt>
      <trkpt lat="49.90331" lon="2.53859">
        <ele>43.9</ele>
        <time>2020-09-30T12:33:01Z</time>
      </trkpt>
      <trkpt lat="49.90331" lon="2.53861">
        <ele>43.9</ele>
        <time>2020-09-30T12:33:02Z</time>
      </trkpt>
      <trkpt lat="49.90332" lon="2.53863">
        <ele>43.9</ele>
        <time>2020-09-30T12:33:03Z</time>
      </trkpt>
      <trkpt lat="49.90332" lon="2.53864">
        <ele>43.8</ele>
        <time>2020-09-30T12:33:04Z</time>
      </trkpt>
      <trkpt lat="49.90332" lon="2.53866">
        <ele>43.8</ele>
        <time>2020-09-30T12:33:05Z</time>
      </trkpt>
      <trkpt lat="49.90333" lon="2.53869">
        <ele>43.8</ele>
        <time>2020-09-30T12:33:07Z</time>
      </trkpt>
      <trkpt lat="49.90333" lon="2.53871">
        <ele>43.8</ele>
        <time>2020-09-30T12:33:08Z</time>
      </trkpt>
      <trkpt lat="49.90334" lon="2.53874">
        <ele>43.8</ele>
        <time>2020-09-30T12:33:09Z</time>
      </trkpt>
      <trkpt lat="49.90334" lon="2.53875">
        <ele>43.8</ele>
        <time>2020-09-30T12:33:10Z</time>
      </trkpt>
      <trkpt lat="49.90334" lon="2.53876">
        <ele>43.8</ele>
        <time>2020-09-30T12:33:11Z</time>
      </trkpt>
      <trkpt lat="49.90335" lon="2.5388">
        <ele>43.7</ele>
        <time>2020-09-30T12:33:12Z</time>
      </trkpt>
      <trkpt lat="49.90336" lon="2.53882">
        <ele>43.7</ele>
        <time>2020-09-30T12:33:14Z</time>
      </trkpt>
      <trkpt lat="49.90336" lon="2.53883">
        <ele>43.7</ele>
        <time>2020-09-30T12:33:15Z</time>
      </trkpt>
      <trkpt lat="49.90337" lon="2.53884">
        <ele>43.7</ele>
        <time>2020-09-30T12:33:16Z</time>
      </trkpt>
      <trkpt lat="49.90337" lon="2.53886">
        <ele>43.7</ele>
        <time>2020-09-30T12:33:17Z</time>
      </trkpt>
      <trkpt lat="49.90338" lon="2.53889">
        <ele>43.7</ele>
        <time>2020-09-30T12:33:18Z</time>
      </trkpt>
      <trkpt lat="49.90338" lon="2.5389">
        <ele>43.7</ele>
        <time>2020-09-30T12:33:19Z</time>
      </trkpt>
      <trkpt lat="49.90339" lon="2.53891">
        <ele>43.7</ele>
        <time>2020-09-30T12:33:20Z</time>
      </trkpt>
      <trkpt lat="49.90339" lon="2.53894">
        <ele>43.6</ele>
        <time>2020-09-30T12:33:22Z</time>
      </trkpt>
      <trkpt lat="49.9034" lon="2.53896">
        <ele>43.6</ele>
        <time>2020-09-30T12:33:23Z</time>
      </trkpt>
      <trkpt lat="49.9034" lon="2.53898">
        <ele>43.6</ele>
        <time>2020-09-30T12:33:24Z</time>
      </trkpt>
      <trkpt lat="49.90341" lon="2.539">
        <ele>43.5</ele>
        <time>2020-09-30T12:33:25Z</time>
      </trkpt>
      <trkpt lat="49.90342" lon="2.53904">
        <ele>43.5</ele>
        <time>2020-09-30T12:33:26Z</time>
      </trkpt>
      <trkpt lat="49.90342" lon="2.53905">
        <ele>43.5</ele>
        <time>2020-09-30T12:33:28Z</time>
      </trkpt>
      <trkpt lat="49.90342" lon="2.53907">
        <ele>43.5</ele>
        <time>2020-09-30T12:33:29Z</time>
      </trkpt>
      <trkpt lat="49.90343" lon="2.5391">
        <ele>43.4</ele>
        <time>2020-09-30T12:33:30Z</time>
      </trkpt>
      <trkpt lat="49.90343" lon="2.53911">
        <ele>43.4</ele>
        <time>2020-09-30T12:33:31Z</time>
      </trkpt>
      <trkpt lat="49.90343" lon="2.53912">
        <ele>43.4</ele>
        <time>2020-09-30T12:33:32Z</time>
      </trkpt>
      <trkpt lat="49.90344" lon="2.53916">
        <ele>43.3</ele>
        <time>2020-09-30T12:33:33Z</time>
      </trkpt>
      <trkpt lat="49.90344" lon="2.53917">
        <ele>43.3</ele>
        <time>2020-09-30T12:33:34Z</time>
      </trkpt>
      <trkpt lat="49.90345" lon="2.53918">
        <ele>43.3</ele>
        <time>2020-09-30T12:33:35Z</time>
      </trkpt>
      <trkpt lat="49.90345" lon="2.5392">
        <ele>43.3</ele>
        <time>2020-09-30T12:33:36Z</time>
      </trkpt>
      <trkpt lat="49.90346" lon="2.53922">
        <ele>43.3</ele>
        <time>2020-09-30T12:33:37Z</time>
      </trkpt>
      <trkpt lat="49.90347" lon="2.53923">
        <ele>43.2</ele>
        <time>2020-09-30T12:33:39Z</time>
      </trkpt>
      <trkpt lat="49.90347" lon="2.53925">
        <ele>43.2</ele>
        <time>2020-09-30T12:33:40Z</time>
      </trkpt>
      <trkpt lat="49.90348" lon="2.53926">
        <ele>43.2</ele>
        <time>2020-09-30T12:33:41Z</time>
      </trkpt>
      <trkpt lat="49.90348" lon="2.53928">
        <ele>43.2</ele>
        <time>2020-09-30T12:33:42Z</time>
      </trkpt>
      <trkpt lat="49.90349" lon="2.5393">
        <ele>43.2</ele>
        <time>2020-09-30T12:33:43Z</time>
      </trkpt>
      <trkpt lat="49.9035" lon="2.53933">
        <ele>43.1</ele>
        <time>2020-09-30T12:33:44Z</time>
      </trkpt>
      <trkpt lat="49.9035" lon="2.53935">
        <ele>43.1</ele>
        <time>2020-09-30T12:33:46Z</time>
      </trkpt>
      <trkpt lat="49.90351" lon="2.53937">
        <ele>43.1</ele>
        <time>2020-09-30T12:33:47Z</time>
      </trkpt>
      <trkpt lat="49.90352" lon="2.53939">
        <ele>43.1</ele>
        <time>2020-09-30T12:33:48Z</time>
      </trkpt>
      <trkpt lat="49.90353" lon="2.53941">
        <ele>43.1</ele>
        <time>2020-09-30T12:33:49Z</time>
      </trkpt>
      <trkpt lat="49.90353" lon="2.53942">
        <ele>43.1</ele>
        <time>2020-09-30T12:33:50Z</time>
      </trkpt>
      <trkpt lat="49.90353" lon="2.53944">
        <ele>43.1</ele>
        <time>2020-09-30T12:33:52Z</time>
      </trkpt>
      <trkpt lat="49.90354" lon="2.53946">
        <ele>43.1</ele>
        <time>2020-09-30T12:33:53Z</time>
      </trkpt>
      <trkpt lat="49.90355" lon="2.53948">
        <ele>43</ele>
        <time>2020-09-30T12:33:54Z</time>
      </trkpt>
      <trkpt lat="49.90355" lon="2.5395">
        <ele>43</ele>
        <time>2020-09-30T12:33:55Z</time>
      </trkpt>
      <trkpt lat="49.90356" lon="2.53951">
        <ele>43</ele>
        <time>2020-09-30T12:33:56Z</time>
      </trkpt>
      <trkpt lat="49.90356" lon="2.53953">
        <ele>43</ele>
        <time>2020-09-30T12:33:58Z</time>
      </trkpt>
      <trkpt lat="49.90357" lon="2.53955">
        <ele>43</ele>
        <time>2020-09-30T12:33:59Z</time>
      </trkpt>
      <trkpt lat="49.90358" lon="2.53958">
        <ele>43</ele>
        <time>2020-09-30T12:34:00Z</time>
      </trkpt>
      <trkpt lat="49.90358" lon="2.53959">
        <ele>43.1</ele>
        <time>2020-09-30T12:34:01Z</time>
      </trkpt>
      <trkpt lat="49.90359" lon="2.53961">
        <ele>43.1</ele>
        <time>2020-09-30T12:34:02Z</time>
      </trkpt>
      <trkpt lat="49.90359" lon="2.53963">
        <ele>43.1</ele>
        <time>2020-09-30T12:34:03Z</time>
      </trkpt>
      <trkpt lat="49.9036" lon="2.53966">
        <ele>43.1</ele>
        <time>2020-09-30T12:34:05Z</time>
      </trkpt>
      <trkpt lat="49.9036" lon="2.53967">
        <ele>43.1</ele>
        <time>2020-09-30T12:34:06Z</time>
      </trkpt>
      <trkpt lat="49.9036" lon="2.53969">
        <ele>43.1</ele>
        <time>2020-09-30T12:34:07Z</time>
      </trkpt>
      <trkpt lat="49.90361" lon="2.53971">
        <ele>43.1</ele>
        <time>2020-09-30T12:34:08Z</time>
      </trkpt>
      <trkpt lat="49.90361" lon="2.53973">
        <ele>43.1</ele>
        <time>2020-09-30T12:34:09Z</time>
      </trkpt>
      <trkpt lat="49.90362" lon="2.53976">
        <ele>43.1</ele>
        <time>2020-09-30T12:34:11Z</time>
      </trkpt>
      <trkpt lat="49.90362" lon="2.53978">
        <ele>43.1</ele>
        <time>2020-09-30T12:34:12Z</time>
      </trkpt>
      <trkpt lat="49.90363" lon="2.53979">
        <ele>43.1</ele>
        <time>2020-09-30T12:34:13Z</time>
      </trkpt>
      <trkpt lat="49.90363" lon="2.53982">
        <ele>43.1</ele>
        <time>2020-09-30T12:34:14Z</time>
      </trkpt>
      <trkpt lat="49.90364" lon="2.53984">
        <ele>43.1</ele>
        <time>2020-09-30T12:34:15Z</time>
      </trkpt>
      <trkpt lat="49.90364" lon="2.53985">
        <ele>43.1</ele>
        <time>2020-09-30T12:34:16Z</time>
      </trkpt>
      <trkpt lat="49.90364" lon="2.53987">
        <ele>43.1</ele>
        <time>2020-09-30T12:34:18Z</time>
      </trkpt>
      <trkpt lat="49.90365" lon="2.53989">
        <ele>43.1</ele>
        <time>2020-09-30T12:34:19Z</time>
      </trkpt>
      <trkpt lat="49.90366" lon="2.53994">
        <ele>43</ele>
        <time>2020-09-30T12:34:21Z</time>
      </trkpt>
      <trkpt lat="49.90367" lon="2.53995">
        <ele>43</ele>
        <time>2020-09-30T12:34:22Z</time>
      </trkpt>
      <trkpt lat="49.90367" lon="2.53998">
        <ele>43</ele>
        <time>2020-09-30T12:34:23Z</time>
      </trkpt>
      <trkpt lat="49.90368" lon="2.54">
        <ele>43</ele>
        <time>2020-09-30T12:34:25Z</time>
      </trkpt>
      <trkpt lat="49.90368" lon="2.54001">
        <ele>43</ele>
        <time>2020-09-30T12:34:26Z</time>
      </trkpt>
      <trkpt lat="49.90368" lon="2.54004">
        <ele>43</ele>
        <time>2020-09-30T12:34:27Z</time>
      </trkpt>
      <trkpt lat="49.90369" lon="2.54006">
        <ele>43</ele>
        <time>2020-09-30T12:34:28Z</time>
      </trkpt>
      <trkpt lat="49.90369" lon="2.54009">
        <ele>43</ele>
        <time>2020-09-30T12:34:29Z</time>
      </trkpt>
      <trkpt lat="49.9037" lon="2.54011">
        <ele>43</ele>
        <time>2020-09-30T12:34:30Z</time>
      </trkpt>
      <trkpt lat="49.90371" lon="2.54014">
        <ele>43</ele>
        <time>2020-09-30T12:34:31Z</time>
      </trkpt>
      <trkpt lat="49.90371" lon="2.54016">
        <ele>43</ele>
        <time>2020-09-30T12:34:33Z</time>
      </trkpt>
      <trkpt lat="49.90371" lon="2.54017">
        <ele>43</ele>
        <time>2020-09-30T12:34:34Z</time>
      </trkpt>
      <trkpt lat="49.90372" lon="2.54019">
        <ele>43</ele>
        <time>2020-09-30T12:34:35Z</time>
      </trkpt>
      <trkpt lat="49.90372" lon="2.54021">
        <ele>43</ele>
        <time>2020-09-30T12:34:36Z</time>
      </trkpt>
      <trkpt lat="49.90373" lon="2.54024">
        <ele>43</ele>
        <time>2020-09-30T12:34:38Z</time>
      </trkpt>
      <trkpt lat="49.90373" lon="2.54025">
        <ele>43</ele>
        <time>2020-09-30T12:34:39Z</time>
      </trkpt>
      <trkpt lat="49.90374" lon="2.54028">
        <ele>43</ele>
        <time>2020-09-30T12:34:40Z</time>
      </trkpt>
      <trkpt lat="49.90374" lon="2.5403">
        <ele>43</ele>
        <time>2020-09-30T12:34:41Z</time>
      </trkpt>
      <trkpt lat="49.90375" lon="2.54032">
        <ele>43</ele>
        <time>2020-09-30T12:34:42Z</time>
      </trkpt>
      <trkpt lat="49.90376" lon="2.54034">
        <ele>43</ele>
        <time>2020-09-30T12:34:43Z</time>
      </trkpt>
      <trkpt lat="49.90376" lon="2.54037">
        <ele>43</ele>
        <time>2020-09-30T12:34:44Z</time>
      </trkpt>
      <trkpt lat="49.90377" lon="2.54038">
        <ele>43</ele>
        <time>2020-09-30T12:34:46Z</time>
      </trkpt>
      <trkpt lat="49.90377" lon="2.5404">
        <ele>43</ele>
        <time>2020-09-30T12:34:47Z</time>
      </trkpt>
      <trkpt lat="49.90378" lon="2.54043">
        <ele>43</ele>
        <time>2020-09-30T12:34:48Z</time>
      </trkpt>
      <trkpt lat="49.90379" lon="2.54044">
        <ele>43</ele>
        <time>2020-09-30T12:34:49Z</time>
      </trkpt>
      <trkpt lat="49.90379" lon="2.54045">
        <ele>43</ele>
        <time>2020-09-30T12:34:50Z</time>
      </trkpt>
      <trkpt lat="49.9038" lon="2.54047">
        <ele>43</ele>
        <time>2020-09-30T12:34:52Z</time>
      </trkpt>
      <trkpt lat="49.9038" lon="2.54049">
        <ele>43.1</ele>
        <time>2020-09-30T12:34:53Z</time>
      </trkpt>
      <trkpt lat="49.90381" lon="2.54052">
        <ele>43.1</ele>
        <time>2020-09-30T12:34:54Z</time>
      </trkpt>
      <trkpt lat="49.90382" lon="2.54054">
        <ele>43.1</ele>
        <time>2020-09-30T12:34:55Z</time>
      </trkpt>
      <trkpt lat="49.90382" lon="2.54057">
        <ele>43.1</ele>
        <time>2020-09-30T12:34:56Z</time>
      </trkpt>
      <trkpt lat="49.90382" lon="2.54059">
        <ele>43.1</ele>
        <time>2020-09-30T12:34:57Z</time>
      </trkpt>
      <trkpt lat="49.90383" lon="2.54061">
        <ele>43.1</ele>
        <time>2020-09-30T12:34:58Z</time>
      </trkpt>
      <trkpt lat="49.90383" lon="2.54062">
        <ele>43</ele>
        <time>2020-09-30T12:35:00Z</time>
      </trkpt>
      <trkpt lat="49.90383" lon="2.54064">
        <ele>43</ele>
        <time>2020-09-30T12:35:01Z</time>
      </trkpt>
      <trkpt lat="49.90384" lon="2.54066">
        <ele>43</ele>
        <time>2020-09-30T12:35:02Z</time>
      </trkpt>
      <trkpt lat="49.90384" lon="2.54068">
        <ele>43</ele>
        <time>2020-09-30T12:35:03Z</time>
      </trkpt>
      <trkpt lat="49.90385" lon="2.5407">
        <ele>43</ele>
        <time>2020-09-30T12:35:04Z</time>
      </trkpt>
      <trkpt lat="49.90385" lon="2.54073">
        <ele>42.9</ele>
        <time>2020-09-30T12:35:05Z</time>
      </trkpt>
      <trkpt lat="49.90386" lon="2.54074">
        <ele>42.9</ele>
        <time>2020-09-30T12:35:07Z</time>
      </trkpt>
      <trkpt lat="49.90387" lon="2.54077">
        <ele>42.9</ele>
        <time>2020-09-30T12:35:08Z</time>
      </trkpt>
      <trkpt lat="49.90388" lon="2.5408">
        <ele>42.8</ele>
        <time>2020-09-30T12:35:09Z</time>
      </trkpt>
      <trkpt lat="49.90388" lon="2.54081">
        <ele>42.8</ele>
        <time>2020-09-30T12:35:10Z</time>
      </trkpt>
      <trkpt lat="49.90388" lon="2.54082">
        <ele>42.8</ele>
        <time>2020-09-30T12:35:11Z</time>
      </trkpt>
      <trkpt lat="49.90389" lon="2.54085">
        <ele>42.7</ele>
        <time>2020-09-30T12:35:12Z</time>
      </trkpt>
      <trkpt lat="49.90389" lon="2.54086">
        <ele>42.7</ele>
        <time>2020-09-30T12:35:13Z</time>
      </trkpt>
      <trkpt lat="49.90389" lon="2.54087">
        <ele>42.7</ele>
        <time>2020-09-30T12:35:14Z</time>
      </trkpt>
      <trkpt lat="49.9039" lon="2.54091">
        <ele>42.7</ele>
        <time>2020-09-30T12:35:16Z</time>
      </trkpt>
      <trkpt lat="49.90391" lon="2.54092">
        <ele>42.6</ele>
        <time>2020-09-30T12:35:17Z</time>
      </trkpt>
      <trkpt lat="49.90391" lon="2.54094">
        <ele>42.6</ele>
        <time>2020-09-30T12:35:18Z</time>
      </trkpt>
      <trkpt lat="49.90391" lon="2.54096">
        <ele>42.6</ele>
        <time>2020-09-30T12:35:19Z</time>
      </trkpt>
      <trkpt lat="49.90392" lon="2.54097">
        <ele>42.6</ele>
        <time>2020-09-30T12:35:20Z</time>
      </trkpt>
      <trkpt lat="49.90392" lon="2.54099">
        <ele>42.5</ele>
        <time>2020-09-30T12:35:22Z</time>
      </trkpt>
      <trkpt lat="49.90392" lon="2.54102">
        <ele>42.5</ele>
        <time>2020-09-30T12:35:23Z</time>
      </trkpt>
      <trkpt lat="49.90393" lon="2.54104">
        <ele>42.5</ele>
        <time>2020-09-30T12:35:24Z</time>
      </trkpt>
      <trkpt lat="49.90393" lon="2.54107">
        <ele>42.5</ele>
        <time>2020-09-30T12:35:25Z</time>
      </trkpt>
      <trkpt lat="49.90393" lon="2.54109">
        <ele>42.5</ele>
        <time>2020-09-30T12:35:26Z</time>
      </trkpt>
      <trkpt lat="49.90394" lon="2.54111">
        <ele>42.4</ele>
        <time>2020-09-30T12:35:27Z</time>
      </trkpt>
      <trkpt lat="49.90394" lon="2.54114">
        <ele>42.4</ele>
        <time>2020-09-30T12:35:28Z</time>
      </trkpt>
      <trkpt lat="49.90394" lon="2.54115">
        <ele>42.4</ele>
        <time>2020-09-30T12:35:30Z</time>
      </trkpt>
      <trkpt lat="49.90395" lon="2.54116">
        <ele>42.4</ele>
        <time>2020-09-30T12:35:31Z</time>
      </trkpt>
      <trkpt lat="49.90395" lon="2.54117">
        <ele>42.4</ele>
        <time>2020-09-30T12:35:32Z</time>
      </trkpt>
      <trkpt lat="49.90395" lon="2.54119">
        <ele>42.4</ele>
        <time>2020-09-30T12:35:33Z</time>
      </trkpt>
      <trkpt lat="49.90395" lon="2.54121">
        <ele>42.4</ele>
        <time>2020-09-30T12:35:34Z</time>
      </trkpt>
      <trkpt lat="49.90396" lon="2.54123">
        <ele>42.4</ele>
        <time>2020-09-30T12:35:35Z</time>
      </trkpt>
      <trkpt lat="49.90396" lon="2.54125">
        <ele>42.4</ele>
        <time>2020-09-30T12:35:37Z</time>
      </trkpt>
      <trkpt lat="49.90397" lon="2.54127">
        <ele>42.4</ele>
        <time>2020-09-30T12:35:38Z</time>
      </trkpt>
      <trkpt lat="49.90397" lon="2.5413">
        <ele>42.4</ele>
        <time>2020-09-30T12:35:39Z</time>
      </trkpt>
      <trkpt lat="49.90397" lon="2.54133">
        <ele>42.5</ele>
        <time>2020-09-30T12:35:40Z</time>
      </trkpt>
      <trkpt lat="49.90398" lon="2.54134">
        <ele>42.5</ele>
        <time>2020-09-30T12:35:41Z</time>
      </trkpt>
      <trkpt lat="49.90398" lon="2.54135">
        <ele>42.5</ele>
        <time>2020-09-30T12:35:42Z</time>
      </trkpt>
      <trkpt lat="49.90399" lon="2.54139">
        <ele>42.5</ele>
        <time>2020-09-30T12:35:44Z</time>
      </trkpt>
      <trkpt lat="49.90399" lon="2.54141">
        <ele>42.5</ele>
        <time>2020-09-30T12:35:45Z</time>
      </trkpt>
      <trkpt lat="49.90399" lon="2.54142">
        <ele>42.5</ele>
        <time>2020-09-30T12:35:46Z</time>
      </trkpt>
      <trkpt lat="49.904" lon="2.54144">
        <ele>42.5</ele>
        <time>2020-09-30T12:35:47Z</time>
      </trkpt>
      <trkpt lat="49.904" lon="2.54147">
        <ele>42.5</ele>
        <time>2020-09-30T12:35:49Z</time>
      </trkpt>
      <trkpt lat="49.90401" lon="2.5415">
        <ele>42.6</ele>
        <time>2020-09-30T12:35:50Z</time>
      </trkpt>
      <trkpt lat="49.90401" lon="2.54151">
        <ele>42.6</ele>
        <time>2020-09-30T12:35:51Z</time>
      </trkpt>
      <trkpt lat="49.90401" lon="2.54153">
        <ele>42.6</ele>
        <time>2020-09-30T12:35:52Z</time>
      </trkpt>
      <trkpt lat="49.90401" lon="2.54155">
        <ele>42.6</ele>
        <time>2020-09-30T12:35:53Z</time>
      </trkpt>
      <trkpt lat="49.90402" lon="2.54156">
        <ele>42.6</ele>
        <time>2020-09-30T12:35:54Z</time>
      </trkpt>
      <trkpt lat="49.90402" lon="2.5416">
        <ele>42.6</ele>
        <time>2020-09-30T12:35:55Z</time>
      </trkpt>
      <trkpt lat="49.90402" lon="2.54161">
        <ele>42.6</ele>
        <time>2020-09-30T12:35:57Z</time>
      </trkpt>
      <trkpt lat="49.90403" lon="2.54162">
        <ele>42.6</ele>
        <time>2020-09-30T12:35:58Z</time>
      </trkpt>
      <trkpt lat="49.90403" lon="2.54164">
        <ele>42.6</ele>
        <time>2020-09-30T12:35:59Z</time>
      </trkpt>
      <trkpt lat="49.90403" lon="2.54168">
        <ele>42.7</ele>
        <time>2020-09-30T12:36:00Z</time>
      </trkpt>
      <trkpt lat="49.90404" lon="2.54171">
        <ele>42.7</ele>
        <time>2020-09-30T12:36:01Z</time>
      </trkpt>
      <trkpt lat="49.90404" lon="2.54173">
        <ele>42.7</ele>
        <time>2020-09-30T12:36:02Z</time>
      </trkpt>
      <trkpt lat="49.90404" lon="2.54174">
        <ele>42.7</ele>
        <time>2020-09-30T12:36:04Z</time>
      </trkpt>
      <trkpt lat="49.90404" lon="2.54176">
        <ele>42.7</ele>
        <time>2020-09-30T12:36:05Z</time>
      </trkpt>
      <trkpt lat="49.90404" lon="2.54177">
        <ele>42.7</ele>
        <time>2020-09-30T12:36:06Z</time>
      </trkpt>
      <trkpt lat="49.90404" lon="2.54179">
        <ele>42.7</ele>
        <time>2020-09-30T12:36:07Z</time>
      </trkpt>
      <trkpt lat="49.90404" lon="2.54181">
        <ele>42.7</ele>
        <time>2020-09-30T12:36:08Z</time>
      </trkpt>
      <trkpt lat="49.90405" lon="2.54183">
        <ele>42.7</ele>
        <time>2020-09-30T12:36:09Z</time>
      </trkpt>
      <trkpt lat="49.90405" lon="2.54187">
        <ele>42.7</ele>
        <time>2020-09-30T12:36:10Z</time>
      </trkpt>
      <trkpt lat="49.90405" lon="2.54188">
        <ele>42.7</ele>
        <time>2020-09-30T12:36:11Z</time>
      </trkpt>
      <trkpt lat="49.90405" lon="2.5419">
        <ele>42.7</ele>
        <time>2020-09-30T12:36:12Z</time>
      </trkpt>
      <trkpt lat="49.90406" lon="2.54192">
        <ele>42.7</ele>
        <time>2020-09-30T12:36:13Z</time>
      </trkpt>
      <trkpt lat="49.90406" lon="2.54194">
        <ele>42.7</ele>
        <time>2020-09-30T12:36:14Z</time>
      </trkpt>
      <trkpt lat="49.90406" lon="2.54196">
        <ele>42.7</ele>
        <time>2020-09-30T12:36:16Z</time>
      </trkpt>
      <trkpt lat="49.90406" lon="2.54198">
        <ele>42.7</ele>
        <time>2020-09-30T12:36:17Z</time>
      </trkpt>
      <trkpt lat="49.90406" lon="2.54201">
        <ele>42.8</ele>
        <time>2020-09-30T12:36:18Z</time>
      </trkpt>
      <trkpt lat="49.90406" lon="2.54203">
        <ele>42.8</ele>
        <time>2020-09-30T12:36:19Z</time>
      </trkpt>
      <trkpt lat="49.90406" lon="2.54206">
        <ele>42.8</ele>
        <time>2020-09-30T12:36:20Z</time>
      </trkpt>
      <trkpt lat="49.90406" lon="2.54208">
        <ele>42.8</ele>
        <time>2020-09-30T12:36:22Z</time>
      </trkpt>
      <trkpt lat="49.90406" lon="2.5421">
        <ele>42.9</ele>
        <time>2020-09-30T12:36:23Z</time>
      </trkpt>
      <trkpt lat="49.90406" lon="2.54212">
        <ele>42.9</ele>
        <time>2020-09-30T12:36:24Z</time>
      </trkpt>
      <trkpt lat="49.90406" lon="2.54215">
        <ele>42.9</ele>
        <time>2020-09-30T12:36:25Z</time>
      </trkpt>
      <trkpt lat="49.90406" lon="2.54217">
        <ele>42.9</ele>
        <time>2020-09-30T12:36:26Z</time>
      </trkpt>
      <trkpt lat="49.90407" lon="2.5422">
        <ele>43</ele>
        <time>2020-09-30T12:36:27Z</time>
      </trkpt>
      <trkpt lat="49.90407" lon="2.54222">
        <ele>43</ele>
        <time>2020-09-30T12:36:28Z</time>
      </trkpt>
      <trkpt lat="49.90407" lon="2.54223">
        <ele>43</ele>
        <time>2020-09-30T12:36:29Z</time>
      </trkpt>
      <trkpt lat="49.90407" lon="2.54225">
        <ele>43</ele>
        <time>2020-09-30T12:36:30Z</time>
      </trkpt>
      <trkpt lat="49.90408" lon="2.54227">
        <ele>43.1</ele>
        <time>2020-09-30T12:36:31Z</time>
      </trkpt>
      <trkpt lat="49.90408" lon="2.54231">
        <ele>43.1</ele>
        <time>2020-09-30T12:36:33Z</time>
      </trkpt>
      <trkpt lat="49.90408" lon="2.54232">
        <ele>43.1</ele>
        <time>2020-09-30T12:36:34Z</time>
      </trkpt>
      <trkpt lat="49.90408" lon="2.54234">
        <ele>43.1</ele>
        <time>2020-09-30T12:36:35Z</time>
      </trkpt>
      <trkpt lat="49.90409" lon="2.54236">
        <ele>43.1</ele>
        <time>2020-09-30T12:36:36Z</time>
      </trkpt>
      <trkpt lat="49.90409" lon="2.54237">
        <ele>43.1</ele>
        <time>2020-09-30T12:36:37Z</time>
      </trkpt>
      <trkpt lat="49.90409" lon="2.54239">
        <ele>43.1</ele>
        <time>2020-09-30T12:36:38Z</time>
      </trkpt>
      <trkpt lat="49.90409" lon="2.54241">
        <ele>43.1</ele>
        <time>2020-09-30T12:36:39Z</time>
      </trkpt>
      <trkpt lat="49.90409" lon="2.54242">
        <ele>43.1</ele>
        <time>2020-09-30T12:36:40Z</time>
      </trkpt>
      <trkpt lat="49.90409" lon="2.54244">
        <ele>43.1</ele>
        <time>2020-09-30T12:36:41Z</time>
      </trkpt>
      <trkpt lat="49.90409" lon="2.54246">
        <ele>43.1</ele>
        <time>2020-09-30T12:36:42Z</time>
      </trkpt>
      <trkpt lat="49.9041" lon="2.54248">
        <ele>43.1</ele>
        <time>2020-09-30T12:36:43Z</time>
      </trkpt>
      <trkpt lat="49.9041" lon="2.54251">
        <ele>43.1</ele>
        <time>2020-09-30T12:36:44Z</time>
      </trkpt>
      <trkpt lat="49.9041" lon="2.54253">
        <ele>43.1</ele>
        <time>2020-09-30T12:36:46Z</time>
      </trkpt>
      <trkpt lat="49.9041" lon="2.54254">
        <ele>43.1</ele>
        <time>2020-09-30T12:36:47Z</time>
      </trkpt>
      <trkpt lat="49.9041" lon="2.54257">
        <ele>43.1</ele>
        <time>2020-09-30T12:36:48Z</time>
      </trkpt>
      <trkpt lat="49.9041" lon="2.54259">
        <ele>43.1</ele>
        <time>2020-09-30T12:36:49Z</time>
      </trkpt>
      <trkpt lat="49.90411" lon="2.54261">
        <ele>43.1</ele>
        <time>2020-09-30T12:36:50Z</time>
      </trkpt>
      <trkpt lat="49.90411" lon="2.54263">
        <ele>43.1</ele>
        <time>2020-09-30T12:36:51Z</time>
      </trkpt>
      <trkpt lat="49.90411" lon="2.54266">
        <ele>43.1</ele>
        <time>2020-09-30T12:36:52Z</time>
      </trkpt>
      <trkpt lat="49.90411" lon="2.54268">
        <ele>43.2</ele>
        <time>2020-09-30T12:36:53Z</time>
      </trkpt>
      <trkpt lat="49.90411" lon="2.54269">
        <ele>43.2</ele>
        <time>2020-09-30T12:36:54Z</time>
      </trkpt>
      <trkpt lat="49.90411" lon="2.54272">
        <ele>43.2</ele>
        <time>2020-09-30T12:36:56Z</time>
      </trkpt>
      <trkpt lat="49.90412" lon="2.54274">
        <ele>43.2</ele>
        <time>2020-09-30T12:36:57Z</time>
      </trkpt>
      <trkpt lat="49.90412" lon="2.54276">
        <ele>43.2</ele>
        <time>2020-09-30T12:36:58Z</time>
      </trkpt>
      <trkpt lat="49.90412" lon="2.54278">
        <ele>43.2</ele>
        <time>2020-09-30T12:36:59Z</time>
      </trkpt>
      <trkpt lat="49.90412" lon="2.5428">
        <ele>43.2</ele>
        <time>2020-09-30T12:37:00Z</time>
      </trkpt>
      <trkpt lat="49.90412" lon="2.54282">
        <ele>43.1</ele>
        <time>2020-09-30T12:37:01Z</time>
      </trkpt>
      <trkpt lat="49.90412" lon="2.54285">
        <ele>43.1</ele>
        <time>2020-09-30T12:37:02Z</time>
      </trkpt>
      <trkpt lat="49.90412" lon="2.54286">
        <ele>43.1</ele>
        <time>2020-09-30T12:37:03Z</time>
      </trkpt>
      <trkpt lat="49.90412" lon="2.54288">
        <ele>43.1</ele>
        <time>2020-09-30T12:37:04Z</time>
      </trkpt>
      <trkpt lat="49.90413" lon="2.5429">
        <ele>43.1</ele>
        <time>2020-09-30T12:37:05Z</time>
      </trkpt>
      <trkpt lat="49.90413" lon="2.54293">
        <ele>43</ele>
        <time>2020-09-30T12:37:06Z</time>
      </trkpt>
      <trkpt lat="49.90413" lon="2.54295">
        <ele>43</ele>
        <time>2020-09-30T12:37:08Z</time>
      </trkpt>
      <trkpt lat="49.90413" lon="2.54296">
        <ele>42.9</ele>
        <time>2020-09-30T12:37:09Z</time>
      </trkpt>
      <trkpt lat="49.90413" lon="2.54299">
        <ele>42.9</ele>
        <time>2020-09-30T12:37:10Z</time>
      </trkpt>
      <trkpt lat="49.90413" lon="2.54302">
        <ele>42.8</ele>
        <time>2020-09-30T12:37:11Z</time>
      </trkpt>
      <trkpt lat="49.90413" lon="2.54303">
        <ele>42.7</ele>
        <time>2020-09-30T12:37:12Z</time>
      </trkpt>
      <trkpt lat="49.90413" lon="2.54306">
        <ele>42.6</ele>
        <time>2020-09-30T12:37:14Z</time>
      </trkpt>
      <trkpt lat="49.90414" lon="2.54308">
        <ele>42.5</ele>
        <time>2020-09-30T12:37:15Z</time>
      </trkpt>
      <trkpt lat="49.90414" lon="2.5431">
        <ele>42.5</ele>
        <time>2020-09-30T12:37:16Z</time>
      </trkpt>
      <trkpt lat="49.90414" lon="2.54311">
        <ele>42.5</ele>
        <time>2020-09-30T12:37:17Z</time>
      </trkpt>
      <trkpt lat="49.90415" lon="2.54313">
        <ele>42.5</ele>
        <time>2020-09-30T12:37:19Z</time>
      </trkpt>
      <trkpt lat="49.90415" lon="2.54314">
        <ele>42.5</ele>
        <time>2020-09-30T12:37:20Z</time>
      </trkpt>
      <trkpt lat="49.90415" lon="2.54316">
        <ele>42.5</ele>
        <time>2020-09-30T12:37:21Z</time>
      </trkpt>
      <trkpt lat="49.90416" lon="2.54319">
        <ele>42.5</ele>
        <time>2020-09-30T12:37:22Z</time>
      </trkpt>
      <trkpt lat="49.90416" lon="2.54321">
        <ele>42.5</ele>
        <time>2020-09-30T12:37:23Z</time>
      </trkpt>
      <trkpt lat="49.90416" lon="2.54322">
        <ele>42.5</ele>
        <time>2020-09-30T12:37:25Z</time>
      </trkpt>
      <trkpt lat="49.90416" lon="2.54324">
        <ele>42.5</ele>
        <time>2020-09-30T12:37:26Z</time>
      </trkpt>
      <trkpt lat="49.90417" lon="2.54326">
        <ele>42.5</ele>
        <time>2020-09-30T12:37:27Z</time>
      </trkpt>
      <trkpt lat="49.90417" lon="2.54328">
        <ele>42.5</ele>
        <time>2020-09-30T12:37:28Z</time>
      </trkpt>
      <trkpt lat="49.90417" lon="2.54331">
        <ele>42.5</ele>
        <time>2020-09-30T12:37:29Z</time>
      </trkpt>
      <trkpt lat="49.90417" lon="2.54333">
        <ele>42.5</ele>
        <time>2020-09-30T12:37:31Z</time>
      </trkpt>
      <trkpt lat="49.90418" lon="2.54336">
        <ele>42.6</ele>
        <time>2020-09-30T12:37:32Z</time>
      </trkpt>
      <trkpt lat="49.90418" lon="2.54337">
        <ele>42.6</ele>
        <time>2020-09-30T12:37:33Z</time>
      </trkpt>
      <trkpt lat="49.90418" lon="2.54339">
        <ele>42.6</ele>
        <time>2020-09-30T12:37:34Z</time>
      </trkpt>
      <trkpt lat="49.90419" lon="2.54341">
        <ele>42.6</ele>
        <time>2020-09-30T12:37:35Z</time>
      </trkpt>
      <trkpt lat="49.90419" lon="2.54345">
        <ele>42.6</ele>
        <time>2020-09-30T12:37:37Z</time>
      </trkpt>
      <trkpt lat="49.90419" lon="2.54346">
        <ele>42.6</ele>
        <time>2020-09-30T12:37:38Z</time>
      </trkpt>
      <trkpt lat="49.9042" lon="2.5435">
        <ele>42.6</ele>
        <time>2020-09-30T12:37:39Z</time>
      </trkpt>
      <trkpt lat="49.9042" lon="2.54351">
        <ele>42.6</ele>
        <time>2020-09-30T12:37:40Z</time>
      </trkpt>
      <trkpt lat="49.9042" lon="2.54352">
        <ele>42.6</ele>
        <time>2020-09-30T12:37:41Z</time>
      </trkpt>
      <trkpt lat="49.9042" lon="2.54354">
        <ele>42.6</ele>
        <time>2020-09-30T12:37:42Z</time>
      </trkpt>
      <trkpt lat="49.90421" lon="2.54356">
        <ele>42.6</ele>
        <time>2020-09-30T12:37:44Z</time>
      </trkpt>
      <trkpt lat="49.90421" lon="2.54357">
        <ele>42.6</ele>
        <time>2020-09-30T12:37:45Z</time>
      </trkpt>
      <trkpt lat="49.90421" lon="2.5436">
        <ele>42.7</ele>
        <time>2020-09-30T12:37:46Z</time>
      </trkpt>
      <trkpt lat="49.90422" lon="2.54363">
        <ele>42.7</ele>
        <time>2020-09-30T12:37:47Z</time>
      </trkpt>
      <trkpt lat="49.90422" lon="2.54364">
        <ele>42.7</ele>
        <time>2020-09-30T12:37:48Z</time>
      </trkpt>
      <trkpt lat="49.90422" lon="2.54366">
        <ele>42.7</ele>
        <time>2020-09-30T12:37:49Z</time>
      </trkpt>
      <trkpt lat="49.90422" lon="2.54367">
        <ele>42.7</ele>
        <time>2020-09-30T12:37:50Z</time>
      </trkpt>
      <trkpt lat="49.90423" lon="2.5437">
        <ele>42.7</ele>
        <time>2020-09-30T12:37:51Z</time>
      </trkpt>
      <trkpt lat="49.90423" lon="2.54372">
        <ele>42.7</ele>
        <time>2020-09-30T12:37:52Z</time>
      </trkpt>
      <trkpt lat="49.90423" lon="2.54374">
        <ele>42.7</ele>
        <time>2020-09-30T12:37:54Z</time>
      </trkpt>
      <trkpt lat="49.90423" lon="2.54375">
        <ele>42.7</ele>
        <time>2020-09-30T12:37:55Z</time>
      </trkpt>
      <trkpt lat="49.90423" lon="2.54377">
        <ele>42.7</ele>
        <time>2020-09-30T12:37:56Z</time>
      </trkpt>
      <trkpt lat="49.90423" lon="2.5438">
        <ele>42.7</ele>
        <time>2020-09-30T12:37:57Z</time>
      </trkpt>
      <trkpt lat="49.90423" lon="2.54381">
        <ele>42.7</ele>
        <time>2020-09-30T12:37:58Z</time>
      </trkpt>
      <trkpt lat="49.90423" lon="2.54383">
        <ele>42.7</ele>
        <time>2020-09-30T12:37:59Z</time>
      </trkpt>
      <trkpt lat="49.90423" lon="2.54385">
        <ele>42.7</ele>
        <time>2020-09-30T12:38:00Z</time>
      </trkpt>
      <trkpt lat="49.90423" lon="2.54387">
        <ele>42.7</ele>
        <time>2020-09-30T12:38:01Z</time>
      </trkpt>
      <trkpt lat="49.90424" lon="2.54392">
        <ele>42.8</ele>
        <time>2020-09-30T12:38:02Z</time>
      </trkpt>
      <trkpt lat="49.90424" lon="2.54393">
        <ele>42.8</ele>
        <time>2020-09-30T12:38:04Z</time>
      </trkpt>
      <trkpt lat="49.90424" lon="2.54395">
        <ele>42.8</ele>
        <time>2020-09-30T12:38:05Z</time>
      </trkpt>
      <trkpt lat="49.90425" lon="2.54396">
        <ele>42.8</ele>
        <time>2020-09-30T12:38:06Z</time>
      </trkpt>
      <trkpt lat="49.90425" lon="2.54398">
        <ele>42.9</ele>
        <time>2020-09-30T12:38:07Z</time>
      </trkpt>
      <trkpt lat="49.90425" lon="2.54402">
        <ele>42.9</ele>
        <time>2020-09-30T12:38:08Z</time>
      </trkpt>
      <trkpt lat="49.90425" lon="2.54404">
        <ele>42.9</ele>
        <time>2020-09-30T12:38:10Z</time>
      </trkpt>
      <trkpt lat="49.90425" lon="2.54406">
        <ele>43</ele>
        <time>2020-09-30T12:38:11Z</time>
      </trkpt>
      <trkpt lat="49.90425" lon="2.54408">
        <ele>43</ele>
        <time>2020-09-30T12:38:12Z</time>
      </trkpt>
      <trkpt lat="49.90426" lon="2.54409">
        <ele>43</ele>
        <time>2020-09-30T12:38:14Z</time>
      </trkpt>
      <trkpt lat="49.90426" lon="2.54411">
        <ele>43</ele>
        <time>2020-09-30T12:38:15Z</time>
      </trkpt>
      <trkpt lat="49.90426" lon="2.54413">
        <ele>43.1</ele>
        <time>2020-09-30T12:38:16Z</time>
      </trkpt>
      <trkpt lat="49.90426" lon="2.54418">
        <ele>43.1</ele>
        <time>2020-09-30T12:38:17Z</time>
      </trkpt>
      <trkpt lat="49.90426" lon="2.5442">
        <ele>43.1</ele>
        <time>2020-09-30T12:38:19Z</time>
      </trkpt>
      <trkpt lat="49.90426" lon="2.54421">
        <ele>43.2</ele>
        <time>2020-09-30T12:38:20Z</time>
      </trkpt>
      <trkpt lat="49.90426" lon="2.54423">
        <ele>43.2</ele>
        <time>2020-09-30T12:38:21Z</time>
      </trkpt>
      <trkpt lat="49.90426" lon="2.54425">
        <ele>43.2</ele>
        <time>2020-09-30T12:38:22Z</time>
      </trkpt>
      <trkpt lat="49.90426" lon="2.54427">
        <ele>43.2</ele>
        <time>2020-09-30T12:38:23Z</time>
      </trkpt>
      <trkpt lat="49.90426" lon="2.54428">
        <ele>43.2</ele>
        <time>2020-09-30T12:38:24Z</time>
      </trkpt>
      <trkpt lat="49.90427" lon="2.54431">
        <ele>43.2</ele>
        <time>2020-09-30T12:38:26Z</time>
      </trkpt>
      <trkpt lat="49.90427" lon="2.54433">
        <ele>43.2</ele>
        <time>2020-09-30T12:38:27Z</time>
      </trkpt>
      <trkpt lat="49.90427" lon="2.54436">
        <ele>43.3</ele>
        <time>2020-09-30T12:38:28Z</time>
      </trkpt>
      <trkpt lat="49.90427" lon="2.54437">
        <ele>43.3</ele>
        <time>2020-09-30T12:38:29Z</time>
      </trkpt>
      <trkpt lat="49.90427" lon="2.54439">
        <ele>43.3</ele>
        <time>2020-09-30T12:38:30Z</time>
      </trkpt>
      <trkpt lat="49.90428" lon="2.54441">
        <ele>43.3</ele>
        <time>2020-09-30T12:38:31Z</time>
      </trkpt>
      <trkpt lat="49.90428" lon="2.54445">
        <ele>43.3</ele>
        <time>2020-09-30T12:38:32Z</time>
      </trkpt>
      <trkpt lat="49.90429" lon="2.54446">
        <ele>43.3</ele>
        <time>2020-09-30T12:38:33Z</time>
      </trkpt>
      <trkpt lat="49.90429" lon="2.54448">
        <ele>43.3</ele>
        <time>2020-09-30T12:38:34Z</time>
      </trkpt>
      <trkpt lat="49.9043" lon="2.54449">
        <ele>43.3</ele>
        <time>2020-09-30T12:38:36Z</time>
      </trkpt>
      <trkpt lat="49.90431" lon="2.5445">
        <ele>43.3</ele>
        <time>2020-09-30T12:38:37Z</time>
      </trkpt>
      <trkpt lat="49.90432" lon="2.54451">
        <ele>43.3</ele>
        <time>2020-09-30T12:38:38Z</time>
      </trkpt>
      <trkpt lat="49.90434" lon="2.54451">
        <ele>43.3</ele>
        <time>2020-09-30T12:38:39Z</time>
      </trkpt>
      <trkpt lat="49.90435" lon="2.54451">
        <ele>43.3</ele>
        <time>2020-09-30T12:38:40Z</time>
      </trkpt>
      <trkpt lat="49.90436" lon="2.5445">
        <ele>43.3</ele>
        <time>2020-09-30T12:38:41Z</time>
      </trkpt>
      <trkpt lat="49.90439" lon="2.5445">
        <ele>43.3</ele>
        <time>2020-09-30T12:38:42Z</time>
      </trkpt>
      <trkpt lat="49.9044" lon="2.54449">
        <ele>43.2</ele>
        <time>2020-09-30T12:38:43Z</time>
      </trkpt>
      <trkpt lat="49.90441" lon="2.54448">
        <ele>43.2</ele>
        <time>2020-09-30T12:38:44Z</time>
      </trkpt>
      <trkpt lat="49.90442" lon="2.54448">
        <ele>43.2</ele>
        <time>2020-09-30T12:38:45Z</time>
      </trkpt>
      <trkpt lat="49.90443" lon="2.54447">
        <ele>43.2</ele>
        <time>2020-09-30T12:38:47Z</time>
      </trkpt>
      <trkpt lat="49.90445" lon="2.54446">
        <ele>43.2</ele>
        <time>2020-09-30T12:38:48Z</time>
      </trkpt>
      <trkpt lat="49.90446" lon="2.54445">
        <ele>43.1</ele>
        <time>2020-09-30T12:38:49Z</time>
      </trkpt>
      <trkpt lat="49.90448" lon="2.54444">
        <ele>43.1</ele>
        <time>2020-09-30T12:38:50Z</time>
      </trkpt>
      <trkpt lat="49.90449" lon="2.54443">
        <ele>43</ele>
        <time>2020-09-30T12:38:51Z</time>
      </trkpt>
      <trkpt lat="49.9045" lon="2.54443">
        <ele>43</ele>
        <time>2020-09-30T12:38:52Z</time>
      </trkpt>
      <trkpt lat="49.90451" lon="2.54442">
        <ele>43</ele>
        <time>2020-09-30T12:38:53Z</time>
      </trkpt>
      <trkpt lat="49.90452" lon="2.54441">
        <ele>42.9</ele>
        <time>2020-09-30T12:38:54Z</time>
      </trkpt>
      <trkpt lat="49.90453" lon="2.54441">
        <ele>42.9</ele>
        <time>2020-09-30T12:38:55Z</time>
      </trkpt>
      <trkpt lat="49.90454" lon="2.5444">
        <ele>42.9</ele>
        <time>2020-09-30T12:38:57Z</time>
      </trkpt>
      <trkpt lat="49.90456" lon="2.54438">
        <ele>42.8</ele>
        <time>2020-09-30T12:38:58Z</time>
      </trkpt>
      <trkpt lat="49.90456" lon="2.54438">
        <ele>42.8</ele>
        <time>2020-09-30T12:38:59Z</time>
      </trkpt>
      <trkpt lat="49.90457" lon="2.54437">
        <ele>42.7</ele>
        <time>2020-09-30T12:39:00Z</time>
      </trkpt>
      <trkpt lat="49.90459" lon="2.54436">
        <ele>42.7</ele>
        <time>2020-09-30T12:39:01Z</time>
      </trkpt>
      <trkpt lat="49.9046" lon="2.54435">
        <ele>42.7</ele>
        <time>2020-09-30T12:39:02Z</time>
      </trkpt>
      <trkpt lat="49.90461" lon="2.54435">
        <ele>42.7</ele>
        <time>2020-09-30T12:39:03Z</time>
      </trkpt>
      <trkpt lat="49.90463" lon="2.54434">
        <ele>42.7</ele>
        <time>2020-09-30T12:39:05Z</time>
      </trkpt>
      <trkpt lat="49.90464" lon="2.54433">
        <ele>42.7</ele>
        <time>2020-09-30T12:39:06Z</time>
      </trkpt>
      <trkpt lat="49.90465" lon="2.54433">
        <ele>42.7</ele>
        <time>2020-09-30T12:39:07Z</time>
      </trkpt>
      <trkpt lat="49.90465" lon="2.54432">
        <ele>42.7</ele>
        <time>2020-09-30T12:39:08Z</time>
      </trkpt>
      <trkpt lat="49.90466" lon="2.54432">
        <ele>42.6</ele>
        <time>2020-09-30T12:39:10Z</time>
      </trkpt>
      <trkpt lat="49.90467" lon="2.54432">
        <ele>42.6</ele>
        <time>2020-09-30T12:39:11Z</time>
      </trkpt>
      <trkpt lat="49.90468" lon="2.54431">
        <ele>42.6</ele>
        <time>2020-09-30T12:39:12Z</time>
      </trkpt>
      <trkpt lat="49.9047" lon="2.5443">
        <ele>42.6</ele>
        <time>2020-09-30T12:39:13Z</time>
      </trkpt>
      <trkpt lat="49.9047" lon="2.5443">
        <ele>42.6</ele>
        <time>2020-09-30T12:39:14Z</time>
      </trkpt>
      <trkpt lat="49.90471" lon="2.54429">
        <ele>42.6</ele>
        <time>2020-09-30T12:39:15Z</time>
      </trkpt>
      <trkpt lat="49.90472" lon="2.54429">
        <ele>42.6</ele>
        <time>2020-09-30T12:39:16Z</time>
      </trkpt>
      <trkpt lat="49.90474" lon="2.54427">
        <ele>42.6</ele>
        <time>2020-09-30T12:39:17Z</time>
      </trkpt>
      <trkpt lat="49.90475" lon="2.54427">
        <ele>42.6</ele>
        <time>2020-09-30T12:39:19Z</time>
      </trkpt>
      <trkpt lat="49.90476" lon="2.54426">
        <ele>42.6</ele>
        <time>2020-09-30T12:39:20Z</time>
      </trkpt>
      <trkpt lat="49.90477" lon="2.54425">
        <ele>42.6</ele>
        <time>2020-09-30T12:39:21Z</time>
      </trkpt>
      <trkpt lat="49.90479" lon="2.54424">
        <ele>42.6</ele>
        <time>2020-09-30T12:39:23Z</time>
      </trkpt>
      <trkpt lat="49.9048" lon="2.54424">
        <ele>42.6</ele>
        <time>2020-09-30T12:39:24Z</time>
      </trkpt>
      <trkpt lat="49.90481" lon="2.54423">
        <ele>42.6</ele>
        <time>2020-09-30T12:39:25Z</time>
      </trkpt>
      <trkpt lat="49.90482" lon="2.54423">
        <ele>42.6</ele>
        <time>2020-09-30T12:39:26Z</time>
      </trkpt>
      <trkpt lat="49.90483" lon="2.54422">
        <ele>42.7</ele>
        <time>2020-09-30T12:39:27Z</time>
      </trkpt>
      <trkpt lat="49.90485" lon="2.54422">
        <ele>42.7</ele>
        <time>2020-09-30T12:39:29Z</time>
      </trkpt>
      <trkpt lat="49.90485" lon="2.54421">
        <ele>42.7</ele>
        <time>2020-09-30T12:39:30Z</time>
      </trkpt>
      <trkpt lat="49.90486" lon="2.54421">
        <ele>42.7</ele>
        <time>2020-09-30T12:39:31Z</time>
      </trkpt>
      <trkpt lat="49.90488" lon="2.54421">
        <ele>42.7</ele>
        <time>2020-09-30T12:39:32Z</time>
      </trkpt>
      <trkpt lat="49.9049" lon="2.5442">
        <ele>42.7</ele>
        <time>2020-09-30T12:39:33Z</time>
      </trkpt>
      <trkpt lat="49.90491" lon="2.54419">
        <ele>42.7</ele>
        <time>2020-09-30T12:39:34Z</time>
      </trkpt>
      <trkpt lat="49.90492" lon="2.54419">
        <ele>42.7</ele>
        <time>2020-09-30T12:39:35Z</time>
      </trkpt>
      <trkpt lat="49.90493" lon="2.54419">
        <ele>42.7</ele>
        <time>2020-09-30T12:39:36Z</time>
      </trkpt>
      <trkpt lat="49.90495" lon="2.54418">
        <ele>42.7</ele>
        <time>2020-09-30T12:39:37Z</time>
      </trkpt>
      <trkpt lat="49.90496" lon="2.54418">
        <ele>42.7</ele>
        <time>2020-09-30T12:39:38Z</time>
      </trkpt>
      <trkpt lat="49.90496" lon="2.54418">
        <ele>42.7</ele>
        <time>2020-09-30T12:39:40Z</time>
      </trkpt>
      <trkpt lat="49.90497" lon="2.54417">
        <ele>42.7</ele>
        <time>2020-09-30T12:39:41Z</time>
      </trkpt>
      <trkpt lat="49.905" lon="2.54416">
        <ele>42.7</ele>
        <time>2020-09-30T12:39:43Z</time>
      </trkpt>
      <trkpt lat="49.90502" lon="2.54416">
        <ele>42.7</ele>
        <time>2020-09-30T12:39:44Z</time>
      </trkpt>
      <trkpt lat="49.90503" lon="2.54415">
        <ele>42.7</ele>
        <time>2020-09-30T12:39:45Z</time>
      </trkpt>
      <trkpt lat="49.90504" lon="2.54415">
        <ele>42.7</ele>
        <time>2020-09-30T12:39:46Z</time>
      </trkpt>
      <trkpt lat="49.90505" lon="2.54414">
        <ele>42.7</ele>
        <time>2020-09-30T12:39:47Z</time>
      </trkpt>
      <trkpt lat="49.90506" lon="2.54414">
        <ele>42.7</ele>
        <time>2020-09-30T12:39:48Z</time>
      </trkpt>
      <trkpt lat="49.90508" lon="2.54413">
        <ele>42.6</ele>
        <time>2020-09-30T12:39:49Z</time>
      </trkpt>
      <trkpt lat="49.90509" lon="2.54413">
        <ele>42.6</ele>
        <time>2020-09-30T12:39:50Z</time>
      </trkpt>
      <trkpt lat="49.9051" lon="2.54412">
        <ele>42.6</ele>
        <time>2020-09-30T12:39:51Z</time>
      </trkpt>
      <trkpt lat="49.90512" lon="2.54412">
        <ele>42.6</ele>
        <time>2020-09-30T12:39:53Z</time>
      </trkpt>
      <trkpt lat="49.90512" lon="2.54411">
        <ele>42.6</ele>
        <time>2020-09-30T12:39:54Z</time>
      </trkpt>
      <trkpt lat="49.90513" lon="2.54411">
        <ele>42.5</ele>
        <time>2020-09-30T12:39:55Z</time>
      </trkpt>
      <trkpt lat="49.90514" lon="2.54411">
        <ele>42.5</ele>
        <time>2020-09-30T12:39:56Z</time>
      </trkpt>
      <trkpt lat="49.90516" lon="2.5441">
        <ele>42.5</ele>
        <time>2020-09-30T12:39:57Z</time>
      </trkpt>
      <trkpt lat="49.90518" lon="2.54409">
        <ele>42.5</ele>
        <time>2020-09-30T12:39:59Z</time>
      </trkpt>
      <trkpt lat="49.90519" lon="2.54409">
        <ele>42.4</ele>
        <time>2020-09-30T12:40:00Z</time>
      </trkpt>
      <trkpt lat="49.9052" lon="2.54408">
        <ele>42.4</ele>
        <time>2020-09-30T12:40:01Z</time>
      </trkpt>
      <trkpt lat="49.90521" lon="2.54407">
        <ele>42.4</ele>
        <time>2020-09-30T12:40:02Z</time>
      </trkpt>
      <trkpt lat="49.90524" lon="2.54406">
        <ele>42.4</ele>
        <time>2020-09-30T12:40:03Z</time>
      </trkpt>
      <trkpt lat="49.90525" lon="2.54406">
        <ele>42.4</ele>
        <time>2020-09-30T12:40:05Z</time>
      </trkpt>
      <trkpt lat="49.90526" lon="2.54405">
        <ele>42.3</ele>
        <time>2020-09-30T12:40:06Z</time>
      </trkpt>
      <trkpt lat="49.90527" lon="2.54405">
        <ele>42.3</ele>
        <time>2020-09-30T12:40:07Z</time>
      </trkpt>
      <trkpt lat="49.90528" lon="2.54404">
        <ele>42.3</ele>
        <time>2020-09-30T12:40:08Z</time>
      </trkpt>
      <trkpt lat="49.90529" lon="2.54404">
        <ele>42.3</ele>
        <time>2020-09-30T12:40:09Z</time>
      </trkpt>
      <trkpt lat="49.9053" lon="2.54404">
        <ele>42.3</ele>
        <time>2020-09-30T12:40:10Z</time>
      </trkpt>
      <trkpt lat="49.90531" lon="2.54404">
        <ele>42.3</ele>
        <time>2020-09-30T12:40:12Z</time>
      </trkpt>
      <trkpt lat="49.90533" lon="2.54403">
        <ele>42.4</ele>
        <time>2020-09-30T12:40:13Z</time>
      </trkpt>
      <trkpt lat="49.90534" lon="2.54403">
        <ele>42.4</ele>
        <time>2020-09-30T12:40:14Z</time>
      </trkpt>
      <trkpt lat="49.90535" lon="2.54402">
        <ele>42.4</ele>
        <time>2020-09-30T12:40:15Z</time>
      </trkpt>
      <trkpt lat="49.90537" lon="2.54401">
        <ele>42.4</ele>
        <time>2020-09-30T12:40:16Z</time>
      </trkpt>
      <trkpt lat="49.90539" lon="2.544">
        <ele>42.4</ele>
        <time>2020-09-30T12:40:18Z</time>
      </trkpt>
      <trkpt lat="49.9054" lon="2.544">
        <ele>42.4</ele>
        <time>2020-09-30T12:40:19Z</time>
      </trkpt>
      <trkpt lat="49.90541" lon="2.54399">
        <ele>42.4</ele>
        <time>2020-09-30T12:40:20Z</time>
      </trkpt>
      <trkpt lat="49.90542" lon="2.54398">
        <ele>42.4</ele>
        <time>2020-09-30T12:40:21Z</time>
      </trkpt>
      <trkpt lat="49.90544" lon="2.54397">
        <ele>42.4</ele>
        <time>2020-09-30T12:40:23Z</time>
      </trkpt>
      <trkpt lat="49.90545" lon="2.54397">
        <ele>42.3</ele>
        <time>2020-09-30T12:40:24Z</time>
      </trkpt>
      <trkpt lat="49.90546" lon="2.54397">
        <ele>42.3</ele>
        <time>2020-09-30T12:40:25Z</time>
      </trkpt>
      <trkpt lat="49.90547" lon="2.54396">
        <ele>42.3</ele>
        <time>2020-09-30T12:40:26Z</time>
      </trkpt>
      <trkpt lat="49.90548" lon="2.54396">
        <ele>42.3</ele>
        <time>2020-09-30T12:40:27Z</time>
      </trkpt>
      <trkpt lat="49.9055" lon="2.54395">
        <ele>42.3</ele>
        <time>2020-09-30T12:40:28Z</time>
      </trkpt>
      <trkpt lat="49.90551" lon="2.54394">
        <ele>42.2</ele>
        <time>2020-09-30T12:40:29Z</time>
      </trkpt>
      <trkpt lat="49.90552" lon="2.54394">
        <ele>42.2</ele>
        <time>2020-09-30T12:40:30Z</time>
      </trkpt>
      <trkpt lat="49.90554" lon="2.54393">
        <ele>42.2</ele>
        <time>2020-09-30T12:40:31Z</time>
      </trkpt>
      <trkpt lat="49.90555" lon="2.54392">
        <ele>42.2</ele>
        <time>2020-09-30T12:40:33Z</time>
      </trkpt>
      <trkpt lat="49.90556" lon="2.54392">
        <ele>42.1</ele>
        <time>2020-09-30T12:40:34Z</time>
      </trkpt>
      <trkpt lat="49.90557" lon="2.54391">
        <ele>42.1</ele>
        <time>2020-09-30T12:40:35Z</time>
      </trkpt>
      <trkpt lat="49.90558" lon="2.54391">
        <ele>42.1</ele>
        <time>2020-09-30T12:40:36Z</time>
      </trkpt>
      <trkpt lat="49.9056" lon="2.5439">
        <ele>42.1</ele>
        <time>2020-09-30T12:40:37Z</time>
      </trkpt>
      <trkpt lat="49.90562" lon="2.54389">
        <ele>42.1</ele>
        <time>2020-09-30T12:40:38Z</time>
      </trkpt>
      <trkpt lat="49.90562" lon="2.54389">
        <ele>42.1</ele>
        <time>2020-09-30T12:40:40Z</time>
      </trkpt>
      <trkpt lat="49.90564" lon="2.54389">
        <ele>42.1</ele>
        <time>2020-09-30T12:40:41Z</time>
      </trkpt>
      <trkpt lat="49.90565" lon="2.54388">
        <ele>42.1</ele>
        <time>2020-09-30T12:40:42Z</time>
      </trkpt>
      <trkpt lat="49.90567" lon="2.54387">
        <ele>42.1</ele>
        <time>2020-09-30T12:40:43Z</time>
      </trkpt>
      <trkpt lat="49.90568" lon="2.54387">
        <ele>42.1</ele>
        <time>2020-09-30T12:40:44Z</time>
      </trkpt>
      <trkpt lat="49.9057" lon="2.54386">
        <ele>42.1</ele>
        <time>2020-09-30T12:40:45Z</time>
      </trkpt>
      <trkpt lat="49.90571" lon="2.54386">
        <ele>42.1</ele>
        <time>2020-09-30T12:40:47Z</time>
      </trkpt>
      <trkpt lat="49.90572" lon="2.54385">
        <ele>42.1</ele>
        <time>2020-09-30T12:40:48Z</time>
      </trkpt>
      <trkpt lat="49.90573" lon="2.54385">
        <ele>42.1</ele>
        <time>2020-09-30T12:40:49Z</time>
      </trkpt>
      <trkpt lat="49.90575" lon="2.54384">
        <ele>42.1</ele>
        <time>2020-09-30T12:40:50Z</time>
      </trkpt>
      <trkpt lat="49.90576" lon="2.54383">
        <ele>42.1</ele>
        <time>2020-09-30T12:40:51Z</time>
      </trkpt>
      <trkpt lat="49.90578" lon="2.54382">
        <ele>42.1</ele>
        <time>2020-09-30T12:40:53Z</time>
      </trkpt>
      <trkpt lat="49.90579" lon="2.54381">
        <ele>42.1</ele>
        <time>2020-09-30T12:40:54Z</time>
      </trkpt>
      <trkpt lat="49.9058" lon="2.54381">
        <ele>42.1</ele>
        <time>2020-09-30T12:40:55Z</time>
      </trkpt>
      <trkpt lat="49.90581" lon="2.5438">
        <ele>42.1</ele>
        <time>2020-09-30T12:40:57Z</time>
      </trkpt>
      <trkpt lat="49.90583" lon="2.54378">
        <ele>42.2</ele>
        <time>2020-09-30T12:40:58Z</time>
      </trkpt>
      <trkpt lat="49.90584" lon="2.54378">
        <ele>42.2</ele>
        <time>2020-09-30T12:40:59Z</time>
      </trkpt>
      <trkpt lat="49.90585" lon="2.54377">
        <ele>42.2</ele>
        <time>2020-09-30T12:41:00Z</time>
      </trkpt>
      <trkpt lat="49.90586" lon="2.54377">
        <ele>42.3</ele>
        <time>2020-09-30T12:41:01Z</time>
      </trkpt>
      <trkpt lat="49.90587" lon="2.54376">
        <ele>42.3</ele>
        <time>2020-09-30T12:41:03Z</time>
      </trkpt>
      <trkpt lat="49.9059" lon="2.54375">
        <ele>42.3</ele>
        <time>2020-09-30T12:41:04Z</time>
      </trkpt>
      <trkpt lat="49.90591" lon="2.54375">
        <ele>42.4</ele>
        <time>2020-09-30T12:41:05Z</time>
      </trkpt>
      <trkpt lat="49.90593" lon="2.54374">
        <ele>42.4</ele>
        <time>2020-09-30T12:41:06Z</time>
      </trkpt>
      <trkpt lat="49.90594" lon="2.54373">
        <ele>42.4</ele>
        <time>2020-09-30T12:41:08Z</time>
      </trkpt>
      <trkpt lat="49.90595" lon="2.54373">
        <ele>42.5</ele>
        <time>2020-09-30T12:41:09Z</time>
      </trkpt>
      <trkpt lat="49.90595" lon="2.54373">
        <ele>42.5</ele>
        <time>2020-09-30T12:41:10Z</time>
      </trkpt>
      <trkpt lat="49.90597" lon="2.54372">
        <ele>42.5</ele>
        <time>2020-09-30T12:41:11Z</time>
      </trkpt>
      <trkpt lat="49.90598" lon="2.54372">
        <ele>42.5</ele>
        <time>2020-09-30T12:41:12Z</time>
      </trkpt>
      <trkpt lat="49.906" lon="2.54371">
        <ele>42.6</ele>
        <time>2020-09-30T12:41:13Z</time>
      </trkpt>
      <trkpt lat="49.90601" lon="2.5437">
        <ele>42.6</ele>
        <time>2020-09-30T12:41:14Z</time>
      </trkpt>
      <trkpt lat="49.90602" lon="2.5437">
        <ele>42.6</ele>
        <time>2020-09-30T12:41:15Z</time>
      </trkpt>
      <trkpt lat="49.90603" lon="2.54369">
        <ele>42.6</ele>
        <time>2020-09-30T12:41:16Z</time>
      </trkpt>
      <trkpt lat="49.90604" lon="2.54368">
        <ele>42.6</ele>
        <time>2020-09-30T12:41:18Z</time>
      </trkpt>
      <trkpt lat="49.90606" lon="2.54368">
        <ele>42.6</ele>
        <time>2020-09-30T12:41:19Z</time>
      </trkpt>
      <trkpt lat="49.90606" lon="2.54368">
        <ele>42.6</ele>
        <time>2020-09-30T12:41:20Z</time>
      </trkpt>
      <trkpt lat="49.90607" lon="2.54367">
        <ele>42.6</ele>
        <time>2020-09-30T12:41:21Z</time>
      </trkpt>
      <trkpt lat="49.90608" lon="2.54367">
        <ele>42.6</ele>
        <time>2020-09-30T12:41:22Z</time>
      </trkpt>
      <trkpt lat="49.9061" lon="2.54366">
        <ele>42.6</ele>
        <time>2020-09-30T12:41:23Z</time>
      </trkpt>
      <trkpt lat="49.90611" lon="2.54365">
        <ele>42.6</ele>
        <time>2020-09-30T12:41:24Z</time>
      </trkpt>
      <trkpt lat="49.90612" lon="2.54365">
        <ele>42.6</ele>
        <time>2020-09-30T12:41:25Z</time>
      </trkpt>
      <trkpt lat="49.90613" lon="2.54365">
        <ele>42.6</ele>
        <time>2020-09-30T12:41:26Z</time>
      </trkpt>
      <trkpt lat="49.90615" lon="2.54364">
        <ele>42.6</ele>
        <time>2020-09-30T12:41:27Z</time>
      </trkpt>
      <trkpt lat="49.90616" lon="2.54364">
        <ele>42.6</ele>
        <time>2020-09-30T12:41:29Z</time>
      </trkpt>
      <trkpt lat="49.90617" lon="2.54364">
        <ele>42.6</ele>
        <time>2020-09-30T12:41:30Z</time>
      </trkpt>
      <trkpt lat="49.90619" lon="2.54364">
        <ele>42.6</ele>
        <time>2020-09-30T12:41:31Z</time>
      </trkpt>
      <trkpt lat="49.90619" lon="2.54364">
        <ele>42.6</ele>
        <time>2020-09-30T12:41:32Z</time>
      </trkpt>
      <trkpt lat="49.9062" lon="2.54364">
        <ele>42.5</ele>
        <time>2020-09-30T12:41:33Z</time>
      </trkpt>
      <trkpt lat="49.90622" lon="2.54364">
        <ele>42.5</ele>
        <time>2020-09-30T12:41:34Z</time>
      </trkpt>
      <trkpt lat="49.90623" lon="2.54364">
        <ele>42.5</ele>
        <time>2020-09-30T12:41:35Z</time>
      </trkpt>
      <trkpt lat="49.90624" lon="2.54363">
        <ele>42.5</ele>
        <time>2020-09-30T12:41:37Z</time>
      </trkpt>
      <trkpt lat="49.90625" lon="2.54363">
        <ele>42.5</ele>
        <time>2020-09-30T12:41:38Z</time>
      </trkpt>
      <trkpt lat="49.90626" lon="2.54363">
        <ele>42.5</ele>
        <time>2020-09-30T12:41:39Z</time>
      </trkpt>
      <trkpt lat="49.90627" lon="2.54363">
        <ele>42.5</ele>
        <time>2020-09-30T12:41:40Z</time>
      </trkpt>
      <trkpt lat="49.9063" lon="2.54362">
        <ele>42.5</ele>
        <time>2020-09-30T12:41:41Z</time>
      </trkpt>
      <trkpt lat="49.9063" lon="2.54362">
        <ele>42.5</ele>
        <time>2020-09-30T12:41:42Z</time>
      </trkpt>
      <trkpt lat="49.90631" lon="2.54361">
        <ele>42.5</ele>
        <time>2020-09-30T12:41:43Z</time>
      </trkpt>
      <trkpt lat="49.90632" lon="2.54361">
        <ele>42.5</ele>
        <time>2020-09-30T12:41:44Z</time>
      </trkpt>
      <trkpt lat="49.90633" lon="2.5436">
        <ele>42.5</ele>
        <time>2020-09-30T12:41:46Z</time>
      </trkpt>
      <trkpt lat="49.90634" lon="2.5436">
        <ele>42.5</ele>
        <time>2020-09-30T12:41:47Z</time>
      </trkpt>
      <trkpt lat="49.90635" lon="2.54359">
        <ele>42.5</ele>
        <time>2020-09-30T12:41:48Z</time>
      </trkpt>
      <trkpt lat="49.90637" lon="2.54358">
        <ele>42.5</ele>
        <time>2020-09-30T12:41:49Z</time>
      </trkpt>
      <trkpt lat="49.90639" lon="2.54358">
        <ele>42.6</ele>
        <time>2020-09-30T12:41:50Z</time>
      </trkpt>
      <trkpt lat="49.9064" lon="2.54357">
        <ele>42.6</ele>
        <time>2020-09-30T12:41:52Z</time>
      </trkpt>
      <trkpt lat="49.90641" lon="2.54357">
        <ele>42.6</ele>
        <time>2020-09-30T12:41:53Z</time>
      </trkpt>
      <trkpt lat="49.90643" lon="2.54356">
        <ele>42.6</ele>
        <time>2020-09-30T12:41:54Z</time>
      </trkpt>
      <trkpt lat="49.90645" lon="2.54355">
        <ele>42.6</ele>
        <time>2020-09-30T12:41:55Z</time>
      </trkpt>
      <trkpt lat="49.90646" lon="2.54354">
        <ele>42.7</ele>
        <time>2020-09-30T12:41:57Z</time>
      </trkpt>
      <trkpt lat="49.90648" lon="2.54353">
        <ele>42.7</ele>
        <time>2020-09-30T12:41:58Z</time>
      </trkpt>
      <trkpt lat="49.90649" lon="2.54352">
        <ele>42.7</ele>
        <time>2020-09-30T12:41:59Z</time>
      </trkpt>
      <trkpt lat="49.9065" lon="2.54351">
        <ele>42.7</ele>
        <time>2020-09-30T12:42:01Z</time>
      </trkpt>
      <trkpt lat="49.90652" lon="2.54351">
        <ele>42.7</ele>
        <time>2020-09-30T12:42:02Z</time>
      </trkpt>
      <trkpt lat="49.90653" lon="2.5435">
        <ele>42.7</ele>
        <time>2020-09-30T12:42:03Z</time>
      </trkpt>
      <trkpt lat="49.90655" lon="2.54349">
        <ele>42.7</ele>
        <time>2020-09-30T12:42:04Z</time>
      </trkpt>
      <trkpt lat="49.90656" lon="2.54349">
        <ele>42.8</ele>
        <time>2020-09-30T12:42:05Z</time>
      </trkpt>
      <trkpt lat="49.90656" lon="2.54348">
        <ele>42.8</ele>
        <time>2020-09-30T12:42:06Z</time>
      </trkpt>
      <trkpt lat="49.90658" lon="2.54348">
        <ele>42.8</ele>
        <time>2020-09-30T12:42:07Z</time>
      </trkpt>
      <trkpt lat="49.90659" lon="2.54347">
        <ele>42.8</ele>
        <time>2020-09-30T12:42:09Z</time>
      </trkpt>
      <trkpt lat="49.90661" lon="2.54346">
        <ele>42.8</ele>
        <time>2020-09-30T12:42:10Z</time>
      </trkpt>
      <trkpt lat="49.90662" lon="2.54346">
        <ele>42.8</ele>
        <time>2020-09-30T12:42:11Z</time>
      </trkpt>
      <trkpt lat="49.90663" lon="2.54345">
        <ele>42.8</ele>
        <time>2020-09-30T12:42:12Z</time>
      </trkpt>
      <trkpt lat="49.90665" lon="2.54345">
        <ele>42.8</ele>
        <time>2020-09-30T12:42:13Z</time>
      </trkpt>
      <trkpt lat="49.90667" lon="2.54344">
        <ele>42.9</ele>
        <time>2020-09-30T12:42:14Z</time>
      </trkpt>
      <trkpt lat="49.90668" lon="2.54343">
        <ele>42.9</ele>
        <time>2020-09-30T12:42:15Z</time>
      </trkpt>
      <trkpt lat="49.90669" lon="2.54343">
        <ele>42.9</ele>
        <time>2020-09-30T12:42:16Z</time>
      </trkpt>
      <trkpt lat="49.90671" lon="2.54342">
        <ele>42.9</ele>
        <time>2020-09-30T12:42:17Z</time>
      </trkpt>
      <trkpt lat="49.90672" lon="2.54342">
        <ele>42.9</ele>
        <time>2020-09-30T12:42:19Z</time>
      </trkpt>
      <trkpt lat="49.90673" lon="2.54342">
        <ele>42.9</ele>
        <time>2020-09-30T12:42:20Z</time>
      </trkpt>
      <trkpt lat="49.90675" lon="2.54341">
        <ele>42.9</ele>
        <time>2020-09-30T12:42:21Z</time>
      </trkpt>
      <trkpt lat="49.90675" lon="2.5434">
        <ele>42.9</ele>
        <time>2020-09-30T12:42:22Z</time>
      </trkpt>
      <trkpt lat="49.90676" lon="2.5434">
        <ele>42.9</ele>
        <time>2020-09-30T12:42:23Z</time>
      </trkpt>
      <trkpt lat="49.90677" lon="2.54339">
        <ele>42.9</ele>
        <time>2020-09-30T12:42:24Z</time>
      </trkpt>
      <trkpt lat="49.90678" lon="2.54338">
        <ele>42.9</ele>
        <time>2020-09-30T12:42:25Z</time>
      </trkpt>
      <trkpt lat="49.90679" lon="2.54337">
        <ele>42.9</ele>
        <time>2020-09-30T12:42:26Z</time>
      </trkpt>
      <trkpt lat="49.90682" lon="2.54336">
        <ele>42.9</ele>
        <time>2020-09-30T12:42:28Z</time>
      </trkpt>
      <trkpt lat="49.90682" lon="2.54335">
        <ele>42.9</ele>
        <time>2020-09-30T12:42:29Z</time>
      </trkpt>
      <trkpt lat="49.90683" lon="2.54335">
        <ele>42.9</ele>
        <time>2020-09-30T12:42:30Z</time>
      </trkpt>
      <trkpt lat="49.90684" lon="2.54334">
        <ele>42.9</ele>
        <time>2020-09-30T12:42:31Z</time>
      </trkpt>
      <trkpt lat="49.90686" lon="2.54333">
        <ele>42.9</ele>
        <time>2020-09-30T12:42:32Z</time>
      </trkpt>
      <trkpt lat="49.90687" lon="2.54333">
        <ele>42.9</ele>
        <time>2020-09-30T12:42:33Z</time>
      </trkpt>
      <trkpt lat="49.90688" lon="2.54332">
        <ele>42.9</ele>
        <time>2020-09-30T12:42:34Z</time>
      </trkpt>
      <trkpt lat="49.90689" lon="2.54331">
        <ele>42.9</ele>
        <time>2020-09-30T12:42:35Z</time>
      </trkpt>
      <trkpt lat="49.90691" lon="2.5433">
        <ele>42.9</ele>
        <time>2020-09-30T12:42:37Z</time>
      </trkpt>
      <trkpt lat="49.90692" lon="2.5433">
        <ele>42.9</ele>
        <time>2020-09-30T12:42:38Z</time>
      </trkpt>
      <trkpt lat="49.90693" lon="2.54329">
        <ele>42.9</ele>
        <time>2020-09-30T12:42:39Z</time>
      </trkpt>
      <trkpt lat="49.90694" lon="2.54328">
        <ele>42.9</ele>
        <time>2020-09-30T12:42:40Z</time>
      </trkpt>
      <trkpt lat="49.90696" lon="2.54328">
        <ele>42.9</ele>
        <time>2020-09-30T12:42:41Z</time>
      </trkpt>
      <trkpt lat="49.90698" lon="2.54327">
        <ele>42.9</ele>
        <time>2020-09-30T12:42:42Z</time>
      </trkpt>
      <trkpt lat="49.90699" lon="2.54327">
        <ele>42.9</ele>
        <time>2020-09-30T12:42:43Z</time>
      </trkpt>
      <trkpt lat="49.90699" lon="2.54326">
        <ele>42.9</ele>
        <time>2020-09-30T12:42:44Z</time>
      </trkpt>
      <trkpt lat="49.90701" lon="2.54326">
        <ele>42.9</ele>
        <time>2020-09-30T12:42:46Z</time>
      </trkpt>
      <trkpt lat="49.90702" lon="2.54325">
        <ele>42.9</ele>
        <time>2020-09-30T12:42:47Z</time>
      </trkpt>
      <trkpt lat="49.90703" lon="2.54325">
        <ele>43</ele>
        <time>2020-09-30T12:42:48Z</time>
      </trkpt>
      <trkpt lat="49.90704" lon="2.54325">
        <ele>43</ele>
        <time>2020-09-30T12:42:49Z</time>
      </trkpt>
      <trkpt lat="49.90705" lon="2.54324">
        <ele>43</ele>
        <time>2020-09-30T12:42:50Z</time>
      </trkpt>
      <trkpt lat="49.90707" lon="2.54323">
        <ele>43</ele>
        <time>2020-09-30T12:42:51Z</time>
      </trkpt>
      <trkpt lat="49.90708" lon="2.54323">
        <ele>43</ele>
        <time>2020-09-30T12:42:52Z</time>
      </trkpt>
      <trkpt lat="49.90709" lon="2.54322">
        <ele>43</ele>
        <time>2020-09-30T12:42:53Z</time>
      </trkpt>
      <trkpt lat="49.90712" lon="2.54321">
        <ele>43.1</ele>
        <time>2020-09-30T12:42:55Z</time>
      </trkpt>
      <trkpt lat="49.90713" lon="2.54321">
        <ele>43.1</ele>
        <time>2020-09-30T12:42:56Z</time>
      </trkpt>
      <trkpt lat="49.90714" lon="2.5432">
        <ele>43.1</ele>
        <time>2020-09-30T12:42:57Z</time>
      </trkpt>
      <trkpt lat="49.90715" lon="2.5432">
        <ele>43.2</ele>
        <time>2020-09-30T12:42:58Z</time>
      </trkpt>
      <trkpt lat="49.90716" lon="2.5432">
        <ele>43.2</ele>
        <time>2020-09-30T12:42:59Z</time>
      </trkpt>
      <trkpt lat="49.90717" lon="2.54319">
        <ele>43.2</ele>
        <time>2020-09-30T12:43:01Z</time>
      </trkpt>
      <trkpt lat="49.90718" lon="2.54319">
        <ele>43.2</ele>
        <time>2020-09-30T12:43:02Z</time>
      </trkpt>
      <trkpt lat="49.9072" lon="2.54319">
        <ele>43.2</ele>
        <time>2020-09-30T12:43:03Z</time>
      </trkpt>
      <trkpt lat="49.90721" lon="2.54318">
        <ele>43.2</ele>
        <time>2020-09-30T12:43:04Z</time>
      </trkpt>
      <trkpt lat="49.90723" lon="2.54318">
        <ele>43.2</ele>
        <time>2020-09-30T12:43:06Z</time>
      </trkpt>
      <trkpt lat="49.90724" lon="2.54317">
        <ele>43.2</ele>
        <time>2020-09-30T12:43:07Z</time>
      </trkpt>
      <trkpt lat="49.90726" lon="2.54317">
        <ele>43.2</ele>
        <time>2020-09-30T12:43:08Z</time>
      </trkpt>
      <trkpt lat="49.90728" lon="2.54316">
        <ele>43.1</ele>
        <time>2020-09-30T12:43:09Z</time>
      </trkpt>
      <trkpt lat="49.90728" lon="2.54316">
        <ele>43.1</ele>
        <time>2020-09-30T12:43:11Z</time>
      </trkpt>
      <trkpt lat="49.90729" lon="2.54315">
        <ele>43.1</ele>
        <time>2020-09-30T12:43:12Z</time>
      </trkpt>
      <trkpt lat="49.90731" lon="2.54315">
        <ele>43</ele>
        <time>2020-09-30T12:43:13Z</time>
      </trkpt>
      <trkpt lat="49.90732" lon="2.54315">
        <ele>43</ele>
        <time>2020-09-30T12:43:14Z</time>
      </trkpt>
      <trkpt lat="49.90733" lon="2.54314">
        <ele>43</ele>
        <time>2020-09-30T12:43:15Z</time>
      </trkpt>
      <trkpt lat="49.90735" lon="2.54314">
        <ele>42.9</ele>
        <time>2020-09-30T12:43:16Z</time>
      </trkpt>
      <trkpt lat="49.90736" lon="2.54314">
        <ele>42.9</ele>
        <time>2020-09-30T12:43:18Z</time>
      </trkpt>
      <trkpt lat="49.90736" lon="2.54313">
        <ele>42.8</ele>
        <time>2020-09-30T12:43:19Z</time>
      </trkpt>
      <trkpt lat="49.90738" lon="2.54312">
        <ele>42.8</ele>
        <time>2020-09-30T12:43:20Z</time>
      </trkpt>
      <trkpt lat="49.90739" lon="2.54312">
        <ele>42.8</ele>
        <time>2020-09-30T12:43:21Z</time>
      </trkpt>
      <trkpt lat="49.9074" lon="2.54311">
        <ele>42.7</ele>
        <time>2020-09-30T12:43:22Z</time>
      </trkpt>
      <trkpt lat="49.90742" lon="2.54311">
        <ele>42.7</ele>
        <time>2020-09-30T12:43:23Z</time>
      </trkpt>
      <trkpt lat="49.90743" lon="2.5431">
        <ele>42.7</ele>
        <time>2020-09-30T12:43:24Z</time>
      </trkpt>
      <trkpt lat="49.90744" lon="2.5431">
        <ele>42.7</ele>
        <time>2020-09-30T12:43:25Z</time>
      </trkpt>
      <trkpt lat="49.90746" lon="2.54309">
        <ele>42.6</ele>
        <time>2020-09-30T12:43:27Z</time>
      </trkpt>
      <trkpt lat="49.90747" lon="2.54309">
        <ele>42.6</ele>
        <time>2020-09-30T12:43:28Z</time>
      </trkpt>
      <trkpt lat="49.90747" lon="2.54308">
        <ele>42.6</ele>
        <time>2020-09-30T12:43:29Z</time>
      </trkpt>
      <trkpt lat="49.90748" lon="2.54308">
        <ele>42.6</ele>
        <time>2020-09-30T12:43:30Z</time>
      </trkpt>
      <trkpt lat="49.9075" lon="2.54307">
        <ele>42.6</ele>
        <time>2020-09-30T12:43:31Z</time>
      </trkpt>
      <trkpt lat="49.90753" lon="2.54305">
        <ele>42.6</ele>
        <time>2020-09-30T12:43:33Z</time>
      </trkpt>
      <trkpt lat="49.90754" lon="2.54305">
        <ele>42.6</ele>
        <time>2020-09-30T12:43:34Z</time>
      </trkpt>
      <trkpt lat="49.90755" lon="2.54304">
        <ele>42.6</ele>
        <time>2020-09-30T12:43:35Z</time>
      </trkpt>
      <trkpt lat="49.90756" lon="2.54304">
        <ele>42.6</ele>
        <time>2020-09-30T12:43:37Z</time>
      </trkpt>
      <trkpt lat="49.90757" lon="2.54303">
        <ele>42.6</ele>
        <time>2020-09-30T12:43:38Z</time>
      </trkpt>
      <trkpt lat="49.90758" lon="2.54303">
        <ele>42.5</ele>
        <time>2020-09-30T12:43:39Z</time>
      </trkpt>
      <trkpt lat="49.90759" lon="2.54302">
        <ele>42.5</ele>
        <time>2020-09-30T12:43:40Z</time>
      </trkpt>
      <trkpt lat="49.90761" lon="2.54301">
        <ele>42.5</ele>
        <time>2020-09-30T12:43:41Z</time>
      </trkpt>
      <trkpt lat="49.90762" lon="2.543">
        <ele>42.5</ele>
        <time>2020-09-30T12:43:42Z</time>
      </trkpt>
      <trkpt lat="49.90764" lon="2.54299">
        <ele>42.5</ele>
        <time>2020-09-30T12:43:43Z</time>
      </trkpt>
      <trkpt lat="49.90765" lon="2.54299">
        <ele>42.5</ele>
        <time>2020-09-30T12:43:45Z</time>
      </trkpt>
      <trkpt lat="49.90766" lon="2.54298">
        <ele>42.5</ele>
        <time>2020-09-30T12:43:46Z</time>
      </trkpt>
      <trkpt lat="49.90767" lon="2.54298">
        <ele>42.4</ele>
        <time>2020-09-30T12:43:47Z</time>
      </trkpt>
      <trkpt lat="49.90768" lon="2.54297">
        <ele>42.4</ele>
        <time>2020-09-30T12:43:48Z</time>
      </trkpt>
      <trkpt lat="49.90769" lon="2.54297">
        <ele>42.4</ele>
        <time>2020-09-30T12:43:49Z</time>
      </trkpt>
      <trkpt lat="49.90771" lon="2.54296">
        <ele>42.4</ele>
        <time>2020-09-30T12:43:50Z</time>
      </trkpt>
      <trkpt lat="49.90772" lon="2.54296">
        <ele>42.4</ele>
        <time>2020-09-30T12:43:51Z</time>
      </trkpt>
      <trkpt lat="49.90773" lon="2.54296">
        <ele>42.4</ele>
        <time>2020-09-30T12:43:52Z</time>
      </trkpt>
      <trkpt lat="49.90775" lon="2.54295">
        <ele>42.4</ele>
        <time>2020-09-30T12:43:54Z</time>
      </trkpt>
      <trkpt lat="49.90776" lon="2.54295">
        <ele>42.4</ele>
        <time>2020-09-30T12:43:55Z</time>
      </trkpt>
      <trkpt lat="49.90776" lon="2.54295">
        <ele>42.4</ele>
        <time>2020-09-30T12:43:56Z</time>
      </trkpt>
      <trkpt lat="49.90778" lon="2.54294">
        <ele>42.4</ele>
        <time>2020-09-30T12:43:57Z</time>
      </trkpt>
      <trkpt lat="49.9078" lon="2.54294">
        <ele>42.4</ele>
        <time>2020-09-30T12:43:59Z</time>
      </trkpt>
      <trkpt lat="49.90781" lon="2.54294">
        <ele>42.3</ele>
        <time>2020-09-30T12:44:00Z</time>
      </trkpt>
      <trkpt lat="49.90782" lon="2.54294">
        <ele>42.3</ele>
        <time>2020-09-30T12:44:01Z</time>
      </trkpt>
      <trkpt lat="49.90783" lon="2.54293">
        <ele>42.3</ele>
        <time>2020-09-30T12:44:02Z</time>
      </trkpt>
      <trkpt lat="49.90785" lon="2.54293">
        <ele>42.3</ele>
        <time>2020-09-30T12:44:03Z</time>
      </trkpt>
      <trkpt lat="49.90786" lon="2.54292">
        <ele>42.3</ele>
        <time>2020-09-30T12:44:04Z</time>
      </trkpt>
      <trkpt lat="49.90788" lon="2.54291">
        <ele>42.3</ele>
        <time>2020-09-30T12:44:05Z</time>
      </trkpt>
      <trkpt lat="49.90789" lon="2.54291">
        <ele>42.3</ele>
        <time>2020-09-30T12:44:06Z</time>
      </trkpt>
      <trkpt lat="49.9079" lon="2.54291">
        <ele>42.3</ele>
        <time>2020-09-30T12:44:07Z</time>
      </trkpt>
      <trkpt lat="49.90792" lon="2.5429">
        <ele>42.3</ele>
        <time>2020-09-30T12:44:08Z</time>
      </trkpt>
      <trkpt lat="49.90793" lon="2.54289">
        <ele>42.2</ele>
        <time>2020-09-30T12:44:10Z</time>
      </trkpt>
      <trkpt lat="49.90794" lon="2.54289">
        <ele>42.2</ele>
        <time>2020-09-30T12:44:11Z</time>
      </trkpt>
      <trkpt lat="49.90795" lon="2.54288">
        <ele>42.2</ele>
        <time>2020-09-30T12:44:12Z</time>
      </trkpt>
      <trkpt lat="49.90797" lon="2.54288">
        <ele>42.2</ele>
        <time>2020-09-30T12:44:13Z</time>
      </trkpt>
      <trkpt lat="49.90798" lon="2.54287">
        <ele>42.2</ele>
        <time>2020-09-30T12:44:15Z</time>
      </trkpt>
      <trkpt lat="49.908" lon="2.54286">
        <ele>42.2</ele>
        <time>2020-09-30T12:44:16Z</time>
      </trkpt>
      <trkpt lat="49.90802" lon="2.54285">
        <ele>42.2</ele>
        <time>2020-09-30T12:44:17Z</time>
      </trkpt>
      <trkpt lat="49.90802" lon="2.54285">
        <ele>42.2</ele>
        <time>2020-09-30T12:44:18Z</time>
      </trkpt>
      <trkpt lat="49.90803" lon="2.54285">
        <ele>42.2</ele>
        <time>2020-09-30T12:44:19Z</time>
      </trkpt>
      <trkpt lat="49.90805" lon="2.54284">
        <ele>42.1</ele>
        <time>2020-09-30T12:44:20Z</time>
      </trkpt>
      <trkpt lat="49.90807" lon="2.54283">
        <ele>42.1</ele>
        <time>2020-09-30T12:44:21Z</time>
      </trkpt>
      <trkpt lat="49.90807" lon="2.54282">
        <ele>42.1</ele>
        <time>2020-09-30T12:44:22Z</time>
      </trkpt>
      <trkpt lat="49.90808" lon="2.54282">
        <ele>42.1</ele>
        <time>2020-09-30T12:44:23Z</time>
      </trkpt>
      <trkpt lat="49.90809" lon="2.54281">
        <ele>42.1</ele>
        <time>2020-09-30T12:44:25Z</time>
      </trkpt>
      <trkpt lat="49.9081" lon="2.54281">
        <ele>42.1</ele>
        <time>2020-09-30T12:44:26Z</time>
      </trkpt>
      <trkpt lat="49.90811" lon="2.5428">
        <ele>42</ele>
        <time>2020-09-30T12:44:27Z</time>
      </trkpt>
      <trkpt lat="49.90812" lon="2.5428">
        <ele>42</ele>
        <time>2020-09-30T12:44:28Z</time>
      </trkpt>
      <trkpt lat="49.90814" lon="2.5428">
        <ele>42</ele>
        <time>2020-09-30T12:44:29Z</time>
      </trkpt>
      <trkpt lat="49.90815" lon="2.54279">
        <ele>42</ele>
        <time>2020-09-30T12:44:31Z</time>
      </trkpt>
      <trkpt lat="49.90817" lon="2.54279">
        <ele>42</ele>
        <time>2020-09-30T12:44:32Z</time>
      </trkpt>
      <trkpt lat="49.90818" lon="2.54278">
        <ele>41.9</ele>
        <time>2020-09-30T12:44:33Z</time>
      </trkpt>
      <trkpt lat="49.9082" lon="2.54277">
        <ele>41.9</ele>
        <time>2020-09-30T12:44:34Z</time>
      </trkpt>
      <trkpt lat="49.90821" lon="2.54277">
        <ele>41.9</ele>
        <time>2020-09-30T12:44:35Z</time>
      </trkpt>
      <trkpt lat="49.90822" lon="2.54277">
        <ele>41.9</ele>
        <time>2020-09-30T12:44:36Z</time>
      </trkpt>
      <trkpt lat="49.90823" lon="2.54276">
        <ele>41.8</ele>
        <time>2020-09-30T12:44:37Z</time>
      </trkpt>
      <trkpt lat="49.90825" lon="2.54276">
        <ele>41.8</ele>
        <time>2020-09-30T12:44:38Z</time>
      </trkpt>
      <trkpt lat="49.90826" lon="2.54276">
        <ele>41.7</ele>
        <time>2020-09-30T12:44:40Z</time>
      </trkpt>
      <trkpt lat="49.90829" lon="2.54275">
        <ele>41.7</ele>
        <time>2020-09-30T12:44:41Z</time>
      </trkpt>
      <trkpt lat="49.9083" lon="2.54274">
        <ele>41.6</ele>
        <time>2020-09-30T12:44:43Z</time>
      </trkpt>
      <trkpt lat="49.90833" lon="2.54273">
        <ele>41.5</ele>
        <time>2020-09-30T12:44:44Z</time>
      </trkpt>
      <trkpt lat="49.90834" lon="2.54273">
        <ele>41.5</ele>
        <time>2020-09-30T12:44:45Z</time>
      </trkpt>
      <trkpt lat="49.90835" lon="2.54271">
        <ele>41.4</ele>
        <time>2020-09-30T12:44:46Z</time>
      </trkpt>
      <trkpt lat="49.90837" lon="2.5427">
        <ele>41.4</ele>
        <time>2020-09-30T12:44:47Z</time>
      </trkpt>
      <trkpt lat="49.90838" lon="2.54269">
        <ele>41.3</ele>
        <time>2020-09-30T12:44:48Z</time>
      </trkpt>
      <trkpt lat="49.90839" lon="2.54268">
        <ele>41.3</ele>
        <time>2020-09-30T12:44:49Z</time>
      </trkpt>
      <trkpt lat="49.90841" lon="2.54268">
        <ele>41.3</ele>
        <time>2020-09-30T12:44:50Z</time>
      </trkpt>
      <trkpt lat="49.90842" lon="2.54268">
        <ele>41.2</ele>
        <time>2020-09-30T12:44:52Z</time>
      </trkpt>
      <trkpt lat="49.90842" lon="2.54267">
        <ele>41.2</ele>
        <time>2020-09-30T12:44:53Z</time>
      </trkpt>
      <trkpt lat="49.90844" lon="2.54266">
        <ele>41.2</ele>
        <time>2020-09-30T12:44:54Z</time>
      </trkpt>
      <trkpt lat="49.90845" lon="2.54266">
        <ele>41.2</ele>
        <time>2020-09-30T12:44:55Z</time>
      </trkpt>
      <trkpt lat="49.90847" lon="2.54265">
        <ele>41.1</ele>
        <time>2020-09-30T12:44:56Z</time>
      </trkpt>
      <trkpt lat="49.90848" lon="2.54264">
        <ele>41.1</ele>
        <time>2020-09-30T12:44:58Z</time>
      </trkpt>
      <trkpt lat="49.90849" lon="2.54264">
        <ele>41.1</ele>
        <time>2020-09-30T12:44:59Z</time>
      </trkpt>
      <trkpt lat="49.9085" lon="2.54263">
        <ele>41.1</ele>
        <time>2020-09-30T12:45:00Z</time>
      </trkpt>
      <trkpt lat="49.90851" lon="2.54262">
        <ele>41.1</ele>
        <time>2020-09-30T12:45:01Z</time>
      </trkpt>
      <trkpt lat="49.90853" lon="2.54262">
        <ele>41</ele>
        <time>2020-09-30T12:45:03Z</time>
      </trkpt>
      <trkpt lat="49.90854" lon="2.54261">
        <ele>41</ele>
        <time>2020-09-30T12:45:04Z</time>
      </trkpt>
      <trkpt lat="49.90855" lon="2.54261">
        <ele>41</ele>
        <time>2020-09-30T12:45:05Z</time>
      </trkpt>
      <trkpt lat="49.90856" lon="2.5426">
        <ele>41</ele>
        <time>2020-09-30T12:45:06Z</time>
      </trkpt>
      <trkpt lat="49.90857" lon="2.5426">
        <ele>41</ele>
        <time>2020-09-30T12:45:07Z</time>
      </trkpt>
      <trkpt lat="49.90859" lon="2.54259">
        <ele>41</ele>
        <time>2020-09-30T12:45:08Z</time>
      </trkpt>
      <trkpt lat="49.9086" lon="2.54258">
        <ele>41</ele>
        <time>2020-09-30T12:45:09Z</time>
      </trkpt>
      <trkpt lat="49.90861" lon="2.54258">
        <ele>41</ele>
        <time>2020-09-30T12:45:10Z</time>
      </trkpt>
      <trkpt lat="49.90862" lon="2.54258">
        <ele>41</ele>
        <time>2020-09-30T12:45:11Z</time>
      </trkpt>
      <trkpt lat="49.90863" lon="2.54257">
        <ele>41</ele>
        <time>2020-09-30T12:45:12Z</time>
      </trkpt>
      <trkpt lat="49.90865" lon="2.54256">
        <ele>41</ele>
        <time>2020-09-30T12:45:14Z</time>
      </trkpt>
      <trkpt lat="49.90865" lon="2.54256">
        <ele>41</ele>
        <time>2020-09-30T12:45:15Z</time>
      </trkpt>
      <trkpt lat="49.90866" lon="2.54255">
        <ele>41</ele>
        <time>2020-09-30T12:45:16Z</time>
      </trkpt>
      <trkpt lat="49.90867" lon="2.54255">
        <ele>41</ele>
        <time>2020-09-30T12:45:17Z</time>
      </trkpt>
      <trkpt lat="49.90868" lon="2.54254">
        <ele>41</ele>
        <time>2020-09-30T12:45:18Z</time>
      </trkpt>
      <trkpt lat="49.9087" lon="2.54254">
        <ele>41</ele>
        <time>2020-09-30T12:45:19Z</time>
      </trkpt>
      <trkpt lat="49.90871" lon="2.54253">
        <ele>41</ele>
        <time>2020-09-30T12:45:21Z</time>
      </trkpt>
      <trkpt lat="49.90872" lon="2.54252">
        <ele>41</ele>
        <time>2020-09-30T12:45:22Z</time>
      </trkpt>
      <trkpt lat="49.90874" lon="2.54252">
        <ele>41</ele>
        <time>2020-09-30T12:45:23Z</time>
      </trkpt>
      <trkpt lat="49.90875" lon="2.54251">
        <ele>41</ele>
        <time>2020-09-30T12:45:24Z</time>
      </trkpt>
      <trkpt lat="49.90876" lon="2.5425">
        <ele>41</ele>
        <time>2020-09-30T12:45:26Z</time>
      </trkpt>
      <trkpt lat="49.90878" lon="2.5425">
        <ele>41</ele>
        <time>2020-09-30T12:45:27Z</time>
      </trkpt>
      <trkpt lat="49.90879" lon="2.54249">
        <ele>41</ele>
        <time>2020-09-30T12:45:28Z</time>
      </trkpt>
      <trkpt lat="49.90881" lon="2.54248">
        <ele>41</ele>
        <time>2020-09-30T12:45:29Z</time>
      </trkpt>
      <trkpt lat="49.90882" lon="2.54248">
        <ele>41</ele>
        <time>2020-09-30T12:45:30Z</time>
      </trkpt>
      <trkpt lat="49.90883" lon="2.54247">
        <ele>41</ele>
        <time>2020-09-30T12:45:31Z</time>
      </trkpt>
      <trkpt lat="49.90885" lon="2.54246">
        <ele>41</ele>
        <time>2020-09-30T12:45:32Z</time>
      </trkpt>
      <trkpt lat="49.90885" lon="2.54246">
        <ele>41</ele>
        <time>2020-09-30T12:45:34Z</time>
      </trkpt>
      <trkpt lat="49.90887" lon="2.54245">
        <ele>41</ele>
        <time>2020-09-30T12:45:36Z</time>
      </trkpt>
      <trkpt lat="49.90888" lon="2.54245">
        <ele>41</ele>
        <time>2020-09-30T12:45:37Z</time>
      </trkpt>
      <trkpt lat="49.90889" lon="2.54244">
        <ele>41</ele>
        <time>2020-09-30T12:45:39Z</time>
      </trkpt>
      <trkpt lat="49.90889" lon="2.54245">
        <ele>41</ele>
        <time>2020-09-30T12:45:41Z</time>
      </trkpt>
      <trkpt lat="49.90889" lon="2.54245">
        <ele>41</ele>
        <time>2020-09-30T12:45:43Z</time>
      </trkpt>
      <trkpt lat="49.90889" lon="2.54245">
        <ele>41</ele>
        <time>2020-09-30T12:45:45Z</time>
      </trkpt>
      <trkpt lat="49.90889" lon="2.54245">
        <ele>41</ele>
        <time>2020-09-30T12:45:46Z</time>
      </trkpt>
      <trkpt lat="49.90889" lon="2.54245">
        <ele>41</ele>
        <time>2020-09-30T12:45:47Z</time>
      </trkpt>
      <trkpt lat="49.90888" lon="2.54246">
        <ele>41</ele>
        <time>2020-09-30T12:45:49Z</time>
      </trkpt>
      <trkpt lat="49.90888" lon="2.54246">
        <ele>41</ele>
        <time>2020-09-30T12:45:50Z</time>
      </trkpt>
      <trkpt lat="49.90888" lon="2.54246">
        <ele>41</ele>
        <time>2020-09-30T12:45:51Z</time>
      </trkpt>
      <trkpt lat="49.90888" lon="2.54245">
        <ele>41</ele>
        <time>2020-09-30T12:45:52Z</time>
      </trkpt>
      <trkpt lat="49.90888" lon="2.54246">
        <ele>41</ele>
        <time>2020-09-30T12:45:54Z</time>
      </trkpt>
      <trkpt lat="49.90888" lon="2.54246">
        <ele>41</ele>
        <time>2020-09-30T12:45:55Z</time>
      </trkpt>
      <trkpt lat="49.90888" lon="2.54246">
        <ele>41</ele>
        <time>2020-09-30T12:45:57Z</time>
      </trkpt>
      <trkpt lat="49.90889" lon="2.54246">
        <ele>41</ele>
        <time>2020-09-30T12:45:59Z</time>
      </trkpt>
      <trkpt lat="49.90889" lon="2.54246">
        <ele>41</ele>
        <time>2020-09-30T12:46:00Z</time>
      </trkpt>
      <trkpt lat="49.90888" lon="2.54246">
        <ele>41</ele>
        <time>2020-09-30T12:46:02Z</time>
      </trkpt>
      <trkpt lat="49.90888" lon="2.54246">
        <ele>41</ele>
        <time>2020-09-30T12:46:03Z</time>
      </trkpt>
      <trkpt lat="49.90888" lon="2.54246">
        <ele>41</ele>
        <time>2020-09-30T12:46:04Z</time>
      </trkpt>
      <trkpt lat="49.90888" lon="2.54246">
        <ele>41</ele>
        <time>2020-09-30T12:46:06Z</time>
      </trkpt>
      <trkpt lat="49.90888" lon="2.54246">
        <ele>41</ele>
        <time>2020-09-30T12:46:07Z</time>
      </trkpt>
      <trkpt lat="49.90888" lon="2.54246">
        <ele>41</ele>
        <time>2020-09-30T12:46:08Z</time>
      </trkpt>
      <trkpt lat="49.90888" lon="2.54246">
        <ele>40.9</ele>
        <time>2020-09-30T12:46:10Z</time>
      </trkpt>
      <trkpt lat="49.90888" lon="2.54246">
        <ele>40.9</ele>
        <time>2020-09-30T12:46:12Z</time>
      </trkpt>
      <trkpt lat="49.90888" lon="2.54246">
        <ele>40.9</ele>
        <time>2020-09-30T12:46:14Z</time>
      </trkpt>
      <trkpt lat="49.90888" lon="2.54246">
        <ele>40.9</ele>
        <time>2020-09-30T12:46:16Z</time>
      </trkpt>
      <trkpt lat="49.90888" lon="2.54246">
        <ele>40.9</ele>
        <time>2020-09-30T12:46:18Z</time>
      </trkpt>
      <trkpt lat="49.90888" lon="2.54246">
        <ele>40.9</ele>
        <time>2020-09-30T12:46:19Z</time>
      </trkpt>
      <trkpt lat="49.90888" lon="2.54246">
        <ele>40.9</ele>
        <time>2020-09-30T12:46:21Z</time>
      </trkpt>
      <trkpt lat="49.90888" lon="2.54246">
        <ele>40.9</ele>
        <time>2020-09-30T12:46:23Z</time>
      </trkpt>
      <trkpt lat="49.90888" lon="2.54246">
        <ele>40.9</ele>
        <time>2020-09-30T12:46:25Z</time>
      </trkpt>
      <trkpt lat="49.90888" lon="2.54246">
        <ele>40.9</ele>
        <time>2020-09-30T12:46:26Z</time>
      </trkpt>
      <trkpt lat="49.90888" lon="2.54246">
        <ele>40.9</ele>
        <time>2020-09-30T12:46:28Z</time>
      </trkpt>
      <trkpt lat="49.90888" lon="2.54246">
        <ele>40.9</ele>
        <time>2020-09-30T12:46:30Z</time>
      </trkpt>
      <trkpt lat="49.90888" lon="2.54246">
        <ele>40.9</ele>
        <time>2020-09-30T12:46:32Z</time>
      </trkpt>
      <trkpt lat="49.90888" lon="2.54246">
        <ele>40.9</ele>
        <time>2020-09-30T12:46:34Z</time>
      </trkpt>
      <trkpt lat="49.90888" lon="2.54246">
        <ele>40.9</ele>
        <time>2020-09-30T12:46:36Z</time>
      </trkpt>
      <trkpt lat="49.90888" lon="2.54246">
        <ele>40.9</ele>
        <time>2020-09-30T12:46:37Z</time>
      </trkpt>
      <trkpt lat="49.90888" lon="2.54246">
        <ele>40.9</ele>
        <time>2020-09-30T12:46:39Z</time>
      </trkpt>
      <trkpt lat="49.90888" lon="2.54246">
        <ele>40.9</ele>
        <time>2020-09-30T12:46:40Z</time>
      </trkpt>
      <trkpt lat="49.90888" lon="2.54246">
        <ele>40.9</ele>
        <time>2020-09-30T12:46:41Z</time>
      </trkpt>
      <trkpt lat="49.90888" lon="2.54246">
        <ele>40.9</ele>
        <time>2020-09-30T12:46:43Z</time>
      </trkpt>
      <trkpt lat="49.90888" lon="2.54246">
        <ele>40.9</ele>
        <time>2020-09-30T12:46:44Z</time>
      </trkpt>
      <trkpt lat="49.90888" lon="2.54246">
        <ele>40.9</ele>
        <time>2020-09-30T12:46:45Z</time>
      </trkpt>
      <trkpt lat="49.90888" lon="2.54246">
        <ele>40.9</ele>
        <time>2020-09-30T12:46:47Z</time>
      </trkpt>
      <trkpt lat="49.90888" lon="2.54246">
        <ele>40.9</ele>
        <time>2020-09-30T12:46:49Z</time>
      </trkpt>
      <trkpt lat="49.90888" lon="2.54246">
        <ele>40.9</ele>
        <time>2020-09-30T12:46:51Z</time>
      </trkpt>
      <trkpt lat="49.90888" lon="2.54246">
        <ele>40.9</ele>
        <time>2020-09-30T12:46:53Z</time>
      </trkpt>
      <trkpt lat="49.90888" lon="2.54246">
        <ele>40.9</ele>
        <time>2020-09-30T12:46:55Z</time>
      </trkpt>
      <trkpt lat="49.90888" lon="2.54246">
        <ele>40.9</ele>
        <time>2020-09-30T12:46:56Z</time>
      </trkpt>
      <trkpt lat="49.90888" lon="2.54246">
        <ele>40.9</ele>
        <time>2020-09-30T12:46:57Z</time>
      </trkpt>
      <trkpt lat="49.90888" lon="2.54246">
        <ele>40.9</ele>
        <time>2020-09-30T12:46:58Z</time>
      </trkpt>
      <trkpt lat="49.90888" lon="2.54246">
        <ele>40.9</ele>
        <time>2020-09-30T12:46:59Z</time>
      </trkpt>
      <trkpt lat="49.90888" lon="2.54246">
        <ele>40.9</ele>
        <time>2020-09-30T12:47:01Z</time>
      </trkpt>
      <trkpt lat="49.90887" lon="2.54247">
        <ele>40.9</ele>
        <time>2020-09-30T12:47:03Z</time>
      </trkpt>
      <trkpt lat="49.90888" lon="2.54246">
        <ele>40.9</ele>
        <time>2020-09-30T12:47:04Z</time>
      </trkpt>
      <trkpt lat="49.90889" lon="2.54245">
        <ele>40.9</ele>
        <time>2020-09-30T12:47:06Z</time>
      </trkpt>
      <trkpt lat="49.90889" lon="2.54245">
        <ele>40.9</ele>
        <time>2020-09-30T12:47:07Z</time>
      </trkpt>
      <trkpt lat="49.90889" lon="2.54245">
        <ele>40.9</ele>
        <time>2020-09-30T12:47:08Z</time>
      </trkpt>
      <trkpt lat="49.90889" lon="2.54245">
        <ele>40.9</ele>
        <time>2020-09-30T12:47:09Z</time>
      </trkpt>
      <trkpt lat="49.90889" lon="2.54246">
        <ele>40.9</ele>
        <time>2020-09-30T12:47:10Z</time>
      </trkpt>
      <trkpt lat="49.9089" lon="2.54246">
        <ele>40.9</ele>
        <time>2020-09-30T12:47:11Z</time>
      </trkpt>
      <trkpt lat="49.90893" lon="2.54245">
        <ele>40.8</ele>
        <time>2020-09-30T12:47:13Z</time>
      </trkpt>
      <trkpt lat="49.90894" lon="2.54244">
        <ele>40.8</ele>
        <time>2020-09-30T12:47:14Z</time>
      </trkpt>
      <trkpt lat="49.90895" lon="2.54244">
        <ele>40.8</ele>
        <time>2020-09-30T12:47:15Z</time>
      </trkpt>
      <trkpt lat="49.90897" lon="2.54243">
        <ele>40.7</ele>
        <time>2020-09-30T12:47:16Z</time>
      </trkpt>
      <trkpt lat="49.90899" lon="2.54242">
        <ele>40.7</ele>
        <time>2020-09-30T12:47:17Z</time>
      </trkpt>
      <trkpt lat="49.909" lon="2.54241">
        <ele>40.6</ele>
        <time>2020-09-30T12:47:18Z</time>
      </trkpt>
      <trkpt lat="49.90903" lon="2.5424">
        <ele>40.6</ele>
        <time>2020-09-30T12:47:20Z</time>
      </trkpt>
      <trkpt lat="49.90904" lon="2.54239">
        <ele>40.5</ele>
        <time>2020-09-30T12:47:21Z</time>
      </trkpt>
      <trkpt lat="49.90907" lon="2.54238">
        <ele>40.5</ele>
        <time>2020-09-30T12:47:22Z</time>
      </trkpt>
      <trkpt lat="49.90908" lon="2.54238">
        <ele>40.4</ele>
        <time>2020-09-30T12:47:23Z</time>
      </trkpt>
      <trkpt lat="49.90911" lon="2.54236">
        <ele>40.4</ele>
        <time>2020-09-30T12:47:24Z</time>
      </trkpt>
      <trkpt lat="49.90912" lon="2.54236">
        <ele>40.4</ele>
        <time>2020-09-30T12:47:25Z</time>
      </trkpt>
      <trkpt lat="49.90913" lon="2.54235">
        <ele>40.4</ele>
        <time>2020-09-30T12:47:27Z</time>
      </trkpt>
      <trkpt lat="49.90915" lon="2.54235">
        <ele>40.4</ele>
        <time>2020-09-30T12:47:28Z</time>
      </trkpt>
      <trkpt lat="49.90917" lon="2.54234">
        <ele>40.3</ele>
        <time>2020-09-30T12:47:29Z</time>
      </trkpt>
      <trkpt lat="49.90918" lon="2.54234">
        <ele>40.3</ele>
        <time>2020-09-30T12:47:30Z</time>
      </trkpt>
      <trkpt lat="49.9092" lon="2.54233">
        <ele>40.3</ele>
        <time>2020-09-30T12:47:31Z</time>
      </trkpt>
      <trkpt lat="49.90922" lon="2.54232">
        <ele>40.3</ele>
        <time>2020-09-30T12:47:32Z</time>
      </trkpt>
      <trkpt lat="49.90925" lon="2.54231">
        <ele>40.3</ele>
        <time>2020-09-30T12:47:34Z</time>
      </trkpt>
      <trkpt lat="49.90926" lon="2.5423">
        <ele>40.3</ele>
        <time>2020-09-30T12:47:35Z</time>
      </trkpt>
      <trkpt lat="49.90927" lon="2.5423">
        <ele>40.2</ele>
        <time>2020-09-30T12:47:36Z</time>
      </trkpt>
      <trkpt lat="49.90928" lon="2.54229">
        <ele>40.2</ele>
        <time>2020-09-30T12:47:37Z</time>
      </trkpt>
      <trkpt lat="49.9093" lon="2.54229">
        <ele>40.2</ele>
        <time>2020-09-30T12:47:38Z</time>
      </trkpt>
      <trkpt lat="49.90931" lon="2.54228">
        <ele>40.1</ele>
        <time>2020-09-30T12:47:40Z</time>
      </trkpt>
      <trkpt lat="49.90933" lon="2.54228">
        <ele>40.1</ele>
        <time>2020-09-30T12:47:41Z</time>
      </trkpt>
      <trkpt lat="49.90934" lon="2.54228">
        <ele>40</ele>
        <time>2020-09-30T12:47:42Z</time>
      </trkpt>
      <trkpt lat="49.90936" lon="2.54227">
        <ele>40</ele>
        <time>2020-09-30T12:47:43Z</time>
      </trkpt>
      <trkpt lat="49.90937" lon="2.54227">
        <ele>39.9</ele>
        <time>2020-09-30T12:47:44Z</time>
      </trkpt>
      <trkpt lat="49.90938" lon="2.54227">
        <ele>39.9</ele>
        <time>2020-09-30T12:47:45Z</time>
      </trkpt>
      <trkpt lat="49.90939" lon="2.54227">
        <ele>39.9</ele>
        <time>2020-09-30T12:47:47Z</time>
      </trkpt>
      <trkpt lat="49.9094" lon="2.54227">
        <ele>39.8</ele>
        <time>2020-09-30T12:47:48Z</time>
      </trkpt>
      <trkpt lat="49.90941" lon="2.54227">
        <ele>39.8</ele>
        <time>2020-09-30T12:47:49Z</time>
      </trkpt>
      <trkpt lat="49.90943" lon="2.54226">
        <ele>39.8</ele>
        <time>2020-09-30T12:47:50Z</time>
      </trkpt>
      <trkpt lat="49.90945" lon="2.54226">
        <ele>39.7</ele>
        <time>2020-09-30T12:47:51Z</time>
      </trkpt>
      <trkpt lat="49.90946" lon="2.54226">
        <ele>39.7</ele>
        <time>2020-09-30T12:47:52Z</time>
      </trkpt>
      <trkpt lat="49.90947" lon="2.54226">
        <ele>39.6</ele>
        <time>2020-09-30T12:47:53Z</time>
      </trkpt>
      <trkpt lat="49.90948" lon="2.54226">
        <ele>39.6</ele>
        <time>2020-09-30T12:47:55Z</time>
      </trkpt>
      <trkpt lat="49.90949" lon="2.54226">
        <ele>39.6</ele>
        <time>2020-09-30T12:47:56Z</time>
      </trkpt>
      <trkpt lat="49.9095" lon="2.54226">
        <ele>39.6</ele>
        <time>2020-09-30T12:47:57Z</time>
      </trkpt>
      <trkpt lat="49.90951" lon="2.54226">
        <ele>39.6</ele>
        <time>2020-09-30T12:47:58Z</time>
      </trkpt>
      <trkpt lat="49.90952" lon="2.54226">
        <ele>39.6</ele>
        <time>2020-09-30T12:47:59Z</time>
      </trkpt>
      <trkpt lat="49.90954" lon="2.54227">
        <ele>39.6</ele>
        <time>2020-09-30T12:48:01Z</time>
      </trkpt>
      <trkpt lat="49.90955" lon="2.54227">
        <ele>39.5</ele>
        <time>2020-09-30T12:48:02Z</time>
      </trkpt>
      <trkpt lat="49.90956" lon="2.54227">
        <ele>39.5</ele>
        <time>2020-09-30T12:48:03Z</time>
      </trkpt>
      <trkpt lat="49.90957" lon="2.54227">
        <ele>39.5</ele>
        <time>2020-09-30T12:48:04Z</time>
      </trkpt>
      <trkpt lat="49.90958" lon="2.54227">
        <ele>39.5</ele>
        <time>2020-09-30T12:48:05Z</time>
      </trkpt>
      <trkpt lat="49.9096" lon="2.54227">
        <ele>39.5</ele>
        <time>2020-09-30T12:48:06Z</time>
      </trkpt>
      <trkpt lat="49.90961" lon="2.54227">
        <ele>39.6</ele>
        <time>2020-09-30T12:48:08Z</time>
      </trkpt>
      <trkpt lat="49.90962" lon="2.54228">
        <ele>39.6</ele>
        <time>2020-09-30T12:48:10Z</time>
      </trkpt>
      <trkpt lat="49.90963" lon="2.54228">
        <ele>39.6</ele>
        <time>2020-09-30T12:48:11Z</time>
      </trkpt>
      <trkpt lat="49.90963" lon="2.54228">
        <ele>39.6</ele>
        <time>2020-09-30T12:48:12Z</time>
      </trkpt>
      <trkpt lat="49.90964" lon="2.54227">
        <ele>39.6</ele>
        <time>2020-09-30T12:48:13Z</time>
      </trkpt>
      <trkpt lat="49.90964" lon="2.54227">
        <ele>39.6</ele>
        <time>2020-09-30T12:48:15Z</time>
      </trkpt>
      <trkpt lat="49.90963" lon="2.54227">
        <ele>39.6</ele>
        <time>2020-09-30T12:48:17Z</time>
      </trkpt>
      <trkpt lat="49.90963" lon="2.54227">
        <ele>39.6</ele>
        <time>2020-09-30T12:48:19Z</time>
      </trkpt>
      <trkpt lat="49.90963" lon="2.54226">
        <ele>39.6</ele>
        <time>2020-09-30T12:48:20Z</time>
      </trkpt>
      <trkpt lat="49.90963" lon="2.54226">
        <ele>39.6</ele>
        <time>2020-09-30T12:48:22Z</time>
      </trkpt>
      <trkpt lat="49.90963" lon="2.54226">
        <ele>39.6</ele>
        <time>2020-09-30T12:48:24Z</time>
      </trkpt>
      <trkpt lat="49.90963" lon="2.54226">
        <ele>39.6</ele>
        <time>2020-09-30T12:48:26Z</time>
      </trkpt>
      <trkpt lat="49.90963" lon="2.54226">
        <ele>39.6</ele>
        <time>2020-09-30T12:48:28Z</time>
      </trkpt>
      <trkpt lat="49.90963" lon="2.54226">
        <ele>39.6</ele>
        <time>2020-09-30T12:48:29Z</time>
      </trkpt>
      <trkpt lat="49.90963" lon="2.54226">
        <ele>39.6</ele>
        <time>2020-09-30T12:48:31Z</time>
      </trkpt>
      <trkpt lat="49.90963" lon="2.54226">
        <ele>39.6</ele>
        <time>2020-09-30T12:48:33Z</time>
      </trkpt>
      <trkpt lat="49.90963" lon="2.54226">
        <ele>39.6</ele>
        <time>2020-09-30T12:48:34Z</time>
      </trkpt>
      <trkpt lat="49.90963" lon="2.54226">
        <ele>39.6</ele>
        <time>2020-09-30T12:48:35Z</time>
      </trkpt>
      <trkpt lat="49.90963" lon="2.54226">
        <ele>39.6</ele>
        <time>2020-09-30T12:48:37Z</time>
      </trkpt>
      <trkpt lat="49.90963" lon="2.54226">
        <ele>39.6</ele>
        <time>2020-09-30T12:48:38Z</time>
      </trkpt>
      <trkpt lat="49.90963" lon="2.54226">
        <ele>39.6</ele>
        <time>2020-09-30T12:48:40Z</time>
      </trkpt>
      <trkpt lat="49.90963" lon="2.54226">
        <ele>39.6</ele>
        <time>2020-09-30T12:48:41Z</time>
      </trkpt>
      <trkpt lat="49.90963" lon="2.54226">
        <ele>39.6</ele>
        <time>2020-09-30T12:48:43Z</time>
      </trkpt>
      <trkpt lat="49.90963" lon="2.54226">
        <ele>39.6</ele>
        <time>2020-09-30T12:48:44Z</time>
      </trkpt>
      <trkpt lat="49.90963" lon="2.54226">
        <ele>39.6</ele>
        <time>2020-09-30T12:48:45Z</time>
      </trkpt>
      <trkpt lat="49.90963" lon="2.54226">
        <ele>39.6</ele>
        <time>2020-09-30T12:48:46Z</time>
      </trkpt>
      <trkpt lat="49.90963" lon="2.54226">
        <ele>39.6</ele>
        <time>2020-09-30T12:48:47Z</time>
      </trkpt>
      <trkpt lat="49.90963" lon="2.54226">
        <ele>39.6</ele>
        <time>2020-09-30T12:48:49Z</time>
      </trkpt>
      <trkpt lat="49.90963" lon="2.54226">
        <ele>39.6</ele>
        <time>2020-09-30T12:48:50Z</time>
      </trkpt>
      <trkpt lat="49.90963" lon="2.54226">
        <ele>39.6</ele>
        <time>2020-09-30T12:48:51Z</time>
      </trkpt>
      <trkpt lat="49.90963" lon="2.54226">
        <ele>39.6</ele>
        <time>2020-09-30T12:48:53Z</time>
      </trkpt>
      <trkpt lat="49.90963" lon="2.54226">
        <ele>39.6</ele>
        <time>2020-09-30T12:48:54Z</time>
      </trkpt>
      <trkpt lat="49.90963" lon="2.54226">
        <ele>39.6</ele>
        <time>2020-09-30T12:48:55Z</time>
      </trkpt>
      <trkpt lat="49.90963" lon="2.54226">
        <ele>39.6</ele>
        <time>2020-09-30T12:48:57Z</time>
      </trkpt>
      <trkpt lat="49.90963" lon="2.54226">
        <ele>39.6</ele>
        <time>2020-09-30T12:48:58Z</time>
      </trkpt>
      <trkpt lat="49.90963" lon="2.54226">
        <ele>39.6</ele>
        <time>2020-09-30T12:49:00Z</time>
      </trkpt>
      <trkpt lat="49.90963" lon="2.54226">
        <ele>39.6</ele>
        <time>2020-09-30T12:49:01Z</time>
      </trkpt>
      <trkpt lat="49.90963" lon="2.54226">
        <ele>39.6</ele>
        <time>2020-09-30T12:49:03Z</time>
      </trkpt>
      <trkpt lat="49.90963" lon="2.54226">
        <ele>39.6</ele>
        <time>2020-09-30T12:49:04Z</time>
      </trkpt>
      <trkpt lat="49.90963" lon="2.54226">
        <ele>39.6</ele>
        <time>2020-09-30T12:49:05Z</time>
      </trkpt>
      <trkpt lat="49.90963" lon="2.54226">
        <ele>39.6</ele>
        <time>2020-09-30T12:49:07Z</time>
      </trkpt>
      <trkpt lat="49.90963" lon="2.54226">
        <ele>39.6</ele>
        <time>2020-09-30T12:49:08Z</time>
      </trkpt>
      <trkpt lat="49.90963" lon="2.54226">
        <ele>39.6</ele>
        <time>2020-09-30T12:49:10Z</time>
      </trkpt>
      <trkpt lat="49.90963" lon="2.54226">
        <ele>39.6</ele>
        <time>2020-09-30T12:49:12Z</time>
      </trkpt>
      <trkpt lat="49.90963" lon="2.54226">
        <ele>39.6</ele>
        <time>2020-09-30T12:49:13Z</time>
      </trkpt>
      <trkpt lat="49.90963" lon="2.54226">
        <ele>39.6</ele>
        <time>2020-09-30T12:49:15Z</time>
      </trkpt>
      <trkpt lat="49.90963" lon="2.54226">
        <ele>39.6</ele>
        <time>2020-09-30T12:49:16Z</time>
      </trkpt>
      <trkpt lat="49.90963" lon="2.54226">
        <ele>39.6</ele>
        <time>2020-09-30T12:49:18Z</time>
      </trkpt>
      <trkpt lat="49.90963" lon="2.54226">
        <ele>39.6</ele>
        <time>2020-09-30T12:49:19Z</time>
      </trkpt>
      <trkpt lat="49.90963" lon="2.54226">
        <ele>39.6</ele>
        <time>2020-09-30T12:49:20Z</time>
      </trkpt>
      <trkpt lat="49.90963" lon="2.54226">
        <ele>39.6</ele>
        <time>2020-09-30T12:49:22Z</time>
      </trkpt>
      <trkpt lat="49.90963" lon="2.54226">
        <ele>39.6</ele>
        <time>2020-09-30T12:49:23Z</time>
      </trkpt>
      <trkpt lat="49.90963" lon="2.54226">
        <ele>39.6</ele>
        <time>2020-09-30T12:49:24Z</time>
      </trkpt>
      <trkpt lat="49.90963" lon="2.54226">
        <ele>39.6</ele>
        <time>2020-09-30T12:49:26Z</time>
      </trkpt>
      <trkpt lat="49.90963" lon="2.54226">
        <ele>39.6</ele>
        <time>2020-09-30T12:49:28Z</time>
      </trkpt>
      <trkpt lat="49.90963" lon="2.54226">
        <ele>39.6</ele>
        <time>2020-09-30T12:49:29Z</time>
      </trkpt>
      <trkpt lat="49.90963" lon="2.54226">
        <ele>39.6</ele>
        <time>2020-09-30T12:49:31Z</time>
      </trkpt>
      <trkpt lat="49.90963" lon="2.54226">
        <ele>39.6</ele>
        <time>2020-09-30T12:49:32Z</time>
      </trkpt>
      <trkpt lat="49.90963" lon="2.54226">
        <ele>39.6</ele>
        <time>2020-09-30T12:49:33Z</time>
      </trkpt>
      <trkpt lat="49.90963" lon="2.54226">
        <ele>39.6</ele>
        <time>2020-09-30T12:49:35Z</time>
      </trkpt>
      <trkpt lat="49.90961" lon="2.54226">
        <ele>39.6</ele>
        <time>2020-09-30T12:49:36Z</time>
      </trkpt>
      <trkpt lat="49.9096" lon="2.54225">
        <ele>39.6</ele>
        <time>2020-09-30T12:49:38Z</time>
      </trkpt>
      <trkpt lat="49.9096" lon="2.54225">
        <ele>39.6</ele>
        <time>2020-09-30T12:49:39Z</time>
      </trkpt>
      <trkpt lat="49.90961" lon="2.54225">
        <ele>39.7</ele>
        <time>2020-09-30T12:49:40Z</time>
      </trkpt>
      <trkpt lat="49.90962" lon="2.54225">
        <ele>39.7</ele>
        <time>2020-09-30T12:49:41Z</time>
      </trkpt>
      <trkpt lat="49.90964" lon="2.54224">
        <ele>39.7</ele>
        <time>2020-09-30T12:49:42Z</time>
      </trkpt>
      <trkpt lat="49.90964" lon="2.54224">
        <ele>39.7</ele>
        <time>2020-09-30T12:49:43Z</time>
      </trkpt>
      <trkpt lat="49.90964" lon="2.54223">
        <ele>39.7</ele>
        <time>2020-09-30T12:49:44Z</time>
      </trkpt>
      <trkpt lat="49.90964" lon="2.54222">
        <ele>39.7</ele>
        <time>2020-09-30T12:49:45Z</time>
      </trkpt>
      <trkpt lat="49.90964" lon="2.54222">
        <ele>39.7</ele>
        <time>2020-09-30T12:49:46Z</time>
      </trkpt>
      <trkpt lat="49.90965" lon="2.5422">
        <ele>39.6</ele>
        <time>2020-09-30T12:49:48Z</time>
      </trkpt>
      <trkpt lat="49.90967" lon="2.5422">
        <ele>39.6</ele>
        <time>2020-09-30T12:49:49Z</time>
      </trkpt>
      <trkpt lat="49.90968" lon="2.5422">
        <ele>39.6</ele>
        <time>2020-09-30T12:49:50Z</time>
      </trkpt>
      <trkpt lat="49.90969" lon="2.5422">
        <ele>39.6</ele>
        <time>2020-09-30T12:49:51Z</time>
      </trkpt>
      <trkpt lat="49.90973" lon="2.5422">
        <ele>39.6</ele>
        <time>2020-09-30T12:49:52Z</time>
      </trkpt>
      <trkpt lat="49.90974" lon="2.5422">
        <ele>39.6</ele>
        <time>2020-09-30T12:49:54Z</time>
      </trkpt>
      <trkpt lat="49.90976" lon="2.5422">
        <ele>39.6</ele>
        <time>2020-09-30T12:49:55Z</time>
      </trkpt>
      <trkpt lat="49.90978" lon="2.5422">
        <ele>39.6</ele>
        <time>2020-09-30T12:49:56Z</time>
      </trkpt>
      <trkpt lat="49.90981" lon="2.5422">
        <ele>39.6</ele>
        <time>2020-09-30T12:49:57Z</time>
      </trkpt>
      <trkpt lat="49.90982" lon="2.5422">
        <ele>39.6</ele>
        <time>2020-09-30T12:49:58Z</time>
      </trkpt>
      <trkpt lat="49.90984" lon="2.54221">
        <ele>39.6</ele>
        <time>2020-09-30T12:49:59Z</time>
      </trkpt>
      <trkpt lat="49.90985" lon="2.54221">
        <ele>39.6</ele>
        <time>2020-09-30T12:50:01Z</time>
      </trkpt>
      <trkpt lat="49.90987" lon="2.54222">
        <ele>39.6</ele>
        <time>2020-09-30T12:50:02Z</time>
      </trkpt>
      <trkpt lat="49.90988" lon="2.54222">
        <ele>39.6</ele>
        <time>2020-09-30T12:50:03Z</time>
      </trkpt>
      <trkpt lat="49.90991" lon="2.54222">
        <ele>39.6</ele>
        <time>2020-09-30T12:50:05Z</time>
      </trkpt>
      <trkpt lat="49.90992" lon="2.54223">
        <ele>39.6</ele>
        <time>2020-09-30T12:50:06Z</time>
      </trkpt>
      <trkpt lat="49.90994" lon="2.54223">
        <ele>39.6</ele>
        <time>2020-09-30T12:50:07Z</time>
      </trkpt>
      <trkpt lat="49.90995" lon="2.54223">
        <ele>39.6</ele>
        <time>2020-09-30T12:50:08Z</time>
      </trkpt>
      <trkpt lat="49.90997" lon="2.54223">
        <ele>39.6</ele>
        <time>2020-09-30T12:50:09Z</time>
      </trkpt>
      <trkpt lat="49.90998" lon="2.54223">
        <ele>39.6</ele>
        <time>2020-09-30T12:50:11Z</time>
      </trkpt>
      <trkpt lat="49.90999" lon="2.54223">
        <ele>39.6</ele>
        <time>2020-09-30T12:50:12Z</time>
      </trkpt>
      <trkpt lat="49.91" lon="2.54223">
        <ele>39.6</ele>
        <time>2020-09-30T12:50:13Z</time>
      </trkpt>
      <trkpt lat="49.91002" lon="2.54223">
        <ele>39.6</ele>
        <time>2020-09-30T12:50:14Z</time>
      </trkpt>
      <trkpt lat="49.91003" lon="2.54223">
        <ele>39.5</ele>
        <time>2020-09-30T12:50:15Z</time>
      </trkpt>
      <trkpt lat="49.91004" lon="2.54224">
        <ele>39.5</ele>
        <time>2020-09-30T12:50:17Z</time>
      </trkpt>
      <trkpt lat="49.91006" lon="2.54224">
        <ele>39.5</ele>
        <time>2020-09-30T12:50:18Z</time>
      </trkpt>
      <trkpt lat="49.91007" lon="2.54224">
        <ele>39.5</ele>
        <time>2020-09-30T12:50:19Z</time>
      </trkpt>
      <trkpt lat="49.91009" lon="2.54224">
        <ele>39.5</ele>
        <time>2020-09-30T12:50:21Z</time>
      </trkpt>
      <trkpt lat="49.9101" lon="2.54224">
        <ele>39.4</ele>
        <time>2020-09-30T12:50:22Z</time>
      </trkpt>
      <trkpt lat="49.91012" lon="2.54225">
        <ele>39.4</ele>
        <time>2020-09-30T12:50:23Z</time>
      </trkpt>
      <trkpt lat="49.91014" lon="2.54225">
        <ele>39.3</ele>
        <time>2020-09-30T12:50:24Z</time>
      </trkpt>
      <trkpt lat="49.91016" lon="2.54225">
        <ele>39.3</ele>
        <time>2020-09-30T12:50:25Z</time>
      </trkpt>
      <trkpt lat="49.91017" lon="2.54225">
        <ele>39.3</ele>
        <time>2020-09-30T12:50:26Z</time>
      </trkpt>
      <trkpt lat="49.91018" lon="2.54225">
        <ele>39.3</ele>
        <time>2020-09-30T12:50:27Z</time>
      </trkpt>
      <trkpt lat="49.91019" lon="2.54225">
        <ele>39.2</ele>
        <time>2020-09-30T12:50:29Z</time>
      </trkpt>
      <trkpt lat="49.9102" lon="2.54225">
        <ele>39.2</ele>
        <time>2020-09-30T12:50:30Z</time>
      </trkpt>
      <trkpt lat="49.91021" lon="2.54225">
        <ele>39.2</ele>
        <time>2020-09-30T12:50:31Z</time>
      </trkpt>
      <trkpt lat="49.91023" lon="2.54225">
        <ele>39.2</ele>
        <time>2020-09-30T12:50:32Z</time>
      </trkpt>
      <trkpt lat="49.91024" lon="2.54225">
        <ele>39.2</ele>
        <time>2020-09-30T12:50:33Z</time>
      </trkpt>
      <trkpt lat="49.91026" lon="2.54225">
        <ele>39.1</ele>
        <time>2020-09-30T12:50:34Z</time>
      </trkpt>
      <trkpt lat="49.91027" lon="2.54225">
        <ele>39.1</ele>
        <time>2020-09-30T12:50:36Z</time>
      </trkpt>
      <trkpt lat="49.91028" lon="2.54225">
        <ele>39.1</ele>
        <time>2020-09-30T12:50:37Z</time>
      </trkpt>
      <trkpt lat="49.91029" lon="2.54225">
        <ele>39.1</ele>
        <time>2020-09-30T12:50:38Z</time>
      </trkpt>
      <trkpt lat="49.91031" lon="2.54225">
        <ele>39.1</ele>
        <time>2020-09-30T12:50:39Z</time>
      </trkpt>
      <trkpt lat="49.91032" lon="2.54225">
        <ele>39.1</ele>
        <time>2020-09-30T12:50:40Z</time>
      </trkpt>
      <trkpt lat="49.91034" lon="2.54224">
        <ele>39.1</ele>
        <time>2020-09-30T12:50:41Z</time>
      </trkpt>
      <trkpt lat="49.91035" lon="2.54224">
        <ele>39.1</ele>
        <time>2020-09-30T12:50:43Z</time>
      </trkpt>
      <trkpt lat="49.91036" lon="2.54224">
        <ele>39.1</ele>
        <time>2020-09-30T12:50:44Z</time>
      </trkpt>
      <trkpt lat="49.91037" lon="2.54224">
        <ele>39.1</ele>
        <time>2020-09-30T12:50:45Z</time>
      </trkpt>
      <trkpt lat="49.91039" lon="2.54224">
        <ele>39.1</ele>
        <time>2020-09-30T12:50:46Z</time>
      </trkpt>
      <trkpt lat="49.9104" lon="2.54224">
        <ele>39.1</ele>
        <time>2020-09-30T12:50:47Z</time>
      </trkpt>
      <trkpt lat="49.91041" lon="2.54224">
        <ele>39.2</ele>
        <time>2020-09-30T12:50:48Z</time>
      </trkpt>
      <trkpt lat="49.91043" lon="2.54225">
        <ele>39.2</ele>
        <time>2020-09-30T12:50:50Z</time>
      </trkpt>
      <trkpt lat="49.91044" lon="2.54225">
        <ele>39.2</ele>
        <time>2020-09-30T12:50:51Z</time>
      </trkpt>
      <trkpt lat="49.91045" lon="2.54225">
        <ele>39.2</ele>
        <time>2020-09-30T12:50:52Z</time>
      </trkpt>
      <trkpt lat="49.91046" lon="2.54225">
        <ele>39.2</ele>
        <time>2020-09-30T12:50:53Z</time>
      </trkpt>
      <trkpt lat="49.91048" lon="2.54225">
        <ele>39.2</ele>
        <time>2020-09-30T12:50:54Z</time>
      </trkpt>
      <trkpt lat="49.91049" lon="2.54225">
        <ele>39.2</ele>
        <time>2020-09-30T12:50:55Z</time>
      </trkpt>
      <trkpt lat="49.9105" lon="2.54225">
        <ele>39.2</ele>
        <time>2020-09-30T12:50:56Z</time>
      </trkpt>
      <trkpt lat="49.91051" lon="2.54225">
        <ele>39.2</ele>
        <time>2020-09-30T12:50:58Z</time>
      </trkpt>
      <trkpt lat="49.91053" lon="2.54225">
        <ele>39.2</ele>
        <time>2020-09-30T12:50:59Z</time>
      </trkpt>
      <trkpt lat="49.91054" lon="2.54225">
        <ele>39.2</ele>
        <time>2020-09-30T12:51:00Z</time>
      </trkpt>
      <trkpt lat="49.91056" lon="2.54225">
        <ele>39.2</ele>
        <time>2020-09-30T12:51:01Z</time>
      </trkpt>
      <trkpt lat="49.91057" lon="2.54225">
        <ele>39.2</ele>
        <time>2020-09-30T12:51:02Z</time>
      </trkpt>
      <trkpt lat="49.91058" lon="2.54225">
        <ele>39.2</ele>
        <time>2020-09-30T12:51:03Z</time>
      </trkpt>
      <trkpt lat="49.9106" lon="2.54225">
        <ele>39.2</ele>
        <time>2020-09-30T12:51:05Z</time>
      </trkpt>
      <trkpt lat="49.91061" lon="2.54226">
        <ele>39.2</ele>
        <time>2020-09-30T12:51:06Z</time>
      </trkpt>
      <trkpt lat="49.91062" lon="2.54226">
        <ele>39.2</ele>
        <time>2020-09-30T12:51:07Z</time>
      </trkpt>
      <trkpt lat="49.91062" lon="2.54226">
        <ele>39.2</ele>
        <time>2020-09-30T12:51:08Z</time>
      </trkpt>
      <trkpt lat="49.91064" lon="2.54226">
        <ele>39.1</ele>
        <time>2020-09-30T12:51:10Z</time>
      </trkpt>
      <trkpt lat="49.91067" lon="2.54227">
        <ele>39.1</ele>
        <time>2020-09-30T12:51:12Z</time>
      </trkpt>
      <trkpt lat="49.9107" lon="2.54227">
        <ele>39.1</ele>
        <time>2020-09-30T12:51:14Z</time>
      </trkpt>
      <trkpt lat="49.9107" lon="2.54227">
        <ele>39.1</ele>
        <time>2020-09-30T12:51:15Z</time>
      </trkpt>
      <trkpt lat="49.9107" lon="2.54228">
        <ele>39.1</ele>
        <time>2020-09-30T12:51:16Z</time>
      </trkpt>
      <trkpt lat="49.9107" lon="2.54229">
        <ele>39.1</ele>
        <time>2020-09-30T12:51:17Z</time>
      </trkpt>
      <trkpt lat="49.91071" lon="2.5423">
        <ele>39</ele>
        <time>2020-09-30T12:51:18Z</time>
      </trkpt>
      <trkpt lat="49.91072" lon="2.5423">
        <ele>39</ele>
        <time>2020-09-30T12:51:19Z</time>
      </trkpt>
      <trkpt lat="49.91073" lon="2.54229">
        <ele>39</ele>
        <time>2020-09-30T12:51:20Z</time>
      </trkpt>
      <trkpt lat="49.91074" lon="2.54229">
        <ele>39</ele>
        <time>2020-09-30T12:51:22Z</time>
      </trkpt>
      <trkpt lat="49.91075" lon="2.54229">
        <ele>39</ele>
        <time>2020-09-30T12:51:23Z</time>
      </trkpt>
      <trkpt lat="49.91077" lon="2.54229">
        <ele>38.9</ele>
        <time>2020-09-30T12:51:24Z</time>
      </trkpt>
      <trkpt lat="49.91078" lon="2.54229">
        <ele>38.9</ele>
        <time>2020-09-30T12:51:25Z</time>
      </trkpt>
      <trkpt lat="49.91079" lon="2.54229">
        <ele>38.9</ele>
        <time>2020-09-30T12:51:26Z</time>
      </trkpt>
      <trkpt lat="49.91082" lon="2.5423">
        <ele>38.8</ele>
        <time>2020-09-30T12:51:27Z</time>
      </trkpt>
      <trkpt lat="49.91083" lon="2.5423">
        <ele>38.8</ele>
        <time>2020-09-30T12:51:28Z</time>
      </trkpt>
      <trkpt lat="49.91086" lon="2.5423">
        <ele>38.7</ele>
        <time>2020-09-30T12:51:29Z</time>
      </trkpt>
      <trkpt lat="49.91088" lon="2.5423">
        <ele>38.6</ele>
        <time>2020-09-30T12:51:31Z</time>
      </trkpt>
      <trkpt lat="49.91089" lon="2.5423">
        <ele>38.6</ele>
        <time>2020-09-30T12:51:32Z</time>
      </trkpt>
      <trkpt lat="49.9109" lon="2.5423">
        <ele>38.6</ele>
        <time>2020-09-30T12:51:33Z</time>
      </trkpt>
      <trkpt lat="49.91092" lon="2.5423">
        <ele>38.6</ele>
        <time>2020-09-30T12:51:34Z</time>
      </trkpt>
      <trkpt lat="49.91094" lon="2.5423">
        <ele>38.6</ele>
        <time>2020-09-30T12:51:35Z</time>
      </trkpt>
      <trkpt lat="49.91096" lon="2.5423">
        <ele>38.5</ele>
        <time>2020-09-30T12:51:36Z</time>
      </trkpt>
      <trkpt lat="49.91097" lon="2.5423">
        <ele>38.5</ele>
        <time>2020-09-30T12:51:37Z</time>
      </trkpt>
      <trkpt lat="49.91099" lon="2.5423">
        <ele>38.6</ele>
        <time>2020-09-30T12:51:38Z</time>
      </trkpt>
      <trkpt lat="49.911" lon="2.5423">
        <ele>38.6</ele>
        <time>2020-09-30T12:51:40Z</time>
      </trkpt>
      <trkpt lat="49.91102" lon="2.54229">
        <ele>38.6</ele>
        <time>2020-09-30T12:51:41Z</time>
      </trkpt>
      <trkpt lat="49.91103" lon="2.54229">
        <ele>38.6</ele>
        <time>2020-09-30T12:51:42Z</time>
      </trkpt>
      <trkpt lat="49.91105" lon="2.54229">
        <ele>38.6</ele>
        <time>2020-09-30T12:51:43Z</time>
      </trkpt>
      <trkpt lat="49.91106" lon="2.54228">
        <ele>38.6</ele>
        <time>2020-09-30T12:51:44Z</time>
      </trkpt>
      <trkpt lat="49.91107" lon="2.54228">
        <ele>38.7</ele>
        <time>2020-09-30T12:51:45Z</time>
      </trkpt>
      <trkpt lat="49.91109" lon="2.54228">
        <ele>38.7</ele>
        <time>2020-09-30T12:51:46Z</time>
      </trkpt>
      <trkpt lat="49.91111" lon="2.54228">
        <ele>38.7</ele>
        <time>2020-09-30T12:51:47Z</time>
      </trkpt>
      <trkpt lat="49.91112" lon="2.54228">
        <ele>38.7</ele>
        <time>2020-09-30T12:51:49Z</time>
      </trkpt>
      <trkpt lat="49.91113" lon="2.54228">
        <ele>38.7</ele>
        <time>2020-09-30T12:51:50Z</time>
      </trkpt>
      <trkpt lat="49.91115" lon="2.54228">
        <ele>38.7</ele>
        <time>2020-09-30T12:51:51Z</time>
      </trkpt>
      <trkpt lat="49.91116" lon="2.54228">
        <ele>38.7</ele>
        <time>2020-09-30T12:51:52Z</time>
      </trkpt>
      <trkpt lat="49.91118" lon="2.54228">
        <ele>38.7</ele>
        <time>2020-09-30T12:51:53Z</time>
      </trkpt>
      <trkpt lat="49.9112" lon="2.54228">
        <ele>38.7</ele>
        <time>2020-09-30T12:51:54Z</time>
      </trkpt>
      <trkpt lat="49.91121" lon="2.54229">
        <ele>38.8</ele>
        <time>2020-09-30T12:51:56Z</time>
      </trkpt>
      <trkpt lat="49.91122" lon="2.54229">
        <ele>38.8</ele>
        <time>2020-09-30T12:51:57Z</time>
      </trkpt>
      <trkpt lat="49.91125" lon="2.54229">
        <ele>38.8</ele>
        <time>2020-09-30T12:51:58Z</time>
      </trkpt>
      <trkpt lat="49.91125" lon="2.54229">
        <ele>38.8</ele>
        <time>2020-09-30T12:51:59Z</time>
      </trkpt>
      <trkpt lat="49.91126" lon="2.5423">
        <ele>38.8</ele>
        <time>2020-09-30T12:52:01Z</time>
      </trkpt>
      <trkpt lat="49.91129" lon="2.5423">
        <ele>38.8</ele>
        <time>2020-09-30T12:52:02Z</time>
      </trkpt>
      <trkpt lat="49.91131" lon="2.5423">
        <ele>38.8</ele>
        <time>2020-09-30T12:52:03Z</time>
      </trkpt>
      <trkpt lat="49.91132" lon="2.5423">
        <ele>38.7</ele>
        <time>2020-09-30T12:52:05Z</time>
      </trkpt>
      <trkpt lat="49.91133" lon="2.5423">
        <ele>38.7</ele>
        <time>2020-09-30T12:52:06Z</time>
      </trkpt>
      <trkpt lat="49.91134" lon="2.5423">
        <ele>38.7</ele>
        <time>2020-09-30T12:52:07Z</time>
      </trkpt>
      <trkpt lat="49.91137" lon="2.5423">
        <ele>38.7</ele>
        <time>2020-09-30T12:52:09Z</time>
      </trkpt>
      <trkpt lat="49.91137" lon="2.5423">
        <ele>38.7</ele>
        <time>2020-09-30T12:52:10Z</time>
      </trkpt>
      <trkpt lat="49.91139" lon="2.54229">
        <ele>38.6</ele>
        <time>2020-09-30T12:52:11Z</time>
      </trkpt>
      <trkpt lat="49.9114" lon="2.54229">
        <ele>38.6</ele>
        <time>2020-09-30T12:52:12Z</time>
      </trkpt>
      <trkpt lat="49.91141" lon="2.54229">
        <ele>38.6</ele>
        <time>2020-09-30T12:52:13Z</time>
      </trkpt>
      <trkpt lat="49.91144" lon="2.54229">
        <ele>38.5</ele>
        <time>2020-09-30T12:52:14Z</time>
      </trkpt>
      <trkpt lat="49.91145" lon="2.54229">
        <ele>38.4</ele>
        <time>2020-09-30T12:52:16Z</time>
      </trkpt>
      <trkpt lat="49.91146" lon="2.54229">
        <ele>38.4</ele>
        <time>2020-09-30T12:52:17Z</time>
      </trkpt>
      <trkpt lat="49.91148" lon="2.54229">
        <ele>38.3</ele>
        <time>2020-09-30T12:52:18Z</time>
      </trkpt>
      <trkpt lat="49.91149" lon="2.5423">
        <ele>38.3</ele>
        <time>2020-09-30T12:52:19Z</time>
      </trkpt>
      <trkpt lat="49.9115" lon="2.5423">
        <ele>38.2</ele>
        <time>2020-09-30T12:52:20Z</time>
      </trkpt>
      <trkpt lat="49.91152" lon="2.5423">
        <ele>38.1</ele>
        <time>2020-09-30T12:52:21Z</time>
      </trkpt>
      <trkpt lat="49.91154" lon="2.5423">
        <ele>38.1</ele>
        <time>2020-09-30T12:52:22Z</time>
      </trkpt>
      <trkpt lat="49.91155" lon="2.5423">
        <ele>38</ele>
        <time>2020-09-30T12:52:24Z</time>
      </trkpt>
      <trkpt lat="49.91155" lon="2.5423">
        <ele>38</ele>
        <time>2020-09-30T12:52:25Z</time>
      </trkpt>
      <trkpt lat="49.91157" lon="2.54231">
        <ele>37.9</ele>
        <time>2020-09-30T12:52:26Z</time>
      </trkpt>
      <trkpt lat="49.91158" lon="2.54231">
        <ele>37.9</ele>
        <time>2020-09-30T12:52:27Z</time>
      </trkpt>
      <trkpt lat="49.9116" lon="2.5423">
        <ele>37.8</ele>
        <time>2020-09-30T12:52:28Z</time>
      </trkpt>
      <trkpt lat="49.91161" lon="2.5423">
        <ele>37.8</ele>
        <time>2020-09-30T12:52:29Z</time>
      </trkpt>
      <trkpt lat="49.91162" lon="2.5423">
        <ele>37.8</ele>
        <time>2020-09-30T12:52:30Z</time>
      </trkpt>
      <trkpt lat="49.91163" lon="2.5423">
        <ele>37.8</ele>
        <time>2020-09-30T12:52:32Z</time>
      </trkpt>
      <trkpt lat="49.91164" lon="2.5423">
        <ele>37.8</ele>
        <time>2020-09-30T12:52:33Z</time>
      </trkpt>
      <trkpt lat="49.91165" lon="2.5423">
        <ele>37.7</ele>
        <time>2020-09-30T12:52:34Z</time>
      </trkpt>
      <trkpt lat="49.91166" lon="2.5423">
        <ele>37.7</ele>
        <time>2020-09-30T12:52:35Z</time>
      </trkpt>
      <trkpt lat="49.91167" lon="2.5423">
        <ele>37.7</ele>
        <time>2020-09-30T12:52:36Z</time>
      </trkpt>
      <trkpt lat="49.91169" lon="2.5423">
        <ele>37.7</ele>
        <time>2020-09-30T12:52:37Z</time>
      </trkpt>
      <trkpt lat="49.9117" lon="2.5423">
        <ele>37.6</ele>
        <time>2020-09-30T12:52:38Z</time>
      </trkpt>
      <trkpt lat="49.91172" lon="2.5423">
        <ele>37.6</ele>
        <time>2020-09-30T12:52:40Z</time>
      </trkpt>
      <trkpt lat="49.91173" lon="2.5423">
        <ele>37.6</ele>
        <time>2020-09-30T12:52:41Z</time>
      </trkpt>
      <trkpt lat="49.91174" lon="2.54231">
        <ele>37.6</ele>
        <time>2020-09-30T12:52:42Z</time>
      </trkpt>
      <trkpt lat="49.91176" lon="2.54231">
        <ele>37.5</ele>
        <time>2020-09-30T12:52:43Z</time>
      </trkpt>
      <trkpt lat="49.91177" lon="2.54231">
        <ele>37.5</ele>
        <time>2020-09-30T12:52:44Z</time>
      </trkpt>
      <trkpt lat="49.91178" lon="2.54232">
        <ele>37.5</ele>
        <time>2020-09-30T12:52:45Z</time>
      </trkpt>
      <trkpt lat="49.9118" lon="2.54232">
        <ele>37.5</ele>
        <time>2020-09-30T12:52:46Z</time>
      </trkpt>
      <trkpt lat="49.91181" lon="2.54232">
        <ele>37.5</ele>
        <time>2020-09-30T12:52:48Z</time>
      </trkpt>
      <trkpt lat="49.91182" lon="2.54232">
        <ele>37.4</ele>
        <time>2020-09-30T12:52:49Z</time>
      </trkpt>
      <trkpt lat="49.91184" lon="2.54233">
        <ele>37.4</ele>
        <time>2020-09-30T12:52:50Z</time>
      </trkpt>
      <trkpt lat="49.91186" lon="2.54233">
        <ele>37.4</ele>
        <time>2020-09-30T12:52:51Z</time>
      </trkpt>
      <trkpt lat="49.91187" lon="2.54233">
        <ele>37.4</ele>
        <time>2020-09-30T12:52:52Z</time>
      </trkpt>
      <trkpt lat="49.91188" lon="2.54233">
        <ele>37.4</ele>
        <time>2020-09-30T12:52:53Z</time>
      </trkpt>
      <trkpt lat="49.9119" lon="2.54233">
        <ele>37.4</ele>
        <time>2020-09-30T12:52:55Z</time>
      </trkpt>
      <trkpt lat="49.91191" lon="2.54234">
        <ele>37.4</ele>
        <time>2020-09-30T12:52:56Z</time>
      </trkpt>
      <trkpt lat="49.91192" lon="2.54234">
        <ele>37.4</ele>
        <time>2020-09-30T12:52:57Z</time>
      </trkpt>
      <trkpt lat="49.91193" lon="2.54234">
        <ele>37.4</ele>
        <time>2020-09-30T12:52:58Z</time>
      </trkpt>
      <trkpt lat="49.91194" lon="2.54234">
        <ele>37.4</ele>
        <time>2020-09-30T12:52:59Z</time>
      </trkpt>
      <trkpt lat="49.91195" lon="2.54234">
        <ele>37.4</ele>
        <time>2020-09-30T12:53:00Z</time>
      </trkpt>
      <trkpt lat="49.91197" lon="2.54234">
        <ele>37.4</ele>
        <time>2020-09-30T12:53:01Z</time>
      </trkpt>
      <trkpt lat="49.91198" lon="2.54234">
        <ele>37.4</ele>
        <time>2020-09-30T12:53:03Z</time>
      </trkpt>
      <trkpt lat="49.91199" lon="2.54234">
        <ele>37.4</ele>
        <time>2020-09-30T12:53:04Z</time>
      </trkpt>
      <trkpt lat="49.912" lon="2.54234">
        <ele>37.4</ele>
        <time>2020-09-30T12:53:05Z</time>
      </trkpt>
      <trkpt lat="49.91201" lon="2.54234">
        <ele>37.4</ele>
        <time>2020-09-30T12:53:06Z</time>
      </trkpt>
      <trkpt lat="49.91203" lon="2.54234">
        <ele>37.4</ele>
        <time>2020-09-30T12:53:07Z</time>
      </trkpt>
      <trkpt lat="49.91206" lon="2.54235">
        <ele>37.3</ele>
        <time>2020-09-30T12:53:09Z</time>
      </trkpt>
      <trkpt lat="49.91207" lon="2.54235">
        <ele>37.3</ele>
        <time>2020-09-30T12:53:10Z</time>
      </trkpt>
      <trkpt lat="49.91209" lon="2.54234">
        <ele>37.3</ele>
        <time>2020-09-30T12:53:11Z</time>
      </trkpt>
      <trkpt lat="49.9121" lon="2.54234">
        <ele>37.3</ele>
        <time>2020-09-30T12:53:13Z</time>
      </trkpt>
      <trkpt lat="49.91211" lon="2.54234">
        <ele>37.3</ele>
        <time>2020-09-30T12:53:14Z</time>
      </trkpt>
      <trkpt lat="49.91211" lon="2.54234">
        <ele>37.3</ele>
        <time>2020-09-30T12:53:15Z</time>
      </trkpt>
      <trkpt lat="49.91212" lon="2.54234">
        <ele>37.3</ele>
        <time>2020-09-30T12:53:16Z</time>
      </trkpt>
      <trkpt lat="49.91214" lon="2.54233">
        <ele>37.3</ele>
        <time>2020-09-30T12:53:17Z</time>
      </trkpt>
      <trkpt lat="49.91215" lon="2.54233">
        <ele>37.3</ele>
        <time>2020-09-30T12:53:18Z</time>
      </trkpt>
      <trkpt lat="49.91216" lon="2.54233">
        <ele>37.2</ele>
        <time>2020-09-30T12:53:19Z</time>
      </trkpt>
      <trkpt lat="49.91217" lon="2.54233">
        <ele>37.2</ele>
        <time>2020-09-30T12:53:20Z</time>
      </trkpt>
      <trkpt lat="49.91219" lon="2.54233">
        <ele>37.2</ele>
        <time>2020-09-30T12:53:22Z</time>
      </trkpt>
      <trkpt lat="49.9122" lon="2.54233">
        <ele>37.2</ele>
        <time>2020-09-30T12:53:23Z</time>
      </trkpt>
      <trkpt lat="49.91221" lon="2.54233">
        <ele>37.2</ele>
        <time>2020-09-30T12:53:24Z</time>
      </trkpt>
      <trkpt lat="49.91222" lon="2.54233">
        <ele>37.2</ele>
        <time>2020-09-30T12:53:25Z</time>
      </trkpt>
      <trkpt lat="49.91223" lon="2.54233">
        <ele>37.2</ele>
        <time>2020-09-30T12:53:26Z</time>
      </trkpt>
      <trkpt lat="49.91224" lon="2.54233">
        <ele>37.2</ele>
        <time>2020-09-30T12:53:27Z</time>
      </trkpt>
      <trkpt lat="49.91226" lon="2.54233">
        <ele>37.2</ele>
        <time>2020-09-30T12:53:28Z</time>
      </trkpt>
      <trkpt lat="49.91228" lon="2.54233">
        <ele>37.2</ele>
        <time>2020-09-30T12:53:29Z</time>
      </trkpt>
      <trkpt lat="49.91229" lon="2.54233">
        <ele>37.2</ele>
        <time>2020-09-30T12:53:31Z</time>
      </trkpt>
      <trkpt lat="49.91229" lon="2.54233">
        <ele>37.2</ele>
        <time>2020-09-30T12:53:32Z</time>
      </trkpt>
      <trkpt lat="49.91231" lon="2.54234">
        <ele>37.2</ele>
        <time>2020-09-30T12:53:33Z</time>
      </trkpt>
      <trkpt lat="49.91233" lon="2.54234">
        <ele>37.2</ele>
        <time>2020-09-30T12:53:34Z</time>
      </trkpt>
      <trkpt lat="49.91234" lon="2.54234">
        <ele>37.2</ele>
        <time>2020-09-30T12:53:35Z</time>
      </trkpt>
      <trkpt lat="49.91235" lon="2.54234">
        <ele>37.2</ele>
        <time>2020-09-30T12:53:36Z</time>
      </trkpt>
      <trkpt lat="49.91236" lon="2.54234">
        <ele>37.1</ele>
        <time>2020-09-30T12:53:38Z</time>
      </trkpt>
      <trkpt lat="49.91237" lon="2.54235">
        <ele>37.1</ele>
        <time>2020-09-30T12:53:39Z</time>
      </trkpt>
      <trkpt lat="49.91239" lon="2.54235">
        <ele>37.1</ele>
        <time>2020-09-30T12:53:40Z</time>
      </trkpt>
      <trkpt lat="49.91239" lon="2.54236">
        <ele>37.1</ele>
        <time>2020-09-30T12:53:42Z</time>
      </trkpt>
      <trkpt lat="49.91239" lon="2.54236">
        <ele>37.1</ele>
        <time>2020-09-30T12:53:44Z</time>
      </trkpt>
      <trkpt lat="49.91239" lon="2.54236">
        <ele>37.1</ele>
        <time>2020-09-30T12:53:46Z</time>
      </trkpt>
      <trkpt lat="49.91239" lon="2.54236">
        <ele>37.1</ele>
        <time>2020-09-30T12:53:47Z</time>
      </trkpt>
      <trkpt lat="49.91239" lon="2.54236">
        <ele>37.1</ele>
        <time>2020-09-30T12:53:49Z</time>
      </trkpt>
      <trkpt lat="49.91239" lon="2.54236">
        <ele>37.1</ele>
        <time>2020-09-30T12:53:51Z</time>
      </trkpt>
      <trkpt lat="49.91239" lon="2.54236">
        <ele>37.1</ele>
        <time>2020-09-30T12:53:53Z</time>
      </trkpt>
      <trkpt lat="49.91239" lon="2.54235">
        <ele>37.1</ele>
        <time>2020-09-30T12:53:55Z</time>
      </trkpt>
      <trkpt lat="49.91239" lon="2.54235">
        <ele>37.1</ele>
        <time>2020-09-30T12:53:56Z</time>
      </trkpt>
      <trkpt lat="49.91239" lon="2.54235">
        <ele>37.1</ele>
        <time>2020-09-30T12:53:57Z</time>
      </trkpt>
      <trkpt lat="49.91239" lon="2.54236">
        <ele>37.1</ele>
        <time>2020-09-30T12:53:59Z</time>
      </trkpt>
      <trkpt lat="49.9124" lon="2.54236">
        <ele>37.1</ele>
        <time>2020-09-30T12:54:01Z</time>
      </trkpt>
      <trkpt lat="49.9124" lon="2.54236">
        <ele>37.1</ele>
        <time>2020-09-30T12:54:03Z</time>
      </trkpt>
      <trkpt lat="49.9124" lon="2.54236">
        <ele>37.1</ele>
        <time>2020-09-30T12:54:04Z</time>
      </trkpt>
      <trkpt lat="49.9124" lon="2.54236">
        <ele>37.1</ele>
        <time>2020-09-30T12:54:06Z</time>
      </trkpt>
      <trkpt lat="49.91239" lon="2.54236">
        <ele>37.1</ele>
        <time>2020-09-30T12:54:08Z</time>
      </trkpt>
      <trkpt lat="49.91239" lon="2.54236">
        <ele>37.1</ele>
        <time>2020-09-30T12:54:10Z</time>
      </trkpt>
      <trkpt lat="49.9124" lon="2.54236">
        <ele>37.1</ele>
        <time>2020-09-30T12:54:11Z</time>
      </trkpt>
      <trkpt lat="49.91241" lon="2.54235">
        <ele>37.1</ele>
        <time>2020-09-30T12:54:12Z</time>
      </trkpt>
      <trkpt lat="49.91242" lon="2.54235">
        <ele>37</ele>
        <time>2020-09-30T12:54:14Z</time>
      </trkpt>
      <trkpt lat="49.91243" lon="2.54235">
        <ele>37</ele>
        <time>2020-09-30T12:54:15Z</time>
      </trkpt>
      <trkpt lat="49.91244" lon="2.54235">
        <ele>37</ele>
        <time>2020-09-30T12:54:17Z</time>
      </trkpt>
      <trkpt lat="49.91245" lon="2.54235">
        <ele>37</ele>
        <time>2020-09-30T12:54:19Z</time>
      </trkpt>
      <trkpt lat="49.91246" lon="2.54235">
        <ele>37</ele>
        <time>2020-09-30T12:54:21Z</time>
      </trkpt>
      <trkpt lat="49.91246" lon="2.54235">
        <ele>37</ele>
        <time>2020-09-30T12:54:23Z</time>
      </trkpt>
      <trkpt lat="49.91246" lon="2.54235">
        <ele>37</ele>
        <time>2020-09-30T12:54:25Z</time>
      </trkpt>
      <trkpt lat="49.91246" lon="2.54235">
        <ele>37</ele>
        <time>2020-09-30T12:54:26Z</time>
      </trkpt>
      <trkpt lat="49.91246" lon="2.54235">
        <ele>37</ele>
        <time>2020-09-30T12:54:27Z</time>
      </trkpt>
      <trkpt lat="49.91245" lon="2.54235">
        <ele>37</ele>
        <time>2020-09-30T12:54:28Z</time>
      </trkpt>
      <trkpt lat="49.91245" lon="2.54235">
        <ele>37</ele>
        <time>2020-09-30T12:54:30Z</time>
      </trkpt>
      <trkpt lat="49.91245" lon="2.54235">
        <ele>37</ele>
        <time>2020-09-30T12:54:31Z</time>
      </trkpt>
      <trkpt lat="49.91245" lon="2.54235">
        <ele>37</ele>
        <time>2020-09-30T12:54:32Z</time>
      </trkpt>
      <trkpt lat="49.91246" lon="2.54235">
        <ele>37</ele>
        <time>2020-09-30T12:54:33Z</time>
      </trkpt>
      <trkpt lat="49.91246" lon="2.54235">
        <ele>37</ele>
        <time>2020-09-30T12:54:35Z</time>
      </trkpt>
      <trkpt lat="49.91246" lon="2.54235">
        <ele>37</ele>
        <time>2020-09-30T12:54:36Z</time>
      </trkpt>
      <trkpt lat="49.91247" lon="2.54235">
        <ele>37</ele>
        <time>2020-09-30T12:54:37Z</time>
      </trkpt>
      <trkpt lat="49.91248" lon="2.54235">
        <ele>37.1</ele>
        <time>2020-09-30T12:54:38Z</time>
      </trkpt>
      <trkpt lat="49.91249" lon="2.54234">
        <ele>37.1</ele>
        <time>2020-09-30T12:54:40Z</time>
      </trkpt>
      <trkpt lat="49.9125" lon="2.54234">
        <ele>37.1</ele>
        <time>2020-09-30T12:54:42Z</time>
      </trkpt>
      <trkpt lat="49.91251" lon="2.54234">
        <ele>37.1</ele>
        <time>2020-09-30T12:54:43Z</time>
      </trkpt>
      <trkpt lat="49.91252" lon="2.54233">
        <ele>37.1</ele>
        <time>2020-09-30T12:54:45Z</time>
      </trkpt>
      <trkpt lat="49.91253" lon="2.54233">
        <ele>37.1</ele>
        <time>2020-09-30T12:54:46Z</time>
      </trkpt>
      <trkpt lat="49.91254" lon="2.54232">
        <ele>37.1</ele>
        <time>2020-09-30T12:54:47Z</time>
      </trkpt>
      <trkpt lat="49.91255" lon="2.54232">
        <ele>37.2</ele>
        <time>2020-09-30T12:54:49Z</time>
      </trkpt>
      <trkpt lat="49.91256" lon="2.54232">
        <ele>37.2</ele>
        <time>2020-09-30T12:54:50Z</time>
      </trkpt>
      <trkpt lat="49.91257" lon="2.54232">
        <ele>37.2</ele>
        <time>2020-09-30T12:54:52Z</time>
      </trkpt>
      <trkpt lat="49.91259" lon="2.54232">
        <ele>37.2</ele>
        <time>2020-09-30T12:54:53Z</time>
      </trkpt>
      <trkpt lat="49.9126" lon="2.54232">
        <ele>37.2</ele>
        <time>2020-09-30T12:54:55Z</time>
      </trkpt>
      <trkpt lat="49.91262" lon="2.54232">
        <ele>37.3</ele>
        <time>2020-09-30T12:54:56Z</time>
      </trkpt>
      <trkpt lat="49.91263" lon="2.54233">
        <ele>37.3</ele>
        <time>2020-09-30T12:54:58Z</time>
      </trkpt>
      <trkpt lat="49.91264" lon="2.54233">
        <ele>37.3</ele>
        <time>2020-09-30T12:54:59Z</time>
      </trkpt>
      <trkpt lat="49.91266" lon="2.54233">
        <ele>37.3</ele>
        <time>2020-09-30T12:55:00Z</time>
      </trkpt>
      <trkpt lat="49.91267" lon="2.54233">
        <ele>37.3</ele>
        <time>2020-09-30T12:55:02Z</time>
      </trkpt>
      <trkpt lat="49.91267" lon="2.54233">
        <ele>37.3</ele>
        <time>2020-09-30T12:55:03Z</time>
      </trkpt>
      <trkpt lat="49.91268" lon="2.54233">
        <ele>37.3</ele>
        <time>2020-09-30T12:55:06Z</time>
      </trkpt>
      <trkpt lat="49.91268" lon="2.54233">
        <ele>37.3</ele>
        <time>2020-09-30T12:55:07Z</time>
      </trkpt>
      <trkpt lat="49.91269" lon="2.54233">
        <ele>37.3</ele>
        <time>2020-09-30T12:55:08Z</time>
      </trkpt>
      <trkpt lat="49.91269" lon="2.54233">
        <ele>37.3</ele>
        <time>2020-09-30T12:55:09Z</time>
      </trkpt>
      <trkpt lat="49.91269" lon="2.54233">
        <ele>37.3</ele>
        <time>2020-09-30T12:55:11Z</time>
      </trkpt>
      <trkpt lat="49.9127" lon="2.54233">
        <ele>37.3</ele>
        <time>2020-09-30T12:55:12Z</time>
      </trkpt>
      <trkpt lat="49.9127" lon="2.54233">
        <ele>37.3</ele>
        <time>2020-09-30T12:55:14Z</time>
      </trkpt>
      <trkpt lat="49.9127" lon="2.54233">
        <ele>37.3</ele>
        <time>2020-09-30T12:55:16Z</time>
      </trkpt>
      <trkpt lat="49.91271" lon="2.54233">
        <ele>37.3</ele>
        <time>2020-09-30T12:55:17Z</time>
      </trkpt>
      <trkpt lat="49.91271" lon="2.54233">
        <ele>37.4</ele>
        <time>2020-09-30T12:55:19Z</time>
      </trkpt>
      <trkpt lat="49.91272" lon="2.54233">
        <ele>37.4</ele>
        <time>2020-09-30T12:55:20Z</time>
      </trkpt>
      <trkpt lat="49.91272" lon="2.54233">
        <ele>37.4</ele>
        <time>2020-09-30T12:55:21Z</time>
      </trkpt>
      <trkpt lat="49.91272" lon="2.54233">
        <ele>37.4</ele>
        <time>2020-09-30T12:55:23Z</time>
      </trkpt>
      <trkpt lat="49.91273" lon="2.54234">
        <ele>37.4</ele>
        <time>2020-09-30T12:55:24Z</time>
      </trkpt>
      <trkpt lat="49.91274" lon="2.54233">
        <ele>37.4</ele>
        <time>2020-09-30T12:55:26Z</time>
      </trkpt>
      <trkpt lat="49.91275" lon="2.54234">
        <ele>37.4</ele>
        <time>2020-09-30T12:55:27Z</time>
      </trkpt>
      <trkpt lat="49.91276" lon="2.54234">
        <ele>37.4</ele>
        <time>2020-09-30T12:55:29Z</time>
      </trkpt>
      <trkpt lat="49.91278" lon="2.54234">
        <ele>37.4</ele>
        <time>2020-09-30T12:55:30Z</time>
      </trkpt>
      <trkpt lat="49.91279" lon="2.54234">
        <ele>37.4</ele>
        <time>2020-09-30T12:55:32Z</time>
      </trkpt>
      <trkpt lat="49.9128" lon="2.54235">
        <ele>37.4</ele>
        <time>2020-09-30T12:55:34Z</time>
      </trkpt>
      <trkpt lat="49.91281" lon="2.54235">
        <ele>37.4</ele>
        <time>2020-09-30T12:55:35Z</time>
      </trkpt>
      <trkpt lat="49.91283" lon="2.54235">
        <ele>37.4</ele>
        <time>2020-09-30T12:55:36Z</time>
      </trkpt>
      <trkpt lat="49.91284" lon="2.54235">
        <ele>37.4</ele>
        <time>2020-09-30T12:55:38Z</time>
      </trkpt>
      <trkpt lat="49.91284" lon="2.54236">
        <ele>37.4</ele>
        <time>2020-09-30T12:55:39Z</time>
      </trkpt>
      <trkpt lat="49.91285" lon="2.54236">
        <ele>37.4</ele>
        <time>2020-09-30T12:55:40Z</time>
      </trkpt>
      <trkpt lat="49.91287" lon="2.54236">
        <ele>37.4</ele>
        <time>2020-09-30T12:55:42Z</time>
      </trkpt>
      <trkpt lat="49.91287" lon="2.54236">
        <ele>37.4</ele>
        <time>2020-09-30T12:55:43Z</time>
      </trkpt>
      <trkpt lat="49.91288" lon="2.54236">
        <ele>37.4</ele>
        <time>2020-09-30T12:55:45Z</time>
      </trkpt>
      <trkpt lat="49.91289" lon="2.54236">
        <ele>37.4</ele>
        <time>2020-09-30T12:55:46Z</time>
      </trkpt>
      <trkpt lat="49.9129" lon="2.54235">
        <ele>37.4</ele>
        <time>2020-09-30T12:55:48Z</time>
      </trkpt>
      <trkpt lat="49.9129" lon="2.54235">
        <ele>37.3</ele>
        <time>2020-09-30T12:55:50Z</time>
      </trkpt>
      <trkpt lat="49.9129" lon="2.54235">
        <ele>37.3</ele>
        <time>2020-09-30T12:55:52Z</time>
      </trkpt>
      <trkpt lat="49.9129" lon="2.54235">
        <ele>37.3</ele>
        <time>2020-09-30T12:55:54Z</time>
      </trkpt>
      <trkpt lat="49.91289" lon="2.54235">
        <ele>37.3</ele>
        <time>2020-09-30T12:55:55Z</time>
      </trkpt>
      <trkpt lat="49.91289" lon="2.54235">
        <ele>37.3</ele>
        <time>2020-09-30T12:55:56Z</time>
      </trkpt>
      <trkpt lat="49.9129" lon="2.54235">
        <ele>37.3</ele>
        <time>2020-09-30T12:55:58Z</time>
      </trkpt>
      <trkpt lat="49.9129" lon="2.54235">
        <ele>37.3</ele>
        <time>2020-09-30T12:55:59Z</time>
      </trkpt>
      <trkpt lat="49.91291" lon="2.54235">
        <ele>37.3</ele>
        <time>2020-09-30T12:56:00Z</time>
      </trkpt>
      <trkpt lat="49.91291" lon="2.54235">
        <ele>37.3</ele>
        <time>2020-09-30T12:56:01Z</time>
      </trkpt>
      <trkpt lat="49.91291" lon="2.54235">
        <ele>37.3</ele>
        <time>2020-09-30T12:56:03Z</time>
      </trkpt>
      <trkpt lat="49.91291" lon="2.54235">
        <ele>37.3</ele>
        <time>2020-09-30T12:56:04Z</time>
      </trkpt>
      <trkpt lat="49.9129" lon="2.54235">
        <ele>37.3</ele>
        <time>2020-09-30T12:56:06Z</time>
      </trkpt>
      <trkpt lat="49.9129" lon="2.54235">
        <ele>37.3</ele>
        <time>2020-09-30T12:56:08Z</time>
      </trkpt>
      <trkpt lat="49.91288" lon="2.54235">
        <ele>37.2</ele>
        <time>2020-09-30T12:56:10Z</time>
      </trkpt>
      <trkpt lat="49.91288" lon="2.54235">
        <ele>37.2</ele>
        <time>2020-09-30T12:56:11Z</time>
      </trkpt>
      <trkpt lat="49.91288" lon="2.54235">
        <ele>37.2</ele>
        <time>2020-09-30T12:56:13Z</time>
      </trkpt>
      <trkpt lat="49.91287" lon="2.54235">
        <ele>37.2</ele>
        <time>2020-09-30T12:56:14Z</time>
      </trkpt>
      <trkpt lat="49.91287" lon="2.54235">
        <ele>37.2</ele>
        <time>2020-09-30T12:56:16Z</time>
      </trkpt>
      <trkpt lat="49.91287" lon="2.54235">
        <ele>37.2</ele>
        <time>2020-09-30T12:56:18Z</time>
      </trkpt>
      <trkpt lat="49.91287" lon="2.54235">
        <ele>37.2</ele>
        <time>2020-09-30T12:56:19Z</time>
      </trkpt>
      <trkpt lat="49.91287" lon="2.54235">
        <ele>37.2</ele>
        <time>2020-09-30T12:56:20Z</time>
      </trkpt>
      <trkpt lat="49.91287" lon="2.54235">
        <ele>37.2</ele>
        <time>2020-09-30T12:56:22Z</time>
      </trkpt>
      <trkpt lat="49.91287" lon="2.54235">
        <ele>37.2</ele>
        <time>2020-09-30T12:56:23Z</time>
      </trkpt>
      <trkpt lat="49.91287" lon="2.54235">
        <ele>37.2</ele>
        <time>2020-09-30T12:56:25Z</time>
      </trkpt>
      <trkpt lat="49.91287" lon="2.54235">
        <ele>37.2</ele>
        <time>2020-09-30T12:56:27Z</time>
      </trkpt>
      <trkpt lat="49.91287" lon="2.54235">
        <ele>37.2</ele>
        <time>2020-09-30T12:56:28Z</time>
      </trkpt>
      <trkpt lat="49.91287" lon="2.54235">
        <ele>37.2</ele>
        <time>2020-09-30T12:56:30Z</time>
      </trkpt>
      <trkpt lat="49.91287" lon="2.54235">
        <ele>37.2</ele>
        <time>2020-09-30T12:56:32Z</time>
      </trkpt>
      <trkpt lat="49.91287" lon="2.54235">
        <ele>37.2</ele>
        <time>2020-09-30T12:56:34Z</time>
      </trkpt>
      <trkpt lat="49.91287" lon="2.54235">
        <ele>37.2</ele>
        <time>2020-09-30T12:56:36Z</time>
      </trkpt>
      <trkpt lat="49.91287" lon="2.54235">
        <ele>37.2</ele>
        <time>2020-09-30T12:56:37Z</time>
      </trkpt>
      <trkpt lat="49.91287" lon="2.54235">
        <ele>37.2</ele>
        <time>2020-09-30T12:56:39Z</time>
      </trkpt>
      <trkpt lat="49.91287" lon="2.54235">
        <ele>37.2</ele>
        <time>2020-09-30T12:56:41Z</time>
      </trkpt>
      <trkpt lat="49.91287" lon="2.54235">
        <ele>37.2</ele>
        <time>2020-09-30T12:56:42Z</time>
      </trkpt>
      <trkpt lat="49.91287" lon="2.54235">
        <ele>37.2</ele>
        <time>2020-09-30T12:56:44Z</time>
      </trkpt>
      <trkpt lat="49.91287" lon="2.54235">
        <ele>37.2</ele>
        <time>2020-09-30T12:56:46Z</time>
      </trkpt>
      <trkpt lat="49.91287" lon="2.54235">
        <ele>37.2</ele>
        <time>2020-09-30T12:56:47Z</time>
      </trkpt>
      <trkpt lat="49.91287" lon="2.54235">
        <ele>37.2</ele>
        <time>2020-09-30T12:56:49Z</time>
      </trkpt>
      <trkpt lat="49.91286" lon="2.54235">
        <ele>37.2</ele>
        <time>2020-09-30T12:56:51Z</time>
      </trkpt>
      <trkpt lat="49.91287" lon="2.54235">
        <ele>37.1</ele>
        <time>2020-09-30T12:56:52Z</time>
      </trkpt>
      <trkpt lat="49.9129" lon="2.54236">
        <ele>37</ele>
        <time>2020-09-30T12:56:54Z</time>
      </trkpt>
      <trkpt lat="49.91291" lon="2.54235">
        <ele>36.9</ele>
        <time>2020-09-30T12:56:55Z</time>
      </trkpt>
      <trkpt lat="49.91292" lon="2.54235">
        <ele>36.7</ele>
        <time>2020-09-30T12:56:56Z</time>
      </trkpt>
      <trkpt lat="49.91294" lon="2.54236">
        <ele>36.5</ele>
        <time>2020-09-30T12:56:57Z</time>
      </trkpt>
      <trkpt lat="49.91295" lon="2.54236">
        <ele>36.3</ele>
        <time>2020-09-30T12:56:58Z</time>
      </trkpt>
      <trkpt lat="49.91296" lon="2.54236">
        <ele>36.2</ele>
        <time>2020-09-30T12:56:59Z</time>
      </trkpt>
      <trkpt lat="49.91296" lon="2.54237">
        <ele>36</ele>
        <time>2020-09-30T12:57:00Z</time>
      </trkpt>
      <trkpt lat="49.91298" lon="2.54237">
        <ele>35.8</ele>
        <time>2020-09-30T12:57:02Z</time>
      </trkpt>
      <trkpt lat="49.91299" lon="2.54237">
        <ele>35.5</ele>
        <time>2020-09-30T12:57:03Z</time>
      </trkpt>
      <trkpt lat="49.91301" lon="2.54237">
        <ele>35.1</ele>
        <time>2020-09-30T12:57:04Z</time>
      </trkpt>
      <trkpt lat="49.91303" lon="2.54237">
        <ele>34.8</ele>
        <time>2020-09-30T12:57:05Z</time>
      </trkpt>
      <trkpt lat="49.91306" lon="2.54238">
        <ele>34.8</ele>
        <time>2020-09-30T12:57:06Z</time>
      </trkpt>
      <trkpt lat="49.91307" lon="2.54238">
        <ele>34.8</ele>
        <time>2020-09-30T12:57:07Z</time>
      </trkpt>
      <trkpt lat="49.9131" lon="2.54239">
        <ele>34.8</ele>
        <time>2020-09-30T12:57:09Z</time>
      </trkpt>
      <trkpt lat="49.91311" lon="2.54239">
        <ele>34.8</ele>
        <time>2020-09-30T12:57:10Z</time>
      </trkpt>
      <trkpt lat="49.91314" lon="2.54239">
        <ele>34.7</ele>
        <time>2020-09-30T12:57:11Z</time>
      </trkpt>
      <trkpt lat="49.91316" lon="2.54239">
        <ele>34.7</ele>
        <time>2020-09-30T12:57:12Z</time>
      </trkpt>
      <trkpt lat="49.91317" lon="2.54239">
        <ele>34.7</ele>
        <time>2020-09-30T12:57:13Z</time>
      </trkpt>
      <trkpt lat="49.91319" lon="2.5424">
        <ele>34.7</ele>
        <time>2020-09-30T12:57:14Z</time>
      </trkpt>
      <trkpt lat="49.91321" lon="2.5424">
        <ele>34.7</ele>
        <time>2020-09-30T12:57:16Z</time>
      </trkpt>
      <trkpt lat="49.91323" lon="2.5424">
        <ele>34.7</ele>
        <time>2020-09-30T12:57:17Z</time>
      </trkpt>
      <trkpt lat="49.91324" lon="2.5424">
        <ele>34.7</ele>
        <time>2020-09-30T12:57:18Z</time>
      </trkpt>
      <trkpt lat="49.91326" lon="2.5424">
        <ele>34.7</ele>
        <time>2020-09-30T12:57:19Z</time>
      </trkpt>
      <trkpt lat="49.91328" lon="2.5424">
        <ele>34.6</ele>
        <time>2020-09-30T12:57:21Z</time>
      </trkpt>
      <trkpt lat="49.91329" lon="2.5424">
        <ele>34.6</ele>
        <time>2020-09-30T12:57:22Z</time>
      </trkpt>
      <trkpt lat="49.91331" lon="2.54241">
        <ele>34.6</ele>
        <time>2020-09-30T12:57:23Z</time>
      </trkpt>
      <trkpt lat="49.91332" lon="2.54241">
        <ele>34.6</ele>
        <time>2020-09-30T12:57:25Z</time>
      </trkpt>
      <trkpt lat="49.91334" lon="2.54241">
        <ele>34.6</ele>
        <time>2020-09-30T12:57:26Z</time>
      </trkpt>
      <trkpt lat="49.91335" lon="2.54242">
        <ele>34.5</ele>
        <time>2020-09-30T12:57:27Z</time>
      </trkpt>
      <trkpt lat="49.91337" lon="2.54242">
        <ele>34.5</ele>
        <time>2020-09-30T12:57:28Z</time>
      </trkpt>
      <trkpt lat="49.91338" lon="2.54242">
        <ele>34.5</ele>
        <time>2020-09-30T12:57:29Z</time>
      </trkpt>
      <trkpt lat="49.9134" lon="2.54242">
        <ele>34.4</ele>
        <time>2020-09-30T12:57:31Z</time>
      </trkpt>
      <trkpt lat="49.91341" lon="2.54242">
        <ele>34.4</ele>
        <time>2020-09-30T12:57:32Z</time>
      </trkpt>
      <trkpt lat="49.91342" lon="2.54242">
        <ele>34.4</ele>
        <time>2020-09-30T12:57:34Z</time>
      </trkpt>
      <trkpt lat="49.91344" lon="2.54243">
        <ele>34.4</ele>
        <time>2020-09-30T12:57:35Z</time>
      </trkpt>
      <trkpt lat="49.91345" lon="2.54243">
        <ele>34.3</ele>
        <time>2020-09-30T12:57:37Z</time>
      </trkpt>
      <trkpt lat="49.91347" lon="2.54243">
        <ele>34.3</ele>
        <time>2020-09-30T12:57:38Z</time>
      </trkpt>
      <trkpt lat="49.91348" lon="2.54243">
        <ele>34.3</ele>
        <time>2020-09-30T12:57:40Z</time>
      </trkpt>
      <trkpt lat="49.9135" lon="2.54244">
        <ele>34.2</ele>
        <time>2020-09-30T12:57:41Z</time>
      </trkpt>
      <trkpt lat="49.91352" lon="2.54244">
        <ele>34.2</ele>
        <time>2020-09-30T12:57:43Z</time>
      </trkpt>
      <trkpt lat="49.91353" lon="2.54245">
        <ele>34.1</ele>
        <time>2020-09-30T12:57:44Z</time>
      </trkpt>
      <trkpt lat="49.91354" lon="2.54245">
        <ele>34.1</ele>
        <time>2020-09-30T12:57:45Z</time>
      </trkpt>
      <trkpt lat="49.91355" lon="2.54246">
        <ele>34.1</ele>
        <time>2020-09-30T12:57:46Z</time>
      </trkpt>
      <trkpt lat="49.91356" lon="2.54246">
        <ele>34.1</ele>
        <time>2020-09-30T12:57:47Z</time>
      </trkpt>
      <trkpt lat="49.91357" lon="2.54246">
        <ele>34</ele>
        <time>2020-09-30T12:57:48Z</time>
      </trkpt>
      <trkpt lat="49.91358" lon="2.54247">
        <ele>34</ele>
        <time>2020-09-30T12:57:49Z</time>
      </trkpt>
      <trkpt lat="49.91361" lon="2.54247">
        <ele>33.9</ele>
        <time>2020-09-30T12:57:51Z</time>
      </trkpt>
      <trkpt lat="49.91362" lon="2.54247">
        <ele>33.9</ele>
        <time>2020-09-30T12:57:52Z</time>
      </trkpt>
      <trkpt lat="49.91363" lon="2.54247">
        <ele>33.9</ele>
        <time>2020-09-30T12:57:53Z</time>
      </trkpt>
      <trkpt lat="49.91364" lon="2.54247">
        <ele>33.9</ele>
        <time>2020-09-30T12:57:55Z</time>
      </trkpt>
      <trkpt lat="49.91366" lon="2.54247">
        <ele>33.8</ele>
        <time>2020-09-30T12:57:56Z</time>
      </trkpt>
      <trkpt lat="49.91368" lon="2.54247">
        <ele>33.8</ele>
        <time>2020-09-30T12:57:57Z</time>
      </trkpt>
      <trkpt lat="49.91369" lon="2.54247">
        <ele>33.8</ele>
        <time>2020-09-30T12:57:58Z</time>
      </trkpt>
      <trkpt lat="49.91371" lon="2.54247">
        <ele>33.7</ele>
        <time>2020-09-30T12:57:59Z</time>
      </trkpt>
      <trkpt lat="49.91372" lon="2.54247">
        <ele>33.7</ele>
        <time>2020-09-30T12:58:00Z</time>
      </trkpt>
      <trkpt lat="49.91373" lon="2.54247">
        <ele>33.7</ele>
        <time>2020-09-30T12:58:01Z</time>
      </trkpt>
      <trkpt lat="49.91374" lon="2.54247">
        <ele>33.7</ele>
        <time>2020-09-30T12:58:02Z</time>
      </trkpt>
      <trkpt lat="49.91375" lon="2.54248">
        <ele>33.7</ele>
        <time>2020-09-30T12:58:04Z</time>
      </trkpt>
      <trkpt lat="49.91376" lon="2.54248">
        <ele>33.6</ele>
        <time>2020-09-30T12:58:05Z</time>
      </trkpt>
      <trkpt lat="49.91378" lon="2.54248">
        <ele>33.6</ele>
        <time>2020-09-30T12:58:06Z</time>
      </trkpt>
      <trkpt lat="49.91378" lon="2.54249">
        <ele>33.6</ele>
        <time>2020-09-30T12:58:07Z</time>
      </trkpt>
      <trkpt lat="49.91379" lon="2.54249">
        <ele>33.6</ele>
        <time>2020-09-30T12:58:08Z</time>
      </trkpt>
      <trkpt lat="49.91381" lon="2.54249">
        <ele>33.6</ele>
        <time>2020-09-30T12:58:09Z</time>
      </trkpt>
      <trkpt lat="49.91382" lon="2.54249">
        <ele>33.6</ele>
        <time>2020-09-30T12:58:10Z</time>
      </trkpt>
      <trkpt lat="49.91383" lon="2.54249">
        <ele>33.6</ele>
        <time>2020-09-30T12:58:11Z</time>
      </trkpt>
      <trkpt lat="49.91384" lon="2.54249">
        <ele>33.6</ele>
        <time>2020-09-30T12:58:13Z</time>
      </trkpt>
      <trkpt lat="49.91385" lon="2.54249">
        <ele>33.6</ele>
        <time>2020-09-30T12:58:14Z</time>
      </trkpt>
      <trkpt lat="49.91386" lon="2.54249">
        <ele>33.5</ele>
        <time>2020-09-30T12:58:15Z</time>
      </trkpt>
      <trkpt lat="49.91388" lon="2.54249">
        <ele>33.5</ele>
        <time>2020-09-30T12:58:16Z</time>
      </trkpt>
      <trkpt lat="49.91389" lon="2.54249">
        <ele>33.5</ele>
        <time>2020-09-30T12:58:17Z</time>
      </trkpt>
      <trkpt lat="49.91391" lon="2.54249">
        <ele>33.5</ele>
        <time>2020-09-30T12:58:18Z</time>
      </trkpt>
      <trkpt lat="49.91392" lon="2.54249">
        <ele>33.5</ele>
        <time>2020-09-30T12:58:20Z</time>
      </trkpt>
      <trkpt lat="49.91393" lon="2.54249">
        <ele>33.5</ele>
        <time>2020-09-30T12:58:21Z</time>
      </trkpt>
      <trkpt lat="49.91396" lon="2.54249">
        <ele>33.5</ele>
        <time>2020-09-30T12:58:22Z</time>
      </trkpt>
      <trkpt lat="49.91396" lon="2.5425">
        <ele>33.5</ele>
        <time>2020-09-30T12:58:23Z</time>
      </trkpt>
      <trkpt lat="49.91397" lon="2.5425">
        <ele>33.5</ele>
        <time>2020-09-30T12:58:24Z</time>
      </trkpt>
      <trkpt lat="49.91398" lon="2.5425">
        <ele>33.5</ele>
        <time>2020-09-30T12:58:25Z</time>
      </trkpt>
      <trkpt lat="49.914" lon="2.5425">
        <ele>33.5</ele>
        <time>2020-09-30T12:58:27Z</time>
      </trkpt>
      <trkpt lat="49.91401" lon="2.5425">
        <ele>33.5</ele>
        <time>2020-09-30T12:58:28Z</time>
      </trkpt>
      <trkpt lat="49.91402" lon="2.5425">
        <ele>33.5</ele>
        <time>2020-09-30T12:58:29Z</time>
      </trkpt>
      <trkpt lat="49.91403" lon="2.54251">
        <ele>33.5</ele>
        <time>2020-09-30T12:58:30Z</time>
      </trkpt>
      <trkpt lat="49.91405" lon="2.54251">
        <ele>33.5</ele>
        <time>2020-09-30T12:58:31Z</time>
      </trkpt>
      <trkpt lat="49.91406" lon="2.54251">
        <ele>33.5</ele>
        <time>2020-09-30T12:58:32Z</time>
      </trkpt>
      <trkpt lat="49.91407" lon="2.54251">
        <ele>33.5</ele>
        <time>2020-09-30T12:58:34Z</time>
      </trkpt>
      <trkpt lat="49.91408" lon="2.54251">
        <ele>33.5</ele>
        <time>2020-09-30T12:58:35Z</time>
      </trkpt>
      <trkpt lat="49.91409" lon="2.54252">
        <ele>33.5</ele>
        <time>2020-09-30T12:58:36Z</time>
      </trkpt>
      <trkpt lat="49.91411" lon="2.54252">
        <ele>33.4</ele>
        <time>2020-09-30T12:58:37Z</time>
      </trkpt>
      <trkpt lat="49.91412" lon="2.54252">
        <ele>33.4</ele>
        <time>2020-09-30T12:58:38Z</time>
      </trkpt>
      <trkpt lat="49.91414" lon="2.54252">
        <ele>33.4</ele>
        <time>2020-09-30T12:58:39Z</time>
      </trkpt>
      <trkpt lat="49.91415" lon="2.54252">
        <ele>33.4</ele>
        <time>2020-09-30T12:58:41Z</time>
      </trkpt>
      <trkpt lat="49.91416" lon="2.54252">
        <ele>33.4</ele>
        <time>2020-09-30T12:58:42Z</time>
      </trkpt>
      <trkpt lat="49.91417" lon="2.54252">
        <ele>33.4</ele>
        <time>2020-09-30T12:58:43Z</time>
      </trkpt>
      <trkpt lat="49.91418" lon="2.54253">
        <ele>33.4</ele>
        <time>2020-09-30T12:58:44Z</time>
      </trkpt>
      <trkpt lat="49.9142" lon="2.54253">
        <ele>33.4</ele>
        <time>2020-09-30T12:58:45Z</time>
      </trkpt>
      <trkpt lat="49.91423" lon="2.54254">
        <ele>33.3</ele>
        <time>2020-09-30T12:58:46Z</time>
      </trkpt>
      <trkpt lat="49.91424" lon="2.54254">
        <ele>33.3</ele>
        <time>2020-09-30T12:58:48Z</time>
      </trkpt>
      <trkpt lat="49.91425" lon="2.54255">
        <ele>33.3</ele>
        <time>2020-09-30T12:58:49Z</time>
      </trkpt>
      <trkpt lat="49.91426" lon="2.54255">
        <ele>33.3</ele>
        <time>2020-09-30T12:58:50Z</time>
      </trkpt>
      <trkpt lat="49.91427" lon="2.54255">
        <ele>33.3</ele>
        <time>2020-09-30T12:58:51Z</time>
      </trkpt>
      <trkpt lat="49.91428" lon="2.54256">
        <ele>33.3</ele>
        <time>2020-09-30T12:58:52Z</time>
      </trkpt>
      <trkpt lat="49.91429" lon="2.54256">
        <ele>33.3</ele>
        <time>2020-09-30T12:58:54Z</time>
      </trkpt>
      <trkpt lat="49.9143" lon="2.54256">
        <ele>33.3</ele>
        <time>2020-09-30T12:58:55Z</time>
      </trkpt>
      <trkpt lat="49.91432" lon="2.54257">
        <ele>33.3</ele>
        <time>2020-09-30T12:58:56Z</time>
      </trkpt>
      <trkpt lat="49.91433" lon="2.54257">
        <ele>33.3</ele>
        <time>2020-09-30T12:58:57Z</time>
      </trkpt>
      <trkpt lat="49.91434" lon="2.54258">
        <ele>33.3</ele>
        <time>2020-09-30T12:58:58Z</time>
      </trkpt>
      <trkpt lat="49.91436" lon="2.54258">
        <ele>33.2</ele>
        <time>2020-09-30T12:58:59Z</time>
      </trkpt>
      <trkpt lat="49.91437" lon="2.54258">
        <ele>33.2</ele>
        <time>2020-09-30T12:59:01Z</time>
      </trkpt>
      <trkpt lat="49.91439" lon="2.54258">
        <ele>33.2</ele>
        <time>2020-09-30T12:59:02Z</time>
      </trkpt>
      <trkpt lat="49.9144" lon="2.54258">
        <ele>33.2</ele>
        <time>2020-09-30T12:59:03Z</time>
      </trkpt>
      <trkpt lat="49.91441" lon="2.54258">
        <ele>33.2</ele>
        <time>2020-09-30T12:59:04Z</time>
      </trkpt>
      <trkpt lat="49.91442" lon="2.54258">
        <ele>33.3</ele>
        <time>2020-09-30T12:59:05Z</time>
      </trkpt>
      <trkpt lat="49.91444" lon="2.54258">
        <ele>33.3</ele>
        <time>2020-09-30T12:59:06Z</time>
      </trkpt>
      <trkpt lat="49.91445" lon="2.54258">
        <ele>33.3</ele>
        <time>2020-09-30T12:59:07Z</time>
      </trkpt>
      <trkpt lat="49.91446" lon="2.54258">
        <ele>33.3</ele>
        <time>2020-09-30T12:59:09Z</time>
      </trkpt>
      <trkpt lat="49.91447" lon="2.54258">
        <ele>33.3</ele>
        <time>2020-09-30T12:59:10Z</time>
      </trkpt>
      <trkpt lat="49.91448" lon="2.54259">
        <ele>33.3</ele>
        <time>2020-09-30T12:59:11Z</time>
      </trkpt>
      <trkpt lat="49.9145" lon="2.54259">
        <ele>33.3</ele>
        <time>2020-09-30T12:59:12Z</time>
      </trkpt>
      <trkpt lat="49.91451" lon="2.54259">
        <ele>33.3</ele>
        <time>2020-09-30T12:59:13Z</time>
      </trkpt>
      <trkpt lat="49.91453" lon="2.54259">
        <ele>33.3</ele>
        <time>2020-09-30T12:59:14Z</time>
      </trkpt>
      <trkpt lat="49.91454" lon="2.54259">
        <ele>33.4</ele>
        <time>2020-09-30T12:59:16Z</time>
      </trkpt>
      <trkpt lat="49.91456" lon="2.54259">
        <ele>33.4</ele>
        <time>2020-09-30T12:59:17Z</time>
      </trkpt>
      <trkpt lat="49.91457" lon="2.5426">
        <ele>33.4</ele>
        <time>2020-09-30T12:59:18Z</time>
      </trkpt>
      <trkpt lat="49.91459" lon="2.5426">
        <ele>33.4</ele>
        <time>2020-09-30T12:59:19Z</time>
      </trkpt>
      <trkpt lat="49.9146" lon="2.5426">
        <ele>33.4</ele>
        <time>2020-09-30T12:59:20Z</time>
      </trkpt>
      <trkpt lat="49.91461" lon="2.5426">
        <ele>33.4</ele>
        <time>2020-09-30T12:59:21Z</time>
      </trkpt>
      <trkpt lat="49.91462" lon="2.5426">
        <ele>33.4</ele>
        <time>2020-09-30T12:59:23Z</time>
      </trkpt>
      <trkpt lat="49.91463" lon="2.54261">
        <ele>33.4</ele>
        <time>2020-09-30T12:59:24Z</time>
      </trkpt>
      <trkpt lat="49.91465" lon="2.54261">
        <ele>33.4</ele>
        <time>2020-09-30T12:59:25Z</time>
      </trkpt>
      <trkpt lat="49.91466" lon="2.54262">
        <ele>33.5</ele>
        <time>2020-09-30T12:59:26Z</time>
      </trkpt>
      <trkpt lat="49.91468" lon="2.54262">
        <ele>33.5</ele>
        <time>2020-09-30T12:59:27Z</time>
      </trkpt>
      <trkpt lat="49.91469" lon="2.54263">
        <ele>33.5</ele>
        <time>2020-09-30T12:59:28Z</time>
      </trkpt>
      <trkpt lat="49.9147" lon="2.54263">
        <ele>33.5</ele>
        <time>2020-09-30T12:59:30Z</time>
      </trkpt>
      <trkpt lat="49.91471" lon="2.54263">
        <ele>33.5</ele>
        <time>2020-09-30T12:59:31Z</time>
      </trkpt>
      <trkpt lat="49.91473" lon="2.54264">
        <ele>33.5</ele>
        <time>2020-09-30T12:59:32Z</time>
      </trkpt>
      <trkpt lat="49.91474" lon="2.54265">
        <ele>33.5</ele>
        <time>2020-09-30T12:59:33Z</time>
      </trkpt>
      <trkpt lat="49.91475" lon="2.54265">
        <ele>33.5</ele>
        <time>2020-09-30T12:59:34Z</time>
      </trkpt>
      <trkpt lat="49.91477" lon="2.54265">
        <ele>33.6</ele>
        <time>2020-09-30T12:59:36Z</time>
      </trkpt>
      <trkpt lat="49.91477" lon="2.54266">
        <ele>33.6</ele>
        <time>2020-09-30T12:59:37Z</time>
      </trkpt>
      <trkpt lat="49.91478" lon="2.54266">
        <ele>33.6</ele>
        <time>2020-09-30T12:59:38Z</time>
      </trkpt>
      <trkpt lat="49.91481" lon="2.54266">
        <ele>33.6</ele>
        <time>2020-09-30T12:59:39Z</time>
      </trkpt>
      <trkpt lat="49.91482" lon="2.54266">
        <ele>33.7</ele>
        <time>2020-09-30T12:59:41Z</time>
      </trkpt>
      <trkpt lat="49.91483" lon="2.54266">
        <ele>33.7</ele>
        <time>2020-09-30T12:59:42Z</time>
      </trkpt>
      <trkpt lat="49.91484" lon="2.54266">
        <ele>33.7</ele>
        <time>2020-09-30T12:59:43Z</time>
      </trkpt>
      <trkpt lat="49.91485" lon="2.54266">
        <ele>33.7</ele>
        <time>2020-09-30T12:59:45Z</time>
      </trkpt>
      <trkpt lat="49.91486" lon="2.54267">
        <ele>33.8</ele>
        <time>2020-09-30T12:59:46Z</time>
      </trkpt>
      <trkpt lat="49.91488" lon="2.54267">
        <ele>33.8</ele>
        <time>2020-09-30T12:59:47Z</time>
      </trkpt>
      <trkpt lat="49.91489" lon="2.54267">
        <ele>33.8</ele>
        <time>2020-09-30T12:59:48Z</time>
      </trkpt>
      <trkpt lat="49.91491" lon="2.54267">
        <ele>33.9</ele>
        <time>2020-09-30T12:59:49Z</time>
      </trkpt>
      <trkpt lat="49.91492" lon="2.54267">
        <ele>33.9</ele>
        <time>2020-09-30T12:59:50Z</time>
      </trkpt>
      <trkpt lat="49.91494" lon="2.54267">
        <ele>34</ele>
        <time>2020-09-30T12:59:52Z</time>
      </trkpt>
      <trkpt lat="49.91496" lon="2.54267">
        <ele>34</ele>
        <time>2020-09-30T12:59:53Z</time>
      </trkpt>
      <trkpt lat="49.91498" lon="2.54268">
        <ele>34</ele>
        <time>2020-09-30T12:59:54Z</time>
      </trkpt>
      <trkpt lat="49.91498" lon="2.54268">
        <ele>34</ele>
        <time>2020-09-30T12:59:55Z</time>
      </trkpt>
      <trkpt lat="49.91499" lon="2.54268">
        <ele>34</ele>
        <time>2020-09-30T12:59:56Z</time>
      </trkpt>
      <trkpt lat="49.91501" lon="2.54269">
        <ele>34.1</ele>
        <time>2020-09-30T12:59:58Z</time>
      </trkpt>
      <trkpt lat="49.91503" lon="2.54269">
        <ele>34.1</ele>
        <time>2020-09-30T12:59:59Z</time>
      </trkpt>
      <trkpt lat="49.91504" lon="2.54268">
        <ele>34.1</ele>
        <time>2020-09-30T13:00:01Z</time>
      </trkpt>
      <trkpt lat="49.91505" lon="2.54268">
        <ele>34.1</ele>
        <time>2020-09-30T13:00:02Z</time>
      </trkpt>
      <trkpt lat="49.91506" lon="2.54268">
        <ele>34.1</ele>
        <time>2020-09-30T13:00:04Z</time>
      </trkpt>
      <trkpt lat="49.91508" lon="2.54268">
        <ele>34.1</ele>
        <time>2020-09-30T13:00:05Z</time>
      </trkpt>
      <trkpt lat="49.9151" lon="2.54268">
        <ele>34.1</ele>
        <time>2020-09-30T13:00:07Z</time>
      </trkpt>
      <trkpt lat="49.91512" lon="2.54268">
        <ele>34.1</ele>
        <time>2020-09-30T13:00:08Z</time>
      </trkpt>
      <trkpt lat="49.91514" lon="2.54268">
        <ele>34.1</ele>
        <time>2020-09-30T13:00:10Z</time>
      </trkpt>
      <trkpt lat="49.91515" lon="2.54268">
        <ele>34.2</ele>
        <time>2020-09-30T13:00:11Z</time>
      </trkpt>
      <trkpt lat="49.91516" lon="2.54268">
        <ele>34.2</ele>
        <time>2020-09-30T13:00:12Z</time>
      </trkpt>
      <trkpt lat="49.91517" lon="2.54268">
        <ele>34.2</ele>
        <time>2020-09-30T13:00:13Z</time>
      </trkpt>
      <trkpt lat="49.91518" lon="2.54268">
        <ele>34.2</ele>
        <time>2020-09-30T13:00:14Z</time>
      </trkpt>
      <trkpt lat="49.9152" lon="2.54269">
        <ele>34.2</ele>
        <time>2020-09-30T13:00:16Z</time>
      </trkpt>
      <trkpt lat="49.91522" lon="2.54269">
        <ele>34.2</ele>
        <time>2020-09-30T13:00:17Z</time>
      </trkpt>
      <trkpt lat="49.91523" lon="2.54269">
        <ele>34.2</ele>
        <time>2020-09-30T13:00:18Z</time>
      </trkpt>
      <trkpt lat="49.91524" lon="2.54269">
        <ele>34.2</ele>
        <time>2020-09-30T13:00:19Z</time>
      </trkpt>
      <trkpt lat="49.91525" lon="2.54269">
        <ele>34.2</ele>
        <time>2020-09-30T13:00:20Z</time>
      </trkpt>
      <trkpt lat="49.91526" lon="2.54269">
        <ele>34.2</ele>
        <time>2020-09-30T13:00:21Z</time>
      </trkpt>
      <trkpt lat="49.91528" lon="2.54269">
        <ele>34.2</ele>
        <time>2020-09-30T13:00:23Z</time>
      </trkpt>
      <trkpt lat="49.91529" lon="2.54269">
        <ele>34.2</ele>
        <time>2020-09-30T13:00:24Z</time>
      </trkpt>
      <trkpt lat="49.9153" lon="2.54269">
        <ele>34.2</ele>
        <time>2020-09-30T13:00:25Z</time>
      </trkpt>
      <trkpt lat="49.91532" lon="2.54269">
        <ele>34.2</ele>
        <time>2020-09-30T13:00:26Z</time>
      </trkpt>
      <trkpt lat="49.91536" lon="2.54268">
        <ele>34.2</ele>
        <time>2020-09-30T13:00:27Z</time>
      </trkpt>
      <trkpt lat="49.91537" lon="2.54268">
        <ele>34.2</ele>
        <time>2020-09-30T13:00:29Z</time>
      </trkpt>
      <trkpt lat="49.91538" lon="2.54268">
        <ele>34.2</ele>
        <time>2020-09-30T13:00:30Z</time>
      </trkpt>
      <trkpt lat="49.91539" lon="2.54268">
        <ele>34.2</ele>
        <time>2020-09-30T13:00:31Z</time>
      </trkpt>
      <trkpt lat="49.9154" lon="2.54268">
        <ele>34.2</ele>
        <time>2020-09-30T13:00:32Z</time>
      </trkpt>
      <trkpt lat="49.91541" lon="2.54267">
        <ele>34.2</ele>
        <time>2020-09-30T13:00:33Z</time>
      </trkpt>
      <trkpt lat="49.91542" lon="2.54267">
        <ele>34.2</ele>
        <time>2020-09-30T13:00:34Z</time>
      </trkpt>
      <trkpt lat="49.91543" lon="2.54267">
        <ele>34.2</ele>
        <time>2020-09-30T13:00:36Z</time>
      </trkpt>
      <trkpt lat="49.91545" lon="2.54266">
        <ele>34.2</ele>
        <time>2020-09-30T13:00:37Z</time>
      </trkpt>
      <trkpt lat="49.91546" lon="2.54266">
        <ele>34.2</ele>
        <time>2020-09-30T13:00:38Z</time>
      </trkpt>
      <trkpt lat="49.91548" lon="2.54266">
        <ele>34.2</ele>
        <time>2020-09-30T13:00:40Z</time>
      </trkpt>
      <trkpt lat="49.91549" lon="2.54266">
        <ele>34.2</ele>
        <time>2020-09-30T13:00:41Z</time>
      </trkpt>
      <trkpt lat="49.9155" lon="2.54265">
        <ele>34.2</ele>
        <time>2020-09-30T13:00:42Z</time>
      </trkpt>
      <trkpt lat="49.91551" lon="2.54265">
        <ele>34.2</ele>
        <time>2020-09-30T13:00:43Z</time>
      </trkpt>
      <trkpt lat="49.91552" lon="2.54265">
        <ele>34.2</ele>
        <time>2020-09-30T13:00:44Z</time>
      </trkpt>
      <trkpt lat="49.91553" lon="2.54264">
        <ele>34.3</ele>
        <time>2020-09-30T13:00:45Z</time>
      </trkpt>
      <trkpt lat="49.91554" lon="2.54264">
        <ele>34.3</ele>
        <time>2020-09-30T13:00:47Z</time>
      </trkpt>
      <trkpt lat="49.91556" lon="2.54263">
        <ele>34.3</ele>
        <time>2020-09-30T13:00:48Z</time>
      </trkpt>
      <trkpt lat="49.91557" lon="2.54263">
        <ele>34.3</ele>
        <time>2020-09-30T13:00:49Z</time>
      </trkpt>
      <trkpt lat="49.91558" lon="2.54263">
        <ele>34.4</ele>
        <time>2020-09-30T13:00:50Z</time>
      </trkpt>
      <trkpt lat="49.91559" lon="2.54263">
        <ele>34.4</ele>
        <time>2020-09-30T13:00:51Z</time>
      </trkpt>
      <trkpt lat="49.91561" lon="2.54263">
        <ele>34.4</ele>
        <time>2020-09-30T13:00:53Z</time>
      </trkpt>
      <trkpt lat="49.91562" lon="2.54264">
        <ele>34.5</ele>
        <time>2020-09-30T13:00:54Z</time>
      </trkpt>
      <trkpt lat="49.91565" lon="2.54263">
        <ele>34.5</ele>
        <time>2020-09-30T13:00:56Z</time>
      </trkpt>
      <trkpt lat="49.91565" lon="2.54263">
        <ele>34.5</ele>
        <time>2020-09-30T13:00:57Z</time>
      </trkpt>
      <trkpt lat="49.91566" lon="2.54263">
        <ele>34.5</ele>
        <time>2020-09-30T13:00:58Z</time>
      </trkpt>
      <trkpt lat="49.91567" lon="2.54263">
        <ele>34.5</ele>
        <time>2020-09-30T13:00:59Z</time>
      </trkpt>
      <trkpt lat="49.91569" lon="2.54263">
        <ele>34.6</ele>
        <time>2020-09-30T13:01:00Z</time>
      </trkpt>
      <trkpt lat="49.9157" lon="2.54263">
        <ele>34.6</ele>
        <time>2020-09-30T13:01:01Z</time>
      </trkpt>
      <trkpt lat="49.91572" lon="2.54263">
        <ele>34.6</ele>
        <time>2020-09-30T13:01:03Z</time>
      </trkpt>
      <trkpt lat="49.91573" lon="2.54263">
        <ele>34.6</ele>
        <time>2020-09-30T13:01:04Z</time>
      </trkpt>
      <trkpt lat="49.91576" lon="2.54263">
        <ele>34.6</ele>
        <time>2020-09-30T13:01:05Z</time>
      </trkpt>
      <trkpt lat="49.91577" lon="2.54262">
        <ele>34.6</ele>
        <time>2020-09-30T13:01:07Z</time>
      </trkpt>
      <trkpt lat="49.91578" lon="2.54262">
        <ele>34.6</ele>
        <time>2020-09-30T13:01:08Z</time>
      </trkpt>
      <trkpt lat="49.9158" lon="2.54262">
        <ele>34.6</ele>
        <time>2020-09-30T13:01:09Z</time>
      </trkpt>
      <trkpt lat="49.91581" lon="2.54262">
        <ele>34.6</ele>
        <time>2020-09-30T13:01:10Z</time>
      </trkpt>
      <trkpt lat="49.91582" lon="2.54262">
        <ele>34.6</ele>
        <time>2020-09-30T13:01:11Z</time>
      </trkpt>
      <trkpt lat="49.91584" lon="2.54262">
        <ele>34.6</ele>
        <time>2020-09-30T13:01:12Z</time>
      </trkpt>
      <trkpt lat="49.91585" lon="2.54262">
        <ele>34.6</ele>
        <time>2020-09-30T13:01:13Z</time>
      </trkpt>
      <trkpt lat="49.91587" lon="2.54261">
        <ele>34.6</ele>
        <time>2020-09-30T13:01:14Z</time>
      </trkpt>
      <trkpt lat="49.91588" lon="2.54261">
        <ele>34.6</ele>
        <time>2020-09-30T13:01:16Z</time>
      </trkpt>
      <trkpt lat="49.91589" lon="2.54261">
        <ele>34.6</ele>
        <time>2020-09-30T13:01:17Z</time>
      </trkpt>
      <trkpt lat="49.91592" lon="2.5426">
        <ele>34.6</ele>
        <time>2020-09-30T13:01:18Z</time>
      </trkpt>
      <trkpt lat="49.91593" lon="2.5426">
        <ele>34.6</ele>
        <time>2020-09-30T13:01:20Z</time>
      </trkpt>
      <trkpt lat="49.91594" lon="2.5426">
        <ele>34.6</ele>
        <time>2020-09-30T13:01:21Z</time>
      </trkpt>
      <trkpt lat="49.91595" lon="2.5426">
        <ele>34.6</ele>
        <time>2020-09-30T13:01:22Z</time>
      </trkpt>
      <trkpt lat="49.91596" lon="2.54259">
        <ele>34.6</ele>
        <time>2020-09-30T13:01:23Z</time>
      </trkpt>
      <trkpt lat="49.91597" lon="2.54259">
        <ele>34.6</ele>
        <time>2020-09-30T13:01:24Z</time>
      </trkpt>
      <trkpt lat="49.91598" lon="2.54259">
        <ele>34.6</ele>
        <time>2020-09-30T13:01:25Z</time>
      </trkpt>
      <trkpt lat="49.91599" lon="2.54259">
        <ele>34.6</ele>
        <time>2020-09-30T13:01:27Z</time>
      </trkpt>
      <trkpt lat="49.91601" lon="2.54258">
        <ele>34.6</ele>
        <time>2020-09-30T13:01:28Z</time>
      </trkpt>
      <trkpt lat="49.91602" lon="2.54258">
        <ele>34.6</ele>
        <time>2020-09-30T13:01:29Z</time>
      </trkpt>
      <trkpt lat="49.91603" lon="2.54258">
        <ele>34.6</ele>
        <time>2020-09-30T13:01:30Z</time>
      </trkpt>
      <trkpt lat="49.91604" lon="2.54257">
        <ele>34.6</ele>
        <time>2020-09-30T13:01:31Z</time>
      </trkpt>
      <trkpt lat="49.91605" lon="2.54257">
        <ele>34.6</ele>
        <time>2020-09-30T13:01:33Z</time>
      </trkpt>
      <trkpt lat="49.91606" lon="2.54257">
        <ele>34.6</ele>
        <time>2020-09-30T13:01:34Z</time>
      </trkpt>
      <trkpt lat="49.91607" lon="2.54257">
        <ele>34.6</ele>
        <time>2020-09-30T13:01:35Z</time>
      </trkpt>
      <trkpt lat="49.91608" lon="2.54257">
        <ele>34.7</ele>
        <time>2020-09-30T13:01:36Z</time>
      </trkpt>
      <trkpt lat="49.9161" lon="2.54256">
        <ele>34.7</ele>
        <time>2020-09-30T13:01:37Z</time>
      </trkpt>
      <trkpt lat="49.91611" lon="2.54256">
        <ele>34.7</ele>
        <time>2020-09-30T13:01:38Z</time>
      </trkpt>
      <trkpt lat="49.91613" lon="2.54255">
        <ele>34.7</ele>
        <time>2020-09-30T13:01:40Z</time>
      </trkpt>
      <trkpt lat="49.91614" lon="2.54255">
        <ele>34.7</ele>
        <time>2020-09-30T13:01:41Z</time>
      </trkpt>
      <trkpt lat="49.91615" lon="2.54255">
        <ele>34.8</ele>
        <time>2020-09-30T13:01:42Z</time>
      </trkpt>
      <trkpt lat="49.91617" lon="2.54256">
        <ele>34.8</ele>
        <time>2020-09-30T13:01:43Z</time>
      </trkpt>
      <trkpt lat="49.91618" lon="2.54256">
        <ele>34.8</ele>
        <time>2020-09-30T13:01:44Z</time>
      </trkpt>
      <trkpt lat="49.9162" lon="2.54256">
        <ele>34.9</ele>
        <time>2020-09-30T13:01:45Z</time>
      </trkpt>
      <trkpt lat="49.91621" lon="2.54256">
        <ele>34.9</ele>
        <time>2020-09-30T13:01:46Z</time>
      </trkpt>
      <trkpt lat="49.91622" lon="2.54256">
        <ele>34.9</ele>
        <time>2020-09-30T13:01:47Z</time>
      </trkpt>
      <trkpt lat="49.91623" lon="2.54257">
        <ele>34.9</ele>
        <time>2020-09-30T13:01:49Z</time>
      </trkpt>
      <trkpt lat="49.91624" lon="2.54257">
        <ele>34.9</ele>
        <time>2020-09-30T13:01:50Z</time>
      </trkpt>
      <trkpt lat="49.91626" lon="2.54257">
        <ele>35</ele>
        <time>2020-09-30T13:01:51Z</time>
      </trkpt>
      <trkpt lat="49.91629" lon="2.54257">
        <ele>35</ele>
        <time>2020-09-30T13:01:53Z</time>
      </trkpt>
      <trkpt lat="49.9163" lon="2.54257">
        <ele>35</ele>
        <time>2020-09-30T13:01:54Z</time>
      </trkpt>
      <trkpt lat="49.91631" lon="2.54258">
        <ele>35</ele>
        <time>2020-09-30T13:01:56Z</time>
      </trkpt>
      <trkpt lat="49.91634" lon="2.54259">
        <ele>35.1</ele>
        <time>2020-09-30T13:01:58Z</time>
      </trkpt>
      <trkpt lat="49.91635" lon="2.5426">
        <ele>35.1</ele>
        <time>2020-09-30T13:01:59Z</time>
      </trkpt>
      <trkpt lat="49.91636" lon="2.54261">
        <ele>35.1</ele>
        <time>2020-09-30T13:02:00Z</time>
      </trkpt>
      <trkpt lat="49.91638" lon="2.54262">
        <ele>35.1</ele>
        <time>2020-09-30T13:02:01Z</time>
      </trkpt>
      <trkpt lat="49.9164" lon="2.54263">
        <ele>35.2</ele>
        <time>2020-09-30T13:02:02Z</time>
      </trkpt>
      <trkpt lat="49.91641" lon="2.54263">
        <ele>35.2</ele>
        <time>2020-09-30T13:02:04Z</time>
      </trkpt>
      <trkpt lat="49.91642" lon="2.54263">
        <ele>35.2</ele>
        <time>2020-09-30T13:02:05Z</time>
      </trkpt>
      <trkpt lat="49.91643" lon="2.54264">
        <ele>35.2</ele>
        <time>2020-09-30T13:02:06Z</time>
      </trkpt>
      <trkpt lat="49.91644" lon="2.54264">
        <ele>35.2</ele>
        <time>2020-09-30T13:02:07Z</time>
      </trkpt>
      <trkpt lat="49.91646" lon="2.54265">
        <ele>35.2</ele>
        <time>2020-09-30T13:02:08Z</time>
      </trkpt>
      <trkpt lat="49.91647" lon="2.54265">
        <ele>35.2</ele>
        <time>2020-09-30T13:02:09Z</time>
      </trkpt>
      <trkpt lat="49.91649" lon="2.54266">
        <ele>35.3</ele>
        <time>2020-09-30T13:02:10Z</time>
      </trkpt>
      <trkpt lat="49.9165" lon="2.54266">
        <ele>35.3</ele>
        <time>2020-09-30T13:02:11Z</time>
      </trkpt>
      <trkpt lat="49.91651" lon="2.54267">
        <ele>35.3</ele>
        <time>2020-09-30T13:02:12Z</time>
      </trkpt>
      <trkpt lat="49.91653" lon="2.54267">
        <ele>35.3</ele>
        <time>2020-09-30T13:02:13Z</time>
      </trkpt>
      <trkpt lat="49.91654" lon="2.54268">
        <ele>35.3</ele>
        <time>2020-09-30T13:02:15Z</time>
      </trkpt>
      <trkpt lat="49.91654" lon="2.54268">
        <ele>35.3</ele>
        <time>2020-09-30T13:02:16Z</time>
      </trkpt>
      <trkpt lat="49.91655" lon="2.54268">
        <ele>35.3</ele>
        <time>2020-09-30T13:02:17Z</time>
      </trkpt>
      <trkpt lat="49.91656" lon="2.54269">
        <ele>35.3</ele>
        <time>2020-09-30T13:02:18Z</time>
      </trkpt>
      <trkpt lat="49.91657" lon="2.54269">
        <ele>35.3</ele>
        <time>2020-09-30T13:02:19Z</time>
      </trkpt>
      <trkpt lat="49.91658" lon="2.5427">
        <ele>35.3</ele>
        <time>2020-09-30T13:02:20Z</time>
      </trkpt>
      <trkpt lat="49.9166" lon="2.54271">
        <ele>35.3</ele>
        <time>2020-09-30T13:02:21Z</time>
      </trkpt>
      <trkpt lat="49.91661" lon="2.54271">
        <ele>35.3</ele>
        <time>2020-09-30T13:02:22Z</time>
      </trkpt>
      <trkpt lat="49.91662" lon="2.54272">
        <ele>35.3</ele>
        <time>2020-09-30T13:02:23Z</time>
      </trkpt>
      <trkpt lat="49.91663" lon="2.54272">
        <ele>35.3</ele>
        <time>2020-09-30T13:02:25Z</time>
      </trkpt>
      <trkpt lat="49.91663" lon="2.54273">
        <ele>35.3</ele>
        <time>2020-09-30T13:02:26Z</time>
      </trkpt>
      <trkpt lat="49.91664" lon="2.54274">
        <ele>35.2</ele>
        <time>2020-09-30T13:02:27Z</time>
      </trkpt>
      <trkpt lat="49.91666" lon="2.54275">
        <ele>35.2</ele>
        <time>2020-09-30T13:02:28Z</time>
      </trkpt>
      <trkpt lat="49.91667" lon="2.54276">
        <ele>35.2</ele>
        <time>2020-09-30T13:02:29Z</time>
      </trkpt>
      <trkpt lat="49.91668" lon="2.54277">
        <ele>35.2</ele>
        <time>2020-09-30T13:02:30Z</time>
      </trkpt>
      <trkpt lat="49.91669" lon="2.54277">
        <ele>35.2</ele>
        <time>2020-09-30T13:02:31Z</time>
      </trkpt>
      <trkpt lat="49.9167" lon="2.54278">
        <ele>35.2</ele>
        <time>2020-09-30T13:02:32Z</time>
      </trkpt>
      <trkpt lat="49.91672" lon="2.54279">
        <ele>35.2</ele>
        <time>2020-09-30T13:02:33Z</time>
      </trkpt>
      <trkpt lat="49.91673" lon="2.5428">
        <ele>35.2</ele>
        <time>2020-09-30T13:02:35Z</time>
      </trkpt>
      <trkpt lat="49.91674" lon="2.5428">
        <ele>35.1</ele>
        <time>2020-09-30T13:02:36Z</time>
      </trkpt>
      <trkpt lat="49.91675" lon="2.54281">
        <ele>35.1</ele>
        <time>2020-09-30T13:02:37Z</time>
      </trkpt>
      <trkpt lat="49.91677" lon="2.54282">
        <ele>35.1</ele>
        <time>2020-09-30T13:02:38Z</time>
      </trkpt>
      <trkpt lat="49.91678" lon="2.54282">
        <ele>35.1</ele>
        <time>2020-09-30T13:02:39Z</time>
      </trkpt>
      <trkpt lat="49.91679" lon="2.54282">
        <ele>35.1</ele>
        <time>2020-09-30T13:02:40Z</time>
      </trkpt>
      <trkpt lat="49.9168" lon="2.54282">
        <ele>35.1</ele>
        <time>2020-09-30T13:02:41Z</time>
      </trkpt>
      <trkpt lat="49.91682" lon="2.54282">
        <ele>35.1</ele>
        <time>2020-09-30T13:02:42Z</time>
      </trkpt>
      <trkpt lat="49.91685" lon="2.54283">
        <ele>35</ele>
        <time>2020-09-30T13:02:43Z</time>
      </trkpt>
      <trkpt lat="49.91686" lon="2.54284">
        <ele>35</ele>
        <time>2020-09-30T13:02:45Z</time>
      </trkpt>
      <trkpt lat="49.91687" lon="2.54284">
        <ele>35</ele>
        <time>2020-09-30T13:02:46Z</time>
      </trkpt>
      <trkpt lat="49.91688" lon="2.54284">
        <ele>35</ele>
        <time>2020-09-30T13:02:47Z</time>
      </trkpt>
      <trkpt lat="49.91689" lon="2.54285">
        <ele>35</ele>
        <time>2020-09-30T13:02:48Z</time>
      </trkpt>
      <trkpt lat="49.9169" lon="2.54285">
        <ele>35</ele>
        <time>2020-09-30T13:02:49Z</time>
      </trkpt>
      <trkpt lat="49.91691" lon="2.54286">
        <ele>35</ele>
        <time>2020-09-30T13:02:50Z</time>
      </trkpt>
      <trkpt lat="49.91692" lon="2.54286">
        <ele>35</ele>
        <time>2020-09-30T13:02:51Z</time>
      </trkpt>
      <trkpt lat="49.91694" lon="2.54287">
        <ele>35</ele>
        <time>2020-09-30T13:02:52Z</time>
      </trkpt>
      <trkpt lat="49.91696" lon="2.54288">
        <ele>35</ele>
        <time>2020-09-30T13:02:53Z</time>
      </trkpt>
      <trkpt lat="49.91697" lon="2.54289">
        <ele>35</ele>
        <time>2020-09-30T13:02:54Z</time>
      </trkpt>
      <trkpt lat="49.91698" lon="2.54289">
        <ele>35</ele>
        <time>2020-09-30T13:02:55Z</time>
      </trkpt>
      <trkpt lat="49.91699" lon="2.5429">
        <ele>35.1</ele>
        <time>2020-09-30T13:02:56Z</time>
      </trkpt>
      <trkpt lat="49.91699" lon="2.5429">
        <ele>35.1</ele>
        <time>2020-09-30T13:02:57Z</time>
      </trkpt>
      <trkpt lat="49.91702" lon="2.54293">
        <ele>35.1</ele>
        <time>2020-09-30T13:02:58Z</time>
      </trkpt>
      <trkpt lat="49.91703" lon="2.54294">
        <ele>35.1</ele>
        <time>2020-09-30T13:03:00Z</time>
      </trkpt>
      <trkpt lat="49.91704" lon="2.54295">
        <ele>35.1</ele>
        <time>2020-09-30T13:03:01Z</time>
      </trkpt>
      <trkpt lat="49.91705" lon="2.54295">
        <ele>35.2</ele>
        <time>2020-09-30T13:03:02Z</time>
      </trkpt>
      <trkpt lat="49.91706" lon="2.54296">
        <ele>35.3</ele>
        <time>2020-09-30T13:03:03Z</time>
      </trkpt>
      <trkpt lat="49.91707" lon="2.54297">
        <ele>35.3</ele>
        <time>2020-09-30T13:03:04Z</time>
      </trkpt>
      <trkpt lat="49.91708" lon="2.54297">
        <ele>35.3</ele>
        <time>2020-09-30T13:03:06Z</time>
      </trkpt>
      <trkpt lat="49.91709" lon="2.54298">
        <ele>35.3</ele>
        <time>2020-09-30T13:03:07Z</time>
      </trkpt>
      <trkpt lat="49.9171" lon="2.54298">
        <ele>35.3</ele>
        <time>2020-09-30T13:03:08Z</time>
      </trkpt>
      <trkpt lat="49.91712" lon="2.54297">
        <ele>35.3</ele>
        <time>2020-09-30T13:03:09Z</time>
      </trkpt>
      <trkpt lat="49.91713" lon="2.54297">
        <ele>35.3</ele>
        <time>2020-09-30T13:03:10Z</time>
      </trkpt>
      <trkpt lat="49.91714" lon="2.54296">
        <ele>35.3</ele>
        <time>2020-09-30T13:03:11Z</time>
      </trkpt>
      <trkpt lat="49.91715" lon="2.54295">
        <ele>35.3</ele>
        <time>2020-09-30T13:03:12Z</time>
      </trkpt>
      <trkpt lat="49.91717" lon="2.54292">
        <ele>35.3</ele>
        <time>2020-09-30T13:03:13Z</time>
      </trkpt>
      <trkpt lat="49.91718" lon="2.54292">
        <ele>35.3</ele>
        <time>2020-09-30T13:03:15Z</time>
      </trkpt>
      <trkpt lat="49.91719" lon="2.54291">
        <ele>35.3</ele>
        <time>2020-09-30T13:03:16Z</time>
      </trkpt>
      <trkpt lat="49.9172" lon="2.5429">
        <ele>35.3</ele>
        <time>2020-09-30T13:03:17Z</time>
      </trkpt>
      <trkpt lat="49.91721" lon="2.54289">
        <ele>35.3</ele>
        <time>2020-09-30T13:03:18Z</time>
      </trkpt>
      <trkpt lat="49.91721" lon="2.54288">
        <ele>35.3</ele>
        <time>2020-09-30T13:03:19Z</time>
      </trkpt>
      <trkpt lat="49.91722" lon="2.54288">
        <ele>35.3</ele>
        <time>2020-09-30T13:03:20Z</time>
      </trkpt>
      <trkpt lat="49.91723" lon="2.54286">
        <ele>35.3</ele>
        <time>2020-09-30T13:03:21Z</time>
      </trkpt>
      <trkpt lat="49.91725" lon="2.54284">
        <ele>35.3</ele>
        <time>2020-09-30T13:03:23Z</time>
      </trkpt>
      <trkpt lat="49.91725" lon="2.54283">
        <ele>35.3</ele>
        <time>2020-09-30T13:03:24Z</time>
      </trkpt>
      <trkpt lat="49.91726" lon="2.54283">
        <ele>35.3</ele>
        <time>2020-09-30T13:03:25Z</time>
      </trkpt>
      <trkpt lat="49.91728" lon="2.54281">
        <ele>35.3</ele>
        <time>2020-09-30T13:03:26Z</time>
      </trkpt>
      <trkpt lat="49.91729" lon="2.5428">
        <ele>35.3</ele>
        <time>2020-09-30T13:03:27Z</time>
      </trkpt>
      <trkpt lat="49.9173" lon="2.54279">
        <ele>35.3</ele>
        <time>2020-09-30T13:03:28Z</time>
      </trkpt>
      <trkpt lat="49.91731" lon="2.54278">
        <ele>35.3</ele>
        <time>2020-09-30T13:03:29Z</time>
      </trkpt>
      <trkpt lat="49.91732" lon="2.54277">
        <ele>35.3</ele>
        <time>2020-09-30T13:03:30Z</time>
      </trkpt>
      <trkpt lat="49.91733" lon="2.54276">
        <ele>35.3</ele>
        <time>2020-09-30T13:03:32Z</time>
      </trkpt>
      <trkpt lat="49.91734" lon="2.54275">
        <ele>35.3</ele>
        <time>2020-09-30T13:03:33Z</time>
      </trkpt>
      <trkpt lat="49.91735" lon="2.54274">
        <ele>35.4</ele>
        <time>2020-09-30T13:03:34Z</time>
      </trkpt>
      <trkpt lat="49.91737" lon="2.54272">
        <ele>35.4</ele>
        <time>2020-09-30T13:03:35Z</time>
      </trkpt>
      <trkpt lat="49.91738" lon="2.54271">
        <ele>35.4</ele>
        <time>2020-09-30T13:03:36Z</time>
      </trkpt>
      <trkpt lat="49.91739" lon="2.54271">
        <ele>35.4</ele>
        <time>2020-09-30T13:03:37Z</time>
      </trkpt>
      <trkpt lat="49.91741" lon="2.54268">
        <ele>35.4</ele>
        <time>2020-09-30T13:03:38Z</time>
      </trkpt>
      <trkpt lat="49.91741" lon="2.54267">
        <ele>35.4</ele>
        <time>2020-09-30T13:03:40Z</time>
      </trkpt>
      <trkpt lat="49.91742" lon="2.54266">
        <ele>35.4</ele>
        <time>2020-09-30T13:03:41Z</time>
      </trkpt>
      <trkpt lat="49.91743" lon="2.54265">
        <ele>35.4</ele>
        <time>2020-09-30T13:03:42Z</time>
      </trkpt>
      <trkpt lat="49.91743" lon="2.54264">
        <ele>35.4</ele>
        <time>2020-09-30T13:03:43Z</time>
      </trkpt>
      <trkpt lat="49.91745" lon="2.54262">
        <ele>35.4</ele>
        <time>2020-09-30T13:03:45Z</time>
      </trkpt>
      <trkpt lat="49.91746" lon="2.54261">
        <ele>35.5</ele>
        <time>2020-09-30T13:03:46Z</time>
      </trkpt>
      <trkpt lat="49.91746" lon="2.5426">
        <ele>35.5</ele>
        <time>2020-09-30T13:03:47Z</time>
      </trkpt>
      <trkpt lat="49.91748" lon="2.54258">
        <ele>35.5</ele>
        <time>2020-09-30T13:03:48Z</time>
      </trkpt>
      <trkpt lat="49.91749" lon="2.54258">
        <ele>35.5</ele>
        <time>2020-09-30T13:03:49Z</time>
      </trkpt>
      <trkpt lat="49.9175" lon="2.54257">
        <ele>35.5</ele>
        <time>2020-09-30T13:03:50Z</time>
      </trkpt>
      <trkpt lat="49.91752" lon="2.54256">
        <ele>35.5</ele>
        <time>2020-09-30T13:03:51Z</time>
      </trkpt>
      <trkpt lat="49.91752" lon="2.54255">
        <ele>35.5</ele>
        <time>2020-09-30T13:03:53Z</time>
      </trkpt>
      <trkpt lat="49.91753" lon="2.54254">
        <ele>35.5</ele>
        <time>2020-09-30T13:03:54Z</time>
      </trkpt>
      <trkpt lat="49.91754" lon="2.54253">
        <ele>35.6</ele>
        <time>2020-09-30T13:03:55Z</time>
      </trkpt>
      <trkpt lat="49.91755" lon="2.54252">
        <ele>35.6</ele>
        <time>2020-09-30T13:03:56Z</time>
      </trkpt>
      <trkpt lat="49.91756" lon="2.54251">
        <ele>35.6</ele>
        <time>2020-09-30T13:03:57Z</time>
      </trkpt>
      <trkpt lat="49.91758" lon="2.5425">
        <ele>35.6</ele>
        <time>2020-09-30T13:03:58Z</time>
      </trkpt>
      <trkpt lat="49.91759" lon="2.54249">
        <ele>35.6</ele>
        <time>2020-09-30T13:03:59Z</time>
      </trkpt>
      <trkpt lat="49.91761" lon="2.54247">
        <ele>35.6</ele>
        <time>2020-09-30T13:04:01Z</time>
      </trkpt>
      <trkpt lat="49.91761" lon="2.54247">
        <ele>35.6</ele>
        <time>2020-09-30T13:04:02Z</time>
      </trkpt>
      <trkpt lat="49.91762" lon="2.54246">
        <ele>35.6</ele>
        <time>2020-09-30T13:04:03Z</time>
      </trkpt>
      <trkpt lat="49.91764" lon="2.54244">
        <ele>35.7</ele>
        <time>2020-09-30T13:04:04Z</time>
      </trkpt>
      <trkpt lat="49.91765" lon="2.54244">
        <ele>35.7</ele>
        <time>2020-09-30T13:04:05Z</time>
      </trkpt>
      <trkpt lat="49.91766" lon="2.54243">
        <ele>35.7</ele>
        <time>2020-09-30T13:04:06Z</time>
      </trkpt>
      <trkpt lat="49.91767" lon="2.54242">
        <ele>35.7</ele>
        <time>2020-09-30T13:04:07Z</time>
      </trkpt>
      <trkpt lat="49.91769" lon="2.54241">
        <ele>35.7</ele>
        <time>2020-09-30T13:04:09Z</time>
      </trkpt>
      <trkpt lat="49.9177" lon="2.5424">
        <ele>35.7</ele>
        <time>2020-09-30T13:04:10Z</time>
      </trkpt>
      <trkpt lat="49.91771" lon="2.54239">
        <ele>35.7</ele>
        <time>2020-09-30T13:04:11Z</time>
      </trkpt>
      <trkpt lat="49.91772" lon="2.54238">
        <ele>35.7</ele>
        <time>2020-09-30T13:04:12Z</time>
      </trkpt>
      <trkpt lat="49.91774" lon="2.54237">
        <ele>35.8</ele>
        <time>2020-09-30T13:04:14Z</time>
      </trkpt>
      <trkpt lat="49.91775" lon="2.54237">
        <ele>35.8</ele>
        <time>2020-09-30T13:04:15Z</time>
      </trkpt>
      <trkpt lat="49.91777" lon="2.54235">
        <ele>35.8</ele>
        <time>2020-09-30T13:04:16Z</time>
      </trkpt>
      <trkpt lat="49.91777" lon="2.54234">
        <ele>35.8</ele>
        <time>2020-09-30T13:04:17Z</time>
      </trkpt>
      <trkpt lat="49.91778" lon="2.54233">
        <ele>35.8</ele>
        <time>2020-09-30T13:04:18Z</time>
      </trkpt>
      <trkpt lat="49.91779" lon="2.54232">
        <ele>35.8</ele>
        <time>2020-09-30T13:04:19Z</time>
      </trkpt>
      <trkpt lat="49.9178" lon="2.54231">
        <ele>35.8</ele>
        <time>2020-09-30T13:04:21Z</time>
      </trkpt>
      <trkpt lat="49.91781" lon="2.54231">
        <ele>35.8</ele>
        <time>2020-09-30T13:04:22Z</time>
      </trkpt>
      <trkpt lat="49.91782" lon="2.5423">
        <ele>35.8</ele>
        <time>2020-09-30T13:04:23Z</time>
      </trkpt>
      <trkpt lat="49.91783" lon="2.54229">
        <ele>35.8</ele>
        <time>2020-09-30T13:04:24Z</time>
      </trkpt>
      <trkpt lat="49.91785" lon="2.54227">
        <ele>35.8</ele>
        <time>2020-09-30T13:04:25Z</time>
      </trkpt>
      <trkpt lat="49.91787" lon="2.54226">
        <ele>35.8</ele>
        <time>2020-09-30T13:04:27Z</time>
      </trkpt>
      <trkpt lat="49.91788" lon="2.54225">
        <ele>35.8</ele>
        <time>2020-09-30T13:04:28Z</time>
      </trkpt>
      <trkpt lat="49.91789" lon="2.54224">
        <ele>35.8</ele>
        <time>2020-09-30T13:04:30Z</time>
      </trkpt>
      <trkpt lat="49.91789" lon="2.54224">
        <ele>35.9</ele>
        <time>2020-09-30T13:04:31Z</time>
      </trkpt>
      <trkpt lat="49.9179" lon="2.54223">
        <ele>35.9</ele>
        <time>2020-09-30T13:04:32Z</time>
      </trkpt>
      <trkpt lat="49.91791" lon="2.54222">
        <ele>35.9</ele>
        <time>2020-09-30T13:04:33Z</time>
      </trkpt>
      <trkpt lat="49.91793" lon="2.5422">
        <ele>35.9</ele>
        <time>2020-09-30T13:04:35Z</time>
      </trkpt>
      <trkpt lat="49.91794" lon="2.5422">
        <ele>35.9</ele>
        <time>2020-09-30T13:04:36Z</time>
      </trkpt>
      <trkpt lat="49.91795" lon="2.54219">
        <ele>35.9</ele>
        <time>2020-09-30T13:04:37Z</time>
      </trkpt>
      <trkpt lat="49.91798" lon="2.54217">
        <ele>35.9</ele>
        <time>2020-09-30T13:04:39Z</time>
      </trkpt>
      <trkpt lat="49.91798" lon="2.54216">
        <ele>35.9</ele>
        <time>2020-09-30T13:04:40Z</time>
      </trkpt>
      <trkpt lat="49.91799" lon="2.54216">
        <ele>35.9</ele>
        <time>2020-09-30T13:04:41Z</time>
      </trkpt>
      <trkpt lat="49.918" lon="2.54215">
        <ele>35.9</ele>
        <time>2020-09-30T13:04:42Z</time>
      </trkpt>
      <trkpt lat="49.91802" lon="2.54214">
        <ele>35.9</ele>
        <time>2020-09-30T13:04:44Z</time>
      </trkpt>
      <trkpt lat="49.91803" lon="2.54213">
        <ele>35.9</ele>
        <time>2020-09-30T13:04:45Z</time>
      </trkpt>
      <trkpt lat="49.91805" lon="2.54211">
        <ele>35.9</ele>
        <time>2020-09-30T13:04:46Z</time>
      </trkpt>
      <trkpt lat="49.91806" lon="2.54211">
        <ele>35.9</ele>
        <time>2020-09-30T13:04:48Z</time>
      </trkpt>
      <trkpt lat="49.91807" lon="2.5421">
        <ele>35.9</ele>
        <time>2020-09-30T13:04:49Z</time>
      </trkpt>
      <trkpt lat="49.91808" lon="2.5421">
        <ele>35.9</ele>
        <time>2020-09-30T13:04:50Z</time>
      </trkpt>
      <trkpt lat="49.91809" lon="2.5421">
        <ele>35.9</ele>
        <time>2020-09-30T13:04:51Z</time>
      </trkpt>
      <trkpt lat="49.9181" lon="2.54209">
        <ele>35.9</ele>
        <time>2020-09-30T13:04:52Z</time>
      </trkpt>
      <trkpt lat="49.91812" lon="2.54209">
        <ele>35.9</ele>
        <time>2020-09-30T13:04:53Z</time>
      </trkpt>
      <trkpt lat="49.91813" lon="2.54208">
        <ele>35.9</ele>
        <time>2020-09-30T13:04:54Z</time>
      </trkpt>
      <trkpt lat="49.91815" lon="2.54207">
        <ele>35.9</ele>
        <time>2020-09-30T13:04:55Z</time>
      </trkpt>
      <trkpt lat="49.91816" lon="2.54206">
        <ele>35.9</ele>
        <time>2020-09-30T13:04:57Z</time>
      </trkpt>
      <trkpt lat="49.91817" lon="2.54206">
        <ele>35.9</ele>
        <time>2020-09-30T13:04:58Z</time>
      </trkpt>
      <trkpt lat="49.91819" lon="2.54205">
        <ele>35.9</ele>
        <time>2020-09-30T13:04:59Z</time>
      </trkpt>
      <trkpt lat="49.91819" lon="2.54204">
        <ele>35.9</ele>
        <time>2020-09-30T13:05:00Z</time>
      </trkpt>
      <trkpt lat="49.91821" lon="2.54203">
        <ele>35.9</ele>
        <time>2020-09-30T13:05:02Z</time>
      </trkpt>
      <trkpt lat="49.91822" lon="2.54202">
        <ele>35.9</ele>
        <time>2020-09-30T13:05:03Z</time>
      </trkpt>
      <trkpt lat="49.91823" lon="2.54202">
        <ele>35.9</ele>
        <time>2020-09-30T13:05:04Z</time>
      </trkpt>
      <trkpt lat="49.91824" lon="2.54201">
        <ele>35.9</ele>
        <time>2020-09-30T13:05:05Z</time>
      </trkpt>
      <trkpt lat="49.91825" lon="2.542">
        <ele>35.8</ele>
        <time>2020-09-30T13:05:06Z</time>
      </trkpt>
      <trkpt lat="49.91826" lon="2.54198">
        <ele>35.8</ele>
        <time>2020-09-30T13:05:07Z</time>
      </trkpt>
      <trkpt lat="49.91827" lon="2.54197">
        <ele>35.8</ele>
        <time>2020-09-30T13:05:08Z</time>
      </trkpt>
      <trkpt lat="49.91828" lon="2.54195">
        <ele>35.8</ele>
        <time>2020-09-30T13:05:09Z</time>
      </trkpt>
      <trkpt lat="49.91828" lon="2.54194">
        <ele>35.8</ele>
        <time>2020-09-30T13:05:11Z</time>
      </trkpt>
      <trkpt lat="49.91829" lon="2.54193">
        <ele>35.8</ele>
        <time>2020-09-30T13:05:12Z</time>
      </trkpt>
      <trkpt lat="49.9183" lon="2.54193">
        <ele>35.8</ele>
        <time>2020-09-30T13:05:13Z</time>
      </trkpt>
      <trkpt lat="49.91831" lon="2.54192">
        <ele>35.8</ele>
        <time>2020-09-30T13:05:14Z</time>
      </trkpt>
      <trkpt lat="49.91832" lon="2.54191">
        <ele>35.8</ele>
        <time>2020-09-30T13:05:15Z</time>
      </trkpt>
      <trkpt lat="49.91833" lon="2.54191">
        <ele>35.8</ele>
        <time>2020-09-30T13:05:16Z</time>
      </trkpt>
      <trkpt lat="49.91834" lon="2.54189">
        <ele>35.7</ele>
        <time>2020-09-30T13:05:17Z</time>
      </trkpt>
      <trkpt lat="49.91835" lon="2.54188">
        <ele>35.7</ele>
        <time>2020-09-30T13:05:18Z</time>
      </trkpt>
      <trkpt lat="49.91836" lon="2.54188">
        <ele>35.7</ele>
        <time>2020-09-30T13:05:19Z</time>
      </trkpt>
      <trkpt lat="49.91837" lon="2.54188">
        <ele>35.7</ele>
        <time>2020-09-30T13:05:21Z</time>
      </trkpt>
      <trkpt lat="49.91838" lon="2.54188">
        <ele>35.7</ele>
        <time>2020-09-30T13:05:22Z</time>
      </trkpt>
      <trkpt lat="49.91839" lon="2.54189">
        <ele>35.7</ele>
        <time>2020-09-30T13:05:23Z</time>
      </trkpt>
      <trkpt lat="49.91841" lon="2.5419">
        <ele>35.7</ele>
        <time>2020-09-30T13:05:24Z</time>
      </trkpt>
      <trkpt lat="49.91842" lon="2.54191">
        <ele>35.6</ele>
        <time>2020-09-30T13:05:25Z</time>
      </trkpt>
      <trkpt lat="49.91843" lon="2.54192">
        <ele>35.6</ele>
        <time>2020-09-30T13:05:26Z</time>
      </trkpt>
      <trkpt lat="49.91844" lon="2.54193">
        <ele>35.6</ele>
        <time>2020-09-30T13:05:27Z</time>
      </trkpt>
      <trkpt lat="49.91845" lon="2.54193">
        <ele>35.6</ele>
        <time>2020-09-30T13:05:28Z</time>
      </trkpt>
      <trkpt lat="49.91848" lon="2.54193">
        <ele>35.5</ele>
        <time>2020-09-30T13:05:29Z</time>
      </trkpt>
      <trkpt lat="49.91849" lon="2.54192">
        <ele>35.5</ele>
        <time>2020-09-30T13:05:31Z</time>
      </trkpt>
      <trkpt lat="49.9185" lon="2.54192">
        <ele>35.5</ele>
        <time>2020-09-30T13:05:32Z</time>
      </trkpt>
      <trkpt lat="49.91851" lon="2.54191">
        <ele>35.5</ele>
        <time>2020-09-30T13:05:33Z</time>
      </trkpt>
      <trkpt lat="49.91852" lon="2.5419">
        <ele>35.5</ele>
        <time>2020-09-30T13:05:34Z</time>
      </trkpt>
      <trkpt lat="49.91853" lon="2.5419">
        <ele>35.4</ele>
        <time>2020-09-30T13:05:35Z</time>
      </trkpt>
      <trkpt lat="49.91854" lon="2.54189">
        <ele>35.4</ele>
        <time>2020-09-30T13:05:36Z</time>
      </trkpt>
      <trkpt lat="49.91855" lon="2.54189">
        <ele>35.3</ele>
        <time>2020-09-30T13:05:37Z</time>
      </trkpt>
      <trkpt lat="49.91856" lon="2.54188">
        <ele>35.3</ele>
        <time>2020-09-30T13:05:38Z</time>
      </trkpt>
      <trkpt lat="49.91858" lon="2.54188">
        <ele>35.2</ele>
        <time>2020-09-30T13:05:39Z</time>
      </trkpt>
      <trkpt lat="49.91859" lon="2.54187">
        <ele>35.2</ele>
        <time>2020-09-30T13:05:40Z</time>
      </trkpt>
      <trkpt lat="49.9186" lon="2.54186">
        <ele>35.1</ele>
        <time>2020-09-30T13:05:42Z</time>
      </trkpt>
      <trkpt lat="49.9186" lon="2.54186">
        <ele>35.1</ele>
        <time>2020-09-30T13:05:43Z</time>
      </trkpt>
      <trkpt lat="49.91862" lon="2.54184">
        <ele>35</ele>
        <time>2020-09-30T13:05:44Z</time>
      </trkpt>
      <trkpt lat="49.91863" lon="2.54183">
        <ele>35</ele>
        <time>2020-09-30T13:05:45Z</time>
      </trkpt>
      <trkpt lat="49.91866" lon="2.54183">
        <ele>34.9</ele>
        <time>2020-09-30T13:05:46Z</time>
      </trkpt>
      <trkpt lat="49.91867" lon="2.54183">
        <ele>34.9</ele>
        <time>2020-09-30T13:05:48Z</time>
      </trkpt>
      <trkpt lat="49.91868" lon="2.54183">
        <ele>34.8</ele>
        <time>2020-09-30T13:05:49Z</time>
      </trkpt>
      <trkpt lat="49.91869" lon="2.54183">
        <ele>34.8</ele>
        <time>2020-09-30T13:05:50Z</time>
      </trkpt>
      <trkpt lat="49.9187" lon="2.54183">
        <ele>34.8</ele>
        <time>2020-09-30T13:05:51Z</time>
      </trkpt>
      <trkpt lat="49.91871" lon="2.54183">
        <ele>34.7</ele>
        <time>2020-09-30T13:05:52Z</time>
      </trkpt>
      <trkpt lat="49.91873" lon="2.54183">
        <ele>34.7</ele>
        <time>2020-09-30T13:05:54Z</time>
      </trkpt>
      <trkpt lat="49.91874" lon="2.54183">
        <ele>34.7</ele>
        <time>2020-09-30T13:05:55Z</time>
      </trkpt>
      <trkpt lat="49.91875" lon="2.54182">
        <ele>34.6</ele>
        <time>2020-09-30T13:05:56Z</time>
      </trkpt>
      <trkpt lat="49.91876" lon="2.54182">
        <ele>34.6</ele>
        <time>2020-09-30T13:05:57Z</time>
      </trkpt>
      <trkpt lat="49.91878" lon="2.54182">
        <ele>34.6</ele>
        <time>2020-09-30T13:05:58Z</time>
      </trkpt>
      <trkpt lat="49.91879" lon="2.54183">
        <ele>34.5</ele>
        <time>2020-09-30T13:05:59Z</time>
      </trkpt>
      <trkpt lat="49.9188" lon="2.54184">
        <ele>34.5</ele>
        <time>2020-09-30T13:06:01Z</time>
      </trkpt>
      <trkpt lat="49.91881" lon="2.54185">
        <ele>34.5</ele>
        <time>2020-09-30T13:06:02Z</time>
      </trkpt>
      <trkpt lat="49.91882" lon="2.54185">
        <ele>34.4</ele>
        <time>2020-09-30T13:06:03Z</time>
      </trkpt>
      <trkpt lat="49.91884" lon="2.54187">
        <ele>34.4</ele>
        <time>2020-09-30T13:06:04Z</time>
      </trkpt>
      <trkpt lat="49.91885" lon="2.54187">
        <ele>34.3</ele>
        <time>2020-09-30T13:06:05Z</time>
      </trkpt>
      <trkpt lat="49.91886" lon="2.54188">
        <ele>34.3</ele>
        <time>2020-09-30T13:06:07Z</time>
      </trkpt>
      <trkpt lat="49.91887" lon="2.54189">
        <ele>34.3</ele>
        <time>2020-09-30T13:06:08Z</time>
      </trkpt>
      <trkpt lat="49.91888" lon="2.5419">
        <ele>34.2</ele>
        <time>2020-09-30T13:06:09Z</time>
      </trkpt>
      <trkpt lat="49.91889" lon="2.54191">
        <ele>34.2</ele>
        <time>2020-09-30T13:06:10Z</time>
      </trkpt>
      <trkpt lat="49.9189" lon="2.54192">
        <ele>34.2</ele>
        <time>2020-09-30T13:06:11Z</time>
      </trkpt>
      <trkpt lat="49.91891" lon="2.54193">
        <ele>34.2</ele>
        <time>2020-09-30T13:06:12Z</time>
      </trkpt>
      <trkpt lat="49.91892" lon="2.54194">
        <ele>34.1</ele>
        <time>2020-09-30T13:06:13Z</time>
      </trkpt>
      <trkpt lat="49.91893" lon="2.54196">
        <ele>34.1</ele>
        <time>2020-09-30T13:06:14Z</time>
      </trkpt>
      <trkpt lat="49.91894" lon="2.54197">
        <ele>34</ele>
        <time>2020-09-30T13:06:15Z</time>
      </trkpt>
      <trkpt lat="49.91894" lon="2.54199">
        <ele>34</ele>
        <time>2020-09-30T13:06:16Z</time>
      </trkpt>
      <trkpt lat="49.91895" lon="2.542">
        <ele>34</ele>
        <time>2020-09-30T13:06:17Z</time>
      </trkpt>
      <trkpt lat="49.91896" lon="2.54202">
        <ele>34</ele>
        <time>2020-09-30T13:06:19Z</time>
      </trkpt>
      <trkpt lat="49.91897" lon="2.54204">
        <ele>33.9</ele>
        <time>2020-09-30T13:06:20Z</time>
      </trkpt>
      <trkpt lat="49.91898" lon="2.54205">
        <ele>33.9</ele>
        <time>2020-09-30T13:06:21Z</time>
      </trkpt>
      <trkpt lat="49.91898" lon="2.54207">
        <ele>33.8</ele>
        <time>2020-09-30T13:06:22Z</time>
      </trkpt>
      <trkpt lat="49.91899" lon="2.54209">
        <ele>33.8</ele>
        <time>2020-09-30T13:06:23Z</time>
      </trkpt>
      <trkpt lat="49.919" lon="2.54211">
        <ele>33.7</ele>
        <time>2020-09-30T13:06:24Z</time>
      </trkpt>
      <trkpt lat="49.919" lon="2.54213">
        <ele>33.7</ele>
        <time>2020-09-30T13:06:25Z</time>
      </trkpt>
      <trkpt lat="49.91901" lon="2.54216">
        <ele>33.7</ele>
        <time>2020-09-30T13:06:26Z</time>
      </trkpt>
      <trkpt lat="49.91901" lon="2.54217">
        <ele>33.6</ele>
        <time>2020-09-30T13:06:27Z</time>
      </trkpt>
      <trkpt lat="49.91902" lon="2.54219">
        <ele>33.6</ele>
        <time>2020-09-30T13:06:28Z</time>
      </trkpt>
      <trkpt lat="49.91903" lon="2.54222">
        <ele>33.5</ele>
        <time>2020-09-30T13:06:29Z</time>
      </trkpt>
      <trkpt lat="49.91903" lon="2.54223">
        <ele>33.5</ele>
        <time>2020-09-30T13:06:31Z</time>
      </trkpt>
      <trkpt lat="49.91903" lon="2.54225">
        <ele>33.4</ele>
        <time>2020-09-30T13:06:32Z</time>
      </trkpt>
      <trkpt lat="49.91904" lon="2.54228">
        <ele>33.4</ele>
        <time>2020-09-30T13:06:33Z</time>
      </trkpt>
      <trkpt lat="49.91906" lon="2.54232">
        <ele>33.3</ele>
        <time>2020-09-30T13:06:35Z</time>
      </trkpt>
      <trkpt lat="49.91907" lon="2.54234">
        <ele>33.2</ele>
        <time>2020-09-30T13:06:36Z</time>
      </trkpt>
      <trkpt lat="49.91907" lon="2.54235">
        <ele>33.2</ele>
        <time>2020-09-30T13:06:37Z</time>
      </trkpt>
      <trkpt lat="49.91908" lon="2.54237">
        <ele>33.1</ele>
        <time>2020-09-30T13:06:38Z</time>
      </trkpt>
      <trkpt lat="49.91909" lon="2.54239">
        <ele>33.1</ele>
        <time>2020-09-30T13:06:40Z</time>
      </trkpt>
      <trkpt lat="49.91909" lon="2.54241">
        <ele>33</ele>
        <time>2020-09-30T13:06:41Z</time>
      </trkpt>
      <trkpt lat="49.9191" lon="2.54242">
        <ele>33</ele>
        <time>2020-09-30T13:06:42Z</time>
      </trkpt>
      <trkpt lat="49.91911" lon="2.54244">
        <ele>32.9</ele>
        <time>2020-09-30T13:06:43Z</time>
      </trkpt>
      <trkpt lat="49.91912" lon="2.54247">
        <ele>32.8</ele>
        <time>2020-09-30T13:06:44Z</time>
      </trkpt>
      <trkpt lat="49.91913" lon="2.54249">
        <ele>32.8</ele>
        <time>2020-09-30T13:06:45Z</time>
      </trkpt>
      <trkpt lat="49.91914" lon="2.54252">
        <ele>32.7</ele>
        <time>2020-09-30T13:06:47Z</time>
      </trkpt>
      <trkpt lat="49.91915" lon="2.54253">
        <ele>32.7</ele>
        <time>2020-09-30T13:06:48Z</time>
      </trkpt>
      <trkpt lat="49.91915" lon="2.54255">
        <ele>32.6</ele>
        <time>2020-09-30T13:06:49Z</time>
      </trkpt>
      <trkpt lat="49.91916" lon="2.54258">
        <ele>32.6</ele>
        <time>2020-09-30T13:06:51Z</time>
      </trkpt>
      <trkpt lat="49.91917" lon="2.54259">
        <ele>32.5</ele>
        <time>2020-09-30T13:06:52Z</time>
      </trkpt>
      <trkpt lat="49.91917" lon="2.54261">
        <ele>32.5</ele>
        <time>2020-09-30T13:06:53Z</time>
      </trkpt>
      <trkpt lat="49.91918" lon="2.54262">
        <ele>32.5</ele>
        <time>2020-09-30T13:06:54Z</time>
      </trkpt>
      <trkpt lat="49.91919" lon="2.54265">
        <ele>32.4</ele>
        <time>2020-09-30T13:06:55Z</time>
      </trkpt>
      <trkpt lat="49.91919" lon="2.54266">
        <ele>32.4</ele>
        <time>2020-09-30T13:06:56Z</time>
      </trkpt>
      <trkpt lat="49.91919" lon="2.54268">
        <ele>32.4</ele>
        <time>2020-09-30T13:06:57Z</time>
      </trkpt>
      <trkpt lat="49.9192" lon="2.54269">
        <ele>32.3</ele>
        <time>2020-09-30T13:06:58Z</time>
      </trkpt>
      <trkpt lat="49.91921" lon="2.54272">
        <ele>32.3</ele>
        <time>2020-09-30T13:06:59Z</time>
      </trkpt>
      <trkpt lat="49.91922" lon="2.54273">
        <ele>32.3</ele>
        <time>2020-09-30T13:07:00Z</time>
      </trkpt>
      <trkpt lat="49.91922" lon="2.54274">
        <ele>32.3</ele>
        <time>2020-09-30T13:07:01Z</time>
      </trkpt>
      <trkpt lat="49.91923" lon="2.54275">
        <ele>32.2</ele>
        <time>2020-09-30T13:07:02Z</time>
      </trkpt>
      <trkpt lat="49.91924" lon="2.54277">
        <ele>32.2</ele>
        <time>2020-09-30T13:07:03Z</time>
      </trkpt>
      <trkpt lat="49.91925" lon="2.54279">
        <ele>32.2</ele>
        <time>2020-09-30T13:07:05Z</time>
      </trkpt>
      <trkpt lat="49.91925" lon="2.54281">
        <ele>32.2</ele>
        <time>2020-09-30T13:07:06Z</time>
      </trkpt>
      <trkpt lat="49.91926" lon="2.54282">
        <ele>32.2</ele>
        <time>2020-09-30T13:07:07Z</time>
      </trkpt>
      <trkpt lat="49.91927" lon="2.54284">
        <ele>32.2</ele>
        <time>2020-09-30T13:07:08Z</time>
      </trkpt>
      <trkpt lat="49.91928" lon="2.54287">
        <ele>32.1</ele>
        <time>2020-09-30T13:07:10Z</time>
      </trkpt>
      <trkpt lat="49.91929" lon="2.54288">
        <ele>32.1</ele>
        <time>2020-09-30T13:07:11Z</time>
      </trkpt>
      <trkpt lat="49.91929" lon="2.5429">
        <ele>32.1</ele>
        <time>2020-09-30T13:07:12Z</time>
      </trkpt>
      <trkpt lat="49.9193" lon="2.54291">
        <ele>32.1</ele>
        <time>2020-09-30T13:07:13Z</time>
      </trkpt>
      <trkpt lat="49.91931" lon="2.54292">
        <ele>32.1</ele>
        <time>2020-09-30T13:07:14Z</time>
      </trkpt>
      <trkpt lat="49.91932" lon="2.54294">
        <ele>32.2</ele>
        <time>2020-09-30T13:07:15Z</time>
      </trkpt>
      <trkpt lat="49.91933" lon="2.54295">
        <ele>32.2</ele>
        <time>2020-09-30T13:07:17Z</time>
      </trkpt>
      <trkpt lat="49.91934" lon="2.54296">
        <ele>32.2</ele>
        <time>2020-09-30T13:07:18Z</time>
      </trkpt>
      <trkpt lat="49.91935" lon="2.54298">
        <ele>32.3</ele>
        <time>2020-09-30T13:07:19Z</time>
      </trkpt>
      <trkpt lat="49.91936" lon="2.54299">
        <ele>32.3</ele>
        <time>2020-09-30T13:07:20Z</time>
      </trkpt>
      <trkpt lat="49.91937" lon="2.543">
        <ele>32.3</ele>
        <time>2020-09-30T13:07:21Z</time>
      </trkpt>
      <trkpt lat="49.91939" lon="2.54302">
        <ele>32.4</ele>
        <time>2020-09-30T13:07:22Z</time>
      </trkpt>
      <trkpt lat="49.9194" lon="2.54303">
        <ele>32.4</ele>
        <time>2020-09-30T13:07:23Z</time>
      </trkpt>
      <trkpt lat="49.9194" lon="2.54304">
        <ele>32.4</ele>
        <time>2020-09-30T13:07:24Z</time>
      </trkpt>
      <trkpt lat="49.91941" lon="2.54305">
        <ele>32.4</ele>
        <time>2020-09-30T13:07:26Z</time>
      </trkpt>
      <trkpt lat="49.91942" lon="2.54306">
        <ele>32.5</ele>
        <time>2020-09-30T13:07:28Z</time>
      </trkpt>
      <trkpt lat="49.91942" lon="2.54306">
        <ele>32.5</ele>
        <time>2020-09-30T13:07:29Z</time>
      </trkpt>
      <trkpt lat="49.91941" lon="2.54307">
        <ele>32.5</ele>
        <time>2020-09-30T13:07:31Z</time>
      </trkpt>
      <trkpt lat="49.91941" lon="2.54307">
        <ele>32.5</ele>
        <time>2020-09-30T13:07:32Z</time>
      </trkpt>
      <trkpt lat="49.91941" lon="2.54307">
        <ele>32.5</ele>
        <time>2020-09-30T13:07:34Z</time>
      </trkpt>
      <trkpt lat="49.91941" lon="2.54307">
        <ele>32.5</ele>
        <time>2020-09-30T13:07:35Z</time>
      </trkpt>
      <trkpt lat="49.91941" lon="2.54307">
        <ele>32.5</ele>
        <time>2020-09-30T13:07:36Z</time>
      </trkpt>
      <trkpt lat="49.91941" lon="2.54308">
        <ele>32.5</ele>
        <time>2020-09-30T13:07:38Z</time>
      </trkpt>
      <trkpt lat="49.91941" lon="2.54308">
        <ele>32.5</ele>
        <time>2020-09-30T13:07:39Z</time>
      </trkpt>
      <trkpt lat="49.91941" lon="2.54309">
        <ele>32.5</ele>
        <time>2020-09-30T13:07:40Z</time>
      </trkpt>
      <trkpt lat="49.9194" lon="2.5431">
        <ele>32.6</ele>
        <time>2020-09-30T13:07:42Z</time>
      </trkpt>
      <trkpt lat="49.91939" lon="2.54311">
        <ele>32.6</ele>
        <time>2020-09-30T13:07:43Z</time>
      </trkpt>
      <trkpt lat="49.9194" lon="2.54312">
        <ele>32.6</ele>
        <time>2020-09-30T13:07:44Z</time>
      </trkpt>
      <trkpt lat="49.91941" lon="2.54312">
        <ele>32.6</ele>
        <time>2020-09-30T13:07:45Z</time>
      </trkpt>
      <trkpt lat="49.91943" lon="2.54313">
        <ele>32.7</ele>
        <time>2020-09-30T13:07:46Z</time>
      </trkpt>
      <trkpt lat="49.91944" lon="2.54313">
        <ele>32.7</ele>
        <time>2020-09-30T13:07:48Z</time>
      </trkpt>
      <trkpt lat="49.91947" lon="2.54313">
        <ele>32.8</ele>
        <time>2020-09-30T13:07:50Z</time>
      </trkpt>
      <trkpt lat="49.91947" lon="2.54313">
        <ele>32.8</ele>
        <time>2020-09-30T13:07:51Z</time>
      </trkpt>
      <trkpt lat="49.91948" lon="2.54313">
        <ele>32.8</ele>
        <time>2020-09-30T13:07:52Z</time>
      </trkpt>
      <trkpt lat="49.91949" lon="2.54313">
        <ele>32.8</ele>
        <time>2020-09-30T13:07:53Z</time>
      </trkpt>
      <trkpt lat="49.9195" lon="2.54313">
        <ele>32.9</ele>
        <time>2020-09-30T13:07:54Z</time>
      </trkpt>
      <trkpt lat="49.91951" lon="2.54313">
        <ele>32.9</ele>
        <time>2020-09-30T13:07:56Z</time>
      </trkpt>
      <trkpt lat="49.91951" lon="2.54313">
        <ele>32.9</ele>
        <time>2020-09-30T13:07:57Z</time>
      </trkpt>
      <trkpt lat="49.91952" lon="2.54313">
        <ele>32.9</ele>
        <time>2020-09-30T13:07:58Z</time>
      </trkpt>
      <trkpt lat="49.91953" lon="2.54313">
        <ele>33</ele>
        <time>2020-09-30T13:08:00Z</time>
      </trkpt>
      <trkpt lat="49.91954" lon="2.54313">
        <ele>33</ele>
        <time>2020-09-30T13:08:01Z</time>
      </trkpt>
      <trkpt lat="49.91954" lon="2.54314">
        <ele>33</ele>
        <time>2020-09-30T13:08:02Z</time>
      </trkpt>
      <trkpt lat="49.91955" lon="2.54314">
        <ele>33</ele>
        <time>2020-09-30T13:08:03Z</time>
      </trkpt>
      <trkpt lat="49.91957" lon="2.54314">
        <ele>33.1</ele>
        <time>2020-09-30T13:08:04Z</time>
      </trkpt>
      <trkpt lat="49.91958" lon="2.54315">
        <ele>33.1</ele>
        <time>2020-09-30T13:08:05Z</time>
      </trkpt>
      <trkpt lat="49.91959" lon="2.54316">
        <ele>33.1</ele>
        <time>2020-09-30T13:08:07Z</time>
      </trkpt>
      <trkpt lat="49.9196" lon="2.54318">
        <ele>33.2</ele>
        <time>2020-09-30T13:08:08Z</time>
      </trkpt>
      <trkpt lat="49.91961" lon="2.54319">
        <ele>33.2</ele>
        <time>2020-09-30T13:08:09Z</time>
      </trkpt>
      <trkpt lat="49.91964" lon="2.54322">
        <ele>33.3</ele>
        <time>2020-09-30T13:08:10Z</time>
      </trkpt>
      <trkpt lat="49.91964" lon="2.54323">
        <ele>33.3</ele>
        <time>2020-09-30T13:08:11Z</time>
      </trkpt>
      <trkpt lat="49.91965" lon="2.54324">
        <ele>33.3</ele>
        <time>2020-09-30T13:08:12Z</time>
      </trkpt>
      <trkpt lat="49.91966" lon="2.54325">
        <ele>33.4</ele>
        <time>2020-09-30T13:08:13Z</time>
      </trkpt>
      <trkpt lat="49.91967" lon="2.54327">
        <ele>33.4</ele>
        <time>2020-09-30T13:08:15Z</time>
      </trkpt>
      <trkpt lat="49.91969" lon="2.5433">
        <ele>33.5</ele>
        <time>2020-09-30T13:08:16Z</time>
      </trkpt>
      <trkpt lat="49.91969" lon="2.54331">
        <ele>33.5</ele>
        <time>2020-09-30T13:08:17Z</time>
      </trkpt>
      <trkpt lat="49.9197" lon="2.54332">
        <ele>33.5</ele>
        <time>2020-09-30T13:08:18Z</time>
      </trkpt>
      <trkpt lat="49.91971" lon="2.54334">
        <ele>33.6</ele>
        <time>2020-09-30T13:08:19Z</time>
      </trkpt>
      <trkpt lat="49.91973" lon="2.54335">
        <ele>33.6</ele>
        <time>2020-09-30T13:08:20Z</time>
      </trkpt>
      <trkpt lat="49.91973" lon="2.54337">
        <ele>33.6</ele>
        <time>2020-09-30T13:08:21Z</time>
      </trkpt>
      <trkpt lat="49.91974" lon="2.54338">
        <ele>33.7</ele>
        <time>2020-09-30T13:08:23Z</time>
      </trkpt>
      <trkpt lat="49.91975" lon="2.5434">
        <ele>33.7</ele>
        <time>2020-09-30T13:08:24Z</time>
      </trkpt>
      <trkpt lat="49.91976" lon="2.54342">
        <ele>33.7</ele>
        <time>2020-09-30T13:08:25Z</time>
      </trkpt>
      <trkpt lat="49.91977" lon="2.54343">
        <ele>33.8</ele>
        <time>2020-09-30T13:08:26Z</time>
      </trkpt>
      <trkpt lat="49.91979" lon="2.54345">
        <ele>33.8</ele>
        <time>2020-09-30T13:08:27Z</time>
      </trkpt>
      <trkpt lat="49.9198" lon="2.54346">
        <ele>33.9</ele>
        <time>2020-09-30T13:08:29Z</time>
      </trkpt>
      <trkpt lat="49.91981" lon="2.54347">
        <ele>33.9</ele>
        <time>2020-09-30T13:08:30Z</time>
      </trkpt>
      <trkpt lat="49.91981" lon="2.54348">
        <ele>33.9</ele>
        <time>2020-09-30T13:08:32Z</time>
      </trkpt>
      <trkpt lat="49.91983" lon="2.54349">
        <ele>33.9</ele>
        <time>2020-09-30T13:08:33Z</time>
      </trkpt>
      <trkpt lat="49.91984" lon="2.5435">
        <ele>33.9</ele>
        <time>2020-09-30T13:08:34Z</time>
      </trkpt>
      <trkpt lat="49.91985" lon="2.54351">
        <ele>33.9</ele>
        <time>2020-09-30T13:08:36Z</time>
      </trkpt>
      <trkpt lat="49.91985" lon="2.54352">
        <ele>33.9</ele>
        <time>2020-09-30T13:08:37Z</time>
      </trkpt>
      <trkpt lat="49.91986" lon="2.54353">
        <ele>33.9</ele>
        <time>2020-09-30T13:08:38Z</time>
      </trkpt>
      <trkpt lat="49.91987" lon="2.54354">
        <ele>33.9</ele>
        <time>2020-09-30T13:08:39Z</time>
      </trkpt>
      <trkpt lat="49.91989" lon="2.54356">
        <ele>33.9</ele>
        <time>2020-09-30T13:08:40Z</time>
      </trkpt>
      <trkpt lat="49.91989" lon="2.54357">
        <ele>33.9</ele>
        <time>2020-09-30T13:08:41Z</time>
      </trkpt>
      <trkpt lat="49.9199" lon="2.54358">
        <ele>33.9</ele>
        <time>2020-09-30T13:08:42Z</time>
      </trkpt>
      <trkpt lat="49.91991" lon="2.54359">
        <ele>33.9</ele>
        <time>2020-09-30T13:08:43Z</time>
      </trkpt>
      <trkpt lat="49.91992" lon="2.5436">
        <ele>33.9</ele>
        <time>2020-09-30T13:08:45Z</time>
      </trkpt>
      <trkpt lat="49.91993" lon="2.54361">
        <ele>33.9</ele>
        <time>2020-09-30T13:08:46Z</time>
      </trkpt>
      <trkpt lat="49.91993" lon="2.54362">
        <ele>33.9</ele>
        <time>2020-09-30T13:08:47Z</time>
      </trkpt>
      <trkpt lat="49.91995" lon="2.54364">
        <ele>33.9</ele>
        <time>2020-09-30T13:08:48Z</time>
      </trkpt>
      <trkpt lat="49.91996" lon="2.54365">
        <ele>33.9</ele>
        <time>2020-09-30T13:08:49Z</time>
      </trkpt>
      <trkpt lat="49.91997" lon="2.54366">
        <ele>33.9</ele>
        <time>2020-09-30T13:08:50Z</time>
      </trkpt>
      <trkpt lat="49.91998" lon="2.54367">
        <ele>33.9</ele>
        <time>2020-09-30T13:08:51Z</time>
      </trkpt>
      <trkpt lat="49.91998" lon="2.54368">
        <ele>33.9</ele>
        <time>2020-09-30T13:08:52Z</time>
      </trkpt>
      <trkpt lat="49.91999" lon="2.54369">
        <ele>33.9</ele>
        <time>2020-09-30T13:08:53Z</time>
      </trkpt>
      <trkpt lat="49.92" lon="2.5437">
        <ele>33.9</ele>
        <time>2020-09-30T13:08:55Z</time>
      </trkpt>
      <trkpt lat="49.92002" lon="2.54372">
        <ele>33.9</ele>
        <time>2020-09-30T13:08:56Z</time>
      </trkpt>
      <trkpt lat="49.92003" lon="2.54373">
        <ele>33.9</ele>
        <time>2020-09-30T13:08:57Z</time>
      </trkpt>
      <trkpt lat="49.92004" lon="2.54374">
        <ele>33.9</ele>
        <time>2020-09-30T13:08:58Z</time>
      </trkpt>
      <trkpt lat="49.92005" lon="2.54375">
        <ele>33.9</ele>
        <time>2020-09-30T13:08:59Z</time>
      </trkpt>
      <trkpt lat="49.92007" lon="2.54376">
        <ele>33.9</ele>
        <time>2020-09-30T13:09:01Z</time>
      </trkpt>
      <trkpt lat="49.92008" lon="2.54377">
        <ele>33.9</ele>
        <time>2020-09-30T13:09:02Z</time>
      </trkpt>
      <trkpt lat="49.92008" lon="2.54378">
        <ele>33.9</ele>
        <time>2020-09-30T13:09:03Z</time>
      </trkpt>
      <trkpt lat="49.92009" lon="2.54379">
        <ele>33.9</ele>
        <time>2020-09-30T13:09:04Z</time>
      </trkpt>
      <trkpt lat="49.92011" lon="2.54381">
        <ele>33.8</ele>
        <time>2020-09-30T13:09:06Z</time>
      </trkpt>
      <trkpt lat="49.92013" lon="2.54383">
        <ele>33.7</ele>
        <time>2020-09-30T13:09:07Z</time>
      </trkpt>
      <trkpt lat="49.92013" lon="2.54384">
        <ele>33.7</ele>
        <time>2020-09-30T13:09:08Z</time>
      </trkpt>
      <trkpt lat="49.92014" lon="2.54385">
        <ele>33.6</ele>
        <time>2020-09-30T13:09:09Z</time>
      </trkpt>
      <trkpt lat="49.92015" lon="2.54387">
        <ele>33.5</ele>
        <time>2020-09-30T13:09:10Z</time>
      </trkpt>
      <trkpt lat="49.92015" lon="2.54388">
        <ele>33.5</ele>
        <time>2020-09-30T13:09:11Z</time>
      </trkpt>
      <trkpt lat="49.92016" lon="2.5439">
        <ele>33.4</ele>
        <time>2020-09-30T13:09:12Z</time>
      </trkpt>
      <trkpt lat="49.92017" lon="2.54392">
        <ele>33.4</ele>
        <time>2020-09-30T13:09:13Z</time>
      </trkpt>
      <trkpt lat="49.92018" lon="2.54393">
        <ele>33.3</ele>
        <time>2020-09-30T13:09:15Z</time>
      </trkpt>
      <trkpt lat="49.92019" lon="2.54396">
        <ele>33.2</ele>
        <time>2020-09-30T13:09:16Z</time>
      </trkpt>
      <trkpt lat="49.9202" lon="2.54397">
        <ele>33.1</ele>
        <time>2020-09-30T13:09:17Z</time>
      </trkpt>
      <trkpt lat="49.92021" lon="2.54399">
        <ele>33.1</ele>
        <time>2020-09-30T13:09:18Z</time>
      </trkpt>
      <trkpt lat="49.92022" lon="2.544">
        <ele>33</ele>
        <time>2020-09-30T13:09:19Z</time>
      </trkpt>
      <trkpt lat="49.92023" lon="2.54404">
        <ele>32.9</ele>
        <time>2020-09-30T13:09:20Z</time>
      </trkpt>
      <trkpt lat="49.92023" lon="2.54405">
        <ele>32.9</ele>
        <time>2020-09-30T13:09:21Z</time>
      </trkpt>
      <trkpt lat="49.92023" lon="2.54406">
        <ele>32.8</ele>
        <time>2020-09-30T13:09:22Z</time>
      </trkpt>
      <trkpt lat="49.92024" lon="2.54409">
        <ele>32.7</ele>
        <time>2020-09-30T13:09:23Z</time>
      </trkpt>
      <trkpt lat="49.92025" lon="2.54411">
        <ele>32.6</ele>
        <time>2020-09-30T13:09:24Z</time>
      </trkpt>
      <trkpt lat="49.92025" lon="2.54412">
        <ele>32.6</ele>
        <time>2020-09-30T13:09:25Z</time>
      </trkpt>
      <trkpt lat="49.92025" lon="2.54415">
        <ele>32.5</ele>
        <time>2020-09-30T13:09:27Z</time>
      </trkpt>
      <trkpt lat="49.92026" lon="2.54416">
        <ele>32.4</ele>
        <time>2020-09-30T13:09:28Z</time>
      </trkpt>
      <trkpt lat="49.92026" lon="2.54418">
        <ele>32.4</ele>
        <time>2020-09-30T13:09:29Z</time>
      </trkpt>
      <trkpt lat="49.92027" lon="2.54421">
        <ele>32.2</ele>
        <time>2020-09-30T13:09:30Z</time>
      </trkpt>
      <trkpt lat="49.92027" lon="2.54423">
        <ele>32.2</ele>
        <time>2020-09-30T13:09:32Z</time>
      </trkpt>
      <trkpt lat="49.92027" lon="2.54424">
        <ele>32.1</ele>
        <time>2020-09-30T13:09:33Z</time>
      </trkpt>
      <trkpt lat="49.92027" lon="2.54426">
        <ele>32.1</ele>
        <time>2020-09-30T13:09:34Z</time>
      </trkpt>
      <trkpt lat="49.92028" lon="2.5443">
        <ele>32</ele>
        <time>2020-09-30T13:09:36Z</time>
      </trkpt>
      <trkpt lat="49.92028" lon="2.54432">
        <ele>31.9</ele>
        <time>2020-09-30T13:09:37Z</time>
      </trkpt>
      <trkpt lat="49.92028" lon="2.54433">
        <ele>31.9</ele>
        <time>2020-09-30T13:09:38Z</time>
      </trkpt>
      <trkpt lat="49.92028" lon="2.54435">
        <ele>31.8</ele>
        <time>2020-09-30T13:09:39Z</time>
      </trkpt>
      <trkpt lat="49.92028" lon="2.54439">
        <ele>31.7</ele>
        <time>2020-09-30T13:09:40Z</time>
      </trkpt>
      <trkpt lat="49.92028" lon="2.54441">
        <ele>31.6</ele>
        <time>2020-09-30T13:09:41Z</time>
      </trkpt>
      <trkpt lat="49.92028" lon="2.54443">
        <ele>31.6</ele>
        <time>2020-09-30T13:09:42Z</time>
      </trkpt>
      <trkpt lat="49.92028" lon="2.54445">
        <ele>31.5</ele>
        <time>2020-09-30T13:09:43Z</time>
      </trkpt>
      <trkpt lat="49.92028" lon="2.54449">
        <ele>31.4</ele>
        <time>2020-09-30T13:09:44Z</time>
      </trkpt>
      <trkpt lat="49.92028" lon="2.54451">
        <ele>31.4</ele>
        <time>2020-09-30T13:09:45Z</time>
      </trkpt>
      <trkpt lat="49.92028" lon="2.54453">
        <ele>31.4</ele>
        <time>2020-09-30T13:09:47Z</time>
      </trkpt>
      <trkpt lat="49.92028" lon="2.54454">
        <ele>31.3</ele>
        <time>2020-09-30T13:09:48Z</time>
      </trkpt>
      <trkpt lat="49.92028" lon="2.54456">
        <ele>31.3</ele>
        <time>2020-09-30T13:09:49Z</time>
      </trkpt>
      <trkpt lat="49.92028" lon="2.54461">
        <ele>31.2</ele>
        <time>2020-09-30T13:09:50Z</time>
      </trkpt>
      <trkpt lat="49.92028" lon="2.54463">
        <ele>31.2</ele>
        <time>2020-09-30T13:09:51Z</time>
      </trkpt>
      <trkpt lat="49.92028" lon="2.54464">
        <ele>31.1</ele>
        <time>2020-09-30T13:09:52Z</time>
      </trkpt>
      <trkpt lat="49.92028" lon="2.54466">
        <ele>31.1</ele>
        <time>2020-09-30T13:09:54Z</time>
      </trkpt>
      <trkpt lat="49.92028" lon="2.54467">
        <ele>31.1</ele>
        <time>2020-09-30T13:09:55Z</time>
      </trkpt>
      <trkpt lat="49.92028" lon="2.54471">
        <ele>31.1</ele>
        <time>2020-09-30T13:09:56Z</time>
      </trkpt>
      <trkpt lat="49.92028" lon="2.54474">
        <ele>31</ele>
        <time>2020-09-30T13:09:57Z</time>
      </trkpt>
      <trkpt lat="49.92027" lon="2.54475">
        <ele>31</ele>
        <time>2020-09-30T13:09:58Z</time>
      </trkpt>
      <trkpt lat="49.92027" lon="2.54476">
        <ele>31</ele>
        <time>2020-09-30T13:09:59Z</time>
      </trkpt>
      <trkpt lat="49.92027" lon="2.54479">
        <ele>31</ele>
        <time>2020-09-30T13:10:00Z</time>
      </trkpt>
      <trkpt lat="49.92027" lon="2.54481">
        <ele>31</ele>
        <time>2020-09-30T13:10:01Z</time>
      </trkpt>
      <trkpt lat="49.92026" lon="2.54483">
        <ele>31</ele>
        <time>2020-09-30T13:10:03Z</time>
      </trkpt>
      <trkpt lat="49.92026" lon="2.54486">
        <ele>31</ele>
        <time>2020-09-30T13:10:04Z</time>
      </trkpt>
      <trkpt lat="49.92026" lon="2.5449">
        <ele>31</ele>
        <time>2020-09-30T13:10:06Z</time>
      </trkpt>
      <trkpt lat="49.92025" lon="2.54491">
        <ele>30.9</ele>
        <time>2020-09-30T13:10:07Z</time>
      </trkpt>
      <trkpt lat="49.92025" lon="2.54492">
        <ele>30.9</ele>
        <time>2020-09-30T13:10:08Z</time>
      </trkpt>
      <trkpt lat="49.92024" lon="2.54495">
        <ele>30.9</ele>
        <time>2020-09-30T13:10:09Z</time>
      </trkpt>
      <trkpt lat="49.92024" lon="2.54497">
        <ele>30.9</ele>
        <time>2020-09-30T13:10:11Z</time>
      </trkpt>
      <trkpt lat="49.92023" lon="2.54498">
        <ele>30.9</ele>
        <time>2020-09-30T13:10:12Z</time>
      </trkpt>
      <trkpt lat="49.92023" lon="2.545">
        <ele>30.9</ele>
        <time>2020-09-30T13:10:13Z</time>
      </trkpt>
      <trkpt lat="49.92022" lon="2.54501">
        <ele>30.9</ele>
        <time>2020-09-30T13:10:14Z</time>
      </trkpt>
      <trkpt lat="49.9202" lon="2.54502">
        <ele>30.9</ele>
        <time>2020-09-30T13:10:16Z</time>
      </trkpt>
      <trkpt lat="49.92019" lon="2.54502">
        <ele>30.9</ele>
        <time>2020-09-30T13:10:17Z</time>
      </trkpt>
      <trkpt lat="49.92018" lon="2.54502">
        <ele>30.9</ele>
        <time>2020-09-30T13:10:18Z</time>
      </trkpt>
      <trkpt lat="49.92016" lon="2.54501">
        <ele>30.9</ele>
        <time>2020-09-30T13:10:19Z</time>
      </trkpt>
      <trkpt lat="49.92015" lon="2.54498">
        <ele>30.9</ele>
        <time>2020-09-30T13:10:20Z</time>
      </trkpt>
      <trkpt lat="49.92014" lon="2.54496">
        <ele>31</ele>
        <time>2020-09-30T13:10:21Z</time>
      </trkpt>
      <trkpt lat="49.92014" lon="2.54494">
        <ele>31</ele>
        <time>2020-09-30T13:10:23Z</time>
      </trkpt>
      <trkpt lat="49.92013" lon="2.54492">
        <ele>31</ele>
        <time>2020-09-30T13:10:24Z</time>
      </trkpt>
      <trkpt lat="49.92013" lon="2.54487">
        <ele>31</ele>
        <time>2020-09-30T13:10:25Z</time>
      </trkpt>
      <trkpt lat="49.92012" lon="2.54485">
        <ele>31</ele>
        <time>2020-09-30T13:10:26Z</time>
      </trkpt>
      <trkpt lat="49.92011" lon="2.54481">
        <ele>31</ele>
        <time>2020-09-30T13:10:28Z</time>
      </trkpt>
      <trkpt lat="49.92011" lon="2.5448">
        <ele>31</ele>
        <time>2020-09-30T13:10:29Z</time>
      </trkpt>
      <trkpt lat="49.92011" lon="2.54478">
        <ele>31.1</ele>
        <time>2020-09-30T13:10:30Z</time>
      </trkpt>
      <trkpt lat="49.9201" lon="2.54473">
        <ele>31.1</ele>
        <time>2020-09-30T13:10:31Z</time>
      </trkpt>
      <trkpt lat="49.92009" lon="2.54471">
        <ele>31.1</ele>
        <time>2020-09-30T13:10:33Z</time>
      </trkpt>
      <trkpt lat="49.92009" lon="2.54469">
        <ele>31.1</ele>
        <time>2020-09-30T13:10:34Z</time>
      </trkpt>
      <trkpt lat="49.92008" lon="2.54467">
        <ele>31.1</ele>
        <time>2020-09-30T13:10:35Z</time>
      </trkpt>
      <trkpt lat="49.92008" lon="2.54466">
        <ele>31.2</ele>
        <time>2020-09-30T13:10:36Z</time>
      </trkpt>
      <trkpt lat="49.92008" lon="2.54464">
        <ele>31.2</ele>
        <time>2020-09-30T13:10:37Z</time>
      </trkpt>
      <trkpt lat="49.92007" lon="2.54462">
        <ele>31.2</ele>
        <time>2020-09-30T13:10:38Z</time>
      </trkpt>
      <trkpt lat="49.92007" lon="2.54461">
        <ele>31.2</ele>
        <time>2020-09-30T13:10:39Z</time>
      </trkpt>
      <trkpt lat="49.92007" lon="2.54459">
        <ele>31.2</ele>
        <time>2020-09-30T13:10:40Z</time>
      </trkpt>
      <trkpt lat="49.92006" lon="2.54455">
        <ele>31.3</ele>
        <time>2020-09-30T13:10:41Z</time>
      </trkpt>
      <trkpt lat="49.92006" lon="2.54454">
        <ele>31.3</ele>
        <time>2020-09-30T13:10:42Z</time>
      </trkpt>
      <trkpt lat="49.92006" lon="2.54452">
        <ele>31.3</ele>
        <time>2020-09-30T13:10:44Z</time>
      </trkpt>
      <trkpt lat="49.92005" lon="2.5445">
        <ele>31.3</ele>
        <time>2020-09-30T13:10:45Z</time>
      </trkpt>
      <trkpt lat="49.92005" lon="2.54447">
        <ele>31.3</ele>
        <time>2020-09-30T13:10:46Z</time>
      </trkpt>
      <trkpt lat="49.92005" lon="2.54445">
        <ele>31.3</ele>
        <time>2020-09-30T13:10:47Z</time>
      </trkpt>
      <trkpt lat="49.92005" lon="2.54443">
        <ele>31.4</ele>
        <time>2020-09-30T13:10:48Z</time>
      </trkpt>
      <trkpt lat="49.92004" lon="2.54442">
        <ele>31.4</ele>
        <time>2020-09-30T13:10:49Z</time>
      </trkpt>
      <trkpt lat="49.92004" lon="2.54438">
        <ele>31.4</ele>
        <time>2020-09-30T13:10:51Z</time>
      </trkpt>
      <trkpt lat="49.92003" lon="2.54436">
        <ele>31.4</ele>
        <time>2020-09-30T13:10:52Z</time>
      </trkpt>
      <trkpt lat="49.92003" lon="2.54434">
        <ele>31.4</ele>
        <time>2020-09-30T13:10:53Z</time>
      </trkpt>
      <trkpt lat="49.92003" lon="2.54433">
        <ele>31.4</ele>
        <time>2020-09-30T13:10:54Z</time>
      </trkpt>
      <trkpt lat="49.92002" lon="2.54429">
        <ele>31.5</ele>
        <time>2020-09-30T13:10:56Z</time>
      </trkpt>
      <trkpt lat="49.92002" lon="2.54428">
        <ele>31.5</ele>
        <time>2020-09-30T13:10:57Z</time>
      </trkpt>
      <trkpt lat="49.92002" lon="2.54426">
        <ele>31.5</ele>
        <time>2020-09-30T13:10:58Z</time>
      </trkpt>
      <trkpt lat="49.92001" lon="2.54424">
        <ele>31.5</ele>
        <time>2020-09-30T13:10:59Z</time>
      </trkpt>
      <trkpt lat="49.92001" lon="2.54421">
        <ele>31.5</ele>
        <time>2020-09-30T13:11:01Z</time>
      </trkpt>
      <trkpt lat="49.92001" lon="2.54419">
        <ele>31.5</ele>
        <time>2020-09-30T13:11:02Z</time>
      </trkpt>
      <trkpt lat="49.92001" lon="2.54416">
        <ele>31.5</ele>
        <time>2020-09-30T13:11:03Z</time>
      </trkpt>
      <trkpt lat="49.92" lon="2.54414">
        <ele>31.6</ele>
        <time>2020-09-30T13:11:04Z</time>
      </trkpt>
      <trkpt lat="49.91999" lon="2.54411">
        <ele>31.6</ele>
        <time>2020-09-30T13:11:06Z</time>
      </trkpt>
      <trkpt lat="49.91999" lon="2.54409">
        <ele>31.6</ele>
        <time>2020-09-30T13:11:07Z</time>
      </trkpt>
      <trkpt lat="49.91998" lon="2.54407">
        <ele>31.6</ele>
        <time>2020-09-30T13:11:09Z</time>
      </trkpt>
      <trkpt lat="49.91998" lon="2.54406">
        <ele>31.6</ele>
        <time>2020-09-30T13:11:10Z</time>
      </trkpt>
      <trkpt lat="49.91997" lon="2.54404">
        <ele>31.6</ele>
        <time>2020-09-30T13:11:11Z</time>
      </trkpt>
      <trkpt lat="49.91996" lon="2.54403">
        <ele>31.7</ele>
        <time>2020-09-30T13:11:12Z</time>
      </trkpt>
      <trkpt lat="49.91995" lon="2.54401">
        <ele>31.7</ele>
        <time>2020-09-30T13:11:13Z</time>
      </trkpt>
      <trkpt lat="49.91994" lon="2.544">
        <ele>31.7</ele>
        <time>2020-09-30T13:11:14Z</time>
      </trkpt>
      <trkpt lat="49.91994" lon="2.54398">
        <ele>31.7</ele>
        <time>2020-09-30T13:11:15Z</time>
      </trkpt>
      <trkpt lat="49.91993" lon="2.54394">
        <ele>31.8</ele>
        <time>2020-09-30T13:11:17Z</time>
      </trkpt>
      <trkpt lat="49.91993" lon="2.54393">
        <ele>31.8</ele>
        <time>2020-09-30T13:11:18Z</time>
      </trkpt>
      <trkpt lat="49.91993" lon="2.54392">
        <ele>31.8</ele>
        <time>2020-09-30T13:11:19Z</time>
      </trkpt>
      <trkpt lat="49.91993" lon="2.54391">
        <ele>31.8</ele>
        <time>2020-09-30T13:11:21Z</time>
      </trkpt>
      <trkpt lat="49.91993" lon="2.54391">
        <ele>31.8</ele>
        <time>2020-09-30T13:11:23Z</time>
      </trkpt>
      <trkpt lat="49.91993" lon="2.5439">
        <ele>31.8</ele>
        <time>2020-09-30T13:11:24Z</time>
      </trkpt>
      <trkpt lat="49.91993" lon="2.5439">
        <ele>31.8</ele>
        <time>2020-09-30T13:11:26Z</time>
      </trkpt>
      <trkpt lat="49.91993" lon="2.5439">
        <ele>31.8</ele>
        <time>2020-09-30T13:11:28Z</time>
      </trkpt>
      <trkpt lat="49.91993" lon="2.5439">
        <ele>31.8</ele>
        <time>2020-09-30T13:11:30Z</time>
      </trkpt>
      <trkpt lat="49.91993" lon="2.5439">
        <ele>31.8</ele>
        <time>2020-09-30T13:11:31Z</time>
      </trkpt>
      <trkpt lat="49.91993" lon="2.5439">
        <ele>31.8</ele>
        <time>2020-09-30T13:11:33Z</time>
      </trkpt>
      <trkpt lat="49.91993" lon="2.5439">
        <ele>31.8</ele>
        <time>2020-09-30T13:11:35Z</time>
      </trkpt>
      <trkpt lat="49.91993" lon="2.5439">
        <ele>31.8</ele>
        <time>2020-09-30T13:11:36Z</time>
      </trkpt>
      <trkpt lat="49.91993" lon="2.5439">
        <ele>31.8</ele>
        <time>2020-09-30T13:11:38Z</time>
      </trkpt>
      <trkpt lat="49.91993" lon="2.5439">
        <ele>31.8</ele>
        <time>2020-09-30T13:11:40Z</time>
      </trkpt>
      <trkpt lat="49.91993" lon="2.5439">
        <ele>31.8</ele>
        <time>2020-09-30T13:11:41Z</time>
      </trkpt>
      <trkpt lat="49.91993" lon="2.5439">
        <ele>31.8</ele>
        <time>2020-09-30T13:11:43Z</time>
      </trkpt>
      <trkpt lat="49.91993" lon="2.5439">
        <ele>31.8</ele>
        <time>2020-09-30T13:11:44Z</time>
      </trkpt>
      <trkpt lat="49.91993" lon="2.5439">
        <ele>31.8</ele>
        <time>2020-09-30T13:11:46Z</time>
      </trkpt>
      <trkpt lat="49.91993" lon="2.54389">
        <ele>31.8</ele>
        <time>2020-09-30T13:11:47Z</time>
      </trkpt>
      <trkpt lat="49.91993" lon="2.54389">
        <ele>31.8</ele>
        <time>2020-09-30T13:11:48Z</time>
      </trkpt>
      <trkpt lat="49.91993" lon="2.54389">
        <ele>31.8</ele>
        <time>2020-09-30T13:11:50Z</time>
      </trkpt>
      <trkpt lat="49.91993" lon="2.54389">
        <ele>31.8</ele>
        <time>2020-09-30T13:11:51Z</time>
      </trkpt>
      <trkpt lat="49.91993" lon="2.54389">
        <ele>31.8</ele>
        <time>2020-09-30T13:11:52Z</time>
      </trkpt>
      <trkpt lat="49.91993" lon="2.54389">
        <ele>31.8</ele>
        <time>2020-09-30T13:11:53Z</time>
      </trkpt>
      <trkpt lat="49.91993" lon="2.54389">
        <ele>31.8</ele>
        <time>2020-09-30T13:11:55Z</time>
      </trkpt>
      <trkpt lat="49.91993" lon="2.54389">
        <ele>31.8</ele>
        <time>2020-09-30T13:11:56Z</time>
      </trkpt>
      <trkpt lat="49.91993" lon="2.54389">
        <ele>31.8</ele>
        <time>2020-09-30T13:11:58Z</time>
      </trkpt>
      <trkpt lat="49.91993" lon="2.54389">
        <ele>31.8</ele>
        <time>2020-09-30T13:11:59Z</time>
      </trkpt>
      <trkpt lat="49.91994" lon="2.54389">
        <ele>31.8</ele>
        <time>2020-09-30T13:12:01Z</time>
      </trkpt>
      <trkpt lat="49.91994" lon="2.54389">
        <ele>31.8</ele>
        <time>2020-09-30T13:12:03Z</time>
      </trkpt>
      <trkpt lat="49.91994" lon="2.54389">
        <ele>31.8</ele>
        <time>2020-09-30T13:12:04Z</time>
      </trkpt>
      <trkpt lat="49.91994" lon="2.54389">
        <ele>31.8</ele>
        <time>2020-09-30T13:12:06Z</time>
      </trkpt>
      <trkpt lat="49.91994" lon="2.54388">
        <ele>31.8</ele>
        <time>2020-09-30T13:12:08Z</time>
      </trkpt>
      <trkpt lat="49.91994" lon="2.54388">
        <ele>31.8</ele>
        <time>2020-09-30T13:12:09Z</time>
      </trkpt>
      <trkpt lat="49.91994" lon="2.54388">
        <ele>31.8</ele>
        <time>2020-09-30T13:12:10Z</time>
      </trkpt>
      <trkpt lat="49.91994" lon="2.54388">
        <ele>31.8</ele>
        <time>2020-09-30T13:12:11Z</time>
      </trkpt>
      <trkpt lat="49.91994" lon="2.54388">
        <ele>31.8</ele>
        <time>2020-09-30T13:12:13Z</time>
      </trkpt>
      <trkpt lat="49.91994" lon="2.54388">
        <ele>31.8</ele>
        <time>2020-09-30T13:12:15Z</time>
      </trkpt>
      <trkpt lat="49.91994" lon="2.54388">
        <ele>31.8</ele>
        <time>2020-09-30T13:12:17Z</time>
      </trkpt>
      <trkpt lat="49.91994" lon="2.54388">
        <ele>31.8</ele>
        <time>2020-09-30T13:12:19Z</time>
      </trkpt>
      <trkpt lat="49.91994" lon="2.54388">
        <ele>31.8</ele>
        <time>2020-09-30T13:12:21Z</time>
      </trkpt>
      <trkpt lat="49.91994" lon="2.54388">
        <ele>31.8</ele>
        <time>2020-09-30T13:12:22Z</time>
      </trkpt>
      <trkpt lat="49.91994" lon="2.54388">
        <ele>31.8</ele>
        <time>2020-09-30T13:12:24Z</time>
      </trkpt>
      <trkpt lat="49.91994" lon="2.54388">
        <ele>31.8</ele>
        <time>2020-09-30T13:12:25Z</time>
      </trkpt>
      <trkpt lat="49.91994" lon="2.54388">
        <ele>31.8</ele>
        <time>2020-09-30T13:12:27Z</time>
      </trkpt>
      <trkpt lat="49.91994" lon="2.54387">
        <ele>31.8</ele>
        <time>2020-09-30T13:12:29Z</time>
      </trkpt>
      <trkpt lat="49.91994" lon="2.54387">
        <ele>31.8</ele>
        <time>2020-09-30T13:12:30Z</time>
      </trkpt>
      <trkpt lat="49.91994" lon="2.54387">
        <ele>31.8</ele>
        <time>2020-09-30T13:12:32Z</time>
      </trkpt>
      <trkpt lat="49.91994" lon="2.54387">
        <ele>31.8</ele>
        <time>2020-09-30T13:12:33Z</time>
      </trkpt>
      <trkpt lat="49.91994" lon="2.54387">
        <ele>31.8</ele>
        <time>2020-09-30T13:12:34Z</time>
      </trkpt>
      <trkpt lat="49.91994" lon="2.54387">
        <ele>31.8</ele>
        <time>2020-09-30T13:12:36Z</time>
      </trkpt>
      <trkpt lat="49.91994" lon="2.54387">
        <ele>31.8</ele>
        <time>2020-09-30T13:12:37Z</time>
      </trkpt>
      <trkpt lat="49.91994" lon="2.54387">
        <ele>31.8</ele>
        <time>2020-09-30T13:12:39Z</time>
      </trkpt>
      <trkpt lat="49.91994" lon="2.54387">
        <ele>31.8</ele>
        <time>2020-09-30T13:12:40Z</time>
      </trkpt>
      <trkpt lat="49.91994" lon="2.54387">
        <ele>31.8</ele>
        <time>2020-09-30T13:12:41Z</time>
      </trkpt>
      <trkpt lat="49.91994" lon="2.54387">
        <ele>31.8</ele>
        <time>2020-09-30T13:12:43Z</time>
      </trkpt>
      <trkpt lat="49.91994" lon="2.54387">
        <ele>31.8</ele>
        <time>2020-09-30T13:12:45Z</time>
      </trkpt>
      <trkpt lat="49.91994" lon="2.54387">
        <ele>31.8</ele>
        <time>2020-09-30T13:12:46Z</time>
      </trkpt>
      <trkpt lat="49.91994" lon="2.54387">
        <ele>31.8</ele>
        <time>2020-09-30T13:12:48Z</time>
      </trkpt>
      <trkpt lat="49.91994" lon="2.54386">
        <ele>31.8</ele>
        <time>2020-09-30T13:12:49Z</time>
      </trkpt>
      <trkpt lat="49.91994" lon="2.54386">
        <ele>31.8</ele>
        <time>2020-09-30T13:12:51Z</time>
      </trkpt>
      <trkpt lat="49.91994" lon="2.54386">
        <ele>31.8</ele>
        <time>2020-09-30T13:12:53Z</time>
      </trkpt>
      <trkpt lat="49.91994" lon="2.54386">
        <ele>31.8</ele>
        <time>2020-09-30T13:12:55Z</time>
      </trkpt>
      <trkpt lat="49.91994" lon="2.54386">
        <ele>31.8</ele>
        <time>2020-09-30T13:12:56Z</time>
      </trkpt>
      <trkpt lat="49.91994" lon="2.54386">
        <ele>31.8</ele>
        <time>2020-09-30T13:12:58Z</time>
      </trkpt>
      <trkpt lat="49.91994" lon="2.54386">
        <ele>31.8</ele>
        <time>2020-09-30T13:12:59Z</time>
      </trkpt>
      <trkpt lat="49.91994" lon="2.54386">
        <ele>31.8</ele>
        <time>2020-09-30T13:13:01Z</time>
      </trkpt>
      <trkpt lat="49.91994" lon="2.54386">
        <ele>31.8</ele>
        <time>2020-09-30T13:13:02Z</time>
      </trkpt>
      <trkpt lat="49.91994" lon="2.54386">
        <ele>31.8</ele>
        <time>2020-09-30T13:13:03Z</time>
      </trkpt>
      <trkpt lat="49.91994" lon="2.54386">
        <ele>31.8</ele>
        <time>2020-09-30T13:13:04Z</time>
      </trkpt>
      <trkpt lat="49.91994" lon="2.54386">
        <ele>31.8</ele>
        <time>2020-09-30T13:13:06Z</time>
      </trkpt>
      <trkpt lat="49.91994" lon="2.54386">
        <ele>31.8</ele>
        <time>2020-09-30T13:13:07Z</time>
      </trkpt>
      <trkpt lat="49.91994" lon="2.54386">
        <ele>31.8</ele>
        <time>2020-09-30T13:13:08Z</time>
      </trkpt>
      <trkpt lat="49.91994" lon="2.54385">
        <ele>31.8</ele>
        <time>2020-09-30T13:13:09Z</time>
      </trkpt>
      <trkpt lat="49.91994" lon="2.54385">
        <ele>31.8</ele>
        <time>2020-09-30T13:13:10Z</time>
      </trkpt>
      <trkpt lat="49.91994" lon="2.54385">
        <ele>31.8</ele>
        <time>2020-09-30T13:13:11Z</time>
      </trkpt>
      <trkpt lat="49.91995" lon="2.54384">
        <ele>31.8</ele>
        <time>2020-09-30T13:13:13Z</time>
      </trkpt>
      <trkpt lat="49.91996" lon="2.54383">
        <ele>31.8</ele>
        <time>2020-09-30T13:13:14Z</time>
      </trkpt>
      <trkpt lat="49.91997" lon="2.54382">
        <ele>31.8</ele>
        <time>2020-09-30T13:13:15Z</time>
      </trkpt>
      <trkpt lat="49.91999" lon="2.54381">
        <ele>31.8</ele>
        <time>2020-09-30T13:13:16Z</time>
      </trkpt>
      <trkpt lat="49.92001" lon="2.54377">
        <ele>31.8</ele>
        <time>2020-09-30T13:13:18Z</time>
      </trkpt>
      <trkpt lat="49.92002" lon="2.54376">
        <ele>31.8</ele>
        <time>2020-09-30T13:13:19Z</time>
      </trkpt>
      <trkpt lat="49.92004" lon="2.54374">
        <ele>31.8</ele>
        <time>2020-09-30T13:13:20Z</time>
      </trkpt>
      <trkpt lat="49.92004" lon="2.54373">
        <ele>31.8</ele>
        <time>2020-09-30T13:13:23Z</time>
      </trkpt>
      <trkpt lat="49.92004" lon="2.54372">
        <ele>31.8</ele>
        <time>2020-09-30T13:13:25Z</time>
      </trkpt>
      <trkpt lat="49.92004" lon="2.54372">
        <ele>31.8</ele>
        <time>2020-09-30T13:13:26Z</time>
      </trkpt>
      <trkpt lat="49.92005" lon="2.54371">
        <ele>31.8</ele>
        <time>2020-09-30T13:13:28Z</time>
      </trkpt>
      <trkpt lat="49.92005" lon="2.5437">
        <ele>31.8</ele>
        <time>2020-09-30T13:13:29Z</time>
      </trkpt>
      <trkpt lat="49.92005" lon="2.54369">
        <ele>31.8</ele>
        <time>2020-09-30T13:13:30Z</time>
      </trkpt>
      <trkpt lat="49.92006" lon="2.54368">
        <ele>31.8</ele>
        <time>2020-09-30T13:13:32Z</time>
      </trkpt>
      <trkpt lat="49.92006" lon="2.54367">
        <ele>31.8</ele>
        <time>2020-09-30T13:13:33Z</time>
      </trkpt>
      <trkpt lat="49.92006" lon="2.54367">
        <ele>31.8</ele>
        <time>2020-09-30T13:13:35Z</time>
      </trkpt>
      <trkpt lat="49.92007" lon="2.54366">
        <ele>31.8</ele>
        <time>2020-09-30T13:13:36Z</time>
      </trkpt>
      <trkpt lat="49.92008" lon="2.54363">
        <ele>31.8</ele>
        <time>2020-09-30T13:13:37Z</time>
      </trkpt>
      <trkpt lat="49.92008" lon="2.54362">
        <ele>31.8</ele>
        <time>2020-09-30T13:13:38Z</time>
      </trkpt>
      <trkpt lat="49.9201" lon="2.5436">
        <ele>31.8</ele>
        <time>2020-09-30T13:13:39Z</time>
      </trkpt>
      <trkpt lat="49.92011" lon="2.54359">
        <ele>31.8</ele>
        <time>2020-09-30T13:13:41Z</time>
      </trkpt>
      <trkpt lat="49.92012" lon="2.54358">
        <ele>31.8</ele>
        <time>2020-09-30T13:13:42Z</time>
      </trkpt>
      <trkpt lat="49.92013" lon="2.54357">
        <ele>31.8</ele>
        <time>2020-09-30T13:13:43Z</time>
      </trkpt>
      <trkpt lat="49.92014" lon="2.54355">
        <ele>31.8</ele>
        <time>2020-09-30T13:13:44Z</time>
      </trkpt>
      <trkpt lat="49.92014" lon="2.54354">
        <ele>31.8</ele>
        <time>2020-09-30T13:13:45Z</time>
      </trkpt>
      <trkpt lat="49.92015" lon="2.54353">
        <ele>31.8</ele>
        <time>2020-09-30T13:13:46Z</time>
      </trkpt>
      <trkpt lat="49.92016" lon="2.5435">
        <ele>31.8</ele>
        <time>2020-09-30T13:13:47Z</time>
      </trkpt>
      <trkpt lat="49.92017" lon="2.54349">
        <ele>31.8</ele>
        <time>2020-09-30T13:13:49Z</time>
      </trkpt>
      <trkpt lat="49.92018" lon="2.54349">
        <ele>31.8</ele>
        <time>2020-09-30T13:13:50Z</time>
      </trkpt>
      <trkpt lat="49.92019" lon="2.54346">
        <ele>31.8</ele>
        <time>2020-09-30T13:13:51Z</time>
      </trkpt>
      <trkpt lat="49.9202" lon="2.54344">
        <ele>31.7</ele>
        <time>2020-09-30T13:13:52Z</time>
      </trkpt>
      <trkpt lat="49.92021" lon="2.54342">
        <ele>31.7</ele>
        <time>2020-09-30T13:13:54Z</time>
      </trkpt>
      <trkpt lat="49.92022" lon="2.54341">
        <ele>31.7</ele>
        <time>2020-09-30T13:13:55Z</time>
      </trkpt>
      <trkpt lat="49.92023" lon="2.54339">
        <ele>31.7</ele>
        <time>2020-09-30T13:13:56Z</time>
      </trkpt>
      <trkpt lat="49.92023" lon="2.54336">
        <ele>31.7</ele>
        <time>2020-09-30T13:13:57Z</time>
      </trkpt>
      <trkpt lat="49.92024" lon="2.54335">
        <ele>31.7</ele>
        <time>2020-09-30T13:13:59Z</time>
      </trkpt>
      <trkpt lat="49.92024" lon="2.54334">
        <ele>31.7</ele>
        <time>2020-09-30T13:14:00Z</time>
      </trkpt>
      <trkpt lat="49.92025" lon="2.54333">
        <ele>31.7</ele>
        <time>2020-09-30T13:14:01Z</time>
      </trkpt>
      <trkpt lat="49.92026" lon="2.5433">
        <ele>31.7</ele>
        <time>2020-09-30T13:14:02Z</time>
      </trkpt>
      <trkpt lat="49.92027" lon="2.54328">
        <ele>31.7</ele>
        <time>2020-09-30T13:14:03Z</time>
      </trkpt>
      <trkpt lat="49.92028" lon="2.54327">
        <ele>31.7</ele>
        <time>2020-09-30T13:14:04Z</time>
      </trkpt>
      <trkpt lat="49.92029" lon="2.54325">
        <ele>31.7</ele>
        <time>2020-09-30T13:14:05Z</time>
      </trkpt>
      <trkpt lat="49.92029" lon="2.54324">
        <ele>31.7</ele>
        <time>2020-09-30T13:14:06Z</time>
      </trkpt>
      <trkpt lat="49.92031" lon="2.54321">
        <ele>31.7</ele>
        <time>2020-09-30T13:14:08Z</time>
      </trkpt>
      <trkpt lat="49.92031" lon="2.5432">
        <ele>31.7</ele>
        <time>2020-09-30T13:14:09Z</time>
      </trkpt>
      <trkpt lat="49.92032" lon="2.54319">
        <ele>31.7</ele>
        <time>2020-09-30T13:14:10Z</time>
      </trkpt>
      <trkpt lat="49.92032" lon="2.54318">
        <ele>31.7</ele>
        <time>2020-09-30T13:14:11Z</time>
      </trkpt>
      <trkpt lat="49.92033" lon="2.54316">
        <ele>31.7</ele>
        <time>2020-09-30T13:14:12Z</time>
      </trkpt>
      <trkpt lat="49.92034" lon="2.54315">
        <ele>31.7</ele>
        <time>2020-09-30T13:14:13Z</time>
      </trkpt>
      <trkpt lat="49.92034" lon="2.54313">
        <ele>31.7</ele>
        <time>2020-09-30T13:14:14Z</time>
      </trkpt>
      <trkpt lat="49.92036" lon="2.54311">
        <ele>31.7</ele>
        <time>2020-09-30T13:14:16Z</time>
      </trkpt>
      <trkpt lat="49.92036" lon="2.54309">
        <ele>31.7</ele>
        <time>2020-09-30T13:14:17Z</time>
      </trkpt>
      <trkpt lat="49.92037" lon="2.54308">
        <ele>31.7</ele>
        <time>2020-09-30T13:14:18Z</time>
      </trkpt>
      <trkpt lat="49.92037" lon="2.54307">
        <ele>31.7</ele>
        <time>2020-09-30T13:14:20Z</time>
      </trkpt>
      <trkpt lat="49.92037" lon="2.54305">
        <ele>31.7</ele>
        <time>2020-09-30T13:14:21Z</time>
      </trkpt>
      <trkpt lat="49.92038" lon="2.54303">
        <ele>31.7</ele>
        <time>2020-09-30T13:14:22Z</time>
      </trkpt>
      <trkpt lat="49.92038" lon="2.54302">
        <ele>31.7</ele>
        <time>2020-09-30T13:14:23Z</time>
      </trkpt>
      <trkpt lat="49.92038" lon="2.543">
        <ele>31.7</ele>
        <time>2020-09-30T13:14:24Z</time>
      </trkpt>
      <trkpt lat="49.92039" lon="2.54299">
        <ele>31.7</ele>
        <time>2020-09-30T13:14:25Z</time>
      </trkpt>
      <trkpt lat="49.92039" lon="2.54297">
        <ele>31.7</ele>
        <time>2020-09-30T13:14:26Z</time>
      </trkpt>
      <trkpt lat="49.9204" lon="2.54295">
        <ele>31.7</ele>
        <time>2020-09-30T13:14:27Z</time>
      </trkpt>
      <trkpt lat="49.9204" lon="2.54293">
        <ele>31.7</ele>
        <time>2020-09-30T13:14:28Z</time>
      </trkpt>
      <trkpt lat="49.92041" lon="2.54292">
        <ele>31.7</ele>
        <time>2020-09-30T13:14:29Z</time>
      </trkpt>
      <trkpt lat="49.92042" lon="2.54291">
        <ele>31.7</ele>
        <time>2020-09-30T13:14:31Z</time>
      </trkpt>
      <trkpt lat="49.92044" lon="2.54288">
        <ele>31.7</ele>
        <time>2020-09-30T13:14:32Z</time>
      </trkpt>
      <trkpt lat="49.92045" lon="2.54287">
        <ele>31.7</ele>
        <time>2020-09-30T13:14:34Z</time>
      </trkpt>
      <trkpt lat="49.92047" lon="2.54285">
        <ele>31.7</ele>
        <time>2020-09-30T13:14:35Z</time>
      </trkpt>
      <trkpt lat="49.92048" lon="2.54285">
        <ele>31.7</ele>
        <time>2020-09-30T13:14:36Z</time>
      </trkpt>
      <trkpt lat="49.92049" lon="2.54285">
        <ele>31.7</ele>
        <time>2020-09-30T13:14:37Z</time>
      </trkpt>
      <trkpt lat="49.9205" lon="2.54282">
        <ele>31.7</ele>
        <time>2020-09-30T13:14:38Z</time>
      </trkpt>
      <trkpt lat="49.92051" lon="2.54281">
        <ele>31.7</ele>
        <time>2020-09-30T13:14:40Z</time>
      </trkpt>
      <trkpt lat="49.92051" lon="2.54279">
        <ele>31.7</ele>
        <time>2020-09-30T13:14:41Z</time>
      </trkpt>
      <trkpt lat="49.92051" lon="2.54277">
        <ele>31.7</ele>
        <time>2020-09-30T13:14:42Z</time>
      </trkpt>
      <trkpt lat="49.92051" lon="2.54275">
        <ele>31.7</ele>
        <time>2020-09-30T13:14:44Z</time>
      </trkpt>
      <trkpt lat="49.92052" lon="2.54274">
        <ele>31.7</ele>
        <time>2020-09-30T13:14:45Z</time>
      </trkpt>
      <trkpt lat="49.92052" lon="2.5427">
        <ele>31.7</ele>
        <time>2020-09-30T13:14:46Z</time>
      </trkpt>
      <trkpt lat="49.92052" lon="2.54268">
        <ele>31.7</ele>
        <time>2020-09-30T13:14:47Z</time>
      </trkpt>
      <trkpt lat="49.92052" lon="2.54267">
        <ele>31.7</ele>
        <time>2020-09-30T13:14:48Z</time>
      </trkpt>
      <trkpt lat="49.92053" lon="2.54265">
        <ele>31.7</ele>
        <time>2020-09-30T13:14:49Z</time>
      </trkpt>
      <trkpt lat="49.92053" lon="2.54263">
        <ele>31.7</ele>
        <time>2020-09-30T13:14:50Z</time>
      </trkpt>
      <trkpt lat="49.92053" lon="2.54262">
        <ele>31.7</ele>
        <time>2020-09-30T13:14:51Z</time>
      </trkpt>
      <trkpt lat="49.92055" lon="2.54258">
        <ele>31.7</ele>
        <time>2020-09-30T13:14:53Z</time>
      </trkpt>
      <trkpt lat="49.92055" lon="2.54257">
        <ele>31.7</ele>
        <time>2020-09-30T13:14:54Z</time>
      </trkpt>
      <trkpt lat="49.92056" lon="2.54254">
        <ele>31.7</ele>
        <time>2020-09-30T13:14:55Z</time>
      </trkpt>
      <trkpt lat="49.92056" lon="2.54253">
        <ele>31.7</ele>
        <time>2020-09-30T13:14:56Z</time>
      </trkpt>
      <trkpt lat="49.92056" lon="2.54251">
        <ele>31.7</ele>
        <time>2020-09-30T13:14:57Z</time>
      </trkpt>
      <trkpt lat="49.92057" lon="2.5425">
        <ele>31.7</ele>
        <time>2020-09-30T13:14:58Z</time>
      </trkpt>
      <trkpt lat="49.92057" lon="2.54248">
        <ele>31.7</ele>
        <time>2020-09-30T13:14:59Z</time>
      </trkpt>
      <trkpt lat="49.92057" lon="2.54246">
        <ele>31.7</ele>
        <time>2020-09-30T13:15:00Z</time>
      </trkpt>
      <trkpt lat="49.92058" lon="2.54244">
        <ele>31.7</ele>
        <time>2020-09-30T13:15:01Z</time>
      </trkpt>
      <trkpt lat="49.92059" lon="2.54241">
        <ele>31.7</ele>
        <time>2020-09-30T13:15:02Z</time>
      </trkpt>
      <trkpt lat="49.9206" lon="2.5424">
        <ele>31.7</ele>
        <time>2020-09-30T13:15:04Z</time>
      </trkpt>
      <trkpt lat="49.9206" lon="2.54239">
        <ele>31.7</ele>
        <time>2020-09-30T13:15:05Z</time>
      </trkpt>
      <trkpt lat="49.92061" lon="2.54237">
        <ele>31.7</ele>
        <time>2020-09-30T13:15:06Z</time>
      </trkpt>
      <trkpt lat="49.92062" lon="2.54236">
        <ele>31.7</ele>
        <time>2020-09-30T13:15:07Z</time>
      </trkpt>
      <trkpt lat="49.92063" lon="2.54235">
        <ele>31.7</ele>
        <time>2020-09-30T13:15:08Z</time>
      </trkpt>
      <trkpt lat="49.92064" lon="2.54234">
        <ele>31.7</ele>
        <time>2020-09-30T13:15:09Z</time>
      </trkpt>
      <trkpt lat="49.92066" lon="2.54234">
        <ele>31.7</ele>
        <time>2020-09-30T13:15:10Z</time>
      </trkpt>
      <trkpt lat="49.92066" lon="2.54233">
        <ele>31.7</ele>
        <time>2020-09-30T13:15:11Z</time>
      </trkpt>
      <trkpt lat="49.92068" lon="2.54231">
        <ele>31.7</ele>
        <time>2020-09-30T13:15:12Z</time>
      </trkpt>
      <trkpt lat="49.92068" lon="2.54229">
        <ele>31.7</ele>
        <time>2020-09-30T13:15:14Z</time>
      </trkpt>
      <trkpt lat="49.92068" lon="2.54228">
        <ele>31.7</ele>
        <time>2020-09-30T13:15:15Z</time>
      </trkpt>
      <trkpt lat="49.92067" lon="2.54225">
        <ele>31.7</ele>
        <time>2020-09-30T13:15:16Z</time>
      </trkpt>
      <trkpt lat="49.92067" lon="2.54224">
        <ele>31.7</ele>
        <time>2020-09-30T13:15:17Z</time>
      </trkpt>
      <trkpt lat="49.92067" lon="2.54223">
        <ele>31.7</ele>
        <time>2020-09-30T13:15:18Z</time>
      </trkpt>
      <trkpt lat="49.92067" lon="2.54221">
        <ele>31.7</ele>
        <time>2020-09-30T13:15:19Z</time>
      </trkpt>
      <trkpt lat="49.92067" lon="2.5422">
        <ele>31.7</ele>
        <time>2020-09-30T13:15:20Z</time>
      </trkpt>
      <trkpt lat="49.92068" lon="2.54219">
        <ele>31.7</ele>
        <time>2020-09-30T13:15:21Z</time>
      </trkpt>
      <trkpt lat="49.92068" lon="2.54215">
        <ele>31.7</ele>
        <time>2020-09-30T13:15:22Z</time>
      </trkpt>
      <trkpt lat="49.92069" lon="2.54214">
        <ele>31.7</ele>
        <time>2020-09-30T13:15:24Z</time>
      </trkpt>
      <trkpt lat="49.92069" lon="2.54213">
        <ele>31.7</ele>
        <time>2020-09-30T13:15:25Z</time>
      </trkpt>
      <trkpt lat="49.92069" lon="2.5421">
        <ele>31.7</ele>
        <time>2020-09-30T13:15:26Z</time>
      </trkpt>
      <trkpt lat="49.9207" lon="2.54208">
        <ele>31.7</ele>
        <time>2020-09-30T13:15:27Z</time>
      </trkpt>
      <trkpt lat="49.9207" lon="2.54207">
        <ele>31.7</ele>
        <time>2020-09-30T13:15:28Z</time>
      </trkpt>
      <trkpt lat="49.92071" lon="2.54206">
        <ele>31.7</ele>
        <time>2020-09-30T13:15:29Z</time>
      </trkpt>
      <trkpt lat="49.92071" lon="2.54204">
        <ele>31.7</ele>
        <time>2020-09-30T13:15:30Z</time>
      </trkpt>
      <trkpt lat="49.92072" lon="2.54202">
        <ele>31.7</ele>
        <time>2020-09-30T13:15:31Z</time>
      </trkpt>
      <trkpt lat="49.92073" lon="2.542">
        <ele>31.7</ele>
        <time>2020-09-30T13:15:32Z</time>
      </trkpt>
      <trkpt lat="49.92073" lon="2.54199">
        <ele>31.7</ele>
        <time>2020-09-30T13:15:34Z</time>
      </trkpt>
      <trkpt lat="49.92074" lon="2.54197">
        <ele>31.7</ele>
        <time>2020-09-30T13:15:35Z</time>
      </trkpt>
      <trkpt lat="49.92074" lon="2.54196">
        <ele>31.7</ele>
        <time>2020-09-30T13:15:36Z</time>
      </trkpt>
      <trkpt lat="49.92075" lon="2.54194">
        <ele>31.7</ele>
        <time>2020-09-30T13:15:37Z</time>
      </trkpt>
      <trkpt lat="49.92075" lon="2.54192">
        <ele>31.7</ele>
        <time>2020-09-30T13:15:38Z</time>
      </trkpt>
      <trkpt lat="49.92076" lon="2.54191">
        <ele>31.7</ele>
        <time>2020-09-30T13:15:39Z</time>
      </trkpt>
      <trkpt lat="49.92076" lon="2.5419">
        <ele>31.7</ele>
        <time>2020-09-30T13:15:40Z</time>
      </trkpt>
      <trkpt lat="49.92077" lon="2.54188">
        <ele>31.7</ele>
        <time>2020-09-30T13:15:41Z</time>
      </trkpt>
      <trkpt lat="49.92077" lon="2.54186">
        <ele>31.7</ele>
        <time>2020-09-30T13:15:42Z</time>
      </trkpt>
      <trkpt lat="49.92078" lon="2.54185">
        <ele>31.7</ele>
        <time>2020-09-30T13:15:44Z</time>
      </trkpt>
      <trkpt lat="49.92079" lon="2.54183">
        <ele>31.7</ele>
        <time>2020-09-30T13:15:45Z</time>
      </trkpt>
      <trkpt lat="49.92079" lon="2.54182">
        <ele>31.7</ele>
        <time>2020-09-30T13:15:46Z</time>
      </trkpt>
      <trkpt lat="49.9208" lon="2.5418">
        <ele>31.7</ele>
        <time>2020-09-30T13:15:47Z</time>
      </trkpt>
      <trkpt lat="49.92081" lon="2.54178">
        <ele>31.7</ele>
        <time>2020-09-30T13:15:48Z</time>
      </trkpt>
      <trkpt lat="49.92082" lon="2.54177">
        <ele>31.7</ele>
        <time>2020-09-30T13:15:50Z</time>
      </trkpt>
      <trkpt lat="49.92082" lon="2.54175">
        <ele>31.7</ele>
        <time>2020-09-30T13:15:51Z</time>
      </trkpt>
      <trkpt lat="49.92083" lon="2.54174">
        <ele>31.7</ele>
        <time>2020-09-30T13:15:52Z</time>
      </trkpt>
      <trkpt lat="49.92084" lon="2.54171">
        <ele>31.7</ele>
        <time>2020-09-30T13:15:53Z</time>
      </trkpt>
      <trkpt lat="49.92084" lon="2.5417">
        <ele>31.7</ele>
        <time>2020-09-30T13:15:54Z</time>
      </trkpt>
      <trkpt lat="49.92085" lon="2.54169">
        <ele>31.6</ele>
        <time>2020-09-30T13:15:55Z</time>
      </trkpt>
      <trkpt lat="49.92085" lon="2.54168">
        <ele>31.6</ele>
        <time>2020-09-30T13:15:56Z</time>
      </trkpt>
      <trkpt lat="49.92086" lon="2.54166">
        <ele>31.6</ele>
        <time>2020-09-30T13:15:57Z</time>
      </trkpt>
      <trkpt lat="49.92087" lon="2.54164">
        <ele>31.6</ele>
        <time>2020-09-30T13:15:59Z</time>
      </trkpt>
      <trkpt lat="49.92087" lon="2.54163">
        <ele>31.6</ele>
        <time>2020-09-30T13:16:00Z</time>
      </trkpt>
      <trkpt lat="49.92088" lon="2.54162">
        <ele>31.6</ele>
        <time>2020-09-30T13:16:01Z</time>
      </trkpt>
      <trkpt lat="49.92089" lon="2.5416">
        <ele>31.6</ele>
        <time>2020-09-30T13:16:02Z</time>
      </trkpt>
      <trkpt lat="49.9209" lon="2.54159">
        <ele>31.6</ele>
        <time>2020-09-30T13:16:03Z</time>
      </trkpt>
      <trkpt lat="49.92092" lon="2.54157">
        <ele>31.6</ele>
        <time>2020-09-30T13:16:05Z</time>
      </trkpt>
      <trkpt lat="49.92092" lon="2.54156">
        <ele>31.6</ele>
        <time>2020-09-30T13:16:06Z</time>
      </trkpt>
      <trkpt lat="49.92093" lon="2.54155">
        <ele>31.6</ele>
        <time>2020-09-30T13:16:07Z</time>
      </trkpt>
      <trkpt lat="49.92094" lon="2.54153">
        <ele>31.6</ele>
        <time>2020-09-30T13:16:08Z</time>
      </trkpt>
      <trkpt lat="49.92095" lon="2.54152">
        <ele>31.6</ele>
        <time>2020-09-30T13:16:10Z</time>
      </trkpt>
      <trkpt lat="49.92096" lon="2.5415">
        <ele>31.6</ele>
        <time>2020-09-30T13:16:11Z</time>
      </trkpt>
      <trkpt lat="49.92097" lon="2.54148">
        <ele>31.7</ele>
        <time>2020-09-30T13:16:12Z</time>
      </trkpt>
      <trkpt lat="49.92098" lon="2.54146">
        <ele>31.7</ele>
        <time>2020-09-30T13:16:13Z</time>
      </trkpt>
      <trkpt lat="49.92099" lon="2.54145">
        <ele>31.7</ele>
        <time>2020-09-30T13:16:14Z</time>
      </trkpt>
      <trkpt lat="49.92101" lon="2.54143">
        <ele>31.7</ele>
        <time>2020-09-30T13:16:15Z</time>
      </trkpt>
      <trkpt lat="49.92101" lon="2.54142">
        <ele>31.7</ele>
        <time>2020-09-30T13:16:16Z</time>
      </trkpt>
      <trkpt lat="49.92102" lon="2.54141">
        <ele>31.7</ele>
        <time>2020-09-30T13:16:17Z</time>
      </trkpt>
      <trkpt lat="49.92103" lon="2.54139">
        <ele>31.7</ele>
        <time>2020-09-30T13:16:18Z</time>
      </trkpt>
      <trkpt lat="49.92104" lon="2.54138">
        <ele>31.7</ele>
        <time>2020-09-30T13:16:19Z</time>
      </trkpt>
      <trkpt lat="49.92105" lon="2.54135">
        <ele>31.7</ele>
        <time>2020-09-30T13:16:20Z</time>
      </trkpt>
      <trkpt lat="49.92106" lon="2.54134">
        <ele>31.7</ele>
        <time>2020-09-30T13:16:22Z</time>
      </trkpt>
      <trkpt lat="49.92106" lon="2.54133">
        <ele>31.7</ele>
        <time>2020-09-30T13:16:23Z</time>
      </trkpt>
      <trkpt lat="49.92107" lon="2.5413">
        <ele>31.7</ele>
        <time>2020-09-30T13:16:24Z</time>
      </trkpt>
      <trkpt lat="49.92108" lon="2.54128">
        <ele>31.7</ele>
        <time>2020-09-30T13:16:25Z</time>
      </trkpt>
      <trkpt lat="49.92108" lon="2.54127">
        <ele>31.7</ele>
        <time>2020-09-30T13:16:26Z</time>
      </trkpt>
      <trkpt lat="49.92109" lon="2.54126">
        <ele>31.7</ele>
        <time>2020-09-30T13:16:27Z</time>
      </trkpt>
      <trkpt lat="49.9211" lon="2.54123">
        <ele>31.7</ele>
        <time>2020-09-30T13:16:28Z</time>
      </trkpt>
      <trkpt lat="49.9211" lon="2.54122">
        <ele>31.7</ele>
        <time>2020-09-30T13:16:29Z</time>
      </trkpt>
      <trkpt lat="49.92111" lon="2.5412">
        <ele>31.7</ele>
        <time>2020-09-30T13:16:30Z</time>
      </trkpt>
      <trkpt lat="49.92111" lon="2.54118">
        <ele>31.7</ele>
        <time>2020-09-30T13:16:31Z</time>
      </trkpt>
      <trkpt lat="49.92112" lon="2.54116">
        <ele>31.7</ele>
        <time>2020-09-30T13:16:32Z</time>
      </trkpt>
      <trkpt lat="49.92113" lon="2.54114">
        <ele>31.7</ele>
        <time>2020-09-30T13:16:34Z</time>
      </trkpt>
      <trkpt lat="49.92113" lon="2.54112">
        <ele>31.7</ele>
        <time>2020-09-30T13:16:35Z</time>
      </trkpt>
      <trkpt lat="49.92114" lon="2.54111">
        <ele>31.7</ele>
        <time>2020-09-30T13:16:36Z</time>
      </trkpt>
      <trkpt lat="49.92114" lon="2.54109">
        <ele>31.7</ele>
        <time>2020-09-30T13:16:37Z</time>
      </trkpt>
      <trkpt lat="49.92116" lon="2.54104">
        <ele>31.7</ele>
        <time>2020-09-30T13:16:38Z</time>
      </trkpt>
      <trkpt lat="49.92117" lon="2.54102">
        <ele>31.7</ele>
        <time>2020-09-30T13:16:40Z</time>
      </trkpt>
      <trkpt lat="49.92117" lon="2.54101">
        <ele>31.7</ele>
        <time>2020-09-30T13:16:41Z</time>
      </trkpt>
      <trkpt lat="49.92118" lon="2.54099">
        <ele>31.7</ele>
        <time>2020-09-30T13:16:42Z</time>
      </trkpt>
      <trkpt lat="49.92119" lon="2.54097">
        <ele>31.7</ele>
        <time>2020-09-30T13:16:43Z</time>
      </trkpt>
      <trkpt lat="49.9212" lon="2.54095">
        <ele>31.7</ele>
        <time>2020-09-30T13:16:45Z</time>
      </trkpt>
      <trkpt lat="49.9212" lon="2.54093">
        <ele>31.7</ele>
        <time>2020-09-30T13:16:46Z</time>
      </trkpt>
      <trkpt lat="49.92121" lon="2.54092">
        <ele>31.7</ele>
        <time>2020-09-30T13:16:47Z</time>
      </trkpt>
      <trkpt lat="49.92122" lon="2.54089">
        <ele>31.7</ele>
        <time>2020-09-30T13:16:48Z</time>
      </trkpt>
      <trkpt lat="49.92122" lon="2.54088">
        <ele>31.7</ele>
        <time>2020-09-30T13:16:49Z</time>
      </trkpt>
      <trkpt lat="49.92123" lon="2.54086">
        <ele>31.7</ele>
        <time>2020-09-30T13:16:50Z</time>
      </trkpt>
      <trkpt lat="49.92123" lon="2.54085">
        <ele>31.7</ele>
        <time>2020-09-30T13:16:52Z</time>
      </trkpt>
      <trkpt lat="49.92124" lon="2.54083">
        <ele>31.7</ele>
        <time>2020-09-30T13:16:53Z</time>
      </trkpt>
      <trkpt lat="49.92125" lon="2.5408">
        <ele>31.6</ele>
        <time>2020-09-30T13:16:54Z</time>
      </trkpt>
      <trkpt lat="49.92125" lon="2.54079">
        <ele>31.6</ele>
        <time>2020-09-30T13:16:55Z</time>
      </trkpt>
      <trkpt lat="49.92127" lon="2.54076">
        <ele>31.6</ele>
        <time>2020-09-30T13:16:56Z</time>
      </trkpt>
      <trkpt lat="49.92127" lon="2.54075">
        <ele>31.6</ele>
        <time>2020-09-30T13:16:58Z</time>
      </trkpt>
      <trkpt lat="49.92128" lon="2.54073">
        <ele>31.6</ele>
        <time>2020-09-30T13:16:59Z</time>
      </trkpt>
      <trkpt lat="49.92129" lon="2.54071">
        <ele>31.6</ele>
        <time>2020-09-30T13:17:00Z</time>
      </trkpt>
      <trkpt lat="49.92129" lon="2.5407">
        <ele>31.6</ele>
        <time>2020-09-30T13:17:01Z</time>
      </trkpt>
      <trkpt lat="49.9213" lon="2.54068">
        <ele>31.6</ele>
        <time>2020-09-30T13:17:02Z</time>
      </trkpt>
      <trkpt lat="49.92131" lon="2.54065">
        <ele>31.6</ele>
        <time>2020-09-30T13:17:03Z</time>
      </trkpt>
      <trkpt lat="49.92131" lon="2.54064">
        <ele>31.6</ele>
        <time>2020-09-30T13:17:05Z</time>
      </trkpt>
      <trkpt lat="49.92131" lon="2.54063">
        <ele>31.6</ele>
        <time>2020-09-30T13:17:06Z</time>
      </trkpt>
      <trkpt lat="49.92132" lon="2.54062">
        <ele>31.6</ele>
        <time>2020-09-30T13:17:07Z</time>
      </trkpt>
      <trkpt lat="49.92133" lon="2.5406">
        <ele>31.6</ele>
        <time>2020-09-30T13:17:08Z</time>
      </trkpt>
      <trkpt lat="49.92134" lon="2.54058">
        <ele>31.6</ele>
        <time>2020-09-30T13:17:09Z</time>
      </trkpt>
      <trkpt lat="49.92134" lon="2.54055">
        <ele>31.6</ele>
        <time>2020-09-30T13:17:10Z</time>
      </trkpt>
      <trkpt lat="49.92135" lon="2.54053">
        <ele>31.6</ele>
        <time>2020-09-30T13:17:12Z</time>
      </trkpt>
      <trkpt lat="49.92136" lon="2.54051">
        <ele>31.6</ele>
        <time>2020-09-30T13:17:13Z</time>
      </trkpt>
      <trkpt lat="49.92137" lon="2.54047">
        <ele>31.6</ele>
        <time>2020-09-30T13:17:14Z</time>
      </trkpt>
      <trkpt lat="49.92137" lon="2.54045">
        <ele>31.6</ele>
        <time>2020-09-30T13:17:15Z</time>
      </trkpt>
      <trkpt lat="49.92138" lon="2.54043">
        <ele>31.7</ele>
        <time>2020-09-30T13:17:16Z</time>
      </trkpt>
      <trkpt lat="49.92139" lon="2.54041">
        <ele>31.7</ele>
        <time>2020-09-30T13:17:18Z</time>
      </trkpt>
      <trkpt lat="49.9214" lon="2.54038">
        <ele>31.7</ele>
        <time>2020-09-30T13:17:19Z</time>
      </trkpt>
      <trkpt lat="49.9214" lon="2.54037">
        <ele>31.7</ele>
        <time>2020-09-30T13:17:20Z</time>
      </trkpt>
      <trkpt lat="49.92141" lon="2.54036">
        <ele>31.7</ele>
        <time>2020-09-30T13:17:21Z</time>
      </trkpt>
      <trkpt lat="49.92142" lon="2.54034">
        <ele>31.7</ele>
        <time>2020-09-30T13:17:22Z</time>
      </trkpt>
      <trkpt lat="49.92143" lon="2.54033">
        <ele>31.7</ele>
        <time>2020-09-30T13:17:23Z</time>
      </trkpt>
      <trkpt lat="49.92143" lon="2.5403">
        <ele>31.7</ele>
        <time>2020-09-30T13:17:24Z</time>
      </trkpt>
      <trkpt lat="49.92145" lon="2.54027">
        <ele>31.7</ele>
        <time>2020-09-30T13:17:26Z</time>
      </trkpt>
      <trkpt lat="49.92145" lon="2.54026">
        <ele>31.7</ele>
        <time>2020-09-30T13:17:27Z</time>
      </trkpt>
      <trkpt lat="49.92145" lon="2.54025">
        <ele>31.7</ele>
        <time>2020-09-30T13:17:28Z</time>
      </trkpt>
      <trkpt lat="49.92146" lon="2.54022">
        <ele>31.7</ele>
        <time>2020-09-30T13:17:30Z</time>
      </trkpt>
      <trkpt lat="49.92147" lon="2.54021">
        <ele>31.7</ele>
        <time>2020-09-30T13:17:32Z</time>
      </trkpt>
      <trkpt lat="49.92147" lon="2.5402">
        <ele>31.7</ele>
        <time>2020-09-30T13:17:34Z</time>
      </trkpt>
      <trkpt lat="49.92147" lon="2.5402">
        <ele>31.7</ele>
        <time>2020-09-30T13:17:35Z</time>
      </trkpt>
      <trkpt lat="49.92147" lon="2.5402">
        <ele>31.7</ele>
        <time>2020-09-30T13:17:36Z</time>
      </trkpt>
      <trkpt lat="49.92148" lon="2.5402">
        <ele>31.7</ele>
        <time>2020-09-30T13:17:37Z</time>
      </trkpt>
      <trkpt lat="49.92148" lon="2.5402">
        <ele>31.7</ele>
        <time>2020-09-30T13:17:40Z</time>
      </trkpt>
      <trkpt lat="49.92147" lon="2.54019">
        <ele>31.7</ele>
        <time>2020-09-30T13:17:41Z</time>
      </trkpt>
      <trkpt lat="49.92147" lon="2.5402">
        <ele>31.7</ele>
        <time>2020-09-30T13:17:42Z</time>
      </trkpt>
      <trkpt lat="49.92147" lon="2.5402">
        <ele>31.7</ele>
        <time>2020-09-30T13:17:44Z</time>
      </trkpt>
      <trkpt lat="49.92147" lon="2.5402">
        <ele>31.7</ele>
        <time>2020-09-30T13:17:45Z</time>
      </trkpt>
      <trkpt lat="49.92147" lon="2.5402">
        <ele>31.7</ele>
        <time>2020-09-30T13:17:47Z</time>
      </trkpt>
      <trkpt lat="49.92148" lon="2.5402">
        <ele>31.7</ele>
        <time>2020-09-30T13:17:50Z</time>
      </trkpt>
      <trkpt lat="49.92148" lon="2.5402">
        <ele>31.7</ele>
        <time>2020-09-30T13:17:51Z</time>
      </trkpt>
      <trkpt lat="49.92148" lon="2.5402">
        <ele>31.7</ele>
        <time>2020-09-30T13:17:52Z</time>
      </trkpt>
      <trkpt lat="49.92148" lon="2.5402">
        <ele>31.7</ele>
        <time>2020-09-30T13:17:54Z</time>
      </trkpt>
      <trkpt lat="49.92147" lon="2.5402">
        <ele>31.7</ele>
        <time>2020-09-30T13:17:55Z</time>
      </trkpt>
      <trkpt lat="49.92147" lon="2.54021">
        <ele>31.7</ele>
        <time>2020-09-30T13:17:56Z</time>
      </trkpt>
      <trkpt lat="49.92148" lon="2.54019">
        <ele>31.7</ele>
        <time>2020-09-30T13:17:57Z</time>
      </trkpt>
      <trkpt lat="49.92148" lon="2.54017">
        <ele>31.7</ele>
        <time>2020-09-30T13:17:58Z</time>
      </trkpt>
      <trkpt lat="49.92149" lon="2.54015">
        <ele>31.7</ele>
        <time>2020-09-30T13:18:00Z</time>
      </trkpt>
      <trkpt lat="49.9215" lon="2.54012">
        <ele>31.7</ele>
        <time>2020-09-30T13:18:01Z</time>
      </trkpt>
      <trkpt lat="49.9215" lon="2.54011">
        <ele>31.7</ele>
        <time>2020-09-30T13:18:02Z</time>
      </trkpt>
      <trkpt lat="49.9215" lon="2.5401">
        <ele>31.7</ele>
        <time>2020-09-30T13:18:03Z</time>
      </trkpt>
      <trkpt lat="49.92151" lon="2.54007">
        <ele>31.7</ele>
        <time>2020-09-30T13:18:04Z</time>
      </trkpt>
      <trkpt lat="49.92151" lon="2.54005">
        <ele>31.7</ele>
        <time>2020-09-30T13:18:05Z</time>
      </trkpt>
      <trkpt lat="49.92152" lon="2.54003">
        <ele>31.7</ele>
        <time>2020-09-30T13:18:06Z</time>
      </trkpt>
      <trkpt lat="49.92152" lon="2.54002">
        <ele>31.7</ele>
        <time>2020-09-30T13:18:07Z</time>
      </trkpt>
      <trkpt lat="49.92152" lon="2.54001">
        <ele>31.7</ele>
        <time>2020-09-30T13:18:08Z</time>
      </trkpt>
      <trkpt lat="49.92154" lon="2.53997">
        <ele>31.7</ele>
        <time>2020-09-30T13:18:09Z</time>
      </trkpt>
      <trkpt lat="49.92155" lon="2.53996">
        <ele>31.7</ele>
        <time>2020-09-30T13:18:11Z</time>
      </trkpt>
      <trkpt lat="49.92156" lon="2.53995">
        <ele>31.7</ele>
        <time>2020-09-30T13:18:12Z</time>
      </trkpt>
      <trkpt lat="49.92156" lon="2.53994">
        <ele>31.7</ele>
        <time>2020-09-30T13:18:13Z</time>
      </trkpt>
      <trkpt lat="49.92157" lon="2.53993">
        <ele>31.7</ele>
        <time>2020-09-30T13:18:14Z</time>
      </trkpt>
      <trkpt lat="49.92158" lon="2.53992">
        <ele>31.7</ele>
        <time>2020-09-30T13:18:15Z</time>
      </trkpt>
      <trkpt lat="49.92159" lon="2.53991">
        <ele>31.7</ele>
        <time>2020-09-30T13:18:16Z</time>
      </trkpt>
      <trkpt lat="49.92159" lon="2.53989">
        <ele>31.7</ele>
        <time>2020-09-30T13:18:18Z</time>
      </trkpt>
      <trkpt lat="49.9216" lon="2.53988">
        <ele>31.7</ele>
        <time>2020-09-30T13:18:19Z</time>
      </trkpt>
      <trkpt lat="49.92161" lon="2.53986">
        <ele>31.7</ele>
        <time>2020-09-30T13:18:20Z</time>
      </trkpt>
      <trkpt lat="49.92162" lon="2.53984">
        <ele>31.7</ele>
        <time>2020-09-30T13:18:21Z</time>
      </trkpt>
      <trkpt lat="49.92162" lon="2.53982">
        <ele>31.7</ele>
        <time>2020-09-30T13:18:22Z</time>
      </trkpt>
      <trkpt lat="49.92163" lon="2.53979">
        <ele>31.7</ele>
        <time>2020-09-30T13:18:23Z</time>
      </trkpt>
      <trkpt lat="49.92164" lon="2.53977">
        <ele>31.7</ele>
        <time>2020-09-30T13:18:25Z</time>
      </trkpt>
      <trkpt lat="49.92164" lon="2.53976">
        <ele>31.7</ele>
        <time>2020-09-30T13:18:26Z</time>
      </trkpt>
      <trkpt lat="49.92164" lon="2.53974">
        <ele>31.7</ele>
        <time>2020-09-30T13:18:27Z</time>
      </trkpt>
      <trkpt lat="49.92164" lon="2.53972">
        <ele>31.7</ele>
        <time>2020-09-30T13:18:28Z</time>
      </trkpt>
      <trkpt lat="49.92165" lon="2.53969">
        <ele>31.7</ele>
        <time>2020-09-30T13:18:29Z</time>
      </trkpt>
      <trkpt lat="49.92165" lon="2.53967">
        <ele>31.7</ele>
        <time>2020-09-30T13:18:30Z</time>
      </trkpt>
      <trkpt lat="49.92166" lon="2.53964">
        <ele>31.7</ele>
        <time>2020-09-30T13:18:31Z</time>
      </trkpt>
      <trkpt lat="49.92166" lon="2.53962">
        <ele>31.7</ele>
        <time>2020-09-30T13:18:33Z</time>
      </trkpt>
      <trkpt lat="49.92167" lon="2.53961">
        <ele>31.7</ele>
        <time>2020-09-30T13:18:34Z</time>
      </trkpt>
      <trkpt lat="49.92168" lon="2.53959">
        <ele>31.7</ele>
        <time>2020-09-30T13:18:36Z</time>
      </trkpt>
      <trkpt lat="49.92168" lon="2.53958">
        <ele>31.7</ele>
        <time>2020-09-30T13:18:37Z</time>
      </trkpt>
      <trkpt lat="49.92169" lon="2.53957">
        <ele>31.7</ele>
        <time>2020-09-30T13:18:38Z</time>
      </trkpt>
      <trkpt lat="49.92169" lon="2.53956">
        <ele>31.7</ele>
        <time>2020-09-30T13:18:39Z</time>
      </trkpt>
      <trkpt lat="49.9217" lon="2.53953">
        <ele>31.7</ele>
        <time>2020-09-30T13:18:40Z</time>
      </trkpt>
      <trkpt lat="49.92171" lon="2.53952">
        <ele>31.7</ele>
        <time>2020-09-30T13:18:41Z</time>
      </trkpt>
      <trkpt lat="49.92172" lon="2.53949">
        <ele>31.7</ele>
        <time>2020-09-30T13:18:42Z</time>
      </trkpt>
      <trkpt lat="49.92173" lon="2.53948">
        <ele>31.7</ele>
        <time>2020-09-30T13:18:44Z</time>
      </trkpt>
      <trkpt lat="49.92174" lon="2.53946">
        <ele>31.7</ele>
        <time>2020-09-30T13:18:45Z</time>
      </trkpt>
      <trkpt lat="49.92174" lon="2.53945">
        <ele>31.7</ele>
        <time>2020-09-30T13:18:46Z</time>
      </trkpt>
      <trkpt lat="49.92175" lon="2.53943">
        <ele>31.7</ele>
        <time>2020-09-30T13:18:47Z</time>
      </trkpt>
      <trkpt lat="49.92176" lon="2.53942">
        <ele>31.7</ele>
        <time>2020-09-30T13:18:48Z</time>
      </trkpt>
      <trkpt lat="49.92177" lon="2.53939">
        <ele>31.7</ele>
        <time>2020-09-30T13:18:49Z</time>
      </trkpt>
      <trkpt lat="49.92177" lon="2.53937">
        <ele>31.7</ele>
        <time>2020-09-30T13:18:50Z</time>
      </trkpt>
      <trkpt lat="49.92177" lon="2.53936">
        <ele>31.7</ele>
        <time>2020-09-30T13:18:51Z</time>
      </trkpt>
      <trkpt lat="49.92178" lon="2.53934">
        <ele>31.7</ele>
        <time>2020-09-30T13:18:52Z</time>
      </trkpt>
      <trkpt lat="49.92178" lon="2.53933">
        <ele>31.7</ele>
        <time>2020-09-30T13:18:53Z</time>
      </trkpt>
      <trkpt lat="49.92179" lon="2.5393">
        <ele>31.7</ele>
        <time>2020-09-30T13:18:54Z</time>
      </trkpt>
      <trkpt lat="49.9218" lon="2.53929">
        <ele>31.7</ele>
        <time>2020-09-30T13:18:55Z</time>
      </trkpt>
      <trkpt lat="49.92181" lon="2.53926">
        <ele>31.7</ele>
        <time>2020-09-30T13:18:57Z</time>
      </trkpt>
      <trkpt lat="49.92181" lon="2.53924">
        <ele>31.7</ele>
        <time>2020-09-30T13:18:58Z</time>
      </trkpt>
      <trkpt lat="49.92182" lon="2.53922">
        <ele>31.7</ele>
        <time>2020-09-30T13:18:59Z</time>
      </trkpt>
      <trkpt lat="49.92183" lon="2.53919">
        <ele>31.7</ele>
        <time>2020-09-30T13:19:01Z</time>
      </trkpt>
      <trkpt lat="49.92183" lon="2.53917">
        <ele>31.7</ele>
        <time>2020-09-30T13:19:02Z</time>
      </trkpt>
      <trkpt lat="49.92184" lon="2.53915">
        <ele>31.7</ele>
        <time>2020-09-30T13:19:03Z</time>
      </trkpt>
      <trkpt lat="49.92185" lon="2.53911">
        <ele>31.7</ele>
        <time>2020-09-30T13:19:05Z</time>
      </trkpt>
      <trkpt lat="49.92185" lon="2.53909">
        <ele>31.7</ele>
        <time>2020-09-30T13:19:06Z</time>
      </trkpt>
      <trkpt lat="49.92186" lon="2.53907">
        <ele>31.7</ele>
        <time>2020-09-30T13:19:07Z</time>
      </trkpt>
      <trkpt lat="49.92187" lon="2.53904">
        <ele>31.7</ele>
        <time>2020-09-30T13:19:08Z</time>
      </trkpt>
      <trkpt lat="49.92187" lon="2.53902">
        <ele>31.7</ele>
        <time>2020-09-30T13:19:09Z</time>
      </trkpt>
      <trkpt lat="49.92188" lon="2.53897">
        <ele>31.7</ele>
        <time>2020-09-30T13:19:10Z</time>
      </trkpt>
      <trkpt lat="49.92189" lon="2.53896">
        <ele>31.7</ele>
        <time>2020-09-30T13:19:11Z</time>
      </trkpt>
      <trkpt lat="49.92189" lon="2.53894">
        <ele>31.7</ele>
        <time>2020-09-30T13:19:12Z</time>
      </trkpt>
      <trkpt lat="49.9219" lon="2.53891">
        <ele>31.7</ele>
        <time>2020-09-30T13:19:13Z</time>
      </trkpt>
      <trkpt lat="49.92191" lon="2.53889">
        <ele>31.8</ele>
        <time>2020-09-30T13:19:14Z</time>
      </trkpt>
      <trkpt lat="49.92191" lon="2.53887">
        <ele>31.8</ele>
        <time>2020-09-30T13:19:15Z</time>
      </trkpt>
      <trkpt lat="49.92192" lon="2.53884">
        <ele>31.8</ele>
        <time>2020-09-30T13:19:16Z</time>
      </trkpt>
      <trkpt lat="49.92193" lon="2.53882">
        <ele>31.8</ele>
        <time>2020-09-30T13:19:18Z</time>
      </trkpt>
      <trkpt lat="49.92193" lon="2.5388">
        <ele>31.8</ele>
        <time>2020-09-30T13:19:19Z</time>
      </trkpt>
      <trkpt lat="49.92194" lon="2.53878">
        <ele>31.8</ele>
        <time>2020-09-30T13:19:20Z</time>
      </trkpt>
      <trkpt lat="49.92195" lon="2.53876">
        <ele>31.8</ele>
        <time>2020-09-30T13:19:21Z</time>
      </trkpt>
      <trkpt lat="49.92196" lon="2.53873">
        <ele>31.8</ele>
        <time>2020-09-30T13:19:22Z</time>
      </trkpt>
      <trkpt lat="49.92197" lon="2.53871">
        <ele>31.8</ele>
        <time>2020-09-30T13:19:24Z</time>
      </trkpt>
      <trkpt lat="49.92197" lon="2.5387">
        <ele>31.8</ele>
        <time>2020-09-30T13:19:25Z</time>
      </trkpt>
      <trkpt lat="49.92198" lon="2.53867">
        <ele>31.8</ele>
        <time>2020-09-30T13:19:26Z</time>
      </trkpt>
      <trkpt lat="49.92198" lon="2.53866">
        <ele>31.8</ele>
        <time>2020-09-30T13:19:27Z</time>
      </trkpt>
      <trkpt lat="49.92199" lon="2.53865">
        <ele>31.8</ele>
        <time>2020-09-30T13:19:28Z</time>
      </trkpt>
      <trkpt lat="49.92199" lon="2.53863">
        <ele>31.8</ele>
        <time>2020-09-30T13:19:29Z</time>
      </trkpt>
      <trkpt lat="49.92199" lon="2.53862">
        <ele>31.8</ele>
        <time>2020-09-30T13:19:30Z</time>
      </trkpt>
      <trkpt lat="49.922" lon="2.53861">
        <ele>31.8</ele>
        <time>2020-09-30T13:19:31Z</time>
      </trkpt>
      <trkpt lat="49.922" lon="2.5386">
        <ele>31.8</ele>
        <time>2020-09-30T13:19:32Z</time>
      </trkpt>
      <trkpt lat="49.92201" lon="2.53859">
        <ele>31.8</ele>
        <time>2020-09-30T13:19:33Z</time>
      </trkpt>
      <trkpt lat="49.92201" lon="2.53858">
        <ele>31.8</ele>
        <time>2020-09-30T13:19:35Z</time>
      </trkpt>
      <trkpt lat="49.92201" lon="2.53856">
        <ele>31.8</ele>
        <time>2020-09-30T13:19:36Z</time>
      </trkpt>
      <trkpt lat="49.92202" lon="2.53854">
        <ele>31.7</ele>
        <time>2020-09-30T13:19:37Z</time>
      </trkpt>
      <trkpt lat="49.92203" lon="2.53853">
        <ele>31.7</ele>
        <time>2020-09-30T13:19:38Z</time>
      </trkpt>
      <trkpt lat="49.92203" lon="2.53852">
        <ele>31.7</ele>
        <time>2020-09-30T13:19:39Z</time>
      </trkpt>
      <trkpt lat="49.92203" lon="2.5385">
        <ele>31.7</ele>
        <time>2020-09-30T13:19:40Z</time>
      </trkpt>
      <trkpt lat="49.92204" lon="2.53847">
        <ele>31.7</ele>
        <time>2020-09-30T13:19:41Z</time>
      </trkpt>
      <trkpt lat="49.92204" lon="2.53846">
        <ele>31.7</ele>
        <time>2020-09-30T13:19:42Z</time>
      </trkpt>
      <trkpt lat="49.92205" lon="2.53845">
        <ele>31.7</ele>
        <time>2020-09-30T13:19:43Z</time>
      </trkpt>
      <trkpt lat="49.92205" lon="2.53843">
        <ele>31.7</ele>
        <time>2020-09-30T13:19:44Z</time>
      </trkpt>
      <trkpt lat="49.92205" lon="2.53841">
        <ele>31.7</ele>
        <time>2020-09-30T13:19:46Z</time>
      </trkpt>
      <trkpt lat="49.92206" lon="2.53838">
        <ele>31.7</ele>
        <time>2020-09-30T13:19:47Z</time>
      </trkpt>
      <trkpt lat="49.92207" lon="2.53836">
        <ele>31.7</ele>
        <time>2020-09-30T13:19:48Z</time>
      </trkpt>
      <trkpt lat="49.92207" lon="2.53834">
        <ele>31.7</ele>
        <time>2020-09-30T13:19:49Z</time>
      </trkpt>
      <trkpt lat="49.92208" lon="2.53832">
        <ele>31.7</ele>
        <time>2020-09-30T13:19:51Z</time>
      </trkpt>
      <trkpt lat="49.92208" lon="2.5383">
        <ele>31.6</ele>
        <time>2020-09-30T13:19:52Z</time>
      </trkpt>
      <trkpt lat="49.92209" lon="2.53828">
        <ele>31.6</ele>
        <time>2020-09-30T13:19:53Z</time>
      </trkpt>
      <trkpt lat="49.9221" lon="2.53826">
        <ele>31.6</ele>
        <time>2020-09-30T13:19:54Z</time>
      </trkpt>
      <trkpt lat="49.9221" lon="2.53825">
        <ele>31.6</ele>
        <time>2020-09-30T13:19:55Z</time>
      </trkpt>
      <trkpt lat="49.92212" lon="2.53822">
        <ele>31.6</ele>
        <time>2020-09-30T13:19:56Z</time>
      </trkpt>
      <trkpt lat="49.92212" lon="2.5382">
        <ele>31.6</ele>
        <time>2020-09-30T13:19:57Z</time>
      </trkpt>
      <trkpt lat="49.92213" lon="2.53818">
        <ele>31.6</ele>
        <time>2020-09-30T13:19:59Z</time>
      </trkpt>
      <trkpt lat="49.92214" lon="2.53816">
        <ele>31.6</ele>
        <time>2020-09-30T13:20:00Z</time>
      </trkpt>
      <trkpt lat="49.92215" lon="2.53812">
        <ele>31.6</ele>
        <time>2020-09-30T13:20:01Z</time>
      </trkpt>
      <trkpt lat="49.92215" lon="2.5381">
        <ele>31.6</ele>
        <time>2020-09-30T13:20:02Z</time>
      </trkpt>
      <trkpt lat="49.92216" lon="2.53807">
        <ele>31.6</ele>
        <time>2020-09-30T13:20:03Z</time>
      </trkpt>
      <trkpt lat="49.92216" lon="2.53806">
        <ele>31.6</ele>
        <time>2020-09-30T13:20:04Z</time>
      </trkpt>
      <trkpt lat="49.92217" lon="2.53805">
        <ele>31.6</ele>
        <time>2020-09-30T13:20:05Z</time>
      </trkpt>
      <trkpt lat="49.92218" lon="2.53801">
        <ele>31.6</ele>
        <time>2020-09-30T13:20:06Z</time>
      </trkpt>
      <trkpt lat="49.92219" lon="2.538">
        <ele>31.6</ele>
        <time>2020-09-30T13:20:08Z</time>
      </trkpt>
      <trkpt lat="49.9222" lon="2.53798">
        <ele>31.6</ele>
        <time>2020-09-30T13:20:09Z</time>
      </trkpt>
      <trkpt lat="49.92221" lon="2.53796">
        <ele>31.6</ele>
        <time>2020-09-30T13:20:10Z</time>
      </trkpt>
      <trkpt lat="49.92223" lon="2.53793">
        <ele>31.6</ele>
        <time>2020-09-30T13:20:11Z</time>
      </trkpt>
      <trkpt lat="49.92223" lon="2.53792">
        <ele>31.6</ele>
        <time>2020-09-30T13:20:12Z</time>
      </trkpt>
      <trkpt lat="49.92225" lon="2.53788">
        <ele>31.6</ele>
        <time>2020-09-30T13:20:13Z</time>
      </trkpt>
      <trkpt lat="49.92226" lon="2.53787">
        <ele>31.6</ele>
        <time>2020-09-30T13:20:15Z</time>
      </trkpt>
      <trkpt lat="49.92227" lon="2.53785">
        <ele>31.6</ele>
        <time>2020-09-30T13:20:16Z</time>
      </trkpt>
      <trkpt lat="49.92228" lon="2.53783">
        <ele>31.6</ele>
        <time>2020-09-30T13:20:17Z</time>
      </trkpt>
      <trkpt lat="49.92229" lon="2.53781">
        <ele>31.6</ele>
        <time>2020-09-30T13:20:18Z</time>
      </trkpt>
      <trkpt lat="49.9223" lon="2.53779">
        <ele>31.6</ele>
        <time>2020-09-30T13:20:19Z</time>
      </trkpt>
      <trkpt lat="49.9223" lon="2.53777">
        <ele>31.6</ele>
        <time>2020-09-30T13:20:20Z</time>
      </trkpt>
      <trkpt lat="49.92231" lon="2.53774">
        <ele>31.6</ele>
        <time>2020-09-30T13:20:21Z</time>
      </trkpt>
      <trkpt lat="49.92232" lon="2.53773">
        <ele>31.6</ele>
        <time>2020-09-30T13:20:23Z</time>
      </trkpt>
      <trkpt lat="49.92232" lon="2.53771">
        <ele>31.6</ele>
        <time>2020-09-30T13:20:24Z</time>
      </trkpt>
      <trkpt lat="49.92233" lon="2.53769">
        <ele>31.6</ele>
        <time>2020-09-30T13:20:25Z</time>
      </trkpt>
      <trkpt lat="49.92233" lon="2.53767">
        <ele>31.6</ele>
        <time>2020-09-30T13:20:26Z</time>
      </trkpt>
      <trkpt lat="49.92234" lon="2.53765">
        <ele>31.6</ele>
        <time>2020-09-30T13:20:27Z</time>
      </trkpt>
      <trkpt lat="49.92235" lon="2.53762">
        <ele>31.6</ele>
        <time>2020-09-30T13:20:28Z</time>
      </trkpt>
      <trkpt lat="49.92235" lon="2.5376">
        <ele>31.6</ele>
        <time>2020-09-30T13:20:29Z</time>
      </trkpt>
      <trkpt lat="49.92235" lon="2.53759">
        <ele>31.6</ele>
        <time>2020-09-30T13:20:30Z</time>
      </trkpt>
      <trkpt lat="49.92236" lon="2.53755">
        <ele>31.6</ele>
        <time>2020-09-30T13:20:31Z</time>
      </trkpt>
      <trkpt lat="49.92236" lon="2.53754">
        <ele>31.6</ele>
        <time>2020-09-30T13:20:33Z</time>
      </trkpt>
      <trkpt lat="49.92237" lon="2.53752">
        <ele>31.6</ele>
        <time>2020-09-30T13:20:34Z</time>
      </trkpt>
      <trkpt lat="49.92237" lon="2.53751">
        <ele>31.6</ele>
        <time>2020-09-30T13:20:35Z</time>
      </trkpt>
      <trkpt lat="49.92237" lon="2.53749">
        <ele>31.6</ele>
        <time>2020-09-30T13:20:36Z</time>
      </trkpt>
      <trkpt lat="49.92238" lon="2.53746">
        <ele>31.6</ele>
        <time>2020-09-30T13:20:37Z</time>
      </trkpt>
      <trkpt lat="49.92238" lon="2.53745">
        <ele>31.6</ele>
        <time>2020-09-30T13:20:38Z</time>
      </trkpt>
      <trkpt lat="49.92238" lon="2.53743">
        <ele>31.6</ele>
        <time>2020-09-30T13:20:39Z</time>
      </trkpt>
      <trkpt lat="49.92239" lon="2.53741">
        <ele>31.6</ele>
        <time>2020-09-30T13:20:40Z</time>
      </trkpt>
      <trkpt lat="49.92239" lon="2.53738">
        <ele>31.6</ele>
        <time>2020-09-30T13:20:42Z</time>
      </trkpt>
      <trkpt lat="49.92239" lon="2.53734">
        <ele>31.6</ele>
        <time>2020-09-30T13:20:43Z</time>
      </trkpt>
      <trkpt lat="49.9224" lon="2.53733">
        <ele>31.6</ele>
        <time>2020-09-30T13:20:44Z</time>
      </trkpt>
      <trkpt lat="49.9224" lon="2.53732">
        <ele>31.6</ele>
        <time>2020-09-30T13:20:45Z</time>
      </trkpt>
      <trkpt lat="49.92239" lon="2.53729">
        <ele>31.6</ele>
        <time>2020-09-30T13:20:46Z</time>
      </trkpt>
      <trkpt lat="49.92239" lon="2.53727">
        <ele>31.6</ele>
        <time>2020-09-30T13:20:47Z</time>
      </trkpt>
      <trkpt lat="49.92239" lon="2.53725">
        <ele>31.6</ele>
        <time>2020-09-30T13:20:48Z</time>
      </trkpt>
      <trkpt lat="49.92239" lon="2.53724">
        <ele>31.6</ele>
        <time>2020-09-30T13:20:50Z</time>
      </trkpt>
      <trkpt lat="49.92239" lon="2.53723">
        <ele>31.6</ele>
        <time>2020-09-30T13:20:51Z</time>
      </trkpt>
      <trkpt lat="49.92238" lon="2.5372">
        <ele>31.7</ele>
        <time>2020-09-30T13:20:52Z</time>
      </trkpt>
      <trkpt lat="49.92238" lon="2.53718">
        <ele>31.7</ele>
        <time>2020-09-30T13:20:53Z</time>
      </trkpt>
      <trkpt lat="49.92238" lon="2.53716">
        <ele>31.7</ele>
        <time>2020-09-30T13:20:54Z</time>
      </trkpt>
      <trkpt lat="49.92238" lon="2.53714">
        <ele>31.7</ele>
        <time>2020-09-30T13:20:55Z</time>
      </trkpt>
      <trkpt lat="49.92238" lon="2.5371">
        <ele>31.7</ele>
        <time>2020-09-30T13:20:57Z</time>
      </trkpt>
      <trkpt lat="49.92238" lon="2.53708">
        <ele>31.7</ele>
        <time>2020-09-30T13:20:58Z</time>
      </trkpt>
      <trkpt lat="49.92238" lon="2.53706">
        <ele>31.7</ele>
        <time>2020-09-30T13:20:59Z</time>
      </trkpt>
      <trkpt lat="49.92238" lon="2.53705">
        <ele>31.7</ele>
        <time>2020-09-30T13:21:00Z</time>
      </trkpt>
      <trkpt lat="49.92237" lon="2.537">
        <ele>31.7</ele>
        <time>2020-09-30T13:21:01Z</time>
      </trkpt>
      <trkpt lat="49.92237" lon="2.53699">
        <ele>31.7</ele>
        <time>2020-09-30T13:21:02Z</time>
      </trkpt>
      <trkpt lat="49.92237" lon="2.53696">
        <ele>31.7</ele>
        <time>2020-09-30T13:21:03Z</time>
      </trkpt>
      <trkpt lat="49.92237" lon="2.53694">
        <ele>31.7</ele>
        <time>2020-09-30T13:21:04Z</time>
      </trkpt>
      <trkpt lat="49.92237" lon="2.53693">
        <ele>31.7</ele>
        <time>2020-09-30T13:21:05Z</time>
      </trkpt>
      <trkpt lat="49.92236" lon="2.53689">
        <ele>31.7</ele>
        <time>2020-09-30T13:21:06Z</time>
      </trkpt>
      <trkpt lat="49.92236" lon="2.53687">
        <ele>31.7</ele>
        <time>2020-09-30T13:21:08Z</time>
      </trkpt>
      <trkpt lat="49.92236" lon="2.53686">
        <ele>31.7</ele>
        <time>2020-09-30T13:21:09Z</time>
      </trkpt>
      <trkpt lat="49.92236" lon="2.53684">
        <ele>31.7</ele>
        <time>2020-09-30T13:21:10Z</time>
      </trkpt>
      <trkpt lat="49.92235" lon="2.53683">
        <ele>31.7</ele>
        <time>2020-09-30T13:21:11Z</time>
      </trkpt>
      <trkpt lat="49.92235" lon="2.53681">
        <ele>31.7</ele>
        <time>2020-09-30T13:21:12Z</time>
      </trkpt>
      <trkpt lat="49.92235" lon="2.53679">
        <ele>31.7</ele>
        <time>2020-09-30T13:21:13Z</time>
      </trkpt>
      <trkpt lat="49.92235" lon="2.53677">
        <ele>31.7</ele>
        <time>2020-09-30T13:21:14Z</time>
      </trkpt>
      <trkpt lat="49.92235" lon="2.53674">
        <ele>31.7</ele>
        <time>2020-09-30T13:21:15Z</time>
      </trkpt>
      <trkpt lat="49.92235" lon="2.53672">
        <ele>31.7</ele>
        <time>2020-09-30T13:21:16Z</time>
      </trkpt>
      <trkpt lat="49.92234" lon="2.5367">
        <ele>31.7</ele>
        <time>2020-09-30T13:21:17Z</time>
      </trkpt>
      <trkpt lat="49.92234" lon="2.53667">
        <ele>31.7</ele>
        <time>2020-09-30T13:21:18Z</time>
      </trkpt>
      <trkpt lat="49.92234" lon="2.53665">
        <ele>31.7</ele>
        <time>2020-09-30T13:21:20Z</time>
      </trkpt>
      <trkpt lat="49.92234" lon="2.53664">
        <ele>31.7</ele>
        <time>2020-09-30T13:21:21Z</time>
      </trkpt>
      <trkpt lat="49.92233" lon="2.5366">
        <ele>31.7</ele>
        <time>2020-09-30T13:21:22Z</time>
      </trkpt>
      <trkpt lat="49.92233" lon="2.53659">
        <ele>31.7</ele>
        <time>2020-09-30T13:21:23Z</time>
      </trkpt>
      <trkpt lat="49.92233" lon="2.53657">
        <ele>31.7</ele>
        <time>2020-09-30T13:21:24Z</time>
      </trkpt>
      <trkpt lat="49.92233" lon="2.53655">
        <ele>31.7</ele>
        <time>2020-09-30T13:21:25Z</time>
      </trkpt>
      <trkpt lat="49.92233" lon="2.53653">
        <ele>31.7</ele>
        <time>2020-09-30T13:21:26Z</time>
      </trkpt>
      <trkpt lat="49.92233" lon="2.5365">
        <ele>31.7</ele>
        <time>2020-09-30T13:21:27Z</time>
      </trkpt>
      <trkpt lat="49.92234" lon="2.53649">
        <ele>31.7</ele>
        <time>2020-09-30T13:21:28Z</time>
      </trkpt>
      <trkpt lat="49.92234" lon="2.53646">
        <ele>31.7</ele>
        <time>2020-09-30T13:21:29Z</time>
      </trkpt>
      <trkpt lat="49.92234" lon="2.53645">
        <ele>31.7</ele>
        <time>2020-09-30T13:21:30Z</time>
      </trkpt>
      <trkpt lat="49.92235" lon="2.53642">
        <ele>31.7</ele>
        <time>2020-09-30T13:21:32Z</time>
      </trkpt>
      <trkpt lat="49.92236" lon="2.53638">
        <ele>31.7</ele>
        <time>2020-09-30T13:21:33Z</time>
      </trkpt>
      <trkpt lat="49.92237" lon="2.53636">
        <ele>31.7</ele>
        <time>2020-09-30T13:21:35Z</time>
      </trkpt>
      <trkpt lat="49.92237" lon="2.53634">
        <ele>31.7</ele>
        <time>2020-09-30T13:21:36Z</time>
      </trkpt>
      <trkpt lat="49.92238" lon="2.53632">
        <ele>31.7</ele>
        <time>2020-09-30T13:21:37Z</time>
      </trkpt>
      <trkpt lat="49.92238" lon="2.5363">
        <ele>31.7</ele>
        <time>2020-09-30T13:21:39Z</time>
      </trkpt>
      <trkpt lat="49.92238" lon="2.53629">
        <ele>31.7</ele>
        <time>2020-09-30T13:21:40Z</time>
      </trkpt>
      <trkpt lat="49.92239" lon="2.53629">
        <ele>31.7</ele>
        <time>2020-09-30T13:21:42Z</time>
      </trkpt>
      <trkpt lat="49.9224" lon="2.53629">
        <ele>31.7</ele>
        <time>2020-09-30T13:21:43Z</time>
      </trkpt>
      <trkpt lat="49.9224" lon="2.53628">
        <ele>31.7</ele>
        <time>2020-09-30T13:21:44Z</time>
      </trkpt>
      <trkpt lat="49.92241" lon="2.53626">
        <ele>31.7</ele>
        <time>2020-09-30T13:21:45Z</time>
      </trkpt>
      <trkpt lat="49.92241" lon="2.53624">
        <ele>31.7</ele>
        <time>2020-09-30T13:21:46Z</time>
      </trkpt>
      <trkpt lat="49.92242" lon="2.53619">
        <ele>31.7</ele>
        <time>2020-09-30T13:21:47Z</time>
      </trkpt>
      <trkpt lat="49.92242" lon="2.53618">
        <ele>31.7</ele>
        <time>2020-09-30T13:21:49Z</time>
      </trkpt>
      <trkpt lat="49.92242" lon="2.53616">
        <ele>31.7</ele>
        <time>2020-09-30T13:21:50Z</time>
      </trkpt>
      <trkpt lat="49.92242" lon="2.53615">
        <ele>31.7</ele>
        <time>2020-09-30T13:21:51Z</time>
      </trkpt>
      <trkpt lat="49.92242" lon="2.53613">
        <ele>31.7</ele>
        <time>2020-09-30T13:21:52Z</time>
      </trkpt>
      <trkpt lat="49.92242" lon="2.53611">
        <ele>31.7</ele>
        <time>2020-09-30T13:21:53Z</time>
      </trkpt>
      <trkpt lat="49.92242" lon="2.53609">
        <ele>31.7</ele>
        <time>2020-09-30T13:21:55Z</time>
      </trkpt>
      <trkpt lat="49.92242" lon="2.53608">
        <ele>31.7</ele>
        <time>2020-09-30T13:21:56Z</time>
      </trkpt>
      <trkpt lat="49.92242" lon="2.53606">
        <ele>31.7</ele>
        <time>2020-09-30T13:21:57Z</time>
      </trkpt>
      <trkpt lat="49.92242" lon="2.53605">
        <ele>31.7</ele>
        <time>2020-09-30T13:21:58Z</time>
      </trkpt>
      <trkpt lat="49.92243" lon="2.53603">
        <ele>31.7</ele>
        <time>2020-09-30T13:21:59Z</time>
      </trkpt>
      <trkpt lat="49.92243" lon="2.53602">
        <ele>31.7</ele>
        <time>2020-09-30T13:22:00Z</time>
      </trkpt>
      <trkpt lat="49.92243" lon="2.53601">
        <ele>31.7</ele>
        <time>2020-09-30T13:22:01Z</time>
      </trkpt>
      <trkpt lat="49.92244" lon="2.53598">
        <ele>31.7</ele>
        <time>2020-09-30T13:22:03Z</time>
      </trkpt>
      <trkpt lat="49.92244" lon="2.53597">
        <ele>31.7</ele>
        <time>2020-09-30T13:22:04Z</time>
      </trkpt>
      <trkpt lat="49.92244" lon="2.53595">
        <ele>31.7</ele>
        <time>2020-09-30T13:22:05Z</time>
      </trkpt>
      <trkpt lat="49.92245" lon="2.53594">
        <ele>31.7</ele>
        <time>2020-09-30T13:22:06Z</time>
      </trkpt>
      <trkpt lat="49.92245" lon="2.53591">
        <ele>31.7</ele>
        <time>2020-09-30T13:22:07Z</time>
      </trkpt>
      <trkpt lat="49.92246" lon="2.5359">
        <ele>31.7</ele>
        <time>2020-09-30T13:22:08Z</time>
      </trkpt>
      <trkpt lat="49.92246" lon="2.53589">
        <ele>31.7</ele>
        <time>2020-09-30T13:22:09Z</time>
      </trkpt>
      <trkpt lat="49.92246" lon="2.53587">
        <ele>31.7</ele>
        <time>2020-09-30T13:22:10Z</time>
      </trkpt>
      <trkpt lat="49.92247" lon="2.53586">
        <ele>31.7</ele>
        <time>2020-09-30T13:22:11Z</time>
      </trkpt>
      <trkpt lat="49.92248" lon="2.53584">
        <ele>31.7</ele>
        <time>2020-09-30T13:22:13Z</time>
      </trkpt>
      <trkpt lat="49.92248" lon="2.53583">
        <ele>31.7</ele>
        <time>2020-09-30T13:22:14Z</time>
      </trkpt>
      <trkpt lat="49.92249" lon="2.53581">
        <ele>31.7</ele>
        <time>2020-09-30T13:22:15Z</time>
      </trkpt>
      <trkpt lat="49.92249" lon="2.53579">
        <ele>31.7</ele>
        <time>2020-09-30T13:22:16Z</time>
      </trkpt>
      <trkpt lat="49.9225" lon="2.53577">
        <ele>31.7</ele>
        <time>2020-09-30T13:22:17Z</time>
      </trkpt>
      <trkpt lat="49.92251" lon="2.53575">
        <ele>31.7</ele>
        <time>2020-09-30T13:22:18Z</time>
      </trkpt>
      <trkpt lat="49.92251" lon="2.53574">
        <ele>31.7</ele>
        <time>2020-09-30T13:22:19Z</time>
      </trkpt>
      <trkpt lat="49.92252" lon="2.53572">
        <ele>31.7</ele>
        <time>2020-09-30T13:22:20Z</time>
      </trkpt>
      <trkpt lat="49.92252" lon="2.5357">
        <ele>31.7</ele>
        <time>2020-09-30T13:22:21Z</time>
      </trkpt>
      <trkpt lat="49.92253" lon="2.53567">
        <ele>31.7</ele>
        <time>2020-09-30T13:22:22Z</time>
      </trkpt>
      <trkpt lat="49.92253" lon="2.53566">
        <ele>31.7</ele>
        <time>2020-09-30T13:22:24Z</time>
      </trkpt>
      <trkpt lat="49.92253" lon="2.53564">
        <ele>31.7</ele>
        <time>2020-09-30T13:22:25Z</time>
      </trkpt>
      <trkpt lat="49.92254" lon="2.53561">
        <ele>31.7</ele>
        <time>2020-09-30T13:22:26Z</time>
      </trkpt>
      <trkpt lat="49.92255" lon="2.53556">
        <ele>31.7</ele>
        <time>2020-09-30T13:22:28Z</time>
      </trkpt>
      <trkpt lat="49.92255" lon="2.53555">
        <ele>31.7</ele>
        <time>2020-09-30T13:22:29Z</time>
      </trkpt>
      <trkpt lat="49.92256" lon="2.53554">
        <ele>31.7</ele>
        <time>2020-09-30T13:22:30Z</time>
      </trkpt>
      <trkpt lat="49.92257" lon="2.53551">
        <ele>31.7</ele>
        <time>2020-09-30T13:22:31Z</time>
      </trkpt>
      <trkpt lat="49.92257" lon="2.53549">
        <ele>31.7</ele>
        <time>2020-09-30T13:22:32Z</time>
      </trkpt>
      <trkpt lat="49.92258" lon="2.53547">
        <ele>31.7</ele>
        <time>2020-09-30T13:22:33Z</time>
      </trkpt>
      <trkpt lat="49.92258" lon="2.53545">
        <ele>31.7</ele>
        <time>2020-09-30T13:22:34Z</time>
      </trkpt>
      <trkpt lat="49.92259" lon="2.53544">
        <ele>31.7</ele>
        <time>2020-09-30T13:22:35Z</time>
      </trkpt>
      <trkpt lat="49.92259" lon="2.53542">
        <ele>31.7</ele>
        <time>2020-09-30T13:22:37Z</time>
      </trkpt>
      <trkpt lat="49.9226" lon="2.53539">
        <ele>31.7</ele>
        <time>2020-09-30T13:22:38Z</time>
      </trkpt>
      <trkpt lat="49.92261" lon="2.53537">
        <ele>31.7</ele>
        <time>2020-09-30T13:22:39Z</time>
      </trkpt>
      <trkpt lat="49.92262" lon="2.53534">
        <ele>31.8</ele>
        <time>2020-09-30T13:22:40Z</time>
      </trkpt>
      <trkpt lat="49.92263" lon="2.53533">
        <ele>31.8</ele>
        <time>2020-09-30T13:22:41Z</time>
      </trkpt>
      <trkpt lat="49.92263" lon="2.53532">
        <ele>31.8</ele>
        <time>2020-09-30T13:22:42Z</time>
      </trkpt>
      <trkpt lat="49.92264" lon="2.5353">
        <ele>31.8</ele>
        <time>2020-09-30T13:22:44Z</time>
      </trkpt>
      <trkpt lat="49.92264" lon="2.53528">
        <ele>31.8</ele>
        <time>2020-09-30T13:22:45Z</time>
      </trkpt>
      <trkpt lat="49.92265" lon="2.53526">
        <ele>31.8</ele>
        <time>2020-09-30T13:22:46Z</time>
      </trkpt>
      <trkpt lat="49.92265" lon="2.53523">
        <ele>31.8</ele>
        <time>2020-09-30T13:22:48Z</time>
      </trkpt>
      <trkpt lat="49.92266" lon="2.53522">
        <ele>31.8</ele>
        <time>2020-09-30T13:22:49Z</time>
      </trkpt>
      <trkpt lat="49.92266" lon="2.5352">
        <ele>31.8</ele>
        <time>2020-09-30T13:22:50Z</time>
      </trkpt>
      <trkpt lat="49.92267" lon="2.53518">
        <ele>31.8</ele>
        <time>2020-09-30T13:22:52Z</time>
      </trkpt>
      <trkpt lat="49.92267" lon="2.53515">
        <ele>31.8</ele>
        <time>2020-09-30T13:22:53Z</time>
      </trkpt>
      <trkpt lat="49.92268" lon="2.53513">
        <ele>31.8</ele>
        <time>2020-09-30T13:22:54Z</time>
      </trkpt>
      <trkpt lat="49.92268" lon="2.53512">
        <ele>31.8</ele>
        <time>2020-09-30T13:22:55Z</time>
      </trkpt>
      <trkpt lat="49.92269" lon="2.5351">
        <ele>31.8</ele>
        <time>2020-09-30T13:22:57Z</time>
      </trkpt>
      <trkpt lat="49.9227" lon="2.53508">
        <ele>31.8</ele>
        <time>2020-09-30T13:22:58Z</time>
      </trkpt>
      <trkpt lat="49.92271" lon="2.53505">
        <ele>31.8</ele>
        <time>2020-09-30T13:22:59Z</time>
      </trkpt>
      <trkpt lat="49.92271" lon="2.53504">
        <ele>31.9</ele>
        <time>2020-09-30T13:23:00Z</time>
      </trkpt>
      <trkpt lat="49.92272" lon="2.53503">
        <ele>31.9</ele>
        <time>2020-09-30T13:23:01Z</time>
      </trkpt>
      <trkpt lat="49.92272" lon="2.53501">
        <ele>31.9</ele>
        <time>2020-09-30T13:23:02Z</time>
      </trkpt>
      <trkpt lat="49.92273" lon="2.53499">
        <ele>31.9</ele>
        <time>2020-09-30T13:23:03Z</time>
      </trkpt>
      <trkpt lat="49.92273" lon="2.53497">
        <ele>31.9</ele>
        <time>2020-09-30T13:23:05Z</time>
      </trkpt>
      <trkpt lat="49.92274" lon="2.53495">
        <ele>31.9</ele>
        <time>2020-09-30T13:23:06Z</time>
      </trkpt>
      <trkpt lat="49.92275" lon="2.53492">
        <ele>31.9</ele>
        <time>2020-09-30T13:23:08Z</time>
      </trkpt>
      <trkpt lat="49.92276" lon="2.53491">
        <ele>31.9</ele>
        <time>2020-09-30T13:23:09Z</time>
      </trkpt>
      <trkpt lat="49.92277" lon="2.53489">
        <ele>31.9</ele>
        <time>2020-09-30T13:23:10Z</time>
      </trkpt>
      <trkpt lat="49.92277" lon="2.53487">
        <ele>31.9</ele>
        <time>2020-09-30T13:23:11Z</time>
      </trkpt>
      <trkpt lat="49.92278" lon="2.53485">
        <ele>31.9</ele>
        <time>2020-09-30T13:23:12Z</time>
      </trkpt>
      <trkpt lat="49.92279" lon="2.53482">
        <ele>31.9</ele>
        <time>2020-09-30T13:23:13Z</time>
      </trkpt>
      <trkpt lat="49.92279" lon="2.53481">
        <ele>31.9</ele>
        <time>2020-09-30T13:23:14Z</time>
      </trkpt>
      <trkpt lat="49.9228" lon="2.53481">
        <ele>31.9</ele>
        <time>2020-09-30T13:23:15Z</time>
      </trkpt>
      <trkpt lat="49.92281" lon="2.5348">
        <ele>31.9</ele>
        <time>2020-09-30T13:23:16Z</time>
      </trkpt>
      <trkpt lat="49.92282" lon="2.53478">
        <ele>31.9</ele>
        <time>2020-09-30T13:23:18Z</time>
      </trkpt>
      <trkpt lat="49.92282" lon="2.53477">
        <ele>31.9</ele>
        <time>2020-09-30T13:23:19Z</time>
      </trkpt>
      <trkpt lat="49.92284" lon="2.53474">
        <ele>31.9</ele>
        <time>2020-09-30T13:23:20Z</time>
      </trkpt>
      <trkpt lat="49.92284" lon="2.53473">
        <ele>31.9</ele>
        <time>2020-09-30T13:23:21Z</time>
      </trkpt>
      <trkpt lat="49.92285" lon="2.53469">
        <ele>31.9</ele>
        <time>2020-09-30T13:23:23Z</time>
      </trkpt>
      <trkpt lat="49.92287" lon="2.53467">
        <ele>31.9</ele>
        <time>2020-09-30T13:23:24Z</time>
      </trkpt>
      <trkpt lat="49.92287" lon="2.53465">
        <ele>31.9</ele>
        <time>2020-09-30T13:23:25Z</time>
      </trkpt>
      <trkpt lat="49.92288" lon="2.53464">
        <ele>31.9</ele>
        <time>2020-09-30T13:23:26Z</time>
      </trkpt>
      <trkpt lat="49.92288" lon="2.53462">
        <ele>31.9</ele>
        <time>2020-09-30T13:23:27Z</time>
      </trkpt>
      <trkpt lat="49.92289" lon="2.53459">
        <ele>31.9</ele>
        <time>2020-09-30T13:23:28Z</time>
      </trkpt>
      <trkpt lat="49.92289" lon="2.53458">
        <ele>31.9</ele>
        <time>2020-09-30T13:23:29Z</time>
      </trkpt>
      <trkpt lat="49.9229" lon="2.53456">
        <ele>31.9</ele>
        <time>2020-09-30T13:23:31Z</time>
      </trkpt>
      <trkpt lat="49.92291" lon="2.53455">
        <ele>31.9</ele>
        <time>2020-09-30T13:23:32Z</time>
      </trkpt>
      <trkpt lat="49.92291" lon="2.53452">
        <ele>31.9</ele>
        <time>2020-09-30T13:23:33Z</time>
      </trkpt>
      <trkpt lat="49.92292" lon="2.53451">
        <ele>31.9</ele>
        <time>2020-09-30T13:23:34Z</time>
      </trkpt>
      <trkpt lat="49.92293" lon="2.5345">
        <ele>31.9</ele>
        <time>2020-09-30T13:23:36Z</time>
      </trkpt>
      <trkpt lat="49.92293" lon="2.5345">
        <ele>31.9</ele>
        <time>2020-09-30T13:23:37Z</time>
      </trkpt>
      <trkpt lat="49.92293" lon="2.53451">
        <ele>31.9</ele>
        <time>2020-09-30T13:23:39Z</time>
      </trkpt>
      <trkpt lat="49.92293" lon="2.53451">
        <ele>31.9</ele>
        <time>2020-09-30T13:23:41Z</time>
      </trkpt>
      <trkpt lat="49.92292" lon="2.53452">
        <ele>31.9</ele>
        <time>2020-09-30T13:23:42Z</time>
      </trkpt>
      <trkpt lat="49.92292" lon="2.5345">
        <ele>31.9</ele>
        <time>2020-09-30T13:23:43Z</time>
      </trkpt>
      <trkpt lat="49.92292" lon="2.53449">
        <ele>31.9</ele>
        <time>2020-09-30T13:23:44Z</time>
      </trkpt>
      <trkpt lat="49.92293" lon="2.53447">
        <ele>31.9</ele>
        <time>2020-09-30T13:23:45Z</time>
      </trkpt>
      <trkpt lat="49.92293" lon="2.53446">
        <ele>31.9</ele>
        <time>2020-09-30T13:23:46Z</time>
      </trkpt>
      <trkpt lat="49.92293" lon="2.53444">
        <ele>31.9</ele>
        <time>2020-09-30T13:23:47Z</time>
      </trkpt>
      <trkpt lat="49.92294" lon="2.53441">
        <ele>31.9</ele>
        <time>2020-09-30T13:23:48Z</time>
      </trkpt>
      <trkpt lat="49.92294" lon="2.5344">
        <ele>31.9</ele>
        <time>2020-09-30T13:23:50Z</time>
      </trkpt>
      <trkpt lat="49.92294" lon="2.53438">
        <ele>31.9</ele>
        <time>2020-09-30T13:23:51Z</time>
      </trkpt>
      <trkpt lat="49.92294" lon="2.53437">
        <ele>31.9</ele>
        <time>2020-09-30T13:23:52Z</time>
      </trkpt>
      <trkpt lat="49.92295" lon="2.53433">
        <ele>31.9</ele>
        <time>2020-09-30T13:23:53Z</time>
      </trkpt>
      <trkpt lat="49.92295" lon="2.53432">
        <ele>31.9</ele>
        <time>2020-09-30T13:23:54Z</time>
      </trkpt>
      <trkpt lat="49.92295" lon="2.53431">
        <ele>31.9</ele>
        <time>2020-09-30T13:23:55Z</time>
      </trkpt>
      <trkpt lat="49.92296" lon="2.53429">
        <ele>31.9</ele>
        <time>2020-09-30T13:23:56Z</time>
      </trkpt>
      <trkpt lat="49.92296" lon="2.53427">
        <ele>31.9</ele>
        <time>2020-09-30T13:23:57Z</time>
      </trkpt>
      <trkpt lat="49.92296" lon="2.53424">
        <ele>31.9</ele>
        <time>2020-09-30T13:23:59Z</time>
      </trkpt>
      <trkpt lat="49.92297" lon="2.53423">
        <ele>31.9</ele>
        <time>2020-09-30T13:24:00Z</time>
      </trkpt>
      <trkpt lat="49.92297" lon="2.53422">
        <ele>31.9</ele>
        <time>2020-09-30T13:24:01Z</time>
      </trkpt>
      <trkpt lat="49.92298" lon="2.5342">
        <ele>32</ele>
        <time>2020-09-30T13:24:02Z</time>
      </trkpt>
      <trkpt lat="49.92299" lon="2.53416">
        <ele>32</ele>
        <time>2020-09-30T13:24:03Z</time>
      </trkpt>
      <trkpt lat="49.92299" lon="2.53415">
        <ele>32</ele>
        <time>2020-09-30T13:24:04Z</time>
      </trkpt>
      <trkpt lat="49.92299" lon="2.53413">
        <ele>32</ele>
        <time>2020-09-30T13:24:05Z</time>
      </trkpt>
      <trkpt lat="49.923" lon="2.53411">
        <ele>32</ele>
        <time>2020-09-30T13:24:07Z</time>
      </trkpt>
      <trkpt lat="49.923" lon="2.53409">
        <ele>32</ele>
        <time>2020-09-30T13:24:08Z</time>
      </trkpt>
      <trkpt lat="49.92301" lon="2.53406">
        <ele>32</ele>
        <time>2020-09-30T13:24:09Z</time>
      </trkpt>
      <trkpt lat="49.92302" lon="2.53403">
        <ele>32</ele>
        <time>2020-09-30T13:24:10Z</time>
      </trkpt>
      <trkpt lat="49.92302" lon="2.53402">
        <ele>32</ele>
        <time>2020-09-30T13:24:11Z</time>
      </trkpt>
      <trkpt lat="49.92303" lon="2.534">
        <ele>32</ele>
        <time>2020-09-30T13:24:12Z</time>
      </trkpt>
      <trkpt lat="49.92304" lon="2.53397">
        <ele>32</ele>
        <time>2020-09-30T13:24:13Z</time>
      </trkpt>
      <trkpt lat="49.92304" lon="2.53396">
        <ele>32</ele>
        <time>2020-09-30T13:24:14Z</time>
      </trkpt>
      <trkpt lat="49.92305" lon="2.53393">
        <ele>32</ele>
        <time>2020-09-30T13:24:16Z</time>
      </trkpt>
      <trkpt lat="49.92306" lon="2.53392">
        <ele>31.9</ele>
        <time>2020-09-30T13:24:17Z</time>
      </trkpt>
      <trkpt lat="49.92306" lon="2.53391">
        <ele>31.9</ele>
        <time>2020-09-30T13:24:18Z</time>
      </trkpt>
      <trkpt lat="49.92307" lon="2.53389">
        <ele>31.9</ele>
        <time>2020-09-30T13:24:19Z</time>
      </trkpt>
      <trkpt lat="49.92307" lon="2.53388">
        <ele>31.9</ele>
        <time>2020-09-30T13:24:20Z</time>
      </trkpt>
      <trkpt lat="49.92308" lon="2.53386">
        <ele>31.9</ele>
        <time>2020-09-30T13:24:22Z</time>
      </trkpt>
      <trkpt lat="49.92309" lon="2.53385">
        <ele>31.9</ele>
        <time>2020-09-30T13:24:23Z</time>
      </trkpt>
      <trkpt lat="49.9231" lon="2.53381">
        <ele>31.9</ele>
        <time>2020-09-30T13:24:24Z</time>
      </trkpt>
      <trkpt lat="49.9231" lon="2.5338">
        <ele>31.9</ele>
        <time>2020-09-30T13:24:25Z</time>
      </trkpt>
      <trkpt lat="49.92311" lon="2.53378">
        <ele>31.9</ele>
        <time>2020-09-30T13:24:26Z</time>
      </trkpt>
      <trkpt lat="49.92312" lon="2.53374">
        <ele>31.9</ele>
        <time>2020-09-30T13:24:27Z</time>
      </trkpt>
      <trkpt lat="49.92313" lon="2.53372">
        <ele>31.9</ele>
        <time>2020-09-30T13:24:28Z</time>
      </trkpt>
      <trkpt lat="49.92314" lon="2.5337">
        <ele>31.9</ele>
        <time>2020-09-30T13:24:29Z</time>
      </trkpt>
      <trkpt lat="49.92314" lon="2.53368">
        <ele>31.9</ele>
        <time>2020-09-30T13:24:30Z</time>
      </trkpt>
      <trkpt lat="49.92315" lon="2.53367">
        <ele>31.9</ele>
        <time>2020-09-30T13:24:31Z</time>
      </trkpt>
      <trkpt lat="49.92316" lon="2.53366">
        <ele>31.9</ele>
        <time>2020-09-30T13:24:32Z</time>
      </trkpt>
      <trkpt lat="49.92317" lon="2.53363">
        <ele>31.9</ele>
        <time>2020-09-30T13:24:33Z</time>
      </trkpt>
      <trkpt lat="49.92318" lon="2.5336">
        <ele>31.9</ele>
        <time>2020-09-30T13:24:35Z</time>
      </trkpt>
      <trkpt lat="49.92318" lon="2.53359">
        <ele>31.9</ele>
        <time>2020-09-30T13:24:36Z</time>
      </trkpt>
      <trkpt lat="49.92319" lon="2.53357">
        <ele>31.9</ele>
        <time>2020-09-30T13:24:37Z</time>
      </trkpt>
      <trkpt lat="49.9232" lon="2.53354">
        <ele>31.9</ele>
        <time>2020-09-30T13:24:38Z</time>
      </trkpt>
      <trkpt lat="49.9232" lon="2.53352">
        <ele>31.9</ele>
        <time>2020-09-30T13:24:39Z</time>
      </trkpt>
      <trkpt lat="49.92321" lon="2.53349">
        <ele>31.9</ele>
        <time>2020-09-30T13:24:41Z</time>
      </trkpt>
      <trkpt lat="49.92321" lon="2.53347">
        <ele>31.9</ele>
        <time>2020-09-30T13:24:42Z</time>
      </trkpt>
      <trkpt lat="49.92322" lon="2.53345">
        <ele>32</ele>
        <time>2020-09-30T13:24:43Z</time>
      </trkpt>
      <trkpt lat="49.92322" lon="2.53343">
        <ele>32</ele>
        <time>2020-09-30T13:24:44Z</time>
      </trkpt>
      <trkpt lat="49.92323" lon="2.53342">
        <ele>32</ele>
        <time>2020-09-30T13:24:45Z</time>
      </trkpt>
      <trkpt lat="49.92323" lon="2.5334">
        <ele>32</ele>
        <time>2020-09-30T13:24:46Z</time>
      </trkpt>
      <trkpt lat="49.92324" lon="2.53338">
        <ele>32</ele>
        <time>2020-09-30T13:24:48Z</time>
      </trkpt>
      <trkpt lat="49.92324" lon="2.53336">
        <ele>32</ele>
        <time>2020-09-30T13:24:49Z</time>
      </trkpt>
      <trkpt lat="49.92325" lon="2.53332">
        <ele>31.9</ele>
        <time>2020-09-30T13:24:50Z</time>
      </trkpt>
      <trkpt lat="49.92325" lon="2.53331">
        <ele>31.9</ele>
        <time>2020-09-30T13:24:51Z</time>
      </trkpt>
      <trkpt lat="49.92326" lon="2.5333">
        <ele>31.9</ele>
        <time>2020-09-30T13:24:52Z</time>
      </trkpt>
      <trkpt lat="49.92327" lon="2.53325">
        <ele>31.9</ele>
        <time>2020-09-30T13:24:53Z</time>
      </trkpt>
      <trkpt lat="49.92327" lon="2.53324">
        <ele>31.9</ele>
        <time>2020-09-30T13:24:55Z</time>
      </trkpt>
      <trkpt lat="49.92327" lon="2.53322">
        <ele>31.9</ele>
        <time>2020-09-30T13:24:56Z</time>
      </trkpt>
      <trkpt lat="49.92327" lon="2.53321">
        <ele>31.9</ele>
        <time>2020-09-30T13:24:57Z</time>
      </trkpt>
      <trkpt lat="49.92327" lon="2.53319">
        <ele>31.9</ele>
        <time>2020-09-30T13:24:58Z</time>
      </trkpt>
      <trkpt lat="49.92327" lon="2.53318">
        <ele>31.9</ele>
        <time>2020-09-30T13:24:59Z</time>
      </trkpt>
      <trkpt lat="49.92328" lon="2.53316">
        <ele>31.9</ele>
        <time>2020-09-30T13:25:00Z</time>
      </trkpt>
      <trkpt lat="49.92328" lon="2.53315">
        <ele>31.9</ele>
        <time>2020-09-30T13:25:02Z</time>
      </trkpt>
      <trkpt lat="49.92328" lon="2.53313">
        <ele>31.8</ele>
        <time>2020-09-30T13:25:03Z</time>
      </trkpt>
      <trkpt lat="49.92329" lon="2.5331">
        <ele>31.8</ele>
        <time>2020-09-30T13:25:04Z</time>
      </trkpt>
      <trkpt lat="49.92329" lon="2.53309">
        <ele>31.8</ele>
        <time>2020-09-30T13:25:05Z</time>
      </trkpt>
      <trkpt lat="49.92329" lon="2.53307">
        <ele>31.8</ele>
        <time>2020-09-30T13:25:06Z</time>
      </trkpt>
      <trkpt lat="49.92329" lon="2.53306">
        <ele>31.8</ele>
        <time>2020-09-30T13:25:07Z</time>
      </trkpt>
      <trkpt lat="49.9233" lon="2.53302">
        <ele>31.8</ele>
        <time>2020-09-30T13:25:08Z</time>
      </trkpt>
      <trkpt lat="49.9233" lon="2.53301">
        <ele>31.8</ele>
        <time>2020-09-30T13:25:09Z</time>
      </trkpt>
      <trkpt lat="49.9233" lon="2.533">
        <ele>31.8</ele>
        <time>2020-09-30T13:25:10Z</time>
      </trkpt>
      <trkpt lat="49.92331" lon="2.53296">
        <ele>31.8</ele>
        <time>2020-09-30T13:25:11Z</time>
      </trkpt>
      <trkpt lat="49.92331" lon="2.53294">
        <ele>31.8</ele>
        <time>2020-09-30T13:25:13Z</time>
      </trkpt>
      <trkpt lat="49.92331" lon="2.53292">
        <ele>31.8</ele>
        <time>2020-09-30T13:25:14Z</time>
      </trkpt>
      <trkpt lat="49.92331" lon="2.53289">
        <ele>31.8</ele>
        <time>2020-09-30T13:25:15Z</time>
      </trkpt>
      <trkpt lat="49.92331" lon="2.53288">
        <ele>31.8</ele>
        <time>2020-09-30T13:25:16Z</time>
      </trkpt>
      <trkpt lat="49.92331" lon="2.53287">
        <ele>31.8</ele>
        <time>2020-09-30T13:25:17Z</time>
      </trkpt>
      <trkpt lat="49.92331" lon="2.53283">
        <ele>31.8</ele>
        <time>2020-09-30T13:25:18Z</time>
      </trkpt>
      <trkpt lat="49.92331" lon="2.53281">
        <ele>31.8</ele>
        <time>2020-09-30T13:25:19Z</time>
      </trkpt>
      <trkpt lat="49.9233" lon="2.53278">
        <ele>31.8</ele>
        <time>2020-09-30T13:25:21Z</time>
      </trkpt>
      <trkpt lat="49.9233" lon="2.53276">
        <ele>31.8</ele>
        <time>2020-09-30T13:25:22Z</time>
      </trkpt>
      <trkpt lat="49.9233" lon="2.53274">
        <ele>31.8</ele>
        <time>2020-09-30T13:25:23Z</time>
      </trkpt>
      <trkpt lat="49.9233" lon="2.53272">
        <ele>31.8</ele>
        <time>2020-09-30T13:25:24Z</time>
      </trkpt>
      <trkpt lat="49.92329" lon="2.5327">
        <ele>31.8</ele>
        <time>2020-09-30T13:25:25Z</time>
      </trkpt>
      <trkpt lat="49.92329" lon="2.53268">
        <ele>31.8</ele>
        <time>2020-09-30T13:25:27Z</time>
      </trkpt>
      <trkpt lat="49.92328" lon="2.53264">
        <ele>31.8</ele>
        <time>2020-09-30T13:25:28Z</time>
      </trkpt>
      <trkpt lat="49.92328" lon="2.53262">
        <ele>31.8</ele>
        <time>2020-09-30T13:25:29Z</time>
      </trkpt>
      <trkpt lat="49.92327" lon="2.53261">
        <ele>31.8</ele>
        <time>2020-09-30T13:25:30Z</time>
      </trkpt>
      <trkpt lat="49.92327" lon="2.53259">
        <ele>31.8</ele>
        <time>2020-09-30T13:25:31Z</time>
      </trkpt>
      <trkpt lat="49.92327" lon="2.53257">
        <ele>31.8</ele>
        <time>2020-09-30T13:25:32Z</time>
      </trkpt>
      <trkpt lat="49.92326" lon="2.53255">
        <ele>31.8</ele>
        <time>2020-09-30T13:25:33Z</time>
      </trkpt>
      <trkpt lat="49.92326" lon="2.53252">
        <ele>31.9</ele>
        <time>2020-09-30T13:25:35Z</time>
      </trkpt>
      <trkpt lat="49.92325" lon="2.53249">
        <ele>31.9</ele>
        <time>2020-09-30T13:25:36Z</time>
      </trkpt>
      <trkpt lat="49.92325" lon="2.53247">
        <ele>31.9</ele>
        <time>2020-09-30T13:25:37Z</time>
      </trkpt>
      <trkpt lat="49.92325" lon="2.53246">
        <ele>31.9</ele>
        <time>2020-09-30T13:25:38Z</time>
      </trkpt>
      <trkpt lat="49.92324" lon="2.53241">
        <ele>31.9</ele>
        <time>2020-09-30T13:25:39Z</time>
      </trkpt>
      <trkpt lat="49.92324" lon="2.5324">
        <ele>31.9</ele>
        <time>2020-09-30T13:25:40Z</time>
      </trkpt>
      <trkpt lat="49.92324" lon="2.53237">
        <ele>31.9</ele>
        <time>2020-09-30T13:25:41Z</time>
      </trkpt>
      <trkpt lat="49.92323" lon="2.53235">
        <ele>31.9</ele>
        <time>2020-09-30T13:25:43Z</time>
      </trkpt>
      <trkpt lat="49.92323" lon="2.53231">
        <ele>31.9</ele>
        <time>2020-09-30T13:25:44Z</time>
      </trkpt>
      <trkpt lat="49.92322" lon="2.5323">
        <ele>31.9</ele>
        <time>2020-09-30T13:25:45Z</time>
      </trkpt>
      <trkpt lat="49.92321" lon="2.53227">
        <ele>31.9</ele>
        <time>2020-09-30T13:25:46Z</time>
      </trkpt>
      <trkpt lat="49.92321" lon="2.53226">
        <ele>31.9</ele>
        <time>2020-09-30T13:25:47Z</time>
      </trkpt>
      <trkpt lat="49.9232" lon="2.53225">
        <ele>31.9</ele>
        <time>2020-09-30T13:25:48Z</time>
      </trkpt>
      <trkpt lat="49.92319" lon="2.53222">
        <ele>31.9</ele>
        <time>2020-09-30T13:25:49Z</time>
      </trkpt>
      <trkpt lat="49.92319" lon="2.53221">
        <ele>31.9</ele>
        <time>2020-09-30T13:25:51Z</time>
      </trkpt>
      <trkpt lat="49.92318" lon="2.53218">
        <ele>31.9</ele>
        <time>2020-09-30T13:25:52Z</time>
      </trkpt>
      <trkpt lat="49.92317" lon="2.53217">
        <ele>31.9</ele>
        <time>2020-09-30T13:25:53Z</time>
      </trkpt>
      <trkpt lat="49.92316" lon="2.53214">
        <ele>31.9</ele>
        <time>2020-09-30T13:25:54Z</time>
      </trkpt>
      <trkpt lat="49.92316" lon="2.53212">
        <ele>31.9</ele>
        <time>2020-09-30T13:25:55Z</time>
      </trkpt>
      <trkpt lat="49.92315" lon="2.5321">
        <ele>31.9</ele>
        <time>2020-09-30T13:25:56Z</time>
      </trkpt>
      <trkpt lat="49.92314" lon="2.53209">
        <ele>31.8</ele>
        <time>2020-09-30T13:25:57Z</time>
      </trkpt>
      <trkpt lat="49.92313" lon="2.53206">
        <ele>31.8</ele>
        <time>2020-09-30T13:25:59Z</time>
      </trkpt>
      <trkpt lat="49.92313" lon="2.53205">
        <ele>31.8</ele>
        <time>2020-09-30T13:26:00Z</time>
      </trkpt>
      <trkpt lat="49.92312" lon="2.53203">
        <ele>31.8</ele>
        <time>2020-09-30T13:26:01Z</time>
      </trkpt>
      <trkpt lat="49.9231" lon="2.53201">
        <ele>31.7</ele>
        <time>2020-09-30T13:26:03Z</time>
      </trkpt>
      <trkpt lat="49.92309" lon="2.53198">
        <ele>31.7</ele>
        <time>2020-09-30T13:26:04Z</time>
      </trkpt>
      <trkpt lat="49.92308" lon="2.53197">
        <ele>31.7</ele>
        <time>2020-09-30T13:26:05Z</time>
      </trkpt>
      <trkpt lat="49.92307" lon="2.53196">
        <ele>31.7</ele>
        <time>2020-09-30T13:26:06Z</time>
      </trkpt>
      <trkpt lat="49.92306" lon="2.53194">
        <ele>31.7</ele>
        <time>2020-09-30T13:26:07Z</time>
      </trkpt>
      <trkpt lat="49.92304" lon="2.53192">
        <ele>31.7</ele>
        <time>2020-09-30T13:26:08Z</time>
      </trkpt>
      <trkpt lat="49.92303" lon="2.53191">
        <ele>31.7</ele>
        <time>2020-09-30T13:26:09Z</time>
      </trkpt>
      <trkpt lat="49.92302" lon="2.53189">
        <ele>31.7</ele>
        <time>2020-09-30T13:26:11Z</time>
      </trkpt>
      <trkpt lat="49.92301" lon="2.53188">
        <ele>31.7</ele>
        <time>2020-09-30T13:26:12Z</time>
      </trkpt>
      <trkpt lat="49.923" lon="2.53188">
        <ele>31.7</ele>
        <time>2020-09-30T13:26:13Z</time>
      </trkpt>
      <trkpt lat="49.92299" lon="2.53186">
        <ele>31.7</ele>
        <time>2020-09-30T13:26:14Z</time>
      </trkpt>
      <trkpt lat="49.92298" lon="2.53185">
        <ele>31.7</ele>
        <time>2020-09-30T13:26:15Z</time>
      </trkpt>
      <trkpt lat="49.92297" lon="2.53184">
        <ele>31.7</ele>
        <time>2020-09-30T13:26:16Z</time>
      </trkpt>
      <trkpt lat="49.92296" lon="2.53183">
        <ele>31.7</ele>
        <time>2020-09-30T13:26:17Z</time>
      </trkpt>
      <trkpt lat="49.92294" lon="2.53181">
        <ele>31.7</ele>
        <time>2020-09-30T13:26:19Z</time>
      </trkpt>
      <trkpt lat="49.92292" lon="2.53178">
        <ele>31.7</ele>
        <time>2020-09-30T13:26:20Z</time>
      </trkpt>
      <trkpt lat="49.92291" lon="2.53177">
        <ele>31.7</ele>
        <time>2020-09-30T13:26:22Z</time>
      </trkpt>
      <trkpt lat="49.9229" lon="2.53176">
        <ele>31.7</ele>
        <time>2020-09-30T13:26:23Z</time>
      </trkpt>
      <trkpt lat="49.92289" lon="2.53175">
        <ele>31.7</ele>
        <time>2020-09-30T13:26:24Z</time>
      </trkpt>
      <trkpt lat="49.92287" lon="2.53174">
        <ele>31.7</ele>
        <time>2020-09-30T13:26:26Z</time>
      </trkpt>
      <trkpt lat="49.92286" lon="2.53173">
        <ele>31.7</ele>
        <time>2020-09-30T13:26:27Z</time>
      </trkpt>
      <trkpt lat="49.92285" lon="2.53172">
        <ele>31.7</ele>
        <time>2020-09-30T13:26:28Z</time>
      </trkpt>
      <trkpt lat="49.92283" lon="2.5317">
        <ele>31.7</ele>
        <time>2020-09-30T13:26:29Z</time>
      </trkpt>
      <trkpt lat="49.92282" lon="2.53169">
        <ele>31.7</ele>
        <time>2020-09-30T13:26:30Z</time>
      </trkpt>
      <trkpt lat="49.92281" lon="2.53168">
        <ele>31.7</ele>
        <time>2020-09-30T13:26:31Z</time>
      </trkpt>
      <trkpt lat="49.92279" lon="2.53166">
        <ele>31.7</ele>
        <time>2020-09-30T13:26:32Z</time>
      </trkpt>
      <trkpt lat="49.92278" lon="2.53166">
        <ele>31.7</ele>
        <time>2020-09-30T13:26:33Z</time>
      </trkpt>
      <trkpt lat="49.92277" lon="2.53165">
        <ele>31.7</ele>
        <time>2020-09-30T13:26:34Z</time>
      </trkpt>
      <trkpt lat="49.92277" lon="2.53164">
        <ele>31.7</ele>
        <time>2020-09-30T13:26:35Z</time>
      </trkpt>
      <trkpt lat="49.92275" lon="2.53164">
        <ele>31.8</ele>
        <time>2020-09-30T13:26:36Z</time>
      </trkpt>
      <trkpt lat="49.92274" lon="2.53163">
        <ele>31.8</ele>
        <time>2020-09-30T13:26:37Z</time>
      </trkpt>
      <trkpt lat="49.92272" lon="2.53161">
        <ele>31.8</ele>
        <time>2020-09-30T13:26:39Z</time>
      </trkpt>
      <trkpt lat="49.92271" lon="2.53161">
        <ele>31.8</ele>
        <time>2020-09-30T13:26:40Z</time>
      </trkpt>
      <trkpt lat="49.92269" lon="2.5316">
        <ele>31.8</ele>
        <time>2020-09-30T13:26:41Z</time>
      </trkpt>
      <trkpt lat="49.92268" lon="2.53159">
        <ele>31.8</ele>
        <time>2020-09-30T13:26:42Z</time>
      </trkpt>
      <trkpt lat="49.92268" lon="2.53159">
        <ele>31.8</ele>
        <time>2020-09-30T13:26:43Z</time>
      </trkpt>
      <trkpt lat="49.92266" lon="2.53158">
        <ele>31.8</ele>
        <time>2020-09-30T13:26:44Z</time>
      </trkpt>
      <trkpt lat="49.92265" lon="2.53157">
        <ele>31.8</ele>
        <time>2020-09-30T13:26:45Z</time>
      </trkpt>
      <trkpt lat="49.92264" lon="2.53156">
        <ele>31.8</ele>
        <time>2020-09-30T13:26:46Z</time>
      </trkpt>
      <trkpt lat="49.92263" lon="2.53156">
        <ele>31.8</ele>
        <time>2020-09-30T13:26:47Z</time>
      </trkpt>
      <trkpt lat="49.92261" lon="2.53154">
        <ele>31.8</ele>
        <time>2020-09-30T13:26:49Z</time>
      </trkpt>
      <trkpt lat="49.9226" lon="2.53152">
        <ele>31.8</ele>
        <time>2020-09-30T13:26:50Z</time>
      </trkpt>
      <trkpt lat="49.92259" lon="2.53151">
        <ele>31.8</ele>
        <time>2020-09-30T13:26:51Z</time>
      </trkpt>
      <trkpt lat="49.92258" lon="2.53151">
        <ele>31.8</ele>
        <time>2020-09-30T13:26:52Z</time>
      </trkpt>
      <trkpt lat="49.92257" lon="2.53149">
        <ele>31.8</ele>
        <time>2020-09-30T13:26:53Z</time>
      </trkpt>
      <trkpt lat="49.92255" lon="2.53147">
        <ele>31.8</ele>
        <time>2020-09-30T13:26:54Z</time>
      </trkpt>
      <trkpt lat="49.92254" lon="2.53146">
        <ele>31.8</ele>
        <time>2020-09-30T13:26:55Z</time>
      </trkpt>
      <trkpt lat="49.92254" lon="2.53145">
        <ele>31.8</ele>
        <time>2020-09-30T13:26:56Z</time>
      </trkpt>
      <trkpt lat="49.92253" lon="2.53144">
        <ele>31.8</ele>
        <time>2020-09-30T13:26:58Z</time>
      </trkpt>
      <trkpt lat="49.92251" lon="2.53141">
        <ele>31.8</ele>
        <time>2020-09-30T13:26:59Z</time>
      </trkpt>
      <trkpt lat="49.9225" lon="2.53139">
        <ele>31.8</ele>
        <time>2020-09-30T13:27:00Z</time>
      </trkpt>
      <trkpt lat="49.92249" lon="2.53137">
        <ele>31.8</ele>
        <time>2020-09-30T13:27:01Z</time>
      </trkpt>
      <trkpt lat="49.92248" lon="2.53136">
        <ele>31.8</ele>
        <time>2020-09-30T13:27:02Z</time>
      </trkpt>
      <trkpt lat="49.92247" lon="2.53134">
        <ele>31.8</ele>
        <time>2020-09-30T13:27:03Z</time>
      </trkpt>
      <trkpt lat="49.92245" lon="2.53132">
        <ele>31.8</ele>
        <time>2020-09-30T13:27:04Z</time>
      </trkpt>
      <trkpt lat="49.92245" lon="2.53131">
        <ele>31.8</ele>
        <time>2020-09-30T13:27:06Z</time>
      </trkpt>
      <trkpt lat="49.92244" lon="2.53129">
        <ele>31.8</ele>
        <time>2020-09-30T13:27:07Z</time>
      </trkpt>
      <trkpt lat="49.92243" lon="2.53127">
        <ele>31.8</ele>
        <time>2020-09-30T13:27:09Z</time>
      </trkpt>
      <trkpt lat="49.92241" lon="2.53124">
        <ele>31.8</ele>
        <time>2020-09-30T13:27:10Z</time>
      </trkpt>
      <trkpt lat="49.9224" lon="2.53123">
        <ele>31.8</ele>
        <time>2020-09-30T13:27:11Z</time>
      </trkpt>
      <trkpt lat="49.92238" lon="2.53121">
        <ele>31.8</ele>
        <time>2020-09-30T13:27:12Z</time>
      </trkpt>
      <trkpt lat="49.92238" lon="2.5312">
        <ele>31.8</ele>
        <time>2020-09-30T13:27:13Z</time>
      </trkpt>
      <trkpt lat="49.92237" lon="2.53119">
        <ele>31.8</ele>
        <time>2020-09-30T13:27:14Z</time>
      </trkpt>
      <trkpt lat="49.92236" lon="2.53118">
        <ele>31.8</ele>
        <time>2020-09-30T13:27:15Z</time>
      </trkpt>
      <trkpt lat="49.92235" lon="2.53116">
        <ele>31.8</ele>
        <time>2020-09-30T13:27:17Z</time>
      </trkpt>
      <trkpt lat="49.92234" lon="2.53115">
        <ele>31.8</ele>
        <time>2020-09-30T13:27:18Z</time>
      </trkpt>
      <trkpt lat="49.92233" lon="2.53114">
        <ele>31.8</ele>
        <time>2020-09-30T13:27:19Z</time>
      </trkpt>
      <trkpt lat="49.92232" lon="2.53111">
        <ele>31.8</ele>
        <time>2020-09-30T13:27:20Z</time>
      </trkpt>
      <trkpt lat="49.9223" lon="2.53109">
        <ele>31.8</ele>
        <time>2020-09-30T13:27:21Z</time>
      </trkpt>
      <trkpt lat="49.9223" lon="2.53108">
        <ele>31.8</ele>
        <time>2020-09-30T13:27:22Z</time>
      </trkpt>
      <trkpt lat="49.92229" lon="2.53107">
        <ele>31.8</ele>
        <time>2020-09-30T13:27:23Z</time>
      </trkpt>
      <trkpt lat="49.92228" lon="2.53105">
        <ele>31.8</ele>
        <time>2020-09-30T13:27:24Z</time>
      </trkpt>
      <trkpt lat="49.92227" lon="2.53103">
        <ele>31.8</ele>
        <time>2020-09-30T13:27:26Z</time>
      </trkpt>
      <trkpt lat="49.92226" lon="2.53102">
        <ele>31.8</ele>
        <time>2020-09-30T13:27:27Z</time>
      </trkpt>
      <trkpt lat="49.92225" lon="2.531">
        <ele>31.8</ele>
        <time>2020-09-30T13:27:28Z</time>
      </trkpt>
      <trkpt lat="49.92223" lon="2.53097">
        <ele>31.8</ele>
        <time>2020-09-30T13:27:29Z</time>
      </trkpt>
      <trkpt lat="49.92222" lon="2.53096">
        <ele>31.8</ele>
        <time>2020-09-30T13:27:30Z</time>
      </trkpt>
      <trkpt lat="49.92221" lon="2.53094">
        <ele>31.8</ele>
        <time>2020-09-30T13:27:31Z</time>
      </trkpt>
      <trkpt lat="49.9222" lon="2.53093">
        <ele>31.8</ele>
        <time>2020-09-30T13:27:32Z</time>
      </trkpt>
      <trkpt lat="49.9222" lon="2.53092">
        <ele>31.8</ele>
        <time>2020-09-30T13:27:33Z</time>
      </trkpt>
      <trkpt lat="49.92218" lon="2.53089">
        <ele>31.8</ele>
        <time>2020-09-30T13:27:35Z</time>
      </trkpt>
      <trkpt lat="49.92217" lon="2.53089">
        <ele>31.8</ele>
        <time>2020-09-30T13:27:36Z</time>
      </trkpt>
      <trkpt lat="49.92215" lon="2.53088">
        <ele>31.8</ele>
        <time>2020-09-30T13:27:37Z</time>
      </trkpt>
      <trkpt lat="49.92214" lon="2.53087">
        <ele>31.7</ele>
        <time>2020-09-30T13:27:38Z</time>
      </trkpt>
      <trkpt lat="49.92213" lon="2.53087">
        <ele>31.7</ele>
        <time>2020-09-30T13:27:39Z</time>
      </trkpt>
      <trkpt lat="49.92212" lon="2.53085">
        <ele>31.7</ele>
        <time>2020-09-30T13:27:40Z</time>
      </trkpt>
      <trkpt lat="49.92212" lon="2.53084">
        <ele>31.7</ele>
        <time>2020-09-30T13:27:41Z</time>
      </trkpt>
      <trkpt lat="49.92211" lon="2.53082">
        <ele>31.7</ele>
        <time>2020-09-30T13:27:43Z</time>
      </trkpt>
      <trkpt lat="49.9221" lon="2.53081">
        <ele>31.7</ele>
        <time>2020-09-30T13:27:44Z</time>
      </trkpt>
      <trkpt lat="49.92209" lon="2.53078">
        <ele>31.7</ele>
        <time>2020-09-30T13:27:45Z</time>
      </trkpt>
      <trkpt lat="49.92209" lon="2.53077">
        <ele>31.7</ele>
        <time>2020-09-30T13:27:46Z</time>
      </trkpt>
      <trkpt lat="49.92208" lon="2.53075">
        <ele>31.7</ele>
        <time>2020-09-30T13:27:47Z</time>
      </trkpt>
      <trkpt lat="49.92208" lon="2.53073">
        <ele>31.7</ele>
        <time>2020-09-30T13:27:49Z</time>
      </trkpt>
      <trkpt lat="49.92207" lon="2.53071">
        <ele>31.7</ele>
        <time>2020-09-30T13:27:50Z</time>
      </trkpt>
      <trkpt lat="49.92207" lon="2.53069">
        <ele>31.7</ele>
        <time>2020-09-30T13:27:51Z</time>
      </trkpt>
      <trkpt lat="49.92207" lon="2.53068">
        <ele>31.7</ele>
        <time>2020-09-30T13:27:52Z</time>
      </trkpt>
      <trkpt lat="49.92206" lon="2.53066">
        <ele>31.7</ele>
        <time>2020-09-30T13:27:53Z</time>
      </trkpt>
      <trkpt lat="49.92204" lon="2.53063">
        <ele>31.7</ele>
        <time>2020-09-30T13:27:55Z</time>
      </trkpt>
      <trkpt lat="49.92203" lon="2.53063">
        <ele>31.7</ele>
        <time>2020-09-30T13:27:56Z</time>
      </trkpt>
      <trkpt lat="49.92202" lon="2.53062">
        <ele>31.7</ele>
        <time>2020-09-30T13:27:57Z</time>
      </trkpt>
      <trkpt lat="49.92202" lon="2.53061">
        <ele>31.7</ele>
        <time>2020-09-30T13:27:58Z</time>
      </trkpt>
      <trkpt lat="49.922" lon="2.53056">
        <ele>31.8</ele>
        <time>2020-09-30T13:28:00Z</time>
      </trkpt>
      <trkpt lat="49.922" lon="2.53055">
        <ele>31.8</ele>
        <time>2020-09-30T13:28:01Z</time>
      </trkpt>
      <trkpt lat="49.92199" lon="2.53053">
        <ele>31.8</ele>
        <time>2020-09-30T13:28:02Z</time>
      </trkpt>
      <trkpt lat="49.92198" lon="2.5305">
        <ele>31.8</ele>
        <time>2020-09-30T13:28:03Z</time>
      </trkpt>
      <trkpt lat="49.92197" lon="2.53047">
        <ele>31.8</ele>
        <time>2020-09-30T13:28:04Z</time>
      </trkpt>
      <trkpt lat="49.92197" lon="2.53045">
        <ele>31.8</ele>
        <time>2020-09-30T13:28:05Z</time>
      </trkpt>
      <trkpt lat="49.92196" lon="2.53043">
        <ele>31.8</ele>
        <time>2020-09-30T13:28:07Z</time>
      </trkpt>
      <trkpt lat="49.92195" lon="2.5304">
        <ele>31.8</ele>
        <time>2020-09-30T13:28:08Z</time>
      </trkpt>
      <trkpt lat="49.92193" lon="2.53035">
        <ele>31.8</ele>
        <time>2020-09-30T13:28:10Z</time>
      </trkpt>
      <trkpt lat="49.92193" lon="2.53034">
        <ele>31.8</ele>
        <time>2020-09-30T13:28:11Z</time>
      </trkpt>
      <trkpt lat="49.92193" lon="2.53032">
        <ele>31.7</ele>
        <time>2020-09-30T13:28:12Z</time>
      </trkpt>
      <trkpt lat="49.92192" lon="2.53031">
        <ele>31.7</ele>
        <time>2020-09-30T13:28:13Z</time>
      </trkpt>
      <trkpt lat="49.92191" lon="2.53028">
        <ele>31.7</ele>
        <time>2020-09-30T13:28:14Z</time>
      </trkpt>
      <trkpt lat="49.9219" lon="2.53027">
        <ele>31.7</ele>
        <time>2020-09-30T13:28:15Z</time>
      </trkpt>
      <trkpt lat="49.9219" lon="2.53026">
        <ele>31.7</ele>
        <time>2020-09-30T13:28:16Z</time>
      </trkpt>
      <trkpt lat="49.92189" lon="2.53024">
        <ele>31.7</ele>
        <time>2020-09-30T13:28:18Z</time>
      </trkpt>
      <trkpt lat="49.92188" lon="2.53023">
        <ele>31.7</ele>
        <time>2020-09-30T13:28:19Z</time>
      </trkpt>
      <trkpt lat="49.92187" lon="2.5302">
        <ele>31.7</ele>
        <time>2020-09-30T13:28:20Z</time>
      </trkpt>
      <trkpt lat="49.92187" lon="2.53019">
        <ele>31.7</ele>
        <time>2020-09-30T13:28:21Z</time>
      </trkpt>
      <trkpt lat="49.92186" lon="2.53018">
        <ele>31.7</ele>
        <time>2020-09-30T13:28:22Z</time>
      </trkpt>
      <trkpt lat="49.92185" lon="2.53015">
        <ele>31.7</ele>
        <time>2020-09-30T13:28:23Z</time>
      </trkpt>
      <trkpt lat="49.92184" lon="2.53013">
        <ele>31.7</ele>
        <time>2020-09-30T13:28:24Z</time>
      </trkpt>
      <trkpt lat="49.92184" lon="2.53012">
        <ele>31.7</ele>
        <time>2020-09-30T13:28:25Z</time>
      </trkpt>
      <trkpt lat="49.92183" lon="2.53011">
        <ele>31.7</ele>
        <time>2020-09-30T13:28:26Z</time>
      </trkpt>
      <trkpt lat="49.92182" lon="2.53009">
        <ele>31.7</ele>
        <time>2020-09-30T13:28:27Z</time>
      </trkpt>
      <trkpt lat="49.92181" lon="2.53008">
        <ele>31.7</ele>
        <time>2020-09-30T13:28:28Z</time>
      </trkpt>
      <trkpt lat="49.9218" lon="2.53006">
        <ele>31.7</ele>
        <time>2020-09-30T13:28:29Z</time>
      </trkpt>
      <trkpt lat="49.92179" lon="2.53005">
        <ele>31.7</ele>
        <time>2020-09-30T13:28:30Z</time>
      </trkpt>
      <trkpt lat="49.92177" lon="2.53003">
        <ele>31.7</ele>
        <time>2020-09-30T13:28:32Z</time>
      </trkpt>
      <trkpt lat="49.92177" lon="2.53002">
        <ele>31.7</ele>
        <time>2020-09-30T13:28:33Z</time>
      </trkpt>
      <trkpt lat="49.92176" lon="2.53001">
        <ele>31.7</ele>
        <time>2020-09-30T13:28:34Z</time>
      </trkpt>
      <trkpt lat="49.92174" lon="2.52999">
        <ele>31.7</ele>
        <time>2020-09-30T13:28:35Z</time>
      </trkpt>
      <trkpt lat="49.92174" lon="2.52999">
        <ele>31.7</ele>
        <time>2020-09-30T13:28:36Z</time>
      </trkpt>
      <trkpt lat="49.92172" lon="2.52996">
        <ele>31.7</ele>
        <time>2020-09-30T13:28:37Z</time>
      </trkpt>
      <trkpt lat="49.92171" lon="2.52995">
        <ele>31.7</ele>
        <time>2020-09-30T13:28:38Z</time>
      </trkpt>
      <trkpt lat="49.9217" lon="2.52994">
        <ele>31.7</ele>
        <time>2020-09-30T13:28:39Z</time>
      </trkpt>
      <trkpt lat="49.92168" lon="2.52992">
        <ele>31.7</ele>
        <time>2020-09-30T13:28:41Z</time>
      </trkpt>
      <trkpt lat="49.92167" lon="2.52991">
        <ele>31.7</ele>
        <time>2020-09-30T13:28:42Z</time>
      </trkpt>
      <trkpt lat="49.92167" lon="2.5299">
        <ele>31.7</ele>
        <time>2020-09-30T13:28:43Z</time>
      </trkpt>
      <trkpt lat="49.92165" lon="2.52987">
        <ele>31.7</ele>
        <time>2020-09-30T13:28:45Z</time>
      </trkpt>
      <trkpt lat="49.92164" lon="2.52986">
        <ele>31.7</ele>
        <time>2020-09-30T13:28:46Z</time>
      </trkpt>
      <trkpt lat="49.92163" lon="2.52985">
        <ele>31.7</ele>
        <time>2020-09-30T13:28:47Z</time>
      </trkpt>
      <trkpt lat="49.92162" lon="2.52983">
        <ele>31.7</ele>
        <time>2020-09-30T13:28:49Z</time>
      </trkpt>
      <trkpt lat="49.9216" lon="2.52981">
        <ele>31.7</ele>
        <time>2020-09-30T13:28:50Z</time>
      </trkpt>
      <trkpt lat="49.92159" lon="2.5298">
        <ele>31.7</ele>
        <time>2020-09-30T13:28:51Z</time>
      </trkpt>
      <trkpt lat="49.92159" lon="2.52979">
        <ele>31.7</ele>
        <time>2020-09-30T13:28:52Z</time>
      </trkpt>
      <trkpt lat="49.92157" lon="2.52977">
        <ele>31.7</ele>
        <time>2020-09-30T13:28:53Z</time>
      </trkpt>
      <trkpt lat="49.92156" lon="2.52975">
        <ele>31.7</ele>
        <time>2020-09-30T13:28:55Z</time>
      </trkpt>
      <trkpt lat="49.92154" lon="2.52973">
        <ele>31.7</ele>
        <time>2020-09-30T13:28:56Z</time>
      </trkpt>
      <trkpt lat="49.92153" lon="2.52972">
        <ele>31.7</ele>
        <time>2020-09-30T13:28:57Z</time>
      </trkpt>
      <trkpt lat="49.92152" lon="2.52971">
        <ele>31.7</ele>
        <time>2020-09-30T13:28:58Z</time>
      </trkpt>
      <trkpt lat="49.92151" lon="2.5297">
        <ele>31.7</ele>
        <time>2020-09-30T13:28:59Z</time>
      </trkpt>
      <trkpt lat="49.92148" lon="2.52967">
        <ele>31.7</ele>
        <time>2020-09-30T13:29:01Z</time>
      </trkpt>
      <trkpt lat="49.92148" lon="2.52966">
        <ele>31.7</ele>
        <time>2020-09-30T13:29:02Z</time>
      </trkpt>
      <trkpt lat="49.92147" lon="2.52965">
        <ele>31.7</ele>
        <time>2020-09-30T13:29:03Z</time>
      </trkpt>
      <trkpt lat="49.92145" lon="2.52964">
        <ele>31.7</ele>
        <time>2020-09-30T13:29:04Z</time>
      </trkpt>
      <trkpt lat="49.92144" lon="2.52962">
        <ele>31.7</ele>
        <time>2020-09-30T13:29:06Z</time>
      </trkpt>
      <trkpt lat="49.92143" lon="2.52961">
        <ele>31.7</ele>
        <time>2020-09-30T13:29:07Z</time>
      </trkpt>
      <trkpt lat="49.92142" lon="2.52961">
        <ele>31.7</ele>
        <time>2020-09-30T13:29:08Z</time>
      </trkpt>
      <trkpt lat="49.9214" lon="2.52959">
        <ele>31.7</ele>
        <time>2020-09-30T13:29:09Z</time>
      </trkpt>
      <trkpt lat="49.92139" lon="2.52958">
        <ele>31.7</ele>
        <time>2020-09-30T13:29:10Z</time>
      </trkpt>
      <trkpt lat="49.92138" lon="2.52957">
        <ele>31.7</ele>
        <time>2020-09-30T13:29:11Z</time>
      </trkpt>
      <trkpt lat="49.92137" lon="2.52956">
        <ele>31.7</ele>
        <time>2020-09-30T13:29:12Z</time>
      </trkpt>
      <trkpt lat="49.92136" lon="2.52955">
        <ele>31.7</ele>
        <time>2020-09-30T13:29:13Z</time>
      </trkpt>
      <trkpt lat="49.92134" lon="2.52954">
        <ele>31.7</ele>
        <time>2020-09-30T13:29:14Z</time>
      </trkpt>
      <trkpt lat="49.92133" lon="2.52953">
        <ele>31.7</ele>
        <time>2020-09-30T13:29:15Z</time>
      </trkpt>
      <trkpt lat="49.92131" lon="2.52952">
        <ele>31.7</ele>
        <time>2020-09-30T13:29:17Z</time>
      </trkpt>
      <trkpt lat="49.9213" lon="2.52952">
        <ele>31.7</ele>
        <time>2020-09-30T13:29:18Z</time>
      </trkpt>
      <trkpt lat="49.92129" lon="2.52951">
        <ele>31.7</ele>
        <time>2020-09-30T13:29:19Z</time>
      </trkpt>
      <trkpt lat="49.92127" lon="2.52949">
        <ele>31.7</ele>
        <time>2020-09-30T13:29:20Z</time>
      </trkpt>
      <trkpt lat="49.92126" lon="2.52949">
        <ele>31.7</ele>
        <time>2020-09-30T13:29:21Z</time>
      </trkpt>
      <trkpt lat="49.92125" lon="2.52948">
        <ele>31.7</ele>
        <time>2020-09-30T13:29:22Z</time>
      </trkpt>
      <trkpt lat="49.92124" lon="2.52947">
        <ele>31.7</ele>
        <time>2020-09-30T13:29:23Z</time>
      </trkpt>
      <trkpt lat="49.92122" lon="2.52946">
        <ele>31.7</ele>
        <time>2020-09-30T13:29:25Z</time>
      </trkpt>
      <trkpt lat="49.92121" lon="2.52945">
        <ele>31.7</ele>
        <time>2020-09-30T13:29:27Z</time>
      </trkpt>
      <trkpt lat="49.9212" lon="2.52945">
        <ele>31.7</ele>
        <time>2020-09-30T13:29:28Z</time>
      </trkpt>
      <trkpt lat="49.92119" lon="2.52944">
        <ele>31.7</ele>
        <time>2020-09-30T13:29:29Z</time>
      </trkpt>
      <trkpt lat="49.92117" lon="2.52943">
        <ele>31.7</ele>
        <time>2020-09-30T13:29:30Z</time>
      </trkpt>
      <trkpt lat="49.92116" lon="2.52943">
        <ele>31.7</ele>
        <time>2020-09-30T13:29:31Z</time>
      </trkpt>
      <trkpt lat="49.92115" lon="2.52942">
        <ele>31.8</ele>
        <time>2020-09-30T13:29:32Z</time>
      </trkpt>
      <trkpt lat="49.92114" lon="2.52942">
        <ele>31.8</ele>
        <time>2020-09-30T13:29:33Z</time>
      </trkpt>
      <trkpt lat="49.92113" lon="2.52941">
        <ele>31.8</ele>
        <time>2020-09-30T13:29:34Z</time>
      </trkpt>
      <trkpt lat="49.92112" lon="2.5294">
        <ele>31.8</ele>
        <time>2020-09-30T13:29:36Z</time>
      </trkpt>
      <trkpt lat="49.92111" lon="2.52939">
        <ele>31.8</ele>
        <time>2020-09-30T13:29:37Z</time>
      </trkpt>
      <trkpt lat="49.9211" lon="2.52939">
        <ele>31.8</ele>
        <time>2020-09-30T13:29:38Z</time>
      </trkpt>
      <trkpt lat="49.92109" lon="2.52938">
        <ele>31.8</ele>
        <time>2020-09-30T13:29:39Z</time>
      </trkpt>
      <trkpt lat="49.92107" lon="2.52937">
        <ele>31.8</ele>
        <time>2020-09-30T13:29:40Z</time>
      </trkpt>
      <trkpt lat="49.92107" lon="2.52936">
        <ele>31.8</ele>
        <time>2020-09-30T13:29:41Z</time>
      </trkpt>
      <trkpt lat="49.92106" lon="2.52935">
        <ele>31.8</ele>
        <time>2020-09-30T13:29:42Z</time>
      </trkpt>
      <trkpt lat="49.92105" lon="2.52934">
        <ele>31.8</ele>
        <time>2020-09-30T13:29:43Z</time>
      </trkpt>
      <trkpt lat="49.92104" lon="2.52933">
        <ele>31.8</ele>
        <time>2020-09-30T13:29:44Z</time>
      </trkpt>
      <trkpt lat="49.92103" lon="2.52931">
        <ele>31.8</ele>
        <time>2020-09-30T13:29:45Z</time>
      </trkpt>
      <trkpt lat="49.92102" lon="2.5293">
        <ele>31.8</ele>
        <time>2020-09-30T13:29:47Z</time>
      </trkpt>
      <trkpt lat="49.921" lon="2.52929">
        <ele>31.8</ele>
        <time>2020-09-30T13:29:48Z</time>
      </trkpt>
      <trkpt lat="49.92099" lon="2.52928">
        <ele>31.8</ele>
        <time>2020-09-30T13:29:49Z</time>
      </trkpt>
      <trkpt lat="49.92098" lon="2.52926">
        <ele>31.8</ele>
        <time>2020-09-30T13:29:50Z</time>
      </trkpt>
      <trkpt lat="49.92097" lon="2.52925">
        <ele>31.8</ele>
        <time>2020-09-30T13:29:51Z</time>
      </trkpt>
      <trkpt lat="49.92096" lon="2.52924">
        <ele>31.8</ele>
        <time>2020-09-30T13:29:53Z</time>
      </trkpt>
      <trkpt lat="49.92095" lon="2.52923">
        <ele>31.8</ele>
        <time>2020-09-30T13:29:54Z</time>
      </trkpt>
      <trkpt lat="49.92093" lon="2.5292">
        <ele>31.8</ele>
        <time>2020-09-30T13:29:55Z</time>
      </trkpt>
      <trkpt lat="49.92092" lon="2.52919">
        <ele>31.8</ele>
        <time>2020-09-30T13:29:56Z</time>
      </trkpt>
      <trkpt lat="49.92091" lon="2.52918">
        <ele>31.8</ele>
        <time>2020-09-30T13:29:57Z</time>
      </trkpt>
      <trkpt lat="49.9209" lon="2.52916">
        <ele>31.8</ele>
        <time>2020-09-30T13:29:59Z</time>
      </trkpt>
      <trkpt lat="49.92089" lon="2.52915">
        <ele>31.8</ele>
        <time>2020-09-30T13:30:00Z</time>
      </trkpt>
      <trkpt lat="49.92087" lon="2.52913">
        <ele>31.8</ele>
        <time>2020-09-30T13:30:01Z</time>
      </trkpt>
      <trkpt lat="49.92087" lon="2.52912">
        <ele>31.8</ele>
        <time>2020-09-30T13:30:02Z</time>
      </trkpt>
      <trkpt lat="49.92086" lon="2.5291">
        <ele>31.8</ele>
        <time>2020-09-30T13:30:03Z</time>
      </trkpt>
      <trkpt lat="49.92085" lon="2.52909">
        <ele>31.8</ele>
        <time>2020-09-30T13:30:04Z</time>
      </trkpt>
      <trkpt lat="49.92083" lon="2.52906">
        <ele>31.8</ele>
        <time>2020-09-30T13:30:06Z</time>
      </trkpt>
      <trkpt lat="49.92082" lon="2.52905">
        <ele>31.8</ele>
        <time>2020-09-30T13:30:07Z</time>
      </trkpt>
      <trkpt lat="49.9208" lon="2.52902">
        <ele>31.8</ele>
        <time>2020-09-30T13:30:08Z</time>
      </trkpt>
      <trkpt lat="49.92079" lon="2.52901">
        <ele>31.8</ele>
        <time>2020-09-30T13:30:09Z</time>
      </trkpt>
      <trkpt lat="49.92079" lon="2.529">
        <ele>31.8</ele>
        <time>2020-09-30T13:30:10Z</time>
      </trkpt>
      <trkpt lat="49.92078" lon="2.52899">
        <ele>31.8</ele>
        <time>2020-09-30T13:30:12Z</time>
      </trkpt>
      <trkpt lat="49.92077" lon="2.52898">
        <ele>31.8</ele>
        <time>2020-09-30T13:30:13Z</time>
      </trkpt>
      <trkpt lat="49.92076" lon="2.52897">
        <ele>31.8</ele>
        <time>2020-09-30T13:30:14Z</time>
      </trkpt>
      <trkpt lat="49.92075" lon="2.52896">
        <ele>31.8</ele>
        <time>2020-09-30T13:30:15Z</time>
      </trkpt>
      <trkpt lat="49.92073" lon="2.52894">
        <ele>31.9</ele>
        <time>2020-09-30T13:30:16Z</time>
      </trkpt>
      <trkpt lat="49.92073" lon="2.52893">
        <ele>31.9</ele>
        <time>2020-09-30T13:30:17Z</time>
      </trkpt>
      <trkpt lat="49.92072" lon="2.52892">
        <ele>31.9</ele>
        <time>2020-09-30T13:30:18Z</time>
      </trkpt>
      <trkpt lat="49.92071" lon="2.52891">
        <ele>31.9</ele>
        <time>2020-09-30T13:30:19Z</time>
      </trkpt>
      <trkpt lat="49.92069" lon="2.52889">
        <ele>31.9</ele>
        <time>2020-09-30T13:30:21Z</time>
      </trkpt>
      <trkpt lat="49.92069" lon="2.52888">
        <ele>31.9</ele>
        <time>2020-09-30T13:30:22Z</time>
      </trkpt>
      <trkpt lat="49.92068" lon="2.52887">
        <ele>31.9</ele>
        <time>2020-09-30T13:30:23Z</time>
      </trkpt>
      <trkpt lat="49.92067" lon="2.52886">
        <ele>31.9</ele>
        <time>2020-09-30T13:30:24Z</time>
      </trkpt>
      <trkpt lat="49.92066" lon="2.52885">
        <ele>31.9</ele>
        <time>2020-09-30T13:30:25Z</time>
      </trkpt>
      <trkpt lat="49.92064" lon="2.52882">
        <ele>31.9</ele>
        <time>2020-09-30T13:30:26Z</time>
      </trkpt>
      <trkpt lat="49.92063" lon="2.5288">
        <ele>31.9</ele>
        <time>2020-09-30T13:30:28Z</time>
      </trkpt>
      <trkpt lat="49.92062" lon="2.52879">
        <ele>31.9</ele>
        <time>2020-09-30T13:30:29Z</time>
      </trkpt>
      <trkpt lat="49.92061" lon="2.52878">
        <ele>31.9</ele>
        <time>2020-09-30T13:30:30Z</time>
      </trkpt>
      <trkpt lat="49.9206" lon="2.52877">
        <ele>31.9</ele>
        <time>2020-09-30T13:30:31Z</time>
      </trkpt>
      <trkpt lat="49.92059" lon="2.52875">
        <ele>31.9</ele>
        <time>2020-09-30T13:30:32Z</time>
      </trkpt>
      <trkpt lat="49.92059" lon="2.52874">
        <ele>31.9</ele>
        <time>2020-09-30T13:30:33Z</time>
      </trkpt>
      <trkpt lat="49.92058" lon="2.52873">
        <ele>31.9</ele>
        <time>2020-09-30T13:30:35Z</time>
      </trkpt>
      <trkpt lat="49.92056" lon="2.52871">
        <ele>31.9</ele>
        <time>2020-09-30T13:30:36Z</time>
      </trkpt>
      <trkpt lat="49.92056" lon="2.5287">
        <ele>31.9</ele>
        <time>2020-09-30T13:30:37Z</time>
      </trkpt>
      <trkpt lat="49.92055" lon="2.52868">
        <ele>31.9</ele>
        <time>2020-09-30T13:30:38Z</time>
      </trkpt>
      <trkpt lat="49.92054" lon="2.52867">
        <ele>31.9</ele>
        <time>2020-09-30T13:30:39Z</time>
      </trkpt>
      <trkpt lat="49.92052" lon="2.52865">
        <ele>31.9</ele>
        <time>2020-09-30T13:30:41Z</time>
      </trkpt>
      <trkpt lat="49.92051" lon="2.52864">
        <ele>31.9</ele>
        <time>2020-09-30T13:30:42Z</time>
      </trkpt>
      <trkpt lat="49.9205" lon="2.52864">
        <ele>31.9</ele>
        <time>2020-09-30T13:30:43Z</time>
      </trkpt>
      <trkpt lat="49.92049" lon="2.52863">
        <ele>31.9</ele>
        <time>2020-09-30T13:30:44Z</time>
      </trkpt>
      <trkpt lat="49.92047" lon="2.52861">
        <ele>31.9</ele>
        <time>2020-09-30T13:30:45Z</time>
      </trkpt>
      <trkpt lat="49.92047" lon="2.5286">
        <ele>31.9</ele>
        <time>2020-09-30T13:30:46Z</time>
      </trkpt>
      <trkpt lat="49.92045" lon="2.52859">
        <ele>31.8</ele>
        <time>2020-09-30T13:30:47Z</time>
      </trkpt>
      <trkpt lat="49.92044" lon="2.52858">
        <ele>31.8</ele>
        <time>2020-09-30T13:30:49Z</time>
      </trkpt>
      <trkpt lat="49.92043" lon="2.52858">
        <ele>31.8</ele>
        <time>2020-09-30T13:30:50Z</time>
      </trkpt>
      <trkpt lat="49.92041" lon="2.52856">
        <ele>31.8</ele>
        <time>2020-09-30T13:30:51Z</time>
      </trkpt>
      <trkpt lat="49.9204" lon="2.52856">
        <ele>31.8</ele>
        <time>2020-09-30T13:30:52Z</time>
      </trkpt>
      <trkpt lat="49.92038" lon="2.52854">
        <ele>31.8</ele>
        <time>2020-09-30T13:30:53Z</time>
      </trkpt>
      <trkpt lat="49.92038" lon="2.52854">
        <ele>31.8</ele>
        <time>2020-09-30T13:30:54Z</time>
      </trkpt>
      <trkpt lat="49.92037" lon="2.52853">
        <ele>31.8</ele>
        <time>2020-09-30T13:30:55Z</time>
      </trkpt>
      <trkpt lat="49.92036" lon="2.52852">
        <ele>31.8</ele>
        <time>2020-09-30T13:30:56Z</time>
      </trkpt>
      <trkpt lat="49.92034" lon="2.52851">
        <ele>31.8</ele>
        <time>2020-09-30T13:30:58Z</time>
      </trkpt>
      <trkpt lat="49.92032" lon="2.52849">
        <ele>31.8</ele>
        <time>2020-09-30T13:30:59Z</time>
      </trkpt>
      <trkpt lat="49.92031" lon="2.52847">
        <ele>31.8</ele>
        <time>2020-09-30T13:31:01Z</time>
      </trkpt>
      <trkpt lat="49.9203" lon="2.52846">
        <ele>31.8</ele>
        <time>2020-09-30T13:31:02Z</time>
      </trkpt>
      <trkpt lat="49.92029" lon="2.52845">
        <ele>31.8</ele>
        <time>2020-09-30T13:31:03Z</time>
      </trkpt>
      <trkpt lat="49.92028" lon="2.52844">
        <ele>31.8</ele>
        <time>2020-09-30T13:31:05Z</time>
      </trkpt>
      <trkpt lat="49.92026" lon="2.52843">
        <ele>31.8</ele>
        <time>2020-09-30T13:31:06Z</time>
      </trkpt>
      <trkpt lat="49.92026" lon="2.52843">
        <ele>31.8</ele>
        <time>2020-09-30T13:31:07Z</time>
      </trkpt>
      <trkpt lat="49.92025" lon="2.52842">
        <ele>31.8</ele>
        <time>2020-09-30T13:31:08Z</time>
      </trkpt>
      <trkpt lat="49.92022" lon="2.5284">
        <ele>31.8</ele>
        <time>2020-09-30T13:31:09Z</time>
      </trkpt>
      <trkpt lat="49.92021" lon="2.52839">
        <ele>31.8</ele>
        <time>2020-09-30T13:31:10Z</time>
      </trkpt>
      <trkpt lat="49.9202" lon="2.52838">
        <ele>31.8</ele>
        <time>2020-09-30T13:31:11Z</time>
      </trkpt>
      <trkpt lat="49.9202" lon="2.52837">
        <ele>31.8</ele>
        <time>2020-09-30T13:31:13Z</time>
      </trkpt>
      <trkpt lat="49.92019" lon="2.52836">
        <ele>31.8</ele>
        <time>2020-09-30T13:31:14Z</time>
      </trkpt>
      <trkpt lat="49.92018" lon="2.52835">
        <ele>31.8</ele>
        <time>2020-09-30T13:31:15Z</time>
      </trkpt>
      <trkpt lat="49.92016" lon="2.52834">
        <ele>31.8</ele>
        <time>2020-09-30T13:31:16Z</time>
      </trkpt>
      <trkpt lat="49.92015" lon="2.52832">
        <ele>31.8</ele>
        <time>2020-09-30T13:31:17Z</time>
      </trkpt>
      <trkpt lat="49.92014" lon="2.52832">
        <ele>31.8</ele>
        <time>2020-09-30T13:31:18Z</time>
      </trkpt>
      <trkpt lat="49.92014" lon="2.52831">
        <ele>31.8</ele>
        <time>2020-09-30T13:31:20Z</time>
      </trkpt>
      <trkpt lat="49.92012" lon="2.52829">
        <ele>31.8</ele>
        <time>2020-09-30T13:31:21Z</time>
      </trkpt>
      <trkpt lat="49.92012" lon="2.52828">
        <ele>31.8</ele>
        <time>2020-09-30T13:31:22Z</time>
      </trkpt>
      <trkpt lat="49.92011" lon="2.52827">
        <ele>31.8</ele>
        <time>2020-09-30T13:31:23Z</time>
      </trkpt>
      <trkpt lat="49.9201" lon="2.52826">
        <ele>31.8</ele>
        <time>2020-09-30T13:31:24Z</time>
      </trkpt>
      <trkpt lat="49.92008" lon="2.52824">
        <ele>31.8</ele>
        <time>2020-09-30T13:31:25Z</time>
      </trkpt>
      <trkpt lat="49.92007" lon="2.52823">
        <ele>31.8</ele>
        <time>2020-09-30T13:31:26Z</time>
      </trkpt>
      <trkpt lat="49.92006" lon="2.52822">
        <ele>31.8</ele>
        <time>2020-09-30T13:31:27Z</time>
      </trkpt>
      <trkpt lat="49.92006" lon="2.52821">
        <ele>31.8</ele>
        <time>2020-09-30T13:31:28Z</time>
      </trkpt>
      <trkpt lat="49.92005" lon="2.52819">
        <ele>31.8</ele>
        <time>2020-09-30T13:31:29Z</time>
      </trkpt>
      <trkpt lat="49.92004" lon="2.52818">
        <ele>31.8</ele>
        <time>2020-09-30T13:31:30Z</time>
      </trkpt>
      <trkpt lat="49.92002" lon="2.52817">
        <ele>31.8</ele>
        <time>2020-09-30T13:31:31Z</time>
      </trkpt>
      <trkpt lat="49.92001" lon="2.52815">
        <ele>31.7</ele>
        <time>2020-09-30T13:31:33Z</time>
      </trkpt>
      <trkpt lat="49.92" lon="2.52814">
        <ele>31.7</ele>
        <time>2020-09-30T13:31:34Z</time>
      </trkpt>
      <trkpt lat="49.91999" lon="2.52814">
        <ele>31.7</ele>
        <time>2020-09-30T13:31:35Z</time>
      </trkpt>
      <trkpt lat="49.91997" lon="2.52812">
        <ele>31.7</ele>
        <time>2020-09-30T13:31:37Z</time>
      </trkpt>
      <trkpt lat="49.91996" lon="2.52812">
        <ele>31.7</ele>
        <time>2020-09-30T13:31:38Z</time>
      </trkpt>
      <trkpt lat="49.91994" lon="2.5281">
        <ele>31.7</ele>
        <time>2020-09-30T13:31:39Z</time>
      </trkpt>
      <trkpt lat="49.91994" lon="2.52809">
        <ele>31.7</ele>
        <time>2020-09-30T13:31:40Z</time>
      </trkpt>
      <trkpt lat="49.91993" lon="2.52808">
        <ele>31.7</ele>
        <time>2020-09-30T13:31:41Z</time>
      </trkpt>
      <trkpt lat="49.91992" lon="2.52807">
        <ele>31.7</ele>
        <time>2020-09-30T13:31:42Z</time>
      </trkpt>
      <trkpt lat="49.91991" lon="2.52806">
        <ele>31.7</ele>
        <time>2020-09-30T13:31:43Z</time>
      </trkpt>
      <trkpt lat="49.9199" lon="2.52805">
        <ele>31.7</ele>
        <time>2020-09-30T13:31:44Z</time>
      </trkpt>
      <trkpt lat="49.91988" lon="2.52803">
        <ele>31.7</ele>
        <time>2020-09-30T13:31:46Z</time>
      </trkpt>
      <trkpt lat="49.91987" lon="2.52802">
        <ele>31.7</ele>
        <time>2020-09-30T13:31:47Z</time>
      </trkpt>
      <trkpt lat="49.91985" lon="2.528">
        <ele>31.6</ele>
        <time>2020-09-30T13:31:48Z</time>
      </trkpt>
      <trkpt lat="49.91985" lon="2.52799">
        <ele>31.6</ele>
        <time>2020-09-30T13:31:49Z</time>
      </trkpt>
      <trkpt lat="49.91984" lon="2.52798">
        <ele>31.6</ele>
        <time>2020-09-30T13:31:50Z</time>
      </trkpt>
      <trkpt lat="49.91982" lon="2.52796">
        <ele>31.6</ele>
        <time>2020-09-30T13:31:51Z</time>
      </trkpt>
      <trkpt lat="49.91982" lon="2.52795">
        <ele>31.6</ele>
        <time>2020-09-30T13:31:52Z</time>
      </trkpt>
      <trkpt lat="49.9198" lon="2.52793">
        <ele>31.6</ele>
        <time>2020-09-30T13:31:54Z</time>
      </trkpt>
      <trkpt lat="49.91979" lon="2.52792">
        <ele>31.6</ele>
        <time>2020-09-30T13:31:55Z</time>
      </trkpt>
      <trkpt lat="49.91978" lon="2.52791">
        <ele>31.6</ele>
        <time>2020-09-30T13:31:56Z</time>
      </trkpt>
      <trkpt lat="49.91977" lon="2.5279">
        <ele>31.6</ele>
        <time>2020-09-30T13:31:57Z</time>
      </trkpt>
      <trkpt lat="49.91975" lon="2.52789">
        <ele>31.6</ele>
        <time>2020-09-30T13:31:58Z</time>
      </trkpt>
      <trkpt lat="49.91974" lon="2.52788">
        <ele>31.5</ele>
        <time>2020-09-30T13:32:00Z</time>
      </trkpt>
      <trkpt lat="49.91973" lon="2.52787">
        <ele>31.5</ele>
        <time>2020-09-30T13:32:01Z</time>
      </trkpt>
      <trkpt lat="49.91971" lon="2.52785">
        <ele>31.5</ele>
        <time>2020-09-30T13:32:02Z</time>
      </trkpt>
      <trkpt lat="49.9197" lon="2.52785">
        <ele>31.5</ele>
        <time>2020-09-30T13:32:03Z</time>
      </trkpt>
      <trkpt lat="49.91969" lon="2.52784">
        <ele>31.5</ele>
        <time>2020-09-30T13:32:04Z</time>
      </trkpt>
      <trkpt lat="49.91968" lon="2.52784">
        <ele>31.5</ele>
        <time>2020-09-30T13:32:05Z</time>
      </trkpt>
      <trkpt lat="49.91966" lon="2.52782">
        <ele>31.5</ele>
        <time>2020-09-30T13:32:06Z</time>
      </trkpt>
      <trkpt lat="49.91965" lon="2.52782">
        <ele>31.5</ele>
        <time>2020-09-30T13:32:08Z</time>
      </trkpt>
      <trkpt lat="49.91964" lon="2.52782">
        <ele>31.5</ele>
        <time>2020-09-30T13:32:09Z</time>
      </trkpt>
      <trkpt lat="49.91963" lon="2.52781">
        <ele>31.5</ele>
        <time>2020-09-30T13:32:10Z</time>
      </trkpt>
      <trkpt lat="49.91962" lon="2.5278">
        <ele>31.4</ele>
        <time>2020-09-30T13:32:11Z</time>
      </trkpt>
      <trkpt lat="49.91959" lon="2.52778">
        <ele>31.4</ele>
        <time>2020-09-30T13:32:12Z</time>
      </trkpt>
      <trkpt lat="49.91959" lon="2.52778">
        <ele>31.4</ele>
        <time>2020-09-30T13:32:13Z</time>
      </trkpt>
      <trkpt lat="49.91957" lon="2.52776">
        <ele>31.4</ele>
        <time>2020-09-30T13:32:14Z</time>
      </trkpt>
      <trkpt lat="49.91956" lon="2.52776">
        <ele>31.4</ele>
        <time>2020-09-30T13:32:15Z</time>
      </trkpt>
      <trkpt lat="49.91955" lon="2.52775">
        <ele>31.4</ele>
        <time>2020-09-30T13:32:16Z</time>
      </trkpt>
      <trkpt lat="49.91954" lon="2.52774">
        <ele>31.4</ele>
        <time>2020-09-30T13:32:18Z</time>
      </trkpt>
      <trkpt lat="49.91953" lon="2.52773">
        <ele>31.4</ele>
        <time>2020-09-30T13:32:19Z</time>
      </trkpt>
      <trkpt lat="49.91952" lon="2.52772">
        <ele>31.4</ele>
        <time>2020-09-30T13:32:20Z</time>
      </trkpt>
      <trkpt lat="49.91951" lon="2.52771">
        <ele>31.4</ele>
        <time>2020-09-30T13:32:21Z</time>
      </trkpt>
      <trkpt lat="49.91949" lon="2.52769">
        <ele>31.4</ele>
        <time>2020-09-30T13:32:22Z</time>
      </trkpt>
      <trkpt lat="49.91947" lon="2.52768">
        <ele>31.4</ele>
        <time>2020-09-30T13:32:23Z</time>
      </trkpt>
      <trkpt lat="49.91947" lon="2.52767">
        <ele>31.4</ele>
        <time>2020-09-30T13:32:24Z</time>
      </trkpt>
      <trkpt lat="49.91946" lon="2.52766">
        <ele>31.4</ele>
        <time>2020-09-30T13:32:25Z</time>
      </trkpt>
      <trkpt lat="49.91944" lon="2.52764">
        <ele>31.4</ele>
        <time>2020-09-30T13:32:26Z</time>
      </trkpt>
      <trkpt lat="49.91943" lon="2.52763">
        <ele>31.4</ele>
        <time>2020-09-30T13:32:27Z</time>
      </trkpt>
      <trkpt lat="49.91943" lon="2.52762">
        <ele>31.4</ele>
        <time>2020-09-30T13:32:28Z</time>
      </trkpt>
      <trkpt lat="49.91942" lon="2.52761">
        <ele>31.4</ele>
        <time>2020-09-30T13:32:29Z</time>
      </trkpt>
      <trkpt lat="49.9194" lon="2.5276">
        <ele>31.4</ele>
        <time>2020-09-30T13:32:30Z</time>
      </trkpt>
      <trkpt lat="49.91938" lon="2.52759">
        <ele>31.4</ele>
        <time>2020-09-30T13:32:31Z</time>
      </trkpt>
      <trkpt lat="49.91937" lon="2.52758">
        <ele>31.4</ele>
        <time>2020-09-30T13:32:32Z</time>
      </trkpt>
      <trkpt lat="49.91936" lon="2.52757">
        <ele>31.4</ele>
        <time>2020-09-30T13:32:33Z</time>
      </trkpt>
      <trkpt lat="49.91935" lon="2.52757">
        <ele>31.4</ele>
        <time>2020-09-30T13:32:34Z</time>
      </trkpt>
      <trkpt lat="49.91934" lon="2.52757">
        <ele>31.4</ele>
        <time>2020-09-30T13:32:35Z</time>
      </trkpt>
      <trkpt lat="49.91932" lon="2.52756">
        <ele>31.4</ele>
        <time>2020-09-30T13:32:37Z</time>
      </trkpt>
      <trkpt lat="49.91931" lon="2.52756">
        <ele>31.4</ele>
        <time>2020-09-30T13:32:38Z</time>
      </trkpt>
      <trkpt lat="49.9193" lon="2.52755">
        <ele>31.3</ele>
        <time>2020-09-30T13:32:39Z</time>
      </trkpt>
      <trkpt lat="49.91928" lon="2.52755">
        <ele>31.3</ele>
        <time>2020-09-30T13:32:40Z</time>
      </trkpt>
      <trkpt lat="49.91927" lon="2.52755">
        <ele>31.3</ele>
        <time>2020-09-30T13:32:41Z</time>
      </trkpt>
      <trkpt lat="49.91925" lon="2.52755">
        <ele>31.3</ele>
        <time>2020-09-30T13:32:42Z</time>
      </trkpt>
      <trkpt lat="49.91923" lon="2.52755">
        <ele>31.3</ele>
        <time>2020-09-30T13:32:43Z</time>
      </trkpt>
      <trkpt lat="49.91922" lon="2.52755">
        <ele>31.3</ele>
        <time>2020-09-30T13:32:44Z</time>
      </trkpt>
      <trkpt lat="49.91921" lon="2.52755">
        <ele>31.3</ele>
        <time>2020-09-30T13:32:45Z</time>
      </trkpt>
      <trkpt lat="49.91918" lon="2.52755">
        <ele>31.3</ele>
        <time>2020-09-30T13:32:46Z</time>
      </trkpt>
      <trkpt lat="49.91918" lon="2.52756">
        <ele>31.3</ele>
        <time>2020-09-30T13:32:48Z</time>
      </trkpt>
      <trkpt lat="49.91916" lon="2.52756">
        <ele>31.3</ele>
        <time>2020-09-30T13:32:49Z</time>
      </trkpt>
      <trkpt lat="49.91915" lon="2.52756">
        <ele>31.3</ele>
        <time>2020-09-30T13:32:50Z</time>
      </trkpt>
      <trkpt lat="49.91912" lon="2.52756">
        <ele>31.3</ele>
        <time>2020-09-30T13:32:51Z</time>
      </trkpt>
      <trkpt lat="49.91911" lon="2.52756">
        <ele>31.3</ele>
        <time>2020-09-30T13:32:52Z</time>
      </trkpt>
      <trkpt lat="49.9191" lon="2.52756">
        <ele>31.3</ele>
        <time>2020-09-30T13:32:53Z</time>
      </trkpt>
      <trkpt lat="49.91909" lon="2.52756">
        <ele>31.3</ele>
        <time>2020-09-30T13:32:54Z</time>
      </trkpt>
      <trkpt lat="49.91908" lon="2.52756">
        <ele>31.3</ele>
        <time>2020-09-30T13:32:56Z</time>
      </trkpt>
      <trkpt lat="49.91906" lon="2.52756">
        <ele>31.3</ele>
        <time>2020-09-30T13:32:57Z</time>
      </trkpt>
      <trkpt lat="49.91905" lon="2.52756">
        <ele>31.3</ele>
        <time>2020-09-30T13:32:58Z</time>
      </trkpt>
      <trkpt lat="49.91904" lon="2.52756">
        <ele>31.3</ele>
        <time>2020-09-30T13:32:59Z</time>
      </trkpt>
      <trkpt lat="49.91903" lon="2.52756">
        <ele>31.3</ele>
        <time>2020-09-30T13:33:00Z</time>
      </trkpt>
      <trkpt lat="49.91901" lon="2.52757">
        <ele>31.3</ele>
        <time>2020-09-30T13:33:02Z</time>
      </trkpt>
      <trkpt lat="49.91898" lon="2.52758">
        <ele>31.3</ele>
        <time>2020-09-30T13:33:03Z</time>
      </trkpt>
      <trkpt lat="49.91898" lon="2.52758">
        <ele>31.3</ele>
        <time>2020-09-30T13:33:04Z</time>
      </trkpt>
      <trkpt lat="49.91897" lon="2.52758">
        <ele>31.3</ele>
        <time>2020-09-30T13:33:05Z</time>
      </trkpt>
      <trkpt lat="49.91895" lon="2.52759">
        <ele>31.4</ele>
        <time>2020-09-30T13:33:06Z</time>
      </trkpt>
      <trkpt lat="49.91894" lon="2.52759">
        <ele>31.4</ele>
        <time>2020-09-30T13:33:07Z</time>
      </trkpt>
      <trkpt lat="49.91892" lon="2.5276">
        <ele>31.4</ele>
        <time>2020-09-30T13:33:08Z</time>
      </trkpt>
      <trkpt lat="49.91891" lon="2.52761">
        <ele>31.4</ele>
        <time>2020-09-30T13:33:09Z</time>
      </trkpt>
      <trkpt lat="49.9189" lon="2.52761">
        <ele>31.4</ele>
        <time>2020-09-30T13:33:10Z</time>
      </trkpt>
      <trkpt lat="49.91888" lon="2.52762">
        <ele>31.4</ele>
        <time>2020-09-30T13:33:11Z</time>
      </trkpt>
      <trkpt lat="49.91887" lon="2.52762">
        <ele>31.4</ele>
        <time>2020-09-30T13:33:13Z</time>
      </trkpt>
      <trkpt lat="49.91886" lon="2.52763">
        <ele>31.4</ele>
        <time>2020-09-30T13:33:14Z</time>
      </trkpt>
      <trkpt lat="49.91885" lon="2.52763">
        <ele>31.4</ele>
        <time>2020-09-30T13:33:15Z</time>
      </trkpt>
      <trkpt lat="49.91882" lon="2.52763">
        <ele>31.5</ele>
        <time>2020-09-30T13:33:17Z</time>
      </trkpt>
      <trkpt lat="49.91881" lon="2.52764">
        <ele>31.5</ele>
        <time>2020-09-30T13:33:18Z</time>
      </trkpt>
      <trkpt lat="49.91879" lon="2.52764">
        <ele>31.5</ele>
        <time>2020-09-30T13:33:19Z</time>
      </trkpt>
      <trkpt lat="49.91878" lon="2.52764">
        <ele>31.5</ele>
        <time>2020-09-30T13:33:20Z</time>
      </trkpt>
      <trkpt lat="49.91876" lon="2.52764">
        <ele>31.5</ele>
        <time>2020-09-30T13:33:22Z</time>
      </trkpt>
      <trkpt lat="49.91875" lon="2.52764">
        <ele>31.5</ele>
        <time>2020-09-30T13:33:24Z</time>
      </trkpt>
      <trkpt lat="49.91873" lon="2.52765">
        <ele>31.5</ele>
        <time>2020-09-30T13:33:25Z</time>
      </trkpt>
      <trkpt lat="49.91872" lon="2.52765">
        <ele>31.5</ele>
        <time>2020-09-30T13:33:26Z</time>
      </trkpt>
      <trkpt lat="49.9187" lon="2.52766">
        <ele>31.6</ele>
        <time>2020-09-30T13:33:27Z</time>
      </trkpt>
      <trkpt lat="49.91869" lon="2.52766">
        <ele>31.6</ele>
        <time>2020-09-30T13:33:28Z</time>
      </trkpt>
      <trkpt lat="49.91867" lon="2.52766">
        <ele>31.6</ele>
        <time>2020-09-30T13:33:29Z</time>
      </trkpt>
      <trkpt lat="49.91866" lon="2.52766">
        <ele>31.6</ele>
        <time>2020-09-30T13:33:31Z</time>
      </trkpt>
      <trkpt lat="49.91863" lon="2.52767">
        <ele>31.6</ele>
        <time>2020-09-30T13:33:32Z</time>
      </trkpt>
      <trkpt lat="49.91862" lon="2.52767">
        <ele>31.6</ele>
        <time>2020-09-30T13:33:33Z</time>
      </trkpt>
      <trkpt lat="49.91861" lon="2.52767">
        <ele>31.6</ele>
        <time>2020-09-30T13:33:34Z</time>
      </trkpt>
      <trkpt lat="49.91859" lon="2.52767">
        <ele>31.6</ele>
        <time>2020-09-30T13:33:36Z</time>
      </trkpt>
      <trkpt lat="49.91857" lon="2.52767">
        <ele>31.6</ele>
        <time>2020-09-30T13:33:37Z</time>
      </trkpt>
      <trkpt lat="49.91856" lon="2.52767">
        <ele>31.6</ele>
        <time>2020-09-30T13:33:38Z</time>
      </trkpt>
      <trkpt lat="49.91854" lon="2.52768">
        <ele>31.6</ele>
        <time>2020-09-30T13:33:40Z</time>
      </trkpt>
      <trkpt lat="49.91853" lon="2.52768">
        <ele>31.6</ele>
        <time>2020-09-30T13:33:41Z</time>
      </trkpt>
      <trkpt lat="49.91851" lon="2.52768">
        <ele>31.6</ele>
        <time>2020-09-30T13:33:42Z</time>
      </trkpt>
      <trkpt lat="49.9185" lon="2.52769">
        <ele>31.6</ele>
        <time>2020-09-30T13:33:43Z</time>
      </trkpt>
      <trkpt lat="49.91849" lon="2.52769">
        <ele>31.6</ele>
        <time>2020-09-30T13:33:44Z</time>
      </trkpt>
      <trkpt lat="49.91848" lon="2.52769">
        <ele>31.6</ele>
        <time>2020-09-30T13:33:45Z</time>
      </trkpt>
      <trkpt lat="49.91846" lon="2.52769">
        <ele>31.6</ele>
        <time>2020-09-30T13:33:46Z</time>
      </trkpt>
      <trkpt lat="49.91845" lon="2.5277">
        <ele>31.6</ele>
        <time>2020-09-30T13:33:47Z</time>
      </trkpt>
      <trkpt lat="49.91843" lon="2.5277">
        <ele>31.6</ele>
        <time>2020-09-30T13:33:48Z</time>
      </trkpt>
      <trkpt lat="49.91842" lon="2.52771">
        <ele>31.6</ele>
        <time>2020-09-30T13:33:49Z</time>
      </trkpt>
      <trkpt lat="49.91841" lon="2.52771">
        <ele>31.6</ele>
        <time>2020-09-30T13:33:50Z</time>
      </trkpt>
      <trkpt lat="49.9184" lon="2.52771">
        <ele>31.6</ele>
        <time>2020-09-30T13:33:51Z</time>
      </trkpt>
      <trkpt lat="49.91838" lon="2.52772">
        <ele>31.6</ele>
        <time>2020-09-30T13:33:52Z</time>
      </trkpt>
      <trkpt lat="49.91836" lon="2.52773">
        <ele>31.6</ele>
        <time>2020-09-30T13:33:53Z</time>
      </trkpt>
      <trkpt lat="49.91835" lon="2.52773">
        <ele>31.6</ele>
        <time>2020-09-30T13:33:55Z</time>
      </trkpt>
      <trkpt lat="49.91835" lon="2.52774">
        <ele>31.6</ele>
        <time>2020-09-30T13:33:56Z</time>
      </trkpt>
      <trkpt lat="49.91831" lon="2.52775">
        <ele>31.6</ele>
        <time>2020-09-30T13:33:57Z</time>
      </trkpt>
      <trkpt lat="49.91831" lon="2.52775">
        <ele>31.6</ele>
        <time>2020-09-30T13:33:58Z</time>
      </trkpt>
      <trkpt lat="49.91829" lon="2.52776">
        <ele>31.6</ele>
        <time>2020-09-30T13:33:59Z</time>
      </trkpt>
      <trkpt lat="49.91828" lon="2.52777">
        <ele>31.6</ele>
        <time>2020-09-30T13:34:00Z</time>
      </trkpt>
      <trkpt lat="49.91827" lon="2.52777">
        <ele>31.6</ele>
        <time>2020-09-30T13:34:01Z</time>
      </trkpt>
      <trkpt lat="49.91824" lon="2.52779">
        <ele>31.6</ele>
        <time>2020-09-30T13:34:02Z</time>
      </trkpt>
      <trkpt lat="49.91823" lon="2.52779">
        <ele>31.6</ele>
        <time>2020-09-30T13:34:04Z</time>
      </trkpt>
      <trkpt lat="49.91822" lon="2.52779">
        <ele>31.6</ele>
        <time>2020-09-30T13:34:05Z</time>
      </trkpt>
      <trkpt lat="49.91821" lon="2.5278">
        <ele>31.6</ele>
        <time>2020-09-30T13:34:06Z</time>
      </trkpt>
      <trkpt lat="49.9182" lon="2.5278">
        <ele>31.6</ele>
        <time>2020-09-30T13:34:07Z</time>
      </trkpt>
      <trkpt lat="49.91819" lon="2.52781">
        <ele>31.6</ele>
        <time>2020-09-30T13:34:08Z</time>
      </trkpt>
      <trkpt lat="49.91817" lon="2.52782">
        <ele>31.6</ele>
        <time>2020-09-30T13:34:09Z</time>
      </trkpt>
      <trkpt lat="49.91816" lon="2.52782">
        <ele>31.6</ele>
        <time>2020-09-30T13:34:10Z</time>
      </trkpt>
      <trkpt lat="49.91815" lon="2.52783">
        <ele>31.6</ele>
        <time>2020-09-30T13:34:11Z</time>
      </trkpt>
      <trkpt lat="49.91813" lon="2.52783">
        <ele>31.6</ele>
        <time>2020-09-30T13:34:12Z</time>
      </trkpt>
      <trkpt lat="49.91811" lon="2.52784">
        <ele>31.6</ele>
        <time>2020-09-30T13:34:14Z</time>
      </trkpt>
      <trkpt lat="49.91811" lon="2.52784">
        <ele>31.6</ele>
        <time>2020-09-30T13:34:15Z</time>
      </trkpt>
      <trkpt lat="49.9181" lon="2.52784">
        <ele>31.6</ele>
        <time>2020-09-30T13:34:16Z</time>
      </trkpt>
      <trkpt lat="49.91807" lon="2.52786">
        <ele>31.6</ele>
        <time>2020-09-30T13:34:17Z</time>
      </trkpt>
      <trkpt lat="49.91807" lon="2.52786">
        <ele>31.6</ele>
        <time>2020-09-30T13:34:18Z</time>
      </trkpt>
      <trkpt lat="49.91806" lon="2.52786">
        <ele>31.6</ele>
        <time>2020-09-30T13:34:19Z</time>
      </trkpt>
      <trkpt lat="49.91805" lon="2.52787">
        <ele>31.6</ele>
        <time>2020-09-30T13:34:21Z</time>
      </trkpt>
      <trkpt lat="49.91803" lon="2.52788">
        <ele>31.6</ele>
        <time>2020-09-30T13:34:22Z</time>
      </trkpt>
      <trkpt lat="49.91801" lon="2.5279">
        <ele>31.6</ele>
        <time>2020-09-30T13:34:23Z</time>
      </trkpt>
      <trkpt lat="49.918" lon="2.5279">
        <ele>31.6</ele>
        <time>2020-09-30T13:34:24Z</time>
      </trkpt>
      <trkpt lat="49.91798" lon="2.52791">
        <ele>31.6</ele>
        <time>2020-09-30T13:34:25Z</time>
      </trkpt>
      <trkpt lat="49.91798" lon="2.52791">
        <ele>31.6</ele>
        <time>2020-09-30T13:34:26Z</time>
      </trkpt>
      <trkpt lat="49.91797" lon="2.52792">
        <ele>31.6</ele>
        <time>2020-09-30T13:34:27Z</time>
      </trkpt>
      <trkpt lat="49.91796" lon="2.52792">
        <ele>31.6</ele>
        <time>2020-09-30T13:34:29Z</time>
      </trkpt>
      <trkpt lat="49.91795" lon="2.52792">
        <ele>31.6</ele>
        <time>2020-09-30T13:34:30Z</time>
      </trkpt>
      <trkpt lat="49.91794" lon="2.52792">
        <ele>31.6</ele>
        <time>2020-09-30T13:34:31Z</time>
      </trkpt>
      <trkpt lat="49.91791" lon="2.52793">
        <ele>31.6</ele>
        <time>2020-09-30T13:34:32Z</time>
      </trkpt>
      <trkpt lat="49.9179" lon="2.52794">
        <ele>31.6</ele>
        <time>2020-09-30T13:34:33Z</time>
      </trkpt>
      <trkpt lat="49.91789" lon="2.52794">
        <ele>31.6</ele>
        <time>2020-09-30T13:34:34Z</time>
      </trkpt>
      <trkpt lat="49.91788" lon="2.52794">
        <ele>31.6</ele>
        <time>2020-09-30T13:34:35Z</time>
      </trkpt>
      <trkpt lat="49.91787" lon="2.52794">
        <ele>31.6</ele>
        <time>2020-09-30T13:34:37Z</time>
      </trkpt>
      <trkpt lat="49.91784" lon="2.52795">
        <ele>31.6</ele>
        <time>2020-09-30T13:34:38Z</time>
      </trkpt>
      <trkpt lat="49.91783" lon="2.52796">
        <ele>31.6</ele>
        <time>2020-09-30T13:34:39Z</time>
      </trkpt>
      <trkpt lat="49.91782" lon="2.52796">
        <ele>31.6</ele>
        <time>2020-09-30T13:34:40Z</time>
      </trkpt>
      <trkpt lat="49.9178" lon="2.52797">
        <ele>31.6</ele>
        <time>2020-09-30T13:34:41Z</time>
      </trkpt>
      <trkpt lat="49.91778" lon="2.52798">
        <ele>31.6</ele>
        <time>2020-09-30T13:34:42Z</time>
      </trkpt>
      <trkpt lat="49.91777" lon="2.52798">
        <ele>31.6</ele>
        <time>2020-09-30T13:34:43Z</time>
      </trkpt>
      <trkpt lat="49.91775" lon="2.52799">
        <ele>31.6</ele>
        <time>2020-09-30T13:34:45Z</time>
      </trkpt>
      <trkpt lat="49.91774" lon="2.52799">
        <ele>31.6</ele>
        <time>2020-09-30T13:34:46Z</time>
      </trkpt>
      <trkpt lat="49.91774" lon="2.528">
        <ele>31.6</ele>
        <time>2020-09-30T13:34:47Z</time>
      </trkpt>
      <trkpt lat="49.91772" lon="2.52801">
        <ele>31.6</ele>
        <time>2020-09-30T13:34:48Z</time>
      </trkpt>
      <trkpt lat="49.91771" lon="2.52801">
        <ele>31.6</ele>
        <time>2020-09-30T13:34:49Z</time>
      </trkpt>
      <trkpt lat="49.9177" lon="2.52802">
        <ele>31.6</ele>
        <time>2020-09-30T13:34:50Z</time>
      </trkpt>
      <trkpt lat="49.91768" lon="2.52802">
        <ele>31.6</ele>
        <time>2020-09-30T13:34:52Z</time>
      </trkpt>
      <trkpt lat="49.91766" lon="2.52803">
        <ele>31.6</ele>
        <time>2020-09-30T13:34:53Z</time>
      </trkpt>
      <trkpt lat="49.91766" lon="2.52803">
        <ele>31.6</ele>
        <time>2020-09-30T13:34:54Z</time>
      </trkpt>
      <trkpt lat="49.91765" lon="2.52803">
        <ele>31.6</ele>
        <time>2020-09-30T13:34:55Z</time>
      </trkpt>
      <trkpt lat="49.91763" lon="2.52804">
        <ele>31.6</ele>
        <time>2020-09-30T13:34:56Z</time>
      </trkpt>
      <trkpt lat="49.91762" lon="2.52805">
        <ele>31.6</ele>
        <time>2020-09-30T13:34:57Z</time>
      </trkpt>
      <trkpt lat="49.91761" lon="2.52805">
        <ele>31.6</ele>
        <time>2020-09-30T13:34:58Z</time>
      </trkpt>
      <trkpt lat="49.9176" lon="2.52805">
        <ele>31.6</ele>
        <time>2020-09-30T13:34:59Z</time>
      </trkpt>
      <trkpt lat="49.91758" lon="2.52806">
        <ele>31.6</ele>
        <time>2020-09-30T13:35:00Z</time>
      </trkpt>
      <trkpt lat="49.91757" lon="2.52806">
        <ele>31.6</ele>
        <time>2020-09-30T13:35:02Z</time>
      </trkpt>
      <trkpt lat="49.91756" lon="2.52806">
        <ele>31.6</ele>
        <time>2020-09-30T13:35:03Z</time>
      </trkpt>
      <trkpt lat="49.91755" lon="2.52807">
        <ele>31.6</ele>
        <time>2020-09-30T13:35:04Z</time>
      </trkpt>
      <trkpt lat="49.91752" lon="2.52807">
        <ele>31.6</ele>
        <time>2020-09-30T13:35:06Z</time>
      </trkpt>
      <trkpt lat="49.91751" lon="2.52808">
        <ele>31.6</ele>
        <time>2020-09-30T13:35:07Z</time>
      </trkpt>
      <trkpt lat="49.9175" lon="2.52808">
        <ele>31.6</ele>
        <time>2020-09-30T13:35:08Z</time>
      </trkpt>
      <trkpt lat="49.91749" lon="2.52809">
        <ele>31.6</ele>
        <time>2020-09-30T13:35:09Z</time>
      </trkpt>
      <trkpt lat="49.91748" lon="2.52809">
        <ele>31.6</ele>
        <time>2020-09-30T13:35:10Z</time>
      </trkpt>
      <trkpt lat="49.91747" lon="2.5281">
        <ele>31.6</ele>
        <time>2020-09-30T13:35:11Z</time>
      </trkpt>
      <trkpt lat="49.91746" lon="2.52811">
        <ele>31.6</ele>
        <time>2020-09-30T13:35:12Z</time>
      </trkpt>
      <trkpt lat="49.91745" lon="2.52811">
        <ele>31.6</ele>
        <time>2020-09-30T13:35:13Z</time>
      </trkpt>
      <trkpt lat="49.91743" lon="2.52812">
        <ele>31.6</ele>
        <time>2020-09-30T13:35:14Z</time>
      </trkpt>
      <trkpt lat="49.91742" lon="2.52812">
        <ele>31.6</ele>
        <time>2020-09-30T13:35:15Z</time>
      </trkpt>
      <trkpt lat="49.91741" lon="2.52813">
        <ele>31.6</ele>
        <time>2020-09-30T13:35:17Z</time>
      </trkpt>
      <trkpt lat="49.9174" lon="2.52813">
        <ele>31.6</ele>
        <time>2020-09-30T13:35:18Z</time>
      </trkpt>
      <trkpt lat="49.91739" lon="2.52814">
        <ele>31.5</ele>
        <time>2020-09-30T13:35:19Z</time>
      </trkpt>
      <trkpt lat="49.91738" lon="2.52814">
        <ele>31.5</ele>
        <time>2020-09-30T13:35:20Z</time>
      </trkpt>
      <trkpt lat="49.91736" lon="2.52815">
        <ele>31.5</ele>
        <time>2020-09-30T13:35:21Z</time>
      </trkpt>
      <trkpt lat="49.91735" lon="2.52816">
        <ele>31.5</ele>
        <time>2020-09-30T13:35:22Z</time>
      </trkpt>
      <trkpt lat="49.91734" lon="2.52817">
        <ele>31.5</ele>
        <time>2020-09-30T13:35:23Z</time>
      </trkpt>
      <trkpt lat="49.91733" lon="2.52817">
        <ele>31.5</ele>
        <time>2020-09-30T13:35:24Z</time>
      </trkpt>
      <trkpt lat="49.91731" lon="2.52818">
        <ele>31.5</ele>
        <time>2020-09-30T13:35:26Z</time>
      </trkpt>
      <trkpt lat="49.91728" lon="2.52819">
        <ele>31.5</ele>
        <time>2020-09-30T13:35:28Z</time>
      </trkpt>
      <trkpt lat="49.91728" lon="2.52819">
        <ele>31.5</ele>
        <time>2020-09-30T13:35:29Z</time>
      </trkpt>
      <trkpt lat="49.91726" lon="2.52819">
        <ele>31.5</ele>
        <time>2020-09-30T13:35:30Z</time>
      </trkpt>
      <trkpt lat="49.91725" lon="2.5282">
        <ele>31.5</ele>
        <time>2020-09-30T13:35:31Z</time>
      </trkpt>
      <trkpt lat="49.91722" lon="2.52821">
        <ele>31.4</ele>
        <time>2020-09-30T13:35:32Z</time>
      </trkpt>
      <trkpt lat="49.91721" lon="2.52821">
        <ele>31.4</ele>
        <time>2020-09-30T13:35:33Z</time>
      </trkpt>
      <trkpt lat="49.91719" lon="2.52821">
        <ele>31.4</ele>
        <time>2020-09-30T13:35:34Z</time>
      </trkpt>
      <trkpt lat="49.91718" lon="2.52821">
        <ele>31.4</ele>
        <time>2020-09-30T13:35:36Z</time>
      </trkpt>
      <trkpt lat="49.91717" lon="2.5282">
        <ele>31.4</ele>
        <time>2020-09-30T13:35:37Z</time>
      </trkpt>
      <trkpt lat="49.91715" lon="2.5282">
        <ele>31.4</ele>
        <time>2020-09-30T13:35:38Z</time>
      </trkpt>
      <trkpt lat="49.91714" lon="2.52821">
        <ele>31.4</ele>
        <time>2020-09-30T13:35:39Z</time>
      </trkpt>
      <trkpt lat="49.91711" lon="2.52822">
        <ele>31.4</ele>
        <time>2020-09-30T13:35:40Z</time>
      </trkpt>
      <trkpt lat="49.9171" lon="2.52822">
        <ele>31.4</ele>
        <time>2020-09-30T13:35:41Z</time>
      </trkpt>
      <trkpt lat="49.91709" lon="2.52823">
        <ele>31.4</ele>
        <time>2020-09-30T13:35:42Z</time>
      </trkpt>
      <trkpt lat="49.91707" lon="2.52823">
        <ele>31.4</ele>
        <time>2020-09-30T13:35:44Z</time>
      </trkpt>
      <trkpt lat="49.91706" lon="2.52824">
        <ele>31.4</ele>
        <time>2020-09-30T13:35:45Z</time>
      </trkpt>
      <trkpt lat="49.91705" lon="2.52824">
        <ele>31.4</ele>
        <time>2020-09-30T13:35:46Z</time>
      </trkpt>
      <trkpt lat="49.91702" lon="2.52826">
        <ele>31.4</ele>
        <time>2020-09-30T13:35:48Z</time>
      </trkpt>
      <trkpt lat="49.91701" lon="2.52826">
        <ele>31.4</ele>
        <time>2020-09-30T13:35:49Z</time>
      </trkpt>
      <trkpt lat="49.91699" lon="2.52828">
        <ele>31.4</ele>
        <time>2020-09-30T13:35:50Z</time>
      </trkpt>
      <trkpt lat="49.91698" lon="2.52828">
        <ele>31.4</ele>
        <time>2020-09-30T13:35:51Z</time>
      </trkpt>
      <trkpt lat="49.91697" lon="2.52829">
        <ele>31.4</ele>
        <time>2020-09-30T13:35:52Z</time>
      </trkpt>
      <trkpt lat="49.91696" lon="2.5283">
        <ele>31.4</ele>
        <time>2020-09-30T13:35:53Z</time>
      </trkpt>
      <trkpt lat="49.91695" lon="2.5283">
        <ele>31.5</ele>
        <time>2020-09-30T13:35:54Z</time>
      </trkpt>
      <trkpt lat="49.91694" lon="2.52831">
        <ele>31.5</ele>
        <time>2020-09-30T13:35:55Z</time>
      </trkpt>
      <trkpt lat="49.91692" lon="2.52832">
        <ele>31.5</ele>
        <time>2020-09-30T13:35:56Z</time>
      </trkpt>
      <trkpt lat="49.91691" lon="2.52833">
        <ele>31.5</ele>
        <time>2020-09-30T13:35:58Z</time>
      </trkpt>
      <trkpt lat="49.9169" lon="2.52833">
        <ele>31.5</ele>
        <time>2020-09-30T13:35:59Z</time>
      </trkpt>
      <trkpt lat="49.91689" lon="2.52834">
        <ele>31.5</ele>
        <time>2020-09-30T13:36:00Z</time>
      </trkpt>
      <trkpt lat="49.91688" lon="2.52835">
        <ele>31.5</ele>
        <time>2020-09-30T13:36:01Z</time>
      </trkpt>
      <trkpt lat="49.91685" lon="2.52836">
        <ele>31.5</ele>
        <time>2020-09-30T13:36:03Z</time>
      </trkpt>
      <trkpt lat="49.91685" lon="2.52836">
        <ele>31.5</ele>
        <time>2020-09-30T13:36:04Z</time>
      </trkpt>
      <trkpt lat="49.91684" lon="2.52836">
        <ele>31.5</ele>
        <time>2020-09-30T13:36:05Z</time>
      </trkpt>
      <trkpt lat="49.91682" lon="2.52837">
        <ele>31.5</ele>
        <time>2020-09-30T13:36:06Z</time>
      </trkpt>
      <trkpt lat="49.91681" lon="2.52838">
        <ele>31.5</ele>
        <time>2020-09-30T13:36:07Z</time>
      </trkpt>
      <trkpt lat="49.9168" lon="2.52838">
        <ele>31.4</ele>
        <time>2020-09-30T13:36:08Z</time>
      </trkpt>
      <trkpt lat="49.91679" lon="2.52839">
        <ele>31.4</ele>
        <time>2020-09-30T13:36:09Z</time>
      </trkpt>
      <trkpt lat="49.91677" lon="2.52839">
        <ele>31.4</ele>
        <time>2020-09-30T13:36:11Z</time>
      </trkpt>
      <trkpt lat="49.91675" lon="2.5284">
        <ele>31.4</ele>
        <time>2020-09-30T13:36:12Z</time>
      </trkpt>
      <trkpt lat="49.91674" lon="2.52841">
        <ele>31.4</ele>
        <time>2020-09-30T13:36:14Z</time>
      </trkpt>
      <trkpt lat="49.91672" lon="2.52841">
        <ele>31.4</ele>
        <time>2020-09-30T13:36:15Z</time>
      </trkpt>
      <trkpt lat="49.9167" lon="2.52841">
        <ele>31.4</ele>
        <time>2020-09-30T13:36:16Z</time>
      </trkpt>
      <trkpt lat="49.91669" lon="2.52842">
        <ele>31.4</ele>
        <time>2020-09-30T13:36:17Z</time>
      </trkpt>
      <trkpt lat="49.91667" lon="2.52842">
        <ele>31.4</ele>
        <time>2020-09-30T13:36:18Z</time>
      </trkpt>
      <trkpt lat="49.91665" lon="2.52843">
        <ele>31.4</ele>
        <time>2020-09-30T13:36:20Z</time>
      </trkpt>
      <trkpt lat="49.91664" lon="2.52843">
        <ele>31.4</ele>
        <time>2020-09-30T13:36:21Z</time>
      </trkpt>
      <trkpt lat="49.91663" lon="2.52843">
        <ele>31.4</ele>
        <time>2020-09-30T13:36:22Z</time>
      </trkpt>
      <trkpt lat="49.91662" lon="2.52844">
        <ele>31.4</ele>
        <time>2020-09-30T13:36:23Z</time>
      </trkpt>
      <trkpt lat="49.9166" lon="2.52844">
        <ele>31.4</ele>
        <time>2020-09-30T13:36:24Z</time>
      </trkpt>
      <trkpt lat="49.91659" lon="2.52844">
        <ele>31.4</ele>
        <time>2020-09-30T13:36:25Z</time>
      </trkpt>
      <trkpt lat="49.91658" lon="2.52845">
        <ele>31.4</ele>
        <time>2020-09-30T13:36:26Z</time>
      </trkpt>
      <trkpt lat="49.91656" lon="2.52845">
        <ele>31.4</ele>
        <time>2020-09-30T13:36:27Z</time>
      </trkpt>
      <trkpt lat="49.91655" lon="2.52846">
        <ele>31.5</ele>
        <time>2020-09-30T13:36:28Z</time>
      </trkpt>
      <trkpt lat="49.91654" lon="2.52846">
        <ele>31.5</ele>
        <time>2020-09-30T13:36:29Z</time>
      </trkpt>
      <trkpt lat="49.91653" lon="2.52846">
        <ele>31.5</ele>
        <time>2020-09-30T13:36:31Z</time>
      </trkpt>
      <trkpt lat="49.91651" lon="2.52846">
        <ele>31.5</ele>
        <time>2020-09-30T13:36:32Z</time>
      </trkpt>
      <trkpt lat="49.91649" lon="2.52847">
        <ele>31.5</ele>
        <time>2020-09-30T13:36:33Z</time>
      </trkpt>
      <trkpt lat="49.91648" lon="2.52847">
        <ele>31.5</ele>
        <time>2020-09-30T13:36:34Z</time>
      </trkpt>
      <trkpt lat="49.91647" lon="2.52847">
        <ele>31.5</ele>
        <time>2020-09-30T13:36:35Z</time>
      </trkpt>
      <trkpt lat="49.91646" lon="2.52847">
        <ele>31.5</ele>
        <time>2020-09-30T13:36:36Z</time>
      </trkpt>
      <trkpt lat="49.91644" lon="2.52848">
        <ele>31.5</ele>
        <time>2020-09-30T13:36:37Z</time>
      </trkpt>
      <trkpt lat="49.91643" lon="2.52848">
        <ele>31.5</ele>
        <time>2020-09-30T13:36:38Z</time>
      </trkpt>
      <trkpt lat="49.91642" lon="2.52848">
        <ele>31.5</ele>
        <time>2020-09-30T13:36:40Z</time>
      </trkpt>
      <trkpt lat="49.9164" lon="2.52849">
        <ele>31.5</ele>
        <time>2020-09-30T13:36:41Z</time>
      </trkpt>
      <trkpt lat="49.91639" lon="2.52849">
        <ele>31.5</ele>
        <time>2020-09-30T13:36:42Z</time>
      </trkpt>
      <trkpt lat="49.91636" lon="2.5285">
        <ele>31.5</ele>
        <time>2020-09-30T13:36:43Z</time>
      </trkpt>
      <trkpt lat="49.91635" lon="2.5285">
        <ele>31.5</ele>
        <time>2020-09-30T13:36:44Z</time>
      </trkpt>
      <trkpt lat="49.91634" lon="2.5285">
        <ele>31.5</ele>
        <time>2020-09-30T13:36:45Z</time>
      </trkpt>
      <trkpt lat="49.91632" lon="2.52851">
        <ele>31.5</ele>
        <time>2020-09-30T13:36:47Z</time>
      </trkpt>
      <trkpt lat="49.91631" lon="2.52851">
        <ele>31.5</ele>
        <time>2020-09-30T13:36:48Z</time>
      </trkpt>
      <trkpt lat="49.91631" lon="2.52851">
        <ele>31.5</ele>
        <time>2020-09-30T13:36:49Z</time>
      </trkpt>
      <trkpt lat="49.91629" lon="2.52851">
        <ele>31.5</ele>
        <time>2020-09-30T13:36:50Z</time>
      </trkpt>
      <trkpt lat="49.91628" lon="2.52852">
        <ele>31.5</ele>
        <time>2020-09-30T13:36:51Z</time>
      </trkpt>
      <trkpt lat="49.91625" lon="2.52852">
        <ele>31.5</ele>
        <time>2020-09-30T13:36:52Z</time>
      </trkpt>
      <trkpt lat="49.91625" lon="2.52852">
        <ele>31.5</ele>
        <time>2020-09-30T13:36:53Z</time>
      </trkpt>
      <trkpt lat="49.91624" lon="2.52852">
        <ele>31.5</ele>
        <time>2020-09-30T13:36:54Z</time>
      </trkpt>
      <trkpt lat="49.91623" lon="2.52852">
        <ele>31.5</ele>
        <time>2020-09-30T13:36:55Z</time>
      </trkpt>
      <trkpt lat="49.91622" lon="2.52852">
        <ele>31.6</ele>
        <time>2020-09-30T13:36:56Z</time>
      </trkpt>
      <trkpt lat="49.9162" lon="2.52853">
        <ele>31.6</ele>
        <time>2020-09-30T13:36:57Z</time>
      </trkpt>
      <trkpt lat="49.91619" lon="2.52853">
        <ele>31.6</ele>
        <time>2020-09-30T13:36:58Z</time>
      </trkpt>
      <trkpt lat="49.91618" lon="2.52853">
        <ele>31.6</ele>
        <time>2020-09-30T13:36:59Z</time>
      </trkpt>
      <trkpt lat="49.91617" lon="2.52854">
        <ele>31.6</ele>
        <time>2020-09-30T13:37:00Z</time>
      </trkpt>
      <trkpt lat="49.91615" lon="2.52854">
        <ele>31.6</ele>
        <time>2020-09-30T13:37:02Z</time>
      </trkpt>
      <trkpt lat="49.91614" lon="2.52855">
        <ele>31.6</ele>
        <time>2020-09-30T13:37:03Z</time>
      </trkpt>
      <trkpt lat="49.91612" lon="2.52855">
        <ele>31.6</ele>
        <time>2020-09-30T13:37:04Z</time>
      </trkpt>
      <trkpt lat="49.91611" lon="2.52855">
        <ele>31.6</ele>
        <time>2020-09-30T13:37:05Z</time>
      </trkpt>
      <trkpt lat="49.9161" lon="2.52855">
        <ele>31.6</ele>
        <time>2020-09-30T13:37:06Z</time>
      </trkpt>
      <trkpt lat="49.91609" lon="2.52855">
        <ele>31.6</ele>
        <time>2020-09-30T13:37:07Z</time>
      </trkpt>
      <trkpt lat="49.91608" lon="2.52856">
        <ele>31.6</ele>
        <time>2020-09-30T13:37:08Z</time>
      </trkpt>
      <trkpt lat="49.91607" lon="2.52856">
        <ele>31.6</ele>
        <time>2020-09-30T13:37:09Z</time>
      </trkpt>
      <trkpt lat="49.91606" lon="2.52856">
        <ele>31.6</ele>
        <time>2020-09-30T13:37:11Z</time>
      </trkpt>
      <trkpt lat="49.91605" lon="2.52856">
        <ele>31.6</ele>
        <time>2020-09-30T13:37:12Z</time>
      </trkpt>
      <trkpt lat="49.91604" lon="2.52856">
        <ele>31.6</ele>
        <time>2020-09-30T13:37:13Z</time>
      </trkpt>
      <trkpt lat="49.91603" lon="2.52857">
        <ele>31.6</ele>
        <time>2020-09-30T13:37:14Z</time>
      </trkpt>
      <trkpt lat="49.91602" lon="2.52857">
        <ele>31.6</ele>
        <time>2020-09-30T13:37:15Z</time>
      </trkpt>
      <trkpt lat="49.916" lon="2.52857">
        <ele>31.6</ele>
        <time>2020-09-30T13:37:16Z</time>
      </trkpt>
      <trkpt lat="49.91599" lon="2.52857">
        <ele>31.7</ele>
        <time>2020-09-30T13:37:17Z</time>
      </trkpt>
      <trkpt lat="49.91597" lon="2.52857">
        <ele>31.7</ele>
        <time>2020-09-30T13:37:19Z</time>
      </trkpt>
      <trkpt lat="49.91596" lon="2.52857">
        <ele>31.7</ele>
        <time>2020-09-30T13:37:20Z</time>
      </trkpt>
      <trkpt lat="49.91593" lon="2.52857">
        <ele>31.7</ele>
        <time>2020-09-30T13:37:22Z</time>
      </trkpt>
      <trkpt lat="49.91592" lon="2.52857">
        <ele>31.7</ele>
        <time>2020-09-30T13:37:23Z</time>
      </trkpt>
      <trkpt lat="49.91591" lon="2.52857">
        <ele>31.7</ele>
        <time>2020-09-30T13:37:24Z</time>
      </trkpt>
      <trkpt lat="49.9159" lon="2.52857">
        <ele>31.7</ele>
        <time>2020-09-30T13:37:25Z</time>
      </trkpt>
      <trkpt lat="49.91589" lon="2.52857">
        <ele>31.7</ele>
        <time>2020-09-30T13:37:26Z</time>
      </trkpt>
      <trkpt lat="49.91587" lon="2.52857">
        <ele>31.7</ele>
        <time>2020-09-30T13:37:27Z</time>
      </trkpt>
      <trkpt lat="49.91586" lon="2.52857">
        <ele>31.7</ele>
        <time>2020-09-30T13:37:28Z</time>
      </trkpt>
      <trkpt lat="49.91585" lon="2.52857">
        <ele>31.7</ele>
        <time>2020-09-30T13:37:29Z</time>
      </trkpt>
      <trkpt lat="49.91584" lon="2.52856">
        <ele>31.7</ele>
        <time>2020-09-30T13:37:30Z</time>
      </trkpt>
      <trkpt lat="49.91581" lon="2.52856">
        <ele>31.7</ele>
        <time>2020-09-30T13:37:32Z</time>
      </trkpt>
      <trkpt lat="49.91581" lon="2.52856">
        <ele>31.7</ele>
        <time>2020-09-30T13:37:33Z</time>
      </trkpt>
      <trkpt lat="49.91579" lon="2.52856">
        <ele>31.7</ele>
        <time>2020-09-30T13:37:34Z</time>
      </trkpt>
      <trkpt lat="49.91578" lon="2.52856">
        <ele>31.7</ele>
        <time>2020-09-30T13:37:35Z</time>
      </trkpt>
      <trkpt lat="49.91577" lon="2.52856">
        <ele>31.7</ele>
        <time>2020-09-30T13:37:36Z</time>
      </trkpt>
      <trkpt lat="49.91575" lon="2.52855">
        <ele>31.7</ele>
        <time>2020-09-30T13:37:37Z</time>
      </trkpt>
      <trkpt lat="49.91573" lon="2.52855">
        <ele>31.7</ele>
        <time>2020-09-30T13:37:38Z</time>
      </trkpt>
      <trkpt lat="49.91572" lon="2.52854">
        <ele>31.7</ele>
        <time>2020-09-30T13:37:39Z</time>
      </trkpt>
      <trkpt lat="49.91571" lon="2.52854">
        <ele>31.7</ele>
        <time>2020-09-30T13:37:41Z</time>
      </trkpt>
      <trkpt lat="49.91569" lon="2.52853">
        <ele>31.7</ele>
        <time>2020-09-30T13:37:42Z</time>
      </trkpt>
      <trkpt lat="49.91567" lon="2.52853">
        <ele>31.7</ele>
        <time>2020-09-30T13:37:43Z</time>
      </trkpt>
      <trkpt lat="49.91566" lon="2.52853">
        <ele>31.7</ele>
        <time>2020-09-30T13:37:44Z</time>
      </trkpt>
      <trkpt lat="49.91564" lon="2.52852">
        <ele>31.7</ele>
        <time>2020-09-30T13:37:45Z</time>
      </trkpt>
      <trkpt lat="49.91562" lon="2.52852">
        <ele>31.7</ele>
        <time>2020-09-30T13:37:46Z</time>
      </trkpt>
      <trkpt lat="49.91561" lon="2.52852">
        <ele>31.7</ele>
        <time>2020-09-30T13:37:47Z</time>
      </trkpt>
      <trkpt lat="49.91559" lon="2.52851">
        <ele>31.6</ele>
        <time>2020-09-30T13:37:48Z</time>
      </trkpt>
      <trkpt lat="49.91558" lon="2.52851">
        <ele>31.6</ele>
        <time>2020-09-30T13:37:50Z</time>
      </trkpt>
      <trkpt lat="49.91557" lon="2.52851">
        <ele>31.6</ele>
        <time>2020-09-30T13:37:51Z</time>
      </trkpt>
      <trkpt lat="49.91555" lon="2.5285">
        <ele>31.6</ele>
        <time>2020-09-30T13:37:52Z</time>
      </trkpt>
      <trkpt lat="49.91554" lon="2.5285">
        <ele>31.6</ele>
        <time>2020-09-30T13:37:53Z</time>
      </trkpt>
      <trkpt lat="49.91552" lon="2.52849">
        <ele>31.6</ele>
        <time>2020-09-30T13:37:54Z</time>
      </trkpt>
      <trkpt lat="49.91551" lon="2.52849">
        <ele>31.6</ele>
        <time>2020-09-30T13:37:55Z</time>
      </trkpt>
      <trkpt lat="49.9155" lon="2.52848">
        <ele>31.6</ele>
        <time>2020-09-30T13:37:56Z</time>
      </trkpt>
      <trkpt lat="49.91548" lon="2.52848">
        <ele>31.6</ele>
        <time>2020-09-30T13:37:57Z</time>
      </trkpt>
      <trkpt lat="49.91546" lon="2.52847">
        <ele>31.6</ele>
        <time>2020-09-30T13:37:59Z</time>
      </trkpt>
      <trkpt lat="49.91545" lon="2.52846">
        <ele>31.6</ele>
        <time>2020-09-30T13:38:00Z</time>
      </trkpt>
      <trkpt lat="49.91544" lon="2.52846">
        <ele>31.6</ele>
        <time>2020-09-30T13:38:01Z</time>
      </trkpt>
      <trkpt lat="49.91542" lon="2.52844">
        <ele>31.6</ele>
        <time>2020-09-30T13:38:02Z</time>
      </trkpt>
      <trkpt lat="49.91541" lon="2.52844">
        <ele>31.6</ele>
        <time>2020-09-30T13:38:03Z</time>
      </trkpt>
      <trkpt lat="49.91539" lon="2.52842">
        <ele>31.6</ele>
        <time>2020-09-30T13:38:04Z</time>
      </trkpt>
      <trkpt lat="49.91538" lon="2.52841">
        <ele>31.6</ele>
        <time>2020-09-30T13:38:06Z</time>
      </trkpt>
      <trkpt lat="49.91537" lon="2.52841">
        <ele>31.6</ele>
        <time>2020-09-30T13:38:07Z</time>
      </trkpt>
      <trkpt lat="49.91536" lon="2.5284">
        <ele>31.6</ele>
        <time>2020-09-30T13:38:08Z</time>
      </trkpt>
      <trkpt lat="49.91535" lon="2.52839">
        <ele>31.6</ele>
        <time>2020-09-30T13:38:09Z</time>
      </trkpt>
      <trkpt lat="49.91534" lon="2.52838">
        <ele>31.6</ele>
        <time>2020-09-30T13:38:10Z</time>
      </trkpt>
      <trkpt lat="49.91533" lon="2.52837">
        <ele>31.5</ele>
        <time>2020-09-30T13:38:11Z</time>
      </trkpt>
      <trkpt lat="49.91532" lon="2.52836">
        <ele>31.5</ele>
        <time>2020-09-30T13:38:12Z</time>
      </trkpt>
      <trkpt lat="49.9153" lon="2.52834">
        <ele>31.5</ele>
        <time>2020-09-30T13:38:14Z</time>
      </trkpt>
      <trkpt lat="49.91529" lon="2.52834">
        <ele>31.5</ele>
        <time>2020-09-30T13:38:15Z</time>
      </trkpt>
      <trkpt lat="49.91528" lon="2.52833">
        <ele>31.5</ele>
        <time>2020-09-30T13:38:16Z</time>
      </trkpt>
      <trkpt lat="49.91527" lon="2.52832">
        <ele>31.5</ele>
        <time>2020-09-30T13:38:17Z</time>
      </trkpt>
      <trkpt lat="49.91526" lon="2.52831">
        <ele>31.5</ele>
        <time>2020-09-30T13:38:18Z</time>
      </trkpt>
      <trkpt lat="49.91525" lon="2.5283">
        <ele>31.5</ele>
        <time>2020-09-30T13:38:19Z</time>
      </trkpt>
      <trkpt lat="49.91523" lon="2.52828">
        <ele>31.5</ele>
        <time>2020-09-30T13:38:20Z</time>
      </trkpt>
      <trkpt lat="49.91522" lon="2.52827">
        <ele>31.5</ele>
        <time>2020-09-30T13:38:21Z</time>
      </trkpt>
      <trkpt lat="49.9152" lon="2.52826">
        <ele>31.5</ele>
        <time>2020-09-30T13:38:23Z</time>
      </trkpt>
      <trkpt lat="49.91518" lon="2.52824">
        <ele>31.5</ele>
        <time>2020-09-30T13:38:24Z</time>
      </trkpt>
      <trkpt lat="49.91517" lon="2.52824">
        <ele>31.5</ele>
        <time>2020-09-30T13:38:25Z</time>
      </trkpt>
      <trkpt lat="49.91516" lon="2.52823">
        <ele>31.5</ele>
        <time>2020-09-30T13:38:26Z</time>
      </trkpt>
      <trkpt lat="49.91514" lon="2.52821">
        <ele>31.5</ele>
        <time>2020-09-30T13:38:27Z</time>
      </trkpt>
      <trkpt lat="49.91513" lon="2.5282">
        <ele>31.5</ele>
        <time>2020-09-30T13:38:28Z</time>
      </trkpt>
      <trkpt lat="49.91512" lon="2.52819">
        <ele>31.5</ele>
        <time>2020-09-30T13:38:29Z</time>
      </trkpt>
      <trkpt lat="49.91511" lon="2.52818">
        <ele>31.5</ele>
        <time>2020-09-30T13:38:30Z</time>
      </trkpt>
      <trkpt lat="49.9151" lon="2.52817">
        <ele>31.5</ele>
        <time>2020-09-30T13:38:32Z</time>
      </trkpt>
      <trkpt lat="49.91508" lon="2.52816">
        <ele>31.5</ele>
        <time>2020-09-30T13:38:33Z</time>
      </trkpt>
      <trkpt lat="49.91507" lon="2.52815">
        <ele>31.5</ele>
        <time>2020-09-30T13:38:34Z</time>
      </trkpt>
      <trkpt lat="49.91506" lon="2.52813">
        <ele>31.5</ele>
        <time>2020-09-30T13:38:35Z</time>
      </trkpt>
      <trkpt lat="49.91505" lon="2.52812">
        <ele>31.5</ele>
        <time>2020-09-30T13:38:36Z</time>
      </trkpt>
      <trkpt lat="49.91504" lon="2.52811">
        <ele>31.5</ele>
        <time>2020-09-30T13:38:37Z</time>
      </trkpt>
      <trkpt lat="49.91503" lon="2.52811">
        <ele>31.5</ele>
        <time>2020-09-30T13:38:38Z</time>
      </trkpt>
      <trkpt lat="49.91502" lon="2.5281">
        <ele>31.5</ele>
        <time>2020-09-30T13:38:39Z</time>
      </trkpt>
      <trkpt lat="49.91501" lon="2.52809">
        <ele>31.5</ele>
        <time>2020-09-30T13:38:40Z</time>
      </trkpt>
      <trkpt lat="49.915" lon="2.52808">
        <ele>31.5</ele>
        <time>2020-09-30T13:38:41Z</time>
      </trkpt>
      <trkpt lat="49.91498" lon="2.52806">
        <ele>31.5</ele>
        <time>2020-09-30T13:38:42Z</time>
      </trkpt>
      <trkpt lat="49.91496" lon="2.52805">
        <ele>31.5</ele>
        <time>2020-09-30T13:38:44Z</time>
      </trkpt>
      <trkpt lat="49.91495" lon="2.52805">
        <ele>31.5</ele>
        <time>2020-09-30T13:38:45Z</time>
      </trkpt>
      <trkpt lat="49.91494" lon="2.52804">
        <ele>31.5</ele>
        <time>2020-09-30T13:38:46Z</time>
      </trkpt>
      <trkpt lat="49.91493" lon="2.52803">
        <ele>31.5</ele>
        <time>2020-09-30T13:38:47Z</time>
      </trkpt>
      <trkpt lat="49.91492" lon="2.52803">
        <ele>31.5</ele>
        <time>2020-09-30T13:38:48Z</time>
      </trkpt>
      <trkpt lat="49.91491" lon="2.52802">
        <ele>31.5</ele>
        <time>2020-09-30T13:38:49Z</time>
      </trkpt>
      <trkpt lat="49.91489" lon="2.52801">
        <ele>31.5</ele>
        <time>2020-09-30T13:38:51Z</time>
      </trkpt>
      <trkpt lat="49.91488" lon="2.52801">
        <ele>31.5</ele>
        <time>2020-09-30T13:38:52Z</time>
      </trkpt>
      <trkpt lat="49.91486" lon="2.52799">
        <ele>31.5</ele>
        <time>2020-09-30T13:38:53Z</time>
      </trkpt>
      <trkpt lat="49.91486" lon="2.52799">
        <ele>31.5</ele>
        <time>2020-09-30T13:38:54Z</time>
      </trkpt>
      <trkpt lat="49.91485" lon="2.52798">
        <ele>31.5</ele>
        <time>2020-09-30T13:38:55Z</time>
      </trkpt>
      <trkpt lat="49.91483" lon="2.52797">
        <ele>31.5</ele>
        <time>2020-09-30T13:38:56Z</time>
      </trkpt>
      <trkpt lat="49.91481" lon="2.52796">
        <ele>31.5</ele>
        <time>2020-09-30T13:38:57Z</time>
      </trkpt>
      <trkpt lat="49.91481" lon="2.52795">
        <ele>31.5</ele>
        <time>2020-09-30T13:38:59Z</time>
      </trkpt>
      <trkpt lat="49.91479" lon="2.52794">
        <ele>31.5</ele>
        <time>2020-09-30T13:39:00Z</time>
      </trkpt>
      <trkpt lat="49.91478" lon="2.52794">
        <ele>31.5</ele>
        <time>2020-09-30T13:39:01Z</time>
      </trkpt>
      <trkpt lat="49.91476" lon="2.52792">
        <ele>31.5</ele>
        <time>2020-09-30T13:39:02Z</time>
      </trkpt>
      <trkpt lat="49.91475" lon="2.52791">
        <ele>31.5</ele>
        <time>2020-09-30T13:39:04Z</time>
      </trkpt>
      <trkpt lat="49.91474" lon="2.52791">
        <ele>31.5</ele>
        <time>2020-09-30T13:39:05Z</time>
      </trkpt>
      <trkpt lat="49.91473" lon="2.5279">
        <ele>31.5</ele>
        <time>2020-09-30T13:39:06Z</time>
      </trkpt>
      <trkpt lat="49.91472" lon="2.52789">
        <ele>31.5</ele>
        <time>2020-09-30T13:39:07Z</time>
      </trkpt>
      <trkpt lat="49.91471" lon="2.52789">
        <ele>31.5</ele>
        <time>2020-09-30T13:39:08Z</time>
      </trkpt>
      <trkpt lat="49.9147" lon="2.52788">
        <ele>31.5</ele>
        <time>2020-09-30T13:39:09Z</time>
      </trkpt>
      <trkpt lat="49.91469" lon="2.52787">
        <ele>31.5</ele>
        <time>2020-09-30T13:39:10Z</time>
      </trkpt>
      <trkpt lat="49.91467" lon="2.52785">
        <ele>31.5</ele>
        <time>2020-09-30T13:39:11Z</time>
      </trkpt>
      <trkpt lat="49.91466" lon="2.52784">
        <ele>31.5</ele>
        <time>2020-09-30T13:39:13Z</time>
      </trkpt>
      <trkpt lat="49.91465" lon="2.52784">
        <ele>31.5</ele>
        <time>2020-09-30T13:39:14Z</time>
      </trkpt>
      <trkpt lat="49.91464" lon="2.52783">
        <ele>31.5</ele>
        <time>2020-09-30T13:39:15Z</time>
      </trkpt>
      <trkpt lat="49.91463" lon="2.52782">
        <ele>31.5</ele>
        <time>2020-09-30T13:39:16Z</time>
      </trkpt>
      <trkpt lat="49.91461" lon="2.52781">
        <ele>31.5</ele>
        <time>2020-09-30T13:39:18Z</time>
      </trkpt>
      <trkpt lat="49.9146" lon="2.52781">
        <ele>31.5</ele>
        <time>2020-09-30T13:39:19Z</time>
      </trkpt>
      <trkpt lat="49.91458" lon="2.5278">
        <ele>31.5</ele>
        <time>2020-09-30T13:39:20Z</time>
      </trkpt>
      <trkpt lat="49.91456" lon="2.52779">
        <ele>31.5</ele>
        <time>2020-09-30T13:39:22Z</time>
      </trkpt>
      <trkpt lat="49.91454" lon="2.52778">
        <ele>31.5</ele>
        <time>2020-09-30T13:39:23Z</time>
      </trkpt>
      <trkpt lat="49.91453" lon="2.52777">
        <ele>31.5</ele>
        <time>2020-09-30T13:39:24Z</time>
      </trkpt>
      <trkpt lat="49.91451" lon="2.52775">
        <ele>31.5</ele>
        <time>2020-09-30T13:39:25Z</time>
      </trkpt>
      <trkpt lat="49.91451" lon="2.52774">
        <ele>31.5</ele>
        <time>2020-09-30T13:39:26Z</time>
      </trkpt>
      <trkpt lat="49.9145" lon="2.52774">
        <ele>31.5</ele>
        <time>2020-09-30T13:39:27Z</time>
      </trkpt>
      <trkpt lat="49.91448" lon="2.52772">
        <ele>31.5</ele>
        <time>2020-09-30T13:39:28Z</time>
      </trkpt>
      <trkpt lat="49.91447" lon="2.52771">
        <ele>31.5</ele>
        <time>2020-09-30T13:39:29Z</time>
      </trkpt>
      <trkpt lat="49.91446" lon="2.5277">
        <ele>31.5</ele>
        <time>2020-09-30T13:39:30Z</time>
      </trkpt>
      <trkpt lat="49.91444" lon="2.52768">
        <ele>31.5</ele>
        <time>2020-09-30T13:39:31Z</time>
      </trkpt>
      <trkpt lat="49.91443" lon="2.52768">
        <ele>31.5</ele>
        <time>2020-09-30T13:39:32Z</time>
      </trkpt>
      <trkpt lat="49.91442" lon="2.52767">
        <ele>31.5</ele>
        <time>2020-09-30T13:39:33Z</time>
      </trkpt>
      <trkpt lat="49.91441" lon="2.52767">
        <ele>31.5</ele>
        <time>2020-09-30T13:39:35Z</time>
      </trkpt>
      <trkpt lat="49.9144" lon="2.52766">
        <ele>31.5</ele>
        <time>2020-09-30T13:39:36Z</time>
      </trkpt>
      <trkpt lat="49.91438" lon="2.52764">
        <ele>31.5</ele>
        <time>2020-09-30T13:39:37Z</time>
      </trkpt>
      <trkpt lat="49.91437" lon="2.52763">
        <ele>31.5</ele>
        <time>2020-09-30T13:39:38Z</time>
      </trkpt>
      <trkpt lat="49.91435" lon="2.52762">
        <ele>31.5</ele>
        <time>2020-09-30T13:39:39Z</time>
      </trkpt>
      <trkpt lat="49.91434" lon="2.52761">
        <ele>31.5</ele>
        <time>2020-09-30T13:39:40Z</time>
      </trkpt>
      <trkpt lat="49.91434" lon="2.5276">
        <ele>31.5</ele>
        <time>2020-09-30T13:39:41Z</time>
      </trkpt>
      <trkpt lat="49.91432" lon="2.52759">
        <ele>31.5</ele>
        <time>2020-09-30T13:39:42Z</time>
      </trkpt>
      <trkpt lat="49.91431" lon="2.52758">
        <ele>31.5</ele>
        <time>2020-09-30T13:39:44Z</time>
      </trkpt>
      <trkpt lat="49.9143" lon="2.52757">
        <ele>31.5</ele>
        <time>2020-09-30T13:39:45Z</time>
      </trkpt>
      <trkpt lat="49.91429" lon="2.52756">
        <ele>31.5</ele>
        <time>2020-09-30T13:39:46Z</time>
      </trkpt>
      <trkpt lat="49.91428" lon="2.52755">
        <ele>31.5</ele>
        <time>2020-09-30T13:39:47Z</time>
      </trkpt>
      <trkpt lat="49.91426" lon="2.52754">
        <ele>31.5</ele>
        <time>2020-09-30T13:39:48Z</time>
      </trkpt>
      <trkpt lat="49.91425" lon="2.52753">
        <ele>31.5</ele>
        <time>2020-09-30T13:39:49Z</time>
      </trkpt>
      <trkpt lat="49.91422" lon="2.52752">
        <ele>31.5</ele>
        <time>2020-09-30T13:39:50Z</time>
      </trkpt>
      <trkpt lat="49.91421" lon="2.52751">
        <ele>31.5</ele>
        <time>2020-09-30T13:39:51Z</time>
      </trkpt>
      <trkpt lat="49.9142" lon="2.5275">
        <ele>31.5</ele>
        <time>2020-09-30T13:39:52Z</time>
      </trkpt>
      <trkpt lat="49.91419" lon="2.5275">
        <ele>31.5</ele>
        <time>2020-09-30T13:39:53Z</time>
      </trkpt>
      <trkpt lat="49.91417" lon="2.52749">
        <ele>31.5</ele>
        <time>2020-09-30T13:39:55Z</time>
      </trkpt>
      <trkpt lat="49.91416" lon="2.52748">
        <ele>31.5</ele>
        <time>2020-09-30T13:39:56Z</time>
      </trkpt>
      <trkpt lat="49.91414" lon="2.52747">
        <ele>31.5</ele>
        <time>2020-09-30T13:39:57Z</time>
      </trkpt>
      <trkpt lat="49.91413" lon="2.52746">
        <ele>31.5</ele>
        <time>2020-09-30T13:39:58Z</time>
      </trkpt>
      <trkpt lat="49.91412" lon="2.52745">
        <ele>31.5</ele>
        <time>2020-09-30T13:39:59Z</time>
      </trkpt>
      <trkpt lat="49.9141" lon="2.52744">
        <ele>31.5</ele>
        <time>2020-09-30T13:40:01Z</time>
      </trkpt>
      <trkpt lat="49.91409" lon="2.52743">
        <ele>31.5</ele>
        <time>2020-09-30T13:40:02Z</time>
      </trkpt>
      <trkpt lat="49.91407" lon="2.52742">
        <ele>31.5</ele>
        <time>2020-09-30T13:40:03Z</time>
      </trkpt>
      <trkpt lat="49.91406" lon="2.52741">
        <ele>31.5</ele>
        <time>2020-09-30T13:40:04Z</time>
      </trkpt>
      <trkpt lat="49.91405" lon="2.5274">
        <ele>31.5</ele>
        <time>2020-09-30T13:40:06Z</time>
      </trkpt>
      <trkpt lat="49.91404" lon="2.52739">
        <ele>31.5</ele>
        <time>2020-09-30T13:40:07Z</time>
      </trkpt>
      <trkpt lat="49.91402" lon="2.52737">
        <ele>31.6</ele>
        <time>2020-09-30T13:40:08Z</time>
      </trkpt>
      <trkpt lat="49.91401" lon="2.52736">
        <ele>31.6</ele>
        <time>2020-09-30T13:40:09Z</time>
      </trkpt>
      <trkpt lat="49.914" lon="2.52735">
        <ele>31.6</ele>
        <time>2020-09-30T13:40:10Z</time>
      </trkpt>
      <trkpt lat="49.91399" lon="2.52734">
        <ele>31.6</ele>
        <time>2020-09-30T13:40:11Z</time>
      </trkpt>
      <trkpt lat="49.91397" lon="2.52733">
        <ele>31.6</ele>
        <time>2020-09-30T13:40:13Z</time>
      </trkpt>
      <trkpt lat="49.91397" lon="2.52732">
        <ele>31.6</ele>
        <time>2020-09-30T13:40:14Z</time>
      </trkpt>
      <trkpt lat="49.91396" lon="2.52731">
        <ele>31.6</ele>
        <time>2020-09-30T13:40:15Z</time>
      </trkpt>
      <trkpt lat="49.91394" lon="2.5273">
        <ele>31.6</ele>
        <time>2020-09-30T13:40:16Z</time>
      </trkpt>
      <trkpt lat="49.91393" lon="2.52729">
        <ele>31.6</ele>
        <time>2020-09-30T13:40:17Z</time>
      </trkpt>
      <trkpt lat="49.91391" lon="2.52727">
        <ele>31.6</ele>
        <time>2020-09-30T13:40:18Z</time>
      </trkpt>
      <trkpt lat="49.91391" lon="2.52726">
        <ele>31.6</ele>
        <time>2020-09-30T13:40:19Z</time>
      </trkpt>
      <trkpt lat="49.9139" lon="2.52725">
        <ele>31.6</ele>
        <time>2020-09-30T13:40:20Z</time>
      </trkpt>
      <trkpt lat="49.91389" lon="2.52724">
        <ele>31.6</ele>
        <time>2020-09-30T13:40:22Z</time>
      </trkpt>
      <trkpt lat="49.91387" lon="2.52722">
        <ele>31.6</ele>
        <time>2020-09-30T13:40:23Z</time>
      </trkpt>
      <trkpt lat="49.91386" lon="2.52722">
        <ele>31.6</ele>
        <time>2020-09-30T13:40:24Z</time>
      </trkpt>
      <trkpt lat="49.91385" lon="2.52721">
        <ele>31.6</ele>
        <time>2020-09-30T13:40:25Z</time>
      </trkpt>
      <trkpt lat="49.91384" lon="2.5272">
        <ele>31.6</ele>
        <time>2020-09-30T13:40:26Z</time>
      </trkpt>
      <trkpt lat="49.91383" lon="2.52719">
        <ele>31.6</ele>
        <time>2020-09-30T13:40:27Z</time>
      </trkpt>
      <trkpt lat="49.91381" lon="2.52717">
        <ele>31.6</ele>
        <time>2020-09-30T13:40:29Z</time>
      </trkpt>
      <trkpt lat="49.9138" lon="2.52716">
        <ele>31.6</ele>
        <time>2020-09-30T13:40:30Z</time>
      </trkpt>
      <trkpt lat="49.91378" lon="2.52715">
        <ele>31.6</ele>
        <time>2020-09-30T13:40:31Z</time>
      </trkpt>
      <trkpt lat="49.91376" lon="2.52713">
        <ele>31.6</ele>
        <time>2020-09-30T13:40:33Z</time>
      </trkpt>
      <trkpt lat="49.91375" lon="2.52712">
        <ele>31.6</ele>
        <time>2020-09-30T13:40:35Z</time>
      </trkpt>
      <trkpt lat="49.91373" lon="2.52711">
        <ele>31.6</ele>
        <time>2020-09-30T13:40:36Z</time>
      </trkpt>
      <trkpt lat="49.91372" lon="2.5271">
        <ele>31.6</ele>
        <time>2020-09-30T13:40:37Z</time>
      </trkpt>
      <trkpt lat="49.9137" lon="2.52709">
        <ele>31.6</ele>
        <time>2020-09-30T13:40:38Z</time>
      </trkpt>
      <trkpt lat="49.91369" lon="2.52708">
        <ele>31.6</ele>
        <time>2020-09-30T13:40:39Z</time>
      </trkpt>
      <trkpt lat="49.91367" lon="2.52706">
        <ele>31.6</ele>
        <time>2020-09-30T13:40:41Z</time>
      </trkpt>
      <trkpt lat="49.91366" lon="2.52706">
        <ele>31.6</ele>
        <time>2020-09-30T13:40:42Z</time>
      </trkpt>
      <trkpt lat="49.91365" lon="2.52705">
        <ele>31.6</ele>
        <time>2020-09-30T13:40:43Z</time>
      </trkpt>
      <trkpt lat="49.91364" lon="2.52705">
        <ele>31.6</ele>
        <time>2020-09-30T13:40:44Z</time>
      </trkpt>
      <trkpt lat="49.91363" lon="2.52704">
        <ele>31.6</ele>
        <time>2020-09-30T13:40:45Z</time>
      </trkpt>
      <trkpt lat="49.91362" lon="2.52703">
        <ele>31.6</ele>
        <time>2020-09-30T13:40:46Z</time>
      </trkpt>
      <trkpt lat="49.91361" lon="2.52702">
        <ele>31.6</ele>
        <time>2020-09-30T13:40:47Z</time>
      </trkpt>
      <trkpt lat="49.91359" lon="2.52701">
        <ele>31.6</ele>
        <time>2020-09-30T13:40:48Z</time>
      </trkpt>
      <trkpt lat="49.91358" lon="2.527">
        <ele>31.6</ele>
        <time>2020-09-30T13:40:50Z</time>
      </trkpt>
      <trkpt lat="49.91357" lon="2.52699">
        <ele>31.6</ele>
        <time>2020-09-30T13:40:51Z</time>
      </trkpt>
      <trkpt lat="49.91356" lon="2.52699">
        <ele>31.6</ele>
        <time>2020-09-30T13:40:52Z</time>
      </trkpt>
      <trkpt lat="49.91353" lon="2.52697">
        <ele>31.6</ele>
        <time>2020-09-30T13:40:53Z</time>
      </trkpt>
      <trkpt lat="49.91352" lon="2.52696">
        <ele>31.6</ele>
        <time>2020-09-30T13:40:55Z</time>
      </trkpt>
      <trkpt lat="49.91351" lon="2.52696">
        <ele>31.6</ele>
        <time>2020-09-30T13:40:56Z</time>
      </trkpt>
      <trkpt lat="49.9135" lon="2.52695">
        <ele>31.5</ele>
        <time>2020-09-30T13:40:57Z</time>
      </trkpt>
      <trkpt lat="49.91347" lon="2.52694">
        <ele>31.5</ele>
        <time>2020-09-30T13:40:58Z</time>
      </trkpt>
      <trkpt lat="49.91347" lon="2.52693">
        <ele>31.5</ele>
        <time>2020-09-30T13:40:59Z</time>
      </trkpt>
      <trkpt lat="49.91346" lon="2.52692">
        <ele>31.5</ele>
        <time>2020-09-30T13:41:00Z</time>
      </trkpt>
      <trkpt lat="49.91345" lon="2.52692">
        <ele>31.5</ele>
        <time>2020-09-30T13:41:01Z</time>
      </trkpt>
      <trkpt lat="49.91344" lon="2.52691">
        <ele>31.5</ele>
        <time>2020-09-30T13:41:03Z</time>
      </trkpt>
      <trkpt lat="49.91342" lon="2.5269">
        <ele>31.6</ele>
        <time>2020-09-30T13:41:04Z</time>
      </trkpt>
      <trkpt lat="49.91341" lon="2.5269">
        <ele>31.6</ele>
        <time>2020-09-30T13:41:05Z</time>
      </trkpt>
      <trkpt lat="49.91339" lon="2.52689">
        <ele>31.6</ele>
        <time>2020-09-30T13:41:06Z</time>
      </trkpt>
      <trkpt lat="49.91338" lon="2.52688">
        <ele>31.6</ele>
        <time>2020-09-30T13:41:08Z</time>
      </trkpt>
      <trkpt lat="49.91335" lon="2.52687">
        <ele>31.6</ele>
        <time>2020-09-30T13:41:09Z</time>
      </trkpt>
      <trkpt lat="49.91334" lon="2.52686">
        <ele>31.6</ele>
        <time>2020-09-30T13:41:10Z</time>
      </trkpt>
      <trkpt lat="49.91333" lon="2.52685">
        <ele>31.6</ele>
        <time>2020-09-30T13:41:11Z</time>
      </trkpt>
      <trkpt lat="49.91332" lon="2.52685">
        <ele>31.6</ele>
        <time>2020-09-30T13:41:12Z</time>
      </trkpt>
      <trkpt lat="49.91329" lon="2.52683">
        <ele>31.6</ele>
        <time>2020-09-30T13:41:14Z</time>
      </trkpt>
      <trkpt lat="49.91328" lon="2.52683">
        <ele>31.6</ele>
        <time>2020-09-30T13:41:15Z</time>
      </trkpt>
      <trkpt lat="49.91326" lon="2.52682">
        <ele>31.6</ele>
        <time>2020-09-30T13:41:16Z</time>
      </trkpt>
      <trkpt lat="49.91325" lon="2.52681">
        <ele>31.6</ele>
        <time>2020-09-30T13:41:18Z</time>
      </trkpt>
      <trkpt lat="49.91324" lon="2.5268">
        <ele>31.6</ele>
        <time>2020-09-30T13:41:19Z</time>
      </trkpt>
      <trkpt lat="49.91322" lon="2.52679">
        <ele>31.6</ele>
        <time>2020-09-30T13:41:20Z</time>
      </trkpt>
      <trkpt lat="49.91321" lon="2.52678">
        <ele>31.6</ele>
        <time>2020-09-30T13:41:21Z</time>
      </trkpt>
      <trkpt lat="49.91319" lon="2.52677">
        <ele>31.6</ele>
        <time>2020-09-30T13:41:22Z</time>
      </trkpt>
      <trkpt lat="49.91317" lon="2.52676">
        <ele>31.6</ele>
        <time>2020-09-30T13:41:23Z</time>
      </trkpt>
      <trkpt lat="49.91315" lon="2.52675">
        <ele>31.6</ele>
        <time>2020-09-30T13:41:24Z</time>
      </trkpt>
      <trkpt lat="49.91315" lon="2.52675">
        <ele>31.6</ele>
        <time>2020-09-30T13:41:26Z</time>
      </trkpt>
      <trkpt lat="49.91314" lon="2.52674">
        <ele>31.6</ele>
        <time>2020-09-30T13:41:27Z</time>
      </trkpt>
      <trkpt lat="49.91311" lon="2.52672">
        <ele>31.6</ele>
        <time>2020-09-30T13:41:29Z</time>
      </trkpt>
      <trkpt lat="49.9131" lon="2.52672">
        <ele>31.6</ele>
        <time>2020-09-30T13:41:30Z</time>
      </trkpt>
      <trkpt lat="49.91309" lon="2.52671">
        <ele>31.6</ele>
        <time>2020-09-30T13:41:31Z</time>
      </trkpt>
      <trkpt lat="49.91306" lon="2.52669">
        <ele>31.6</ele>
        <time>2020-09-30T13:41:32Z</time>
      </trkpt>
      <trkpt lat="49.91305" lon="2.52668">
        <ele>31.6</ele>
        <time>2020-09-30T13:41:33Z</time>
      </trkpt>
      <trkpt lat="49.91304" lon="2.52667">
        <ele>31.6</ele>
        <time>2020-09-30T13:41:35Z</time>
      </trkpt>
      <trkpt lat="49.91303" lon="2.52667">
        <ele>31.6</ele>
        <time>2020-09-30T13:41:36Z</time>
      </trkpt>
      <trkpt lat="49.91302" lon="2.52666">
        <ele>31.6</ele>
        <time>2020-09-30T13:41:37Z</time>
      </trkpt>
      <trkpt lat="49.91301" lon="2.52665">
        <ele>31.6</ele>
        <time>2020-09-30T13:41:38Z</time>
      </trkpt>
      <trkpt lat="49.91299" lon="2.52664">
        <ele>31.6</ele>
        <time>2020-09-30T13:41:39Z</time>
      </trkpt>
      <trkpt lat="49.91296" lon="2.52662">
        <ele>31.6</ele>
        <time>2020-09-30T13:41:41Z</time>
      </trkpt>
      <trkpt lat="49.91296" lon="2.52662">
        <ele>31.6</ele>
        <time>2020-09-30T13:41:42Z</time>
      </trkpt>
      <trkpt lat="49.91294" lon="2.52661">
        <ele>31.6</ele>
        <time>2020-09-30T13:41:43Z</time>
      </trkpt>
      <trkpt lat="49.91293" lon="2.52661">
        <ele>31.6</ele>
        <time>2020-09-30T13:41:44Z</time>
      </trkpt>
      <trkpt lat="49.91292" lon="2.5266">
        <ele>31.6</ele>
        <time>2020-09-30T13:41:46Z</time>
      </trkpt>
      <trkpt lat="49.9129" lon="2.52659">
        <ele>31.6</ele>
        <time>2020-09-30T13:41:47Z</time>
      </trkpt>
      <trkpt lat="49.91289" lon="2.52658">
        <ele>31.6</ele>
        <time>2020-09-30T13:41:48Z</time>
      </trkpt>
      <trkpt lat="49.91288" lon="2.52657">
        <ele>31.6</ele>
        <time>2020-09-30T13:41:49Z</time>
      </trkpt>
      <trkpt lat="49.91287" lon="2.52656">
        <ele>31.6</ele>
        <time>2020-09-30T13:41:50Z</time>
      </trkpt>
      <trkpt lat="49.91286" lon="2.52655">
        <ele>31.6</ele>
        <time>2020-09-30T13:41:51Z</time>
      </trkpt>
      <trkpt lat="49.91284" lon="2.52654">
        <ele>31.6</ele>
        <time>2020-09-30T13:41:53Z</time>
      </trkpt>
      <trkpt lat="49.91282" lon="2.52653">
        <ele>31.6</ele>
        <time>2020-09-30T13:41:54Z</time>
      </trkpt>
      <trkpt lat="49.91281" lon="2.52652">
        <ele>31.6</ele>
        <time>2020-09-30T13:41:55Z</time>
      </trkpt>
      <trkpt lat="49.9128" lon="2.52651">
        <ele>31.7</ele>
        <time>2020-09-30T13:41:56Z</time>
      </trkpt>
      <trkpt lat="49.91278" lon="2.5265">
        <ele>31.7</ele>
        <time>2020-09-30T13:41:58Z</time>
      </trkpt>
      <trkpt lat="49.91276" lon="2.52648">
        <ele>31.7</ele>
        <time>2020-09-30T13:41:59Z</time>
      </trkpt>
      <trkpt lat="49.91275" lon="2.52648">
        <ele>31.7</ele>
        <time>2020-09-30T13:42:00Z</time>
      </trkpt>
      <trkpt lat="49.91273" lon="2.52647">
        <ele>31.7</ele>
        <time>2020-09-30T13:42:01Z</time>
      </trkpt>
      <trkpt lat="49.91272" lon="2.52646">
        <ele>31.7</ele>
        <time>2020-09-30T13:42:02Z</time>
      </trkpt>
      <trkpt lat="49.9127" lon="2.52645">
        <ele>31.7</ele>
        <time>2020-09-30T13:42:03Z</time>
      </trkpt>
      <trkpt lat="49.91269" lon="2.52644">
        <ele>31.7</ele>
        <time>2020-09-30T13:42:05Z</time>
      </trkpt>
      <trkpt lat="49.91268" lon="2.52644">
        <ele>31.7</ele>
        <time>2020-09-30T13:42:06Z</time>
      </trkpt>
      <trkpt lat="49.91266" lon="2.52642">
        <ele>31.7</ele>
        <time>2020-09-30T13:42:07Z</time>
      </trkpt>
      <trkpt lat="49.91265" lon="2.52641">
        <ele>31.7</ele>
        <time>2020-09-30T13:42:08Z</time>
      </trkpt>
      <trkpt lat="49.91263" lon="2.5264">
        <ele>31.7</ele>
        <time>2020-09-30T13:42:09Z</time>
      </trkpt>
      <trkpt lat="49.91262" lon="2.52639">
        <ele>31.7</ele>
        <time>2020-09-30T13:42:10Z</time>
      </trkpt>
      <trkpt lat="49.91261" lon="2.52638">
        <ele>31.7</ele>
        <time>2020-09-30T13:42:11Z</time>
      </trkpt>
      <trkpt lat="49.91259" lon="2.52635">
        <ele>31.7</ele>
        <time>2020-09-30T13:42:12Z</time>
      </trkpt>
      <trkpt lat="49.91258" lon="2.52635">
        <ele>31.7</ele>
        <time>2020-09-30T13:42:14Z</time>
      </trkpt>
      <trkpt lat="49.91257" lon="2.52634">
        <ele>31.7</ele>
        <time>2020-09-30T13:42:15Z</time>
      </trkpt>
      <trkpt lat="49.91256" lon="2.52633">
        <ele>31.7</ele>
        <time>2020-09-30T13:42:16Z</time>
      </trkpt>
      <trkpt lat="49.91256" lon="2.52632">
        <ele>31.7</ele>
        <time>2020-09-30T13:42:17Z</time>
      </trkpt>
      <trkpt lat="49.91254" lon="2.5263">
        <ele>31.7</ele>
        <time>2020-09-30T13:42:18Z</time>
      </trkpt>
      <trkpt lat="49.91253" lon="2.52629">
        <ele>31.7</ele>
        <time>2020-09-30T13:42:19Z</time>
      </trkpt>
      <trkpt lat="49.91251" lon="2.52627">
        <ele>31.7</ele>
        <time>2020-09-30T13:42:20Z</time>
      </trkpt>
      <trkpt lat="49.91251" lon="2.52626">
        <ele>31.7</ele>
        <time>2020-09-30T13:42:21Z</time>
      </trkpt>
      <trkpt lat="49.9125" lon="2.52625">
        <ele>31.7</ele>
        <time>2020-09-30T13:42:22Z</time>
      </trkpt>
      <trkpt lat="49.91249" lon="2.52624">
        <ele>31.7</ele>
        <time>2020-09-30T13:42:24Z</time>
      </trkpt>
      <trkpt lat="49.91248" lon="2.52623">
        <ele>31.7</ele>
        <time>2020-09-30T13:42:25Z</time>
      </trkpt>
      <trkpt lat="49.91246" lon="2.52622">
        <ele>31.7</ele>
        <time>2020-09-30T13:42:26Z</time>
      </trkpt>
      <trkpt lat="49.91245" lon="2.52621">
        <ele>31.7</ele>
        <time>2020-09-30T13:42:27Z</time>
      </trkpt>
      <trkpt lat="49.91244" lon="2.5262">
        <ele>31.7</ele>
        <time>2020-09-30T13:42:28Z</time>
      </trkpt>
      <trkpt lat="49.91243" lon="2.52618">
        <ele>31.7</ele>
        <time>2020-09-30T13:42:29Z</time>
      </trkpt>
      <trkpt lat="49.91241" lon="2.52617">
        <ele>31.7</ele>
        <time>2020-09-30T13:42:30Z</time>
      </trkpt>
      <trkpt lat="49.9124" lon="2.52616">
        <ele>31.7</ele>
        <time>2020-09-30T13:42:32Z</time>
      </trkpt>
      <trkpt lat="49.91238" lon="2.52615">
        <ele>31.7</ele>
        <time>2020-09-30T13:42:33Z</time>
      </trkpt>
      <trkpt lat="49.91236" lon="2.52614">
        <ele>31.7</ele>
        <time>2020-09-30T13:42:34Z</time>
      </trkpt>
      <trkpt lat="49.91235" lon="2.52613">
        <ele>31.7</ele>
        <time>2020-09-30T13:42:35Z</time>
      </trkpt>
      <trkpt lat="49.91234" lon="2.52612">
        <ele>31.7</ele>
        <time>2020-09-30T13:42:36Z</time>
      </trkpt>
      <trkpt lat="49.91233" lon="2.52611">
        <ele>31.7</ele>
        <time>2020-09-30T13:42:37Z</time>
      </trkpt>
      <trkpt lat="49.91231" lon="2.5261">
        <ele>31.7</ele>
        <time>2020-09-30T13:42:39Z</time>
      </trkpt>
      <trkpt lat="49.9123" lon="2.52609">
        <ele>31.7</ele>
        <time>2020-09-30T13:42:40Z</time>
      </trkpt>
      <trkpt lat="49.91229" lon="2.52608">
        <ele>31.7</ele>
        <time>2020-09-30T13:42:41Z</time>
      </trkpt>
      <trkpt lat="49.91227" lon="2.52606">
        <ele>31.7</ele>
        <time>2020-09-30T13:42:42Z</time>
      </trkpt>
      <trkpt lat="49.91226" lon="2.52605">
        <ele>31.7</ele>
        <time>2020-09-30T13:42:43Z</time>
      </trkpt>
      <trkpt lat="49.91225" lon="2.52604">
        <ele>31.7</ele>
        <time>2020-09-30T13:42:44Z</time>
      </trkpt>
      <trkpt lat="49.91224" lon="2.52603">
        <ele>31.7</ele>
        <time>2020-09-30T13:42:45Z</time>
      </trkpt>
      <trkpt lat="49.91223" lon="2.52602">
        <ele>31.7</ele>
        <time>2020-09-30T13:42:46Z</time>
      </trkpt>
      <trkpt lat="49.91221" lon="2.526">
        <ele>31.7</ele>
        <time>2020-09-30T13:42:48Z</time>
      </trkpt>
      <trkpt lat="49.9122" lon="2.52599">
        <ele>31.7</ele>
        <time>2020-09-30T13:42:49Z</time>
      </trkpt>
      <trkpt lat="49.91219" lon="2.52599">
        <ele>31.7</ele>
        <time>2020-09-30T13:42:50Z</time>
      </trkpt>
      <trkpt lat="49.91218" lon="2.52598">
        <ele>31.7</ele>
        <time>2020-09-30T13:42:51Z</time>
      </trkpt>
      <trkpt lat="49.91216" lon="2.52596">
        <ele>31.7</ele>
        <time>2020-09-30T13:42:52Z</time>
      </trkpt>
      <trkpt lat="49.91215" lon="2.52595">
        <ele>31.7</ele>
        <time>2020-09-30T13:42:53Z</time>
      </trkpt>
      <trkpt lat="49.91214" lon="2.52595">
        <ele>31.7</ele>
        <time>2020-09-30T13:42:54Z</time>
      </trkpt>
      <trkpt lat="49.91212" lon="2.52594">
        <ele>31.7</ele>
        <time>2020-09-30T13:42:56Z</time>
      </trkpt>
      <trkpt lat="49.91211" lon="2.52593">
        <ele>31.7</ele>
        <time>2020-09-30T13:42:57Z</time>
      </trkpt>
      <trkpt lat="49.9121" lon="2.52592">
        <ele>31.7</ele>
        <time>2020-09-30T13:42:58Z</time>
      </trkpt>
      <trkpt lat="49.91208" lon="2.52591">
        <ele>31.7</ele>
        <time>2020-09-30T13:42:59Z</time>
      </trkpt>
      <trkpt lat="49.91207" lon="2.5259">
        <ele>31.7</ele>
        <time>2020-09-30T13:43:00Z</time>
      </trkpt>
      <trkpt lat="49.91205" lon="2.52589">
        <ele>31.7</ele>
        <time>2020-09-30T13:43:01Z</time>
      </trkpt>
      <trkpt lat="49.91204" lon="2.52588">
        <ele>31.7</ele>
        <time>2020-09-30T13:43:02Z</time>
      </trkpt>
      <trkpt lat="49.91203" lon="2.52587">
        <ele>31.7</ele>
        <time>2020-09-30T13:43:03Z</time>
      </trkpt>
      <trkpt lat="49.91202" lon="2.52586">
        <ele>31.6</ele>
        <time>2020-09-30T13:43:04Z</time>
      </trkpt>
      <trkpt lat="49.912" lon="2.52584">
        <ele>31.6</ele>
        <time>2020-09-30T13:43:06Z</time>
      </trkpt>
      <trkpt lat="49.91199" lon="2.52583">
        <ele>31.6</ele>
        <time>2020-09-30T13:43:07Z</time>
      </trkpt>
      <trkpt lat="49.91198" lon="2.52582">
        <ele>31.6</ele>
        <time>2020-09-30T13:43:08Z</time>
      </trkpt>
      <trkpt lat="49.91195" lon="2.5258">
        <ele>31.6</ele>
        <time>2020-09-30T13:43:09Z</time>
      </trkpt>
      <trkpt lat="49.91194" lon="2.5258">
        <ele>31.6</ele>
        <time>2020-09-30T13:43:11Z</time>
      </trkpt>
      <trkpt lat="49.91193" lon="2.52579">
        <ele>31.6</ele>
        <time>2020-09-30T13:43:12Z</time>
      </trkpt>
      <trkpt lat="49.91192" lon="2.52578">
        <ele>31.6</ele>
        <time>2020-09-30T13:43:13Z</time>
      </trkpt>
      <trkpt lat="49.91191" lon="2.52578">
        <ele>31.6</ele>
        <time>2020-09-30T13:43:14Z</time>
      </trkpt>
      <trkpt lat="49.9119" lon="2.52577">
        <ele>31.6</ele>
        <time>2020-09-30T13:43:15Z</time>
      </trkpt>
      <trkpt lat="49.91188" lon="2.52576">
        <ele>31.6</ele>
        <time>2020-09-30T13:43:16Z</time>
      </trkpt>
      <trkpt lat="49.91187" lon="2.52575">
        <ele>31.5</ele>
        <time>2020-09-30T13:43:17Z</time>
      </trkpt>
      <trkpt lat="49.91186" lon="2.52574">
        <ele>31.5</ele>
        <time>2020-09-30T13:43:18Z</time>
      </trkpt>
      <trkpt lat="49.91184" lon="2.52573">
        <ele>31.5</ele>
        <time>2020-09-30T13:43:20Z</time>
      </trkpt>
      <trkpt lat="49.91182" lon="2.52572">
        <ele>31.5</ele>
        <time>2020-09-30T13:43:21Z</time>
      </trkpt>
      <trkpt lat="49.91181" lon="2.52571">
        <ele>31.5</ele>
        <time>2020-09-30T13:43:22Z</time>
      </trkpt>
      <trkpt lat="49.91179" lon="2.5257">
        <ele>31.5</ele>
        <time>2020-09-30T13:43:23Z</time>
      </trkpt>
      <trkpt lat="49.91179" lon="2.52569">
        <ele>31.5</ele>
        <time>2020-09-30T13:43:24Z</time>
      </trkpt>
      <trkpt lat="49.91178" lon="2.52569">
        <ele>31.5</ele>
        <time>2020-09-30T13:43:25Z</time>
      </trkpt>
      <trkpt lat="49.91176" lon="2.52568">
        <ele>31.5</ele>
        <time>2020-09-30T13:43:27Z</time>
      </trkpt>
      <trkpt lat="49.91175" lon="2.52567">
        <ele>31.5</ele>
        <time>2020-09-30T13:43:28Z</time>
      </trkpt>
      <trkpt lat="49.91174" lon="2.52566">
        <ele>31.5</ele>
        <time>2020-09-30T13:43:29Z</time>
      </trkpt>
      <trkpt lat="49.91173" lon="2.52565">
        <ele>31.5</ele>
        <time>2020-09-30T13:43:30Z</time>
      </trkpt>
      <trkpt lat="49.91171" lon="2.52564">
        <ele>31.5</ele>
        <time>2020-09-30T13:43:32Z</time>
      </trkpt>
      <trkpt lat="49.9117" lon="2.52563">
        <ele>31.5</ele>
        <time>2020-09-30T13:43:33Z</time>
      </trkpt>
      <trkpt lat="49.91169" lon="2.52562">
        <ele>31.5</ele>
        <time>2020-09-30T13:43:34Z</time>
      </trkpt>
      <trkpt lat="49.91167" lon="2.52561">
        <ele>31.5</ele>
        <time>2020-09-30T13:43:35Z</time>
      </trkpt>
      <trkpt lat="49.91166" lon="2.52561">
        <ele>31.5</ele>
        <time>2020-09-30T13:43:36Z</time>
      </trkpt>
      <trkpt lat="49.91165" lon="2.5256">
        <ele>31.5</ele>
        <time>2020-09-30T13:43:37Z</time>
      </trkpt>
      <trkpt lat="49.91164" lon="2.5256">
        <ele>31.5</ele>
        <time>2020-09-30T13:43:39Z</time>
      </trkpt>
      <trkpt lat="49.91162" lon="2.5256">
        <ele>31.5</ele>
        <time>2020-09-30T13:43:40Z</time>
      </trkpt>
      <trkpt lat="49.9116" lon="2.52557">
        <ele>31.5</ele>
        <time>2020-09-30T13:43:42Z</time>
      </trkpt>
      <trkpt lat="49.91159" lon="2.52556">
        <ele>31.5</ele>
        <time>2020-09-30T13:43:43Z</time>
      </trkpt>
      <trkpt lat="49.91157" lon="2.52555">
        <ele>31.4</ele>
        <time>2020-09-30T13:43:44Z</time>
      </trkpt>
      <trkpt lat="49.91156" lon="2.52553">
        <ele>31.4</ele>
        <time>2020-09-30T13:43:45Z</time>
      </trkpt>
      <trkpt lat="49.91154" lon="2.52551">
        <ele>31.4</ele>
        <time>2020-09-30T13:43:47Z</time>
      </trkpt>
      <trkpt lat="49.91153" lon="2.5255">
        <ele>31.4</ele>
        <time>2020-09-30T13:43:48Z</time>
      </trkpt>
      <trkpt lat="49.91152" lon="2.52549">
        <ele>31.4</ele>
        <time>2020-09-30T13:43:49Z</time>
      </trkpt>
      <trkpt lat="49.9115" lon="2.52547">
        <ele>31.4</ele>
        <time>2020-09-30T13:43:50Z</time>
      </trkpt>
      <trkpt lat="49.91147" lon="2.52546">
        <ele>31.4</ele>
        <time>2020-09-30T13:43:52Z</time>
      </trkpt>
      <trkpt lat="49.91146" lon="2.52545">
        <ele>31.4</ele>
        <time>2020-09-30T13:43:53Z</time>
      </trkpt>
      <trkpt lat="49.91145" lon="2.52544">
        <ele>31.4</ele>
        <time>2020-09-30T13:43:54Z</time>
      </trkpt>
      <trkpt lat="49.91144" lon="2.52543">
        <ele>31.4</ele>
        <time>2020-09-30T13:43:55Z</time>
      </trkpt>
      <trkpt lat="49.91142" lon="2.52541">
        <ele>31.4</ele>
        <time>2020-09-30T13:43:56Z</time>
      </trkpt>
      <trkpt lat="49.91141" lon="2.5254">
        <ele>31.4</ele>
        <time>2020-09-30T13:43:57Z</time>
      </trkpt>
      <trkpt lat="49.9114" lon="2.52539">
        <ele>31.4</ele>
        <time>2020-09-30T13:43:58Z</time>
      </trkpt>
      <trkpt lat="49.91139" lon="2.52537">
        <ele>31.4</ele>
        <time>2020-09-30T13:43:59Z</time>
      </trkpt>
      <trkpt lat="49.91137" lon="2.52536">
        <ele>31.4</ele>
        <time>2020-09-30T13:44:00Z</time>
      </trkpt>
      <trkpt lat="49.91136" lon="2.52534">
        <ele>31.4</ele>
        <time>2020-09-30T13:44:02Z</time>
      </trkpt>
      <trkpt lat="49.91135" lon="2.52533">
        <ele>31.4</ele>
        <time>2020-09-30T13:44:03Z</time>
      </trkpt>
      <trkpt lat="49.91135" lon="2.52532">
        <ele>31.4</ele>
        <time>2020-09-30T13:44:04Z</time>
      </trkpt>
      <trkpt lat="49.91133" lon="2.52531">
        <ele>31.3</ele>
        <time>2020-09-30T13:44:05Z</time>
      </trkpt>
      <trkpt lat="49.91132" lon="2.5253">
        <ele>31.3</ele>
        <time>2020-09-30T13:44:06Z</time>
      </trkpt>
      <trkpt lat="49.91132" lon="2.52529">
        <ele>31.3</ele>
        <time>2020-09-30T13:44:07Z</time>
      </trkpt>
      <trkpt lat="49.9113" lon="2.52528">
        <ele>31.3</ele>
        <time>2020-09-30T13:44:08Z</time>
      </trkpt>
      <trkpt lat="49.91129" lon="2.52527">
        <ele>31.3</ele>
        <time>2020-09-30T13:44:09Z</time>
      </trkpt>
      <trkpt lat="49.91128" lon="2.52526">
        <ele>31.3</ele>
        <time>2020-09-30T13:44:10Z</time>
      </trkpt>
      <trkpt lat="49.91127" lon="2.52525">
        <ele>31.3</ele>
        <time>2020-09-30T13:44:11Z</time>
      </trkpt>
      <trkpt lat="49.91125" lon="2.52525">
        <ele>31.3</ele>
        <time>2020-09-30T13:44:13Z</time>
      </trkpt>
      <trkpt lat="49.91124" lon="2.52523">
        <ele>31.3</ele>
        <time>2020-09-30T13:44:14Z</time>
      </trkpt>
      <trkpt lat="49.91121" lon="2.52521">
        <ele>31.3</ele>
        <time>2020-09-30T13:44:16Z</time>
      </trkpt>
      <trkpt lat="49.9112" lon="2.52521">
        <ele>31.3</ele>
        <time>2020-09-30T13:44:17Z</time>
      </trkpt>
      <trkpt lat="49.91119" lon="2.5252">
        <ele>31.3</ele>
        <time>2020-09-30T13:44:18Z</time>
      </trkpt>
      <trkpt lat="49.91118" lon="2.52519">
        <ele>31.3</ele>
        <time>2020-09-30T13:44:19Z</time>
      </trkpt>
      <trkpt lat="49.91116" lon="2.52518">
        <ele>31.2</ele>
        <time>2020-09-30T13:44:20Z</time>
      </trkpt>
      <trkpt lat="49.91115" lon="2.52516">
        <ele>31.2</ele>
        <time>2020-09-30T13:44:21Z</time>
      </trkpt>
      <trkpt lat="49.91114" lon="2.52515">
        <ele>31.2</ele>
        <time>2020-09-30T13:44:23Z</time>
      </trkpt>
      <trkpt lat="49.91113" lon="2.52515">
        <ele>31.2</ele>
        <time>2020-09-30T13:44:24Z</time>
      </trkpt>
      <trkpt lat="49.91112" lon="2.52514">
        <ele>31.2</ele>
        <time>2020-09-30T13:44:25Z</time>
      </trkpt>
      <trkpt lat="49.9111" lon="2.52514">
        <ele>31.2</ele>
        <time>2020-09-30T13:44:26Z</time>
      </trkpt>
      <trkpt lat="49.91109" lon="2.52513">
        <ele>31.2</ele>
        <time>2020-09-30T13:44:27Z</time>
      </trkpt>
      <trkpt lat="49.91108" lon="2.52513">
        <ele>31.2</ele>
        <time>2020-09-30T13:44:28Z</time>
      </trkpt>
      <trkpt lat="49.91107" lon="2.52512">
        <ele>31.2</ele>
        <time>2020-09-30T13:44:29Z</time>
      </trkpt>
      <trkpt lat="49.91106" lon="2.52511">
        <ele>31.2</ele>
        <time>2020-09-30T13:44:30Z</time>
      </trkpt>
      <trkpt lat="49.91105" lon="2.5251">
        <ele>31.2</ele>
        <time>2020-09-30T13:44:32Z</time>
      </trkpt>
      <trkpt lat="49.91103" lon="2.52508">
        <ele>31.2</ele>
        <time>2020-09-30T13:44:33Z</time>
      </trkpt>
      <trkpt lat="49.91102" lon="2.52507">
        <ele>31.2</ele>
        <time>2020-09-30T13:44:34Z</time>
      </trkpt>
      <trkpt lat="49.91102" lon="2.52507">
        <ele>31.2</ele>
        <time>2020-09-30T13:44:35Z</time>
      </trkpt>
      <trkpt lat="49.911" lon="2.52506">
        <ele>31.2</ele>
        <time>2020-09-30T13:44:36Z</time>
      </trkpt>
      <trkpt lat="49.91099" lon="2.52505">
        <ele>31.2</ele>
        <time>2020-09-30T13:44:37Z</time>
      </trkpt>
      <trkpt lat="49.91098" lon="2.52504">
        <ele>31.2</ele>
        <time>2020-09-30T13:44:38Z</time>
      </trkpt>
      <trkpt lat="49.91097" lon="2.52503">
        <ele>31.2</ele>
        <time>2020-09-30T13:44:40Z</time>
      </trkpt>
      <trkpt lat="49.91095" lon="2.52502">
        <ele>31.2</ele>
        <time>2020-09-30T13:44:41Z</time>
      </trkpt>
      <trkpt lat="49.91094" lon="2.525">
        <ele>31.2</ele>
        <time>2020-09-30T13:44:42Z</time>
      </trkpt>
      <trkpt lat="49.91092" lon="2.52498">
        <ele>31.2</ele>
        <time>2020-09-30T13:44:44Z</time>
      </trkpt>
      <trkpt lat="49.91091" lon="2.52498">
        <ele>31.2</ele>
        <time>2020-09-30T13:44:45Z</time>
      </trkpt>
      <trkpt lat="49.91091" lon="2.52497">
        <ele>31.2</ele>
        <time>2020-09-30T13:44:46Z</time>
      </trkpt>
      <trkpt lat="49.91089" lon="2.52495">
        <ele>31.2</ele>
        <time>2020-09-30T13:44:47Z</time>
      </trkpt>
      <trkpt lat="49.91088" lon="2.52494">
        <ele>31.2</ele>
        <time>2020-09-30T13:44:48Z</time>
      </trkpt>
      <trkpt lat="49.91087" lon="2.52494">
        <ele>31.2</ele>
        <time>2020-09-30T13:44:49Z</time>
      </trkpt>
      <trkpt lat="49.91086" lon="2.52493">
        <ele>31.2</ele>
        <time>2020-09-30T13:44:50Z</time>
      </trkpt>
      <trkpt lat="49.91085" lon="2.52492">
        <ele>31.2</ele>
        <time>2020-09-30T13:44:52Z</time>
      </trkpt>
      <trkpt lat="49.91083" lon="2.5249">
        <ele>31.2</ele>
        <time>2020-09-30T13:44:53Z</time>
      </trkpt>
      <trkpt lat="49.91082" lon="2.5249">
        <ele>31.2</ele>
        <time>2020-09-30T13:44:54Z</time>
      </trkpt>
      <trkpt lat="49.9108" lon="2.52488">
        <ele>31.2</ele>
        <time>2020-09-30T13:44:55Z</time>
      </trkpt>
      <trkpt lat="49.91079" lon="2.52488">
        <ele>31.2</ele>
        <time>2020-09-30T13:44:56Z</time>
      </trkpt>
      <trkpt lat="49.91079" lon="2.52487">
        <ele>31.2</ele>
        <time>2020-09-30T13:44:57Z</time>
      </trkpt>
      <trkpt lat="49.91077" lon="2.52486">
        <ele>31.2</ele>
        <time>2020-09-30T13:44:58Z</time>
      </trkpt>
      <trkpt lat="49.91076" lon="2.52485">
        <ele>31.2</ele>
        <time>2020-09-30T13:44:59Z</time>
      </trkpt>
      <trkpt lat="49.91075" lon="2.52484">
        <ele>31.2</ele>
        <time>2020-09-30T13:45:00Z</time>
      </trkpt>
      <trkpt lat="49.91073" lon="2.52483">
        <ele>31.2</ele>
        <time>2020-09-30T13:45:01Z</time>
      </trkpt>
      <trkpt lat="49.91072" lon="2.52482">
        <ele>31.2</ele>
        <time>2020-09-30T13:45:03Z</time>
      </trkpt>
      <trkpt lat="49.91072" lon="2.52482">
        <ele>31.2</ele>
        <time>2020-09-30T13:45:04Z</time>
      </trkpt>
      <trkpt lat="49.9107" lon="2.5248">
        <ele>31.2</ele>
        <time>2020-09-30T13:45:05Z</time>
      </trkpt>
      <trkpt lat="49.91069" lon="2.5248">
        <ele>31.2</ele>
        <time>2020-09-30T13:45:06Z</time>
      </trkpt>
      <trkpt lat="49.91068" lon="2.52479">
        <ele>31.2</ele>
        <time>2020-09-30T13:45:07Z</time>
      </trkpt>
      <trkpt lat="49.91067" lon="2.52478">
        <ele>31.2</ele>
        <time>2020-09-30T13:45:08Z</time>
      </trkpt>
      <trkpt lat="49.91065" lon="2.52477">
        <ele>31.2</ele>
        <time>2020-09-30T13:45:09Z</time>
      </trkpt>
      <trkpt lat="49.91064" lon="2.52476">
        <ele>31.2</ele>
        <time>2020-09-30T13:45:10Z</time>
      </trkpt>
      <trkpt lat="49.91063" lon="2.52476">
        <ele>31.2</ele>
        <time>2020-09-30T13:45:11Z</time>
      </trkpt>
      <trkpt lat="49.91061" lon="2.52475">
        <ele>31.3</ele>
        <time>2020-09-30T13:45:13Z</time>
      </trkpt>
      <trkpt lat="49.9106" lon="2.52474">
        <ele>31.3</ele>
        <time>2020-09-30T13:45:14Z</time>
      </trkpt>
      <trkpt lat="49.91059" lon="2.52474">
        <ele>31.3</ele>
        <time>2020-09-30T13:45:15Z</time>
      </trkpt>
      <trkpt lat="49.91057" lon="2.52473">
        <ele>31.3</ele>
        <time>2020-09-30T13:45:16Z</time>
      </trkpt>
      <trkpt lat="49.91056" lon="2.52472">
        <ele>31.3</ele>
        <time>2020-09-30T13:45:17Z</time>
      </trkpt>
      <trkpt lat="49.91054" lon="2.52472">
        <ele>31.3</ele>
        <time>2020-09-30T13:45:18Z</time>
      </trkpt>
      <trkpt lat="49.91053" lon="2.52471">
        <ele>31.3</ele>
        <time>2020-09-30T13:45:20Z</time>
      </trkpt>
      <trkpt lat="49.91052" lon="2.52471">
        <ele>31.3</ele>
        <time>2020-09-30T13:45:21Z</time>
      </trkpt>
      <trkpt lat="49.91051" lon="2.52471">
        <ele>31.3</ele>
        <time>2020-09-30T13:45:22Z</time>
      </trkpt>
      <trkpt lat="49.9105" lon="2.5247">
        <ele>31.3</ele>
        <time>2020-09-30T13:45:23Z</time>
      </trkpt>
      <trkpt lat="49.91049" lon="2.52469">
        <ele>31.3</ele>
        <time>2020-09-30T13:45:25Z</time>
      </trkpt>
      <trkpt lat="49.91046" lon="2.52467">
        <ele>31.3</ele>
        <time>2020-09-30T13:45:26Z</time>
      </trkpt>
      <trkpt lat="49.91045" lon="2.52467">
        <ele>31.3</ele>
        <time>2020-09-30T13:45:27Z</time>
      </trkpt>
      <trkpt lat="49.91044" lon="2.52466">
        <ele>31.3</ele>
        <time>2020-09-30T13:45:28Z</time>
      </trkpt>
      <trkpt lat="49.91042" lon="2.52465">
        <ele>31.3</ele>
        <time>2020-09-30T13:45:29Z</time>
      </trkpt>
      <trkpt lat="49.91041" lon="2.52465">
        <ele>31.3</ele>
        <time>2020-09-30T13:45:30Z</time>
      </trkpt>
      <trkpt lat="49.91039" lon="2.52463">
        <ele>31.3</ele>
        <time>2020-09-30T13:45:32Z</time>
      </trkpt>
      <trkpt lat="49.91039" lon="2.52462">
        <ele>31.3</ele>
        <time>2020-09-30T13:45:33Z</time>
      </trkpt>
      <trkpt lat="49.91038" lon="2.52461">
        <ele>31.3</ele>
        <time>2020-09-30T13:45:34Z</time>
      </trkpt>
      <trkpt lat="49.91036" lon="2.52459">
        <ele>31.3</ele>
        <time>2020-09-30T13:45:35Z</time>
      </trkpt>
      <trkpt lat="49.91035" lon="2.52458">
        <ele>31.3</ele>
        <time>2020-09-30T13:45:36Z</time>
      </trkpt>
      <trkpt lat="49.91035" lon="2.52458">
        <ele>31.3</ele>
        <time>2020-09-30T13:45:37Z</time>
      </trkpt>
      <trkpt lat="49.91033" lon="2.52456">
        <ele>31.3</ele>
        <time>2020-09-30T13:45:38Z</time>
      </trkpt>
      <trkpt lat="49.91032" lon="2.52455">
        <ele>31.3</ele>
        <time>2020-09-30T13:45:39Z</time>
      </trkpt>
      <trkpt lat="49.9103" lon="2.52453">
        <ele>31.3</ele>
        <time>2020-09-30T13:45:41Z</time>
      </trkpt>
      <trkpt lat="49.91029" lon="2.52452">
        <ele>31.3</ele>
        <time>2020-09-30T13:45:42Z</time>
      </trkpt>
      <trkpt lat="49.91029" lon="2.52451">
        <ele>31.3</ele>
        <time>2020-09-30T13:45:43Z</time>
      </trkpt>
      <trkpt lat="49.91027" lon="2.52449">
        <ele>31.3</ele>
        <time>2020-09-30T13:45:44Z</time>
      </trkpt>
      <trkpt lat="49.91026" lon="2.52448">
        <ele>31.3</ele>
        <time>2020-09-30T13:45:45Z</time>
      </trkpt>
      <trkpt lat="49.91025" lon="2.52447">
        <ele>31.3</ele>
        <time>2020-09-30T13:45:46Z</time>
      </trkpt>
      <trkpt lat="49.91024" lon="2.52446">
        <ele>31.3</ele>
        <time>2020-09-30T13:45:47Z</time>
      </trkpt>
      <trkpt lat="49.91022" lon="2.52445">
        <ele>31.3</ele>
        <time>2020-09-30T13:45:49Z</time>
      </trkpt>
      <trkpt lat="49.91021" lon="2.52444">
        <ele>31.3</ele>
        <time>2020-09-30T13:45:50Z</time>
      </trkpt>
      <trkpt lat="49.9102" lon="2.52443">
        <ele>31.3</ele>
        <time>2020-09-30T13:45:51Z</time>
      </trkpt>
      <trkpt lat="49.91018" lon="2.52441">
        <ele>31.3</ele>
        <time>2020-09-30T13:45:52Z</time>
      </trkpt>
      <trkpt lat="49.91017" lon="2.52441">
        <ele>31.3</ele>
        <time>2020-09-30T13:45:53Z</time>
      </trkpt>
      <trkpt lat="49.91016" lon="2.5244">
        <ele>31.3</ele>
        <time>2020-09-30T13:45:54Z</time>
      </trkpt>
      <trkpt lat="49.91015" lon="2.52439">
        <ele>31.3</ele>
        <time>2020-09-30T13:45:55Z</time>
      </trkpt>
      <trkpt lat="49.91013" lon="2.52437">
        <ele>31.3</ele>
        <time>2020-09-30T13:45:56Z</time>
      </trkpt>
      <trkpt lat="49.91012" lon="2.52437">
        <ele>31.3</ele>
        <time>2020-09-30T13:45:57Z</time>
      </trkpt>
      <trkpt lat="49.91011" lon="2.52437">
        <ele>31.3</ele>
        <time>2020-09-30T13:45:58Z</time>
      </trkpt>
      <trkpt lat="49.91009" lon="2.52436">
        <ele>31.3</ele>
        <time>2020-09-30T13:46:00Z</time>
      </trkpt>
      <trkpt lat="49.91008" lon="2.52435">
        <ele>31.3</ele>
        <time>2020-09-30T13:46:01Z</time>
      </trkpt>
      <trkpt lat="49.91007" lon="2.52434">
        <ele>31.3</ele>
        <time>2020-09-30T13:46:03Z</time>
      </trkpt>
      <trkpt lat="49.91005" lon="2.52433">
        <ele>31.3</ele>
        <time>2020-09-30T13:46:05Z</time>
      </trkpt>
      <trkpt lat="49.91004" lon="2.52432">
        <ele>31.3</ele>
        <time>2020-09-30T13:46:06Z</time>
      </trkpt>
      <trkpt lat="49.91003" lon="2.5243">
        <ele>31.3</ele>
        <time>2020-09-30T13:46:07Z</time>
      </trkpt>
      <trkpt lat="49.91002" lon="2.5243">
        <ele>31.3</ele>
        <time>2020-09-30T13:46:08Z</time>
      </trkpt>
      <trkpt lat="49.91001" lon="2.52429">
        <ele>31.3</ele>
        <time>2020-09-30T13:46:09Z</time>
      </trkpt>
      <trkpt lat="49.90999" lon="2.52428">
        <ele>31.3</ele>
        <time>2020-09-30T13:46:10Z</time>
      </trkpt>
      <trkpt lat="49.90999" lon="2.52427">
        <ele>31.3</ele>
        <time>2020-09-30T13:46:11Z</time>
      </trkpt>
      <trkpt lat="49.90998" lon="2.52426">
        <ele>31.3</ele>
        <time>2020-09-30T13:46:13Z</time>
      </trkpt>
      <trkpt lat="49.90997" lon="2.52426">
        <ele>31.3</ele>
        <time>2020-09-30T13:46:14Z</time>
      </trkpt>
      <trkpt lat="49.90995" lon="2.52425">
        <ele>31.3</ele>
        <time>2020-09-30T13:46:15Z</time>
      </trkpt>
      <trkpt lat="49.90994" lon="2.52424">
        <ele>31.3</ele>
        <time>2020-09-30T13:46:16Z</time>
      </trkpt>
      <trkpt lat="49.90993" lon="2.52424">
        <ele>31.3</ele>
        <time>2020-09-30T13:46:17Z</time>
      </trkpt>
      <trkpt lat="49.90992" lon="2.52423">
        <ele>31.3</ele>
        <time>2020-09-30T13:46:18Z</time>
      </trkpt>
      <trkpt lat="49.90991" lon="2.52422">
        <ele>31.3</ele>
        <time>2020-09-30T13:46:19Z</time>
      </trkpt>
      <trkpt lat="49.90989" lon="2.52421">
        <ele>31.3</ele>
        <time>2020-09-30T13:46:20Z</time>
      </trkpt>
      <trkpt lat="49.90988" lon="2.5242">
        <ele>31.3</ele>
        <time>2020-09-30T13:46:21Z</time>
      </trkpt>
      <trkpt lat="49.90987" lon="2.52419">
        <ele>31.3</ele>
        <time>2020-09-30T13:46:22Z</time>
      </trkpt>
      <trkpt lat="49.90986" lon="2.52419">
        <ele>31.3</ele>
        <time>2020-09-30T13:46:23Z</time>
      </trkpt>
      <trkpt lat="49.90985" lon="2.52418">
        <ele>31.3</ele>
        <time>2020-09-30T13:46:24Z</time>
      </trkpt>
      <trkpt lat="49.90984" lon="2.52417">
        <ele>31.3</ele>
        <time>2020-09-30T13:46:26Z</time>
      </trkpt>
      <trkpt lat="49.90982" lon="2.52416">
        <ele>31.3</ele>
        <time>2020-09-30T13:46:27Z</time>
      </trkpt>
      <trkpt lat="49.90981" lon="2.52416">
        <ele>31.3</ele>
        <time>2020-09-30T13:46:28Z</time>
      </trkpt>
      <trkpt lat="49.9098" lon="2.52415">
        <ele>31.3</ele>
        <time>2020-09-30T13:46:29Z</time>
      </trkpt>
      <trkpt lat="49.90978" lon="2.52414">
        <ele>31.3</ele>
        <time>2020-09-30T13:46:30Z</time>
      </trkpt>
      <trkpt lat="49.90977" lon="2.52413">
        <ele>31.3</ele>
        <time>2020-09-30T13:46:31Z</time>
      </trkpt>
      <trkpt lat="49.90976" lon="2.52412">
        <ele>31.3</ele>
        <time>2020-09-30T13:46:32Z</time>
      </trkpt>
      <trkpt lat="49.90975" lon="2.52412">
        <ele>31.3</ele>
        <time>2020-09-30T13:46:34Z</time>
      </trkpt>
      <trkpt lat="49.90973" lon="2.52411">
        <ele>31.3</ele>
        <time>2020-09-30T13:46:35Z</time>
      </trkpt>
      <trkpt lat="49.90972" lon="2.52409">
        <ele>31.3</ele>
        <time>2020-09-30T13:46:36Z</time>
      </trkpt>
      <trkpt lat="49.90971" lon="2.52408">
        <ele>31.3</ele>
        <time>2020-09-30T13:46:37Z</time>
      </trkpt>
      <trkpt lat="49.9097" lon="2.52407">
        <ele>31.3</ele>
        <time>2020-09-30T13:46:38Z</time>
      </trkpt>
      <trkpt lat="49.90968" lon="2.52406">
        <ele>31.3</ele>
        <time>2020-09-30T13:46:39Z</time>
      </trkpt>
      <trkpt lat="49.90967" lon="2.52405">
        <ele>31.3</ele>
        <time>2020-09-30T13:46:40Z</time>
      </trkpt>
      <trkpt lat="49.90966" lon="2.52404">
        <ele>31.3</ele>
        <time>2020-09-30T13:46:41Z</time>
      </trkpt>
      <trkpt lat="49.90965" lon="2.52404">
        <ele>31.3</ele>
        <time>2020-09-30T13:46:42Z</time>
      </trkpt>
      <trkpt lat="49.90964" lon="2.52403">
        <ele>31.3</ele>
        <time>2020-09-30T13:46:44Z</time>
      </trkpt>
      <trkpt lat="49.90962" lon="2.52402">
        <ele>31.3</ele>
        <time>2020-09-30T13:46:45Z</time>
      </trkpt>
      <trkpt lat="49.90961" lon="2.52401">
        <ele>31.3</ele>
        <time>2020-09-30T13:46:46Z</time>
      </trkpt>
      <trkpt lat="49.90958" lon="2.52399">
        <ele>31.3</ele>
        <time>2020-09-30T13:46:48Z</time>
      </trkpt>
      <trkpt lat="49.90957" lon="2.52398">
        <ele>31.3</ele>
        <time>2020-09-30T13:46:49Z</time>
      </trkpt>
      <trkpt lat="49.90955" lon="2.52397">
        <ele>31.3</ele>
        <time>2020-09-30T13:46:50Z</time>
      </trkpt>
      <trkpt lat="49.90954" lon="2.52396">
        <ele>31.4</ele>
        <time>2020-09-30T13:46:51Z</time>
      </trkpt>
      <trkpt lat="49.90953" lon="2.52395">
        <ele>31.4</ele>
        <time>2020-09-30T13:46:52Z</time>
      </trkpt>
      <trkpt lat="49.90951" lon="2.52394">
        <ele>31.4</ele>
        <time>2020-09-30T13:46:53Z</time>
      </trkpt>
      <trkpt lat="49.9095" lon="2.52393">
        <ele>31.4</ele>
        <time>2020-09-30T13:46:55Z</time>
      </trkpt>
      <trkpt lat="49.90948" lon="2.52392">
        <ele>31.4</ele>
        <time>2020-09-30T13:46:56Z</time>
      </trkpt>
      <trkpt lat="49.90947" lon="2.52391">
        <ele>31.4</ele>
        <time>2020-09-30T13:46:57Z</time>
      </trkpt>
      <trkpt lat="49.90945" lon="2.5239">
        <ele>31.4</ele>
        <time>2020-09-30T13:46:58Z</time>
      </trkpt>
      <trkpt lat="49.90945" lon="2.5239">
        <ele>31.4</ele>
        <time>2020-09-30T13:46:59Z</time>
      </trkpt>
      <trkpt lat="49.90944" lon="2.52389">
        <ele>31.4</ele>
        <time>2020-09-30T13:47:00Z</time>
      </trkpt>
      <trkpt lat="49.90942" lon="2.52388">
        <ele>31.4</ele>
        <time>2020-09-30T13:47:01Z</time>
      </trkpt>
      <trkpt lat="49.90941" lon="2.52387">
        <ele>31.4</ele>
        <time>2020-09-30T13:47:02Z</time>
      </trkpt>
      <trkpt lat="49.90939" lon="2.52386">
        <ele>31.4</ele>
        <time>2020-09-30T13:47:03Z</time>
      </trkpt>
      <trkpt lat="49.90938" lon="2.52385">
        <ele>31.4</ele>
        <time>2020-09-30T13:47:05Z</time>
      </trkpt>
      <trkpt lat="49.90937" lon="2.52385">
        <ele>31.4</ele>
        <time>2020-09-30T13:47:06Z</time>
      </trkpt>
      <trkpt lat="49.90935" lon="2.52383">
        <ele>31.4</ele>
        <time>2020-09-30T13:47:07Z</time>
      </trkpt>
      <trkpt lat="49.90934" lon="2.52382">
        <ele>31.4</ele>
        <time>2020-09-30T13:47:08Z</time>
      </trkpt>
      <trkpt lat="49.90933" lon="2.52381">
        <ele>31.4</ele>
        <time>2020-09-30T13:47:09Z</time>
      </trkpt>
      <trkpt lat="49.90931" lon="2.5238">
        <ele>31.4</ele>
        <time>2020-09-30T13:47:10Z</time>
      </trkpt>
      <trkpt lat="49.90931" lon="2.52379">
        <ele>31.4</ele>
        <time>2020-09-30T13:47:11Z</time>
      </trkpt>
      <trkpt lat="49.9093" lon="2.52379">
        <ele>31.4</ele>
        <time>2020-09-30T13:47:12Z</time>
      </trkpt>
      <trkpt lat="49.90927" lon="2.52377">
        <ele>31.4</ele>
        <time>2020-09-30T13:47:13Z</time>
      </trkpt>
      <trkpt lat="49.90926" lon="2.52376">
        <ele>31.4</ele>
        <time>2020-09-30T13:47:15Z</time>
      </trkpt>
      <trkpt lat="49.90925" lon="2.52376">
        <ele>31.4</ele>
        <time>2020-09-30T13:47:16Z</time>
      </trkpt>
      <trkpt lat="49.90924" lon="2.52375">
        <ele>31.4</ele>
        <time>2020-09-30T13:47:17Z</time>
      </trkpt>
      <trkpt lat="49.90923" lon="2.52374">
        <ele>31.4</ele>
        <time>2020-09-30T13:47:18Z</time>
      </trkpt>
      <trkpt lat="49.90922" lon="2.52373">
        <ele>31.4</ele>
        <time>2020-09-30T13:47:19Z</time>
      </trkpt>
      <trkpt lat="49.9092" lon="2.52372">
        <ele>31.4</ele>
        <time>2020-09-30T13:47:20Z</time>
      </trkpt>
      <trkpt lat="49.90919" lon="2.52371">
        <ele>31.4</ele>
        <time>2020-09-30T13:47:21Z</time>
      </trkpt>
      <trkpt lat="49.90918" lon="2.5237">
        <ele>31.4</ele>
        <time>2020-09-30T13:47:23Z</time>
      </trkpt>
      <trkpt lat="49.90917" lon="2.52369">
        <ele>31.4</ele>
        <time>2020-09-30T13:47:24Z</time>
      </trkpt>
      <trkpt lat="49.90915" lon="2.52368">
        <ele>31.4</ele>
        <time>2020-09-30T13:47:25Z</time>
      </trkpt>
      <trkpt lat="49.90914" lon="2.52367">
        <ele>31.4</ele>
        <time>2020-09-30T13:47:26Z</time>
      </trkpt>
      <trkpt lat="49.90913" lon="2.52367">
        <ele>31.4</ele>
        <time>2020-09-30T13:47:27Z</time>
      </trkpt>
      <trkpt lat="49.90912" lon="2.52366">
        <ele>31.4</ele>
        <time>2020-09-30T13:47:28Z</time>
      </trkpt>
      <trkpt lat="49.90911" lon="2.52365">
        <ele>31.4</ele>
        <time>2020-09-30T13:47:30Z</time>
      </trkpt>
      <trkpt lat="49.90909" lon="2.52364">
        <ele>31.4</ele>
        <time>2020-09-30T13:47:31Z</time>
      </trkpt>
      <trkpt lat="49.90907" lon="2.52361">
        <ele>31.4</ele>
        <time>2020-09-30T13:47:32Z</time>
      </trkpt>
      <trkpt lat="49.90905" lon="2.5236">
        <ele>31.4</ele>
        <time>2020-09-30T13:47:33Z</time>
      </trkpt>
      <trkpt lat="49.90905" lon="2.52359">
        <ele>31.4</ele>
        <time>2020-09-30T13:47:34Z</time>
      </trkpt>
      <trkpt lat="49.90904" lon="2.52358">
        <ele>31.4</ele>
        <time>2020-09-30T13:47:36Z</time>
      </trkpt>
      <trkpt lat="49.90903" lon="2.52357">
        <ele>31.4</ele>
        <time>2020-09-30T13:47:37Z</time>
      </trkpt>
      <trkpt lat="49.90901" lon="2.52356">
        <ele>31.4</ele>
        <time>2020-09-30T13:47:38Z</time>
      </trkpt>
      <trkpt lat="49.909" lon="2.52355">
        <ele>31.4</ele>
        <time>2020-09-30T13:47:39Z</time>
      </trkpt>
      <trkpt lat="49.90899" lon="2.52354">
        <ele>31.4</ele>
        <time>2020-09-30T13:47:40Z</time>
      </trkpt>
      <trkpt lat="49.90898" lon="2.52353">
        <ele>31.4</ele>
        <time>2020-09-30T13:47:42Z</time>
      </trkpt>
      <trkpt lat="49.90897" lon="2.52352">
        <ele>31.4</ele>
        <time>2020-09-30T13:47:43Z</time>
      </trkpt>
      <trkpt lat="49.90894" lon="2.5235">
        <ele>31.4</ele>
        <time>2020-09-30T13:47:44Z</time>
      </trkpt>
      <trkpt lat="49.90893" lon="2.52349">
        <ele>31.4</ele>
        <time>2020-09-30T13:47:45Z</time>
      </trkpt>
      <trkpt lat="49.90892" lon="2.52348">
        <ele>31.4</ele>
        <time>2020-09-30T13:47:46Z</time>
      </trkpt>
      <trkpt lat="49.90891" lon="2.52347">
        <ele>31.4</ele>
        <time>2020-09-30T13:47:47Z</time>
      </trkpt>
      <trkpt lat="49.9089" lon="2.52346">
        <ele>31.4</ele>
        <time>2020-09-30T13:47:49Z</time>
      </trkpt>
      <trkpt lat="49.90888" lon="2.52345">
        <ele>31.4</ele>
        <time>2020-09-30T13:47:50Z</time>
      </trkpt>
      <trkpt lat="49.90887" lon="2.52343">
        <ele>31.4</ele>
        <time>2020-09-30T13:47:51Z</time>
      </trkpt>
      <trkpt lat="49.90886" lon="2.52342">
        <ele>31.4</ele>
        <time>2020-09-30T13:47:52Z</time>
      </trkpt>
      <trkpt lat="49.90884" lon="2.5234">
        <ele>31.4</ele>
        <time>2020-09-30T13:47:53Z</time>
      </trkpt>
      <trkpt lat="49.90882" lon="2.52339">
        <ele>31.4</ele>
        <time>2020-09-30T13:47:54Z</time>
      </trkpt>
      <trkpt lat="49.90882" lon="2.52338">
        <ele>31.4</ele>
        <time>2020-09-30T13:47:55Z</time>
      </trkpt>
      <trkpt lat="49.90881" lon="2.52337">
        <ele>31.4</ele>
        <time>2020-09-30T13:47:56Z</time>
      </trkpt>
      <trkpt lat="49.9088" lon="2.52336">
        <ele>31.4</ele>
        <time>2020-09-30T13:47:57Z</time>
      </trkpt>
      <trkpt lat="49.90879" lon="2.52335">
        <ele>31.4</ele>
        <time>2020-09-30T13:47:59Z</time>
      </trkpt>
      <trkpt lat="49.90877" lon="2.52334">
        <ele>31.4</ele>
        <time>2020-09-30T13:48:00Z</time>
      </trkpt>
      <trkpt lat="49.90876" lon="2.52333">
        <ele>31.4</ele>
        <time>2020-09-30T13:48:01Z</time>
      </trkpt>
      <trkpt lat="49.90875" lon="2.52332">
        <ele>31.4</ele>
        <time>2020-09-30T13:48:02Z</time>
      </trkpt>
      <trkpt lat="49.90873" lon="2.52331">
        <ele>31.4</ele>
        <time>2020-09-30T13:48:03Z</time>
      </trkpt>
      <trkpt lat="49.90872" lon="2.5233">
        <ele>31.4</ele>
        <time>2020-09-30T13:48:04Z</time>
      </trkpt>
      <trkpt lat="49.90871" lon="2.52329">
        <ele>31.4</ele>
        <time>2020-09-30T13:48:05Z</time>
      </trkpt>
      <trkpt lat="49.90869" lon="2.52328">
        <ele>31.4</ele>
        <time>2020-09-30T13:48:06Z</time>
      </trkpt>
      <trkpt lat="49.90867" lon="2.52327">
        <ele>31.4</ele>
        <time>2020-09-30T13:48:08Z</time>
      </trkpt>
      <trkpt lat="49.90865" lon="2.52325">
        <ele>31.4</ele>
        <time>2020-09-30T13:48:09Z</time>
      </trkpt>
      <trkpt lat="49.90864" lon="2.52325">
        <ele>31.4</ele>
        <time>2020-09-30T13:48:10Z</time>
      </trkpt>
      <trkpt lat="49.90863" lon="2.52324">
        <ele>31.4</ele>
        <time>2020-09-30T13:48:11Z</time>
      </trkpt>
      <trkpt lat="49.90862" lon="2.52323">
        <ele>31.4</ele>
        <time>2020-09-30T13:48:12Z</time>
      </trkpt>
      <trkpt lat="49.90861" lon="2.52322">
        <ele>31.4</ele>
        <time>2020-09-30T13:48:13Z</time>
      </trkpt>
      <trkpt lat="49.90859" lon="2.52321">
        <ele>31.4</ele>
        <time>2020-09-30T13:48:14Z</time>
      </trkpt>
      <trkpt lat="49.90858" lon="2.52321">
        <ele>31.4</ele>
        <time>2020-09-30T13:48:15Z</time>
      </trkpt>
      <trkpt lat="49.90857" lon="2.5232">
        <ele>31.4</ele>
        <time>2020-09-30T13:48:16Z</time>
      </trkpt>
      <trkpt lat="49.90855" lon="2.52319">
        <ele>31.4</ele>
        <time>2020-09-30T13:48:18Z</time>
      </trkpt>
      <trkpt lat="49.90854" lon="2.52318">
        <ele>31.4</ele>
        <time>2020-09-30T13:48:19Z</time>
      </trkpt>
      <trkpt lat="49.90853" lon="2.52318">
        <ele>31.4</ele>
        <time>2020-09-30T13:48:20Z</time>
      </trkpt>
      <trkpt lat="49.90851" lon="2.52316">
        <ele>31.4</ele>
        <time>2020-09-30T13:48:21Z</time>
      </trkpt>
      <trkpt lat="49.9085" lon="2.52316">
        <ele>31.4</ele>
        <time>2020-09-30T13:48:22Z</time>
      </trkpt>
      <trkpt lat="49.90849" lon="2.52316">
        <ele>31.4</ele>
        <time>2020-09-30T13:48:23Z</time>
      </trkpt>
      <trkpt lat="49.90847" lon="2.52315">
        <ele>31.4</ele>
        <time>2020-09-30T13:48:24Z</time>
      </trkpt>
      <trkpt lat="49.90846" lon="2.52314">
        <ele>31.4</ele>
        <time>2020-09-30T13:48:26Z</time>
      </trkpt>
      <trkpt lat="49.90845" lon="2.52314">
        <ele>31.4</ele>
        <time>2020-09-30T13:48:27Z</time>
      </trkpt>
      <trkpt lat="49.90844" lon="2.52313">
        <ele>31.4</ele>
        <time>2020-09-30T13:48:28Z</time>
      </trkpt>
      <trkpt lat="49.90843" lon="2.52313">
        <ele>31.4</ele>
        <time>2020-09-30T13:48:29Z</time>
      </trkpt>
      <trkpt lat="49.90841" lon="2.52312">
        <ele>31.4</ele>
        <time>2020-09-30T13:48:30Z</time>
      </trkpt>
      <trkpt lat="49.9084" lon="2.52312">
        <ele>31.4</ele>
        <time>2020-09-30T13:48:31Z</time>
      </trkpt>
      <trkpt lat="49.90839" lon="2.52311">
        <ele>31.4</ele>
        <time>2020-09-30T13:48:32Z</time>
      </trkpt>
      <trkpt lat="49.90838" lon="2.52311">
        <ele>31.4</ele>
        <time>2020-09-30T13:48:33Z</time>
      </trkpt>
      <trkpt lat="49.90836" lon="2.5231">
        <ele>31.4</ele>
        <time>2020-09-30T13:48:35Z</time>
      </trkpt>
      <trkpt lat="49.90835" lon="2.52309">
        <ele>31.4</ele>
        <time>2020-09-30T13:48:36Z</time>
      </trkpt>
      <trkpt lat="49.90834" lon="2.52309">
        <ele>31.4</ele>
        <time>2020-09-30T13:48:37Z</time>
      </trkpt>
      <trkpt lat="49.90833" lon="2.52308">
        <ele>31.4</ele>
        <time>2020-09-30T13:48:39Z</time>
      </trkpt>
      <trkpt lat="49.90832" lon="2.52308">
        <ele>31.4</ele>
        <time>2020-09-30T13:48:40Z</time>
      </trkpt>
      <trkpt lat="49.90831" lon="2.52307">
        <ele>31.4</ele>
        <time>2020-09-30T13:48:41Z</time>
      </trkpt>
      <trkpt lat="49.9083" lon="2.52307">
        <ele>31.4</ele>
        <time>2020-09-30T13:48:42Z</time>
      </trkpt>
      <trkpt lat="49.90828" lon="2.52306">
        <ele>31.4</ele>
        <time>2020-09-30T13:48:43Z</time>
      </trkpt>
      <trkpt lat="49.90828" lon="2.52305">
        <ele>31.4</ele>
        <time>2020-09-30T13:48:44Z</time>
      </trkpt>
      <trkpt lat="49.90827" lon="2.52304">
        <ele>31.4</ele>
        <time>2020-09-30T13:48:45Z</time>
      </trkpt>
      <trkpt lat="49.90826" lon="2.52303">
        <ele>31.4</ele>
        <time>2020-09-30T13:48:46Z</time>
      </trkpt>
      <trkpt lat="49.90824" lon="2.52303">
        <ele>31.4</ele>
        <time>2020-09-30T13:48:47Z</time>
      </trkpt>
      <trkpt lat="49.90823" lon="2.52302">
        <ele>31.4</ele>
        <time>2020-09-30T13:48:49Z</time>
      </trkpt>
      <trkpt lat="49.90822" lon="2.52301">
        <ele>31.4</ele>
        <time>2020-09-30T13:48:50Z</time>
      </trkpt>
      <trkpt lat="49.90821" lon="2.523">
        <ele>31.4</ele>
        <time>2020-09-30T13:48:52Z</time>
      </trkpt>
      <trkpt lat="49.90819" lon="2.52298">
        <ele>31.4</ele>
        <time>2020-09-30T13:48:53Z</time>
      </trkpt>
      <trkpt lat="49.90818" lon="2.52298">
        <ele>31.4</ele>
        <time>2020-09-30T13:48:54Z</time>
      </trkpt>
      <trkpt lat="49.90816" lon="2.52297">
        <ele>31.4</ele>
        <time>2020-09-30T13:48:55Z</time>
      </trkpt>
      <trkpt lat="49.90815" lon="2.52296">
        <ele>31.4</ele>
        <time>2020-09-30T13:48:57Z</time>
      </trkpt>
      <trkpt lat="49.90813" lon="2.52294">
        <ele>31.4</ele>
        <time>2020-09-30T13:48:58Z</time>
      </trkpt>
      <trkpt lat="49.90813" lon="2.52293">
        <ele>31.4</ele>
        <time>2020-09-30T13:48:59Z</time>
      </trkpt>
      <trkpt lat="49.90812" lon="2.52292">
        <ele>31.4</ele>
        <time>2020-09-30T13:49:00Z</time>
      </trkpt>
      <trkpt lat="49.9081" lon="2.52291">
        <ele>31.4</ele>
        <time>2020-09-30T13:49:01Z</time>
      </trkpt>
      <trkpt lat="49.90809" lon="2.5229">
        <ele>31.4</ele>
        <time>2020-09-30T13:49:02Z</time>
      </trkpt>
      <trkpt lat="49.90808" lon="2.52289">
        <ele>31.4</ele>
        <time>2020-09-30T13:49:03Z</time>
      </trkpt>
      <trkpt lat="49.90807" lon="2.52287">
        <ele>31.4</ele>
        <time>2020-09-30T13:49:05Z</time>
      </trkpt>
      <trkpt lat="49.90805" lon="2.52286">
        <ele>31.4</ele>
        <time>2020-09-30T13:49:06Z</time>
      </trkpt>
      <trkpt lat="49.90804" lon="2.52284">
        <ele>31.4</ele>
        <time>2020-09-30T13:49:07Z</time>
      </trkpt>
      <trkpt lat="49.90803" lon="2.52283">
        <ele>31.4</ele>
        <time>2020-09-30T13:49:08Z</time>
      </trkpt>
      <trkpt lat="49.90802" lon="2.52281">
        <ele>31.4</ele>
        <time>2020-09-30T13:49:09Z</time>
      </trkpt>
      <trkpt lat="49.908" lon="2.5228">
        <ele>31.4</ele>
        <time>2020-09-30T13:49:10Z</time>
      </trkpt>
      <trkpt lat="49.90799" lon="2.52279">
        <ele>31.4</ele>
        <time>2020-09-30T13:49:11Z</time>
      </trkpt>
      <trkpt lat="49.90798" lon="2.52278">
        <ele>31.4</ele>
        <time>2020-09-30T13:49:12Z</time>
      </trkpt>
      <trkpt lat="49.90797" lon="2.52277">
        <ele>31.4</ele>
        <time>2020-09-30T13:49:13Z</time>
      </trkpt>
      <trkpt lat="49.90795" lon="2.52275">
        <ele>31.4</ele>
        <time>2020-09-30T13:49:15Z</time>
      </trkpt>
      <trkpt lat="49.90794" lon="2.52274">
        <ele>31.4</ele>
        <time>2020-09-30T13:49:16Z</time>
      </trkpt>
      <trkpt lat="49.90793" lon="2.52273">
        <ele>31.4</ele>
        <time>2020-09-30T13:49:17Z</time>
      </trkpt>
      <trkpt lat="49.90791" lon="2.52272">
        <ele>31.4</ele>
        <time>2020-09-30T13:49:18Z</time>
      </trkpt>
      <trkpt lat="49.9079" lon="2.5227">
        <ele>31.3</ele>
        <time>2020-09-30T13:49:19Z</time>
      </trkpt>
      <trkpt lat="49.90789" lon="2.52269">
        <ele>31.3</ele>
        <time>2020-09-30T13:49:20Z</time>
      </trkpt>
      <trkpt lat="49.90788" lon="2.52269">
        <ele>31.3</ele>
        <time>2020-09-30T13:49:21Z</time>
      </trkpt>
      <trkpt lat="49.90787" lon="2.52267">
        <ele>31.3</ele>
        <time>2020-09-30T13:49:23Z</time>
      </trkpt>
      <trkpt lat="49.90785" lon="2.52266">
        <ele>31.3</ele>
        <time>2020-09-30T13:49:24Z</time>
      </trkpt>
      <trkpt lat="49.90783" lon="2.52264">
        <ele>31.3</ele>
        <time>2020-09-30T13:49:26Z</time>
      </trkpt>
      <trkpt lat="49.90782" lon="2.52263">
        <ele>31.3</ele>
        <time>2020-09-30T13:49:27Z</time>
      </trkpt>
      <trkpt lat="49.90781" lon="2.52262">
        <ele>31.3</ele>
        <time>2020-09-30T13:49:28Z</time>
      </trkpt>
      <trkpt lat="49.9078" lon="2.52261">
        <ele>31.3</ele>
        <time>2020-09-30T13:49:29Z</time>
      </trkpt>
      <trkpt lat="49.90779" lon="2.5226">
        <ele>31.3</ele>
        <time>2020-09-30T13:49:30Z</time>
      </trkpt>
      <trkpt lat="49.90778" lon="2.52259">
        <ele>31.3</ele>
        <time>2020-09-30T13:49:31Z</time>
      </trkpt>
      <trkpt lat="49.90776" lon="2.52258">
        <ele>31.3</ele>
        <time>2020-09-30T13:49:33Z</time>
      </trkpt>
      <trkpt lat="49.90774" lon="2.52257">
        <ele>31.3</ele>
        <time>2020-09-30T13:49:34Z</time>
      </trkpt>
      <trkpt lat="49.90773" lon="2.52256">
        <ele>31.3</ele>
        <time>2020-09-30T13:49:36Z</time>
      </trkpt>
      <trkpt lat="49.90771" lon="2.52255">
        <ele>31.3</ele>
        <time>2020-09-30T13:49:37Z</time>
      </trkpt>
      <trkpt lat="49.9077" lon="2.52254">
        <ele>31.3</ele>
        <time>2020-09-30T13:49:38Z</time>
      </trkpt>
      <trkpt lat="49.90768" lon="2.52253">
        <ele>31.3</ele>
        <time>2020-09-30T13:49:39Z</time>
      </trkpt>
      <trkpt lat="49.90767" lon="2.52252">
        <ele>31.3</ele>
        <time>2020-09-30T13:49:40Z</time>
      </trkpt>
      <trkpt lat="49.90766" lon="2.52252">
        <ele>31.3</ele>
        <time>2020-09-30T13:49:41Z</time>
      </trkpt>
      <trkpt lat="49.90764" lon="2.5225">
        <ele>31.3</ele>
        <time>2020-09-30T13:49:43Z</time>
      </trkpt>
      <trkpt lat="49.90763" lon="2.52249">
        <ele>31.3</ele>
        <time>2020-09-30T13:49:44Z</time>
      </trkpt>
      <trkpt lat="49.90762" lon="2.52248">
        <ele>31.3</ele>
        <time>2020-09-30T13:49:45Z</time>
      </trkpt>
      <trkpt lat="49.90761" lon="2.52247">
        <ele>31.3</ele>
        <time>2020-09-30T13:49:46Z</time>
      </trkpt>
      <trkpt lat="49.90759" lon="2.52246">
        <ele>31.3</ele>
        <time>2020-09-30T13:49:48Z</time>
      </trkpt>
      <trkpt lat="49.90758" lon="2.52245">
        <ele>31.3</ele>
        <time>2020-09-30T13:49:49Z</time>
      </trkpt>
      <trkpt lat="49.90756" lon="2.52244">
        <ele>31.3</ele>
        <time>2020-09-30T13:49:50Z</time>
      </trkpt>
      <trkpt lat="49.90754" lon="2.52242">
        <ele>31.3</ele>
        <time>2020-09-30T13:49:51Z</time>
      </trkpt>
      <trkpt lat="49.90754" lon="2.52242">
        <ele>31.3</ele>
        <time>2020-09-30T13:49:52Z</time>
      </trkpt>
      <trkpt lat="49.90753" lon="2.52241">
        <ele>31.3</ele>
        <time>2020-09-30T13:49:53Z</time>
      </trkpt>
      <trkpt lat="49.90751" lon="2.5224">
        <ele>31.3</ele>
        <time>2020-09-30T13:49:54Z</time>
      </trkpt>
      <trkpt lat="49.9075" lon="2.52238">
        <ele>31.3</ele>
        <time>2020-09-30T13:49:55Z</time>
      </trkpt>
      <trkpt lat="49.90747" lon="2.52236">
        <ele>31.3</ele>
        <time>2020-09-30T13:49:56Z</time>
      </trkpt>
      <trkpt lat="49.90746" lon="2.52235">
        <ele>31.3</ele>
        <time>2020-09-30T13:49:58Z</time>
      </trkpt>
      <trkpt lat="49.90745" lon="2.52235">
        <ele>31.3</ele>
        <time>2020-09-30T13:49:59Z</time>
      </trkpt>
      <trkpt lat="49.90744" lon="2.52234">
        <ele>31.3</ele>
        <time>2020-09-30T13:50:00Z</time>
      </trkpt>
      <trkpt lat="49.90743" lon="2.52233">
        <ele>31.3</ele>
        <time>2020-09-30T13:50:01Z</time>
      </trkpt>
      <trkpt lat="49.90742" lon="2.52232">
        <ele>31.3</ele>
        <time>2020-09-30T13:50:02Z</time>
      </trkpt>
      <trkpt lat="49.9074" lon="2.52231">
        <ele>31.3</ele>
        <time>2020-09-30T13:50:03Z</time>
      </trkpt>
      <trkpt lat="49.90737" lon="2.52229">
        <ele>31.3</ele>
        <time>2020-09-30T13:50:05Z</time>
      </trkpt>
      <trkpt lat="49.90736" lon="2.52229">
        <ele>31.3</ele>
        <time>2020-09-30T13:50:06Z</time>
      </trkpt>
      <trkpt lat="49.90735" lon="2.52228">
        <ele>31.3</ele>
        <time>2020-09-30T13:50:07Z</time>
      </trkpt>
      <trkpt lat="49.90734" lon="2.52227">
        <ele>31.3</ele>
        <time>2020-09-30T13:50:08Z</time>
      </trkpt>
      <trkpt lat="49.90733" lon="2.52226">
        <ele>31.3</ele>
        <time>2020-09-30T13:50:10Z</time>
      </trkpt>
      <trkpt lat="49.90731" lon="2.52225">
        <ele>31.3</ele>
        <time>2020-09-30T13:50:11Z</time>
      </trkpt>
      <trkpt lat="49.9073" lon="2.52224">
        <ele>31.3</ele>
        <time>2020-09-30T13:50:12Z</time>
      </trkpt>
      <trkpt lat="49.90729" lon="2.52223">
        <ele>31.3</ele>
        <time>2020-09-30T13:50:13Z</time>
      </trkpt>
      <trkpt lat="49.90728" lon="2.52222">
        <ele>31.3</ele>
        <time>2020-09-30T13:50:14Z</time>
      </trkpt>
      <trkpt lat="49.90727" lon="2.52221">
        <ele>31.3</ele>
        <time>2020-09-30T13:50:15Z</time>
      </trkpt>
      <trkpt lat="49.90725" lon="2.52219">
        <ele>31.3</ele>
        <time>2020-09-30T13:50:16Z</time>
      </trkpt>
      <trkpt lat="49.90724" lon="2.52219">
        <ele>31.3</ele>
        <time>2020-09-30T13:50:17Z</time>
      </trkpt>
      <trkpt lat="49.90723" lon="2.52218">
        <ele>31.3</ele>
        <time>2020-09-30T13:50:18Z</time>
      </trkpt>
      <trkpt lat="49.90722" lon="2.52216">
        <ele>31.3</ele>
        <time>2020-09-30T13:50:19Z</time>
      </trkpt>
      <trkpt lat="49.90722" lon="2.52215">
        <ele>31.3</ele>
        <time>2020-09-30T13:50:21Z</time>
      </trkpt>
      <trkpt lat="49.90721" lon="2.52214">
        <ele>31.3</ele>
        <time>2020-09-30T13:50:22Z</time>
      </trkpt>
      <trkpt lat="49.90719" lon="2.52211">
        <ele>31.3</ele>
        <time>2020-09-30T13:50:23Z</time>
      </trkpt>
      <trkpt lat="49.90718" lon="2.5221">
        <ele>31.3</ele>
        <time>2020-09-30T13:50:24Z</time>
      </trkpt>
      <trkpt lat="49.90716" lon="2.52208">
        <ele>31.3</ele>
        <time>2020-09-30T13:50:25Z</time>
      </trkpt>
      <trkpt lat="49.90715" lon="2.52207">
        <ele>31.4</ele>
        <time>2020-09-30T13:50:26Z</time>
      </trkpt>
      <trkpt lat="49.90714" lon="2.52206">
        <ele>31.4</ele>
        <time>2020-09-30T13:50:28Z</time>
      </trkpt>
      <trkpt lat="49.90713" lon="2.52205">
        <ele>31.4</ele>
        <time>2020-09-30T13:50:29Z</time>
      </trkpt>
      <trkpt lat="49.90712" lon="2.52204">
        <ele>31.4</ele>
        <time>2020-09-30T13:50:30Z</time>
      </trkpt>
      <trkpt lat="49.90712" lon="2.52203">
        <ele>31.4</ele>
        <time>2020-09-30T13:50:31Z</time>
      </trkpt>
      <trkpt lat="49.9071" lon="2.52202">
        <ele>31.4</ele>
        <time>2020-09-30T13:50:32Z</time>
      </trkpt>
      <trkpt lat="49.90708" lon="2.522">
        <ele>31.4</ele>
        <time>2020-09-30T13:50:34Z</time>
      </trkpt>
      <trkpt lat="49.90707" lon="2.52198">
        <ele>31.4</ele>
        <time>2020-09-30T13:50:35Z</time>
      </trkpt>
      <trkpt lat="49.90705" lon="2.52196">
        <ele>31.4</ele>
        <time>2020-09-30T13:50:37Z</time>
      </trkpt>
      <trkpt lat="49.90704" lon="2.52195">
        <ele>31.4</ele>
        <time>2020-09-30T13:50:38Z</time>
      </trkpt>
      <trkpt lat="49.90702" lon="2.52193">
        <ele>31.4</ele>
        <time>2020-09-30T13:50:40Z</time>
      </trkpt>
      <trkpt lat="49.90701" lon="2.52192">
        <ele>31.4</ele>
        <time>2020-09-30T13:50:41Z</time>
      </trkpt>
      <trkpt lat="49.907" lon="2.52191">
        <ele>31.4</ele>
        <time>2020-09-30T13:50:42Z</time>
      </trkpt>
      <trkpt lat="49.90699" lon="2.52189">
        <ele>31.4</ele>
        <time>2020-09-30T13:50:43Z</time>
      </trkpt>
      <trkpt lat="49.90697" lon="2.52187">
        <ele>31.4</ele>
        <time>2020-09-30T13:50:44Z</time>
      </trkpt>
      <trkpt lat="49.90696" lon="2.52186">
        <ele>31.4</ele>
        <time>2020-09-30T13:50:46Z</time>
      </trkpt>
      <trkpt lat="49.90695" lon="2.52184">
        <ele>31.4</ele>
        <time>2020-09-30T13:50:47Z</time>
      </trkpt>
      <trkpt lat="49.90693" lon="2.5218">
        <ele>31.4</ele>
        <time>2020-09-30T13:50:48Z</time>
      </trkpt>
      <trkpt lat="49.90692" lon="2.52179">
        <ele>31.4</ele>
        <time>2020-09-30T13:50:49Z</time>
      </trkpt>
      <trkpt lat="49.90691" lon="2.52177">
        <ele>31.4</ele>
        <time>2020-09-30T13:50:50Z</time>
      </trkpt>
      <trkpt lat="49.9069" lon="2.52175">
        <ele>31.4</ele>
        <time>2020-09-30T13:50:52Z</time>
      </trkpt>
      <trkpt lat="49.90689" lon="2.52174">
        <ele>31.4</ele>
        <time>2020-09-30T13:50:53Z</time>
      </trkpt>
      <trkpt lat="49.90688" lon="2.52172">
        <ele>31.4</ele>
        <time>2020-09-30T13:50:54Z</time>
      </trkpt>
      <trkpt lat="49.90686" lon="2.52169">
        <ele>31.4</ele>
        <time>2020-09-30T13:50:56Z</time>
      </trkpt>
      <trkpt lat="49.90685" lon="2.52168">
        <ele>31.4</ele>
        <time>2020-09-30T13:50:57Z</time>
      </trkpt>
      <trkpt lat="49.90684" lon="2.52166">
        <ele>31.4</ele>
        <time>2020-09-30T13:50:58Z</time>
      </trkpt>
      <trkpt lat="49.90682" lon="2.52164">
        <ele>31.4</ele>
        <time>2020-09-30T13:50:59Z</time>
      </trkpt>
      <trkpt lat="49.90681" lon="2.52163">
        <ele>31.4</ele>
        <time>2020-09-30T13:51:01Z</time>
      </trkpt>
      <trkpt lat="49.9068" lon="2.52162">
        <ele>31.4</ele>
        <time>2020-09-30T13:51:02Z</time>
      </trkpt>
      <trkpt lat="49.90678" lon="2.5216">
        <ele>31.4</ele>
        <time>2020-09-30T13:51:03Z</time>
      </trkpt>
      <trkpt lat="49.90678" lon="2.52159">
        <ele>31.5</ele>
        <time>2020-09-30T13:51:04Z</time>
      </trkpt>
      <trkpt lat="49.90677" lon="2.52158">
        <ele>31.5</ele>
        <time>2020-09-30T13:51:05Z</time>
      </trkpt>
      <trkpt lat="49.90676" lon="2.52157">
        <ele>31.5</ele>
        <time>2020-09-30T13:51:06Z</time>
      </trkpt>
      <trkpt lat="49.90675" lon="2.52155">
        <ele>31.5</ele>
        <time>2020-09-30T13:51:07Z</time>
      </trkpt>
      <trkpt lat="49.90675" lon="2.52154">
        <ele>31.5</ele>
        <time>2020-09-30T13:51:08Z</time>
      </trkpt>
      <trkpt lat="49.90674" lon="2.52152">
        <ele>31.5</ele>
        <time>2020-09-30T13:51:09Z</time>
      </trkpt>
      <trkpt lat="49.90673" lon="2.52151">
        <ele>31.5</ele>
        <time>2020-09-30T13:51:11Z</time>
      </trkpt>
      <trkpt lat="49.90672" lon="2.52149">
        <ele>31.5</ele>
        <time>2020-09-30T13:51:12Z</time>
      </trkpt>
      <trkpt lat="49.90671" lon="2.52148">
        <ele>31.5</ele>
        <time>2020-09-30T13:51:13Z</time>
      </trkpt>
      <trkpt lat="49.9067" lon="2.52146">
        <ele>31.5</ele>
        <time>2020-09-30T13:51:14Z</time>
      </trkpt>
      <trkpt lat="49.90669" lon="2.52145">
        <ele>31.5</ele>
        <time>2020-09-30T13:51:15Z</time>
      </trkpt>
      <trkpt lat="49.90668" lon="2.52143">
        <ele>31.5</ele>
        <time>2020-09-30T13:51:16Z</time>
      </trkpt>
      <trkpt lat="49.90667" lon="2.5214">
        <ele>31.5</ele>
        <time>2020-09-30T13:51:18Z</time>
      </trkpt>
      <trkpt lat="49.90667" lon="2.52139">
        <ele>31.5</ele>
        <time>2020-09-30T13:51:19Z</time>
      </trkpt>
      <trkpt lat="49.90666" lon="2.52138">
        <ele>31.5</ele>
        <time>2020-09-30T13:51:20Z</time>
      </trkpt>
      <trkpt lat="49.90666" lon="2.52136">
        <ele>31.5</ele>
        <time>2020-09-30T13:51:21Z</time>
      </trkpt>
      <trkpt lat="49.90665" lon="2.52134">
        <ele>31.5</ele>
        <time>2020-09-30T13:51:22Z</time>
      </trkpt>
      <trkpt lat="49.90664" lon="2.52132">
        <ele>31.5</ele>
        <time>2020-09-30T13:51:24Z</time>
      </trkpt>
      <trkpt lat="49.90663" lon="2.5213">
        <ele>31.6</ele>
        <time>2020-09-30T13:51:25Z</time>
      </trkpt>
      <trkpt lat="49.90662" lon="2.52128">
        <ele>31.6</ele>
        <time>2020-09-30T13:51:27Z</time>
      </trkpt>
      <trkpt lat="49.90661" lon="2.52127">
        <ele>31.6</ele>
        <time>2020-09-30T13:51:28Z</time>
      </trkpt>
      <trkpt lat="49.90661" lon="2.52125">
        <ele>31.6</ele>
        <time>2020-09-30T13:51:29Z</time>
      </trkpt>
      <trkpt lat="49.9066" lon="2.52123">
        <ele>31.6</ele>
        <time>2020-09-30T13:51:30Z</time>
      </trkpt>
      <trkpt lat="49.90659" lon="2.52122">
        <ele>31.6</ele>
        <time>2020-09-30T13:51:31Z</time>
      </trkpt>
      <trkpt lat="49.90658" lon="2.5212">
        <ele>31.6</ele>
        <time>2020-09-30T13:51:32Z</time>
      </trkpt>
      <trkpt lat="49.90657" lon="2.52117">
        <ele>31.6</ele>
        <time>2020-09-30T13:51:33Z</time>
      </trkpt>
      <trkpt lat="49.90656" lon="2.52115">
        <ele>31.6</ele>
        <time>2020-09-30T13:51:35Z</time>
      </trkpt>
      <trkpt lat="49.90656" lon="2.52114">
        <ele>31.6</ele>
        <time>2020-09-30T13:51:36Z</time>
      </trkpt>
      <trkpt lat="49.90655" lon="2.52113">
        <ele>31.6</ele>
        <time>2020-09-30T13:51:37Z</time>
      </trkpt>
      <trkpt lat="49.90654" lon="2.52111">
        <ele>31.6</ele>
        <time>2020-09-30T13:51:38Z</time>
      </trkpt>
      <trkpt lat="49.90653" lon="2.52109">
        <ele>31.6</ele>
        <time>2020-09-30T13:51:39Z</time>
      </trkpt>
      <trkpt lat="49.90652" lon="2.52106">
        <ele>31.6</ele>
        <time>2020-09-30T13:51:40Z</time>
      </trkpt>
      <trkpt lat="49.90652" lon="2.52105">
        <ele>31.6</ele>
        <time>2020-09-30T13:51:41Z</time>
      </trkpt>
      <trkpt lat="49.90651" lon="2.52104">
        <ele>31.6</ele>
        <time>2020-09-30T13:51:42Z</time>
      </trkpt>
      <trkpt lat="49.9065" lon="2.52103">
        <ele>31.6</ele>
        <time>2020-09-30T13:51:44Z</time>
      </trkpt>
      <trkpt lat="49.90649" lon="2.52101">
        <ele>31.6</ele>
        <time>2020-09-30T13:51:45Z</time>
      </trkpt>
      <trkpt lat="49.90649" lon="2.52099">
        <ele>31.5</ele>
        <time>2020-09-30T13:51:46Z</time>
      </trkpt>
      <trkpt lat="49.90648" lon="2.52097">
        <ele>31.5</ele>
        <time>2020-09-30T13:51:47Z</time>
      </trkpt>
      <trkpt lat="49.90646" lon="2.52094">
        <ele>31.5</ele>
        <time>2020-09-30T13:51:48Z</time>
      </trkpt>
      <trkpt lat="49.90646" lon="2.52093">
        <ele>31.5</ele>
        <time>2020-09-30T13:51:49Z</time>
      </trkpt>
      <trkpt lat="49.90646" lon="2.52092">
        <ele>31.5</ele>
        <time>2020-09-30T13:51:50Z</time>
      </trkpt>
      <trkpt lat="49.90644" lon="2.52088">
        <ele>31.5</ele>
        <time>2020-09-30T13:51:51Z</time>
      </trkpt>
      <trkpt lat="49.90644" lon="2.52086">
        <ele>31.5</ele>
        <time>2020-09-30T13:51:53Z</time>
      </trkpt>
      <trkpt lat="49.90643" lon="2.52084">
        <ele>31.5</ele>
        <time>2020-09-30T13:51:54Z</time>
      </trkpt>
      <trkpt lat="49.90643" lon="2.52082">
        <ele>31.5</ele>
        <time>2020-09-30T13:51:55Z</time>
      </trkpt>
      <trkpt lat="49.90643" lon="2.52081">
        <ele>31.5</ele>
        <time>2020-09-30T13:51:56Z</time>
      </trkpt>
      <trkpt lat="49.90642" lon="2.52079">
        <ele>31.5</ele>
        <time>2020-09-30T13:51:57Z</time>
      </trkpt>
      <trkpt lat="49.90642" lon="2.52077">
        <ele>31.5</ele>
        <time>2020-09-30T13:51:58Z</time>
      </trkpt>
      <trkpt lat="49.90641" lon="2.52075">
        <ele>31.5</ele>
        <time>2020-09-30T13:51:59Z</time>
      </trkpt>
      <trkpt lat="49.90641" lon="2.52073">
        <ele>31.5</ele>
        <time>2020-09-30T13:52:00Z</time>
      </trkpt>
      <trkpt lat="49.9064" lon="2.52072">
        <ele>31.5</ele>
        <time>2020-09-30T13:52:01Z</time>
      </trkpt>
      <trkpt lat="49.90639" lon="2.52069">
        <ele>31.5</ele>
        <time>2020-09-30T13:52:03Z</time>
      </trkpt>
      <trkpt lat="49.90639" lon="2.52067">
        <ele>31.5</ele>
        <time>2020-09-30T13:52:04Z</time>
      </trkpt>
      <trkpt lat="49.90638" lon="2.52064">
        <ele>31.5</ele>
        <time>2020-09-30T13:52:06Z</time>
      </trkpt>
      <trkpt lat="49.90637" lon="2.52063">
        <ele>31.5</ele>
        <time>2020-09-30T13:52:07Z</time>
      </trkpt>
      <trkpt lat="49.90636" lon="2.5206">
        <ele>31.5</ele>
        <time>2020-09-30T13:52:08Z</time>
      </trkpt>
      <trkpt lat="49.90635" lon="2.52056">
        <ele>31.5</ele>
        <time>2020-09-30T13:52:09Z</time>
      </trkpt>
      <trkpt lat="49.90634" lon="2.52055">
        <ele>31.5</ele>
        <time>2020-09-30T13:52:10Z</time>
      </trkpt>
      <trkpt lat="49.90634" lon="2.52053">
        <ele>31.5</ele>
        <time>2020-09-30T13:52:11Z</time>
      </trkpt>
      <trkpt lat="49.90633" lon="2.52051">
        <ele>31.5</ele>
        <time>2020-09-30T13:52:12Z</time>
      </trkpt>
      <trkpt lat="49.90632" lon="2.52047">
        <ele>31.5</ele>
        <time>2020-09-30T13:52:14Z</time>
      </trkpt>
      <trkpt lat="49.90632" lon="2.52046">
        <ele>31.5</ele>
        <time>2020-09-30T13:52:15Z</time>
      </trkpt>
      <trkpt lat="49.90631" lon="2.52043">
        <ele>31.5</ele>
        <time>2020-09-30T13:52:16Z</time>
      </trkpt>
      <trkpt lat="49.9063" lon="2.52041">
        <ele>31.5</ele>
        <time>2020-09-30T13:52:17Z</time>
      </trkpt>
      <trkpt lat="49.90629" lon="2.52036">
        <ele>31.6</ele>
        <time>2020-09-30T13:52:19Z</time>
      </trkpt>
      <trkpt lat="49.90629" lon="2.52035">
        <ele>31.6</ele>
        <time>2020-09-30T13:52:20Z</time>
      </trkpt>
      <trkpt lat="49.90629" lon="2.52033">
        <ele>31.6</ele>
        <time>2020-09-30T13:52:21Z</time>
      </trkpt>
      <trkpt lat="49.90628" lon="2.52032">
        <ele>31.6</ele>
        <time>2020-09-30T13:52:22Z</time>
      </trkpt>
      <trkpt lat="49.90628" lon="2.52031">
        <ele>31.6</ele>
        <time>2020-09-30T13:52:23Z</time>
      </trkpt>
      <trkpt lat="49.90628" lon="2.52029">
        <ele>31.6</ele>
        <time>2020-09-30T13:52:24Z</time>
      </trkpt>
      <trkpt lat="49.90628" lon="2.52027">
        <ele>31.6</ele>
        <time>2020-09-30T13:52:26Z</time>
      </trkpt>
      <trkpt lat="49.90628" lon="2.52026">
        <ele>31.6</ele>
        <time>2020-09-30T13:52:27Z</time>
      </trkpt>
      <trkpt lat="49.90628" lon="2.52022">
        <ele>31.6</ele>
        <time>2020-09-30T13:52:28Z</time>
      </trkpt>
      <trkpt lat="49.90627" lon="2.5202">
        <ele>31.6</ele>
        <time>2020-09-30T13:52:29Z</time>
      </trkpt>
      <trkpt lat="49.90627" lon="2.52018">
        <ele>31.6</ele>
        <time>2020-09-30T13:52:30Z</time>
      </trkpt>
      <trkpt lat="49.90627" lon="2.52017">
        <ele>31.6</ele>
        <time>2020-09-30T13:52:31Z</time>
      </trkpt>
      <trkpt lat="49.90627" lon="2.52015">
        <ele>31.6</ele>
        <time>2020-09-30T13:52:32Z</time>
      </trkpt>
      <trkpt lat="49.90627" lon="2.52014">
        <ele>31.6</ele>
        <time>2020-09-30T13:52:34Z</time>
      </trkpt>
      <trkpt lat="49.90627" lon="2.52012">
        <ele>31.6</ele>
        <time>2020-09-30T13:52:35Z</time>
      </trkpt>
      <trkpt lat="49.90626" lon="2.52011">
        <ele>31.6</ele>
        <time>2020-09-30T13:52:36Z</time>
      </trkpt>
      <trkpt lat="49.90626" lon="2.52009">
        <ele>31.6</ele>
        <time>2020-09-30T13:52:37Z</time>
      </trkpt>
      <trkpt lat="49.90626" lon="2.52008">
        <ele>31.6</ele>
        <time>2020-09-30T13:52:38Z</time>
      </trkpt>
      <trkpt lat="49.90625" lon="2.52007">
        <ele>31.6</ele>
        <time>2020-09-30T13:52:40Z</time>
      </trkpt>
      <trkpt lat="49.90625" lon="2.52004">
        <ele>31.6</ele>
        <time>2020-09-30T13:52:41Z</time>
      </trkpt>
      <trkpt lat="49.90624" lon="2.52003">
        <ele>31.6</ele>
        <time>2020-09-30T13:52:43Z</time>
      </trkpt>
      <trkpt lat="49.90624" lon="2.52002">
        <ele>31.6</ele>
        <time>2020-09-30T13:52:44Z</time>
      </trkpt>
      <trkpt lat="49.90624" lon="2.52003">
        <ele>31.6</ele>
        <time>2020-09-30T13:52:46Z</time>
      </trkpt>
      <trkpt lat="49.90624" lon="2.52002">
        <ele>31.6</ele>
        <time>2020-09-30T13:52:47Z</time>
      </trkpt>
      <trkpt lat="49.90624" lon="2.52002">
        <ele>31.6</ele>
        <time>2020-09-30T13:52:48Z</time>
      </trkpt>
      <trkpt lat="49.90624" lon="2.52002">
        <ele>31.6</ele>
        <time>2020-09-30T13:52:50Z</time>
      </trkpt>
      <trkpt lat="49.90624" lon="2.52002">
        <ele>31.6</ele>
        <time>2020-09-30T13:52:51Z</time>
      </trkpt>
      <trkpt lat="49.90624" lon="2.52002">
        <ele>31.6</ele>
        <time>2020-09-30T13:52:52Z</time>
      </trkpt>
      <trkpt lat="49.90624" lon="2.52002">
        <ele>31.6</ele>
        <time>2020-09-30T13:52:53Z</time>
      </trkpt>
      <trkpt lat="49.90624" lon="2.52002">
        <ele>31.6</ele>
        <time>2020-09-30T13:52:55Z</time>
      </trkpt>
      <trkpt lat="49.90625" lon="2.52002">
        <ele>31.6</ele>
        <time>2020-09-30T13:52:56Z</time>
      </trkpt>
      <trkpt lat="49.90625" lon="2.52002">
        <ele>31.6</ele>
        <time>2020-09-30T13:52:57Z</time>
      </trkpt>
      <trkpt lat="49.90625" lon="2.52002">
        <ele>31.6</ele>
        <time>2020-09-30T13:52:59Z</time>
      </trkpt>
      <trkpt lat="49.90625" lon="2.52002">
        <ele>31.6</ele>
        <time>2020-09-30T13:53:00Z</time>
      </trkpt>
      <trkpt lat="49.90625" lon="2.52002">
        <ele>31.6</ele>
        <time>2020-09-30T13:53:02Z</time>
      </trkpt>
      <trkpt lat="49.90625" lon="2.52002">
        <ele>31.6</ele>
        <time>2020-09-30T13:53:04Z</time>
      </trkpt>
      <trkpt lat="49.90625" lon="2.52002">
        <ele>31.6</ele>
        <time>2020-09-30T13:53:06Z</time>
      </trkpt>
      <trkpt lat="49.90625" lon="2.52004">
        <ele>31.6</ele>
        <time>2020-09-30T13:53:08Z</time>
      </trkpt>
      <trkpt lat="49.90625" lon="2.52005">
        <ele>31.6</ele>
        <time>2020-09-30T13:53:10Z</time>
      </trkpt>
      <trkpt lat="49.90625" lon="2.52005">
        <ele>31.6</ele>
        <time>2020-09-30T13:53:11Z</time>
      </trkpt>
      <trkpt lat="49.90625" lon="2.52005">
        <ele>31.6</ele>
        <time>2020-09-30T13:53:13Z</time>
      </trkpt>
      <trkpt lat="49.90625" lon="2.52005">
        <ele>31.6</ele>
        <time>2020-09-30T13:53:15Z</time>
      </trkpt>
      <trkpt lat="49.90625" lon="2.52005">
        <ele>31.6</ele>
        <time>2020-09-30T13:53:16Z</time>
      </trkpt>
      <trkpt lat="49.90625" lon="2.52005">
        <ele>31.6</ele>
        <time>2020-09-30T13:53:18Z</time>
      </trkpt>
      <trkpt lat="49.90625" lon="2.52005">
        <ele>31.6</ele>
        <time>2020-09-30T13:53:19Z</time>
      </trkpt>
      <trkpt lat="49.90625" lon="2.52005">
        <ele>31.6</ele>
        <time>2020-09-30T13:53:20Z</time>
      </trkpt>
      <trkpt lat="49.90625" lon="2.52005">
        <ele>31.6</ele>
        <time>2020-09-30T13:53:21Z</time>
      </trkpt>
      <trkpt lat="49.90625" lon="2.52005">
        <ele>31.6</ele>
        <time>2020-09-30T13:53:23Z</time>
      </trkpt>
      <trkpt lat="49.90625" lon="2.52005">
        <ele>31.6</ele>
        <time>2020-09-30T13:53:25Z</time>
      </trkpt>
      <trkpt lat="49.90625" lon="2.52005">
        <ele>31.6</ele>
        <time>2020-09-30T13:53:26Z</time>
      </trkpt>
      <trkpt lat="49.90625" lon="2.52005">
        <ele>31.6</ele>
        <time>2020-09-30T13:53:27Z</time>
      </trkpt>
      <trkpt lat="49.90625" lon="2.52005">
        <ele>31.6</ele>
        <time>2020-09-30T13:53:29Z</time>
      </trkpt>
      <trkpt lat="49.90625" lon="2.52005">
        <ele>31.6</ele>
        <time>2020-09-30T13:53:31Z</time>
      </trkpt>
      <trkpt lat="49.90625" lon="2.52005">
        <ele>31.6</ele>
        <time>2020-09-30T13:53:33Z</time>
      </trkpt>
      <trkpt lat="49.90625" lon="2.52005">
        <ele>31.6</ele>
        <time>2020-09-30T13:53:34Z</time>
      </trkpt>
      <trkpt lat="49.90625" lon="2.52005">
        <ele>31.6</ele>
        <time>2020-09-30T13:53:36Z</time>
      </trkpt>
      <trkpt lat="49.90625" lon="2.52005">
        <ele>31.6</ele>
        <time>2020-09-30T13:53:37Z</time>
      </trkpt>
      <trkpt lat="49.90625" lon="2.52005">
        <ele>31.6</ele>
        <time>2020-09-30T13:53:38Z</time>
      </trkpt>
      <trkpt lat="49.90625" lon="2.52005">
        <ele>31.6</ele>
        <time>2020-09-30T13:53:40Z</time>
      </trkpt>
      <trkpt lat="49.90625" lon="2.52005">
        <ele>31.6</ele>
        <time>2020-09-30T13:53:41Z</time>
      </trkpt>
      <trkpt lat="49.90625" lon="2.52005">
        <ele>31.6</ele>
        <time>2020-09-30T13:53:43Z</time>
      </trkpt>
      <trkpt lat="49.90625" lon="2.52005">
        <ele>31.6</ele>
        <time>2020-09-30T13:53:45Z</time>
      </trkpt>
      <trkpt lat="49.90625" lon="2.52005">
        <ele>31.6</ele>
        <time>2020-09-30T13:53:46Z</time>
      </trkpt>
      <trkpt lat="49.90625" lon="2.52005">
        <ele>31.6</ele>
        <time>2020-09-30T13:53:48Z</time>
      </trkpt>
      <trkpt lat="49.90625" lon="2.52005">
        <ele>31.6</ele>
        <time>2020-09-30T13:53:50Z</time>
      </trkpt>
      <trkpt lat="49.90625" lon="2.52005">
        <ele>31.6</ele>
        <time>2020-09-30T13:53:51Z</time>
      </trkpt>
      <trkpt lat="49.90625" lon="2.52005">
        <ele>31.6</ele>
        <time>2020-09-30T13:53:53Z</time>
      </trkpt>
      <trkpt lat="49.90625" lon="2.52005">
        <ele>31.6</ele>
        <time>2020-09-30T13:53:55Z</time>
      </trkpt>
      <trkpt lat="49.90625" lon="2.52005">
        <ele>31.6</ele>
        <time>2020-09-30T13:53:56Z</time>
      </trkpt>
      <trkpt lat="49.90625" lon="2.52005">
        <ele>31.6</ele>
        <time>2020-09-30T13:53:58Z</time>
      </trkpt>
      <trkpt lat="49.90625" lon="2.52005">
        <ele>31.6</ele>
        <time>2020-09-30T13:53:59Z</time>
      </trkpt>
      <trkpt lat="49.90625" lon="2.52005">
        <ele>31.6</ele>
        <time>2020-09-30T13:54:01Z</time>
      </trkpt>
      <trkpt lat="49.90625" lon="2.52005">
        <ele>31.6</ele>
        <time>2020-09-30T13:54:03Z</time>
      </trkpt>
      <trkpt lat="49.90626" lon="2.52004">
        <ele>31.6</ele>
        <time>2020-09-30T13:54:05Z</time>
      </trkpt>
      <trkpt lat="49.90626" lon="2.52002">
        <ele>31.6</ele>
        <time>2020-09-30T13:54:06Z</time>
      </trkpt>
      <trkpt lat="49.90626" lon="2.51999">
        <ele>31.6</ele>
        <time>2020-09-30T13:54:08Z</time>
      </trkpt>
      <trkpt lat="49.90626" lon="2.51998">
        <ele>31.6</ele>
        <time>2020-09-30T13:54:09Z</time>
      </trkpt>
      <trkpt lat="49.90626" lon="2.51999">
        <ele>31.6</ele>
        <time>2020-09-30T13:54:10Z</time>
      </trkpt>
      <trkpt lat="49.90626" lon="2.51999">
        <ele>31.6</ele>
        <time>2020-09-30T13:54:11Z</time>
      </trkpt>
      <trkpt lat="49.90625" lon="2.51997">
        <ele>31.6</ele>
        <time>2020-09-30T13:54:12Z</time>
      </trkpt>
      <trkpt lat="49.90625" lon="2.51995">
        <ele>31.6</ele>
        <time>2020-09-30T13:54:13Z</time>
      </trkpt>
      <trkpt lat="49.90625" lon="2.51993">
        <ele>31.6</ele>
        <time>2020-09-30T13:54:14Z</time>
      </trkpt>
      <trkpt lat="49.90625" lon="2.51991">
        <ele>31.6</ele>
        <time>2020-09-30T13:54:16Z</time>
      </trkpt>
      <trkpt lat="49.90625" lon="2.5199">
        <ele>31.6</ele>
        <time>2020-09-30T13:54:17Z</time>
      </trkpt>
      <trkpt lat="49.90625" lon="2.51988">
        <ele>31.6</ele>
        <time>2020-09-30T13:54:18Z</time>
      </trkpt>
      <trkpt lat="49.90624" lon="2.51985">
        <ele>31.6</ele>
        <time>2020-09-30T13:54:19Z</time>
      </trkpt>
      <trkpt lat="49.90624" lon="2.51982">
        <ele>31.6</ele>
        <time>2020-09-30T13:54:20Z</time>
      </trkpt>
      <trkpt lat="49.90624" lon="2.5198">
        <ele>31.6</ele>
        <time>2020-09-30T13:54:21Z</time>
      </trkpt>
      <trkpt lat="49.90624" lon="2.51978">
        <ele>31.6</ele>
        <time>2020-09-30T13:54:22Z</time>
      </trkpt>
      <trkpt lat="49.90624" lon="2.51975">
        <ele>31.6</ele>
        <time>2020-09-30T13:54:23Z</time>
      </trkpt>
      <trkpt lat="49.90623" lon="2.5197">
        <ele>31.6</ele>
        <time>2020-09-30T13:54:25Z</time>
      </trkpt>
      <trkpt lat="49.90623" lon="2.51968">
        <ele>31.6</ele>
        <time>2020-09-30T13:54:26Z</time>
      </trkpt>
      <trkpt lat="49.90623" lon="2.51966">
        <ele>31.6</ele>
        <time>2020-09-30T13:54:27Z</time>
      </trkpt>
      <trkpt lat="49.90622" lon="2.51964">
        <ele>31.6</ele>
        <time>2020-09-30T13:54:28Z</time>
      </trkpt>
      <trkpt lat="49.90622" lon="2.51962">
        <ele>31.6</ele>
        <time>2020-09-30T13:54:29Z</time>
      </trkpt>
      <trkpt lat="49.90621" lon="2.51959">
        <ele>31.6</ele>
        <time>2020-09-30T13:54:30Z</time>
      </trkpt>
      <trkpt lat="49.90621" lon="2.51955">
        <ele>31.6</ele>
        <time>2020-09-30T13:54:31Z</time>
      </trkpt>
      <trkpt lat="49.90621" lon="2.51954">
        <ele>31.6</ele>
        <time>2020-09-30T13:54:32Z</time>
      </trkpt>
      <trkpt lat="49.9062" lon="2.51953">
        <ele>31.6</ele>
        <time>2020-09-30T13:54:33Z</time>
      </trkpt>
      <trkpt lat="49.9062" lon="2.51949">
        <ele>31.6</ele>
        <time>2020-09-30T13:54:35Z</time>
      </trkpt>
      <trkpt lat="49.90619" lon="2.51948">
        <ele>31.6</ele>
        <time>2020-09-30T13:54:36Z</time>
      </trkpt>
      <trkpt lat="49.90619" lon="2.51947">
        <ele>31.6</ele>
        <time>2020-09-30T13:54:37Z</time>
      </trkpt>
      <trkpt lat="49.90619" lon="2.51945">
        <ele>31.6</ele>
        <time>2020-09-30T13:54:38Z</time>
      </trkpt>
      <trkpt lat="49.90618" lon="2.51944">
        <ele>31.6</ele>
        <time>2020-09-30T13:54:39Z</time>
      </trkpt>
      <trkpt lat="49.90618" lon="2.51942">
        <ele>31.6</ele>
        <time>2020-09-30T13:54:40Z</time>
      </trkpt>
      <trkpt lat="49.90617" lon="2.5194">
        <ele>31.6</ele>
        <time>2020-09-30T13:54:41Z</time>
      </trkpt>
      <trkpt lat="49.90617" lon="2.51939">
        <ele>31.6</ele>
        <time>2020-09-30T13:54:42Z</time>
      </trkpt>
      <trkpt lat="49.90617" lon="2.51938">
        <ele>31.6</ele>
        <time>2020-09-30T13:54:43Z</time>
      </trkpt>
      <trkpt lat="49.90616" lon="2.51936">
        <ele>31.6</ele>
        <time>2020-09-30T13:54:45Z</time>
      </trkpt>
      <trkpt lat="49.90616" lon="2.51933">
        <ele>31.6</ele>
        <time>2020-09-30T13:54:46Z</time>
      </trkpt>
      <trkpt lat="49.90616" lon="2.51931">
        <ele>31.6</ele>
        <time>2020-09-30T13:54:47Z</time>
      </trkpt>
      <trkpt lat="49.90615" lon="2.5193">
        <ele>31.6</ele>
        <time>2020-09-30T13:54:48Z</time>
      </trkpt>
      <trkpt lat="49.90615" lon="2.51926">
        <ele>31.6</ele>
        <time>2020-09-30T13:54:49Z</time>
      </trkpt>
      <trkpt lat="49.90614" lon="2.51925">
        <ele>31.6</ele>
        <time>2020-09-30T13:54:50Z</time>
      </trkpt>
      <trkpt lat="49.90614" lon="2.51923">
        <ele>31.6</ele>
        <time>2020-09-30T13:54:51Z</time>
      </trkpt>
      <trkpt lat="49.90614" lon="2.51922">
        <ele>31.6</ele>
        <time>2020-09-30T13:54:52Z</time>
      </trkpt>
      <trkpt lat="49.90614" lon="2.5192">
        <ele>31.6</ele>
        <time>2020-09-30T13:54:53Z</time>
      </trkpt>
      <trkpt lat="49.90613" lon="2.51918">
        <ele>31.6</ele>
        <time>2020-09-30T13:54:54Z</time>
      </trkpt>
      <trkpt lat="49.90613" lon="2.51915">
        <ele>31.6</ele>
        <time>2020-09-30T13:54:56Z</time>
      </trkpt>
      <trkpt lat="49.90613" lon="2.51914">
        <ele>31.6</ele>
        <time>2020-09-30T13:54:57Z</time>
      </trkpt>
      <trkpt lat="49.90612" lon="2.51912">
        <ele>31.6</ele>
        <time>2020-09-30T13:54:58Z</time>
      </trkpt>
      <trkpt lat="49.90612" lon="2.5191">
        <ele>31.6</ele>
        <time>2020-09-30T13:54:59Z</time>
      </trkpt>
      <trkpt lat="49.90612" lon="2.51906">
        <ele>31.6</ele>
        <time>2020-09-30T13:55:00Z</time>
      </trkpt>
      <trkpt lat="49.90612" lon="2.51905">
        <ele>31.6</ele>
        <time>2020-09-30T13:55:01Z</time>
      </trkpt>
      <trkpt lat="49.90612" lon="2.51903">
        <ele>31.6</ele>
        <time>2020-09-30T13:55:02Z</time>
      </trkpt>
      <trkpt lat="49.90612" lon="2.519">
        <ele>31.6</ele>
        <time>2020-09-30T13:55:04Z</time>
      </trkpt>
      <trkpt lat="49.90612" lon="2.51899">
        <ele>31.6</ele>
        <time>2020-09-30T13:55:05Z</time>
      </trkpt>
      <trkpt lat="49.90611" lon="2.51895">
        <ele>31.6</ele>
        <time>2020-09-30T13:55:06Z</time>
      </trkpt>
      <trkpt lat="49.90611" lon="2.51894">
        <ele>31.6</ele>
        <time>2020-09-30T13:55:07Z</time>
      </trkpt>
      <trkpt lat="49.90611" lon="2.51892">
        <ele>31.6</ele>
        <time>2020-09-30T13:55:08Z</time>
      </trkpt>
      <trkpt lat="49.90611" lon="2.51891">
        <ele>31.6</ele>
        <time>2020-09-30T13:55:10Z</time>
      </trkpt>
      <trkpt lat="49.9061" lon="2.51888">
        <ele>31.6</ele>
        <time>2020-09-30T13:55:11Z</time>
      </trkpt>
      <trkpt lat="49.9061" lon="2.51886">
        <ele>31.6</ele>
        <time>2020-09-30T13:55:12Z</time>
      </trkpt>
      <trkpt lat="49.9061" lon="2.51883">
        <ele>31.6</ele>
        <time>2020-09-30T13:55:13Z</time>
      </trkpt>
      <trkpt lat="49.9061" lon="2.51881">
        <ele>31.6</ele>
        <time>2020-09-30T13:55:14Z</time>
      </trkpt>
      <trkpt lat="49.90609" lon="2.51879">
        <ele>31.6</ele>
        <time>2020-09-30T13:55:15Z</time>
      </trkpt>
      <trkpt lat="49.90609" lon="2.51878">
        <ele>31.6</ele>
        <time>2020-09-30T13:55:16Z</time>
      </trkpt>
      <trkpt lat="49.90609" lon="2.51876">
        <ele>31.7</ele>
        <time>2020-09-30T13:55:17Z</time>
      </trkpt>
      <trkpt lat="49.90609" lon="2.51874">
        <ele>31.7</ele>
        <time>2020-09-30T13:55:19Z</time>
      </trkpt>
      <trkpt lat="49.90609" lon="2.51873">
        <ele>31.7</ele>
        <time>2020-09-30T13:55:20Z</time>
      </trkpt>
      <trkpt lat="49.90609" lon="2.51869">
        <ele>31.7</ele>
        <time>2020-09-30T13:55:21Z</time>
      </trkpt>
      <trkpt lat="49.90609" lon="2.51868">
        <ele>31.7</ele>
        <time>2020-09-30T13:55:22Z</time>
      </trkpt>
      <trkpt lat="49.90609" lon="2.51866">
        <ele>31.7</ele>
        <time>2020-09-30T13:55:23Z</time>
      </trkpt>
      <trkpt lat="49.90609" lon="2.51864">
        <ele>31.7</ele>
        <time>2020-09-30T13:55:25Z</time>
      </trkpt>
      <trkpt lat="49.90609" lon="2.51862">
        <ele>31.7</ele>
        <time>2020-09-30T13:55:26Z</time>
      </trkpt>
      <trkpt lat="49.90609" lon="2.5186">
        <ele>31.7</ele>
        <time>2020-09-30T13:55:27Z</time>
      </trkpt>
      <trkpt lat="49.90609" lon="2.51858">
        <ele>31.7</ele>
        <time>2020-09-30T13:55:28Z</time>
      </trkpt>
      <trkpt lat="49.90609" lon="2.51855">
        <ele>31.7</ele>
        <time>2020-09-30T13:55:29Z</time>
      </trkpt>
      <trkpt lat="49.90609" lon="2.51853">
        <ele>31.7</ele>
        <time>2020-09-30T13:55:30Z</time>
      </trkpt>
      <trkpt lat="49.90609" lon="2.5185">
        <ele>31.7</ele>
        <time>2020-09-30T13:55:31Z</time>
      </trkpt>
      <trkpt lat="49.90609" lon="2.51848">
        <ele>31.7</ele>
        <time>2020-09-30T13:55:33Z</time>
      </trkpt>
      <trkpt lat="49.90609" lon="2.51846">
        <ele>31.7</ele>
        <time>2020-09-30T13:55:34Z</time>
      </trkpt>
      <trkpt lat="49.90609" lon="2.51843">
        <ele>31.8</ele>
        <time>2020-09-30T13:55:35Z</time>
      </trkpt>
      <trkpt lat="49.90609" lon="2.51842">
        <ele>31.8</ele>
        <time>2020-09-30T13:55:36Z</time>
      </trkpt>
      <trkpt lat="49.90609" lon="2.5184">
        <ele>31.8</ele>
        <time>2020-09-30T13:55:37Z</time>
      </trkpt>
      <trkpt lat="49.90609" lon="2.51838">
        <ele>31.8</ele>
        <time>2020-09-30T13:55:38Z</time>
      </trkpt>
      <trkpt lat="49.90609" lon="2.51836">
        <ele>31.8</ele>
        <time>2020-09-30T13:55:39Z</time>
      </trkpt>
      <trkpt lat="49.90609" lon="2.51833">
        <ele>31.8</ele>
        <time>2020-09-30T13:55:40Z</time>
      </trkpt>
      <trkpt lat="49.90609" lon="2.51831">
        <ele>31.8</ele>
        <time>2020-09-30T13:55:41Z</time>
      </trkpt>
      <trkpt lat="49.90609" lon="2.51829">
        <ele>31.8</ele>
        <time>2020-09-30T13:55:42Z</time>
      </trkpt>
      <trkpt lat="49.90609" lon="2.51827">
        <ele>31.8</ele>
        <time>2020-09-30T13:55:43Z</time>
      </trkpt>
      <trkpt lat="49.90609" lon="2.51825">
        <ele>31.9</ele>
        <time>2020-09-30T13:55:44Z</time>
      </trkpt>
      <trkpt lat="49.90609" lon="2.51822">
        <ele>31.9</ele>
        <time>2020-09-30T13:55:45Z</time>
      </trkpt>
      <trkpt lat="49.90608" lon="2.51819">
        <ele>31.9</ele>
        <time>2020-09-30T13:55:46Z</time>
      </trkpt>
      <trkpt lat="49.90608" lon="2.51818">
        <ele>31.9</ele>
        <time>2020-09-30T13:55:48Z</time>
      </trkpt>
      <trkpt lat="49.90608" lon="2.51816">
        <ele>31.9</ele>
        <time>2020-09-30T13:55:49Z</time>
      </trkpt>
      <trkpt lat="49.90608" lon="2.51813">
        <ele>31.9</ele>
        <time>2020-09-30T13:55:50Z</time>
      </trkpt>
      <trkpt lat="49.90607" lon="2.51812">
        <ele>31.9</ele>
        <time>2020-09-30T13:55:51Z</time>
      </trkpt>
      <trkpt lat="49.90607" lon="2.51811">
        <ele>31.9</ele>
        <time>2020-09-30T13:55:52Z</time>
      </trkpt>
      <trkpt lat="49.90607" lon="2.51807">
        <ele>31.9</ele>
        <time>2020-09-30T13:55:54Z</time>
      </trkpt>
      <trkpt lat="49.90606" lon="2.51806">
        <ele>31.9</ele>
        <time>2020-09-30T13:55:55Z</time>
      </trkpt>
      <trkpt lat="49.90606" lon="2.51804">
        <ele>32</ele>
        <time>2020-09-30T13:55:56Z</time>
      </trkpt>
      <trkpt lat="49.90606" lon="2.51802">
        <ele>32</ele>
        <time>2020-09-30T13:55:57Z</time>
      </trkpt>
      <trkpt lat="49.90606" lon="2.518">
        <ele>32</ele>
        <time>2020-09-30T13:55:58Z</time>
      </trkpt>
      <trkpt lat="49.90605" lon="2.51798">
        <ele>32</ele>
        <time>2020-09-30T13:55:59Z</time>
      </trkpt>
      <trkpt lat="49.90605" lon="2.51796">
        <ele>32</ele>
        <time>2020-09-30T13:56:00Z</time>
      </trkpt>
      <trkpt lat="49.90605" lon="2.51793">
        <ele>32</ele>
        <time>2020-09-30T13:56:02Z</time>
      </trkpt>
      <trkpt lat="49.90604" lon="2.51791">
        <ele>32</ele>
        <time>2020-09-30T13:56:03Z</time>
      </trkpt>
      <trkpt lat="49.90604" lon="2.51788">
        <ele>32</ele>
        <time>2020-09-30T13:56:04Z</time>
      </trkpt>
      <trkpt lat="49.90603" lon="2.51787">
        <ele>32</ele>
        <time>2020-09-30T13:56:05Z</time>
      </trkpt>
      <trkpt lat="49.90603" lon="2.51785">
        <ele>32</ele>
        <time>2020-09-30T13:56:07Z</time>
      </trkpt>
      <trkpt lat="49.90603" lon="2.51783">
        <ele>32</ele>
        <time>2020-09-30T13:56:08Z</time>
      </trkpt>
      <trkpt lat="49.90602" lon="2.51781">
        <ele>32</ele>
        <time>2020-09-30T13:56:09Z</time>
      </trkpt>
      <trkpt lat="49.90602" lon="2.51779">
        <ele>32</ele>
        <time>2020-09-30T13:56:10Z</time>
      </trkpt>
      <trkpt lat="49.90601" lon="2.51777">
        <ele>32</ele>
        <time>2020-09-30T13:56:11Z</time>
      </trkpt>
      <trkpt lat="49.90601" lon="2.51773">
        <ele>31.9</ele>
        <time>2020-09-30T13:56:12Z</time>
      </trkpt>
      <trkpt lat="49.90601" lon="2.51771">
        <ele>31.9</ele>
        <time>2020-09-30T13:56:14Z</time>
      </trkpt>
      <trkpt lat="49.90601" lon="2.51769">
        <ele>31.9</ele>
        <time>2020-09-30T13:56:15Z</time>
      </trkpt>
      <trkpt lat="49.906" lon="2.51768">
        <ele>31.9</ele>
        <time>2020-09-30T13:56:16Z</time>
      </trkpt>
      <trkpt lat="49.906" lon="2.51766">
        <ele>31.9</ele>
        <time>2020-09-30T13:56:17Z</time>
      </trkpt>
      <trkpt lat="49.906" lon="2.51764">
        <ele>32</ele>
        <time>2020-09-30T13:56:18Z</time>
      </trkpt>
      <trkpt lat="49.906" lon="2.51762">
        <ele>32</ele>
        <time>2020-09-30T13:56:19Z</time>
      </trkpt>
      <trkpt lat="49.90599" lon="2.51759">
        <ele>32</ele>
        <time>2020-09-30T13:56:20Z</time>
      </trkpt>
      <trkpt lat="49.90599" lon="2.51756">
        <ele>32</ele>
        <time>2020-09-30T13:56:21Z</time>
      </trkpt>
      <trkpt lat="49.90598" lon="2.51755">
        <ele>32</ele>
        <time>2020-09-30T13:56:22Z</time>
      </trkpt>
      <trkpt lat="49.90598" lon="2.51753">
        <ele>32</ele>
        <time>2020-09-30T13:56:23Z</time>
      </trkpt>
      <trkpt lat="49.90598" lon="2.51751">
        <ele>32</ele>
        <time>2020-09-30T13:56:24Z</time>
      </trkpt>
      <trkpt lat="49.90598" lon="2.51748">
        <ele>32</ele>
        <time>2020-09-30T13:56:26Z</time>
      </trkpt>
      <trkpt lat="49.90597" lon="2.51746">
        <ele>32</ele>
        <time>2020-09-30T13:56:27Z</time>
      </trkpt>
      <trkpt lat="49.90597" lon="2.51743">
        <ele>32</ele>
        <time>2020-09-30T13:56:28Z</time>
      </trkpt>
      <trkpt lat="49.90597" lon="2.51741">
        <ele>32</ele>
        <time>2020-09-30T13:56:29Z</time>
      </trkpt>
      <trkpt lat="49.90597" lon="2.51739">
        <ele>32</ele>
        <time>2020-09-30T13:56:30Z</time>
      </trkpt>
      <trkpt lat="49.90598" lon="2.51736">
        <ele>32</ele>
        <time>2020-09-30T13:56:31Z</time>
      </trkpt>
      <trkpt lat="49.90597" lon="2.51733">
        <ele>32</ele>
        <time>2020-09-30T13:56:32Z</time>
      </trkpt>
      <trkpt lat="49.90597" lon="2.51732">
        <ele>32</ele>
        <time>2020-09-30T13:56:33Z</time>
      </trkpt>
      <trkpt lat="49.90597" lon="2.5173">
        <ele>32</ele>
        <time>2020-09-30T13:56:34Z</time>
      </trkpt>
      <trkpt lat="49.90597" lon="2.51729">
        <ele>32</ele>
        <time>2020-09-30T13:56:36Z</time>
      </trkpt>
      <trkpt lat="49.90597" lon="2.51727">
        <ele>32</ele>
        <time>2020-09-30T13:56:37Z</time>
      </trkpt>
      <trkpt lat="49.90597" lon="2.51725">
        <ele>32.1</ele>
        <time>2020-09-30T13:56:38Z</time>
      </trkpt>
      <trkpt lat="49.90597" lon="2.51723">
        <ele>32.1</ele>
        <time>2020-09-30T13:56:39Z</time>
      </trkpt>
      <trkpt lat="49.90597" lon="2.5172">
        <ele>32.1</ele>
        <time>2020-09-30T13:56:40Z</time>
      </trkpt>
      <trkpt lat="49.90597" lon="2.51718">
        <ele>32.1</ele>
        <time>2020-09-30T13:56:41Z</time>
      </trkpt>
      <trkpt lat="49.90597" lon="2.51716">
        <ele>32.1</ele>
        <time>2020-09-30T13:56:42Z</time>
      </trkpt>
      <trkpt lat="49.90597" lon="2.51714">
        <ele>32.1</ele>
        <time>2020-09-30T13:56:43Z</time>
      </trkpt>
      <trkpt lat="49.90597" lon="2.51711">
        <ele>32.1</ele>
        <time>2020-09-30T13:56:44Z</time>
      </trkpt>
      <trkpt lat="49.90597" lon="2.51709">
        <ele>32.1</ele>
        <time>2020-09-30T13:56:45Z</time>
      </trkpt>
      <trkpt lat="49.90597" lon="2.51707">
        <ele>32.1</ele>
        <time>2020-09-30T13:56:46Z</time>
      </trkpt>
      <trkpt lat="49.90597" lon="2.51704">
        <ele>32.1</ele>
        <time>2020-09-30T13:56:48Z</time>
      </trkpt>
      <trkpt lat="49.90598" lon="2.51702">
        <ele>32.1</ele>
        <time>2020-09-30T13:56:49Z</time>
      </trkpt>
      <trkpt lat="49.90598" lon="2.51701">
        <ele>32.2</ele>
        <time>2020-09-30T13:56:50Z</time>
      </trkpt>
      <trkpt lat="49.90597" lon="2.51699">
        <ele>32.2</ele>
        <time>2020-09-30T13:56:51Z</time>
      </trkpt>
      <trkpt lat="49.90597" lon="2.51697">
        <ele>32.2</ele>
        <time>2020-09-30T13:56:52Z</time>
      </trkpt>
      <trkpt lat="49.90597" lon="2.51695">
        <ele>32.2</ele>
        <time>2020-09-30T13:56:53Z</time>
      </trkpt>
      <trkpt lat="49.90597" lon="2.51693">
        <ele>32.2</ele>
        <time>2020-09-30T13:56:54Z</time>
      </trkpt>
      <trkpt lat="49.90597" lon="2.51691">
        <ele>32.2</ele>
        <time>2020-09-30T13:56:55Z</time>
      </trkpt>
      <trkpt lat="49.90597" lon="2.51689">
        <ele>32.2</ele>
        <time>2020-09-30T13:56:56Z</time>
      </trkpt>
      <trkpt lat="49.90597" lon="2.51687">
        <ele>32.2</ele>
        <time>2020-09-30T13:56:57Z</time>
      </trkpt>
      <trkpt lat="49.90597" lon="2.51685">
        <ele>32.2</ele>
        <time>2020-09-30T13:56:58Z</time>
      </trkpt>
      <trkpt lat="49.90597" lon="2.51684">
        <ele>32.2</ele>
        <time>2020-09-30T13:57:00Z</time>
      </trkpt>
      <trkpt lat="49.90597" lon="2.51682">
        <ele>32.2</ele>
        <time>2020-09-30T13:57:01Z</time>
      </trkpt>
      <trkpt lat="49.90597" lon="2.5168">
        <ele>32.2</ele>
        <time>2020-09-30T13:57:02Z</time>
      </trkpt>
      <trkpt lat="49.90596" lon="2.51679">
        <ele>32.2</ele>
        <time>2020-09-30T13:57:03Z</time>
      </trkpt>
      <trkpt lat="49.90596" lon="2.51677">
        <ele>32.2</ele>
        <time>2020-09-30T13:57:04Z</time>
      </trkpt>
      <trkpt lat="49.90595" lon="2.51676">
        <ele>32.2</ele>
        <time>2020-09-30T13:57:05Z</time>
      </trkpt>
      <trkpt lat="49.90594" lon="2.51675">
        <ele>32.2</ele>
        <time>2020-09-30T13:57:07Z</time>
      </trkpt>
      <trkpt lat="49.90594" lon="2.51673">
        <ele>32.2</ele>
        <time>2020-09-30T13:57:08Z</time>
      </trkpt>
      <trkpt lat="49.90593" lon="2.5167">
        <ele>32.2</ele>
        <time>2020-09-30T13:57:09Z</time>
      </trkpt>
      <trkpt lat="49.90593" lon="2.51669">
        <ele>32.2</ele>
        <time>2020-09-30T13:57:10Z</time>
      </trkpt>
      <trkpt lat="49.90592" lon="2.51667">
        <ele>32.2</ele>
        <time>2020-09-30T13:57:11Z</time>
      </trkpt>
      <trkpt lat="49.90592" lon="2.51666">
        <ele>32.2</ele>
        <time>2020-09-30T13:57:12Z</time>
      </trkpt>
      <trkpt lat="49.90592" lon="2.51664">
        <ele>32.2</ele>
        <time>2020-09-30T13:57:13Z</time>
      </trkpt>
      <trkpt lat="49.90591" lon="2.51662">
        <ele>32.2</ele>
        <time>2020-09-30T13:57:14Z</time>
      </trkpt>
      <trkpt lat="49.90591" lon="2.5166">
        <ele>32.2</ele>
        <time>2020-09-30T13:57:15Z</time>
      </trkpt>
      <trkpt lat="49.90591" lon="2.51659">
        <ele>32.2</ele>
        <time>2020-09-30T13:57:17Z</time>
      </trkpt>
      <trkpt lat="49.90591" lon="2.51657">
        <ele>32.2</ele>
        <time>2020-09-30T13:57:18Z</time>
      </trkpt>
      <trkpt lat="49.90591" lon="2.51654">
        <ele>32.2</ele>
        <time>2020-09-30T13:57:19Z</time>
      </trkpt>
      <trkpt lat="49.9059" lon="2.51652">
        <ele>32.2</ele>
        <time>2020-09-30T13:57:20Z</time>
      </trkpt>
      <trkpt lat="49.9059" lon="2.51651">
        <ele>32.3</ele>
        <time>2020-09-30T13:57:21Z</time>
      </trkpt>
      <trkpt lat="49.9059" lon="2.51648">
        <ele>32.3</ele>
        <time>2020-09-30T13:57:22Z</time>
      </trkpt>
      <trkpt lat="49.9059" lon="2.51647">
        <ele>32.3</ele>
        <time>2020-09-30T13:57:23Z</time>
      </trkpt>
      <trkpt lat="49.9059" lon="2.51645">
        <ele>32.3</ele>
        <time>2020-09-30T13:57:24Z</time>
      </trkpt>
      <trkpt lat="49.90589" lon="2.51643">
        <ele>32.3</ele>
        <time>2020-09-30T13:57:25Z</time>
      </trkpt>
      <trkpt lat="49.90589" lon="2.51641">
        <ele>32.3</ele>
        <time>2020-09-30T13:57:26Z</time>
      </trkpt>
      <trkpt lat="49.90589" lon="2.51638">
        <ele>32.3</ele>
        <time>2020-09-30T13:57:27Z</time>
      </trkpt>
      <trkpt lat="49.90588" lon="2.51636">
        <ele>32.3</ele>
        <time>2020-09-30T13:57:28Z</time>
      </trkpt>
      <trkpt lat="49.90588" lon="2.51635">
        <ele>32.3</ele>
        <time>2020-09-30T13:57:30Z</time>
      </trkpt>
      <trkpt lat="49.90588" lon="2.51633">
        <ele>32.3</ele>
        <time>2020-09-30T13:57:31Z</time>
      </trkpt>
      <trkpt lat="49.90588" lon="2.51632">
        <ele>32.3</ele>
        <time>2020-09-30T13:57:32Z</time>
      </trkpt>
      <trkpt lat="49.90588" lon="2.5163">
        <ele>32.3</ele>
        <time>2020-09-30T13:57:33Z</time>
      </trkpt>
      <trkpt lat="49.90587" lon="2.51628">
        <ele>32.3</ele>
        <time>2020-09-30T13:57:34Z</time>
      </trkpt>
      <trkpt lat="49.90587" lon="2.51626">
        <ele>32.3</ele>
        <time>2020-09-30T13:57:35Z</time>
      </trkpt>
      <trkpt lat="49.90587" lon="2.51624">
        <ele>32.3</ele>
        <time>2020-09-30T13:57:36Z</time>
      </trkpt>
      <trkpt lat="49.90586" lon="2.51622">
        <ele>32.3</ele>
        <time>2020-09-30T13:57:37Z</time>
      </trkpt>
      <trkpt lat="49.90586" lon="2.51619">
        <ele>32.3</ele>
        <time>2020-09-30T13:57:38Z</time>
      </trkpt>
      <trkpt lat="49.90586" lon="2.51617">
        <ele>32.3</ele>
        <time>2020-09-30T13:57:39Z</time>
      </trkpt>
      <trkpt lat="49.90586" lon="2.51615">
        <ele>32.3</ele>
        <time>2020-09-30T13:57:40Z</time>
      </trkpt>
      <trkpt lat="49.90585" lon="2.51613">
        <ele>32.3</ele>
        <time>2020-09-30T13:57:42Z</time>
      </trkpt>
      <trkpt lat="49.90585" lon="2.51611">
        <ele>32.3</ele>
        <time>2020-09-30T13:57:43Z</time>
      </trkpt>
      <trkpt lat="49.90585" lon="2.5161">
        <ele>32.3</ele>
        <time>2020-09-30T13:57:44Z</time>
      </trkpt>
      <trkpt lat="49.90584" lon="2.51608">
        <ele>32.3</ele>
        <time>2020-09-30T13:57:45Z</time>
      </trkpt>
      <trkpt lat="49.90583" lon="2.51605">
        <ele>32.3</ele>
        <time>2020-09-30T13:57:46Z</time>
      </trkpt>
      <trkpt lat="49.90583" lon="2.51603">
        <ele>32.3</ele>
        <time>2020-09-30T13:57:47Z</time>
      </trkpt>
      <trkpt lat="49.90583" lon="2.51602">
        <ele>32.3</ele>
        <time>2020-09-30T13:57:48Z</time>
      </trkpt>
      <trkpt lat="49.90582" lon="2.516">
        <ele>32.3</ele>
        <time>2020-09-30T13:57:49Z</time>
      </trkpt>
      <trkpt lat="49.90582" lon="2.51598">
        <ele>32.3</ele>
        <time>2020-09-30T13:57:50Z</time>
      </trkpt>
      <trkpt lat="49.90582" lon="2.51597">
        <ele>32.3</ele>
        <time>2020-09-30T13:57:51Z</time>
      </trkpt>
      <trkpt lat="49.90582" lon="2.51595">
        <ele>32.3</ele>
        <time>2020-09-30T13:57:52Z</time>
      </trkpt>
      <trkpt lat="49.90582" lon="2.51594">
        <ele>32.3</ele>
        <time>2020-09-30T13:57:54Z</time>
      </trkpt>
      <trkpt lat="49.90582" lon="2.51592">
        <ele>32.3</ele>
        <time>2020-09-30T13:57:55Z</time>
      </trkpt>
      <trkpt lat="49.90582" lon="2.5159">
        <ele>32.3</ele>
        <time>2020-09-30T13:57:56Z</time>
      </trkpt>
      <trkpt lat="49.90581" lon="2.51588">
        <ele>32.3</ele>
        <time>2020-09-30T13:57:57Z</time>
      </trkpt>
      <trkpt lat="49.90582" lon="2.51586">
        <ele>32.3</ele>
        <time>2020-09-30T13:57:59Z</time>
      </trkpt>
      <trkpt lat="49.90582" lon="2.51585">
        <ele>32.3</ele>
        <time>2020-09-30T13:58:00Z</time>
      </trkpt>
      <trkpt lat="49.90582" lon="2.51583">
        <ele>32.3</ele>
        <time>2020-09-30T13:58:01Z</time>
      </trkpt>
      <trkpt lat="49.90582" lon="2.51581">
        <ele>32.3</ele>
        <time>2020-09-30T13:58:02Z</time>
      </trkpt>
      <trkpt lat="49.90581" lon="2.51578">
        <ele>32.2</ele>
        <time>2020-09-30T13:58:03Z</time>
      </trkpt>
      <trkpt lat="49.90581" lon="2.51576">
        <ele>32.2</ele>
        <time>2020-09-30T13:58:04Z</time>
      </trkpt>
      <trkpt lat="49.90581" lon="2.51575">
        <ele>32.2</ele>
        <time>2020-09-30T13:58:05Z</time>
      </trkpt>
      <trkpt lat="49.90581" lon="2.5157">
        <ele>32.2</ele>
        <time>2020-09-30T13:58:07Z</time>
      </trkpt>
      <trkpt lat="49.9058" lon="2.51569">
        <ele>32.2</ele>
        <time>2020-09-30T13:58:08Z</time>
      </trkpt>
      <trkpt lat="49.9058" lon="2.51566">
        <ele>32.2</ele>
        <time>2020-09-30T13:58:10Z</time>
      </trkpt>
      <trkpt lat="49.9058" lon="2.51564">
        <ele>32.2</ele>
        <time>2020-09-30T13:58:11Z</time>
      </trkpt>
      <trkpt lat="49.9058" lon="2.51563">
        <ele>32.2</ele>
        <time>2020-09-30T13:58:12Z</time>
      </trkpt>
      <trkpt lat="49.9058" lon="2.5156">
        <ele>32.2</ele>
        <time>2020-09-30T13:58:13Z</time>
      </trkpt>
      <trkpt lat="49.9058" lon="2.51558">
        <ele>32.2</ele>
        <time>2020-09-30T13:58:14Z</time>
      </trkpt>
      <trkpt lat="49.9058" lon="2.51555">
        <ele>32.2</ele>
        <time>2020-09-30T13:58:15Z</time>
      </trkpt>
      <trkpt lat="49.9058" lon="2.51553">
        <ele>32.2</ele>
        <time>2020-09-30T13:58:16Z</time>
      </trkpt>
      <trkpt lat="49.9058" lon="2.5155">
        <ele>32.2</ele>
        <time>2020-09-30T13:58:17Z</time>
      </trkpt>
      <trkpt lat="49.9058" lon="2.51548">
        <ele>32.2</ele>
        <time>2020-09-30T13:58:19Z</time>
      </trkpt>
      <trkpt lat="49.9058" lon="2.51546">
        <ele>32.2</ele>
        <time>2020-09-30T13:58:20Z</time>
      </trkpt>
      <trkpt lat="49.9058" lon="2.51544">
        <ele>32.2</ele>
        <time>2020-09-30T13:58:21Z</time>
      </trkpt>
      <trkpt lat="49.9058" lon="2.51541">
        <ele>32.2</ele>
        <time>2020-09-30T13:58:22Z</time>
      </trkpt>
      <trkpt lat="49.90581" lon="2.51539">
        <ele>32.2</ele>
        <time>2020-09-30T13:58:24Z</time>
      </trkpt>
      <trkpt lat="49.90582" lon="2.51537">
        <ele>32.3</ele>
        <time>2020-09-30T13:58:25Z</time>
      </trkpt>
      <trkpt lat="49.90582" lon="2.51534">
        <ele>32.3</ele>
        <time>2020-09-30T13:58:26Z</time>
      </trkpt>
      <trkpt lat="49.90582" lon="2.51531">
        <ele>32.3</ele>
        <time>2020-09-30T13:58:27Z</time>
      </trkpt>
      <trkpt lat="49.90582" lon="2.51529">
        <ele>32.3</ele>
        <time>2020-09-30T13:58:29Z</time>
      </trkpt>
      <trkpt lat="49.90582" lon="2.51528">
        <ele>32.3</ele>
        <time>2020-09-30T13:58:30Z</time>
      </trkpt>
      <trkpt lat="49.90582" lon="2.51523">
        <ele>32.3</ele>
        <time>2020-09-30T13:58:31Z</time>
      </trkpt>
      <trkpt lat="49.90582" lon="2.51521">
        <ele>32.3</ele>
        <time>2020-09-30T13:58:32Z</time>
      </trkpt>
      <trkpt lat="49.90582" lon="2.5152">
        <ele>32.3</ele>
        <time>2020-09-30T13:58:33Z</time>
      </trkpt>
      <trkpt lat="49.90581" lon="2.51518">
        <ele>32.3</ele>
        <time>2020-09-30T13:58:35Z</time>
      </trkpt>
      <trkpt lat="49.90581" lon="2.51516">
        <ele>32.3</ele>
        <time>2020-09-30T13:58:36Z</time>
      </trkpt>
      <trkpt lat="49.90581" lon="2.51513">
        <ele>32.3</ele>
        <time>2020-09-30T13:58:37Z</time>
      </trkpt>
      <trkpt lat="49.90581" lon="2.51509">
        <ele>32.3</ele>
        <time>2020-09-30T13:58:38Z</time>
      </trkpt>
      <trkpt lat="49.90581" lon="2.51508">
        <ele>32.3</ele>
        <time>2020-09-30T13:58:39Z</time>
      </trkpt>
      <trkpt lat="49.90581" lon="2.51507">
        <ele>32.3</ele>
        <time>2020-09-30T13:58:40Z</time>
      </trkpt>
      <trkpt lat="49.90581" lon="2.51503">
        <ele>32.3</ele>
        <time>2020-09-30T13:58:42Z</time>
      </trkpt>
      <trkpt lat="49.90581" lon="2.51501">
        <ele>32.3</ele>
        <time>2020-09-30T13:58:43Z</time>
      </trkpt>
      <trkpt lat="49.90581" lon="2.51499">
        <ele>32.3</ele>
        <time>2020-09-30T13:58:44Z</time>
      </trkpt>
      <trkpt lat="49.90581" lon="2.51498">
        <ele>32.3</ele>
        <time>2020-09-30T13:58:45Z</time>
      </trkpt>
      <trkpt lat="49.9058" lon="2.51496">
        <ele>32.3</ele>
        <time>2020-09-30T13:58:46Z</time>
      </trkpt>
      <trkpt lat="49.9058" lon="2.51494">
        <ele>32.3</ele>
        <time>2020-09-30T13:58:48Z</time>
      </trkpt>
      <trkpt lat="49.90579" lon="2.51493">
        <ele>32.3</ele>
        <time>2020-09-30T13:58:49Z</time>
      </trkpt>
      <trkpt lat="49.90579" lon="2.51491">
        <ele>32.2</ele>
        <time>2020-09-30T13:58:50Z</time>
      </trkpt>
      <trkpt lat="49.90579" lon="2.51488">
        <ele>32.2</ele>
        <time>2020-09-30T13:58:51Z</time>
      </trkpt>
      <trkpt lat="49.90579" lon="2.51487">
        <ele>32.2</ele>
        <time>2020-09-30T13:58:52Z</time>
      </trkpt>
      <trkpt lat="49.90579" lon="2.51486">
        <ele>32.2</ele>
        <time>2020-09-30T13:58:53Z</time>
      </trkpt>
      <trkpt lat="49.90579" lon="2.51484">
        <ele>32.2</ele>
        <time>2020-09-30T13:58:54Z</time>
      </trkpt>
      <trkpt lat="49.90579" lon="2.51482">
        <ele>32.2</ele>
        <time>2020-09-30T13:58:55Z</time>
      </trkpt>
      <trkpt lat="49.90578" lon="2.51481">
        <ele>32.2</ele>
        <time>2020-09-30T13:58:56Z</time>
      </trkpt>
      <trkpt lat="49.90578" lon="2.51479">
        <ele>32.1</ele>
        <time>2020-09-30T13:58:58Z</time>
      </trkpt>
      <trkpt lat="49.90578" lon="2.51476">
        <ele>32.1</ele>
        <time>2020-09-30T13:58:59Z</time>
      </trkpt>
      <trkpt lat="49.90577" lon="2.51474">
        <ele>32.1</ele>
        <time>2020-09-30T13:59:01Z</time>
      </trkpt>
      <trkpt lat="49.90577" lon="2.51472">
        <ele>32.1</ele>
        <time>2020-09-30T13:59:02Z</time>
      </trkpt>
      <trkpt lat="49.90577" lon="2.5147">
        <ele>32.1</ele>
        <time>2020-09-30T13:59:03Z</time>
      </trkpt>
      <trkpt lat="49.90576" lon="2.51468">
        <ele>32.1</ele>
        <time>2020-09-30T13:59:04Z</time>
      </trkpt>
      <trkpt lat="49.90576" lon="2.51466">
        <ele>32.1</ele>
        <time>2020-09-30T13:59:05Z</time>
      </trkpt>
      <trkpt lat="49.90576" lon="2.51464">
        <ele>32.1</ele>
        <time>2020-09-30T13:59:06Z</time>
      </trkpt>
      <trkpt lat="49.90576" lon="2.51462">
        <ele>32.1</ele>
        <time>2020-09-30T13:59:08Z</time>
      </trkpt>
      <trkpt lat="49.90576" lon="2.5146">
        <ele>32</ele>
        <time>2020-09-30T13:59:09Z</time>
      </trkpt>
      <trkpt lat="49.90575" lon="2.51459">
        <ele>32</ele>
        <time>2020-09-30T13:59:10Z</time>
      </trkpt>
      <trkpt lat="49.90575" lon="2.51457">
        <ele>32</ele>
        <time>2020-09-30T13:59:11Z</time>
      </trkpt>
      <trkpt lat="49.90575" lon="2.51454">
        <ele>32</ele>
        <time>2020-09-30T13:59:12Z</time>
      </trkpt>
      <trkpt lat="49.90574" lon="2.51453">
        <ele>32</ele>
        <time>2020-09-30T13:59:14Z</time>
      </trkpt>
      <trkpt lat="49.90574" lon="2.51452">
        <ele>32</ele>
        <time>2020-09-30T13:59:15Z</time>
      </trkpt>
      <trkpt lat="49.90574" lon="2.51449">
        <ele>32</ele>
        <time>2020-09-30T13:59:16Z</time>
      </trkpt>
      <trkpt lat="49.90573" lon="2.51448">
        <ele>32</ele>
        <time>2020-09-30T13:59:17Z</time>
      </trkpt>
      <trkpt lat="49.90573" lon="2.51446">
        <ele>32</ele>
        <time>2020-09-30T13:59:18Z</time>
      </trkpt>
      <trkpt lat="49.90573" lon="2.51444">
        <ele>32</ele>
        <time>2020-09-30T13:59:19Z</time>
      </trkpt>
      <trkpt lat="49.90573" lon="2.51442">
        <ele>32</ele>
        <time>2020-09-30T13:59:21Z</time>
      </trkpt>
      <trkpt lat="49.90573" lon="2.51439">
        <ele>32</ele>
        <time>2020-09-30T13:59:22Z</time>
      </trkpt>
      <trkpt lat="49.90573" lon="2.51437">
        <ele>32</ele>
        <time>2020-09-30T13:59:23Z</time>
      </trkpt>
      <trkpt lat="49.90573" lon="2.51434">
        <ele>32</ele>
        <time>2020-09-30T13:59:25Z</time>
      </trkpt>
      <trkpt lat="49.90572" lon="2.51431">
        <ele>32</ele>
        <time>2020-09-30T13:59:27Z</time>
      </trkpt>
      <trkpt lat="49.90572" lon="2.51428">
        <ele>32</ele>
        <time>2020-09-30T13:59:29Z</time>
      </trkpt>
      <trkpt lat="49.90571" lon="2.51426">
        <ele>32</ele>
        <time>2020-09-30T13:59:30Z</time>
      </trkpt>
      <trkpt lat="49.90571" lon="2.51424">
        <ele>32.1</ele>
        <time>2020-09-30T13:59:31Z</time>
      </trkpt>
      <trkpt lat="49.90571" lon="2.51421">
        <ele>32.1</ele>
        <time>2020-09-30T13:59:32Z</time>
      </trkpt>
      <trkpt lat="49.9057" lon="2.51417">
        <ele>32.1</ele>
        <time>2020-09-30T13:59:34Z</time>
      </trkpt>
      <trkpt lat="49.9057" lon="2.51415">
        <ele>32.1</ele>
        <time>2020-09-30T13:59:35Z</time>
      </trkpt>
      <trkpt lat="49.90569" lon="2.5141">
        <ele>32.1</ele>
        <time>2020-09-30T13:59:36Z</time>
      </trkpt>
      <trkpt lat="49.90568" lon="2.51408">
        <ele>32.1</ele>
        <time>2020-09-30T13:59:37Z</time>
      </trkpt>
      <trkpt lat="49.90568" lon="2.51406">
        <ele>32.1</ele>
        <time>2020-09-30T13:59:38Z</time>
      </trkpt>
      <trkpt lat="49.90568" lon="2.51403">
        <ele>32.1</ele>
        <time>2020-09-30T13:59:39Z</time>
      </trkpt>
      <trkpt lat="49.90568" lon="2.51402">
        <ele>32.1</ele>
        <time>2020-09-30T13:59:41Z</time>
      </trkpt>
      <trkpt lat="49.90567" lon="2.514">
        <ele>32.1</ele>
        <time>2020-09-30T13:59:42Z</time>
      </trkpt>
      <trkpt lat="49.90567" lon="2.51398">
        <ele>32.1</ele>
        <time>2020-09-30T13:59:43Z</time>
      </trkpt>
      <trkpt lat="49.90566" lon="2.51395">
        <ele>32.1</ele>
        <time>2020-09-30T13:59:44Z</time>
      </trkpt>
      <trkpt lat="49.90566" lon="2.51394">
        <ele>32.1</ele>
        <time>2020-09-30T13:59:45Z</time>
      </trkpt>
      <trkpt lat="49.90565" lon="2.51393">
        <ele>32.1</ele>
        <time>2020-09-30T13:59:46Z</time>
      </trkpt>
      <trkpt lat="49.90564" lon="2.51391">
        <ele>32.1</ele>
        <time>2020-09-30T13:59:48Z</time>
      </trkpt>
      <trkpt lat="49.90563" lon="2.5139">
        <ele>32.1</ele>
        <time>2020-09-30T13:59:49Z</time>
      </trkpt>
      <trkpt lat="49.90562" lon="2.51388">
        <ele>32.1</ele>
        <time>2020-09-30T13:59:50Z</time>
      </trkpt>
      <trkpt lat="49.90561" lon="2.51386">
        <ele>32.1</ele>
        <time>2020-09-30T13:59:51Z</time>
      </trkpt>
      <trkpt lat="49.9056" lon="2.51384">
        <ele>32.1</ele>
        <time>2020-09-30T13:59:52Z</time>
      </trkpt>
      <trkpt lat="49.9056" lon="2.51382">
        <ele>32.2</ele>
        <time>2020-09-30T13:59:53Z</time>
      </trkpt>
      <trkpt lat="49.9056" lon="2.5138">
        <ele>32.2</ele>
        <time>2020-09-30T13:59:54Z</time>
      </trkpt>
      <trkpt lat="49.9056" lon="2.51378">
        <ele>32.2</ele>
        <time>2020-09-30T13:59:55Z</time>
      </trkpt>
      <trkpt lat="49.90559" lon="2.51375">
        <ele>32.2</ele>
        <time>2020-09-30T13:59:57Z</time>
      </trkpt>
      <trkpt lat="49.90559" lon="2.51373">
        <ele>32.2</ele>
        <time>2020-09-30T13:59:58Z</time>
      </trkpt>
      <trkpt lat="49.90559" lon="2.5137">
        <ele>32.2</ele>
        <time>2020-09-30T14:00:00Z</time>
      </trkpt>
      <trkpt lat="49.90558" lon="2.51367">
        <ele>32.2</ele>
        <time>2020-09-30T14:00:01Z</time>
      </trkpt>
      <trkpt lat="49.90558" lon="2.51365">
        <ele>32.2</ele>
        <time>2020-09-30T14:00:02Z</time>
      </trkpt>
      <trkpt lat="49.90558" lon="2.51362">
        <ele>32.2</ele>
        <time>2020-09-30T14:00:03Z</time>
      </trkpt>
      <trkpt lat="49.90558" lon="2.5136">
        <ele>32.2</ele>
        <time>2020-09-30T14:00:04Z</time>
      </trkpt>
      <trkpt lat="49.90558" lon="2.51359">
        <ele>32.2</ele>
        <time>2020-09-30T14:00:05Z</time>
      </trkpt>
      <trkpt lat="49.90558" lon="2.51357">
        <ele>32.2</ele>
        <time>2020-09-30T14:00:06Z</time>
      </trkpt>
      <trkpt lat="49.90558" lon="2.51355">
        <ele>32.2</ele>
        <time>2020-09-30T14:00:07Z</time>
      </trkpt>
      <trkpt lat="49.90558" lon="2.51354">
        <ele>32.2</ele>
        <time>2020-09-30T14:00:08Z</time>
      </trkpt>
      <trkpt lat="49.90558" lon="2.51351">
        <ele>32.2</ele>
        <time>2020-09-30T14:00:09Z</time>
      </trkpt>
      <trkpt lat="49.90559" lon="2.51349">
        <ele>32.2</ele>
        <time>2020-09-30T14:00:10Z</time>
      </trkpt>
      <trkpt lat="49.90559" lon="2.51348">
        <ele>32.2</ele>
        <time>2020-09-30T14:00:11Z</time>
      </trkpt>
      <trkpt lat="49.90558" lon="2.51346">
        <ele>32.2</ele>
        <time>2020-09-30T14:00:13Z</time>
      </trkpt>
      <trkpt lat="49.90558" lon="2.51343">
        <ele>32.2</ele>
        <time>2020-09-30T14:00:14Z</time>
      </trkpt>
      <trkpt lat="49.90558" lon="2.51341">
        <ele>32.2</ele>
        <time>2020-09-30T14:00:16Z</time>
      </trkpt>
      <trkpt lat="49.90558" lon="2.51339">
        <ele>32.2</ele>
        <time>2020-09-30T14:00:17Z</time>
      </trkpt>
      <trkpt lat="49.90558" lon="2.51336">
        <ele>32.2</ele>
        <time>2020-09-30T14:00:18Z</time>
      </trkpt>
      <trkpt lat="49.90558" lon="2.51334">
        <ele>32.2</ele>
        <time>2020-09-30T14:00:19Z</time>
      </trkpt>
      <trkpt lat="49.90558" lon="2.51332">
        <ele>32.2</ele>
        <time>2020-09-30T14:00:20Z</time>
      </trkpt>
      <trkpt lat="49.90558" lon="2.51329">
        <ele>32.2</ele>
        <time>2020-09-30T14:00:21Z</time>
      </trkpt>
      <trkpt lat="49.90558" lon="2.51328">
        <ele>32.2</ele>
        <time>2020-09-30T14:00:23Z</time>
      </trkpt>
      <trkpt lat="49.90557" lon="2.51326">
        <ele>32.2</ele>
        <time>2020-09-30T14:00:24Z</time>
      </trkpt>
      <trkpt lat="49.90557" lon="2.51324">
        <ele>32.2</ele>
        <time>2020-09-30T14:00:25Z</time>
      </trkpt>
      <trkpt lat="49.90557" lon="2.5132">
        <ele>32.3</ele>
        <time>2020-09-30T14:00:26Z</time>
      </trkpt>
      <trkpt lat="49.90556" lon="2.51318">
        <ele>32.3</ele>
        <time>2020-09-30T14:00:27Z</time>
      </trkpt>
      <trkpt lat="49.90556" lon="2.51317">
        <ele>32.3</ele>
        <time>2020-09-30T14:00:28Z</time>
      </trkpt>
      <trkpt lat="49.90556" lon="2.51315">
        <ele>32.3</ele>
        <time>2020-09-30T14:00:29Z</time>
      </trkpt>
      <trkpt lat="49.90556" lon="2.51313">
        <ele>32.3</ele>
        <time>2020-09-30T14:00:31Z</time>
      </trkpt>
      <trkpt lat="49.90555" lon="2.51309">
        <ele>32.3</ele>
        <time>2020-09-30T14:00:32Z</time>
      </trkpt>
      <trkpt lat="49.90555" lon="2.51308">
        <ele>32.3</ele>
        <time>2020-09-30T14:00:33Z</time>
      </trkpt>
      <trkpt lat="49.90555" lon="2.51307">
        <ele>32.3</ele>
        <time>2020-09-30T14:00:34Z</time>
      </trkpt>
      <trkpt lat="49.90555" lon="2.51304">
        <ele>32.3</ele>
        <time>2020-09-30T14:00:36Z</time>
      </trkpt>
      <trkpt lat="49.90555" lon="2.51302">
        <ele>32.3</ele>
        <time>2020-09-30T14:00:37Z</time>
      </trkpt>
      <trkpt lat="49.90555" lon="2.51299">
        <ele>32.3</ele>
        <time>2020-09-30T14:00:38Z</time>
      </trkpt>
      <trkpt lat="49.90554" lon="2.51297">
        <ele>32.3</ele>
        <time>2020-09-30T14:00:39Z</time>
      </trkpt>
      <trkpt lat="49.90555" lon="2.51295">
        <ele>32.3</ele>
        <time>2020-09-30T14:00:40Z</time>
      </trkpt>
      <trkpt lat="49.90554" lon="2.51293">
        <ele>32.3</ele>
        <time>2020-09-30T14:00:41Z</time>
      </trkpt>
      <trkpt lat="49.90554" lon="2.51291">
        <ele>32.3</ele>
        <time>2020-09-30T14:00:43Z</time>
      </trkpt>
      <trkpt lat="49.90554" lon="2.51289">
        <ele>32.3</ele>
        <time>2020-09-30T14:00:44Z</time>
      </trkpt>
      <trkpt lat="49.90554" lon="2.51287">
        <ele>32.3</ele>
        <time>2020-09-30T14:00:45Z</time>
      </trkpt>
      <trkpt lat="49.90553" lon="2.51286">
        <ele>32.3</ele>
        <time>2020-09-30T14:00:46Z</time>
      </trkpt>
      <trkpt lat="49.90553" lon="2.51284">
        <ele>32.3</ele>
        <time>2020-09-30T14:00:47Z</time>
      </trkpt>
      <trkpt lat="49.90552" lon="2.51282">
        <ele>32.3</ele>
        <time>2020-09-30T14:00:48Z</time>
      </trkpt>
      <trkpt lat="49.90552" lon="2.5128">
        <ele>32.3</ele>
        <time>2020-09-30T14:00:49Z</time>
      </trkpt>
      <trkpt lat="49.90551" lon="2.51277">
        <ele>32.3</ele>
        <time>2020-09-30T14:00:51Z</time>
      </trkpt>
      <trkpt lat="49.90551" lon="2.51275">
        <ele>32.3</ele>
        <time>2020-09-30T14:00:52Z</time>
      </trkpt>
      <trkpt lat="49.90551" lon="2.51273">
        <ele>32.3</ele>
        <time>2020-09-30T14:00:53Z</time>
      </trkpt>
      <trkpt lat="49.90551" lon="2.5127">
        <ele>32.3</ele>
        <time>2020-09-30T14:00:54Z</time>
      </trkpt>
      <trkpt lat="49.90551" lon="2.51266">
        <ele>32.3</ele>
        <time>2020-09-30T14:00:56Z</time>
      </trkpt>
      <trkpt lat="49.9055" lon="2.51264">
        <ele>32.3</ele>
        <time>2020-09-30T14:00:57Z</time>
      </trkpt>
      <trkpt lat="49.9055" lon="2.51262">
        <ele>32.3</ele>
        <time>2020-09-30T14:00:58Z</time>
      </trkpt>
      <trkpt lat="49.9055" lon="2.51259">
        <ele>32.3</ele>
        <time>2020-09-30T14:00:59Z</time>
      </trkpt>
      <trkpt lat="49.90549" lon="2.51256">
        <ele>32.3</ele>
        <time>2020-09-30T14:01:01Z</time>
      </trkpt>
      <trkpt lat="49.90549" lon="2.51254">
        <ele>32.3</ele>
        <time>2020-09-30T14:01:02Z</time>
      </trkpt>
      <trkpt lat="49.90548" lon="2.51251">
        <ele>32.3</ele>
        <time>2020-09-30T14:01:03Z</time>
      </trkpt>
      <trkpt lat="49.90547" lon="2.51248">
        <ele>32.3</ele>
        <time>2020-09-30T14:01:04Z</time>
      </trkpt>
      <trkpt lat="49.90547" lon="2.51247">
        <ele>32.3</ele>
        <time>2020-09-30T14:01:05Z</time>
      </trkpt>
      <trkpt lat="49.90547" lon="2.51245">
        <ele>32.3</ele>
        <time>2020-09-30T14:01:06Z</time>
      </trkpt>
      <trkpt lat="49.90546" lon="2.51244">
        <ele>32.3</ele>
        <time>2020-09-30T14:01:07Z</time>
      </trkpt>
      <trkpt lat="49.90546" lon="2.51242">
        <ele>32.3</ele>
        <time>2020-09-30T14:01:08Z</time>
      </trkpt>
      <trkpt lat="49.90545" lon="2.51241">
        <ele>32.3</ele>
        <time>2020-09-30T14:01:10Z</time>
      </trkpt>
      <trkpt lat="49.90544" lon="2.51238">
        <ele>32.3</ele>
        <time>2020-09-30T14:01:11Z</time>
      </trkpt>
      <trkpt lat="49.90544" lon="2.51236">
        <ele>32.3</ele>
        <time>2020-09-30T14:01:12Z</time>
      </trkpt>
      <trkpt lat="49.90543" lon="2.51235">
        <ele>32.3</ele>
        <time>2020-09-30T14:01:13Z</time>
      </trkpt>
      <trkpt lat="49.90543" lon="2.51233">
        <ele>32.3</ele>
        <time>2020-09-30T14:01:14Z</time>
      </trkpt>
      <trkpt lat="49.90542" lon="2.51231">
        <ele>32.3</ele>
        <time>2020-09-30T14:01:15Z</time>
      </trkpt>
      <trkpt lat="49.90542" lon="2.51229">
        <ele>32.3</ele>
        <time>2020-09-30T14:01:16Z</time>
      </trkpt>
      <trkpt lat="49.90542" lon="2.51228">
        <ele>32.3</ele>
        <time>2020-09-30T14:01:17Z</time>
      </trkpt>
      <trkpt lat="49.90541" lon="2.51226">
        <ele>32.3</ele>
        <time>2020-09-30T14:01:18Z</time>
      </trkpt>
      <trkpt lat="49.90541" lon="2.51224">
        <ele>32.3</ele>
        <time>2020-09-30T14:01:19Z</time>
      </trkpt>
      <trkpt lat="49.90541" lon="2.51223">
        <ele>32.3</ele>
        <time>2020-09-30T14:01:20Z</time>
      </trkpt>
      <trkpt lat="49.9054" lon="2.51221">
        <ele>32.3</ele>
        <time>2020-09-30T14:01:21Z</time>
      </trkpt>
      <trkpt lat="49.9054" lon="2.51219">
        <ele>32.3</ele>
        <time>2020-09-30T14:01:23Z</time>
      </trkpt>
      <trkpt lat="49.9054" lon="2.51217">
        <ele>32.3</ele>
        <time>2020-09-30T14:01:24Z</time>
      </trkpt>
      <trkpt lat="49.9054" lon="2.51216">
        <ele>32.3</ele>
        <time>2020-09-30T14:01:25Z</time>
      </trkpt>
      <trkpt lat="49.9054" lon="2.51214">
        <ele>32.3</ele>
        <time>2020-09-30T14:01:26Z</time>
      </trkpt>
      <trkpt lat="49.9054" lon="2.51212">
        <ele>32.3</ele>
        <time>2020-09-30T14:01:27Z</time>
      </trkpt>
      <trkpt lat="49.9054" lon="2.5121">
        <ele>32.3</ele>
        <time>2020-09-30T14:01:28Z</time>
      </trkpt>
      <trkpt lat="49.90539" lon="2.51208">
        <ele>32.3</ele>
        <time>2020-09-30T14:01:29Z</time>
      </trkpt>
      <trkpt lat="49.90539" lon="2.51206">
        <ele>32.3</ele>
        <time>2020-09-30T14:01:30Z</time>
      </trkpt>
      <trkpt lat="49.9054" lon="2.51204">
        <ele>32.3</ele>
        <time>2020-09-30T14:01:32Z</time>
      </trkpt>
      <trkpt lat="49.9054" lon="2.51203">
        <ele>32.3</ele>
        <time>2020-09-30T14:01:33Z</time>
      </trkpt>
      <trkpt lat="49.9054" lon="2.512">
        <ele>32.3</ele>
        <time>2020-09-30T14:01:34Z</time>
      </trkpt>
      <trkpt lat="49.9054" lon="2.51198">
        <ele>32.3</ele>
        <time>2020-09-30T14:01:35Z</time>
      </trkpt>
      <trkpt lat="49.9054" lon="2.51197">
        <ele>32.3</ele>
        <time>2020-09-30T14:01:36Z</time>
      </trkpt>
      <trkpt lat="49.9054" lon="2.51195">
        <ele>32.3</ele>
        <time>2020-09-30T14:01:37Z</time>
      </trkpt>
      <trkpt lat="49.9054" lon="2.51191">
        <ele>32.3</ele>
        <time>2020-09-30T14:01:38Z</time>
      </trkpt>
      <trkpt lat="49.9054" lon="2.5119">
        <ele>32.3</ele>
        <time>2020-09-30T14:01:40Z</time>
      </trkpt>
      <trkpt lat="49.9054" lon="2.51188">
        <ele>32.4</ele>
        <time>2020-09-30T14:01:41Z</time>
      </trkpt>
      <trkpt lat="49.9054" lon="2.51185">
        <ele>32.4</ele>
        <time>2020-09-30T14:01:42Z</time>
      </trkpt>
      <trkpt lat="49.9054" lon="2.51183">
        <ele>32.4</ele>
        <time>2020-09-30T14:01:43Z</time>
      </trkpt>
      <trkpt lat="49.9054" lon="2.51182">
        <ele>32.4</ele>
        <time>2020-09-30T14:01:44Z</time>
      </trkpt>
      <trkpt lat="49.9054" lon="2.5118">
        <ele>32.4</ele>
        <time>2020-09-30T14:01:45Z</time>
      </trkpt>
      <trkpt lat="49.9054" lon="2.51177">
        <ele>32.4</ele>
        <time>2020-09-30T14:01:47Z</time>
      </trkpt>
      <trkpt lat="49.9054" lon="2.51175">
        <ele>32.4</ele>
        <time>2020-09-30T14:01:48Z</time>
      </trkpt>
      <trkpt lat="49.9054" lon="2.51173">
        <ele>32.4</ele>
        <time>2020-09-30T14:01:49Z</time>
      </trkpt>
      <trkpt lat="49.9054" lon="2.51171">
        <ele>32.4</ele>
        <time>2020-09-30T14:01:50Z</time>
      </trkpt>
      <trkpt lat="49.9054" lon="2.51169">
        <ele>32.4</ele>
        <time>2020-09-30T14:01:52Z</time>
      </trkpt>
      <trkpt lat="49.9054" lon="2.51167">
        <ele>32.4</ele>
        <time>2020-09-30T14:01:53Z</time>
      </trkpt>
      <trkpt lat="49.9054" lon="2.51164">
        <ele>32.4</ele>
        <time>2020-09-30T14:01:54Z</time>
      </trkpt>
      <trkpt lat="49.9054" lon="2.5116">
        <ele>32.4</ele>
        <time>2020-09-30T14:01:56Z</time>
      </trkpt>
      <trkpt lat="49.9054" lon="2.51158">
        <ele>32.4</ele>
        <time>2020-09-30T14:01:57Z</time>
      </trkpt>
      <trkpt lat="49.9054" lon="2.51156">
        <ele>32.4</ele>
        <time>2020-09-30T14:01:58Z</time>
      </trkpt>
      <trkpt lat="49.9054" lon="2.51153">
        <ele>32.4</ele>
        <time>2020-09-30T14:01:59Z</time>
      </trkpt>
      <trkpt lat="49.90539" lon="2.51151">
        <ele>32.4</ele>
        <time>2020-09-30T14:02:01Z</time>
      </trkpt>
      <trkpt lat="49.90539" lon="2.51146">
        <ele>32.4</ele>
        <time>2020-09-30T14:02:03Z</time>
      </trkpt>
      <trkpt lat="49.90539" lon="2.51144">
        <ele>32.4</ele>
        <time>2020-09-30T14:02:04Z</time>
      </trkpt>
      <trkpt lat="49.90538" lon="2.51142">
        <ele>32.4</ele>
        <time>2020-09-30T14:02:05Z</time>
      </trkpt>
      <trkpt lat="49.90538" lon="2.51139">
        <ele>32.4</ele>
        <time>2020-09-30T14:02:06Z</time>
      </trkpt>
      <trkpt lat="49.90537" lon="2.51137">
        <ele>32.4</ele>
        <time>2020-09-30T14:02:07Z</time>
      </trkpt>
      <trkpt lat="49.90537" lon="2.51135">
        <ele>32.4</ele>
        <time>2020-09-30T14:02:08Z</time>
      </trkpt>
      <trkpt lat="49.90537" lon="2.51133">
        <ele>32.4</ele>
        <time>2020-09-30T14:02:09Z</time>
      </trkpt>
      <trkpt lat="49.90537" lon="2.51129">
        <ele>32.4</ele>
        <time>2020-09-30T14:02:10Z</time>
      </trkpt>
      <trkpt lat="49.90536" lon="2.51128">
        <ele>32.4</ele>
        <time>2020-09-30T14:02:12Z</time>
      </trkpt>
      <trkpt lat="49.90536" lon="2.51126">
        <ele>32.4</ele>
        <time>2020-09-30T14:02:13Z</time>
      </trkpt>
      <trkpt lat="49.90536" lon="2.51124">
        <ele>32.4</ele>
        <time>2020-09-30T14:02:14Z</time>
      </trkpt>
      <trkpt lat="49.90536" lon="2.51123">
        <ele>32.4</ele>
        <time>2020-09-30T14:02:15Z</time>
      </trkpt>
      <trkpt lat="49.90536" lon="2.51121">
        <ele>32.4</ele>
        <time>2020-09-30T14:02:16Z</time>
      </trkpt>
      <trkpt lat="49.90536" lon="2.51119">
        <ele>32.4</ele>
        <time>2020-09-30T14:02:17Z</time>
      </trkpt>
      <trkpt lat="49.90535" lon="2.51117">
        <ele>32.4</ele>
        <time>2020-09-30T14:02:18Z</time>
      </trkpt>
      <trkpt lat="49.90535" lon="2.51115">
        <ele>32.4</ele>
        <time>2020-09-30T14:02:20Z</time>
      </trkpt>
      <trkpt lat="49.90535" lon="2.51111">
        <ele>32.4</ele>
        <time>2020-09-30T14:02:21Z</time>
      </trkpt>
      <trkpt lat="49.90535" lon="2.5111">
        <ele>32.4</ele>
        <time>2020-09-30T14:02:22Z</time>
      </trkpt>
      <trkpt lat="49.90535" lon="2.51109">
        <ele>32.4</ele>
        <time>2020-09-30T14:02:23Z</time>
      </trkpt>
      <trkpt lat="49.90535" lon="2.51108">
        <ele>32.4</ele>
        <time>2020-09-30T14:02:24Z</time>
      </trkpt>
      <trkpt lat="49.90534" lon="2.51106">
        <ele>32.4</ele>
        <time>2020-09-30T14:02:25Z</time>
      </trkpt>
      <trkpt lat="49.90534" lon="2.51104">
        <ele>32.4</ele>
        <time>2020-09-30T14:02:26Z</time>
      </trkpt>
      <trkpt lat="49.90534" lon="2.51101">
        <ele>32.3</ele>
        <time>2020-09-30T14:02:27Z</time>
      </trkpt>
      <trkpt lat="49.90534" lon="2.51099">
        <ele>32.3</ele>
        <time>2020-09-30T14:02:28Z</time>
      </trkpt>
      <trkpt lat="49.90533" lon="2.51098">
        <ele>32.3</ele>
        <time>2020-09-30T14:02:29Z</time>
      </trkpt>
      <trkpt lat="49.90533" lon="2.51097">
        <ele>32.3</ele>
        <time>2020-09-30T14:02:30Z</time>
      </trkpt>
      <trkpt lat="49.90534" lon="2.51094">
        <ele>32.3</ele>
        <time>2020-09-30T14:02:31Z</time>
      </trkpt>
      <trkpt lat="49.90534" lon="2.51093">
        <ele>32.3</ele>
        <time>2020-09-30T14:02:33Z</time>
      </trkpt>
      <trkpt lat="49.90533" lon="2.5109">
        <ele>32.3</ele>
        <time>2020-09-30T14:02:34Z</time>
      </trkpt>
      <trkpt lat="49.90533" lon="2.51088">
        <ele>32.3</ele>
        <time>2020-09-30T14:02:35Z</time>
      </trkpt>
      <trkpt lat="49.90532" lon="2.51086">
        <ele>32.3</ele>
        <time>2020-09-30T14:02:36Z</time>
      </trkpt>
      <trkpt lat="49.90532" lon="2.51085">
        <ele>32.3</ele>
        <time>2020-09-30T14:02:37Z</time>
      </trkpt>
      <trkpt lat="49.90531" lon="2.51083">
        <ele>32.3</ele>
        <time>2020-09-30T14:02:38Z</time>
      </trkpt>
      <trkpt lat="49.90531" lon="2.51081">
        <ele>32.3</ele>
        <time>2020-09-30T14:02:39Z</time>
      </trkpt>
      <trkpt lat="49.9053" lon="2.5108">
        <ele>32.3</ele>
        <time>2020-09-30T14:02:41Z</time>
      </trkpt>
      <trkpt lat="49.90531" lon="2.51076">
        <ele>32.3</ele>
        <time>2020-09-30T14:02:42Z</time>
      </trkpt>
      <trkpt lat="49.90531" lon="2.51074">
        <ele>32.3</ele>
        <time>2020-09-30T14:02:43Z</time>
      </trkpt>
      <trkpt lat="49.9053" lon="2.51073">
        <ele>32.3</ele>
        <time>2020-09-30T14:02:44Z</time>
      </trkpt>
      <trkpt lat="49.9053" lon="2.51071">
        <ele>32.3</ele>
        <time>2020-09-30T14:02:45Z</time>
      </trkpt>
      <trkpt lat="49.9053" lon="2.51067">
        <ele>32.3</ele>
        <time>2020-09-30T14:02:47Z</time>
      </trkpt>
      <trkpt lat="49.90529" lon="2.51063">
        <ele>32.3</ele>
        <time>2020-09-30T14:02:48Z</time>
      </trkpt>
      <trkpt lat="49.90529" lon="2.51061">
        <ele>32.3</ele>
        <time>2020-09-30T14:02:50Z</time>
      </trkpt>
      <trkpt lat="49.90528" lon="2.51059">
        <ele>32.3</ele>
        <time>2020-09-30T14:02:51Z</time>
      </trkpt>
      <trkpt lat="49.90527" lon="2.51057">
        <ele>32.3</ele>
        <time>2020-09-30T14:02:52Z</time>
      </trkpt>
      <trkpt lat="49.90527" lon="2.51054">
        <ele>32.4</ele>
        <time>2020-09-30T14:02:53Z</time>
      </trkpt>
      <trkpt lat="49.90526" lon="2.51052">
        <ele>32.4</ele>
        <time>2020-09-30T14:02:54Z</time>
      </trkpt>
      <trkpt lat="49.90526" lon="2.51048">
        <ele>32.4</ele>
        <time>2020-09-30T14:02:55Z</time>
      </trkpt>
      <trkpt lat="49.90527" lon="2.51045">
        <ele>32.4</ele>
        <time>2020-09-30T14:02:56Z</time>
      </trkpt>
      <trkpt lat="49.90528" lon="2.51042">
        <ele>32.4</ele>
        <time>2020-09-30T14:02:57Z</time>
      </trkpt>
      <trkpt lat="49.90526" lon="2.5104">
        <ele>32.4</ele>
        <time>2020-09-30T14:02:58Z</time>
      </trkpt>
      <trkpt lat="49.90526" lon="2.51039">
        <ele>32.4</ele>
        <time>2020-09-30T14:02:59Z</time>
      </trkpt>
      <trkpt lat="49.90525" lon="2.51037">
        <ele>32.4</ele>
        <time>2020-09-30T14:03:00Z</time>
      </trkpt>
      <trkpt lat="49.90525" lon="2.51034">
        <ele>32.4</ele>
        <time>2020-09-30T14:03:02Z</time>
      </trkpt>
      <trkpt lat="49.90524" lon="2.51033">
        <ele>32.4</ele>
        <time>2020-09-30T14:03:03Z</time>
      </trkpt>
      <trkpt lat="49.90524" lon="2.51032">
        <ele>32.4</ele>
        <time>2020-09-30T14:03:04Z</time>
      </trkpt>
      <trkpt lat="49.90523" lon="2.5103">
        <ele>32.4</ele>
        <time>2020-09-30T14:03:05Z</time>
      </trkpt>
      <trkpt lat="49.90522" lon="2.51029">
        <ele>32.4</ele>
        <time>2020-09-30T14:03:06Z</time>
      </trkpt>
      <trkpt lat="49.90522" lon="2.51028">
        <ele>32.4</ele>
        <time>2020-09-30T14:03:08Z</time>
      </trkpt>
      <trkpt lat="49.90521" lon="2.51027">
        <ele>32.4</ele>
        <time>2020-09-30T14:03:09Z</time>
      </trkpt>
      <trkpt lat="49.90519" lon="2.51026">
        <ele>32.4</ele>
        <time>2020-09-30T14:03:10Z</time>
      </trkpt>
      <trkpt lat="49.90517" lon="2.51026">
        <ele>32.4</ele>
        <time>2020-09-30T14:03:12Z</time>
      </trkpt>
      <trkpt lat="49.90516" lon="2.51025">
        <ele>32.4</ele>
        <time>2020-09-30T14:03:13Z</time>
      </trkpt>
      <trkpt lat="49.90515" lon="2.51026">
        <ele>32.4</ele>
        <time>2020-09-30T14:03:14Z</time>
      </trkpt>
      <trkpt lat="49.90513" lon="2.51027">
        <ele>32.4</ele>
        <time>2020-09-30T14:03:16Z</time>
      </trkpt>
      <trkpt lat="49.90513" lon="2.51029">
        <ele>32.4</ele>
        <time>2020-09-30T14:03:18Z</time>
      </trkpt>
      <trkpt lat="49.90512" lon="2.5103">
        <ele>32.4</ele>
        <time>2020-09-30T14:03:19Z</time>
      </trkpt>
      <trkpt lat="49.90512" lon="2.51031">
        <ele>32.4</ele>
        <time>2020-09-30T14:03:20Z</time>
      </trkpt>
      <trkpt lat="49.90513" lon="2.51031">
        <ele>32.4</ele>
        <time>2020-09-30T14:03:23Z</time>
      </trkpt>
      <trkpt lat="49.90513" lon="2.51031">
        <ele>32.4</ele>
        <time>2020-09-30T14:03:24Z</time>
      </trkpt>
      <trkpt lat="49.90512" lon="2.51032">
        <ele>32.4</ele>
        <time>2020-09-30T14:03:25Z</time>
      </trkpt>
      <trkpt lat="49.90511" lon="2.51034">
        <ele>32.4</ele>
        <time>2020-09-30T14:03:27Z</time>
      </trkpt>
      <trkpt lat="49.90511" lon="2.51034">
        <ele>32.4</ele>
        <time>2020-09-30T14:03:28Z</time>
      </trkpt>
      <trkpt lat="49.9051" lon="2.51035">
        <ele>32.4</ele>
        <time>2020-09-30T14:03:29Z</time>
      </trkpt>
      <trkpt lat="49.9051" lon="2.51037">
        <ele>32.4</ele>
        <time>2020-09-30T14:03:31Z</time>
      </trkpt>
      <trkpt lat="49.90511" lon="2.51035">
        <ele>32.4</ele>
        <time>2020-09-30T14:03:32Z</time>
      </trkpt>
      <trkpt lat="49.9051" lon="2.51035">
        <ele>32.4</ele>
        <time>2020-09-30T14:03:33Z</time>
      </trkpt>
      <trkpt lat="49.90509" lon="2.51035">
        <ele>32.4</ele>
        <time>2020-09-30T14:03:35Z</time>
      </trkpt>
      <trkpt lat="49.90509" lon="2.51035">
        <ele>32.4</ele>
        <time>2020-09-30T14:03:36Z</time>
      </trkpt>
      <trkpt lat="49.90511" lon="2.51033">
        <ele>32.4</ele>
        <time>2020-09-30T14:03:37Z</time>
      </trkpt>
      <trkpt lat="49.9051" lon="2.51033">
        <ele>32.4</ele>
        <time>2020-09-30T14:03:39Z</time>
      </trkpt>
      <trkpt lat="49.9051" lon="2.51032">
        <ele>32.4</ele>
        <time>2020-09-30T14:03:40Z</time>
      </trkpt>
      <trkpt lat="49.90512" lon="2.51031">
        <ele>32.4</ele>
        <time>2020-09-30T14:03:42Z</time>
      </trkpt>
      <trkpt lat="49.90512" lon="2.5103">
        <ele>32.4</ele>
        <time>2020-09-30T14:03:43Z</time>
      </trkpt>
      <trkpt lat="49.90511" lon="2.5103">
        <ele>32.4</ele>
        <time>2020-09-30T14:03:44Z</time>
      </trkpt>
      <trkpt lat="49.9051" lon="2.51029">
        <ele>32.4</ele>
        <time>2020-09-30T14:03:46Z</time>
      </trkpt>
      <trkpt lat="49.9051" lon="2.51029">
        <ele>32.4</ele>
        <time>2020-09-30T14:03:47Z</time>
      </trkpt>
      <trkpt lat="49.90509" lon="2.51031">
        <ele>32.4</ele>
        <time>2020-09-30T14:03:48Z</time>
      </trkpt>
      <trkpt lat="49.90509" lon="2.51032">
        <ele>32.4</ele>
        <time>2020-09-30T14:03:50Z</time>
      </trkpt>
      <trkpt lat="49.9051" lon="2.51032">
        <ele>32.4</ele>
        <time>2020-09-30T14:03:51Z</time>
      </trkpt>
      <trkpt lat="49.90512" lon="2.51029">
        <ele>32.4</ele>
        <time>2020-09-30T14:03:53Z</time>
      </trkpt>
      <trkpt lat="49.90512" lon="2.51029">
        <ele>32.4</ele>
        <time>2020-09-30T14:03:54Z</time>
      </trkpt>
      <trkpt lat="49.90512" lon="2.51029">
        <ele>32.4</ele>
        <time>2020-09-30T14:03:55Z</time>
      </trkpt>
      <trkpt lat="49.90512" lon="2.51029">
        <ele>32.4</ele>
        <time>2020-09-30T14:03:56Z</time>
      </trkpt>
      <trkpt lat="49.90513" lon="2.51028">
        <ele>32.4</ele>
        <time>2020-09-30T14:03:58Z</time>
      </trkpt>
      <trkpt lat="49.90512" lon="2.51028">
        <ele>32.4</ele>
        <time>2020-09-30T14:04:00Z</time>
      </trkpt>
      <trkpt lat="49.90512" lon="2.51028">
        <ele>32.4</ele>
        <time>2020-09-30T14:04:01Z</time>
      </trkpt>
      <trkpt lat="49.90512" lon="2.51029">
        <ele>32.4</ele>
        <time>2020-09-30T14:04:02Z</time>
      </trkpt>
      <trkpt lat="49.90512" lon="2.5103">
        <ele>32.4</ele>
        <time>2020-09-30T14:04:03Z</time>
      </trkpt>
      <trkpt lat="49.90511" lon="2.51031">
        <ele>32.4</ele>
        <time>2020-09-30T14:04:05Z</time>
      </trkpt>
      <trkpt lat="49.90511" lon="2.51032">
        <ele>32.4</ele>
        <time>2020-09-30T14:04:06Z</time>
      </trkpt>
      <trkpt lat="49.90511" lon="2.51033">
        <ele>32.4</ele>
        <time>2020-09-30T14:04:07Z</time>
      </trkpt>
      <trkpt lat="49.90512" lon="2.51032">
        <ele>32.4</ele>
        <time>2020-09-30T14:04:08Z</time>
      </trkpt>
      <trkpt lat="49.90511" lon="2.51034">
        <ele>32.4</ele>
        <time>2020-09-30T14:04:09Z</time>
      </trkpt>
      <trkpt lat="49.9051" lon="2.51036">
        <ele>32.4</ele>
        <time>2020-09-30T14:04:11Z</time>
      </trkpt>
      <trkpt lat="49.90509" lon="2.51037">
        <ele>32.4</ele>
        <time>2020-09-30T14:04:13Z</time>
      </trkpt>
      <trkpt lat="49.90509" lon="2.51038">
        <ele>32.4</ele>
        <time>2020-09-30T14:04:14Z</time>
      </trkpt>
      <trkpt lat="49.90508" lon="2.51041">
        <ele>32.4</ele>
        <time>2020-09-30T14:04:16Z</time>
      </trkpt>
      <trkpt lat="49.90508" lon="2.51043">
        <ele>32.4</ele>
        <time>2020-09-30T14:04:18Z</time>
      </trkpt>
      <trkpt lat="49.90508" lon="2.51044">
        <ele>32.4</ele>
        <time>2020-09-30T14:04:19Z</time>
      </trkpt>
      <trkpt lat="49.90508" lon="2.51045">
        <ele>32.4</ele>
        <time>2020-09-30T14:04:21Z</time>
      </trkpt>
      <trkpt lat="49.90511" lon="2.51044">
        <ele>32.4</ele>
        <time>2020-09-30T14:04:23Z</time>
      </trkpt>
      <trkpt lat="49.9051" lon="2.51046">
        <ele>32.4</ele>
        <time>2020-09-30T14:04:25Z</time>
      </trkpt>
      <trkpt lat="49.9051" lon="2.51046">
        <ele>32.4</ele>
        <time>2020-09-30T14:04:26Z</time>
      </trkpt>
      <trkpt lat="49.9051" lon="2.51046">
        <ele>32.4</ele>
        <time>2020-09-30T14:04:27Z</time>
      </trkpt>
      <trkpt lat="49.90509" lon="2.51045">
        <ele>32.4</ele>
        <time>2020-09-30T14:04:28Z</time>
      </trkpt>
      <trkpt lat="49.90509" lon="2.51045">
        <ele>32.4</ele>
        <time>2020-09-30T14:04:29Z</time>
      </trkpt>
      <trkpt lat="49.90509" lon="2.51046">
        <ele>32.4</ele>
        <time>2020-09-30T14:04:31Z</time>
      </trkpt>
      <trkpt lat="49.90508" lon="2.51046">
        <ele>32.4</ele>
        <time>2020-09-30T14:04:33Z</time>
      </trkpt>
      <trkpt lat="49.90508" lon="2.51046">
        <ele>32.4</ele>
        <time>2020-09-30T14:04:34Z</time>
      </trkpt>
      <trkpt lat="49.90508" lon="2.51045">
        <ele>32.4</ele>
        <time>2020-09-30T14:04:36Z</time>
      </trkpt>
      <trkpt lat="49.90508" lon="2.51045">
        <ele>32.4</ele>
        <time>2020-09-30T14:04:37Z</time>
      </trkpt>
      <trkpt lat="49.90508" lon="2.51045">
        <ele>32.4</ele>
        <time>2020-09-30T14:04:39Z</time>
      </trkpt>
      <trkpt lat="49.90508" lon="2.51045">
        <ele>32.4</ele>
        <time>2020-09-30T14:04:40Z</time>
      </trkpt>
      <trkpt lat="49.90508" lon="2.51045">
        <ele>32.4</ele>
        <time>2020-09-30T14:04:41Z</time>
      </trkpt>
      <trkpt lat="49.90508" lon="2.51045">
        <ele>32.4</ele>
        <time>2020-09-30T14:04:43Z</time>
      </trkpt>
      <trkpt lat="49.90509" lon="2.51044">
        <ele>32.4</ele>
        <time>2020-09-30T14:04:44Z</time>
      </trkpt>
      <trkpt lat="49.90508" lon="2.51044">
        <ele>32.4</ele>
        <time>2020-09-30T14:04:46Z</time>
      </trkpt>
      <trkpt lat="49.90508" lon="2.51043">
        <ele>32.4</ele>
        <time>2020-09-30T14:04:47Z</time>
      </trkpt>
      <trkpt lat="49.90508" lon="2.51044">
        <ele>32.4</ele>
        <time>2020-09-30T14:04:49Z</time>
      </trkpt>
      <trkpt lat="49.90508" lon="2.51045">
        <ele>32.4</ele>
        <time>2020-09-30T14:04:50Z</time>
      </trkpt>
      <trkpt lat="49.90507" lon="2.51046">
        <ele>32.4</ele>
        <time>2020-09-30T14:04:52Z</time>
      </trkpt>
      <trkpt lat="49.90507" lon="2.51047">
        <ele>32.4</ele>
        <time>2020-09-30T14:04:53Z</time>
      </trkpt>
      <trkpt lat="49.90507" lon="2.51048">
        <ele>32.4</ele>
        <time>2020-09-30T14:04:55Z</time>
      </trkpt>
      <trkpt lat="49.90507" lon="2.51048">
        <ele>32.4</ele>
        <time>2020-09-30T14:04:56Z</time>
      </trkpt>
      <trkpt lat="49.90507" lon="2.51049">
        <ele>32.4</ele>
        <time>2020-09-30T14:04:58Z</time>
      </trkpt>
      <trkpt lat="49.90509" lon="2.51049">
        <ele>32.4</ele>
        <time>2020-09-30T14:04:59Z</time>
      </trkpt>
      <trkpt lat="49.90508" lon="2.5105">
        <ele>32.4</ele>
        <time>2020-09-30T14:05:01Z</time>
      </trkpt>
      <trkpt lat="49.90508" lon="2.5105">
        <ele>32.4</ele>
        <time>2020-09-30T14:05:02Z</time>
      </trkpt>
      <trkpt lat="49.90508" lon="2.5105">
        <ele>32.4</ele>
        <time>2020-09-30T14:05:03Z</time>
      </trkpt>
      <trkpt lat="49.90508" lon="2.51051">
        <ele>32.4</ele>
        <time>2020-09-30T14:05:04Z</time>
      </trkpt>
      <trkpt lat="49.90508" lon="2.51051">
        <ele>32.4</ele>
        <time>2020-09-30T14:05:05Z</time>
      </trkpt>
      <trkpt lat="49.90508" lon="2.51051">
        <ele>32.4</ele>
        <time>2020-09-30T14:05:07Z</time>
      </trkpt>
      <trkpt lat="49.90508" lon="2.51051">
        <ele>32.4</ele>
        <time>2020-09-30T14:05:10Z</time>
      </trkpt>
      <trkpt lat="49.90508" lon="2.51051">
        <ele>32.4</ele>
        <time>2020-09-30T14:05:11Z</time>
      </trkpt>
      <trkpt lat="49.90508" lon="2.51051">
        <ele>32.4</ele>
        <time>2020-09-30T14:05:12Z</time>
      </trkpt>
      <trkpt lat="49.90508" lon="2.51052">
        <ele>32.4</ele>
        <time>2020-09-30T14:05:14Z</time>
      </trkpt>
      <trkpt lat="49.90508" lon="2.51052">
        <ele>32.4</ele>
        <time>2020-09-30T14:05:16Z</time>
      </trkpt>
      <trkpt lat="49.90507" lon="2.51052">
        <ele>32.4</ele>
        <time>2020-09-30T14:05:17Z</time>
      </trkpt>
      <trkpt lat="49.90507" lon="2.51052">
        <ele>32.4</ele>
        <time>2020-09-30T14:05:19Z</time>
      </trkpt>
      <trkpt lat="49.90507" lon="2.51052">
        <ele>32.4</ele>
        <time>2020-09-30T14:05:21Z</time>
      </trkpt>
      <trkpt lat="49.90507" lon="2.51052">
        <ele>32.4</ele>
        <time>2020-09-30T14:05:23Z</time>
      </trkpt>
      <trkpt lat="49.90507" lon="2.51052">
        <ele>32.4</ele>
        <time>2020-09-30T14:05:25Z</time>
      </trkpt>
      <trkpt lat="49.90507" lon="2.51052">
        <ele>32.4</ele>
        <time>2020-09-30T14:05:26Z</time>
      </trkpt>
      <trkpt lat="49.90507" lon="2.51052">
        <ele>32.4</ele>
        <time>2020-09-30T14:05:28Z</time>
      </trkpt>
    </trkseg>
  </trk>
</gpx>